<?xml version="1.0" encoding="UTF-8" standalone="no" ?>
<gpx xmlns="http://www.topografix.com/GPX/1/1" xmlns:xsi="http://www.w3.org/2001/XMLSchema-instance" xsi:schemaLocation="http://www.topografix.com/GPX/1/1 http://www.topografix.com/GPX/1/1/gpx.xsd" version="1.1" creator="VisuGPX - https://www.visugpx.com">
  <metadata>
    <name>grand_colombier-TET</name>
    <desc><![CDATA[name=2022 09 24 Begin of the TET section 20 Track
cmt=
desc=
time=2022-09-24T09:46:08Z]]></desc>
  </metadata>
  <wpt lat="45.85842" lon="5.77164">
    <ele>661.1</ele>
    <name><![CDATA[à vérif]]></name>
    <desc><![CDATA[name=à vérif]]></desc>
  </wpt>
  <wpt lat="45.86391" lon="5.82138">
    <ele>238.1</ele>
    <name><![CDATA[ok]]></name>
    <desc><![CDATA[name=ok]]></desc>
  </wpt>
  <wpt lat="46.00337" lon="5.81125">
    <ele>271.3</ele>
    <name><![CDATA[ok]]></name>
    <desc><![CDATA[name=ok]]></desc>
  </wpt>
  <wpt lat="45.98447" lon="5.79127">
    <ele>573.6</ele>
    <name><![CDATA[ok]]></name>
    <desc><![CDATA[name=ok]]></desc>
  </wpt>
  <wpt lat="45.97026" lon="5.76896">
    <ele>1090.4</ele>
    <name><![CDATA[ok]]></name>
    <desc><![CDATA[name=ok]]></desc>
  </wpt>
  <wpt lat="46.09692" lon="5.77954">
    <ele>576.7</ele>
    <name><![CDATA[ok]]></name>
    <desc><![CDATA[name=ok]]></desc>
  </wpt>
  <wpt lat="46.17247" lon="5.75381">
    <ele>531.9</ele>
    <name><![CDATA[ok]]></name>
    <desc><![CDATA[name=ok]]></desc>
  </wpt>
  <wpt lat="45.89804" lon="5.73838">
    <ele>910.1</ele>
    <name><![CDATA[ok]]></name>
    <desc><![CDATA[name=ok]]></desc>
  </wpt>
  <wpt lat="45.92864" lon="5.73929">
    <ele>830.7</ele>
  </wpt>
  <wpt lat="45.95229" lon="5.74925">
    <ele>1311.1</ele>
  </wpt>
  <wpt lat="45.86162" lon="5.79089">
    <ele>594.4</ele>
    <name><![CDATA[par la route]]></name>
    <desc><![CDATA[name=par la route]]></desc>
  </wpt>
  <wpt lat="45.92514" lon="5.79762">
    <ele>682.4</ele>
    <name><![CDATA[Vérif si autorisé]]></name>
    <desc><![CDATA[name=Vérif si autorisé]]></desc>
  </wpt>
  <wpt lat="45.89315" lon="5.7063">
    <ele>484.5</ele>
    <name><![CDATA[ok]]></name>
    <desc><![CDATA[name=ok]]></desc>
  </wpt>
  <wpt lat="45.87199" lon="5.7075">
    <ele>246.1</ele>
    <name><![CDATA[ok]]></name>
    <desc><![CDATA[name=ok]]></desc>
  </wpt>
  <wpt lat="45.8999" lon="5.83082">
    <ele>240</ele>
    <name><![CDATA[ok]]></name>
    <desc><![CDATA[name=ok]]></desc>
  </wpt>
  <trk>
    <name><![CDATA[2022 09 24 Begin of the TET section 20 Track]]></name>
    <desc><![CDATA[name=2022 09 24 Begin of the TET section 20 Track
cmt=
desc=
time=2022-09-24T09:46:08Z]]></desc>
    <extensions>
      <line xmlns="http://www.topografix.com/GPX/gpx_style/0/2">
        <color>0000FF</color>
        <width>4</width>
      </line>
    </extensions>
    <trkseg>
      <trkpt lat="45.99571" lon="5.93533">
        <ele>494.348</ele>
        <time>2022-09-24T09:46:08Z</time>
      </trkpt>
      <trkpt lat="45.99621" lon="5.93523">
        <ele>497.661</ele>
        <time>2022-09-24T09:46:13Z</time>
      </trkpt>
      <trkpt lat="45.99684" lon="5.93382">
        <ele>506.817</ele>
        <time>2022-09-24T09:46:22Z</time>
      </trkpt>
      <trkpt lat="45.99702" lon="5.93104">
        <ele>526.909</ele>
        <time>2022-09-24T09:46:43Z</time>
      </trkpt>
      <trkpt lat="45.99662" lon="5.93148">
        <ele>532.785</ele>
        <time>2022-09-24T09:46:56Z</time>
      </trkpt>
      <trkpt lat="45.99499" lon="5.93017">
        <ele>560.185</ele>
        <time>2022-09-24T09:47:31Z</time>
      </trkpt>
      <trkpt lat="45.99467" lon="5.92928">
        <ele>570.258</ele>
        <time>2022-09-24T09:47:41Z</time>
      </trkpt>
      <trkpt lat="45.99463" lon="5.92819">
        <ele>583.791</ele>
        <time>2022-09-24T09:47:56Z</time>
      </trkpt>
      <trkpt lat="45.99448" lon="5.92801">
        <ele>589.034</ele>
        <time>2022-09-24T09:48:54Z</time>
      </trkpt>
      <trkpt lat="45.99433" lon="5.92707">
        <ele>598.66</ele>
        <time>2022-09-24T10:15:47Z</time>
      </trkpt>
      <trkpt lat="45.99543" lon="5.92656">
        <ele>597.113</ele>
        <time>2022-09-24T10:16:44Z</time>
      </trkpt>
      <trkpt lat="45.99646" lon="5.92518">
        <ele>601.987</ele>
        <time>2022-09-24T10:17:07Z</time>
      </trkpt>
      <trkpt lat="45.99718" lon="5.92372">
        <ele>592.813</ele>
        <time>2022-09-24T10:17:31Z</time>
      </trkpt>
      <trkpt lat="45.99746" lon="5.92134">
        <ele>577.937</ele>
        <time>2022-09-24T10:18:26Z</time>
      </trkpt>
      <trkpt lat="45.99814" lon="5.91875">
        <ele>569.249</ele>
        <time>2022-09-24T10:18:48Z</time>
      </trkpt>
      <trkpt lat="45.99823" lon="5.91784">
        <ele>565.413</ele>
        <time>2022-09-24T10:18:55Z</time>
      </trkpt>
      <trkpt lat="45.9981" lon="5.91596">
        <ele>560.109</ele>
        <time>2022-09-24T10:19:08Z</time>
      </trkpt>
      <trkpt lat="45.99827" lon="5.91487">
        <ele>561.584</ele>
        <time>2022-09-24T10:19:16Z</time>
      </trkpt>
      <trkpt lat="45.99767" lon="5.91279">
        <ele>565.984</ele>
        <time>2022-09-24T10:19:32Z</time>
      </trkpt>
      <trkpt lat="45.99755" lon="5.9106">
        <ele>568.347</ele>
        <time>2022-09-24T10:19:49Z</time>
      </trkpt>
      <trkpt lat="45.99788" lon="5.90961">
        <ele>568.81</ele>
        <time>2022-09-24T10:20:00Z</time>
      </trkpt>
      <trkpt lat="45.99845" lon="5.90854">
        <ele>564.083</ele>
        <time>2022-09-24T10:20:15Z</time>
      </trkpt>
      <trkpt lat="45.99941" lon="5.90749">
        <ele>546.689</ele>
        <time>2022-09-24T10:20:50Z</time>
      </trkpt>
      <trkpt lat="46.00015" lon="5.90701">
        <ele>539.962</ele>
        <time>2022-09-24T10:21:01Z</time>
      </trkpt>
      <trkpt lat="46.00038" lon="5.90651">
        <ele>535.196</ele>
        <time>2022-09-24T10:21:07Z</time>
      </trkpt>
      <trkpt lat="46.00038" lon="5.90583">
        <ele>529.382</ele>
        <time>2022-09-24T10:21:14Z</time>
      </trkpt>
      <trkpt lat="46.00065" lon="5.90505">
        <ele>519.375</ele>
        <time>2022-09-24T10:21:26Z</time>
      </trkpt>
      <trkpt lat="46.00147" lon="5.90482">
        <ele>514.028</ele>
        <time>2022-09-24T10:21:36Z</time>
      </trkpt>
      <trkpt lat="46.00174" lon="5.90445">
        <ele>512.02</ele>
        <time>2022-09-24T10:21:40Z</time>
      </trkpt>
      <trkpt lat="46.00265" lon="5.90376">
        <ele>508.709</ele>
        <time>2022-09-24T10:21:49Z</time>
      </trkpt>
      <trkpt lat="46.00293" lon="5.90172">
        <ele>501.078</ele>
        <time>2022-09-24T10:22:01Z</time>
      </trkpt>
      <trkpt lat="46.00289" lon="5.90091">
        <ele>498.158</ele>
        <time>2022-09-24T10:22:07Z</time>
      </trkpt>
      <trkpt lat="46.00392" lon="5.89904">
        <ele>491.991</ele>
        <time>2022-09-24T10:22:24Z</time>
      </trkpt>
      <trkpt lat="46.00415" lon="5.89671">
        <ele>480.324</ele>
        <time>2022-09-24T10:22:42Z</time>
      </trkpt>
      <trkpt lat="46.00482" lon="5.89404">
        <ele>466.447</ele>
        <time>2022-09-24T10:23:02Z</time>
      </trkpt>
      <trkpt lat="46.0055" lon="5.89315">
        <ele>457.273</ele>
        <time>2022-09-24T10:23:11Z</time>
      </trkpt>
      <trkpt lat="46.00622" lon="5.89266">
        <ele>448.156</ele>
        <time>2022-09-24T10:23:18Z</time>
      </trkpt>
      <trkpt lat="46.00804" lon="5.89034">
        <ele>428.47</ele>
        <time>2022-09-24T10:23:38Z</time>
      </trkpt>
      <trkpt lat="46.0092" lon="5.88866">
        <ele>417.466</ele>
        <time>2022-09-24T10:23:51Z</time>
      </trkpt>
      <trkpt lat="46.0103" lon="5.88621">
        <ele>394.879</ele>
        <time>2022-09-24T10:24:19Z</time>
      </trkpt>
      <trkpt lat="46.01057" lon="5.88614">
        <ele>393.305</ele>
        <time>2022-09-24T10:24:23Z</time>
      </trkpt>
      <trkpt lat="46.01163" lon="5.88675">
        <ele>395.225</ele>
        <time>2022-09-24T10:24:34Z</time>
      </trkpt>
      <trkpt lat="46.01388" lon="5.88955">
        <ele>390.909</ele>
        <time>2022-09-24T10:24:52Z</time>
      </trkpt>
      <trkpt lat="46.01514" lon="5.89037">
        <ele>378.978</ele>
        <time>2022-09-24T10:25:03Z</time>
      </trkpt>
      <trkpt lat="46.01521" lon="5.89078">
        <ele>374.658</ele>
        <time>2022-09-24T10:25:07Z</time>
      </trkpt>
      <trkpt lat="46.01485" lon="5.89147">
        <ele>369.381</ele>
        <time>2022-09-24T10:25:13Z</time>
      </trkpt>
      <trkpt lat="46.01491" lon="5.89224">
        <ele>364.514</ele>
        <time>2022-09-24T10:25:18Z</time>
      </trkpt>
      <trkpt lat="46.01511" lon="5.89249">
        <ele>361.157</ele>
        <time>2022-09-24T10:25:21Z</time>
      </trkpt>
      <trkpt lat="46.01581" lon="5.89243">
        <ele>354.423</ele>
        <time>2022-09-24T10:25:28Z</time>
      </trkpt>
      <trkpt lat="46.01634" lon="5.89342">
        <ele>352.056</ele>
        <time>2022-09-24T10:25:39Z</time>
      </trkpt>
      <trkpt lat="46.01694" lon="5.89262">
        <ele>354.44</ele>
        <time>2022-09-24T10:25:47Z</time>
      </trkpt>
      <trkpt lat="46.01784" lon="5.88936">
        <ele>381.816</ele>
        <time>2022-09-24T10:26:09Z</time>
      </trkpt>
      <trkpt lat="46.0179" lon="5.89037">
        <ele>387.135</ele>
        <time>2022-09-24T10:26:21Z</time>
      </trkpt>
      <trkpt lat="46.02077" lon="5.89037">
        <ele>387.186</ele>
        <time>2022-09-24T10:26:50Z</time>
      </trkpt>
      <trkpt lat="46.02135" lon="5.89087">
        <ele>378.914</ele>
        <time>2022-09-24T10:26:58Z</time>
      </trkpt>
      <trkpt lat="46.02244" lon="5.89028">
        <ele>364.009</ele>
        <time>2022-09-24T10:27:12Z</time>
      </trkpt>
      <trkpt lat="46.02208" lon="5.88923">
        <ele>353.944</ele>
        <time>2022-09-24T10:27:22Z</time>
      </trkpt>
      <trkpt lat="46.02224" lon="5.88881">
        <ele>350.164</ele>
        <time>2022-09-24T10:27:25Z</time>
      </trkpt>
      <trkpt lat="46.02274" lon="5.88857">
        <ele>344.877</ele>
        <time>2022-09-24T10:27:30Z</time>
      </trkpt>
      <trkpt lat="46.02392" lon="5.89079">
        <ele>330.46</ele>
        <time>2022-09-24T10:27:44Z</time>
      </trkpt>
      <trkpt lat="46.02427" lon="5.89097">
        <ele>327.573</ele>
        <time>2022-09-24T10:27:47Z</time>
      </trkpt>
      <trkpt lat="46.02491" lon="5.89088">
        <ele>319.349</ele>
        <time>2022-09-24T10:27:54Z</time>
      </trkpt>
      <trkpt lat="46.02499" lon="5.88984">
        <ele>311.152</ele>
        <time>2022-09-24T10:28:01Z</time>
      </trkpt>
      <trkpt lat="46.02459" lon="5.88847">
        <ele>299.146</ele>
        <time>2022-09-24T10:28:10Z</time>
      </trkpt>
      <trkpt lat="46.02562" lon="5.8865">
        <ele>293.332</ele>
        <time>2022-09-24T10:28:42Z</time>
      </trkpt>
      <trkpt lat="46.02471" lon="5.88534">
        <ele>294.869</ele>
        <time>2022-09-24T10:28:52Z</time>
      </trkpt>
      <trkpt lat="46.02388" lon="5.88384">
        <ele>295.304</ele>
        <time>2022-09-24T10:29:02Z</time>
      </trkpt>
      <trkpt lat="46.02487" lon="5.88266">
        <ele>301.524</ele>
        <time>2022-09-24T10:29:15Z</time>
      </trkpt>
      <trkpt lat="46.02514" lon="5.88021">
        <ele>332.709</ele>
        <time>2022-09-24T10:29:37Z</time>
      </trkpt>
      <trkpt lat="46.02531" lon="5.88045">
        <ele>335.627</ele>
        <time>2022-09-24T10:29:42Z</time>
      </trkpt>
      <trkpt lat="46.02595" lon="5.88067">
        <ele>359.257</ele>
        <time>2022-09-24T10:30:00Z</time>
      </trkpt>
      <trkpt lat="46.02686" lon="5.88136">
        <ele>362.24</ele>
        <time>2022-09-24T10:33:55Z</time>
      </trkpt>
      <trkpt lat="46.02706" lon="5.88132">
        <ele>364.313</ele>
        <time>2022-09-24T10:34:53Z</time>
      </trkpt>
      <trkpt lat="46.02762" lon="5.88014">
        <ele>381.096</ele>
        <time>2022-09-24T10:39:25Z</time>
      </trkpt>
      <trkpt lat="46.02822" lon="5.88012">
        <ele>389.852</ele>
        <time>2022-09-24T10:42:07Z</time>
      </trkpt>
      <trkpt lat="46.02812" lon="5.87998">
        <ele>390.465</ele>
        <time>2022-09-24T10:42:14Z</time>
      </trkpt>
      <trkpt lat="46.02855" lon="5.87975">
        <ele>393.339</ele>
        <time>2022-09-24T10:42:23Z</time>
      </trkpt>
      <trkpt lat="46.02922" lon="5.87892">
        <ele>402.945</ele>
        <time>2022-09-24T10:42:35Z</time>
      </trkpt>
      <trkpt lat="46.03056" lon="5.8791">
        <ele>424.662</ele>
        <time>2022-09-24T10:42:53Z</time>
      </trkpt>
      <trkpt lat="46.03097" lon="5.87887">
        <ele>437.183</ele>
        <time>2022-09-24T10:43:01Z</time>
      </trkpt>
      <trkpt lat="46.03134" lon="5.87829">
        <ele>447.611</ele>
        <time>2022-09-24T10:43:10Z</time>
      </trkpt>
      <trkpt lat="46.03213" lon="5.87625">
        <ele>462.109</ele>
        <time>2022-09-24T10:43:30Z</time>
      </trkpt>
      <trkpt lat="46.03405" lon="5.87281">
        <ele>481.347</ele>
        <time>2022-09-24T10:44:08Z</time>
      </trkpt>
      <trkpt lat="46.03458" lon="5.87037">
        <ele>489.417</ele>
        <time>2022-09-24T10:44:28Z</time>
      </trkpt>
      <trkpt lat="46.03507" lon="5.86908">
        <ele>496.26</ele>
        <time>2022-09-24T10:44:41Z</time>
      </trkpt>
      <trkpt lat="46.03829" lon="5.86372">
        <ele>511.613</ele>
        <time>2022-09-24T10:45:41Z</time>
      </trkpt>
      <trkpt lat="46.03923" lon="5.86271">
        <ele>512.566</ele>
        <time>2022-09-24T10:45:50Z</time>
      </trkpt>
      <trkpt lat="46.04193" lon="5.85761">
        <ele>521.612</ele>
        <time>2022-09-24T10:46:38Z</time>
      </trkpt>
      <trkpt lat="46.04241" lon="5.85767">
        <ele>520.755</ele>
        <time>2022-09-24T10:46:48Z</time>
      </trkpt>
      <trkpt lat="46.04242" lon="5.85735">
        <ele>520.799</ele>
        <time>2022-09-24T10:46:53Z</time>
      </trkpt>
      <trkpt lat="46.04423" lon="5.85424">
        <ele>524.165</ele>
        <time>2022-09-24T10:47:17Z</time>
      </trkpt>
      <trkpt lat="46.04523" lon="5.85101">
        <ele>530.839</ele>
        <time>2022-09-24T10:47:42Z</time>
      </trkpt>
      <trkpt lat="46.04451" lon="5.85025">
        <ele>534.101</ele>
        <time>2022-09-24T10:47:51Z</time>
      </trkpt>
      <trkpt lat="46.04322" lon="5.84948">
        <ele>539.421</ele>
        <time>2022-09-24T10:47:59Z</time>
      </trkpt>
      <trkpt lat="46.0428" lon="5.84897">
        <ele>538.509</ele>
        <time>2022-09-24T10:48:02Z</time>
      </trkpt>
      <trkpt lat="46.04071" lon="5.8446">
        <ele>526.554</ele>
        <time>2022-09-24T10:48:22Z</time>
      </trkpt>
      <trkpt lat="46.04064" lon="5.84405">
        <ele>524.114</ele>
        <time>2022-09-24T10:48:25Z</time>
      </trkpt>
      <trkpt lat="46.04418" lon="5.83078">
        <ele>490.467</ele>
        <time>2022-09-24T10:49:15Z</time>
      </trkpt>
      <trkpt lat="46.04469" lon="5.82901">
        <ele>491.44</ele>
        <time>2022-09-24T10:49:27Z</time>
      </trkpt>
      <trkpt lat="46.04489" lon="5.8288">
        <ele>491.413</ele>
        <time>2022-09-24T10:49:30Z</time>
      </trkpt>
      <trkpt lat="46.04492" lon="5.828">
        <ele>490.449</ele>
        <time>2022-09-24T10:49:36Z</time>
      </trkpt>
      <trkpt lat="46.04593" lon="5.82578">
        <ele>484.672</ele>
        <time>2022-09-24T10:49:49Z</time>
      </trkpt>
      <trkpt lat="46.04598" lon="5.82514">
        <ele>482.256</ele>
        <time>2022-09-24T10:49:52Z</time>
      </trkpt>
      <trkpt lat="46.04572" lon="5.82378">
        <ele>477.442</ele>
        <time>2022-09-24T10:49:58Z</time>
      </trkpt>
      <trkpt lat="46.04578" lon="5.82334">
        <ele>476.519</ele>
        <time>2022-09-24T10:50:00Z</time>
      </trkpt>
      <trkpt lat="46.04718" lon="5.82091">
        <ele>478.909</ele>
        <time>2022-09-24T10:50:13Z</time>
      </trkpt>
      <trkpt lat="46.04759" lon="5.81818">
        <ele>473.619</ele>
        <time>2022-09-24T10:50:24Z</time>
      </trkpt>
      <trkpt lat="46.04798" lon="5.81754">
        <ele>469.309</ele>
        <time>2022-09-24T10:50:28Z</time>
      </trkpt>
      <trkpt lat="46.04912" lon="5.81665">
        <ele>461.672</ele>
        <time>2022-09-24T10:50:37Z</time>
      </trkpt>
      <trkpt lat="46.04959" lon="5.81666">
        <ele>458.212</ele>
        <time>2022-09-24T10:50:40Z</time>
      </trkpt>
      <trkpt lat="46.05139" lon="5.81758">
        <ele>442.355</ele>
        <time>2022-09-24T10:50:51Z</time>
      </trkpt>
      <trkpt lat="46.05176" lon="5.81746">
        <ele>438.088</ele>
        <time>2022-09-24T10:50:55Z</time>
      </trkpt>
      <trkpt lat="46.05186" lon="5.81721">
        <ele>435.661</ele>
        <time>2022-09-24T10:50:57Z</time>
      </trkpt>
      <trkpt lat="46.05165" lon="5.81669">
        <ele>432.717</ele>
        <time>2022-09-24T10:51:01Z</time>
      </trkpt>
      <trkpt lat="46.05087" lon="5.81662">
        <ele>429.47</ele>
        <time>2022-09-24T10:51:07Z</time>
      </trkpt>
      <trkpt lat="46.0506" lon="5.8161">
        <ele>424.614</ele>
        <time>2022-09-24T10:51:11Z</time>
      </trkpt>
      <trkpt lat="46.05002" lon="5.81581">
        <ele>419.31</ele>
        <time>2022-09-24T10:51:17Z</time>
      </trkpt>
      <trkpt lat="46.04977" lon="5.81473">
        <ele>413.598</ele>
        <time>2022-09-24T10:51:25Z</time>
      </trkpt>
      <trkpt lat="46.04845" lon="5.81387">
        <ele>401.515</ele>
        <time>2022-09-24T10:51:35Z</time>
      </trkpt>
      <trkpt lat="46.04783" lon="5.81264">
        <ele>393.826</ele>
        <time>2022-09-24T10:51:43Z</time>
      </trkpt>
      <trkpt lat="46.04655" lon="5.81233">
        <ele>386.109</ele>
        <time>2022-09-24T10:51:53Z</time>
      </trkpt>
      <trkpt lat="46.04638" lon="5.8122">
        <ele>384.74</ele>
        <time>2022-09-24T10:51:55Z</time>
      </trkpt>
      <trkpt lat="46.04636" lon="5.81189">
        <ele>382.35</ele>
        <time>2022-09-24T10:51:58Z</time>
      </trkpt>
      <trkpt lat="46.04652" lon="5.81176">
        <ele>380.823</ele>
        <time>2022-09-24T10:52:00Z</time>
      </trkpt>
      <trkpt lat="46.0471" lon="5.81209">
        <ele>376.526</ele>
        <time>2022-09-24T10:52:05Z</time>
      </trkpt>
      <trkpt lat="46.04829" lon="5.81211">
        <ele>369.349</ele>
        <time>2022-09-24T10:52:13Z</time>
      </trkpt>
      <trkpt lat="46.04879" lon="5.81283">
        <ele>364.585</ele>
        <time>2022-09-24T10:52:19Z</time>
      </trkpt>
      <trkpt lat="46.04977" lon="5.81311">
        <ele>358.298</ele>
        <time>2022-09-24T10:52:27Z</time>
      </trkpt>
      <trkpt lat="46.05083" lon="5.81428">
        <ele>347.632</ele>
        <time>2022-09-24T10:52:37Z</time>
      </trkpt>
      <trkpt lat="46.05115" lon="5.81421">
        <ele>344.378</ele>
        <time>2022-09-24T10:52:40Z</time>
      </trkpt>
      <trkpt lat="46.05155" lon="5.81389">
        <ele>340.027</ele>
        <time>2022-09-24T10:52:44Z</time>
      </trkpt>
      <trkpt lat="46.0521" lon="5.81406">
        <ele>333.268</ele>
        <time>2022-09-24T10:52:52Z</time>
      </trkpt>
      <trkpt lat="46.0523" lon="5.8139">
        <ele>327.914</ele>
        <time>2022-09-24T10:54:17Z</time>
      </trkpt>
      <trkpt lat="46.05275" lon="5.8121">
        <ele>331.809</ele>
        <time>2022-09-24T10:54:29Z</time>
      </trkpt>
      <trkpt lat="46.05269" lon="5.81185">
        <ele>332.393</ele>
        <time>2022-09-24T10:54:31Z</time>
      </trkpt>
      <trkpt lat="46.05235" lon="5.81142">
        <ele>332.833</ele>
        <time>2022-09-24T10:54:35Z</time>
      </trkpt>
      <trkpt lat="46.05127" lon="5.8107">
        <ele>333.746</ele>
        <time>2022-09-24T10:54:43Z</time>
      </trkpt>
      <trkpt lat="46.0504" lon="5.81046">
        <ele>333.779</ele>
        <time>2022-09-24T10:54:50Z</time>
      </trkpt>
      <trkpt lat="46.0502" lon="5.8097">
        <ele>335.282</ele>
        <time>2022-09-24T10:54:55Z</time>
      </trkpt>
      <trkpt lat="46.05028" lon="5.80914">
        <ele>336.618</ele>
        <time>2022-09-24T10:54:58Z</time>
      </trkpt>
      <trkpt lat="46.05059" lon="5.80872">
        <ele>338.081</ele>
        <time>2022-09-24T10:55:03Z</time>
      </trkpt>
      <trkpt lat="46.05093" lon="5.80881">
        <ele>338.525</ele>
        <time>2022-09-24T10:55:05Z</time>
      </trkpt>
      <trkpt lat="46.05206" lon="5.80979">
        <ele>347.691</ele>
        <time>2022-09-24T10:55:14Z</time>
      </trkpt>
      <trkpt lat="46.05232" lon="5.80969">
        <ele>350.125</ele>
        <time>2022-09-24T10:55:17Z</time>
      </trkpt>
      <trkpt lat="46.05234" lon="5.80909">
        <ele>352.926</ele>
        <time>2022-09-24T10:55:21Z</time>
      </trkpt>
      <trkpt lat="46.05168" lon="5.80804">
        <ele>357.308</ele>
        <time>2022-09-24T10:55:28Z</time>
      </trkpt>
      <trkpt lat="46.05141" lon="5.80644">
        <ele>361.609</ele>
        <time>2022-09-24T10:55:38Z</time>
      </trkpt>
      <trkpt lat="46.05165" lon="5.80535">
        <ele>365.013</ele>
        <time>2022-09-24T10:55:46Z</time>
      </trkpt>
      <trkpt lat="46.05167" lon="5.80417">
        <ele>369.323</ele>
        <time>2022-09-24T10:55:55Z</time>
      </trkpt>
      <trkpt lat="46.05203" lon="5.80183">
        <ele>379.936</ele>
        <time>2022-09-24T10:56:10Z</time>
      </trkpt>
      <trkpt lat="46.05242" lon="5.80046">
        <ele>389.039</ele>
        <time>2022-09-24T10:56:19Z</time>
      </trkpt>
      <trkpt lat="46.05256" lon="5.80042">
        <ele>390.932</ele>
        <time>2022-09-24T10:56:21Z</time>
      </trkpt>
      <trkpt lat="46.05364" lon="5.79812">
        <ele>414.548</ele>
        <time>2022-09-24T10:56:39Z</time>
      </trkpt>
      <trkpt lat="46.05394" lon="5.79828">
        <ele>420.251</ele>
        <time>2022-09-24T10:56:43Z</time>
      </trkpt>
      <trkpt lat="46.05419" lon="5.79912">
        <ele>426.045</ele>
        <time>2022-09-24T10:56:49Z</time>
      </trkpt>
      <trkpt lat="46.05458" lon="5.79934">
        <ele>428.911</ele>
        <time>2022-09-24T10:56:55Z</time>
      </trkpt>
      <trkpt lat="46.05437" lon="5.7984">
        <ele>431.342</ele>
        <time>2022-09-24T10:57:04Z</time>
      </trkpt>
      <trkpt lat="46.05442" lon="5.79723">
        <ele>432.722</ele>
        <time>2022-09-24T10:57:18Z</time>
      </trkpt>
      <trkpt lat="46.05523" lon="5.79696">
        <ele>441.914</ele>
        <time>2022-09-24T10:57:29Z</time>
      </trkpt>
      <trkpt lat="46.05619" lon="5.79601">
        <ele>460.609</ele>
        <time>2022-09-24T10:57:42Z</time>
      </trkpt>
      <trkpt lat="46.05637" lon="5.79558">
        <ele>465.985</ele>
        <time>2022-09-24T10:57:46Z</time>
      </trkpt>
      <trkpt lat="46.05663" lon="5.79536">
        <ele>469.765</ele>
        <time>2022-09-24T10:57:49Z</time>
      </trkpt>
      <trkpt lat="46.05827" lon="5.79524">
        <ele>483.228</ele>
        <time>2022-09-24T10:58:02Z</time>
      </trkpt>
      <trkpt lat="46.05898" lon="5.795">
        <ele>490.491</ele>
        <time>2022-09-24T10:58:08Z</time>
      </trkpt>
      <trkpt lat="46.06018" lon="5.79429">
        <ele>498.674</ele>
        <time>2022-09-24T10:58:18Z</time>
      </trkpt>
      <trkpt lat="46.06251" lon="5.79183">
        <ele>511.16</ele>
        <time>2022-09-24T10:58:36Z</time>
      </trkpt>
      <trkpt lat="46.06365" lon="5.79135">
        <ele>517.813</ele>
        <time>2022-09-24T10:58:44Z</time>
      </trkpt>
      <trkpt lat="46.06574" lon="5.79147">
        <ele>523.627</ele>
        <time>2022-09-24T10:59:02Z</time>
      </trkpt>
      <trkpt lat="46.06649" lon="5.79055">
        <ele>525.583</ele>
        <time>2022-09-24T10:59:19Z</time>
      </trkpt>
      <trkpt lat="46.07078" lon="5.78995">
        <ele>508.238</ele>
        <time>2022-09-24T11:00:32Z</time>
      </trkpt>
      <trkpt lat="46.07181" lon="5.78895">
        <ele>507.27</ele>
        <time>2022-09-24T11:00:51Z</time>
      </trkpt>
      <trkpt lat="46.0726" lon="5.78866">
        <ele>509.617</ele>
        <time>2022-09-24T11:01:05Z</time>
      </trkpt>
      <trkpt lat="46.07407" lon="5.78888">
        <ele>517.309</ele>
        <time>2022-09-24T11:01:29Z</time>
      </trkpt>
      <trkpt lat="46.07623" lon="5.78953">
        <ele>527.484</ele>
        <time>2022-09-24T11:03:06Z</time>
      </trkpt>
      <trkpt lat="46.0773" lon="5.7847">
        <ele>550.534</ele>
        <time>2022-09-24T11:03:46Z</time>
      </trkpt>
      <trkpt lat="46.07754" lon="5.78443">
        <ele>552.997</ele>
        <time>2022-09-24T11:03:51Z</time>
      </trkpt>
      <trkpt lat="46.07759" lon="5.78396">
        <ele>556.35</ele>
        <time>2022-09-24T11:03:58Z</time>
      </trkpt>
      <trkpt lat="46.08319" lon="5.77661">
        <ele>527.473</ele>
        <time>2022-09-24T11:04:52Z</time>
      </trkpt>
      <trkpt lat="46.08331" lon="5.77659">
        <ele>527.449</ele>
        <time>2022-09-24T11:04:53Z</time>
      </trkpt>
      <trkpt lat="46.08379" lon="5.77732">
        <ele>530.362</ele>
        <time>2022-09-24T11:05:00Z</time>
      </trkpt>
      <trkpt lat="46.0845" lon="5.77804">
        <ele>530.326</ele>
        <time>2022-09-24T11:05:07Z</time>
      </trkpt>
      <trkpt lat="46.0855" lon="5.77864">
        <ele>525.552</ele>
        <time>2022-09-24T11:05:16Z</time>
      </trkpt>
      <trkpt lat="46.08601" lon="5.78189">
        <ele>528.414</ele>
        <time>2022-09-24T11:05:31Z</time>
      </trkpt>
      <trkpt lat="46.08669" lon="5.78284">
        <ele>534.154</ele>
        <time>2022-09-24T11:05:39Z</time>
      </trkpt>
      <trkpt lat="46.08662" lon="5.78431">
        <ele>544.209</ele>
        <time>2022-09-24T11:05:49Z</time>
      </trkpt>
      <trkpt lat="46.08672" lon="5.78457">
        <ele>546.609</ele>
        <time>2022-09-24T11:05:52Z</time>
      </trkpt>
      <trkpt lat="46.08799" lon="5.78467">
        <ele>549.562</ele>
        <time>2022-09-24T11:06:05Z</time>
      </trkpt>
      <trkpt lat="46.08884" lon="5.78507">
        <ele>552.962</ele>
        <time>2022-09-24T11:06:15Z</time>
      </trkpt>
      <trkpt lat="46.08924" lon="5.78492">
        <ele>554.895</ele>
        <time>2022-09-24T11:06:21Z</time>
      </trkpt>
      <trkpt lat="46.09123" lon="5.78306">
        <ele>566.498</ele>
        <time>2022-09-24T11:06:46Z</time>
      </trkpt>
      <trkpt lat="46.09149" lon="5.7831">
        <ele>567.361</ele>
        <time>2022-09-24T11:06:50Z</time>
      </trkpt>
      <trkpt lat="46.09248" lon="5.78259">
        <ele>572.117</ele>
        <time>2022-09-24T11:07:00Z</time>
      </trkpt>
      <trkpt lat="46.09344" lon="5.78168">
        <ele>577.47</ele>
        <time>2022-09-24T11:07:13Z</time>
      </trkpt>
      <trkpt lat="46.09393" lon="5.78096">
        <ele>576.514</ele>
        <time>2022-09-24T11:07:26Z</time>
      </trkpt>
      <trkpt lat="46.09441" lon="5.78072">
        <ele>576.91</ele>
        <time>2022-09-24T11:07:33Z</time>
      </trkpt>
      <trkpt lat="46.09513" lon="5.7798">
        <ele>580.371</ele>
        <time>2022-09-24T11:07:48Z</time>
      </trkpt>
      <trkpt lat="46.09551" lon="5.77981">
        <ele>581.341</ele>
        <time>2022-09-24T11:07:53Z</time>
      </trkpt>
      <trkpt lat="46.09591" lon="5.7796">
        <ele>581.715</ele>
        <time>2022-09-24T11:07:59Z</time>
      </trkpt>
      <trkpt lat="46.0972" lon="5.77953">
        <ele>578.409</ele>
        <time>2022-09-24T11:08:18Z</time>
      </trkpt>
      <trkpt lat="46.09799" lon="5.77912">
        <ele>574.018</ele>
        <time>2022-09-24T11:08:30Z</time>
      </trkpt>
      <trkpt lat="46.09914" lon="5.77822">
        <ele>570.788</ele>
        <time>2022-09-24T11:08:49Z</time>
      </trkpt>
      <trkpt lat="46.09986" lon="5.77803">
        <ele>571.691</ele>
        <time>2022-09-24T11:09:04Z</time>
      </trkpt>
      <trkpt lat="46.0999" lon="5.77813">
        <ele>564.994</ele>
        <time>2022-09-24T11:18:17Z</time>
      </trkpt>
      <trkpt lat="46.10065" lon="5.77683">
        <ele>569.277</ele>
        <time>2022-09-24T11:19:10Z</time>
      </trkpt>
      <trkpt lat="46.10646" lon="5.77854">
        <ele>575.573</ele>
        <time>2022-09-24T11:20:03Z</time>
      </trkpt>
      <trkpt lat="46.10711" lon="5.77884">
        <ele>576.586</ele>
        <time>2022-09-24T11:20:12Z</time>
      </trkpt>
      <trkpt lat="46.10728" lon="5.77909">
        <ele>576.99</ele>
        <time>2022-09-24T11:20:17Z</time>
      </trkpt>
      <trkpt lat="46.10811" lon="5.77859">
        <ele>578.946</ele>
        <time>2022-09-24T11:20:34Z</time>
      </trkpt>
      <trkpt lat="46.10913" lon="5.77853">
        <ele>601.053</ele>
        <time>2022-09-24T11:21:05Z</time>
      </trkpt>
      <trkpt lat="46.10998" lon="5.7781">
        <ele>605.304</ele>
        <time>2022-09-24T11:21:13Z</time>
      </trkpt>
      <trkpt lat="46.11171" lon="5.77795">
        <ele>615.914</ele>
        <time>2022-09-24T11:21:25Z</time>
      </trkpt>
      <trkpt lat="46.11228" lon="5.77772">
        <ele>621.109</ele>
        <time>2022-09-24T11:21:30Z</time>
      </trkpt>
      <trkpt lat="46.114" lon="5.77779">
        <ele>634.686</ele>
        <time>2022-09-24T11:21:45Z</time>
      </trkpt>
      <trkpt lat="46.11448" lon="5.77767">
        <ele>638.916</ele>
        <time>2022-09-24T11:21:49Z</time>
      </trkpt>
      <trkpt lat="46.11709" lon="5.77813">
        <ele>660.629</ele>
        <time>2022-09-24T11:22:06Z</time>
      </trkpt>
      <trkpt lat="46.11797" lon="5.77769">
        <ele>668.392</ele>
        <time>2022-09-24T11:22:13Z</time>
      </trkpt>
      <trkpt lat="46.11839" lon="5.77784">
        <ele>671.665</ele>
        <time>2022-09-24T11:22:16Z</time>
      </trkpt>
      <trkpt lat="46.12213" lon="5.77829">
        <ele>688.421</ele>
        <time>2022-09-24T11:22:39Z</time>
      </trkpt>
      <trkpt lat="46.12533" lon="5.77782">
        <ele>709.644</ele>
        <time>2022-09-24T11:22:57Z</time>
      </trkpt>
      <trkpt lat="46.12733" lon="5.77799">
        <ele>723.098</ele>
        <time>2022-09-24T11:23:10Z</time>
      </trkpt>
      <trkpt lat="46.12838" lon="5.77793">
        <ele>731.744</ele>
        <time>2022-09-24T11:23:17Z</time>
      </trkpt>
      <trkpt lat="46.12893" lon="5.77782">
        <ele>738.939</ele>
        <time>2022-09-24T11:23:23Z</time>
      </trkpt>
      <trkpt lat="46.12917" lon="5.77764">
        <ele>745.601</ele>
        <time>2022-09-24T11:23:29Z</time>
      </trkpt>
      <trkpt lat="46.12991" lon="5.77845">
        <ele>746.121</ele>
        <time>2022-09-24T11:23:40Z</time>
      </trkpt>
      <trkpt lat="46.13037" lon="5.77936">
        <ele>741.309</ele>
        <time>2022-09-24T11:23:46Z</time>
      </trkpt>
      <trkpt lat="46.13138" lon="5.78041">
        <ele>732.294</ele>
        <time>2022-09-24T11:23:55Z</time>
      </trkpt>
      <trkpt lat="46.13174" lon="5.78065">
        <ele>725.084</ele>
        <time>2022-09-24T11:24:01Z</time>
      </trkpt>
      <trkpt lat="46.13195" lon="5.78029">
        <ele>717.337</ele>
        <time>2022-09-24T11:24:08Z</time>
      </trkpt>
      <trkpt lat="46.13228" lon="5.78072">
        <ele>711.03</ele>
        <time>2022-09-24T11:24:14Z</time>
      </trkpt>
      <trkpt lat="46.134" lon="5.78046">
        <ele>693.793</ele>
        <time>2022-09-24T11:24:27Z</time>
      </trkpt>
      <trkpt lat="46.13458" lon="5.78063">
        <ele>690.899</ele>
        <time>2022-09-24T11:24:32Z</time>
      </trkpt>
      <trkpt lat="46.13595" lon="5.78021">
        <ele>685.672</ele>
        <time>2022-09-24T11:24:44Z</time>
      </trkpt>
      <trkpt lat="46.13816" lon="5.77865">
        <ele>688.456</ele>
        <time>2022-09-24T11:25:16Z</time>
      </trkpt>
      <trkpt lat="46.1392" lon="5.77861">
        <ele>688.932</ele>
        <time>2022-09-24T11:25:27Z</time>
      </trkpt>
      <trkpt lat="46.14117" lon="5.77899">
        <ele>691.313</ele>
        <time>2022-09-24T11:25:50Z</time>
      </trkpt>
      <trkpt lat="46.14238" lon="5.77841">
        <ele>692.343</ele>
        <time>2022-09-24T11:26:07Z</time>
      </trkpt>
      <trkpt lat="46.14508" lon="5.77796">
        <ele>705.307</ele>
        <time>2022-09-24T11:26:45Z</time>
      </trkpt>
      <trkpt lat="46.14547" lon="5.77771">
        <ele>708.609</ele>
        <time>2022-09-24T11:26:50Z</time>
      </trkpt>
      <trkpt lat="46.14571" lon="5.7773">
        <ele>711.542</ele>
        <time>2022-09-24T11:26:53Z</time>
      </trkpt>
      <trkpt lat="46.14655" lon="5.77447">
        <ele>727.932</ele>
        <time>2022-09-24T11:27:34Z</time>
      </trkpt>
      <trkpt lat="46.14706" lon="5.77356">
        <ele>735.185</ele>
        <time>2022-09-24T11:27:44Z</time>
      </trkpt>
      <trkpt lat="46.14803" lon="5.77307">
        <ele>742.818</ele>
        <time>2022-09-24T11:27:56Z</time>
      </trkpt>
      <trkpt lat="46.14892" lon="5.77296">
        <ele>752.921</ele>
        <time>2022-09-24T11:28:07Z</time>
      </trkpt>
      <trkpt lat="46.1496" lon="5.7724">
        <ele>762.037</ele>
        <time>2022-09-24T11:28:18Z</time>
      </trkpt>
      <trkpt lat="46.14953" lon="5.77119">
        <ele>766.81</ele>
        <time>2022-09-24T11:28:30Z</time>
      </trkpt>
      <trkpt lat="46.14978" lon="5.77067">
        <ele>770.614</ele>
        <time>2022-09-24T11:28:36Z</time>
      </trkpt>
      <trkpt lat="46.1505" lon="5.77022">
        <ele>776.93</ele>
        <time>2022-09-24T11:28:47Z</time>
      </trkpt>
      <trkpt lat="46.1512" lon="5.77023">
        <ele>781.745</ele>
        <time>2022-09-24T11:28:57Z</time>
      </trkpt>
      <trkpt lat="46.1515" lon="5.77053">
        <ele>789.447</ele>
        <time>2022-09-24T11:29:02Z</time>
      </trkpt>
      <trkpt lat="46.15248" lon="5.77098">
        <ele>813.411</ele>
        <time>2022-09-24T11:29:15Z</time>
      </trkpt>
      <trkpt lat="46.1531" lon="5.77094">
        <ele>818.209</ele>
        <time>2022-09-24T11:29:22Z</time>
      </trkpt>
      <trkpt lat="46.15374" lon="5.77059">
        <ele>822.195</ele>
        <time>2022-09-24T11:29:32Z</time>
      </trkpt>
      <trkpt lat="46.1541" lon="5.77055">
        <ele>823.555</ele>
        <time>2022-09-24T11:29:39Z</time>
      </trkpt>
      <trkpt lat="46.15468" lon="5.76999">
        <ele>830.728</ele>
        <time>2022-09-24T11:30:08Z</time>
      </trkpt>
      <trkpt lat="46.15525" lon="5.76979">
        <ele>833.191</ele>
        <time>2022-09-24T11:30:18Z</time>
      </trkpt>
      <trkpt lat="46.15585" lon="5.76889">
        <ele>835.034</ele>
        <time>2022-09-24T11:30:30Z</time>
      </trkpt>
      <trkpt lat="46.15567" lon="5.7665">
        <ele>835.57</ele>
        <time>2022-09-24T11:30:57Z</time>
      </trkpt>
      <trkpt lat="46.15525" lon="5.76498">
        <ele>840.823</ele>
        <time>2022-09-24T11:31:12Z</time>
      </trkpt>
      <trkpt lat="46.15601" lon="5.76329">
        <ele>850.967</ele>
        <time>2022-09-24T11:31:30Z</time>
      </trkpt>
      <trkpt lat="46.15589" lon="5.76251">
        <ele>853.333</ele>
        <time>2022-09-24T11:31:39Z</time>
      </trkpt>
      <trkpt lat="46.15605" lon="5.7612">
        <ele>855.723</ele>
        <time>2022-09-24T11:31:51Z</time>
      </trkpt>
      <trkpt lat="46.1563" lon="5.76067">
        <ele>858.183</ele>
        <time>2022-09-24T11:31:57Z</time>
      </trkpt>
      <trkpt lat="46.15637" lon="5.75994">
        <ele>860.011</ele>
        <time>2022-09-24T11:32:05Z</time>
      </trkpt>
      <trkpt lat="46.15676" lon="5.75861">
        <ele>862.909</ele>
        <time>2022-09-24T11:32:20Z</time>
      </trkpt>
      <trkpt lat="46.15678" lon="5.75731">
        <ele>864.813</ele>
        <time>2022-09-24T11:32:32Z</time>
      </trkpt>
      <trkpt lat="46.1566" lon="5.75659">
        <ele>865.893</ele>
        <time>2022-09-24T11:32:41Z</time>
      </trkpt>
      <trkpt lat="46.15261" lon="5.75272">
        <ele>876.496</ele>
        <time>2022-09-24T11:33:39Z</time>
      </trkpt>
      <trkpt lat="46.14889" lon="5.75105">
        <ele>874.989</ele>
        <time>2022-09-24T11:34:23Z</time>
      </trkpt>
      <trkpt lat="46.14542" lon="5.74848">
        <ele>904.332</ele>
        <time>2022-09-24T11:35:07Z</time>
      </trkpt>
      <trkpt lat="46.14418" lon="5.7478">
        <ele>913.438</ele>
        <time>2022-09-24T11:35:22Z</time>
      </trkpt>
      <trkpt lat="46.14334" lon="5.74635">
        <ele>894.641</ele>
        <time>2022-09-24T11:35:40Z</time>
      </trkpt>
      <trkpt lat="46.14316" lon="5.74553">
        <ele>891.375</ele>
        <time>2022-09-24T11:35:50Z</time>
      </trkpt>
      <trkpt lat="46.14318" lon="5.74469">
        <ele>888.961</ele>
        <time>2022-09-24T11:36:00Z</time>
      </trkpt>
      <trkpt lat="46.14231" lon="5.74411">
        <ele>879.361</ele>
        <time>2022-09-24T11:36:19Z</time>
      </trkpt>
      <trkpt lat="46.14224" lon="5.74374">
        <ele>876.421</ele>
        <time>2022-09-24T11:36:24Z</time>
      </trkpt>
      <trkpt lat="46.1432" lon="5.74415">
        <ele>863.413</ele>
        <time>2022-09-24T11:36:45Z</time>
      </trkpt>
      <trkpt lat="46.144" lon="5.74529">
        <ele>843.209</ele>
        <time>2022-09-24T11:37:03Z</time>
      </trkpt>
      <trkpt lat="46.14467" lon="5.74562">
        <ele>828.857</ele>
        <time>2022-09-24T11:37:14Z</time>
      </trkpt>
      <trkpt lat="46.14505" lon="5.74621">
        <ele>817.347</ele>
        <time>2022-09-24T11:37:23Z</time>
      </trkpt>
      <trkpt lat="46.14621" lon="5.74696">
        <ele>796.17</ele>
        <time>2022-09-24T11:37:40Z</time>
      </trkpt>
      <trkpt lat="46.14706" lon="5.74736">
        <ele>784.163</ele>
        <time>2022-09-24T11:37:51Z</time>
      </trkpt>
      <trkpt lat="46.14788" lon="5.74742">
        <ele>767.856</ele>
        <time>2022-09-24T11:38:05Z</time>
      </trkpt>
      <trkpt lat="46.148" lon="5.74783">
        <ele>762.082</ele>
        <time>2022-09-24T11:38:10Z</time>
      </trkpt>
      <trkpt lat="46.14903" lon="5.74853">
        <ele>745.275</ele>
        <time>2022-09-24T11:38:27Z</time>
      </trkpt>
      <trkpt lat="46.15067" lon="5.74888">
        <ele>725.949</ele>
        <time>2022-09-24T11:38:50Z</time>
      </trkpt>
      <trkpt lat="46.15112" lon="5.74866">
        <ele>718.755</ele>
        <time>2022-09-24T11:38:57Z</time>
      </trkpt>
      <trkpt lat="46.15146" lon="5.74817">
        <ele>710.198</ele>
        <time>2022-09-24T11:39:06Z</time>
      </trkpt>
      <trkpt lat="46.15184" lon="5.74828">
        <ele>704.315</ele>
        <time>2022-09-24T11:39:14Z</time>
      </trkpt>
      <trkpt lat="46.15254" lon="5.74802">
        <ele>693.326</ele>
        <time>2022-09-24T11:39:27Z</time>
      </trkpt>
      <trkpt lat="46.15338" lon="5.74703">
        <ele>692.309</ele>
        <time>2022-09-24T11:44:14Z</time>
      </trkpt>
      <trkpt lat="46.15378" lon="5.74699">
        <ele>692.34</ele>
        <time>2022-09-24T11:44:19Z</time>
      </trkpt>
      <trkpt lat="46.15455" lon="5.74731">
        <ele>687.59</ele>
        <time>2022-09-24T11:44:27Z</time>
      </trkpt>
      <trkpt lat="46.1551" lon="5.74854">
        <ele>677.953</ele>
        <time>2022-09-24T11:44:36Z</time>
      </trkpt>
      <trkpt lat="46.1559" lon="5.74958">
        <ele>665.436</ele>
        <time>2022-09-24T11:44:45Z</time>
      </trkpt>
      <trkpt lat="46.15665" lon="5.74968">
        <ele>659.619</ele>
        <time>2022-09-24T11:44:52Z</time>
      </trkpt>
      <trkpt lat="46.15784" lon="5.7483">
        <ele>648.185</ele>
        <time>2022-09-24T11:45:04Z</time>
      </trkpt>
      <trkpt lat="46.15807" lon="5.74778">
        <ele>643.778</ele>
        <time>2022-09-24T11:45:09Z</time>
      </trkpt>
      <trkpt lat="46.15869" lon="5.74819">
        <ele>636.052</ele>
        <time>2022-09-24T11:45:18Z</time>
      </trkpt>
      <trkpt lat="46.1602" lon="5.74874">
        <ele>624.568</ele>
        <time>2022-09-24T11:45:35Z</time>
      </trkpt>
      <trkpt lat="46.16032" lon="5.74823">
        <ele>625.012</ele>
        <time>2022-09-24T11:45:39Z</time>
      </trkpt>
      <trkpt lat="46.16028" lon="5.74752">
        <ele>622.632</ele>
        <time>2022-09-24T11:45:45Z</time>
      </trkpt>
      <trkpt lat="46.16065" lon="5.74731">
        <ele>619.205</ele>
        <time>2022-09-24T11:45:53Z</time>
      </trkpt>
      <trkpt lat="46.16143" lon="5.74877">
        <ele>600.009</ele>
        <time>2022-09-24T11:46:08Z</time>
      </trkpt>
      <trkpt lat="46.16175" lon="5.749">
        <ele>593.342</ele>
        <time>2022-09-24T11:46:14Z</time>
      </trkpt>
      <trkpt lat="46.16268" lon="5.75051">
        <ele>577.492</ele>
        <time>2022-09-24T11:46:27Z</time>
      </trkpt>
      <trkpt lat="46.16251" lon="5.75135">
        <ele>568.835</ele>
        <time>2022-09-24T11:46:36Z</time>
      </trkpt>
      <trkpt lat="46.1634" lon="5.75284">
        <ele>555.828</ele>
        <time>2022-09-24T11:46:48Z</time>
      </trkpt>
      <trkpt lat="46.16384" lon="5.75315">
        <ele>548.161</ele>
        <time>2022-09-24T11:46:53Z</time>
      </trkpt>
      <trkpt lat="46.1642" lon="5.7531">
        <ele>543.827</ele>
        <time>2022-09-24T11:46:57Z</time>
      </trkpt>
      <trkpt lat="46.16443" lon="5.75323">
        <ele>540.94</ele>
        <time>2022-09-24T11:47:00Z</time>
      </trkpt>
      <trkpt lat="46.16475" lon="5.75607">
        <ele>515.424</ele>
        <time>2022-09-24T11:47:23Z</time>
      </trkpt>
      <trkpt lat="46.16528" lon="5.75715">
        <ele>502.42</ele>
        <time>2022-09-24T11:47:33Z</time>
      </trkpt>
      <trkpt lat="46.16525" lon="5.75791">
        <ele>496.216</ele>
        <time>2022-09-24T11:47:37Z</time>
      </trkpt>
      <trkpt lat="46.16488" lon="5.7594">
        <ele>482.776</ele>
        <time>2022-09-24T11:47:47Z</time>
      </trkpt>
      <trkpt lat="46.1647" lon="5.75958">
        <ele>477.413</ele>
        <time>2022-09-24T11:47:51Z</time>
      </trkpt>
      <trkpt lat="46.16483" lon="5.76062">
        <ele>462.509</ele>
        <time>2022-09-24T11:48:02Z</time>
      </trkpt>
      <trkpt lat="46.1645" lon="5.76163">
        <ele>449.692</ele>
        <time>2022-09-24T11:48:12Z</time>
      </trkpt>
      <trkpt lat="46.16374" lon="5.76649">
        <ele>423.192</ele>
        <time>2022-09-24T11:49:00Z</time>
      </trkpt>
      <trkpt lat="46.16413" lon="5.76705">
        <ele>425.565</ele>
        <time>2022-09-24T11:49:07Z</time>
      </trkpt>
      <trkpt lat="46.16456" lon="5.76865">
        <ele>427.478</ele>
        <time>2022-09-24T11:51:46Z</time>
      </trkpt>
      <trkpt lat="46.16467" lon="5.76866">
        <ele>427.441</ele>
        <time>2022-09-24T11:51:47Z</time>
      </trkpt>
      <trkpt lat="46.1652" lon="5.76596">
        <ele>436.397</ele>
        <time>2022-09-24T11:52:15Z</time>
      </trkpt>
      <trkpt lat="46.16558" lon="5.76478">
        <ele>435.77</ele>
        <time>2022-09-24T11:52:29Z</time>
      </trkpt>
      <trkpt lat="46.16604" lon="5.76403">
        <ele>446.084</ele>
        <time>2022-09-24T11:52:40Z</time>
      </trkpt>
      <trkpt lat="46.1676" lon="5.76272">
        <ele>458.98</ele>
        <time>2022-09-24T11:53:09Z</time>
      </trkpt>
      <trkpt lat="46.16799" lon="5.76191">
        <ele>425.544</ele>
        <time>2022-09-24T11:53:21Z</time>
      </trkpt>
      <trkpt lat="46.1691" lon="5.76065">
        <ele>438.005</ele>
        <time>2022-09-24T11:53:49Z</time>
      </trkpt>
      <trkpt lat="46.16944" lon="5.75996">
        <ele>443.815</ele>
        <time>2022-09-24T11:54:01Z</time>
      </trkpt>
      <trkpt lat="46.17046" lon="5.75644">
        <ele>499.109</ele>
        <time>2022-09-24T11:55:08Z</time>
      </trkpt>
      <trkpt lat="46.17143" lon="5.75576">
        <ele>518.855</ele>
        <time>2022-09-24T11:55:47Z</time>
      </trkpt>
      <trkpt lat="46.17249" lon="5.75371">
        <ele>534.695</ele>
        <time>2022-09-24T11:56:02Z</time>
      </trkpt>
      <trkpt lat="46.17296" lon="5.7533">
        <ele>543.348</ele>
        <time>2022-09-24T11:56:09Z</time>
      </trkpt>
      <trkpt lat="46.17338" lon="5.75354">
        <ele>550.571</ele>
        <time>2022-09-24T11:56:17Z</time>
      </trkpt>
      <trkpt lat="46.17355" lon="5.75349">
        <ele>552.964</ele>
        <time>2022-09-24T11:56:20Z</time>
      </trkpt>
      <trkpt lat="46.17375" lon="5.75009">
        <ele>539.44</ele>
        <time>2022-09-24T11:56:40Z</time>
      </trkpt>
      <trkpt lat="46.17396" lon="5.74961">
        <ele>530.253</ele>
        <time>2022-09-24T11:56:44Z</time>
      </trkpt>
      <trkpt lat="46.17431" lon="5.74945">
        <ele>533.157</ele>
        <time>2022-09-24T11:56:47Z</time>
      </trkpt>
      <trkpt lat="46.17453" lon="5.74884">
        <ele>527.873</ele>
        <time>2022-09-24T11:56:52Z</time>
      </trkpt>
      <trkpt lat="46.17544" lon="5.74789">
        <ele>526.931</ele>
        <time>2022-09-24T11:57:02Z</time>
      </trkpt>
      <trkpt lat="46.17623" lon="5.74737">
        <ele>526.561</ele>
        <time>2022-09-24T11:57:10Z</time>
      </trkpt>
      <trkpt lat="46.1766" lon="5.74659">
        <ele>528.407</ele>
        <time>2022-09-24T11:57:16Z</time>
      </trkpt>
      <trkpt lat="46.17742" lon="5.74597">
        <ele>529.309</ele>
        <time>2022-09-24T11:57:23Z</time>
      </trkpt>
      <trkpt lat="46.17791" lon="5.74492">
        <ele>534.164</ele>
        <time>2022-09-24T11:57:30Z</time>
      </trkpt>
      <trkpt lat="46.17844" lon="5.74452">
        <ele>535.684</ele>
        <time>2022-09-24T11:57:35Z</time>
      </trkpt>
      <trkpt lat="46.17924" lon="5.74347">
        <ele>536.537</ele>
        <time>2022-09-24T11:57:42Z</time>
      </trkpt>
      <trkpt lat="46.17988" lon="5.74296">
        <ele>541.81</ele>
        <time>2022-09-24T11:57:47Z</time>
      </trkpt>
      <trkpt lat="46.18048" lon="5.74222">
        <ele>549.093</ele>
        <time>2022-09-24T11:57:55Z</time>
      </trkpt>
      <trkpt lat="46.18054" lon="5.74175">
        <ele>550.559</ele>
        <time>2022-09-24T11:57:59Z</time>
      </trkpt>
      <trkpt lat="46.18105" lon="5.74066">
        <ele>543.872</ele>
        <time>2022-09-24T11:58:07Z</time>
      </trkpt>
      <trkpt lat="46.18127" lon="5.73964">
        <ele>533.756</ele>
        <time>2022-09-24T11:58:15Z</time>
      </trkpt>
      <trkpt lat="46.18196" lon="5.73928">
        <ele>524.522</ele>
        <time>2022-09-24T11:58:22Z</time>
      </trkpt>
      <trkpt lat="46.18314" lon="5.73947">
        <ele>511.163</ele>
        <time>2022-09-24T11:58:32Z</time>
      </trkpt>
      <trkpt lat="46.18339" lon="5.7394">
        <ele>501.944</ele>
        <time>2022-09-24T11:58:54Z</time>
      </trkpt>
    </trkseg>
  </trk>
  <trk>
    <name><![CDATA[Chilly - Bellegarde-sur-Valserine TET SECTION 22 et 26]]></name>
    <desc><![CDATA[name=Chilly - Bellegarde-sur-Valserine TET SECTION 22 et 26
cmt=
desc=
time=2022-10-26T10:01:02Z]]></desc>
    <extensions>
      <line xmlns="http://www.topografix.com/GPX/gpx_style/0/2">
        <color>00FF00</color>
        <width>4</width>
      </line>
    </extensions>
    <trkseg>
      <trkpt lat="45.99161" lon="5.95229">
        <ele>495.497</ele>
        <time>2022-10-26T10:01:02Z</time>
      </trkpt>
      <trkpt lat="45.99154" lon="5.95049">
        <ele>492.423</ele>
        <time>2022-10-26T10:01:16Z</time>
      </trkpt>
      <trkpt lat="45.99065" lon="5.94999">
        <ele>488.725</ele>
        <time>2022-10-26T10:01:25Z</time>
      </trkpt>
      <trkpt lat="45.99045" lon="5.94955">
        <ele>481.509</ele>
        <time>2022-10-26T10:01:32Z</time>
      </trkpt>
      <trkpt lat="45.99253" lon="5.94731">
        <ele>487.44</ele>
        <time>2022-10-26T10:01:56Z</time>
      </trkpt>
      <trkpt lat="45.99336" lon="5.9416">
        <ele>496.55</ele>
        <time>2022-10-26T10:02:25Z</time>
      </trkpt>
      <trkpt lat="45.99415" lon="5.94089">
        <ele>499.176</ele>
        <time>2022-10-26T10:02:34Z</time>
      </trkpt>
      <trkpt lat="45.99491" lon="5.93976">
        <ele>502.543</ele>
        <time>2022-10-26T10:02:43Z</time>
      </trkpt>
      <trkpt lat="45.99523" lon="5.93735">
        <ele>495.219</ele>
        <time>2022-10-26T10:02:59Z</time>
      </trkpt>
      <trkpt lat="45.99498" lon="5.93604">
        <ele>491.29</ele>
        <time>2022-10-26T10:03:08Z</time>
      </trkpt>
      <trkpt lat="45.99535" lon="5.93548">
        <ele>488.562</ele>
        <time>2022-10-26T10:03:13Z</time>
      </trkpt>
      <trkpt lat="45.99629" lon="5.93526">
        <ele>494.521</ele>
        <time>2022-10-26T10:03:23Z</time>
      </trkpt>
      <trkpt lat="45.99692" lon="5.93364">
        <ele>505.214</ele>
        <time>2022-10-26T10:03:34Z</time>
      </trkpt>
      <trkpt lat="45.99695" lon="5.93148">
        <ele>517.187</ele>
        <time>2022-10-26T10:03:49Z</time>
      </trkpt>
      <trkpt lat="45.99717" lon="5.93113">
        <ele>519.442</ele>
        <time>2022-10-26T10:03:58Z</time>
      </trkpt>
      <trkpt lat="45.99692" lon="5.93102">
        <ele>521.626</ele>
        <time>2022-10-26T10:04:23Z</time>
      </trkpt>
      <trkpt lat="45.99665" lon="5.93151">
        <ele>523.909</ele>
        <time>2022-10-26T10:04:32Z</time>
      </trkpt>
      <trkpt lat="45.99554" lon="5.93089">
        <ele>535.039</ele>
        <time>2022-10-26T10:11:44Z</time>
      </trkpt>
      <trkpt lat="45.99508" lon="5.9303">
        <ele>544.899</ele>
        <time>2022-10-26T10:11:54Z</time>
      </trkpt>
      <trkpt lat="45.99464" lon="5.92913">
        <ele>562.045</ele>
        <time>2022-10-26T10:12:14Z</time>
      </trkpt>
      <trkpt lat="45.99469" lon="5.92844">
        <ele>569.422</ele>
        <time>2022-10-26T10:12:28Z</time>
      </trkpt>
      <trkpt lat="45.9944" lon="5.9274">
        <ele>588.168</ele>
        <time>2022-10-26T10:16:15Z</time>
      </trkpt>
      <trkpt lat="45.99454" lon="5.92696">
        <ele>595.179</ele>
        <time>2022-10-26T10:20:43Z</time>
      </trkpt>
      <trkpt lat="45.99522" lon="5.92673">
        <ele>595.721</ele>
        <time>2022-10-26T10:20:54Z</time>
      </trkpt>
      <trkpt lat="45.99616" lon="5.92569">
        <ele>595.72</ele>
        <time>2022-10-26T10:21:11Z</time>
      </trkpt>
      <trkpt lat="45.99726" lon="5.9236">
        <ele>579.833</ele>
        <time>2022-10-26T10:21:43Z</time>
      </trkpt>
      <trkpt lat="45.99744" lon="5.9215">
        <ele>564.897</ele>
        <time>2022-10-26T10:22:14Z</time>
      </trkpt>
      <trkpt lat="45.99828" lon="5.91792">
        <ele>561.423</ele>
        <time>2022-10-26T10:22:45Z</time>
      </trkpt>
      <trkpt lat="45.99813" lon="5.91597">
        <ele>562.225</ele>
        <time>2022-10-26T10:22:55Z</time>
      </trkpt>
      <trkpt lat="45.99833" lon="5.91487">
        <ele>560.509</ele>
        <time>2022-10-26T10:23:02Z</time>
      </trkpt>
      <trkpt lat="45.99765" lon="5.91259">
        <ele>563.35</ele>
        <time>2022-10-26T10:23:15Z</time>
      </trkpt>
      <trkpt lat="45.9976" lon="5.91053">
        <ele>563.41</ele>
        <time>2022-10-26T10:23:30Z</time>
      </trkpt>
      <trkpt lat="45.9981" lon="5.90918">
        <ele>563.596</ele>
        <time>2022-10-26T10:23:42Z</time>
      </trkpt>
      <trkpt lat="45.99924" lon="5.90765">
        <ele>547.483</ele>
        <time>2022-10-26T10:24:01Z</time>
      </trkpt>
      <trkpt lat="46.00027" lon="5.90696">
        <ele>539.039</ele>
        <time>2022-10-26T10:24:15Z</time>
      </trkpt>
      <trkpt lat="46.00066" lon="5.90513">
        <ele>521.05</ele>
        <time>2022-10-26T10:24:37Z</time>
      </trkpt>
      <trkpt lat="46.00154" lon="5.90479">
        <ele>514.182</ele>
        <time>2022-10-26T10:24:50Z</time>
      </trkpt>
      <trkpt lat="46.00259" lon="5.90394">
        <ele>510.121</ele>
        <time>2022-10-26T10:25:02Z</time>
      </trkpt>
      <trkpt lat="46.00297" lon="5.90186">
        <ele>503.534</ele>
        <time>2022-10-26T10:25:16Z</time>
      </trkpt>
      <trkpt lat="46.00293" lon="5.90091">
        <ele>498.528</ele>
        <time>2022-10-26T10:25:23Z</time>
      </trkpt>
      <trkpt lat="46.00403" lon="5.89884">
        <ele>493.889</ele>
        <time>2022-10-26T10:25:40Z</time>
      </trkpt>
      <trkpt lat="46.00418" lon="5.89677">
        <ele>486.217</ele>
        <time>2022-10-26T10:25:50Z</time>
      </trkpt>
      <trkpt lat="46.00487" lon="5.89402">
        <ele>466.609</ele>
        <time>2022-10-26T10:26:10Z</time>
      </trkpt>
      <trkpt lat="46.00557" lon="5.8931">
        <ele>459.263</ele>
        <time>2022-10-26T10:26:19Z</time>
      </trkpt>
      <trkpt lat="46.00634" lon="5.8926">
        <ele>448.873</ele>
        <time>2022-10-26T10:26:28Z</time>
      </trkpt>
      <trkpt lat="46.00926" lon="5.88864">
        <ele>419.219</ele>
        <time>2022-10-26T10:27:01Z</time>
      </trkpt>
      <trkpt lat="46.01027" lon="5.88618">
        <ele>399.376</ele>
        <time>2022-10-26T10:27:29Z</time>
      </trkpt>
      <trkpt lat="46.01142" lon="5.88654">
        <ele>400.472</ele>
        <time>2022-10-26T10:27:41Z</time>
      </trkpt>
      <trkpt lat="46.0135" lon="5.88921">
        <ele>394.973</ele>
        <time>2022-10-26T10:28:03Z</time>
      </trkpt>
      <trkpt lat="46.01512" lon="5.89039">
        <ele>382.165</ele>
        <time>2022-10-26T10:28:18Z</time>
      </trkpt>
      <trkpt lat="46.0152" lon="5.89076">
        <ele>378.044</ele>
        <time>2022-10-26T10:28:22Z</time>
      </trkpt>
      <trkpt lat="46.01481" lon="5.89151">
        <ele>372.067</ele>
        <time>2022-10-26T10:28:29Z</time>
      </trkpt>
      <trkpt lat="46.01493" lon="5.89233">
        <ele>367.926</ele>
        <time>2022-10-26T10:28:36Z</time>
      </trkpt>
      <trkpt lat="46.01579" lon="5.89243">
        <ele>362.247</ele>
        <time>2022-10-26T10:28:46Z</time>
      </trkpt>
      <trkpt lat="46.01631" lon="5.89338">
        <ele>357.211</ele>
        <time>2022-10-26T10:28:56Z</time>
      </trkpt>
      <trkpt lat="46.01665" lon="5.89324">
        <ele>356.109</ele>
        <time>2022-10-26T10:29:01Z</time>
      </trkpt>
      <trkpt lat="46.01707" lon="5.89236">
        <ele>361.533</ele>
        <time>2022-10-26T10:29:08Z</time>
      </trkpt>
      <trkpt lat="46.01786" lon="5.88945">
        <ele>382.853</ele>
        <time>2022-10-26T10:29:30Z</time>
      </trkpt>
      <trkpt lat="46.01786" lon="5.89032">
        <ele>385.329</ele>
        <time>2022-10-26T10:29:44Z</time>
      </trkpt>
      <trkpt lat="46.02059" lon="5.89033">
        <ele>387.846</ele>
        <time>2022-10-26T10:30:12Z</time>
      </trkpt>
      <trkpt lat="46.02151" lon="5.89091">
        <ele>377.692</ele>
        <time>2022-10-26T10:30:23Z</time>
      </trkpt>
      <trkpt lat="46.02245" lon="5.89027">
        <ele>364.343</ele>
        <time>2022-10-26T10:30:35Z</time>
      </trkpt>
      <trkpt lat="46.02206" lon="5.88923">
        <ele>357.725</ele>
        <time>2022-10-26T10:30:47Z</time>
      </trkpt>
      <trkpt lat="46.02263" lon="5.88858">
        <ele>348.894</ele>
        <time>2022-10-26T10:30:55Z</time>
      </trkpt>
      <trkpt lat="46.02296" lon="5.88884">
        <ele>344.657</ele>
        <time>2022-10-26T10:30:59Z</time>
      </trkpt>
      <trkpt lat="46.02396" lon="5.89078">
        <ele>331.861</ele>
        <time>2022-10-26T10:31:14Z</time>
      </trkpt>
      <trkpt lat="46.02493" lon="5.891">
        <ele>323.721</ele>
        <time>2022-10-26T10:31:24Z</time>
      </trkpt>
      <trkpt lat="46.02502" lon="5.8898">
        <ele>315.513</ele>
        <time>2022-10-26T10:31:34Z</time>
      </trkpt>
      <trkpt lat="46.02464" lon="5.88842">
        <ele>306.809</ele>
        <time>2022-10-26T10:31:44Z</time>
      </trkpt>
      <trkpt lat="46.02569" lon="5.88655">
        <ele>296.237</ele>
        <time>2022-10-26T10:32:10Z</time>
      </trkpt>
      <trkpt lat="46.02401" lon="5.88412">
        <ele>299.617</ele>
        <time>2022-10-26T10:32:28Z</time>
      </trkpt>
      <trkpt lat="46.02272" lon="5.87962">
        <ele>293.243</ele>
        <time>2022-10-26T10:32:59Z</time>
      </trkpt>
      <trkpt lat="46.02385" lon="5.88382">
        <ele>296.55</ele>
        <time>2022-10-26T10:33:38Z</time>
      </trkpt>
      <trkpt lat="46.02489" lon="5.8828">
        <ele>302.786</ele>
        <time>2022-10-26T10:33:54Z</time>
      </trkpt>
      <trkpt lat="46.02514" lon="5.88022">
        <ele>329.177</ele>
        <time>2022-10-26T10:34:19Z</time>
      </trkpt>
      <trkpt lat="46.02649" lon="5.88123">
        <ele>357.449</ele>
        <time>2022-10-26T10:34:55Z</time>
      </trkpt>
      <trkpt lat="46.02698" lon="5.88131">
        <ele>361.338</ele>
        <time>2022-10-26T10:35:02Z</time>
      </trkpt>
      <trkpt lat="46.02754" lon="5.88023">
        <ele>375.471</ele>
        <time>2022-10-26T10:35:23Z</time>
      </trkpt>
      <trkpt lat="46.02825" lon="5.88023">
        <ele>387.693</ele>
        <time>2022-10-26T10:51:20Z</time>
      </trkpt>
      <trkpt lat="46.02822" lon="5.87996">
        <ele>387.965</ele>
        <time>2022-10-26T10:51:29Z</time>
      </trkpt>
      <trkpt lat="46.02926" lon="5.87888">
        <ele>399.921</ele>
        <time>2022-10-26T10:51:51Z</time>
      </trkpt>
      <trkpt lat="46.03054" lon="5.87914">
        <ele>421.309</ele>
        <time>2022-10-26T10:52:09Z</time>
      </trkpt>
      <trkpt lat="46.03115" lon="5.87864">
        <ele>434.13</ele>
        <time>2022-10-26T10:52:17Z</time>
      </trkpt>
      <trkpt lat="46.03246" lon="5.87561">
        <ele>457.39</ele>
        <time>2022-10-26T10:52:42Z</time>
      </trkpt>
      <trkpt lat="46.03407" lon="5.87293">
        <ele>473.336</ele>
        <time>2022-10-26T10:53:01Z</time>
      </trkpt>
      <trkpt lat="46.03507" lon="5.86917">
        <ele>488.333</ele>
        <time>2022-10-26T10:53:34Z</time>
      </trkpt>
      <trkpt lat="46.03482" lon="5.86888">
        <ele>489.379</ele>
        <time>2022-10-26T10:53:36Z</time>
      </trkpt>
      <trkpt lat="46.03494" lon="5.86799">
        <ele>492.55</ele>
        <time>2022-10-26T10:54:36Z</time>
      </trkpt>
      <trkpt lat="46.03488" lon="5.86954">
        <ele>488.742</ele>
        <time>2022-10-26T10:55:22Z</time>
      </trkpt>
      <trkpt lat="46.03679" lon="5.8661">
        <ele>501.841</ele>
        <time>2022-10-26T10:56:08Z</time>
      </trkpt>
      <trkpt lat="46.03862" lon="5.86336">
        <ele>506.764</ele>
        <time>2022-10-26T10:56:33Z</time>
      </trkpt>
      <trkpt lat="46.03933" lon="5.86263">
        <ele>508.466</ele>
        <time>2022-10-26T10:56:41Z</time>
      </trkpt>
      <trkpt lat="46.04198" lon="5.85761">
        <ele>517.629</ele>
        <time>2022-10-26T10:57:28Z</time>
      </trkpt>
      <trkpt lat="46.04251" lon="5.85766">
        <ele>516.621</ele>
        <time>2022-10-26T10:57:37Z</time>
      </trkpt>
      <trkpt lat="46.04249" lon="5.85729">
        <ele>516.509</ele>
        <time>2022-10-26T10:57:39Z</time>
      </trkpt>
      <trkpt lat="46.04425" lon="5.85428">
        <ele>523.677</ele>
        <time>2022-10-26T10:58:05Z</time>
      </trkpt>
      <trkpt lat="46.04525" lon="5.85095">
        <ele>527.087</ele>
        <time>2022-10-26T10:58:36Z</time>
      </trkpt>
      <trkpt lat="46.04457" lon="5.85022">
        <ele>530.393</ele>
        <time>2022-10-26T10:58:44Z</time>
      </trkpt>
      <trkpt lat="46.04294" lon="5.84918">
        <ele>538.61</ele>
        <time>2022-10-26T10:58:58Z</time>
      </trkpt>
      <trkpt lat="46.04085" lon="5.84489">
        <ele>528.436</ele>
        <time>2022-10-26T10:59:23Z</time>
      </trkpt>
      <trkpt lat="46.04068" lon="5.84394">
        <ele>523.717</ele>
        <time>2022-10-26T10:59:29Z</time>
      </trkpt>
      <trkpt lat="46.04452" lon="5.82964">
        <ele>495.479</ele>
        <time>2022-10-26T11:00:31Z</time>
      </trkpt>
      <trkpt lat="46.04491" lon="5.82882">
        <ele>493.228</ele>
        <time>2022-10-26T11:00:39Z</time>
      </trkpt>
      <trkpt lat="46.0449" lon="5.82819">
        <ele>492.321</ele>
        <time>2022-10-26T11:00:44Z</time>
      </trkpt>
      <trkpt lat="46.04596" lon="5.82583">
        <ele>488.516</ele>
        <time>2022-10-26T11:01:00Z</time>
      </trkpt>
      <trkpt lat="46.04602" lon="5.82506">
        <ele>485.676</ele>
        <time>2022-10-26T11:01:04Z</time>
      </trkpt>
      <trkpt lat="46.04576" lon="5.82401">
        <ele>481.813</ele>
        <time>2022-10-26T11:01:09Z</time>
      </trkpt>
      <trkpt lat="46.0458" lon="5.82336">
        <ele>479.509</ele>
        <time>2022-10-26T11:01:12Z</time>
      </trkpt>
      <trkpt lat="46.04728" lon="5.82087">
        <ele>483.392</ele>
        <time>2022-10-26T11:01:28Z</time>
      </trkpt>
      <trkpt lat="46.04774" lon="5.81783">
        <ele>475.722</ele>
        <time>2022-10-26T11:01:42Z</time>
      </trkpt>
      <trkpt lat="46.04908" lon="5.81666">
        <ele>466.988</ele>
        <time>2022-10-26T11:01:53Z</time>
      </trkpt>
      <trkpt lat="46.04976" lon="5.81676">
        <ele>461.695</ele>
        <time>2022-10-26T11:01:58Z</time>
      </trkpt>
      <trkpt lat="46.05146" lon="5.81763">
        <ele>448.411</ele>
        <time>2022-10-26T11:02:09Z</time>
      </trkpt>
      <trkpt lat="46.0519" lon="5.81742">
        <ele>440.682</ele>
        <time>2022-10-26T11:02:14Z</time>
      </trkpt>
      <trkpt lat="46.05186" lon="5.81672">
        <ele>438.774</ele>
        <time>2022-10-26T11:02:18Z</time>
      </trkpt>
      <trkpt lat="46.05099" lon="5.81669">
        <ele>435.153</ele>
        <time>2022-10-26T11:02:26Z</time>
      </trkpt>
      <trkpt lat="46.05055" lon="5.81595">
        <ele>429.976</ele>
        <time>2022-10-26T11:02:33Z</time>
      </trkpt>
      <trkpt lat="46.04993" lon="5.81565">
        <ele>424.724</ele>
        <time>2022-10-26T11:02:40Z</time>
      </trkpt>
      <trkpt lat="46.04988" lon="5.81478">
        <ele>422.304</ele>
        <time>2022-10-26T11:02:46Z</time>
      </trkpt>
      <trkpt lat="46.04845" lon="5.81386">
        <ele>411.314</ele>
        <time>2022-10-26T11:02:58Z</time>
      </trkpt>
      <trkpt lat="46.04793" lon="5.81267">
        <ele>398.909</ele>
        <time>2022-10-26T11:03:06Z</time>
      </trkpt>
      <trkpt lat="46.04646" lon="5.81226">
        <ele>390.713</ele>
        <time>2022-10-26T11:03:18Z</time>
      </trkpt>
      <trkpt lat="46.04635" lon="5.81193">
        <ele>387.313</ele>
        <time>2022-10-26T11:03:22Z</time>
      </trkpt>
      <trkpt lat="46.04648" lon="5.81176">
        <ele>385.979</ele>
        <time>2022-10-26T11:03:24Z</time>
      </trkpt>
      <trkpt lat="46.04712" lon="5.81215">
        <ele>384.056</ele>
        <time>2022-10-26T11:03:30Z</time>
      </trkpt>
      <trkpt lat="46.04828" lon="5.81209">
        <ele>380.132</ele>
        <time>2022-10-26T11:03:39Z</time>
      </trkpt>
      <trkpt lat="46.04883" lon="5.81289">
        <ele>373.633</ele>
        <time>2022-10-26T11:03:46Z</time>
      </trkpt>
      <trkpt lat="46.04966" lon="5.81302">
        <ele>367.715</ele>
        <time>2022-10-26T11:03:53Z</time>
      </trkpt>
      <trkpt lat="46.05094" lon="5.81433">
        <ele>353.314</ele>
        <time>2022-10-26T11:04:06Z</time>
      </trkpt>
      <trkpt lat="46.05163" lon="5.81389">
        <ele>345.897</ele>
        <time>2022-10-26T11:04:13Z</time>
      </trkpt>
      <trkpt lat="46.05207" lon="5.8141">
        <ele>340.752</ele>
        <time>2022-10-26T11:04:18Z</time>
      </trkpt>
      <trkpt lat="46.05236" lon="5.81394">
        <ele>338.653</ele>
        <time>2022-10-26T11:04:21Z</time>
      </trkpt>
      <trkpt lat="46.05276" lon="5.81181">
        <ele>337.608</ele>
        <time>2022-10-26T11:04:37Z</time>
      </trkpt>
      <trkpt lat="46.05157" lon="5.81083">
        <ele>338.209</ele>
        <time>2022-10-26T11:04:49Z</time>
      </trkpt>
      <trkpt lat="46.05035" lon="5.8104">
        <ele>338.536</ele>
        <time>2022-10-26T11:04:59Z</time>
      </trkpt>
      <trkpt lat="46.05035" lon="5.80907">
        <ele>340.416</ele>
        <time>2022-10-26T11:05:08Z</time>
      </trkpt>
      <trkpt lat="46.0507" lon="5.80873">
        <ele>340.782</ele>
        <time>2022-10-26T11:05:12Z</time>
      </trkpt>
      <trkpt lat="46.05207" lon="5.80987">
        <ele>349.279</ele>
        <time>2022-10-26T11:05:26Z</time>
      </trkpt>
      <trkpt lat="46.05242" lon="5.80962">
        <ele>350.675</ele>
        <time>2022-10-26T11:05:30Z</time>
      </trkpt>
      <trkpt lat="46.05239" lon="5.80895">
        <ele>352.646</ele>
        <time>2022-10-26T11:05:34Z</time>
      </trkpt>
      <trkpt lat="46.05173" lon="5.80801">
        <ele>356.868</ele>
        <time>2022-10-26T11:05:41Z</time>
      </trkpt>
      <trkpt lat="46.05145" lon="5.8063">
        <ele>359.037</ele>
        <time>2022-10-26T11:05:53Z</time>
      </trkpt>
      <trkpt lat="46.05179" lon="5.80478">
        <ele>363.65</ele>
        <time>2022-10-26T11:06:03Z</time>
      </trkpt>
      <trkpt lat="46.05171" lon="5.80405">
        <ele>366.796</ele>
        <time>2022-10-26T11:06:09Z</time>
      </trkpt>
      <trkpt lat="46.05219" lon="5.80112">
        <ele>381.831</ele>
        <time>2022-10-26T11:06:31Z</time>
      </trkpt>
      <trkpt lat="46.05359" lon="5.79817">
        <ele>407.824</ele>
        <time>2022-10-26T11:06:59Z</time>
      </trkpt>
      <trkpt lat="46.05381" lon="5.79809">
        <ele>411.409</ele>
        <time>2022-10-26T11:07:02Z</time>
      </trkpt>
      <trkpt lat="46.0542" lon="5.79916">
        <ele>421.17</ele>
        <time>2022-10-26T11:07:11Z</time>
      </trkpt>
      <trkpt lat="46.05463" lon="5.79938">
        <ele>423.26</ele>
        <time>2022-10-26T11:07:19Z</time>
      </trkpt>
      <trkpt lat="46.05437" lon="5.7983">
        <ele>426.466</ele>
        <time>2022-10-26T11:07:30Z</time>
      </trkpt>
      <trkpt lat="46.05442" lon="5.79727">
        <ele>427.063</ele>
        <time>2022-10-26T11:07:53Z</time>
      </trkpt>
      <trkpt lat="46.05531" lon="5.79694">
        <ele>439.519</ele>
        <time>2022-10-26T11:08:05Z</time>
      </trkpt>
      <trkpt lat="46.05664" lon="5.79538">
        <ele>464.74</ele>
        <time>2022-10-26T11:08:28Z</time>
      </trkpt>
      <trkpt lat="46.05845" lon="5.79524">
        <ele>479.582</ele>
        <time>2022-10-26T11:08:45Z</time>
      </trkpt>
      <trkpt lat="46.06013" lon="5.79439">
        <ele>491.781</ele>
        <time>2022-10-26T11:09:03Z</time>
      </trkpt>
      <trkpt lat="46.06254" lon="5.79182">
        <ele>502.544</ele>
        <time>2022-10-26T11:09:28Z</time>
      </trkpt>
      <trkpt lat="46.0636" lon="5.79137">
        <ele>510.214</ele>
        <time>2022-10-26T11:09:38Z</time>
      </trkpt>
      <trkpt lat="46.06591" lon="5.7915">
        <ele>516.054</ele>
        <time>2022-10-26T11:10:11Z</time>
      </trkpt>
      <trkpt lat="46.06653" lon="5.79057">
        <ele>520.209</ele>
        <time>2022-10-26T11:10:21Z</time>
      </trkpt>
      <trkpt lat="46.07094" lon="5.78987">
        <ele>503.609</ele>
        <time>2022-10-26T11:12:23Z</time>
      </trkpt>
      <trkpt lat="46.07186" lon="5.78892">
        <ele>503.352</ele>
        <time>2022-10-26T11:12:47Z</time>
      </trkpt>
      <trkpt lat="46.07265" lon="5.78864">
        <ele>506.782</ele>
        <time>2022-10-26T11:13:01Z</time>
      </trkpt>
      <trkpt lat="46.0762" lon="5.78953">
        <ele>521.218</ele>
        <time>2022-10-26T11:14:09Z</time>
      </trkpt>
      <trkpt lat="46.0776" lon="5.78398">
        <ele>547.265</ele>
        <time>2022-10-26T11:16:02Z</time>
      </trkpt>
      <trkpt lat="46.08334" lon="5.77658">
        <ele>525.481</ele>
        <time>2022-10-26T11:17:05Z</time>
      </trkpt>
      <trkpt lat="46.08447" lon="5.77799">
        <ele>530.442</ele>
        <time>2022-10-26T11:17:21Z</time>
      </trkpt>
      <trkpt lat="46.08554" lon="5.7786">
        <ele>524.644</ele>
        <time>2022-10-26T11:17:32Z</time>
      </trkpt>
      <trkpt lat="46.08599" lon="5.78168">
        <ele>525.173</ele>
        <time>2022-10-26T11:17:50Z</time>
      </trkpt>
      <trkpt lat="46.08676" lon="5.78292">
        <ele>529.996</ele>
        <time>2022-10-26T11:18:02Z</time>
      </trkpt>
      <trkpt lat="46.08671" lon="5.78455">
        <ele>537.872</ele>
        <time>2022-10-26T11:18:16Z</time>
      </trkpt>
      <trkpt lat="46.08809" lon="5.78467">
        <ele>543.313</ele>
        <time>2022-10-26T11:18:31Z</time>
      </trkpt>
      <trkpt lat="46.0889" lon="5.78512">
        <ele>544.314</ele>
        <time>2022-10-26T11:18:41Z</time>
      </trkpt>
      <trkpt lat="46.09123" lon="5.78311">
        <ele>560.509</ele>
        <time>2022-10-26T11:19:12Z</time>
      </trkpt>
      <trkpt lat="46.09163" lon="5.78309">
        <ele>560.268</ele>
        <time>2022-10-26T11:19:18Z</time>
      </trkpt>
      <trkpt lat="46.09355" lon="5.78166">
        <ele>571.468</ele>
        <time>2022-10-26T11:19:45Z</time>
      </trkpt>
      <trkpt lat="46.09379" lon="5.78101">
        <ele>570.984</ele>
        <time>2022-10-26T11:19:52Z</time>
      </trkpt>
      <trkpt lat="46.09436" lon="5.78084">
        <ele>570.081</ele>
        <time>2022-10-26T11:20:00Z</time>
      </trkpt>
      <trkpt lat="46.09498" lon="5.77987">
        <ele>572.337</ele>
        <time>2022-10-26T11:20:11Z</time>
      </trkpt>
      <trkpt lat="46.09738" lon="5.77953">
        <ele>572.998</ele>
        <time>2022-10-26T11:20:45Z</time>
      </trkpt>
      <trkpt lat="46.09922" lon="5.77819">
        <ele>567.68</ele>
        <time>2022-10-26T11:21:13Z</time>
      </trkpt>
      <trkpt lat="46.10001" lon="5.77798">
        <ele>568.049</ele>
        <time>2022-10-26T11:21:27Z</time>
      </trkpt>
      <trkpt lat="46.10038" lon="5.77733">
        <ele>568.222</ele>
        <time>2022-10-26T11:21:46Z</time>
      </trkpt>
      <trkpt lat="46.10095" lon="5.77694">
        <ele>570.745</ele>
        <time>2022-10-26T11:21:58Z</time>
      </trkpt>
      <trkpt lat="46.1071" lon="5.77879">
        <ele>573.947</ele>
        <time>2022-10-26T11:22:57Z</time>
      </trkpt>
      <trkpt lat="46.1073" lon="5.77906">
        <ele>574.111</ele>
        <time>2022-10-26T11:23:03Z</time>
      </trkpt>
      <trkpt lat="46.10813" lon="5.77857">
        <ele>578.709</ele>
        <time>2022-10-26T11:23:27Z</time>
      </trkpt>
      <trkpt lat="46.10919" lon="5.77856">
        <ele>595.185</ele>
        <time>2022-10-26T11:23:46Z</time>
      </trkpt>
      <trkpt lat="46.10998" lon="5.77809">
        <ele>598.875</ele>
        <time>2022-10-26T11:23:54Z</time>
      </trkpt>
      <trkpt lat="46.1119" lon="5.77797">
        <ele>610.711</ele>
        <time>2022-10-26T11:24:10Z</time>
      </trkpt>
      <trkpt lat="46.1124" lon="5.77768">
        <ele>614.218</ele>
        <time>2022-10-26T11:24:15Z</time>
      </trkpt>
      <trkpt lat="46.11461" lon="5.77765">
        <ele>631.584</ele>
        <time>2022-10-26T11:24:39Z</time>
      </trkpt>
      <trkpt lat="46.11708" lon="5.77822">
        <ele>652.025</ele>
        <time>2022-10-26T11:24:56Z</time>
      </trkpt>
      <trkpt lat="46.11804" lon="5.7777">
        <ele>658.747</ele>
        <time>2022-10-26T11:25:04Z</time>
      </trkpt>
      <trkpt lat="46.11892" lon="5.77806">
        <ele>665.326</ele>
        <time>2022-10-26T11:25:11Z</time>
      </trkpt>
      <trkpt lat="46.12198" lon="5.77834">
        <ele>686.069</ele>
        <time>2022-10-26T11:25:31Z</time>
      </trkpt>
      <trkpt lat="46.12586" lon="5.77778">
        <ele>716.236</ele>
        <time>2022-10-26T11:25:57Z</time>
      </trkpt>
      <trkpt lat="46.12709" lon="5.77803">
        <ele>723.717</ele>
        <time>2022-10-26T11:26:05Z</time>
      </trkpt>
      <trkpt lat="46.12918" lon="5.77765">
        <ele>740.218</ele>
        <time>2022-10-26T11:26:25Z</time>
      </trkpt>
      <trkpt lat="46.13002" lon="5.77856">
        <ele>740.209</ele>
        <time>2022-10-26T11:26:38Z</time>
      </trkpt>
      <trkpt lat="46.13032" lon="5.77928">
        <ele>736.124</ele>
        <time>2022-10-26T11:26:45Z</time>
      </trkpt>
      <trkpt lat="46.13163" lon="5.78058">
        <ele>723.954</ele>
        <time>2022-10-26T11:27:07Z</time>
      </trkpt>
      <trkpt lat="46.13197" lon="5.7803">
        <ele>721.04</ele>
        <time>2022-10-26T11:27:17Z</time>
      </trkpt>
      <trkpt lat="46.13232" lon="5.78073">
        <ele>725.487</ele>
        <time>2022-10-26T11:27:25Z</time>
      </trkpt>
      <trkpt lat="46.13337" lon="5.78047">
        <ele>732.643</ele>
        <time>2022-10-26T11:27:35Z</time>
      </trkpt>
      <trkpt lat="46.13472" lon="5.78063">
        <ele>742.644</ele>
        <time>2022-10-26T11:27:47Z</time>
      </trkpt>
      <trkpt lat="46.13604" lon="5.78021">
        <ele>749.796</ele>
        <time>2022-10-26T11:28:01Z</time>
      </trkpt>
      <trkpt lat="46.13805" lon="5.77868">
        <ele>757.025</ele>
        <time>2022-10-26T11:28:31Z</time>
      </trkpt>
      <trkpt lat="46.1402" lon="5.7787">
        <ele>761.448</ele>
        <time>2022-10-26T11:28:53Z</time>
      </trkpt>
      <trkpt lat="46.14107" lon="5.77906">
        <ele>764.477</ele>
        <time>2022-10-26T11:29:06Z</time>
      </trkpt>
      <trkpt lat="46.14216" lon="5.7784">
        <ele>771.161</ele>
        <time>2022-10-26T11:29:24Z</time>
      </trkpt>
      <trkpt lat="46.14311" lon="5.77837">
        <ele>776.927</ele>
        <time>2022-10-26T11:29:37Z</time>
      </trkpt>
      <trkpt lat="46.14541" lon="5.77758">
        <ele>792.809</ele>
        <time>2022-10-26T11:30:10Z</time>
      </trkpt>
      <trkpt lat="46.14584" lon="5.77698">
        <ele>796.198</ele>
        <time>2022-10-26T11:30:18Z</time>
      </trkpt>
      <trkpt lat="46.1468" lon="5.77395">
        <ele>807.088</ele>
        <time>2022-10-26T11:30:47Z</time>
      </trkpt>
      <trkpt lat="46.14708" lon="5.77355">
        <ele>808.314</ele>
        <time>2022-10-26T11:30:52Z</time>
      </trkpt>
      <trkpt lat="46.14799" lon="5.77313">
        <ele>810.431</ele>
        <time>2022-10-26T11:31:04Z</time>
      </trkpt>
      <trkpt lat="46.14884" lon="5.77319">
        <ele>812.137</ele>
        <time>2022-10-26T11:31:13Z</time>
      </trkpt>
      <trkpt lat="46.14945" lon="5.77264">
        <ele>815.068</ele>
        <time>2022-10-26T11:31:22Z</time>
      </trkpt>
      <trkpt lat="46.14906" lon="5.77204">
        <ele>818.13</ele>
        <time>2022-10-26T11:31:31Z</time>
      </trkpt>
      <trkpt lat="46.14956" lon="5.77174">
        <ele>819.099</ele>
        <time>2022-10-26T11:31:32Z</time>
      </trkpt>
      <trkpt lat="46.14963" lon="5.77102">
        <ele>822.232</ele>
        <time>2022-10-26T11:31:39Z</time>
      </trkpt>
      <trkpt lat="46.15062" lon="5.77025">
        <ele>828.664</ele>
        <time>2022-10-26T11:31:52Z</time>
      </trkpt>
      <trkpt lat="46.15113" lon="5.77027">
        <ele>832.506</ele>
        <time>2022-10-26T11:32:00Z</time>
      </trkpt>
      <trkpt lat="46.15148" lon="5.77059">
        <ele>834.216</ele>
        <time>2022-10-26T11:32:06Z</time>
      </trkpt>
      <trkpt lat="46.15289" lon="5.77096">
        <ele>840.009</ele>
        <time>2022-10-26T11:32:23Z</time>
      </trkpt>
      <trkpt lat="46.15501" lon="5.76983">
        <ele>853.857</ele>
        <time>2022-10-26T11:35:10Z</time>
      </trkpt>
      <trkpt lat="46.15577" lon="5.7691">
        <ele>857.757</ele>
        <time>2022-10-26T11:35:23Z</time>
      </trkpt>
      <trkpt lat="46.15582" lon="5.76794">
        <ele>859.693</ele>
        <time>2022-10-26T11:35:39Z</time>
      </trkpt>
      <trkpt lat="46.15536" lon="5.76496">
        <ele>861.66</ele>
        <time>2022-10-26T11:36:16Z</time>
      </trkpt>
      <trkpt lat="46.15605" lon="5.7634">
        <ele>862.766</ele>
        <time>2022-10-26T11:36:33Z</time>
      </trkpt>
      <trkpt lat="46.15593" lon="5.76264">
        <ele>862.317</ele>
        <time>2022-10-26T11:36:42Z</time>
      </trkpt>
      <trkpt lat="46.15607" lon="5.76128">
        <ele>863.299</ele>
        <time>2022-10-26T11:36:54Z</time>
      </trkpt>
      <trkpt lat="46.15638" lon="5.76066">
        <ele>863.118</ele>
        <time>2022-10-26T11:37:01Z</time>
      </trkpt>
      <trkpt lat="46.1564" lon="5.75995">
        <ele>863.961</ele>
        <time>2022-10-26T11:37:08Z</time>
      </trkpt>
      <trkpt lat="46.15683" lon="5.75882">
        <ele>864.873</ele>
        <time>2022-10-26T11:37:19Z</time>
      </trkpt>
      <trkpt lat="46.15688" lon="5.75686">
        <ele>863.985</ele>
        <time>2022-10-26T11:37:37Z</time>
      </trkpt>
      <trkpt lat="46.15298" lon="5.75294">
        <ele>861.813</ele>
        <time>2022-10-26T11:38:36Z</time>
      </trkpt>
      <trkpt lat="46.15049" lon="5.7514">
        <ele>855.909</ele>
        <time>2022-10-26T11:39:04Z</time>
      </trkpt>
      <trkpt lat="46.14909" lon="5.75113">
        <ele>850.618</ele>
        <time>2022-10-26T11:39:17Z</time>
      </trkpt>
      <trkpt lat="46.14433" lon="5.74786">
        <ele>862.528</ele>
        <time>2022-10-26T11:40:10Z</time>
      </trkpt>
      <trkpt lat="46.1432" lon="5.74627">
        <ele>853.454</ele>
        <time>2022-10-26T11:40:35Z</time>
      </trkpt>
      <trkpt lat="46.14283" lon="5.74472">
        <ele>844.251</ele>
        <time>2022-10-26T11:40:55Z</time>
      </trkpt>
      <trkpt lat="46.14221" lon="5.74424">
        <ele>838.577</ele>
        <time>2022-10-26T11:41:08Z</time>
      </trkpt>
      <trkpt lat="46.14218" lon="5.74384">
        <ele>834.198</ele>
        <time>2022-10-26T11:41:16Z</time>
      </trkpt>
      <trkpt lat="46.14263" lon="5.74386">
        <ele>826.78</ele>
        <time>2022-10-26T11:41:32Z</time>
      </trkpt>
      <trkpt lat="46.14375" lon="5.74522">
        <ele>811.789</ele>
        <time>2022-10-26T11:42:01Z</time>
      </trkpt>
      <trkpt lat="46.14435" lon="5.74556">
        <ele>804.822</ele>
        <time>2022-10-26T11:42:11Z</time>
      </trkpt>
      <trkpt lat="46.14462" lon="5.74612">
        <ele>799.646</ele>
        <time>2022-10-26T11:42:20Z</time>
      </trkpt>
      <trkpt lat="46.147" lon="5.7475">
        <ele>772.088</ele>
        <time>2022-10-26T11:42:50Z</time>
      </trkpt>
      <trkpt lat="46.1477" lon="5.74743">
        <ele>764.016</ele>
        <time>2022-10-26T11:43:01Z</time>
      </trkpt>
      <trkpt lat="46.14804" lon="5.74808">
        <ele>757.109</ele>
        <time>2022-10-26T11:43:11Z</time>
      </trkpt>
      <trkpt lat="46.14959" lon="5.74863">
        <ele>739.985</ele>
        <time>2022-10-26T11:43:34Z</time>
      </trkpt>
      <trkpt lat="46.14981" lon="5.74825">
        <ele>737.145</ele>
        <time>2022-10-26T11:43:37Z</time>
      </trkpt>
      <trkpt lat="46.14996" lon="5.74873">
        <ele>735.081</ele>
        <time>2022-10-26T11:43:38Z</time>
      </trkpt>
      <trkpt lat="46.15038" lon="5.74894">
        <ele>730.668</ele>
        <time>2022-10-26T11:43:44Z</time>
      </trkpt>
      <trkpt lat="46.15103" lon="5.74879">
        <ele>723.594</ele>
        <time>2022-10-26T11:43:52Z</time>
      </trkpt>
      <trkpt lat="46.15148" lon="5.74816">
        <ele>715.425</ele>
        <time>2022-10-26T11:44:01Z</time>
      </trkpt>
      <trkpt lat="46.15187" lon="5.74831">
        <ele>708.837</ele>
        <time>2022-10-26T11:44:13Z</time>
      </trkpt>
      <trkpt lat="46.15256" lon="5.74799">
        <ele>701.086</ele>
        <time>2022-10-26T11:44:27Z</time>
      </trkpt>
      <trkpt lat="46.1536" lon="5.74694">
        <ele>690.639</ele>
        <time>2022-10-26T11:44:45Z</time>
      </trkpt>
      <trkpt lat="46.15451" lon="5.74727">
        <ele>683.187</ele>
        <time>2022-10-26T11:45:00Z</time>
      </trkpt>
      <trkpt lat="46.15494" lon="5.74822">
        <ele>675.142</ele>
        <time>2022-10-26T11:45:13Z</time>
      </trkpt>
      <trkpt lat="46.1561" lon="5.74966">
        <ele>659.926</ele>
        <time>2022-10-26T11:45:36Z</time>
      </trkpt>
      <trkpt lat="46.1568" lon="5.74959">
        <ele>653.009</ele>
        <time>2022-10-26T11:45:44Z</time>
      </trkpt>
      <trkpt lat="46.15824" lon="5.74773">
        <ele>636.179</ele>
        <time>2022-10-26T11:46:08Z</time>
      </trkpt>
      <trkpt lat="46.15886" lon="5.74829">
        <ele>627.999</ele>
        <time>2022-10-26T11:46:20Z</time>
      </trkpt>
      <trkpt lat="46.16019" lon="5.74869">
        <ele>614.025</ele>
        <time>2022-10-26T11:46:42Z</time>
      </trkpt>
      <trkpt lat="46.16039" lon="5.74831">
        <ele>611.852</ele>
        <time>2022-10-26T11:46:46Z</time>
      </trkpt>
      <trkpt lat="46.16031" lon="5.74762">
        <ele>608.438</ele>
        <time>2022-10-26T11:46:53Z</time>
      </trkpt>
      <trkpt lat="46.16068" lon="5.74732">
        <ele>603.749</ele>
        <time>2022-10-26T11:47:01Z</time>
      </trkpt>
      <trkpt lat="46.16141" lon="5.7487">
        <ele>592.321</ele>
        <time>2022-10-26T11:47:20Z</time>
      </trkpt>
      <trkpt lat="46.16174" lon="5.74891">
        <ele>588.08</ele>
        <time>2022-10-26T11:47:26Z</time>
      </trkpt>
      <trkpt lat="46.1627" lon="5.75047">
        <ele>575.153</ele>
        <time>2022-10-26T11:47:45Z</time>
      </trkpt>
      <trkpt lat="46.16254" lon="5.75136">
        <ele>566.957</ele>
        <time>2022-10-26T11:47:57Z</time>
      </trkpt>
      <trkpt lat="46.16372" lon="5.75314">
        <ele>550.3</ele>
        <time>2022-10-26T11:48:19Z</time>
      </trkpt>
      <trkpt lat="46.16449" lon="5.75328">
        <ele>539.62</ele>
        <time>2022-10-26T11:48:30Z</time>
      </trkpt>
      <trkpt lat="46.16474" lon="5.75597">
        <ele>518.209</ele>
        <time>2022-10-26T11:48:55Z</time>
      </trkpt>
      <trkpt lat="46.16531" lon="5.75732">
        <ele>502.956</ele>
        <time>2022-10-26T11:49:45Z</time>
      </trkpt>
      <trkpt lat="46.16495" lon="5.75927">
        <ele>490.396</ele>
        <time>2022-10-26T11:50:00Z</time>
      </trkpt>
      <trkpt lat="46.16469" lon="5.75953">
        <ele>485.942</ele>
        <time>2022-10-26T11:50:04Z</time>
      </trkpt>
      <trkpt lat="46.16486" lon="5.76035">
        <ele>473.959</ele>
        <time>2022-10-26T11:50:13Z</time>
      </trkpt>
      <trkpt lat="46.16444" lon="5.76183">
        <ele>456.255</ele>
        <time>2022-10-26T11:50:28Z</time>
      </trkpt>
      <trkpt lat="46.16375" lon="5.76656">
        <ele>437.576</ele>
        <time>2022-10-26T11:51:05Z</time>
      </trkpt>
      <trkpt lat="46.16419" lon="5.76717">
        <ele>436.668</ele>
        <time>2022-10-26T11:51:11Z</time>
      </trkpt>
      <trkpt lat="46.16467" lon="5.76867">
        <ele>432.567</ele>
        <time>2022-10-26T11:51:25Z</time>
      </trkpt>
      <trkpt lat="46.16551" lon="5.76464">
        <ele>431.78</ele>
        <time>2022-10-26T11:52:06Z</time>
      </trkpt>
      <trkpt lat="46.16702" lon="5.76304">
        <ele>436.287</ele>
        <time>2022-10-26T11:52:36Z</time>
      </trkpt>
      <trkpt lat="46.16565" lon="5.76472">
        <ele>432.942</ele>
        <time>2022-10-26T11:56:06Z</time>
      </trkpt>
      <trkpt lat="46.16507" lon="5.767">
        <ele>427.626</ele>
        <time>2022-10-26T11:59:48Z</time>
      </trkpt>
      <trkpt lat="46.16511" lon="5.76673">
        <ele>426.709</ele>
        <time>2022-10-26T12:02:28Z</time>
      </trkpt>
      <trkpt lat="46.165" lon="5.76685">
        <ele>426.369</ele>
        <time>2022-10-26T12:09:21Z</time>
      </trkpt>
      <trkpt lat="46.1652" lon="5.76669">
        <ele>425.579</ele>
        <time>2022-10-26T12:22:01Z</time>
      </trkpt>
      <trkpt lat="46.16473" lon="5.76857">
        <ele>429.115</ele>
        <time>2022-10-26T12:28:56Z</time>
      </trkpt>
      <trkpt lat="46.16383" lon="5.76643">
        <ele>433.992</ele>
        <time>2022-10-26T12:29:20Z</time>
      </trkpt>
      <trkpt lat="46.16413" lon="5.7645">
        <ele>435.218</ele>
        <time>2022-10-26T12:29:31Z</time>
      </trkpt>
      <trkpt lat="46.16494" lon="5.76265">
        <ele>434.389</ele>
        <time>2022-10-26T12:29:41Z</time>
      </trkpt>
      <trkpt lat="46.16646" lon="5.76086">
        <ele>434.721</ele>
        <time>2022-10-26T12:29:52Z</time>
      </trkpt>
      <trkpt lat="46.16803" lon="5.75764">
        <ele>440.33</ele>
        <time>2022-10-26T12:30:07Z</time>
      </trkpt>
      <trkpt lat="46.16887" lon="5.7546">
        <ele>450.473</ele>
        <time>2022-10-26T12:30:20Z</time>
      </trkpt>
      <trkpt lat="46.17047" lon="5.75028">
        <ele>463.843</ele>
        <time>2022-10-26T12:30:38Z</time>
      </trkpt>
      <trkpt lat="46.17126" lon="5.74914">
        <ele>468.064</ele>
        <time>2022-10-26T12:30:44Z</time>
      </trkpt>
      <trkpt lat="46.17181" lon="5.74777">
        <ele>471.71</ele>
        <time>2022-10-26T12:30:50Z</time>
      </trkpt>
      <trkpt lat="46.17303" lon="5.7466">
        <ele>476.609</ele>
        <time>2022-10-26T12:30:58Z</time>
      </trkpt>
      <trkpt lat="46.17497" lon="5.7454">
        <ele>480.595</ele>
        <time>2022-10-26T12:31:10Z</time>
      </trkpt>
      <trkpt lat="46.17549" lon="5.74404">
        <ele>484.465</ele>
        <time>2022-10-26T12:31:17Z</time>
      </trkpt>
      <trkpt lat="46.17669" lon="5.74207">
        <ele>485.331</ele>
        <time>2022-10-26T12:31:33Z</time>
      </trkpt>
      <trkpt lat="46.17736" lon="5.73948">
        <ele>493.948</ele>
        <time>2022-10-26T12:31:53Z</time>
      </trkpt>
      <trkpt lat="46.17806" lon="5.73844">
        <ele>503.444</ele>
        <time>2022-10-26T12:32:05Z</time>
      </trkpt>
      <trkpt lat="46.17857" lon="5.73859">
        <ele>505.985</ele>
        <time>2022-10-26T12:32:20Z</time>
      </trkpt>
      <trkpt lat="46.18257" lon="5.73743">
        <ele>518.757</ele>
        <time>2022-10-26T12:32:54Z</time>
      </trkpt>
      <trkpt lat="46.18355" lon="5.73766">
        <ele>523.246</ele>
        <time>2022-10-26T12:33:01Z</time>
      </trkpt>
      <trkpt lat="46.18466" lon="5.73724">
        <ele>529.219</ele>
        <time>2022-10-26T12:33:09Z</time>
      </trkpt>
      <trkpt lat="46.18512" lon="5.73661">
        <ele>532.094</ele>
        <time>2022-10-26T12:33:14Z</time>
      </trkpt>
      <trkpt lat="46.18563" lon="5.73392">
        <ele>542.257</ele>
        <time>2022-10-26T12:33:28Z</time>
      </trkpt>
      <trkpt lat="46.18588" lon="5.73339">
        <ele>543.522</ele>
        <time>2022-10-26T12:33:34Z</time>
      </trkpt>
      <trkpt lat="46.18614" lon="5.73373">
        <ele>544.509</ele>
        <time>2022-10-26T12:33:38Z</time>
      </trkpt>
      <trkpt lat="46.18627" lon="5.73472">
        <ele>548.38</ele>
        <time>2022-10-26T12:33:45Z</time>
      </trkpt>
      <trkpt lat="46.1868" lon="5.73583">
        <ele>553.45</ele>
        <time>2022-10-26T12:33:55Z</time>
      </trkpt>
      <trkpt lat="46.18694" lon="5.73577">
        <ele>553.486</ele>
        <time>2022-10-26T12:33:58Z</time>
      </trkpt>
      <trkpt lat="46.18659" lon="5.7333">
        <ele>568.163</ele>
        <time>2022-10-26T12:34:14Z</time>
      </trkpt>
      <trkpt lat="46.18684" lon="5.7315">
        <ele>582.819</ele>
        <time>2022-10-26T12:34:26Z</time>
      </trkpt>
      <trkpt lat="46.18703" lon="5.73298">
        <ele>593.47</ele>
        <time>2022-10-26T12:34:37Z</time>
      </trkpt>
      <trkpt lat="46.18815" lon="5.73633">
        <ele>618.752</ele>
        <time>2022-10-26T12:34:57Z</time>
      </trkpt>
      <trkpt lat="46.18844" lon="5.73628">
        <ele>621.131</ele>
        <time>2022-10-26T12:35:01Z</time>
      </trkpt>
      <trkpt lat="46.18804" lon="5.73529">
        <ele>630.344</ele>
        <time>2022-10-26T12:35:10Z</time>
      </trkpt>
      <trkpt lat="46.18799" lon="5.73224">
        <ele>650.875</ele>
        <time>2022-10-26T12:35:25Z</time>
      </trkpt>
      <trkpt lat="46.1884" lon="5.72766">
        <ele>681.528</ele>
        <time>2022-10-26T12:35:46Z</time>
      </trkpt>
      <trkpt lat="46.18906" lon="5.7245">
        <ele>704.92</ele>
        <time>2022-10-26T12:36:03Z</time>
      </trkpt>
      <trkpt lat="46.18957" lon="5.72326">
        <ele>715.709</ele>
        <time>2022-10-26T12:36:11Z</time>
      </trkpt>
      <trkpt lat="46.18931" lon="5.72138">
        <ele>728.568</ele>
        <time>2022-10-26T12:36:22Z</time>
      </trkpt>
      <trkpt lat="46.1895" lon="5.72124">
        <ele>730.278</ele>
        <time>2022-10-26T12:36:25Z</time>
      </trkpt>
      <trkpt lat="46.18985" lon="5.7217">
        <ele>733.024</ele>
        <time>2022-10-26T12:36:30Z</time>
      </trkpt>
      <trkpt lat="46.19037" lon="5.72166">
        <ele>736.621</ele>
        <time>2022-10-26T12:36:35Z</time>
      </trkpt>
      <trkpt lat="46.1908" lon="5.72247">
        <ele>742.817</ele>
        <time>2022-10-26T12:36:41Z</time>
      </trkpt>
      <trkpt lat="46.19069" lon="5.72441">
        <ele>754.428</ele>
        <time>2022-10-26T12:36:52Z</time>
      </trkpt>
      <trkpt lat="46.19133" lon="5.72665">
        <ele>765.07</ele>
        <time>2022-10-26T12:37:10Z</time>
      </trkpt>
      <trkpt lat="46.1919" lon="5.72263">
        <ele>773.939</ele>
        <time>2022-10-26T12:37:36Z</time>
      </trkpt>
      <trkpt lat="46.1919" lon="5.72136">
        <ele>777.422</ele>
        <time>2022-10-26T12:37:43Z</time>
      </trkpt>
      <trkpt lat="46.19043" lon="5.71788">
        <ele>785.574</ele>
        <time>2022-10-26T12:38:05Z</time>
      </trkpt>
      <trkpt lat="46.18957" lon="5.71668">
        <ele>784.756</ele>
        <time>2022-10-26T12:38:17Z</time>
      </trkpt>
      <trkpt lat="46.18937" lon="5.71548">
        <ele>784.921</ele>
        <time>2022-10-26T12:38:25Z</time>
      </trkpt>
      <trkpt lat="46.1887" lon="5.71483">
        <ele>786.909</ele>
        <time>2022-10-26T12:38:33Z</time>
      </trkpt>
      <trkpt lat="46.18843" lon="5.71389">
        <ele>788.148</ele>
        <time>2022-10-26T12:38:41Z</time>
      </trkpt>
      <trkpt lat="46.18765" lon="5.71347">
        <ele>786.828</ele>
        <time>2022-10-26T12:38:53Z</time>
      </trkpt>
      <trkpt lat="46.18709" lon="5.71358">
        <ele>787.114</ele>
        <time>2022-10-26T12:39:02Z</time>
      </trkpt>
      <trkpt lat="46.18677" lon="5.71441">
        <ele>789.831</ele>
        <time>2022-10-26T12:39:57Z</time>
      </trkpt>
      <trkpt lat="46.18636" lon="5.71422">
        <ele>791.527</ele>
        <time>2022-10-26T12:40:03Z</time>
      </trkpt>
      <trkpt lat="46.18491" lon="5.71506">
        <ele>804.068</ele>
        <time>2022-10-26T12:40:43Z</time>
      </trkpt>
      <trkpt lat="46.1835" lon="5.71452">
        <ele>803.32</ele>
        <time>2022-10-26T12:41:18Z</time>
      </trkpt>
      <trkpt lat="46.18291" lon="5.71698">
        <ele>793.039</ele>
        <time>2022-10-26T12:42:43Z</time>
      </trkpt>
      <trkpt lat="46.18344" lon="5.71462">
        <ele>800.452</ele>
        <time>2022-10-26T12:43:32Z</time>
      </trkpt>
      <trkpt lat="46.18296" lon="5.71451">
        <ele>800.741</ele>
        <time>2022-10-26T12:45:13Z</time>
      </trkpt>
      <trkpt lat="46.1822" lon="5.71376">
        <ele>793.681</ele>
        <time>2022-10-26T12:45:54Z</time>
      </trkpt>
      <trkpt lat="46.18062" lon="5.7101">
        <ele>793.009</ele>
        <time>2022-10-26T12:46:48Z</time>
      </trkpt>
      <trkpt lat="46.17991" lon="5.70946">
        <ele>789.309</ele>
        <time>2022-10-26T12:47:22Z</time>
      </trkpt>
      <trkpt lat="46.17992" lon="5.70812">
        <ele>797.645</ele>
        <time>2022-10-26T12:47:41Z</time>
      </trkpt>
      <trkpt lat="46.18018" lon="5.70783">
        <ele>802.415</ele>
        <time>2022-10-26T12:47:47Z</time>
      </trkpt>
      <trkpt lat="46.18009" lon="5.70741">
        <ele>807.061</ele>
        <time>2022-10-26T12:47:54Z</time>
      </trkpt>
      <trkpt lat="46.18065" lon="5.7062">
        <ele>823.428</ele>
        <time>2022-10-26T12:49:23Z</time>
      </trkpt>
      <trkpt lat="46.1805" lon="5.70521">
        <ele>832.774</ele>
        <time>2022-10-26T12:49:38Z</time>
      </trkpt>
      <trkpt lat="46.18078" lon="5.7048">
        <ele>839.995</ele>
        <time>2022-10-26T12:49:53Z</time>
      </trkpt>
      <trkpt lat="46.18086" lon="5.7041">
        <ele>843.127</ele>
        <time>2022-10-26T12:50:10Z</time>
      </trkpt>
      <trkpt lat="46.1817" lon="5.70334">
        <ele>863.026</ele>
        <time>2022-10-26T12:50:31Z</time>
      </trkpt>
      <trkpt lat="46.18278" lon="5.70287">
        <ele>880.649</ele>
        <time>2022-10-26T12:51:10Z</time>
      </trkpt>
      <trkpt lat="46.18371" lon="5.70067">
        <ele>899.069</ele>
        <time>2022-10-26T12:54:52Z</time>
      </trkpt>
      <trkpt lat="46.18432" lon="5.69708">
        <ele>909.704</ele>
        <time>2022-10-26T12:55:48Z</time>
      </trkpt>
      <trkpt lat="46.18385" lon="5.69425">
        <ele>892.524</ele>
        <time>2022-10-26T12:57:38Z</time>
      </trkpt>
      <trkpt lat="46.18544" lon="5.69298">
        <ele>856.409</ele>
        <time>2022-10-26T12:59:12Z</time>
      </trkpt>
      <trkpt lat="46.18445" lon="5.69215">
        <ele>831.967</ele>
        <time>2022-10-26T13:00:49Z</time>
      </trkpt>
      <trkpt lat="46.18467" lon="5.69166">
        <ele>824.657</ele>
        <time>2022-10-26T13:01:09Z</time>
      </trkpt>
      <trkpt lat="46.18539" lon="5.69108">
        <ele>815.333</ele>
        <time>2022-10-26T13:01:41Z</time>
      </trkpt>
      <trkpt lat="46.18506" lon="5.69051">
        <ele>813.02</ele>
        <time>2022-10-26T13:05:26Z</time>
      </trkpt>
      <trkpt lat="46.18534" lon="5.68961">
        <ele>802.766</ele>
        <time>2022-10-26T13:05:34Z</time>
      </trkpt>
      <trkpt lat="46.18546" lon="5.6883">
        <ele>788.037</ele>
        <time>2022-10-26T13:05:44Z</time>
      </trkpt>
      <trkpt lat="46.18507" lon="5.68564">
        <ele>764.459</ele>
        <time>2022-10-26T13:06:07Z</time>
      </trkpt>
      <trkpt lat="46.18446" lon="5.68538">
        <ele>764.788</ele>
        <time>2022-10-26T13:06:15Z</time>
      </trkpt>
      <trkpt lat="46.18404" lon="5.68416">
        <ele>770.531</ele>
        <time>2022-10-26T13:06:27Z</time>
      </trkpt>
      <trkpt lat="46.18302" lon="5.68495">
        <ele>774.042</ele>
        <time>2022-10-26T13:07:09Z</time>
      </trkpt>
      <trkpt lat="46.18242" lon="5.68482">
        <ele>771.222</ele>
        <time>2022-10-26T13:07:16Z</time>
      </trkpt>
      <trkpt lat="46.18032" lon="5.68525">
        <ele>754.814</ele>
        <time>2022-10-26T13:07:36Z</time>
      </trkpt>
      <trkpt lat="46.1791" lon="5.68318">
        <ele>748.209</ele>
        <time>2022-10-26T13:07:53Z</time>
      </trkpt>
      <trkpt lat="46.17796" lon="5.68304">
        <ele>741.245</ele>
        <time>2022-10-26T13:08:03Z</time>
      </trkpt>
      <trkpt lat="46.17694" lon="5.68137">
        <ele>732.945</ele>
        <time>2022-10-26T13:08:14Z</time>
      </trkpt>
      <trkpt lat="46.17627" lon="5.67969">
        <ele>721.661</ele>
        <time>2022-10-26T13:08:24Z</time>
      </trkpt>
      <trkpt lat="46.17584" lon="5.67929">
        <ele>718.218</ele>
        <time>2022-10-26T13:08:28Z</time>
      </trkpt>
      <trkpt lat="46.17538" lon="5.67944">
        <ele>714.574</ele>
        <time>2022-10-26T13:08:32Z</time>
      </trkpt>
      <trkpt lat="46.17499" lon="5.68048">
        <ele>707.675</ele>
        <time>2022-10-26T13:08:39Z</time>
      </trkpt>
      <trkpt lat="46.1746" lon="5.68088">
        <ele>702.347</ele>
        <time>2022-10-26T13:08:43Z</time>
      </trkpt>
      <trkpt lat="46.17279" lon="5.67992">
        <ele>685.696</ele>
        <time>2022-10-26T13:08:58Z</time>
      </trkpt>
      <trkpt lat="46.17222" lon="5.68017">
        <ele>680.079</ele>
        <time>2022-10-26T13:09:03Z</time>
      </trkpt>
      <trkpt lat="46.17135" lon="5.68271">
        <ele>663.327</ele>
        <time>2022-10-26T13:09:19Z</time>
      </trkpt>
      <trkpt lat="46.1703" lon="5.68316">
        <ele>654.168</ele>
        <time>2022-10-26T13:09:29Z</time>
      </trkpt>
      <trkpt lat="46.16992" lon="5.684">
        <ele>648.014</ele>
        <time>2022-10-26T13:09:37Z</time>
      </trkpt>
      <trkpt lat="46.16974" lon="5.68372">
        <ele>644.909</ele>
        <time>2022-10-26T13:09:40Z</time>
      </trkpt>
      <trkpt lat="46.17014" lon="5.68131">
        <ele>631.223</ele>
        <time>2022-10-26T13:09:56Z</time>
      </trkpt>
      <trkpt lat="46.17074" lon="5.68042">
        <ele>624.283</ele>
        <time>2022-10-26T13:10:05Z</time>
      </trkpt>
      <trkpt lat="46.17084" lon="5.67977">
        <ele>619.119</ele>
        <time>2022-10-26T13:10:11Z</time>
      </trkpt>
      <trkpt lat="46.17063" lon="5.67927">
        <ele>613.146</ele>
        <time>2022-10-26T13:10:54Z</time>
      </trkpt>
      <trkpt lat="46.17029" lon="5.67937">
        <ele>611.852</ele>
        <time>2022-10-26T13:11:02Z</time>
      </trkpt>
      <trkpt lat="46.16957" lon="5.681">
        <ele>609.513</ele>
        <time>2022-10-26T13:11:20Z</time>
      </trkpt>
      <trkpt lat="46.16916" lon="5.68494">
        <ele>596.175</ele>
        <time>2022-10-26T13:11:51Z</time>
      </trkpt>
      <trkpt lat="46.1689" lon="5.68489">
        <ele>592.214</ele>
        <time>2022-10-26T13:11:59Z</time>
      </trkpt>
      <trkpt lat="46.16908" lon="5.68508">
        <ele>591.677</ele>
        <time>2022-10-26T13:16:34Z</time>
      </trkpt>
      <trkpt lat="46.16902" lon="5.68486">
        <ele>590.643</ele>
        <time>2022-10-26T13:20:12Z</time>
      </trkpt>
      <trkpt lat="46.16899" lon="5.6851">
        <ele>590.864</ele>
        <time>2022-10-26T13:28:18Z</time>
      </trkpt>
      <trkpt lat="46.16915" lon="5.68314">
        <ele>586.91</ele>
        <time>2022-10-26T13:28:35Z</time>
      </trkpt>
      <trkpt lat="46.16887" lon="5.68265">
        <ele>583.109</ele>
        <time>2022-10-26T13:28:45Z</time>
      </trkpt>
      <trkpt lat="46.16825" lon="5.68594">
        <ele>582.815</ele>
        <time>2022-10-26T13:29:15Z</time>
      </trkpt>
      <trkpt lat="46.16741" lon="5.68789">
        <ele>585.795</ele>
        <time>2022-10-26T13:29:26Z</time>
      </trkpt>
      <trkpt lat="46.16696" lon="5.69043">
        <ele>585.921</ele>
        <time>2022-10-26T13:29:39Z</time>
      </trkpt>
      <trkpt lat="46.166" lon="5.69304">
        <ele>587.128</ele>
        <time>2022-10-26T13:29:55Z</time>
      </trkpt>
      <trkpt lat="46.16543" lon="5.69387">
        <ele>586.134</ele>
        <time>2022-10-26T13:30:01Z</time>
      </trkpt>
      <trkpt lat="46.16406" lon="5.69453">
        <ele>586.535</ele>
        <time>2022-10-26T13:30:11Z</time>
      </trkpt>
      <trkpt lat="46.16341" lon="5.69674">
        <ele>583.677</ele>
        <time>2022-10-26T13:30:21Z</time>
      </trkpt>
      <trkpt lat="46.16376" lon="5.70148">
        <ele>566.526</ele>
        <time>2022-10-26T13:30:40Z</time>
      </trkpt>
      <trkpt lat="46.16654" lon="5.71169">
        <ele>544.889</ele>
        <time>2022-10-26T13:31:21Z</time>
      </trkpt>
      <trkpt lat="46.16711" lon="5.71488">
        <ele>532.559</ele>
        <time>2022-10-26T13:31:34Z</time>
      </trkpt>
      <trkpt lat="46.1676" lon="5.71613">
        <ele>528.703</ele>
        <time>2022-10-26T13:31:40Z</time>
      </trkpt>
      <trkpt lat="46.16776" lon="5.71731">
        <ele>527.423</ele>
        <time>2022-10-26T13:31:45Z</time>
      </trkpt>
      <trkpt lat="46.16893" lon="5.71916">
        <ele>526.309</ele>
        <time>2022-10-26T13:31:55Z</time>
      </trkpt>
      <trkpt lat="46.16924" lon="5.72118">
        <ele>520.826</ele>
        <time>2022-10-26T13:32:04Z</time>
      </trkpt>
      <trkpt lat="46.17003" lon="5.72341">
        <ele>516.776</ele>
        <time>2022-10-26T13:32:15Z</time>
      </trkpt>
      <trkpt lat="46.17148" lon="5.72503">
        <ele>519.372</ele>
        <time>2022-10-26T13:32:26Z</time>
      </trkpt>
      <trkpt lat="46.17206" lon="5.72743">
        <ele>515.259</ele>
        <time>2022-10-26T13:32:36Z</time>
      </trkpt>
      <trkpt lat="46.17281" lon="5.72902">
        <ele>508.965</ele>
        <time>2022-10-26T13:32:46Z</time>
      </trkpt>
      <trkpt lat="46.17297" lon="5.73048">
        <ele>505.096</ele>
        <time>2022-10-26T13:32:54Z</time>
      </trkpt>
      <trkpt lat="46.1751" lon="5.73353">
        <ele>504.398</ele>
        <time>2022-10-26T13:33:15Z</time>
      </trkpt>
      <trkpt lat="46.176" lon="5.73402">
        <ele>502.247</ele>
        <time>2022-10-26T13:33:23Z</time>
      </trkpt>
      <trkpt lat="46.17707" lon="5.73647">
        <ele>496.95</ele>
        <time>2022-10-26T13:33:42Z</time>
      </trkpt>
      <trkpt lat="46.17686" lon="5.74127">
        <ele>489.254</ele>
        <time>2022-10-26T13:34:11Z</time>
      </trkpt>
      <trkpt lat="46.17668" lon="5.74198">
        <ele>488.356</ele>
        <time>2022-10-26T13:34:16Z</time>
      </trkpt>
      <trkpt lat="46.17546" lon="5.74397">
        <ele>485.311</ele>
        <time>2022-10-26T13:34:29Z</time>
      </trkpt>
      <trkpt lat="46.17481" lon="5.74552">
        <ele>482.809</ele>
        <time>2022-10-26T13:34:38Z</time>
      </trkpt>
      <trkpt lat="46.17288" lon="5.74662">
        <ele>477.676</ele>
        <time>2022-10-26T13:34:52Z</time>
      </trkpt>
      <trkpt lat="46.17173" lon="5.7478">
        <ele>472.816</ele>
        <time>2022-10-26T13:35:02Z</time>
      </trkpt>
      <trkpt lat="46.17127" lon="5.74906">
        <ele>469.342</ele>
        <time>2022-10-26T13:35:09Z</time>
      </trkpt>
      <trkpt lat="46.17021" lon="5.7507">
        <ele>464.529</ele>
        <time>2022-10-26T13:35:19Z</time>
      </trkpt>
      <trkpt lat="46.16959" lon="5.75291">
        <ele>458.785</ele>
        <time>2022-10-26T13:35:29Z</time>
      </trkpt>
      <trkpt lat="46.16886" lon="5.75451">
        <ele>455.676</ele>
        <time>2022-10-26T13:35:37Z</time>
      </trkpt>
      <trkpt lat="46.16802" lon="5.75751">
        <ele>446.968</ele>
        <time>2022-10-26T13:35:50Z</time>
      </trkpt>
      <trkpt lat="46.16668" lon="5.76045">
        <ele>438.447</ele>
        <time>2022-10-26T13:36:03Z</time>
      </trkpt>
      <trkpt lat="46.16504" lon="5.7624">
        <ele>434.55</ele>
        <time>2022-10-26T13:36:14Z</time>
      </trkpt>
      <trkpt lat="46.16429" lon="5.76373">
        <ele>434.778</ele>
        <time>2022-10-26T13:36:20Z</time>
      </trkpt>
      <trkpt lat="46.16367" lon="5.76697">
        <ele>435.633</ele>
        <time>2022-10-26T13:36:35Z</time>
      </trkpt>
      <trkpt lat="46.16302" lon="5.76874">
        <ele>440.226</ele>
        <time>2022-10-26T13:36:44Z</time>
      </trkpt>
      <trkpt lat="46.16217" lon="5.77212">
        <ele>448.709</ele>
        <time>2022-10-26T13:36:59Z</time>
      </trkpt>
      <trkpt lat="46.16245" lon="5.77514">
        <ele>453.448</ele>
        <time>2022-10-26T13:37:13Z</time>
      </trkpt>
      <trkpt lat="46.1624" lon="5.77734">
        <ele>457.568</ele>
        <time>2022-10-26T13:37:25Z</time>
      </trkpt>
      <trkpt lat="46.1618" lon="5.77857">
        <ele>461.014</ele>
        <time>2022-10-26T13:37:35Z</time>
      </trkpt>
      <trkpt lat="46.16102" lon="5.7791">
        <ele>463.931</ele>
        <time>2022-10-26T13:37:43Z</time>
      </trkpt>
      <trkpt lat="46.15991" lon="5.78168">
        <ele>470.827</ele>
        <time>2022-10-26T13:37:58Z</time>
      </trkpt>
      <trkpt lat="46.15789" lon="5.78499">
        <ele>481.138</ele>
        <time>2022-10-26T13:38:18Z</time>
      </trkpt>
      <trkpt lat="46.15658" lon="5.78615">
        <ele>486.82</ele>
        <time>2022-10-26T13:38:27Z</time>
      </trkpt>
      <trkpt lat="46.15665" lon="5.7867">
        <ele>487.569</ele>
        <time>2022-10-26T13:38:28Z</time>
      </trkpt>
      <trkpt lat="46.15643" lon="5.78655">
        <ele>487.992</ele>
        <time>2022-10-26T13:38:29Z</time>
      </trkpt>
      <trkpt lat="46.15515" lon="5.78916">
        <ele>494.668</ele>
        <time>2022-10-26T13:38:42Z</time>
      </trkpt>
      <trkpt lat="46.15456" lon="5.78962">
        <ele>496.442</ele>
        <time>2022-10-26T13:38:46Z</time>
      </trkpt>
      <trkpt lat="46.15267" lon="5.79018">
        <ele>500.626</ele>
        <time>2022-10-26T13:38:57Z</time>
      </trkpt>
      <trkpt lat="46.14843" lon="5.79373">
        <ele>513.609</ele>
        <time>2022-10-26T13:39:23Z</time>
      </trkpt>
      <trkpt lat="46.14552" lon="5.79511">
        <ele>517.227</ele>
        <time>2022-10-26T13:39:40Z</time>
      </trkpt>
      <trkpt lat="46.14383" lon="5.79629">
        <ele>518.897</ele>
        <time>2022-10-26T13:39:55Z</time>
      </trkpt>
      <trkpt lat="46.14363" lon="5.79682">
        <ele>520.333</ele>
        <time>2022-10-26T13:39:59Z</time>
      </trkpt>
      <trkpt lat="46.14366" lon="5.7984">
        <ele>522.35</ele>
        <time>2022-10-26T13:40:13Z</time>
      </trkpt>
      <trkpt lat="46.14466" lon="5.79915">
        <ele>525.736</ele>
        <time>2022-10-26T13:40:27Z</time>
      </trkpt>
      <trkpt lat="46.14491" lon="5.80018">
        <ele>529.277</ele>
        <time>2022-10-26T13:40:35Z</time>
      </trkpt>
      <trkpt lat="46.14463" lon="5.8012">
        <ele>529.899</ele>
        <time>2022-10-26T13:40:42Z</time>
      </trkpt>
      <trkpt lat="46.14399" lon="5.80208">
        <ele>528.518</ele>
        <time>2022-10-26T13:40:49Z</time>
      </trkpt>
      <trkpt lat="46.14119" lon="5.80351">
        <ele>519.751</ele>
        <time>2022-10-26T13:41:08Z</time>
      </trkpt>
      <trkpt lat="46.13655" lon="5.80455">
        <ele>501.695</ele>
        <time>2022-10-26T13:41:35Z</time>
      </trkpt>
      <trkpt lat="46.13594" lon="5.80408">
        <ele>498.149</ele>
        <time>2022-10-26T13:41:40Z</time>
      </trkpt>
      <trkpt lat="46.13562" lon="5.80245">
        <ele>492.923</ele>
        <time>2022-10-26T13:41:49Z</time>
      </trkpt>
      <trkpt lat="46.13525" lon="5.80241">
        <ele>490.309</ele>
        <time>2022-10-26T13:41:53Z</time>
      </trkpt>
      <trkpt lat="46.13507" lon="5.80392">
        <ele>488.34</ele>
        <time>2022-10-26T13:42:01Z</time>
      </trkpt>
      <trkpt lat="46.13453" lon="5.80569">
        <ele>483.65</ele>
        <time>2022-10-26T13:42:10Z</time>
      </trkpt>
      <trkpt lat="46.13212" lon="5.80692">
        <ele>475.936</ele>
        <time>2022-10-26T13:42:26Z</time>
      </trkpt>
      <trkpt lat="46.13042" lon="5.80977">
        <ele>466.243</ele>
        <time>2022-10-26T13:42:39Z</time>
      </trkpt>
      <trkpt lat="46.12812" lon="5.81162">
        <ele>450.059</ele>
        <time>2022-10-26T13:43:00Z</time>
      </trkpt>
      <trkpt lat="46.12807" lon="5.81214">
        <ele>448.89</ele>
        <time>2022-10-26T13:43:04Z</time>
      </trkpt>
      <trkpt lat="46.12632" lon="5.8152">
        <ele>443.522</ele>
        <time>2022-10-26T13:43:23Z</time>
      </trkpt>
      <trkpt lat="46.12578" lon="5.81702">
        <ele>438.221</ele>
        <time>2022-10-26T13:43:31Z</time>
      </trkpt>
      <trkpt lat="46.12534" lon="5.81771">
        <ele>434.944</ele>
        <time>2022-10-26T13:43:35Z</time>
      </trkpt>
      <trkpt lat="46.1229" lon="5.81881">
        <ele>427.628</ele>
        <time>2022-10-26T13:43:49Z</time>
      </trkpt>
      <trkpt lat="46.1217" lon="5.81886">
        <ele>422.989</ele>
        <time>2022-10-26T13:43:56Z</time>
      </trkpt>
      <trkpt lat="46.12097" lon="5.81943">
        <ele>419.817</ele>
        <time>2022-10-26T13:44:01Z</time>
      </trkpt>
      <trkpt lat="46.12043" lon="5.82052">
        <ele>418.409</ele>
        <time>2022-10-26T13:44:06Z</time>
      </trkpt>
      <trkpt lat="46.1199" lon="5.82291">
        <ele>409.683</ele>
        <time>2022-10-26T13:44:17Z</time>
      </trkpt>
      <trkpt lat="46.11855" lon="5.82321">
        <ele>405.653</ele>
        <time>2022-10-26T13:44:25Z</time>
      </trkpt>
      <trkpt lat="46.11783" lon="5.82268">
        <ele>399.949</ele>
        <time>2022-10-26T13:44:31Z</time>
      </trkpt>
      <trkpt lat="46.11643" lon="5.82232">
        <ele>397.766</ele>
        <time>2022-10-26T13:44:39Z</time>
      </trkpt>
      <trkpt lat="46.11559" lon="5.82247">
        <ele>393.442</ele>
        <time>2022-10-26T13:44:44Z</time>
      </trkpt>
      <trkpt lat="46.1147" lon="5.82324">
        <ele>392.423</ele>
        <time>2022-10-26T13:44:49Z</time>
      </trkpt>
      <trkpt lat="46.11376" lon="5.82482">
        <ele>384.265</ele>
        <time>2022-10-26T13:44:57Z</time>
      </trkpt>
      <trkpt lat="46.11152" lon="5.82762">
        <ele>367.144</ele>
        <time>2022-10-26T13:45:20Z</time>
      </trkpt>
      <trkpt lat="46.11056" lon="5.82826">
        <ele>363.977</ele>
        <time>2022-10-26T13:45:28Z</time>
      </trkpt>
      <trkpt lat="46.10994" lon="5.82784">
        <ele>355.871</ele>
        <time>2022-10-26T13:45:43Z</time>
      </trkpt>
      <trkpt lat="46.10949" lon="5.82803">
        <ele>355.141</ele>
        <time>2022-10-26T13:45:52Z</time>
      </trkpt>
      <trkpt lat="46.10879" lon="5.82723">
        <ele>351.915</ele>
        <time>2022-10-26T13:46:10Z</time>
      </trkpt>
      <trkpt lat="46.10821" lon="5.82552">
        <ele>351.509</ele>
        <time>2022-10-26T13:46:34Z</time>
      </trkpt>
      <trkpt lat="46.10901" lon="5.82493">
        <ele>355.728</ele>
        <time>2022-10-26T13:47:09Z</time>
      </trkpt>
      <trkpt lat="46.10811" lon="5.8237">
        <ele>357.388</ele>
        <time>2022-10-26T13:47:35Z</time>
      </trkpt>
    </trkseg>
  </trk>
  <trk>
    <name><![CDATA[Colombier - Col de la biche]]></name>
    <desc><![CDATA[name=Colombier - Col de la biche
cmt=
desc=
time=2020-09-17T14:00:01Z]]></desc>
    <extensions>
      <line xmlns="http://www.topografix.com/GPX/gpx_style/0/2">
        <color>FF0000</color>
        <width>4</width>
      </line>
    </extensions>
    <trkseg>
      <trkpt lat="45.93717" lon="5.80879">
        <ele>423.591</ele>
        <time>2020-09-17T14:00:01Z</time>
      </trkpt>
      <trkpt lat="45.93618" lon="5.80802">
        <ele>423.581</ele>
        <time>2020-09-17T14:01:58Z</time>
      </trkpt>
      <trkpt lat="45.93537" lon="5.80764">
        <ele>423.519</ele>
        <time>2020-09-17T14:02:07Z</time>
      </trkpt>
      <trkpt lat="45.93487" lon="5.80707">
        <ele>423.508</ele>
        <time>2020-09-17T14:02:15Z</time>
      </trkpt>
      <trkpt lat="45.93427" lon="5.80669">
        <ele>423.524</ele>
        <time>2020-09-17T14:02:26Z</time>
      </trkpt>
      <trkpt lat="45.93373" lon="5.80678">
        <ele>439.575</ele>
        <time>2020-09-17T14:02:33Z</time>
      </trkpt>
      <trkpt lat="45.93311" lon="5.80665">
        <ele>459.558</ele>
        <time>2020-09-17T14:02:40Z</time>
      </trkpt>
      <trkpt lat="45.93246" lon="5.80622">
        <ele>476.963</ele>
        <time>2020-09-17T14:02:48Z</time>
      </trkpt>
      <trkpt lat="45.93194" lon="5.8054">
        <ele>480.915</ele>
        <time>2020-09-17T14:02:57Z</time>
      </trkpt>
      <trkpt lat="45.93165" lon="5.8043">
        <ele>490.061</ele>
        <time>2020-09-17T14:03:27Z</time>
      </trkpt>
      <trkpt lat="45.93143" lon="5.80418">
        <ele>490.962</ele>
        <time>2020-09-17T14:03:31Z</time>
      </trkpt>
      <trkpt lat="45.93096" lon="5.80426">
        <ele>493.191</ele>
        <time>2020-09-17T14:03:38Z</time>
      </trkpt>
      <trkpt lat="45.93041" lon="5.80381">
        <ele>494.815</ele>
        <time>2020-09-17T14:03:45Z</time>
      </trkpt>
      <trkpt lat="45.92931" lon="5.8025">
        <ele>504.765</ele>
        <time>2020-09-17T14:04:01Z</time>
      </trkpt>
      <trkpt lat="45.92936" lon="5.80239">
        <ele>506.511</ele>
        <time>2020-09-17T14:04:05Z</time>
      </trkpt>
      <trkpt lat="45.93015" lon="5.80269">
        <ele>517.108</ele>
        <time>2020-09-17T14:04:14Z</time>
      </trkpt>
      <trkpt lat="45.93077" lon="5.8024">
        <ele>526.166</ele>
        <time>2020-09-17T14:04:22Z</time>
      </trkpt>
      <trkpt lat="45.93081" lon="5.80225">
        <ele>532.297</ele>
        <time>2020-09-17T14:04:28Z</time>
      </trkpt>
      <trkpt lat="45.93022" lon="5.802">
        <ele>546.17</ele>
        <time>2020-09-17T14:04:36Z</time>
      </trkpt>
      <trkpt lat="45.92984" lon="5.80125">
        <ele>550.225</ele>
        <time>2020-09-17T14:04:46Z</time>
      </trkpt>
      <trkpt lat="45.92821" lon="5.80053">
        <ele>559.727</ele>
        <time>2020-09-17T14:05:01Z</time>
      </trkpt>
      <trkpt lat="45.92682" lon="5.79968">
        <ele>565.693</ele>
        <time>2020-09-17T14:05:12Z</time>
      </trkpt>
      <trkpt lat="45.92637" lon="5.79979">
        <ele>569.174</ele>
        <time>2020-09-17T14:05:19Z</time>
      </trkpt>
      <trkpt lat="45.92608" lon="5.79968">
        <ele>573.343</ele>
        <time>2020-09-17T14:05:24Z</time>
      </trkpt>
      <trkpt lat="45.92477" lon="5.79835">
        <ele>580.992</ele>
        <time>2020-09-17T14:05:40Z</time>
      </trkpt>
      <trkpt lat="45.9242" lon="5.79686">
        <ele>597.673</ele>
        <time>2020-09-17T14:06:00Z</time>
      </trkpt>
      <trkpt lat="45.92491" lon="5.79719">
        <ele>616.72</ele>
        <time>2020-09-17T14:06:09Z</time>
      </trkpt>
      <trkpt lat="45.9251" lon="5.7971">
        <ele>626.908</ele>
        <time>2020-09-17T14:06:15Z</time>
      </trkpt>
      <trkpt lat="45.92526" lon="5.79726">
        <ele>633.664</ele>
        <time>2020-09-17T14:06:18Z</time>
      </trkpt>
      <trkpt lat="45.92573" lon="5.7972">
        <ele>646.995</ele>
        <time>2020-09-17T14:06:27Z</time>
      </trkpt>
      <trkpt lat="45.92529" lon="5.79685">
        <ele>659.618</ele>
        <time>2020-09-17T14:06:37Z</time>
      </trkpt>
      <trkpt lat="45.92522" lon="5.79651">
        <ele>664.053</ele>
        <time>2020-09-17T14:06:45Z</time>
      </trkpt>
      <trkpt lat="45.92572" lon="5.7967">
        <ele>673.385</ele>
        <time>2020-09-17T14:06:53Z</time>
      </trkpt>
      <trkpt lat="45.92645" lon="5.79656">
        <ele>681.571</ele>
        <time>2020-09-17T14:07:02Z</time>
      </trkpt>
      <trkpt lat="45.92676" lon="5.79682">
        <ele>687.212</ele>
        <time>2020-09-17T14:07:08Z</time>
      </trkpt>
      <trkpt lat="45.92712" lon="5.79679">
        <ele>692.271</ele>
        <time>2020-09-17T14:07:14Z</time>
      </trkpt>
      <trkpt lat="45.9274" lon="5.79741">
        <ele>707.775</ele>
        <time>2020-09-17T14:07:25Z</time>
      </trkpt>
      <trkpt lat="45.92742" lon="5.79681">
        <ele>726.628</ele>
        <time>2020-09-17T14:07:36Z</time>
      </trkpt>
      <trkpt lat="45.92711" lon="5.79586">
        <ele>739.12</ele>
        <time>2020-09-17T14:07:52Z</time>
      </trkpt>
      <trkpt lat="45.9279" lon="5.79646">
        <ele>763.308</ele>
        <time>2020-09-17T14:08:04Z</time>
      </trkpt>
      <trkpt lat="45.92806" lon="5.79637">
        <ele>773.272</ele>
        <time>2020-09-17T14:08:10Z</time>
      </trkpt>
      <trkpt lat="45.92751" lon="5.79546">
        <ele>790.513</ele>
        <time>2020-09-17T14:08:22Z</time>
      </trkpt>
      <trkpt lat="45.9273" lon="5.79435">
        <ele>797.986</ele>
        <time>2020-09-17T14:08:33Z</time>
      </trkpt>
      <trkpt lat="45.92699" lon="5.79456">
        <ele>801.981</ele>
        <time>2020-09-17T14:08:40Z</time>
      </trkpt>
      <trkpt lat="45.92663" lon="5.79439">
        <ele>804.313</ele>
        <time>2020-09-17T14:08:46Z</time>
      </trkpt>
      <trkpt lat="45.92651" lon="5.79388">
        <ele>811.969</ele>
        <time>2020-09-17T14:08:55Z</time>
      </trkpt>
      <trkpt lat="45.92549" lon="5.7934">
        <ele>834.71</ele>
        <time>2020-09-17T14:09:06Z</time>
      </trkpt>
      <trkpt lat="45.92528" lon="5.79293">
        <ele>848.099</ele>
        <time>2020-09-17T14:09:13Z</time>
      </trkpt>
      <trkpt lat="45.92573" lon="5.79289">
        <ele>856.312</ele>
        <time>2020-09-17T14:09:20Z</time>
      </trkpt>
      <trkpt lat="45.92625" lon="5.79251">
        <ele>863.732</ele>
        <time>2020-09-17T14:09:26Z</time>
      </trkpt>
      <trkpt lat="45.92772" lon="5.79245">
        <ele>885.605</ele>
        <time>2020-09-17T14:09:44Z</time>
      </trkpt>
      <trkpt lat="45.92834" lon="5.79179">
        <ele>891.208</ele>
        <time>2020-09-17T14:09:52Z</time>
      </trkpt>
      <trkpt lat="45.92861" lon="5.79198">
        <ele>893.486</ele>
        <time>2020-09-17T14:09:58Z</time>
      </trkpt>
      <trkpt lat="45.9285" lon="5.79238">
        <ele>896.257</ele>
        <time>2020-09-17T14:10:02Z</time>
      </trkpt>
      <trkpt lat="45.92873" lon="5.79282">
        <ele>903.53</ele>
        <time>2020-09-17T14:10:10Z</time>
      </trkpt>
      <trkpt lat="45.92896" lon="5.79248">
        <ele>908.565</ele>
        <time>2020-09-17T14:10:16Z</time>
      </trkpt>
      <trkpt lat="45.9298" lon="5.79227">
        <ele>913.717</ele>
        <time>2020-09-17T14:10:25Z</time>
      </trkpt>
      <trkpt lat="45.93009" lon="5.7919">
        <ele>918.223</ele>
        <time>2020-09-17T14:10:30Z</time>
      </trkpt>
      <trkpt lat="45.93094" lon="5.79183">
        <ele>927.394</ele>
        <time>2020-09-17T14:10:40Z</time>
      </trkpt>
      <trkpt lat="45.93097" lon="5.79162">
        <ele>929.033</ele>
        <time>2020-09-17T14:10:44Z</time>
      </trkpt>
      <trkpt lat="45.93043" lon="5.79073">
        <ele>935.399</ele>
        <time>2020-09-17T14:10:52Z</time>
      </trkpt>
      <trkpt lat="45.93006" lon="5.78883">
        <ele>955.207</ele>
        <time>2020-09-17T14:11:04Z</time>
      </trkpt>
      <trkpt lat="45.92978" lon="5.7885">
        <ele>959.727</ele>
        <time>2020-09-17T14:11:09Z</time>
      </trkpt>
      <trkpt lat="45.92816" lon="5.78821">
        <ele>971.308</ele>
        <time>2020-09-17T14:11:24Z</time>
      </trkpt>
      <trkpt lat="45.92658" lon="5.78818">
        <ele>982.664</ele>
        <time>2020-09-17T14:11:37Z</time>
      </trkpt>
      <trkpt lat="45.9258" lon="5.78788">
        <ele>989.965</ele>
        <time>2020-09-17T14:11:44Z</time>
      </trkpt>
      <trkpt lat="45.92536" lon="5.78788">
        <ele>993.858</ele>
        <time>2020-09-17T14:11:49Z</time>
      </trkpt>
      <trkpt lat="45.92408" lon="5.78739">
        <ele>999.793</ele>
        <time>2020-09-17T14:12:07Z</time>
      </trkpt>
      <trkpt lat="45.92393" lon="5.78673">
        <ele>1005.285</ele>
        <time>2020-09-17T14:12:14Z</time>
      </trkpt>
      <trkpt lat="45.92368" lon="5.78682">
        <ele>1009.491</ele>
        <time>2020-09-17T14:12:19Z</time>
      </trkpt>
      <trkpt lat="45.9243" lon="5.78626">
        <ele>1021.572</ele>
        <time>2020-09-17T14:12:27Z</time>
      </trkpt>
      <trkpt lat="45.9246" lon="5.78526">
        <ele>1032.931</ele>
        <time>2020-09-17T14:12:37Z</time>
      </trkpt>
      <trkpt lat="45.92487" lon="5.78485">
        <ele>1035.564</ele>
        <time>2020-09-17T14:12:42Z</time>
      </trkpt>
      <trkpt lat="45.92605" lon="5.7843">
        <ele>1045.306</ele>
        <time>2020-09-17T14:13:17Z</time>
      </trkpt>
      <trkpt lat="45.92878" lon="5.78395">
        <ele>1049.816</ele>
        <time>2020-09-17T14:13:46Z</time>
      </trkpt>
      <trkpt lat="45.93008" lon="5.78398">
        <ele>1052.508</ele>
        <time>2020-09-17T14:14:01Z</time>
      </trkpt>
      <trkpt lat="45.93153" lon="5.78362">
        <ele>1055.711</ele>
        <time>2020-09-17T14:14:16Z</time>
      </trkpt>
      <trkpt lat="45.93269" lon="5.78305">
        <ele>1066.362</ele>
        <time>2020-09-17T14:14:25Z</time>
      </trkpt>
      <trkpt lat="45.9335" lon="5.78301">
        <ele>1073.825</ele>
        <time>2020-09-17T14:14:34Z</time>
      </trkpt>
      <trkpt lat="45.93463" lon="5.78254">
        <ele>1080.06</ele>
        <time>2020-09-17T14:14:46Z</time>
      </trkpt>
      <trkpt lat="45.93538" lon="5.78244">
        <ele>1082.522</ele>
        <time>2020-09-17T14:14:53Z</time>
      </trkpt>
      <trkpt lat="45.93681" lon="5.78187">
        <ele>1079.398</ele>
        <time>2020-09-17T14:15:08Z</time>
      </trkpt>
      <trkpt lat="45.93765" lon="5.78067">
        <ele>1085.679</ele>
        <time>2020-09-17T14:15:14Z</time>
      </trkpt>
      <trkpt lat="45.93803" lon="5.78054">
        <ele>1103.718</ele>
        <time>2020-09-17T14:15:23Z</time>
      </trkpt>
      <trkpt lat="45.93722" lon="5.78067">
        <ele>1123.437</ele>
        <time>2020-09-17T14:15:39Z</time>
      </trkpt>
      <trkpt lat="45.93315" lon="5.78017">
        <ele>1152.549</ele>
        <time>2020-09-17T14:16:34Z</time>
      </trkpt>
      <trkpt lat="45.93261" lon="5.77963">
        <ele>1158.113</ele>
        <time>2020-09-17T14:16:47Z</time>
      </trkpt>
      <trkpt lat="45.93173" lon="5.77967">
        <ele>1172.408</ele>
        <time>2020-09-17T14:17:00Z</time>
      </trkpt>
      <trkpt lat="45.93105" lon="5.77906">
        <ele>1190.878</ele>
        <time>2020-09-17T14:17:16Z</time>
      </trkpt>
      <trkpt lat="45.93053" lon="5.77795">
        <ele>1210.019</ele>
        <time>2020-09-17T14:17:33Z</time>
      </trkpt>
      <trkpt lat="45.93004" lon="5.7778">
        <ele>1221.262</ele>
        <time>2020-09-17T14:17:40Z</time>
      </trkpt>
      <trkpt lat="45.92849" lon="5.77666">
        <ele>1261.367</ele>
        <time>2020-09-17T14:17:58Z</time>
      </trkpt>
      <trkpt lat="45.92812" lon="5.77688">
        <ele>1270.999</ele>
        <time>2020-09-17T14:18:04Z</time>
      </trkpt>
      <trkpt lat="45.9279" lon="5.77724">
        <ele>1274.945</ele>
        <time>2020-09-17T14:18:11Z</time>
      </trkpt>
      <trkpt lat="45.92781" lon="5.77672">
        <ele>1276.686</ele>
        <time>2020-09-17T14:18:23Z</time>
      </trkpt>
      <trkpt lat="45.92739" lon="5.77655">
        <ele>1274.835</ele>
        <time>2020-09-17T14:18:29Z</time>
      </trkpt>
      <trkpt lat="45.92688" lon="5.77713">
        <ele>1278.732</ele>
        <time>2020-09-17T14:18:39Z</time>
      </trkpt>
      <trkpt lat="45.92521" lon="5.77717">
        <ele>1277.292</ele>
        <time>2020-09-17T14:19:06Z</time>
      </trkpt>
      <trkpt lat="45.92465" lon="5.77661">
        <ele>1278.411</ele>
        <time>2020-09-17T14:19:16Z</time>
      </trkpt>
      <trkpt lat="45.92421" lon="5.7765">
        <ele>1280.508</ele>
        <time>2020-09-17T14:19:23Z</time>
      </trkpt>
      <trkpt lat="45.9237" lon="5.7759">
        <ele>1286.288</ele>
        <time>2020-09-17T14:20:18Z</time>
      </trkpt>
      <trkpt lat="45.92257" lon="5.77559">
        <ele>1290.629</ele>
        <time>2020-09-17T14:20:33Z</time>
      </trkpt>
      <trkpt lat="45.92199" lon="5.77565">
        <ele>1291.072</ele>
        <time>2020-09-17T14:20:39Z</time>
      </trkpt>
      <trkpt lat="45.92136" lon="5.77609">
        <ele>1292.647</ele>
        <time>2020-09-17T14:20:50Z</time>
      </trkpt>
      <trkpt lat="45.92039" lon="5.7762">
        <ele>1297.799</ele>
        <time>2020-09-17T14:21:05Z</time>
      </trkpt>
      <trkpt lat="45.92004" lon="5.77596">
        <ele>1299.695</ele>
        <time>2020-09-17T14:21:11Z</time>
      </trkpt>
      <trkpt lat="45.91954" lon="5.77504">
        <ele>1301.936</ele>
        <time>2020-09-17T14:21:23Z</time>
      </trkpt>
      <trkpt lat="45.91943" lon="5.77396">
        <ele>1301.935</ele>
        <time>2020-09-17T14:21:35Z</time>
      </trkpt>
      <trkpt lat="45.91887" lon="5.7724">
        <ele>1302.794</ele>
        <time>2020-09-17T14:21:52Z</time>
      </trkpt>
      <trkpt lat="45.91833" lon="5.77203">
        <ele>1304.757</ele>
        <time>2020-09-17T14:21:58Z</time>
      </trkpt>
      <trkpt lat="45.9173" lon="5.77203">
        <ele>1307.322</ele>
        <time>2020-09-17T14:22:09Z</time>
      </trkpt>
      <trkpt lat="45.91695" lon="5.77127">
        <ele>1310.808</ele>
        <time>2020-09-17T14:22:18Z</time>
      </trkpt>
      <trkpt lat="45.91666" lon="5.771">
        <ele>1314.294</ele>
        <time>2020-09-17T14:22:36Z</time>
      </trkpt>
      <trkpt lat="45.91586" lon="5.77127">
        <ele>1315.535</ele>
        <time>2020-09-17T14:22:44Z</time>
      </trkpt>
      <trkpt lat="45.91534" lon="5.77209">
        <ele>1317.668</ele>
        <time>2020-09-17T14:22:54Z</time>
      </trkpt>
      <trkpt lat="45.91469" lon="5.77252">
        <ele>1315.433</ele>
        <time>2020-09-17T14:23:02Z</time>
      </trkpt>
      <trkpt lat="45.91447" lon="5.77248">
        <ele>1315.185</ele>
        <time>2020-09-17T14:23:04Z</time>
      </trkpt>
      <trkpt lat="45.91428" lon="5.77199">
        <ele>1315.521</ele>
        <time>2020-09-17T14:23:11Z</time>
      </trkpt>
      <trkpt lat="45.91385" lon="5.7716">
        <ele>1315.232</ele>
        <time>2020-09-17T14:23:16Z</time>
      </trkpt>
      <trkpt lat="45.91322" lon="5.7716">
        <ele>1315.041</ele>
        <time>2020-09-17T14:23:24Z</time>
      </trkpt>
      <trkpt lat="45.91162" lon="5.77086">
        <ele>1328.183</ele>
        <time>2020-09-17T14:23:39Z</time>
      </trkpt>
      <trkpt lat="45.91053" lon="5.77186">
        <ele>1327.925</ele>
        <time>2020-09-17T14:23:52Z</time>
      </trkpt>
      <trkpt lat="45.91017" lon="5.77195">
        <ele>1327.917</ele>
        <time>2020-09-17T14:23:57Z</time>
      </trkpt>
      <trkpt lat="45.90862" lon="5.77168">
        <ele>1321.508</ele>
        <time>2020-09-17T14:24:13Z</time>
      </trkpt>
      <trkpt lat="45.9071" lon="5.77085">
        <ele>1319.943</ele>
        <time>2020-09-17T14:24:31Z</time>
      </trkpt>
      <trkpt lat="45.90696" lon="5.77091">
        <ele>1319.964</ele>
        <time>2020-09-17T14:24:33Z</time>
      </trkpt>
      <trkpt lat="45.90683" lon="5.77132">
        <ele>1318.977</ele>
        <time>2020-09-17T14:24:37Z</time>
      </trkpt>
      <trkpt lat="45.90727" lon="5.77218">
        <ele>1313.992</ele>
        <time>2020-09-17T14:29:20Z</time>
      </trkpt>
      <trkpt lat="45.90712" lon="5.77247">
        <ele>1310.584</ele>
        <time>2020-09-17T14:29:24Z</time>
      </trkpt>
      <trkpt lat="45.90651" lon="5.77285">
        <ele>1306.39</ele>
        <time>2020-09-17T14:29:31Z</time>
      </trkpt>
      <trkpt lat="45.90582" lon="5.77292">
        <ele>1302.381</ele>
        <time>2020-09-17T14:29:38Z</time>
      </trkpt>
      <trkpt lat="45.90402" lon="5.77347">
        <ele>1294.47</ele>
        <time>2020-09-17T14:29:57Z</time>
      </trkpt>
      <trkpt lat="45.90331" lon="5.77494">
        <ele>1287.877</ele>
        <time>2020-09-17T14:30:12Z</time>
      </trkpt>
      <trkpt lat="45.90335" lon="5.7752">
        <ele>1285.961</ele>
        <time>2020-09-17T14:30:15Z</time>
      </trkpt>
      <trkpt lat="45.90355" lon="5.77531">
        <ele>1282.327</ele>
        <time>2020-09-17T14:30:20Z</time>
      </trkpt>
      <trkpt lat="45.90403" lon="5.77478">
        <ele>1277.008</ele>
        <time>2020-09-17T14:30:26Z</time>
      </trkpt>
      <trkpt lat="45.9047" lon="5.77468">
        <ele>1270.782</ele>
        <time>2020-09-17T14:30:34Z</time>
      </trkpt>
      <trkpt lat="45.90633" lon="5.77547">
        <ele>1259.413</ele>
        <time>2020-09-17T14:30:53Z</time>
      </trkpt>
      <trkpt lat="45.90617" lon="5.77575">
        <ele>1258.196</ele>
        <time>2020-09-17T14:31:04Z</time>
      </trkpt>
      <trkpt lat="45.9052" lon="5.7761">
        <ele>1256.441</ele>
        <time>2020-09-17T14:31:18Z</time>
      </trkpt>
      <trkpt lat="45.90319" lon="5.7763">
        <ele>1251.583</ele>
        <time>2020-09-17T14:31:40Z</time>
      </trkpt>
      <trkpt lat="45.90207" lon="5.77592">
        <ele>1251.979</ele>
        <time>2020-09-17T14:31:50Z</time>
      </trkpt>
      <trkpt lat="45.89936" lon="5.77537">
        <ele>1260.72</ele>
        <time>2020-09-17T14:32:14Z</time>
      </trkpt>
      <trkpt lat="45.89857" lon="5.77495">
        <ele>1274.159</ele>
        <time>2020-09-17T14:32:24Z</time>
      </trkpt>
      <trkpt lat="45.89813" lon="5.77374">
        <ele>1275.142</ele>
        <time>2020-09-17T14:32:46Z</time>
      </trkpt>
      <trkpt lat="45.89752" lon="5.77326">
        <ele>1273.022</ele>
        <time>2020-09-17T14:32:59Z</time>
      </trkpt>
      <trkpt lat="45.89747" lon="5.77227">
        <ele>1268.414</ele>
        <time>2020-09-17T14:33:15Z</time>
      </trkpt>
      <trkpt lat="45.89724" lon="5.77136">
        <ele>1268.908</ele>
        <time>2020-09-17T14:35:47Z</time>
      </trkpt>
      <trkpt lat="45.89678" lon="5.77127">
        <ele>1271.259</ele>
        <time>2020-09-17T14:35:58Z</time>
      </trkpt>
      <trkpt lat="45.89632" lon="5.77068">
        <ele>1271.54</ele>
        <time>2020-09-17T14:36:07Z</time>
      </trkpt>
      <trkpt lat="45.89579" lon="5.77031">
        <ele>1272.833</ele>
        <time>2020-09-17T14:36:18Z</time>
      </trkpt>
      <trkpt lat="45.89453" lon="5.77001">
        <ele>1280.518</ele>
        <time>2020-09-17T14:36:41Z</time>
      </trkpt>
      <trkpt lat="45.89395" lon="5.7692">
        <ele>1286.09</ele>
        <time>2020-09-17T14:36:56Z</time>
      </trkpt>
      <trkpt lat="45.89371" lon="5.76814">
        <ele>1291.536</ele>
        <time>2020-09-17T14:37:28Z</time>
      </trkpt>
      <trkpt lat="45.89321" lon="5.76792">
        <ele>1291.197</ele>
        <time>2020-09-17T14:37:46Z</time>
      </trkpt>
      <trkpt lat="45.8933" lon="5.76746">
        <ele>1293.176</ele>
        <time>2020-09-17T14:38:01Z</time>
      </trkpt>
      <trkpt lat="45.89292" lon="5.76728">
        <ele>1301.518</ele>
        <time>2020-09-17T14:38:08Z</time>
      </trkpt>
      <trkpt lat="45.89223" lon="5.76736">
        <ele>1314.798</ele>
        <time>2020-09-17T14:38:18Z</time>
      </trkpt>
      <trkpt lat="45.89144" lon="5.76698">
        <ele>1320.617</ele>
        <time>2020-09-17T14:38:30Z</time>
      </trkpt>
      <trkpt lat="45.89072" lon="5.76689">
        <ele>1321.308</ele>
        <time>2020-09-17T14:38:56Z</time>
      </trkpt>
      <trkpt lat="45.88602" lon="5.76484">
        <ele>1353.866</ele>
        <time>2020-09-17T14:40:17Z</time>
      </trkpt>
      <trkpt lat="45.88552" lon="5.76404">
        <ele>1357.237</ele>
        <time>2020-09-17T14:40:34Z</time>
      </trkpt>
      <trkpt lat="45.88471" lon="5.76336">
        <ele>1356.93</ele>
        <time>2020-09-17T14:41:01Z</time>
      </trkpt>
      <trkpt lat="45.88576" lon="5.7643">
        <ele>1360.425</ele>
        <time>2020-09-17T14:41:27Z</time>
      </trkpt>
      <trkpt lat="45.88612" lon="5.76491">
        <ele>1359.327</ele>
        <time>2020-09-17T14:41:42Z</time>
      </trkpt>
      <trkpt lat="45.88581" lon="5.76546">
        <ele>1355.543</ele>
        <time>2020-09-17T14:41:54Z</time>
      </trkpt>
      <trkpt lat="45.88541" lon="5.76565">
        <ele>1349.464</ele>
        <time>2020-09-17T14:42:03Z</time>
      </trkpt>
      <trkpt lat="45.88376" lon="5.76537">
        <ele>1351.053</ele>
        <time>2020-09-17T14:42:44Z</time>
      </trkpt>
      <trkpt lat="45.88363" lon="5.76548">
        <ele>1350.889</ele>
        <time>2020-09-17T14:43:13Z</time>
      </trkpt>
      <trkpt lat="45.8831" lon="5.76297">
        <ele>1364.406</ele>
        <time>2020-09-17T14:44:44Z</time>
      </trkpt>
      <trkpt lat="45.88292" lon="5.76277">
        <ele>1368.726</ele>
        <time>2020-09-17T14:44:46Z</time>
      </trkpt>
      <trkpt lat="45.88208" lon="5.76258">
        <ele>1379.308</ele>
        <time>2020-09-17T14:44:54Z</time>
      </trkpt>
      <trkpt lat="45.88204" lon="5.76221">
        <ele>1381.543</ele>
        <time>2020-09-17T14:44:57Z</time>
      </trkpt>
      <trkpt lat="45.88232" lon="5.76188">
        <ele>1383.924</ele>
        <time>2020-09-17T14:45:01Z</time>
      </trkpt>
      <trkpt lat="45.88464" lon="5.76068">
        <ele>1407.127</ele>
        <time>2020-09-17T14:45:15Z</time>
      </trkpt>
      <trkpt lat="45.8857" lon="5.76053">
        <ele>1416.022</ele>
        <time>2020-09-17T14:45:21Z</time>
      </trkpt>
      <trkpt lat="45.88864" lon="5.76106">
        <ele>1423.614</ele>
        <time>2020-09-17T14:45:33Z</time>
      </trkpt>
      <trkpt lat="45.89205" lon="5.76126">
        <ele>1442.98</ele>
        <time>2020-09-17T14:45:46Z</time>
      </trkpt>
      <trkpt lat="45.89477" lon="5.76184">
        <ele>1460.981</ele>
        <time>2020-09-17T14:45:58Z</time>
      </trkpt>
      <trkpt lat="45.89633" lon="5.76199">
        <ele>1465.92</ele>
        <time>2020-09-17T14:46:04Z</time>
      </trkpt>
      <trkpt lat="45.8983" lon="5.76282">
        <ele>1481.469</ele>
        <time>2020-09-17T14:46:12Z</time>
      </trkpt>
      <trkpt lat="45.89969" lon="5.76361">
        <ele>1494.304</ele>
        <time>2020-09-17T14:46:20Z</time>
      </trkpt>
      <trkpt lat="45.90074" lon="5.7632">
        <ele>1503.224</ele>
        <time>2020-09-17T14:46:26Z</time>
      </trkpt>
      <trkpt lat="45.90345" lon="5.76274">
        <ele>1536.408</ele>
        <time>2020-09-17T14:46:43Z</time>
      </trkpt>
      <trkpt lat="45.90369" lon="5.76228">
        <ele>1543.671</ele>
        <time>2020-09-17T14:46:52Z</time>
      </trkpt>
      <trkpt lat="45.90345" lon="5.7616">
        <ele>1542.332</ele>
        <time>2020-09-17T15:23:27Z</time>
      </trkpt>
      <trkpt lat="45.90352" lon="5.76051">
        <ele>1537.375</ele>
        <time>2020-09-17T15:23:33Z</time>
      </trkpt>
      <trkpt lat="45.90381" lon="5.76029">
        <ele>1533.22</ele>
        <time>2020-09-17T15:23:36Z</time>
      </trkpt>
      <trkpt lat="45.9074" lon="5.75973">
        <ele>1492.042</ele>
        <time>2020-09-17T15:23:53Z</time>
      </trkpt>
      <trkpt lat="45.90983" lon="5.76023">
        <ele>1459.588</ele>
        <time>2020-09-17T15:24:09Z</time>
      </trkpt>
      <trkpt lat="45.90981" lon="5.75996">
        <ele>1457.699</ele>
        <time>2020-09-17T15:24:12Z</time>
      </trkpt>
      <trkpt lat="45.90936" lon="5.75961">
        <ele>1455.338</ele>
        <time>2020-09-17T15:24:16Z</time>
      </trkpt>
      <trkpt lat="45.90833" lon="5.75781">
        <ele>1438.322</ele>
        <time>2020-09-17T15:24:25Z</time>
      </trkpt>
      <trkpt lat="45.90803" lon="5.75751">
        <ele>1435.662</ele>
        <time>2020-09-17T15:24:27Z</time>
      </trkpt>
      <trkpt lat="45.90467" lon="5.75629">
        <ele>1409.708</ele>
        <time>2020-09-17T15:24:40Z</time>
      </trkpt>
      <trkpt lat="45.90304" lon="5.7561">
        <ele>1390.108</ele>
        <time>2020-09-17T15:24:48Z</time>
      </trkpt>
      <trkpt lat="45.90089" lon="5.75668">
        <ele>1368.577</ele>
        <time>2020-09-17T15:24:59Z</time>
      </trkpt>
      <trkpt lat="45.89872" lon="5.75699">
        <ele>1340.538</ele>
        <time>2020-09-17T15:25:11Z</time>
      </trkpt>
      <trkpt lat="45.89883" lon="5.75674">
        <ele>1333.761</ele>
        <time>2020-09-17T15:25:15Z</time>
      </trkpt>
      <trkpt lat="45.90044" lon="5.75565">
        <ele>1315.456</ele>
        <time>2020-09-17T15:25:25Z</time>
      </trkpt>
      <trkpt lat="45.90066" lon="5.75522">
        <ele>1312.658</ele>
        <time>2020-09-17T15:25:28Z</time>
      </trkpt>
      <trkpt lat="45.90056" lon="5.75471">
        <ele>1310.194</ele>
        <time>2020-09-17T15:25:31Z</time>
      </trkpt>
      <trkpt lat="45.89843" lon="5.75297">
        <ele>1296.345</ele>
        <time>2020-09-17T15:25:41Z</time>
      </trkpt>
      <trkpt lat="45.89735" lon="5.7523">
        <ele>1290.614</ele>
        <time>2020-09-17T15:25:46Z</time>
      </trkpt>
      <trkpt lat="45.89703" lon="5.75186">
        <ele>1288.091</ele>
        <time>2020-09-17T15:25:50Z</time>
      </trkpt>
      <trkpt lat="45.89867" lon="5.74926">
        <ele>1266.481</ele>
        <time>2020-09-17T15:26:02Z</time>
      </trkpt>
      <trkpt lat="45.90006" lon="5.74842">
        <ele>1260.319</ele>
        <time>2020-09-17T15:26:10Z</time>
      </trkpt>
      <trkpt lat="45.90139" lon="5.74706">
        <ele>1248.708</ele>
        <time>2020-09-17T15:26:19Z</time>
      </trkpt>
      <trkpt lat="45.90296" lon="5.74716">
        <ele>1241.154</ele>
        <time>2020-09-17T15:26:28Z</time>
      </trkpt>
      <trkpt lat="45.90491" lon="5.74675">
        <ele>1230.055</ele>
        <time>2020-09-17T15:26:40Z</time>
      </trkpt>
      <trkpt lat="45.90553" lon="5.74533">
        <ele>1222.878</ele>
        <time>2020-09-17T15:26:50Z</time>
      </trkpt>
      <trkpt lat="45.90571" lon="5.7454">
        <ele>1223.773</ele>
        <time>2020-09-17T15:26:53Z</time>
      </trkpt>
      <trkpt lat="45.90587" lon="5.74623">
        <ele>1222.945</ele>
        <time>2020-09-17T15:26:58Z</time>
      </trkpt>
      <trkpt lat="45.90643" lon="5.7473">
        <ele>1215.241</ele>
        <time>2020-09-17T15:27:03Z</time>
      </trkpt>
      <trkpt lat="45.9074" lon="5.7486">
        <ele>1198.952</ele>
        <time>2020-09-17T15:27:10Z</time>
      </trkpt>
      <trkpt lat="45.90862" lon="5.74945">
        <ele>1185.651</ele>
        <time>2020-09-17T15:27:18Z</time>
      </trkpt>
      <trkpt lat="45.90933" lon="5.75078">
        <ele>1169.874</ele>
        <time>2020-09-17T15:27:32Z</time>
      </trkpt>
      <trkpt lat="45.91247" lon="5.74957">
        <ele>1132.156</ele>
        <time>2020-09-17T15:27:54Z</time>
      </trkpt>
      <trkpt lat="45.91304" lon="5.74994">
        <ele>1122.621</ele>
        <time>2020-09-17T15:27:58Z</time>
      </trkpt>
      <trkpt lat="45.9137" lon="5.75101">
        <ele>1110.808</ele>
        <time>2020-09-17T15:28:04Z</time>
      </trkpt>
      <trkpt lat="45.91455" lon="5.75191">
        <ele>1101.962</ele>
        <time>2020-09-17T15:28:10Z</time>
      </trkpt>
      <trkpt lat="45.91477" lon="5.75196">
        <ele>1100.083</ele>
        <time>2020-09-17T15:28:12Z</time>
      </trkpt>
      <trkpt lat="45.91623" lon="5.75074">
        <ele>1082.516</ele>
        <time>2020-09-17T15:28:21Z</time>
      </trkpt>
      <trkpt lat="45.91676" lon="5.75087">
        <ele>1070.891</ele>
        <time>2020-09-17T15:28:26Z</time>
      </trkpt>
      <trkpt lat="45.91728" lon="5.75147">
        <ele>1065.063</ele>
        <time>2020-09-17T15:28:29Z</time>
      </trkpt>
      <trkpt lat="45.91821" lon="5.75175">
        <ele>1056.759</ele>
        <time>2020-09-17T15:28:34Z</time>
      </trkpt>
      <trkpt lat="45.91952" lon="5.75278">
        <ele>1044.17</ele>
        <time>2020-09-17T15:28:43Z</time>
      </trkpt>
      <trkpt lat="45.92024" lon="5.75254">
        <ele>1039.049</ele>
        <time>2020-09-17T15:28:47Z</time>
      </trkpt>
      <trkpt lat="45.92122" lon="5.75177">
        <ele>1029.718</ele>
        <time>2020-09-17T15:28:53Z</time>
      </trkpt>
      <trkpt lat="45.92271" lon="5.7518">
        <ele>1023.398</ele>
        <time>2020-09-17T15:29:00Z</time>
      </trkpt>
      <trkpt lat="45.9241" lon="5.75305">
        <ele>1018.917</ele>
        <time>2020-09-17T15:29:10Z</time>
      </trkpt>
      <trkpt lat="45.92518" lon="5.75345">
        <ele>1017.608</ele>
        <time>2020-09-17T15:29:17Z</time>
      </trkpt>
      <trkpt lat="45.92604" lon="5.75419">
        <ele>1018.156</ele>
        <time>2020-09-17T15:29:27Z</time>
      </trkpt>
      <trkpt lat="45.92647" lon="5.75421">
        <ele>1025.127</ele>
        <time>2020-09-17T15:29:35Z</time>
      </trkpt>
      <trkpt lat="45.9277" lon="5.7551">
        <ele>1026.86</ele>
        <time>2020-09-17T15:29:45Z</time>
      </trkpt>
      <trkpt lat="45.92835" lon="5.75591">
        <ele>1023.685</ele>
        <time>2020-09-17T15:29:53Z</time>
      </trkpt>
      <trkpt lat="45.92867" lon="5.75527">
        <ele>1019.737</ele>
        <time>2020-09-17T15:29:58Z</time>
      </trkpt>
      <trkpt lat="45.92839" lon="5.75448">
        <ele>1014.933</ele>
        <time>2020-09-17T15:30:03Z</time>
      </trkpt>
      <trkpt lat="45.92826" lon="5.75356">
        <ele>1010.574</ele>
        <time>2020-09-17T15:30:07Z</time>
      </trkpt>
      <trkpt lat="45.92764" lon="5.75222">
        <ele>1006.873</ele>
        <time>2020-09-17T15:30:14Z</time>
      </trkpt>
      <trkpt lat="45.92691" lon="5.75129">
        <ele>1007.624</ele>
        <time>2020-09-17T15:30:19Z</time>
      </trkpt>
      <trkpt lat="45.92559" lon="5.75009">
        <ele>1008.404</ele>
        <time>2020-09-17T15:30:26Z</time>
      </trkpt>
      <trkpt lat="45.92466" lon="5.74968">
        <ele>1007.314</ele>
        <time>2020-09-17T15:30:31Z</time>
      </trkpt>
      <trkpt lat="45.9241" lon="5.74867">
        <ele>1003.708</ele>
        <time>2020-09-17T15:30:37Z</time>
      </trkpt>
      <trkpt lat="45.9235" lon="5.74818">
        <ele>1001.967</ele>
        <time>2020-09-17T15:30:40Z</time>
      </trkpt>
      <trkpt lat="45.92237" lon="5.74778">
        <ele>1001.678</ele>
        <time>2020-09-17T15:30:45Z</time>
      </trkpt>
      <trkpt lat="45.92074" lon="5.74763">
        <ele>1001.471</ele>
        <time>2020-09-17T15:30:53Z</time>
      </trkpt>
      <trkpt lat="45.91958" lon="5.74663">
        <ele>999.766</ele>
        <time>2020-09-17T15:31:02Z</time>
      </trkpt>
      <trkpt lat="45.91966" lon="5.74541">
        <ele>993.598</ele>
        <time>2020-09-17T15:31:11Z</time>
      </trkpt>
      <trkpt lat="45.92061" lon="5.74411">
        <ele>985.994</ele>
        <time>2020-09-17T15:31:41Z</time>
      </trkpt>
      <trkpt lat="45.92185" lon="5.74301">
        <ele>970.555</ele>
        <time>2020-09-17T15:31:49Z</time>
      </trkpt>
      <trkpt lat="45.92296" lon="5.74253">
        <ele>955.584</ele>
        <time>2020-09-17T15:31:56Z</time>
      </trkpt>
      <trkpt lat="45.92447" lon="5.74135">
        <ele>941.547</ele>
        <time>2020-09-17T15:32:09Z</time>
      </trkpt>
      <trkpt lat="45.92554" lon="5.74111">
        <ele>931.829</ele>
        <time>2020-09-17T15:32:19Z</time>
      </trkpt>
      <trkpt lat="45.92716" lon="5.73988">
        <ele>919.621</ele>
        <time>2020-09-17T15:32:28Z</time>
      </trkpt>
      <trkpt lat="45.92988" lon="5.73957">
        <ele>897.008</ele>
        <time>2020-09-17T15:32:42Z</time>
      </trkpt>
      <trkpt lat="45.93111" lon="5.73928">
        <ele>874.339</ele>
        <time>2020-09-17T15:32:53Z</time>
      </trkpt>
      <trkpt lat="45.93177" lon="5.73959">
        <ele>863.02</ele>
        <time>2020-09-17T15:33:05Z</time>
      </trkpt>
      <trkpt lat="45.93534" lon="5.73948">
        <ele>877.423</ele>
        <time>2020-09-17T15:33:43Z</time>
      </trkpt>
      <trkpt lat="45.93628" lon="5.73963">
        <ele>886.078</ele>
        <time>2020-09-17T15:33:52Z</time>
      </trkpt>
      <trkpt lat="45.93715" lon="5.73941">
        <ele>896.05</ele>
        <time>2020-09-17T15:34:05Z</time>
      </trkpt>
      <trkpt lat="45.9389" lon="5.73957">
        <ele>916.346</ele>
        <time>2020-09-17T15:34:37Z</time>
      </trkpt>
      <trkpt lat="45.93957" lon="5.73908">
        <ele>921.477</ele>
        <time>2020-09-17T15:34:45Z</time>
      </trkpt>
      <trkpt lat="45.94063" lon="5.73892">
        <ele>928.526</ele>
        <time>2020-09-17T15:34:56Z</time>
      </trkpt>
      <trkpt lat="45.94232" lon="5.73823">
        <ele>932.933</ele>
        <time>2020-09-17T15:35:13Z</time>
      </trkpt>
      <trkpt lat="45.94327" lon="5.73742">
        <ele>930.323</ele>
        <time>2020-09-17T15:35:24Z</time>
      </trkpt>
      <trkpt lat="45.94405" lon="5.73703">
        <ele>926.015</ele>
        <time>2020-09-17T15:35:33Z</time>
      </trkpt>
      <trkpt lat="45.94439" lon="5.73719">
        <ele>924.208</ele>
        <time>2020-09-17T15:35:41Z</time>
      </trkpt>
      <trkpt lat="45.94514" lon="5.73701">
        <ele>923.288</ele>
        <time>2020-09-17T15:35:48Z</time>
      </trkpt>
      <trkpt lat="45.9456" lon="5.73721">
        <ele>923.189</ele>
        <time>2020-09-17T15:35:52Z</time>
      </trkpt>
      <trkpt lat="45.9471" lon="5.73675">
        <ele>936.852</ele>
        <time>2020-09-17T15:36:01Z</time>
      </trkpt>
      <trkpt lat="45.94783" lon="5.73719">
        <ele>945.657</ele>
        <time>2020-09-17T15:36:06Z</time>
      </trkpt>
      <trkpt lat="45.94961" lon="5.73713">
        <ele>965.689</ele>
        <time>2020-09-17T15:36:16Z</time>
      </trkpt>
      <trkpt lat="45.95015" lon="5.73746">
        <ele>972.745</ele>
        <time>2020-09-17T15:36:20Z</time>
      </trkpt>
      <trkpt lat="45.95073" lon="5.73731">
        <ele>980.016</ele>
        <time>2020-09-17T15:36:25Z</time>
      </trkpt>
      <trkpt lat="45.95122" lon="5.73751">
        <ele>985.895</ele>
        <time>2020-09-17T15:36:28Z</time>
      </trkpt>
      <trkpt lat="45.9536" lon="5.73753">
        <ele>1020.752</ele>
        <time>2020-09-17T15:36:43Z</time>
      </trkpt>
      <trkpt lat="45.95395" lon="5.73769">
        <ele>1026.153</ele>
        <time>2020-09-17T15:36:46Z</time>
      </trkpt>
      <trkpt lat="45.95548" lon="5.73911">
        <ele>1044.708</ele>
        <time>2020-09-17T15:36:56Z</time>
      </trkpt>
      <trkpt lat="45.95603" lon="5.73942">
        <ele>1051.008</ele>
        <time>2020-09-17T15:37:00Z</time>
      </trkpt>
      <trkpt lat="45.95635" lon="5.7402">
        <ele>1056.04</ele>
        <time>2020-09-17T15:37:04Z</time>
      </trkpt>
      <trkpt lat="45.95667" lon="5.74053">
        <ele>1058.041</ele>
        <time>2020-09-17T15:37:06Z</time>
      </trkpt>
      <trkpt lat="45.95756" lon="5.7405">
        <ele>1064.964</ele>
        <time>2020-09-17T15:37:13Z</time>
      </trkpt>
      <trkpt lat="45.95855" lon="5.73986">
        <ele>1084.949</ele>
        <time>2020-09-17T15:37:22Z</time>
      </trkpt>
      <trkpt lat="45.9587" lon="5.74006">
        <ele>1092.571</ele>
        <time>2020-09-17T15:37:26Z</time>
      </trkpt>
      <trkpt lat="45.95863" lon="5.74047">
        <ele>1102.777</ele>
        <time>2020-09-17T15:38:19Z</time>
      </trkpt>
      <trkpt lat="45.95817" lon="5.7407">
        <ele>1110.738</ele>
        <time>2020-09-17T15:38:22Z</time>
      </trkpt>
      <trkpt lat="45.95768" lon="5.7413">
        <ele>1123.617</ele>
        <time>2020-09-17T15:38:29Z</time>
      </trkpt>
      <trkpt lat="45.95605" lon="5.74177">
        <ele>1130.084</ele>
        <time>2020-09-17T15:38:41Z</time>
      </trkpt>
      <trkpt lat="45.95415" lon="5.7413">
        <ele>1145.107</ele>
        <time>2020-09-17T15:38:50Z</time>
      </trkpt>
      <trkpt lat="45.95333" lon="5.74095">
        <ele>1155.717</ele>
        <time>2020-09-17T15:38:56Z</time>
      </trkpt>
      <trkpt lat="45.95282" lon="5.7413">
        <ele>1160.508</ele>
        <time>2020-09-17T15:39:00Z</time>
      </trkpt>
      <trkpt lat="45.95182" lon="5.74156">
        <ele>1168.473</ele>
        <time>2020-09-17T15:39:05Z</time>
      </trkpt>
      <trkpt lat="45.95136" lon="5.74189">
        <ele>1173.024</ele>
        <time>2020-09-17T15:39:08Z</time>
      </trkpt>
      <trkpt lat="45.95081" lon="5.74195">
        <ele>1178.497</ele>
        <time>2020-09-17T15:39:13Z</time>
      </trkpt>
      <trkpt lat="45.95016" lon="5.74235">
        <ele>1183.092</ele>
        <time>2020-09-17T15:39:17Z</time>
      </trkpt>
      <trkpt lat="45.94911" lon="5.7424">
        <ele>1193.954</ele>
        <time>2020-09-17T15:39:23Z</time>
      </trkpt>
      <trkpt lat="45.94759" lon="5.74329">
        <ele>1207.58</ele>
        <time>2020-09-17T15:39:32Z</time>
      </trkpt>
      <trkpt lat="45.94398" lon="5.74497">
        <ele>1249.661</ele>
        <time>2020-09-17T15:39:53Z</time>
      </trkpt>
      <trkpt lat="45.94395" lon="5.74511">
        <ele>1253.49</ele>
        <time>2020-09-17T15:39:55Z</time>
      </trkpt>
      <trkpt lat="45.94411" lon="5.74527">
        <ele>1258.425</ele>
        <time>2020-09-17T15:39:58Z</time>
      </trkpt>
      <trkpt lat="45.94471" lon="5.74482">
        <ele>1261.626</ele>
        <time>2020-09-17T15:40:03Z</time>
      </trkpt>
      <trkpt lat="45.9455" lon="5.74464">
        <ele>1262.108</ele>
        <time>2020-09-17T15:40:07Z</time>
      </trkpt>
      <trkpt lat="45.94634" lon="5.74481">
        <ele>1265.008</ele>
        <time>2020-09-17T15:40:12Z</time>
      </trkpt>
      <trkpt lat="45.94739" lon="5.74476">
        <ele>1269.067</ele>
        <time>2020-09-17T15:40:17Z</time>
      </trkpt>
      <trkpt lat="45.95265" lon="5.74686">
        <ele>1313.018</ele>
        <time>2020-09-17T15:40:45Z</time>
      </trkpt>
      <trkpt lat="45.95272" lon="5.7472">
        <ele>1318.581</ele>
        <time>2020-09-17T15:40:48Z</time>
      </trkpt>
      <trkpt lat="45.95236" lon="5.74773">
        <ele>1327.926</ele>
        <time>2020-09-17T15:40:54Z</time>
      </trkpt>
      <trkpt lat="45.95225" lon="5.74817">
        <ele>1336.268</ele>
        <time>2020-09-17T15:40:59Z</time>
      </trkpt>
      <trkpt lat="45.95256" lon="5.74936">
        <ele>1346.524</ele>
        <time>2020-09-17T15:41:08Z</time>
      </trkpt>
      <trkpt lat="45.95255" lon="5.74984">
        <ele>1348.065</ele>
        <time>2020-09-17T15:41:12Z</time>
      </trkpt>
      <trkpt lat="45.95142" lon="5.75178">
        <ele>1342.924</ele>
        <time>2020-09-17T15:41:28Z</time>
      </trkpt>
      <trkpt lat="45.95092" lon="5.75352">
        <ele>1331.467</ele>
        <time>2020-09-17T15:41:38Z</time>
      </trkpt>
      <trkpt lat="45.95114" lon="5.75374">
        <ele>1328.881</ele>
        <time>2020-09-17T15:41:41Z</time>
      </trkpt>
      <trkpt lat="45.95253" lon="5.75418">
        <ele>1313.919</ele>
        <time>2020-09-17T15:42:01Z</time>
      </trkpt>
      <trkpt lat="45.95295" lon="5.75356">
        <ele>1307.808</ele>
        <time>2020-09-17T15:42:09Z</time>
      </trkpt>
      <trkpt lat="45.95411" lon="5.75292">
        <ele>1304.981</ele>
        <time>2020-09-17T15:42:20Z</time>
      </trkpt>
      <trkpt lat="45.95417" lon="5.75216">
        <ele>1306.162</ele>
        <time>2020-09-17T15:42:32Z</time>
      </trkpt>
      <trkpt lat="45.95466" lon="5.75185">
        <ele>1303.175</ele>
        <time>2020-09-17T15:42:50Z</time>
      </trkpt>
      <trkpt lat="45.95438" lon="5.75177">
        <ele>1301.61</ele>
        <time>2020-09-17T15:43:05Z</time>
      </trkpt>
      <trkpt lat="45.95396" lon="5.75219">
        <ele>1304.692</ele>
        <time>2020-09-17T15:43:14Z</time>
      </trkpt>
      <trkpt lat="45.95209" lon="5.75301">
        <ele>1308.248</ele>
        <time>2020-09-17T15:43:31Z</time>
      </trkpt>
      <trkpt lat="45.9518" lon="5.75332">
        <ele>1309.269</ele>
        <time>2020-09-17T15:43:36Z</time>
      </trkpt>
      <trkpt lat="45.95163" lon="5.75378">
        <ele>1309.348</ele>
        <time>2020-09-17T15:43:45Z</time>
      </trkpt>
      <trkpt lat="45.95241" lon="5.75426">
        <ele>1305.557</ele>
        <time>2020-09-17T15:43:52Z</time>
      </trkpt>
      <trkpt lat="45.95249" lon="5.7546">
        <ele>1302.6</ele>
        <time>2020-09-17T15:43:56Z</time>
      </trkpt>
      <trkpt lat="45.95202" lon="5.75539">
        <ele>1299.22</ele>
        <time>2020-09-17T15:44:01Z</time>
      </trkpt>
      <trkpt lat="45.95115" lon="5.75633">
        <ele>1292.708</ele>
        <time>2020-09-17T15:44:09Z</time>
      </trkpt>
      <trkpt lat="45.95108" lon="5.75676">
        <ele>1289.94</ele>
        <time>2020-09-17T15:44:12Z</time>
      </trkpt>
      <trkpt lat="45.95122" lon="5.75699">
        <ele>1288.671</ele>
        <time>2020-09-17T15:44:15Z</time>
      </trkpt>
      <trkpt lat="45.95179" lon="5.75722">
        <ele>1287.114</ele>
        <time>2020-09-17T15:44:22Z</time>
      </trkpt>
      <trkpt lat="45.95181" lon="5.75753">
        <ele>1286.859</ele>
        <time>2020-09-17T15:44:28Z</time>
      </trkpt>
      <trkpt lat="45.95014" lon="5.75836">
        <ele>1294.211</ele>
        <time>2020-09-17T15:45:00Z</time>
      </trkpt>
      <trkpt lat="45.95058" lon="5.7577">
        <ele>1291.297</ele>
        <time>2020-09-17T15:45:16Z</time>
      </trkpt>
      <trkpt lat="45.95182" lon="5.75721">
        <ele>1284.718</ele>
        <time>2020-09-17T15:45:38Z</time>
      </trkpt>
      <trkpt lat="45.95334" lon="5.75775">
        <ele>1284.037</ele>
        <time>2020-09-17T15:45:49Z</time>
      </trkpt>
      <trkpt lat="45.95354" lon="5.75795">
        <ele>1284.797</ele>
        <time>2020-09-17T15:45:53Z</time>
      </trkpt>
      <trkpt lat="45.95349" lon="5.7581">
        <ele>1285.623</ele>
        <time>2020-09-17T15:45:55Z</time>
      </trkpt>
      <trkpt lat="45.95005" lon="5.75951">
        <ele>1317.225</ele>
        <time>2020-09-17T15:46:12Z</time>
      </trkpt>
      <trkpt lat="45.94771" lon="5.76102">
        <ele>1356.008</ele>
        <time>2020-09-17T15:46:28Z</time>
      </trkpt>
      <trkpt lat="45.94779" lon="5.76131">
        <ele>1364.054</ele>
        <time>2020-09-17T15:46:32Z</time>
      </trkpt>
      <trkpt lat="45.95021" lon="5.76129">
        <ele>1367.695</ele>
        <time>2020-09-17T15:46:44Z</time>
      </trkpt>
      <trkpt lat="45.9509" lon="5.7615">
        <ele>1366.988</ele>
        <time>2020-09-17T15:46:48Z</time>
      </trkpt>
      <trkpt lat="45.95174" lon="5.76241">
        <ele>1365.733</ele>
        <time>2020-09-17T15:46:54Z</time>
      </trkpt>
      <trkpt lat="45.95212" lon="5.76336">
        <ele>1363.045</ele>
        <time>2020-09-17T15:46:58Z</time>
      </trkpt>
      <trkpt lat="45.95223" lon="5.76501">
        <ele>1361.821</ele>
        <time>2020-09-17T15:47:04Z</time>
      </trkpt>
      <trkpt lat="45.95143" lon="5.76745">
        <ele>1366.682</ele>
        <time>2020-09-17T15:47:16Z</time>
      </trkpt>
      <trkpt lat="45.94986" lon="5.76865">
        <ele>1353.571</ele>
        <time>2020-09-17T15:47:41Z</time>
      </trkpt>
      <trkpt lat="45.94996" lon="5.76891">
        <ele>1350.762</ele>
        <time>2020-09-17T15:47:44Z</time>
      </trkpt>
      <trkpt lat="45.95087" lon="5.76903">
        <ele>1341.683</ele>
        <time>2020-09-17T15:47:52Z</time>
      </trkpt>
      <trkpt lat="45.95202" lon="5.7703">
        <ele>1331.811</ele>
        <time>2020-09-17T15:48:01Z</time>
      </trkpt>
      <trkpt lat="45.95245" lon="5.77112">
        <ele>1325.608</ele>
        <time>2020-09-17T15:48:07Z</time>
      </trkpt>
      <trkpt lat="45.95309" lon="5.77141">
        <ele>1319.681</ele>
        <time>2020-09-17T15:48:14Z</time>
      </trkpt>
      <trkpt lat="45.953" lon="5.77174">
        <ele>1316.982</ele>
        <time>2020-09-17T15:48:18Z</time>
      </trkpt>
      <trkpt lat="45.95169" lon="5.77206">
        <ele>1306.775</ele>
        <time>2020-09-17T15:48:40Z</time>
      </trkpt>
      <trkpt lat="45.9515" lon="5.77244">
        <ele>1304.01</ele>
        <time>2020-09-17T15:48:45Z</time>
      </trkpt>
      <trkpt lat="45.95147" lon="5.77343">
        <ele>1301.392</ele>
        <time>2020-09-17T15:48:54Z</time>
      </trkpt>
      <trkpt lat="45.95188" lon="5.77439">
        <ele>1295.428</ele>
        <time>2020-09-17T15:49:32Z</time>
      </trkpt>
      <trkpt lat="45.95174" lon="5.77554">
        <ele>1293.249</ele>
        <time>2020-09-17T15:49:45Z</time>
      </trkpt>
      <trkpt lat="45.95207" lon="5.7766">
        <ele>1284.918</ele>
        <time>2020-09-17T15:50:04Z</time>
      </trkpt>
      <trkpt lat="45.95418" lon="5.77546">
        <ele>1284.256</ele>
        <time>2020-09-17T15:51:23Z</time>
      </trkpt>
      <trkpt lat="45.9549" lon="5.7756">
        <ele>1283.759</ele>
        <time>2020-09-17T15:51:30Z</time>
      </trkpt>
      <trkpt lat="45.95565" lon="5.77515">
        <ele>1285.714</ele>
        <time>2020-09-17T15:51:38Z</time>
      </trkpt>
      <trkpt lat="45.95703" lon="5.77483">
        <ele>1288.108</ele>
        <time>2020-09-17T15:51:50Z</time>
      </trkpt>
      <trkpt lat="45.95718" lon="5.77427">
        <ele>1289.12</ele>
        <time>2020-09-17T15:51:58Z</time>
      </trkpt>
      <trkpt lat="45.95687" lon="5.77312">
        <ele>1285.951</ele>
        <time>2020-09-17T15:52:07Z</time>
      </trkpt>
      <trkpt lat="45.95695" lon="5.77281">
        <ele>1284.854</ele>
        <time>2020-09-17T15:52:11Z</time>
      </trkpt>
      <trkpt lat="45.95838" lon="5.77148">
        <ele>1281.159</ele>
        <time>2020-09-17T15:52:25Z</time>
      </trkpt>
      <trkpt lat="45.95883" lon="5.77133">
        <ele>1281.851</ele>
        <time>2020-09-17T15:52:31Z</time>
      </trkpt>
      <trkpt lat="45.95917" lon="5.771">
        <ele>1283.937</ele>
        <time>2020-09-17T15:52:35Z</time>
      </trkpt>
      <trkpt lat="45.95981" lon="5.76936">
        <ele>1287.328</ele>
        <time>2020-09-17T15:52:48Z</time>
      </trkpt>
      <trkpt lat="45.96025" lon="5.76875">
        <ele>1286.397</ele>
        <time>2020-09-17T15:52:56Z</time>
      </trkpt>
      <trkpt lat="45.96074" lon="5.76847">
        <ele>1283.479</ele>
        <time>2020-09-17T15:53:02Z</time>
      </trkpt>
      <trkpt lat="45.96124" lon="5.7676">
        <ele>1284.305</ele>
        <time>2020-09-17T15:53:11Z</time>
      </trkpt>
      <trkpt lat="45.96256" lon="5.76805">
        <ele>1275.725</ele>
        <time>2020-09-17T15:53:24Z</time>
      </trkpt>
      <trkpt lat="45.96333" lon="5.76881">
        <ele>1268.308</ele>
        <time>2020-09-17T15:53:35Z</time>
      </trkpt>
      <trkpt lat="45.96424" lon="5.76901">
        <ele>1259.252</ele>
        <time>2020-09-17T15:53:46Z</time>
      </trkpt>
      <trkpt lat="45.96461" lon="5.76928">
        <ele>1256.273</ele>
        <time>2020-09-17T15:53:51Z</time>
      </trkpt>
      <trkpt lat="45.96523" lon="5.76919">
        <ele>1252.196</ele>
        <time>2020-09-17T15:53:58Z</time>
      </trkpt>
      <trkpt lat="45.96562" lon="5.7693">
        <ele>1249.241</ele>
        <time>2020-09-17T15:54:03Z</time>
      </trkpt>
      <trkpt lat="45.96573" lon="5.76967">
        <ele>1247.593</ele>
        <time>2020-09-17T15:54:08Z</time>
      </trkpt>
      <trkpt lat="45.96551" lon="5.77048">
        <ele>1243.829</ele>
        <time>2020-09-17T15:54:18Z</time>
      </trkpt>
      <trkpt lat="45.96587" lon="5.77068">
        <ele>1239.18</ele>
        <time>2020-09-17T15:54:23Z</time>
      </trkpt>
      <trkpt lat="45.96692" lon="5.77221">
        <ele>1223.649</ele>
        <time>2020-09-17T15:54:39Z</time>
      </trkpt>
      <trkpt lat="45.96715" lon="5.77305">
        <ele>1219.091</ele>
        <time>2020-09-17T15:55:11Z</time>
      </trkpt>
      <trkpt lat="45.96747" lon="5.77253">
        <ele>1214.181</ele>
        <time>2020-09-17T15:55:33Z</time>
      </trkpt>
      <trkpt lat="45.96807" lon="5.77232">
        <ele>1204.319</ele>
        <time>2020-09-17T15:55:57Z</time>
      </trkpt>
      <trkpt lat="45.96862" lon="5.77315">
        <ele>1183.208</ele>
        <time>2020-09-17T15:56:27Z</time>
      </trkpt>
      <trkpt lat="45.96914" lon="5.77329">
        <ele>1162.684</ele>
        <time>2020-09-17T15:56:41Z</time>
      </trkpt>
      <trkpt lat="45.96961" lon="5.77271">
        <ele>1156.655</ele>
        <time>2020-09-17T15:57:03Z</time>
      </trkpt>
      <trkpt lat="45.96941" lon="5.77132">
        <ele>1141.568</ele>
        <time>2020-09-17T15:57:32Z</time>
      </trkpt>
      <trkpt lat="45.96905" lon="5.77018">
        <ele>1142.753</ele>
        <time>2020-09-17T15:57:51Z</time>
      </trkpt>
      <trkpt lat="45.96782" lon="5.76825">
        <ele>1128.795</ele>
        <time>2020-09-17T15:58:25Z</time>
      </trkpt>
      <trkpt lat="45.96797" lon="5.76807">
        <ele>1127.451</ele>
        <time>2020-09-17T15:58:30Z</time>
      </trkpt>
      <trkpt lat="45.96822" lon="5.76808">
        <ele>1125.282</ele>
        <time>2020-09-17T15:58:34Z</time>
      </trkpt>
      <trkpt lat="45.9696" lon="5.76912">
        <ele>1134.181</ele>
        <time>2020-09-17T15:59:02Z</time>
      </trkpt>
      <trkpt lat="45.97007" lon="5.7688">
        <ele>1136.152</ele>
        <time>2020-09-17T15:59:09Z</time>
      </trkpt>
      <trkpt lat="45.97057" lon="5.76907">
        <ele>1136.153</ele>
        <time>2020-09-17T15:59:15Z</time>
      </trkpt>
      <trkpt lat="45.97117" lon="5.76981">
        <ele>1137.208</ele>
        <time>2020-09-17T15:59:22Z</time>
      </trkpt>
      <trkpt lat="45.97155" lon="5.77071">
        <ele>1136.108</ele>
        <time>2020-09-17T15:59:28Z</time>
      </trkpt>
      <trkpt lat="45.97297" lon="5.77223">
        <ele>1130.93</ele>
        <time>2020-09-17T15:59:45Z</time>
      </trkpt>
      <trkpt lat="45.97332" lon="5.77279">
        <ele>1130.741</ele>
        <time>2020-09-17T15:59:50Z</time>
      </trkpt>
      <trkpt lat="45.97388" lon="5.77311">
        <ele>1128.614</ele>
        <time>2020-09-17T15:59:57Z</time>
      </trkpt>
      <trkpt lat="45.97406" lon="5.77308">
        <ele>1129.099</ele>
        <time>2020-09-17T16:00:00Z</time>
      </trkpt>
      <trkpt lat="45.97501" lon="5.77207">
        <ele>1130.591</ele>
        <time>2020-09-17T16:00:22Z</time>
      </trkpt>
      <trkpt lat="45.9754" lon="5.77274">
        <ele>1128.547</ele>
        <time>2020-09-17T16:00:31Z</time>
      </trkpt>
      <trkpt lat="45.97647" lon="5.7733">
        <ele>1118.828</ele>
        <time>2020-09-17T16:00:45Z</time>
      </trkpt>
      <trkpt lat="45.97829" lon="5.7728">
        <ele>1105.787</ele>
        <time>2020-09-17T16:01:09Z</time>
      </trkpt>
      <trkpt lat="45.97889" lon="5.77296">
        <ele>1096.286</ele>
        <time>2020-09-17T16:01:17Z</time>
      </trkpt>
      <trkpt lat="45.97916" lon="5.77329">
        <ele>1094.06</ele>
        <time>2020-09-17T16:01:24Z</time>
      </trkpt>
      <trkpt lat="45.98003" lon="5.77315">
        <ele>1084.826</ele>
        <time>2020-09-17T16:01:38Z</time>
      </trkpt>
      <trkpt lat="45.98048" lon="5.77369">
        <ele>1079.608</ele>
        <time>2020-09-17T16:01:47Z</time>
      </trkpt>
      <trkpt lat="45.98112" lon="5.77383">
        <ele>1072.783</ele>
        <time>2020-09-17T16:01:55Z</time>
      </trkpt>
      <trkpt lat="45.98222" lon="5.77338">
        <ele>1060.944</ele>
        <time>2020-09-17T16:02:10Z</time>
      </trkpt>
      <trkpt lat="45.9832" lon="5.7738">
        <ele>1047.317</ele>
        <time>2020-09-17T16:02:23Z</time>
      </trkpt>
      <trkpt lat="45.98397" lon="5.77357">
        <ele>1035.242</ele>
        <time>2020-09-17T16:02:37Z</time>
      </trkpt>
      <trkpt lat="45.98382" lon="5.77475">
        <ele>1027.984</ele>
        <time>2020-09-17T16:02:50Z</time>
      </trkpt>
      <trkpt lat="45.98335" lon="5.7756">
        <ele>1019.99</ele>
        <time>2020-09-17T16:03:01Z</time>
      </trkpt>
      <trkpt lat="45.9825" lon="5.77834">
        <ele>1000.741</ele>
        <time>2020-09-17T16:03:29Z</time>
      </trkpt>
      <trkpt lat="45.98172" lon="5.77957">
        <ele>987.44</ele>
        <time>2020-09-17T16:03:46Z</time>
      </trkpt>
      <trkpt lat="45.98181" lon="5.77969">
        <ele>985.523</ele>
        <time>2020-09-17T16:03:51Z</time>
      </trkpt>
      <trkpt lat="45.98207" lon="5.77955">
        <ele>982.583</ele>
        <time>2020-09-17T16:03:56Z</time>
      </trkpt>
      <trkpt lat="45.9826" lon="5.77958">
        <ele>972.911</ele>
        <time>2020-09-17T16:04:06Z</time>
      </trkpt>
      <trkpt lat="45.98311" lon="5.77932">
        <ele>969.008</ele>
        <time>2020-09-17T16:04:14Z</time>
      </trkpt>
      <trkpt lat="45.98413" lon="5.77837">
        <ele>960.637</ele>
        <time>2020-09-17T16:04:28Z</time>
      </trkpt>
      <trkpt lat="45.98468" lon="5.77811">
        <ele>954.638</ele>
        <time>2020-09-17T16:04:35Z</time>
      </trkpt>
      <trkpt lat="45.98516" lon="5.77815">
        <ele>946.161</ele>
        <time>2020-09-17T16:04:42Z</time>
      </trkpt>
      <trkpt lat="45.98555" lon="5.77784">
        <ele>942.126</ele>
        <time>2020-09-17T16:04:48Z</time>
      </trkpt>
      <trkpt lat="45.98564" lon="5.77802">
        <ele>938.368</ele>
        <time>2020-09-17T16:04:52Z</time>
      </trkpt>
      <trkpt lat="45.98528" lon="5.77894">
        <ele>931.384</ele>
        <time>2020-09-17T16:05:04Z</time>
      </trkpt>
      <trkpt lat="45.98469" lon="5.77964">
        <ele>924.655</ele>
        <time>2020-09-17T16:05:14Z</time>
      </trkpt>
      <trkpt lat="45.98375" lon="5.78213">
        <ele>905.834</ele>
        <time>2020-09-17T16:05:43Z</time>
      </trkpt>
      <trkpt lat="45.98271" lon="5.78337">
        <ele>887.979</ele>
        <time>2020-09-17T16:06:02Z</time>
      </trkpt>
      <trkpt lat="45.98284" lon="5.7835">
        <ele>883.705</ele>
        <time>2020-09-17T16:06:06Z</time>
      </trkpt>
      <trkpt lat="45.98475" lon="5.78302">
        <ele>859.625</ele>
        <time>2020-09-17T16:06:31Z</time>
      </trkpt>
      <trkpt lat="45.98486" lon="5.78329">
        <ele>853.408</ele>
        <time>2020-09-17T16:06:37Z</time>
      </trkpt>
      <trkpt lat="45.98462" lon="5.78378">
        <ele>849.322</ele>
        <time>2020-09-17T16:06:44Z</time>
      </trkpt>
      <trkpt lat="45.98416" lon="5.78406">
        <ele>841.923</ele>
        <time>2020-09-17T16:06:50Z</time>
      </trkpt>
      <trkpt lat="45.98257" lon="5.78571">
        <ele>823.496</ele>
        <time>2020-09-17T16:07:18Z</time>
      </trkpt>
      <trkpt lat="45.98253" lon="5.786">
        <ele>817.781</ele>
        <time>2020-09-17T16:07:24Z</time>
      </trkpt>
      <trkpt lat="45.98373" lon="5.78593">
        <ele>794.593</ele>
        <time>2020-09-17T16:07:38Z</time>
      </trkpt>
      <trkpt lat="45.98484" lon="5.78549">
        <ele>786.969</ele>
        <time>2020-09-17T16:07:49Z</time>
      </trkpt>
      <trkpt lat="45.98594" lon="5.78531">
        <ele>775.38</ele>
        <time>2020-09-17T16:08:01Z</time>
      </trkpt>
      <trkpt lat="45.98642" lon="5.78485">
        <ele>771.679</ele>
        <time>2020-09-17T16:08:09Z</time>
      </trkpt>
      <trkpt lat="45.98744" lon="5.78437">
        <ele>763.658</ele>
        <time>2020-09-17T16:08:19Z</time>
      </trkpt>
      <trkpt lat="45.98844" lon="5.78344">
        <ele>758.852</ele>
        <time>2020-09-17T16:08:32Z</time>
      </trkpt>
      <trkpt lat="45.98968" lon="5.78302">
        <ele>742.317</ele>
        <time>2020-09-17T16:08:45Z</time>
      </trkpt>
      <trkpt lat="45.99021" lon="5.78235">
        <ele>734.408</ele>
        <time>2020-09-17T16:08:56Z</time>
      </trkpt>
      <trkpt lat="45.99027" lon="5.78253">
        <ele>728.96</ele>
        <time>2020-09-17T16:09:15Z</time>
      </trkpt>
      <trkpt lat="45.98922" lon="5.7843">
        <ele>718.031</ele>
        <time>2020-09-17T16:09:42Z</time>
      </trkpt>
      <trkpt lat="45.98687" lon="5.78774">
        <ele>706.394</ele>
        <time>2020-09-17T16:10:05Z</time>
      </trkpt>
      <trkpt lat="45.98568" lon="5.79028">
        <ele>690.279</ele>
        <time>2020-09-17T16:10:27Z</time>
      </trkpt>
      <trkpt lat="45.98409" lon="5.79115">
        <ele>669.721</ele>
        <time>2020-09-17T16:11:00Z</time>
      </trkpt>
      <trkpt lat="45.98295" lon="5.79369">
        <ele>659.367</ele>
        <time>2020-09-17T16:11:14Z</time>
      </trkpt>
      <trkpt lat="45.98175" lon="5.79531">
        <ele>649.158</ele>
        <time>2020-09-17T16:11:25Z</time>
      </trkpt>
      <trkpt lat="45.98176" lon="5.79651">
        <ele>630.067</ele>
        <time>2020-09-17T16:11:55Z</time>
      </trkpt>
      <trkpt lat="45.98298" lon="5.79651">
        <ele>618.299</ele>
        <time>2020-09-17T16:12:16Z</time>
      </trkpt>
      <trkpt lat="45.98412" lon="5.79598">
        <ele>599.107</ele>
        <time>2020-09-17T16:12:35Z</time>
      </trkpt>
      <trkpt lat="45.98472" lon="5.79513">
        <ele>583.927</ele>
        <time>2020-09-17T16:15:02Z</time>
      </trkpt>
      <trkpt lat="45.98526" lon="5.79529">
        <ele>577.408</ele>
        <time>2020-09-17T16:15:16Z</time>
      </trkpt>
      <trkpt lat="45.9855" lon="5.79577">
        <ele>555.294</ele>
        <time>2020-09-17T16:15:39Z</time>
      </trkpt>
      <trkpt lat="45.9865" lon="5.79488">
        <ele>551.165</ele>
        <time>2020-09-17T16:15:46Z</time>
      </trkpt>
      <trkpt lat="45.98674" lon="5.79495">
        <ele>538.738</ele>
        <time>2020-09-17T16:15:57Z</time>
      </trkpt>
      <trkpt lat="45.98704" lon="5.79537">
        <ele>527.773</ele>
        <time>2020-09-17T16:16:04Z</time>
      </trkpt>
      <trkpt lat="45.98674" lon="5.79596">
        <ele>510.165</ele>
        <time>2020-09-17T16:16:14Z</time>
      </trkpt>
      <trkpt lat="45.98698" lon="5.79653">
        <ele>500.721</ele>
        <time>2020-09-17T16:16:26Z</time>
      </trkpt>
      <trkpt lat="45.98713" lon="5.79658">
        <ele>495.822</ele>
        <time>2020-09-17T16:16:37Z</time>
      </trkpt>
      <trkpt lat="45.98711" lon="5.79671">
        <ele>492.111</ele>
        <time>2020-09-17T16:16:59Z</time>
      </trkpt>
      <trkpt lat="45.98718" lon="5.79675">
        <ele>492.193</ele>
        <time>2020-09-17T16:17:12Z</time>
      </trkpt>
      <trkpt lat="45.98706" lon="5.79676">
        <ele>492.165</ele>
        <time>2020-09-17T16:17:16Z</time>
      </trkpt>
      <trkpt lat="45.9872" lon="5.79662">
        <ele>476.121</ele>
        <time>2020-09-17T16:17:28Z</time>
      </trkpt>
      <trkpt lat="45.98724" lon="5.79668">
        <ele>456.108</ele>
        <time>2020-09-17T16:17:35Z</time>
      </trkpt>
      <trkpt lat="45.98736" lon="5.79672">
        <ele>448.984</ele>
        <time>2020-09-17T16:17:51Z</time>
      </trkpt>
      <trkpt lat="45.98654" lon="5.79738">
        <ele>448.965</ele>
        <time>2020-09-17T16:17:56Z</time>
      </trkpt>
      <trkpt lat="45.98509" lon="5.79812">
        <ele>448.978</ele>
        <time>2020-09-17T16:18:04Z</time>
      </trkpt>
      <trkpt lat="45.98476" lon="5.79898">
        <ele>446.253</ele>
        <time>2020-09-17T16:18:08Z</time>
      </trkpt>
      <trkpt lat="45.98379" lon="5.80058">
        <ele>445.535</ele>
        <time>2020-09-17T16:18:16Z</time>
      </trkpt>
      <trkpt lat="45.98266" lon="5.80111">
        <ele>445.521</ele>
        <time>2020-09-17T16:18:23Z</time>
      </trkpt>
      <trkpt lat="45.98209" lon="5.80164">
        <ele>445.582</ele>
        <time>2020-09-17T16:18:26Z</time>
      </trkpt>
      <trkpt lat="45.98122" lon="5.80173">
        <ele>445.521</ele>
        <time>2020-09-17T16:18:32Z</time>
      </trkpt>
      <trkpt lat="45.98094" lon="5.80195">
        <ele>445.537</ele>
        <time>2020-09-17T16:18:34Z</time>
      </trkpt>
      <trkpt lat="45.98071" lon="5.8028">
        <ele>445.549</ele>
        <time>2020-09-17T16:18:38Z</time>
      </trkpt>
      <trkpt lat="45.98083" lon="5.80378">
        <ele>445.513</ele>
        <time>2020-09-17T16:18:41Z</time>
      </trkpt>
      <trkpt lat="45.98145" lon="5.80505">
        <ele>445.508</ele>
        <time>2020-09-17T16:18:46Z</time>
      </trkpt>
      <trkpt lat="45.98113" lon="5.80558">
        <ele>445.598</ele>
        <time>2020-09-17T16:18:52Z</time>
      </trkpt>
      <trkpt lat="45.97948" lon="5.8066">
        <ele>445.569</ele>
        <time>2020-09-17T16:19:00Z</time>
      </trkpt>
      <trkpt lat="45.9766" lon="5.80742">
        <ele>433.582</ele>
        <time>2020-09-17T16:19:11Z</time>
      </trkpt>
      <trkpt lat="45.97544" lon="5.80754">
        <ele>426.747</ele>
        <time>2020-09-17T16:19:16Z</time>
      </trkpt>
      <trkpt lat="45.97316" lon="5.80853">
        <ele>425.199</ele>
        <time>2020-09-17T16:19:25Z</time>
      </trkpt>
      <trkpt lat="45.97169" lon="5.80869">
        <ele>423.385</ele>
        <time>2020-09-17T16:19:35Z</time>
      </trkpt>
      <trkpt lat="45.97071" lon="5.80967">
        <ele>431.586</ele>
        <time>2020-09-17T16:19:44Z</time>
      </trkpt>
      <trkpt lat="45.97029" lon="5.80989">
        <ele>430.115</ele>
        <time>2020-09-17T16:19:48Z</time>
      </trkpt>
      <trkpt lat="45.96896" lon="5.81006">
        <ele>429.355</ele>
        <time>2020-09-17T16:20:00Z</time>
      </trkpt>
      <trkpt lat="45.96775" lon="5.80975">
        <ele>429.307</ele>
        <time>2020-09-17T16:20:11Z</time>
      </trkpt>
      <trkpt lat="45.96656" lon="5.81033">
        <ele>429.317</ele>
        <time>2020-09-17T16:20:22Z</time>
      </trkpt>
      <trkpt lat="45.96597" lon="5.81196">
        <ele>400.008</ele>
        <time>2020-09-17T16:20:35Z</time>
      </trkpt>
      <trkpt lat="45.96482" lon="5.81295">
        <ele>380.06</ele>
        <time>2020-09-17T16:20:44Z</time>
      </trkpt>
      <trkpt lat="45.96462" lon="5.81343">
        <ele>372.071</ele>
        <time>2020-09-17T16:20:47Z</time>
      </trkpt>
      <trkpt lat="45.96424" lon="5.81518">
        <ele>348.074</ele>
        <time>2020-09-17T16:20:55Z</time>
      </trkpt>
      <trkpt lat="45.96479" lon="5.81616">
        <ele>320.079</ele>
        <time>2020-09-17T16:21:06Z</time>
      </trkpt>
    </trkseg>
  </trk>
  <trk>
    <name><![CDATA[Cormaranche-en-Bugey]]></name>
    <desc><![CDATA[name=Cormaranche-en-Bugey
cmt=
desc=
time=2019-04-27T14:12:58Z]]></desc>
    <extensions>
      <line xmlns="http://www.topografix.com/GPX/gpx_style/0/2">
        <color>00FFFF</color>
        <width>4</width>
      </line>
    </extensions>
    <trkseg>
      <trkpt lat="45.95585" lon="5.60297">
        <ele>808.758</ele>
        <time>2019-04-27T14:12:58Z</time>
      </trkpt>
      <trkpt lat="45.95605" lon="5.60286">
        <ele>809.252</ele>
        <time>2019-04-27T14:13:29Z</time>
      </trkpt>
      <trkpt lat="45.95614" lon="5.60335">
        <ele>807.317</ele>
        <time>2019-04-27T14:13:58Z</time>
      </trkpt>
      <trkpt lat="45.95591" lon="5.60353">
        <ele>809.508</ele>
        <time>2019-04-27T14:14:13Z</time>
      </trkpt>
      <trkpt lat="45.95602" lon="5.60309">
        <ele>809.478</ele>
        <time>2019-04-27T14:14:19Z</time>
      </trkpt>
      <trkpt lat="45.95646" lon="5.60297">
        <ele>809.44</ele>
        <time>2019-04-27T14:15:48Z</time>
      </trkpt>
      <trkpt lat="45.95474" lon="5.60466">
        <ele>816.732</ele>
        <time>2019-04-27T14:16:08Z</time>
      </trkpt>
      <trkpt lat="45.95191" lon="5.60915">
        <ele>833.159</ele>
        <time>2019-04-27T14:16:37Z</time>
      </trkpt>
      <trkpt lat="45.95111" lon="5.60892">
        <ele>834.765</ele>
        <time>2019-04-27T14:16:45Z</time>
      </trkpt>
      <trkpt lat="45.95061" lon="5.608">
        <ele>828.122</ele>
        <time>2019-04-27T14:16:54Z</time>
      </trkpt>
      <trkpt lat="45.94782" lon="5.60595">
        <ele>814.197</ele>
        <time>2019-04-27T14:17:14Z</time>
      </trkpt>
      <trkpt lat="45.94639" lon="5.60556">
        <ele>808.086</ele>
        <time>2019-04-27T14:17:26Z</time>
      </trkpt>
      <trkpt lat="45.94649" lon="5.60409">
        <ele>801.357</ele>
        <time>2019-04-27T14:17:34Z</time>
      </trkpt>
      <trkpt lat="45.94561" lon="5.6038">
        <ele>799.6</ele>
        <time>2019-04-27T14:17:43Z</time>
      </trkpt>
      <trkpt lat="45.94536" lon="5.60223">
        <ele>800.92</ele>
        <time>2019-04-27T14:17:53Z</time>
      </trkpt>
      <trkpt lat="45.94437" lon="5.60342">
        <ele>803.808</ele>
        <time>2019-04-27T14:22:00Z</time>
      </trkpt>
      <trkpt lat="45.94361" lon="5.60582">
        <ele>795.918</ele>
        <time>2019-04-27T14:22:14Z</time>
      </trkpt>
      <trkpt lat="45.94371" lon="5.60624">
        <ele>792.88</ele>
        <time>2019-04-27T14:22:18Z</time>
      </trkpt>
      <trkpt lat="45.94323" lon="5.60634">
        <ele>789.422</ele>
        <time>2019-04-27T14:22:24Z</time>
      </trkpt>
      <trkpt lat="45.94271" lon="5.60573">
        <ele>787.279</ele>
        <time>2019-04-27T14:22:28Z</time>
      </trkpt>
      <trkpt lat="45.94188" lon="5.60305">
        <ele>780.615</ele>
        <time>2019-04-27T14:22:39Z</time>
      </trkpt>
      <trkpt lat="45.93949" lon="5.60027">
        <ele>775.432</ele>
        <time>2019-04-27T14:22:59Z</time>
      </trkpt>
      <trkpt lat="45.93877" lon="5.59802">
        <ele>777.557</ele>
        <time>2019-04-27T14:23:11Z</time>
      </trkpt>
      <trkpt lat="45.93888" lon="5.59669">
        <ele>779.496</ele>
        <time>2019-04-27T14:23:18Z</time>
      </trkpt>
      <trkpt lat="45.9385" lon="5.59601">
        <ele>781.744</ele>
        <time>2019-04-27T14:23:23Z</time>
      </trkpt>
      <trkpt lat="45.93921" lon="5.59427">
        <ele>788.905</ele>
        <time>2019-04-27T14:23:40Z</time>
      </trkpt>
      <trkpt lat="45.94038" lon="5.59396">
        <ele>786.715</ele>
        <time>2019-04-27T14:23:54Z</time>
      </trkpt>
      <trkpt lat="45.94064" lon="5.59261">
        <ele>793.208</ele>
        <time>2019-04-27T14:24:04Z</time>
      </trkpt>
      <trkpt lat="45.94175" lon="5.59135">
        <ele>808.527</ele>
        <time>2019-04-27T14:24:15Z</time>
      </trkpt>
      <trkpt lat="45.94302" lon="5.59065">
        <ele>824.939</ele>
        <time>2019-04-27T14:24:25Z</time>
      </trkpt>
      <trkpt lat="45.94694" lon="5.58976">
        <ele>822.211</ele>
        <time>2019-04-27T14:24:51Z</time>
      </trkpt>
      <trkpt lat="45.94752" lon="5.58912">
        <ele>814.168</ele>
        <time>2019-04-27T14:25:00Z</time>
      </trkpt>
      <trkpt lat="45.95323" lon="5.5879">
        <ele>799.354</ele>
        <time>2019-04-27T14:25:48Z</time>
      </trkpt>
      <trkpt lat="45.95594" lon="5.58622">
        <ele>788.571</ele>
        <time>2019-04-27T14:26:20Z</time>
      </trkpt>
      <trkpt lat="45.96001" lon="5.58187">
        <ele>799.516</ele>
        <time>2019-04-27T14:26:56Z</time>
      </trkpt>
      <trkpt lat="45.96105" lon="5.58144">
        <ele>791.365</ele>
        <time>2019-04-27T14:27:04Z</time>
      </trkpt>
      <trkpt lat="45.96316" lon="5.57933">
        <ele>790.656</ele>
        <time>2019-04-27T14:27:42Z</time>
      </trkpt>
      <trkpt lat="45.96667" lon="5.57862">
        <ele>762.559</ele>
        <time>2019-04-27T14:28:07Z</time>
      </trkpt>
      <trkpt lat="45.96765" lon="5.57789">
        <ele>749.714</ele>
        <time>2019-04-27T14:28:17Z</time>
      </trkpt>
      <trkpt lat="45.9679" lon="5.57727">
        <ele>733.008</ele>
        <time>2019-04-27T14:28:36Z</time>
      </trkpt>
      <trkpt lat="45.96771" lon="5.57644">
        <ele>732.818</ele>
        <time>2019-04-27T14:28:44Z</time>
      </trkpt>
      <trkpt lat="45.96829" lon="5.57529">
        <ele>731.34</ele>
        <time>2019-04-27T14:28:56Z</time>
      </trkpt>
      <trkpt lat="45.96863" lon="5.57519">
        <ele>731.072</ele>
        <time>2019-04-27T14:29:01Z</time>
      </trkpt>
      <trkpt lat="45.96855" lon="5.57455">
        <ele>730.189</ele>
        <time>2019-04-27T14:29:08Z</time>
      </trkpt>
      <trkpt lat="45.96913" lon="5.57426">
        <ele>735.435</ele>
        <time>2019-04-27T14:29:18Z</time>
      </trkpt>
      <trkpt lat="45.96822" lon="5.5735">
        <ele>748.262</ele>
        <time>2019-04-27T14:29:29Z</time>
      </trkpt>
      <trkpt lat="45.96759" lon="5.57113">
        <ele>755.637</ele>
        <time>2019-04-27T14:29:42Z</time>
      </trkpt>
      <trkpt lat="45.9678" lon="5.57075">
        <ele>757.056</ele>
        <time>2019-04-27T14:29:47Z</time>
      </trkpt>
      <trkpt lat="45.9677" lon="5.56939">
        <ele>767.396</ele>
        <time>2019-04-27T14:29:57Z</time>
      </trkpt>
      <trkpt lat="45.96814" lon="5.56762">
        <ele>766.131</ele>
        <time>2019-04-27T14:30:06Z</time>
      </trkpt>
      <trkpt lat="45.96725" lon="5.56479">
        <ele>773.424</ele>
        <time>2019-04-27T14:30:24Z</time>
      </trkpt>
      <trkpt lat="45.96738" lon="5.56367">
        <ele>780.508</ele>
        <time>2019-04-27T14:30:31Z</time>
      </trkpt>
      <trkpt lat="45.96706" lon="5.56264">
        <ele>784.752</ele>
        <time>2019-04-27T14:30:39Z</time>
      </trkpt>
      <trkpt lat="45.96801" lon="5.56053">
        <ele>790.014</ele>
        <time>2019-04-27T14:30:58Z</time>
      </trkpt>
      <trkpt lat="45.96656" lon="5.55928">
        <ele>783.716</ele>
        <time>2019-04-27T14:31:16Z</time>
      </trkpt>
      <trkpt lat="45.96616" lon="5.55989">
        <ele>778.793</ele>
        <time>2019-04-27T14:31:27Z</time>
      </trkpt>
      <trkpt lat="45.96537" lon="5.55982">
        <ele>766.369</ele>
        <time>2019-04-27T14:31:41Z</time>
      </trkpt>
      <trkpt lat="45.96525" lon="5.56024">
        <ele>764.426</ele>
        <time>2019-04-27T14:33:13Z</time>
      </trkpt>
      <trkpt lat="45.96412" lon="5.55976">
        <ele>784.421</ele>
        <time>2019-04-27T14:34:10Z</time>
      </trkpt>
      <trkpt lat="45.96201" lon="5.55677">
        <ele>804.57</ele>
        <time>2019-04-27T14:35:02Z</time>
      </trkpt>
      <trkpt lat="45.9624" lon="5.55574">
        <ele>801.579</ele>
        <time>2019-04-27T14:35:47Z</time>
      </trkpt>
      <trkpt lat="45.96449" lon="5.55496">
        <ele>803.505</ele>
        <time>2019-04-27T14:36:17Z</time>
      </trkpt>
      <trkpt lat="45.96442" lon="5.5541">
        <ele>809.025</ele>
        <time>2019-04-27T14:36:27Z</time>
      </trkpt>
      <trkpt lat="45.96366" lon="5.55345">
        <ele>815.508</ele>
        <time>2019-04-27T14:36:41Z</time>
      </trkpt>
      <trkpt lat="45.96505" lon="5.55257">
        <ele>815.46</ele>
        <time>2019-04-27T14:37:00Z</time>
      </trkpt>
      <trkpt lat="45.96628" lon="5.55267">
        <ele>831.482</ele>
        <time>2019-04-27T14:37:17Z</time>
      </trkpt>
      <trkpt lat="45.96683" lon="5.55316">
        <ele>828.124</ele>
        <time>2019-04-27T14:37:25Z</time>
      </trkpt>
      <trkpt lat="45.96897" lon="5.55298">
        <ele>841.591</ele>
        <time>2019-04-27T14:37:48Z</time>
      </trkpt>
      <trkpt lat="45.97002" lon="5.55406">
        <ele>831.567</ele>
        <time>2019-04-27T14:38:05Z</time>
      </trkpt>
      <trkpt lat="45.97085" lon="5.55421">
        <ele>830.794</ele>
        <time>2019-04-27T14:38:13Z</time>
      </trkpt>
      <trkpt lat="45.97146" lon="5.55562">
        <ele>818.619</ele>
        <time>2019-04-27T14:38:29Z</time>
      </trkpt>
      <trkpt lat="45.97263" lon="5.55676">
        <ele>799.658</ele>
        <time>2019-04-27T14:38:44Z</time>
      </trkpt>
      <trkpt lat="45.97317" lon="5.55654">
        <ele>804.941</ele>
        <time>2019-04-27T14:38:52Z</time>
      </trkpt>
      <trkpt lat="45.9731" lon="5.55597">
        <ele>816.581</ele>
        <time>2019-04-27T14:39:00Z</time>
      </trkpt>
      <trkpt lat="45.97417" lon="5.55611">
        <ele>828.409</ele>
        <time>2019-04-27T14:39:10Z</time>
      </trkpt>
      <trkpt lat="45.97425" lon="5.55526">
        <ele>846.008</ele>
        <time>2019-04-27T14:39:22Z</time>
      </trkpt>
      <trkpt lat="45.97498" lon="5.55595">
        <ele>848.157</ele>
        <time>2019-04-27T14:39:30Z</time>
      </trkpt>
      <trkpt lat="45.97668" lon="5.55607">
        <ele>850.759</ele>
        <time>2019-04-27T14:39:43Z</time>
      </trkpt>
      <trkpt lat="45.97747" lon="5.55664">
        <ele>858.341</ele>
        <time>2019-04-27T14:39:51Z</time>
      </trkpt>
      <trkpt lat="45.97905" lon="5.55633">
        <ele>847.358</ele>
        <time>2019-04-27T14:40:05Z</time>
      </trkpt>
      <trkpt lat="45.97935" lon="5.55544">
        <ele>837.314</ele>
        <time>2019-04-27T14:40:52Z</time>
      </trkpt>
      <trkpt lat="45.98037" lon="5.55489">
        <ele>811.031</ele>
        <time>2019-04-27T14:41:14Z</time>
      </trkpt>
      <trkpt lat="45.98071" lon="5.55352">
        <ele>814.766</ele>
        <time>2019-04-27T14:41:35Z</time>
      </trkpt>
      <trkpt lat="45.9817" lon="5.55323">
        <ele>829.715</ele>
        <time>2019-04-27T14:41:55Z</time>
      </trkpt>
      <trkpt lat="45.982" lon="5.55067">
        <ele>843.289</ele>
        <time>2019-04-27T14:42:13Z</time>
      </trkpt>
      <trkpt lat="45.98048" lon="5.54686">
        <ele>844.006</ele>
        <time>2019-04-27T14:42:40Z</time>
      </trkpt>
      <trkpt lat="45.98031" lon="5.54447">
        <ele>846.026</ele>
        <time>2019-04-27T14:42:59Z</time>
      </trkpt>
      <trkpt lat="45.98058" lon="5.54434">
        <ele>847.508</ele>
        <time>2019-04-27T14:43:03Z</time>
      </trkpt>
      <trkpt lat="45.98012" lon="5.54339">
        <ele>848.121</ele>
        <time>2019-04-27T14:43:11Z</time>
      </trkpt>
      <trkpt lat="45.97978" lon="5.54332">
        <ele>849.223</ele>
        <time>2019-04-27T14:43:14Z</time>
      </trkpt>
      <trkpt lat="45.97946" lon="5.54186">
        <ele>855.655</ele>
        <time>2019-04-27T14:43:25Z</time>
      </trkpt>
      <trkpt lat="45.97816" lon="5.5395">
        <ele>875.812</ele>
        <time>2019-04-27T14:43:41Z</time>
      </trkpt>
      <trkpt lat="45.97721" lon="5.53905">
        <ele>909.698</ele>
        <time>2019-04-27T14:43:51Z</time>
      </trkpt>
      <trkpt lat="45.975" lon="5.53946">
        <ele>912.145</ele>
        <time>2019-04-27T14:44:23Z</time>
      </trkpt>
      <trkpt lat="45.97288" lon="5.54131">
        <ele>934.13</ele>
        <time>2019-04-27T14:44:54Z</time>
      </trkpt>
      <trkpt lat="45.96959" lon="5.54014">
        <ele>929.219</ele>
        <time>2019-04-27T14:45:47Z</time>
      </trkpt>
      <trkpt lat="45.96914" lon="5.5396">
        <ele>931.952</ele>
        <time>2019-04-27T14:46:01Z</time>
      </trkpt>
      <trkpt lat="45.96778" lon="5.53937">
        <ele>931.453</ele>
        <time>2019-04-27T14:46:39Z</time>
      </trkpt>
      <trkpt lat="45.96661" lon="5.53843">
        <ele>910.008</ele>
        <time>2019-04-27T14:47:22Z</time>
      </trkpt>
      <trkpt lat="45.96694" lon="5.53759">
        <ele>908.908</ele>
        <time>2019-04-27T14:47:32Z</time>
      </trkpt>
      <trkpt lat="45.96893" lon="5.53667">
        <ele>909.098</ele>
        <time>2019-04-27T14:47:49Z</time>
      </trkpt>
      <trkpt lat="45.96955" lon="5.53684">
        <ele>907.94</ele>
        <time>2019-04-27T14:47:55Z</time>
      </trkpt>
      <trkpt lat="45.96992" lon="5.53579">
        <ele>911.692</ele>
        <time>2019-04-27T14:48:01Z</time>
      </trkpt>
      <trkpt lat="45.97109" lon="5.53543">
        <ele>922.789</ele>
        <time>2019-04-27T14:48:12Z</time>
      </trkpt>
      <trkpt lat="45.97211" lon="5.5346">
        <ele>926.285</ele>
        <time>2019-04-27T14:48:20Z</time>
      </trkpt>
      <trkpt lat="45.97307" lon="5.53498">
        <ele>925.372</ele>
        <time>2019-04-27T14:48:32Z</time>
      </trkpt>
      <trkpt lat="45.97232" lon="5.53312">
        <ele>924.667</ele>
        <time>2019-04-27T14:48:44Z</time>
      </trkpt>
      <trkpt lat="45.97197" lon="5.53299">
        <ele>926.946</ele>
        <time>2019-04-27T14:48:48Z</time>
      </trkpt>
      <trkpt lat="45.97207" lon="5.53173">
        <ele>922.563</ele>
        <time>2019-04-27T14:48:57Z</time>
      </trkpt>
      <trkpt lat="45.97339" lon="5.52966">
        <ele>897.744</ele>
        <time>2019-04-27T14:49:14Z</time>
      </trkpt>
      <trkpt lat="45.97344" lon="5.52914">
        <ele>889.118</ele>
        <time>2019-04-27T14:49:19Z</time>
      </trkpt>
      <trkpt lat="45.97318" lon="5.52888">
        <ele>881.808</ele>
        <time>2019-04-27T14:49:23Z</time>
      </trkpt>
      <trkpt lat="45.9735" lon="5.52835">
        <ele>868.839</ele>
        <time>2019-04-27T14:49:32Z</time>
      </trkpt>
      <trkpt lat="45.97048" lon="5.52637">
        <ele>908.981</ele>
        <time>2019-04-27T14:49:57Z</time>
      </trkpt>
      <trkpt lat="45.97061" lon="5.52575">
        <ele>919.893</ele>
        <time>2019-04-27T14:50:05Z</time>
      </trkpt>
      <trkpt lat="45.97002" lon="5.5243">
        <ele>930.59</ele>
        <time>2019-04-27T14:50:15Z</time>
      </trkpt>
      <trkpt lat="45.96914" lon="5.52341">
        <ele>942.216</ele>
        <time>2019-04-27T14:50:23Z</time>
      </trkpt>
      <trkpt lat="45.96872" lon="5.52208">
        <ele>944.723</ele>
        <time>2019-04-27T14:50:36Z</time>
      </trkpt>
      <trkpt lat="45.96807" lon="5.52194">
        <ele>936.728</ele>
        <time>2019-04-27T14:50:42Z</time>
      </trkpt>
      <trkpt lat="45.97033" lon="5.52068">
        <ele>917.717</ele>
        <time>2019-04-27T14:51:00Z</time>
      </trkpt>
      <trkpt lat="45.97027" lon="5.52002">
        <ele>912.615</ele>
        <time>2019-04-27T14:51:03Z</time>
      </trkpt>
      <trkpt lat="45.96964" lon="5.51939">
        <ele>910.865</ele>
        <time>2019-04-27T14:51:10Z</time>
      </trkpt>
      <trkpt lat="45.97092" lon="5.51936">
        <ele>918.011</ele>
        <time>2019-04-27T14:51:24Z</time>
      </trkpt>
      <trkpt lat="45.97198" lon="5.52022">
        <ele>916.908</ele>
        <time>2019-04-27T14:51:41Z</time>
      </trkpt>
      <trkpt lat="45.97396" lon="5.52092">
        <ele>918.454</ele>
        <time>2019-04-27T14:53:29Z</time>
      </trkpt>
      <trkpt lat="45.97807" lon="5.52122">
        <ele>925.176</ele>
        <time>2019-04-27T14:53:54Z</time>
      </trkpt>
      <trkpt lat="45.979" lon="5.52065">
        <ele>940.148</ele>
        <time>2019-04-27T14:54:02Z</time>
      </trkpt>
      <trkpt lat="45.97912" lon="5.51941">
        <ele>952.875</ele>
        <time>2019-04-27T14:54:13Z</time>
      </trkpt>
      <trkpt lat="45.98131" lon="5.51869">
        <ele>925.971</ele>
        <time>2019-04-27T14:54:39Z</time>
      </trkpt>
      <trkpt lat="45.98199" lon="5.51787">
        <ele>910.558</ele>
        <time>2019-04-27T14:54:52Z</time>
      </trkpt>
      <trkpt lat="45.98261" lon="5.51539">
        <ele>890.963</ele>
        <time>2019-04-27T14:55:14Z</time>
      </trkpt>
      <trkpt lat="45.98203" lon="5.51472">
        <ele>886.352</ele>
        <time>2019-04-27T14:55:24Z</time>
      </trkpt>
      <trkpt lat="45.98274" lon="5.51249">
        <ele>865.958</ele>
        <time>2019-04-27T14:55:44Z</time>
      </trkpt>
      <trkpt lat="45.98147" lon="5.51028">
        <ele>846.452</ele>
        <time>2019-04-27T14:56:10Z</time>
      </trkpt>
      <trkpt lat="45.98175" lon="5.50776">
        <ele>831.817</ele>
        <time>2019-04-27T14:56:34Z</time>
      </trkpt>
      <trkpt lat="45.98144" lon="5.50728">
        <ele>828.308</ele>
        <time>2019-04-27T14:56:41Z</time>
      </trkpt>
      <trkpt lat="45.98009" lon="5.50693">
        <ele>822.698</ele>
        <time>2019-04-27T14:56:55Z</time>
      </trkpt>
      <trkpt lat="45.98188" lon="5.50391">
        <ele>838.89</ele>
        <time>2019-04-27T14:57:18Z</time>
      </trkpt>
      <trkpt lat="45.98336" lon="5.50289">
        <ele>862.452</ele>
        <time>2019-04-27T14:57:32Z</time>
      </trkpt>
      <trkpt lat="45.98382" lon="5.50177">
        <ele>870.159</ele>
        <time>2019-04-27T14:57:40Z</time>
      </trkpt>
      <trkpt lat="45.98357" lon="5.49979">
        <ele>867.875</ele>
        <time>2019-04-27T14:57:52Z</time>
      </trkpt>
      <trkpt lat="45.98242" lon="5.49696">
        <ele>852.762</ele>
        <time>2019-04-27T14:58:14Z</time>
      </trkpt>
      <trkpt lat="45.98256" lon="5.49643">
        <ele>856.487</ele>
        <time>2019-04-27T14:58:22Z</time>
      </trkpt>
      <trkpt lat="45.98405" lon="5.49622">
        <ele>852.996</ele>
        <time>2019-04-27T14:58:38Z</time>
      </trkpt>
      <trkpt lat="45.98578" lon="5.49691">
        <ele>854.396</ele>
        <time>2019-04-27T14:59:06Z</time>
      </trkpt>
      <trkpt lat="45.98742" lon="5.4982">
        <ele>843.731</ele>
        <time>2019-04-27T15:02:26Z</time>
      </trkpt>
      <trkpt lat="45.98745" lon="5.49786">
        <ele>843.324</ele>
        <time>2019-04-27T15:03:55Z</time>
      </trkpt>
      <trkpt lat="45.9876" lon="5.49816">
        <ele>842.508</ele>
        <time>2019-04-27T15:04:58Z</time>
      </trkpt>
      <trkpt lat="45.98735" lon="5.49802">
        <ele>844.032</ele>
        <time>2019-04-27T15:09:10Z</time>
      </trkpt>
      <trkpt lat="45.98761" lon="5.49817">
        <ele>843.274</ele>
        <time>2019-04-27T15:09:32Z</time>
      </trkpt>
      <trkpt lat="45.98754" lon="5.49902">
        <ele>830.636</ele>
        <time>2019-04-27T15:09:52Z</time>
      </trkpt>
      <trkpt lat="45.98976" lon="5.50028">
        <ele>822.823</ele>
        <time>2019-04-27T15:10:11Z</time>
      </trkpt>
      <trkpt lat="45.99425" lon="5.50184">
        <ele>804.749</ele>
        <time>2019-04-27T15:10:38Z</time>
      </trkpt>
      <trkpt lat="45.99784" lon="5.50105">
        <ele>788.066</ele>
        <time>2019-04-27T15:11:04Z</time>
      </trkpt>
      <trkpt lat="45.99812" lon="5.50056">
        <ele>787.071</ele>
        <time>2019-04-27T15:11:09Z</time>
      </trkpt>
      <trkpt lat="45.99922" lon="5.50024">
        <ele>782.28</ele>
        <time>2019-04-27T15:11:50Z</time>
      </trkpt>
      <trkpt lat="46.00008" lon="5.49941">
        <ele>776.841</ele>
        <time>2019-04-27T15:12:03Z</time>
      </trkpt>
      <trkpt lat="46.00014" lon="5.49836">
        <ele>778.381</ele>
        <time>2019-04-27T15:12:12Z</time>
      </trkpt>
      <trkpt lat="46.00271" lon="5.49761">
        <ele>786.909</ele>
        <time>2019-04-27T15:12:32Z</time>
      </trkpt>
      <trkpt lat="46.00276" lon="5.49702">
        <ele>781.808</ele>
        <time>2019-04-27T15:12:39Z</time>
      </trkpt>
      <trkpt lat="46.00277" lon="5.4983">
        <ele>767.847</ele>
        <time>2019-04-27T15:12:53Z</time>
      </trkpt>
      <trkpt lat="46.00376" lon="5.49763">
        <ele>728.579</ele>
        <time>2019-04-27T15:13:29Z</time>
      </trkpt>
      <trkpt lat="46.0038" lon="5.49689">
        <ele>711.091</ele>
        <time>2019-04-27T15:13:49Z</time>
      </trkpt>
      <trkpt lat="46.00431" lon="5.49643">
        <ele>701.878</ele>
        <time>2019-04-27T15:13:59Z</time>
      </trkpt>
      <trkpt lat="46.00517" lon="5.49652">
        <ele>696.994</ele>
        <time>2019-04-27T15:14:14Z</time>
      </trkpt>
      <trkpt lat="46.00394" lon="5.49577">
        <ele>697.011</ele>
        <time>2019-04-27T15:14:34Z</time>
      </trkpt>
      <trkpt lat="46.00462" lon="5.49367">
        <ele>671.216</ele>
        <time>2019-04-27T15:15:00Z</time>
      </trkpt>
      <trkpt lat="46.00413" lon="5.49172">
        <ele>641.225</ele>
        <time>2019-04-27T15:15:23Z</time>
      </trkpt>
      <trkpt lat="46.00436" lon="5.49049">
        <ele>620.449</ele>
        <time>2019-04-27T15:15:32Z</time>
      </trkpt>
      <trkpt lat="46.00401" lon="5.48971">
        <ele>603.602</ele>
        <time>2019-04-27T15:15:42Z</time>
      </trkpt>
      <trkpt lat="46.00306" lon="5.48934">
        <ele>581.322</ele>
        <time>2019-04-27T15:16:02Z</time>
      </trkpt>
      <trkpt lat="46.00337" lon="5.48845">
        <ele>580.908</ele>
        <time>2019-04-27T15:16:07Z</time>
      </trkpt>
      <trkpt lat="46.00579" lon="5.48637">
        <ele>593.437</ele>
        <time>2019-04-27T15:16:28Z</time>
      </trkpt>
      <trkpt lat="46.006" lon="5.48524">
        <ele>596.129</ele>
        <time>2019-04-27T15:16:35Z</time>
      </trkpt>
      <trkpt lat="46.00576" lon="5.48519">
        <ele>593.331</ele>
        <time>2019-04-27T15:17:17Z</time>
      </trkpt>
      <trkpt lat="46.00486" lon="5.48747">
        <ele>594.068</ele>
        <time>2019-04-27T15:17:30Z</time>
      </trkpt>
      <trkpt lat="46.00283" lon="5.48927">
        <ele>582.914</ele>
        <time>2019-04-27T15:17:45Z</time>
      </trkpt>
      <trkpt lat="46.00319" lon="5.4896">
        <ele>582.721</ele>
        <time>2019-04-27T15:17:46Z</time>
      </trkpt>
      <trkpt lat="46.00299" lon="5.49021">
        <ele>582.736</ele>
        <time>2019-04-27T15:17:50Z</time>
      </trkpt>
      <trkpt lat="46.00201" lon="5.49058">
        <ele>580.585</ele>
        <time>2019-04-27T15:17:56Z</time>
      </trkpt>
      <trkpt lat="46.00041" lon="5.49">
        <ele>578.956</ele>
        <time>2019-04-27T15:18:04Z</time>
      </trkpt>
      <trkpt lat="45.99897" lon="5.49029">
        <ele>572.259</ele>
        <time>2019-04-27T15:18:12Z</time>
      </trkpt>
      <trkpt lat="45.99781" lon="5.49">
        <ele>567.714</ele>
        <time>2019-04-27T15:18:19Z</time>
      </trkpt>
      <trkpt lat="45.99653" lon="5.48755">
        <ele>554.108</ele>
        <time>2019-04-27T15:18:43Z</time>
      </trkpt>
      <trkpt lat="45.99609" lon="5.48804">
        <ele>552.148</ele>
        <time>2019-04-27T15:18:59Z</time>
      </trkpt>
      <trkpt lat="45.99471" lon="5.48832">
        <ele>573.84</ele>
        <time>2019-04-27T15:19:22Z</time>
      </trkpt>
      <trkpt lat="45.9937" lon="5.48797">
        <ele>585.932</ele>
        <time>2019-04-27T15:19:34Z</time>
      </trkpt>
      <trkpt lat="45.9929" lon="5.48833">
        <ele>586.859</ele>
        <time>2019-04-27T15:19:42Z</time>
      </trkpt>
      <trkpt lat="45.99233" lon="5.48802">
        <ele>590.675</ele>
        <time>2019-04-27T15:19:48Z</time>
      </trkpt>
      <trkpt lat="45.99144" lon="5.48821">
        <ele>596.262</ele>
        <time>2019-04-27T15:19:56Z</time>
      </trkpt>
      <trkpt lat="45.98754" lon="5.4864">
        <ele>624.127</ele>
        <time>2019-04-27T15:20:29Z</time>
      </trkpt>
      <trkpt lat="45.98551" lon="5.48474">
        <ele>616.216</ele>
        <time>2019-04-27T15:20:53Z</time>
      </trkpt>
      <trkpt lat="45.98289" lon="5.4836">
        <ele>601.749</ele>
        <time>2019-04-27T15:22:23Z</time>
      </trkpt>
      <trkpt lat="45.98173" lon="5.4835">
        <ele>574.102</ele>
        <time>2019-04-27T15:22:41Z</time>
      </trkpt>
      <trkpt lat="45.98132" lon="5.48381">
        <ele>562.322</ele>
        <time>2019-04-27T15:22:55Z</time>
      </trkpt>
      <trkpt lat="45.97898" lon="5.48315">
        <ele>518.208</ele>
        <time>2019-04-27T15:23:43Z</time>
      </trkpt>
      <trkpt lat="45.97885" lon="5.4826">
        <ele>504.227</ele>
        <time>2019-04-27T15:23:56Z</time>
      </trkpt>
      <trkpt lat="45.97777" lon="5.48214">
        <ele>478.079</ele>
        <time>2019-04-27T15:24:17Z</time>
      </trkpt>
      <trkpt lat="45.97742" lon="5.48066">
        <ele>445.371</ele>
        <time>2019-04-27T15:24:41Z</time>
      </trkpt>
      <trkpt lat="45.9768" lon="5.47974">
        <ele>433.388</ele>
        <time>2019-04-27T15:24:51Z</time>
      </trkpt>
      <trkpt lat="45.97682" lon="5.47921">
        <ele>418.384</ele>
        <time>2019-04-27T15:25:30Z</time>
      </trkpt>
      <trkpt lat="45.97721" lon="5.47887">
        <ele>414.331</ele>
        <time>2019-04-27T15:25:40Z</time>
      </trkpt>
      <trkpt lat="45.97754" lon="5.47745">
        <ele>419.056</ele>
        <time>2019-04-27T15:25:53Z</time>
      </trkpt>
      <trkpt lat="45.97747" lon="5.47611">
        <ele>426.575</ele>
        <time>2019-04-27T15:26:02Z</time>
      </trkpt>
      <trkpt lat="45.97674" lon="5.47422">
        <ele>425.467</ele>
        <time>2019-04-27T15:26:24Z</time>
      </trkpt>
      <trkpt lat="45.9774" lon="5.47368">
        <ele>402.681</ele>
        <time>2019-04-27T15:26:37Z</time>
      </trkpt>
      <trkpt lat="45.97724" lon="5.47341">
        <ele>395.919</ele>
        <time>2019-04-27T15:26:40Z</time>
      </trkpt>
      <trkpt lat="45.97834" lon="5.47349">
        <ele>399.808</ele>
        <time>2019-04-27T15:26:55Z</time>
      </trkpt>
      <trkpt lat="45.97871" lon="5.47312">
        <ele>404.779</ele>
        <time>2019-04-27T15:27:00Z</time>
      </trkpt>
      <trkpt lat="45.98018" lon="5.47326">
        <ele>421.081</ele>
        <time>2019-04-27T15:27:14Z</time>
      </trkpt>
      <trkpt lat="45.98086" lon="5.47215">
        <ele>427.663</ele>
        <time>2019-04-27T15:27:23Z</time>
      </trkpt>
      <trkpt lat="45.98355" lon="5.47176">
        <ele>461.19</ele>
        <time>2019-04-27T15:27:59Z</time>
      </trkpt>
      <trkpt lat="45.98451" lon="5.47125">
        <ele>469.666</ele>
        <time>2019-04-27T15:28:11Z</time>
      </trkpt>
      <trkpt lat="45.99148" lon="5.47071">
        <ele>553.353</ele>
        <time>2019-04-27T15:29:36Z</time>
      </trkpt>
      <trkpt lat="45.99194" lon="5.47125">
        <ele>558.878</ele>
        <time>2019-04-27T15:29:42Z</time>
      </trkpt>
      <trkpt lat="45.9933" lon="5.47162">
        <ele>569.327</ele>
        <time>2019-04-27T15:29:59Z</time>
      </trkpt>
      <trkpt lat="45.99249" lon="5.47076">
        <ele>581.712</ele>
        <time>2019-04-27T15:30:14Z</time>
      </trkpt>
      <trkpt lat="45.99261" lon="5.47045">
        <ele>587.132</ele>
        <time>2019-04-27T15:30:21Z</time>
      </trkpt>
      <trkpt lat="45.99462" lon="5.47129">
        <ele>627.805</ele>
        <time>2019-04-27T15:30:59Z</time>
      </trkpt>
      <trkpt lat="45.99556" lon="5.47252">
        <ele>645.108</ele>
        <time>2019-04-27T15:31:10Z</time>
      </trkpt>
      <trkpt lat="45.9957" lon="5.47318">
        <ele>648.654</ele>
        <time>2019-04-27T15:31:18Z</time>
      </trkpt>
      <trkpt lat="45.9964" lon="5.47367">
        <ele>658.866</ele>
        <time>2019-04-27T15:31:25Z</time>
      </trkpt>
      <trkpt lat="45.99905" lon="5.47399">
        <ele>688.218</ele>
        <time>2019-04-27T15:31:44Z</time>
      </trkpt>
      <trkpt lat="46.00021" lon="5.47498">
        <ele>705.615</ele>
        <time>2019-04-27T15:31:57Z</time>
      </trkpt>
      <trkpt lat="46.00348" lon="5.47477">
        <ele>725.341</ele>
        <time>2019-04-27T15:32:21Z</time>
      </trkpt>
      <trkpt lat="46.00317" lon="5.47477">
        <ele>722.968</ele>
        <time>2019-04-27T15:33:37Z</time>
      </trkpt>
      <trkpt lat="46.00425" lon="5.47598">
        <ele>716.133</ele>
        <time>2019-04-27T15:34:01Z</time>
      </trkpt>
      <trkpt lat="46.00511" lon="5.47768">
        <ele>715.682</ele>
        <time>2019-04-27T15:34:11Z</time>
      </trkpt>
      <trkpt lat="46.00434" lon="5.47925">
        <ele>712.315</ele>
        <time>2019-04-27T15:34:21Z</time>
      </trkpt>
      <trkpt lat="46.00434" lon="5.48036">
        <ele>707.265</ele>
        <time>2019-04-27T15:34:28Z</time>
      </trkpt>
      <trkpt lat="46.00565" lon="5.48058">
        <ele>712.411</ele>
        <time>2019-04-27T15:34:43Z</time>
      </trkpt>
      <trkpt lat="46.00826" lon="5.4789">
        <ele>720.208</ele>
        <time>2019-04-27T15:35:09Z</time>
      </trkpt>
      <trkpt lat="46.01084" lon="5.47912">
        <ele>719.964</ele>
        <time>2019-04-27T15:35:36Z</time>
      </trkpt>
      <trkpt lat="46.0114" lon="5.47972">
        <ele>718.796</ele>
        <time>2019-04-27T15:35:44Z</time>
      </trkpt>
      <trkpt lat="46.01352" lon="5.47974">
        <ele>725.538</ele>
        <time>2019-04-27T15:36:03Z</time>
      </trkpt>
      <trkpt lat="46.01345" lon="5.47886">
        <ele>720.285</ele>
        <time>2019-04-27T15:36:14Z</time>
      </trkpt>
      <trkpt lat="46.01431" lon="5.47797">
        <ele>713.031</ele>
        <time>2019-04-27T15:36:26Z</time>
      </trkpt>
      <trkpt lat="46.01596" lon="5.47714">
        <ele>715.248</ele>
        <time>2019-04-27T15:36:39Z</time>
      </trkpt>
      <trkpt lat="46.01684" lon="5.47588">
        <ele>719.223</ele>
        <time>2019-04-27T15:36:50Z</time>
      </trkpt>
      <trkpt lat="46.01865" lon="5.47516">
        <ele>722.092</ele>
        <time>2019-04-27T15:37:04Z</time>
      </trkpt>
      <trkpt lat="46.02005" lon="5.47637">
        <ele>727.612</ele>
        <time>2019-04-27T15:37:16Z</time>
      </trkpt>
      <trkpt lat="46.02143" lon="5.47629">
        <ele>739.532</ele>
        <time>2019-04-27T15:37:23Z</time>
      </trkpt>
      <trkpt lat="46.02243" lon="5.47688">
        <ele>746.005</ele>
        <time>2019-04-27T15:37:29Z</time>
      </trkpt>
      <trkpt lat="46.02356" lon="5.47696">
        <ele>758.108</ele>
        <time>2019-04-27T15:37:35Z</time>
      </trkpt>
      <trkpt lat="46.02668" lon="5.47869">
        <ele>780.594</ele>
        <time>2019-04-27T15:37:56Z</time>
      </trkpt>
      <trkpt lat="46.02693" lon="5.47728">
        <ele>785.226</ele>
        <time>2019-04-27T15:38:03Z</time>
      </trkpt>
      <trkpt lat="46.02631" lon="5.476">
        <ele>784.628</ele>
        <time>2019-04-27T15:38:13Z</time>
      </trkpt>
      <trkpt lat="46.02692" lon="5.47498">
        <ele>788.755</ele>
        <time>2019-04-27T15:38:20Z</time>
      </trkpt>
      <trkpt lat="46.02669" lon="5.47392">
        <ele>786.291</ele>
        <time>2019-04-27T15:38:27Z</time>
      </trkpt>
      <trkpt lat="46.02853" lon="5.47221">
        <ele>782.598</ele>
        <time>2019-04-27T15:38:44Z</time>
      </trkpt>
      <trkpt lat="46.02938" lon="5.47326">
        <ele>774.373</ele>
        <time>2019-04-27T15:38:52Z</time>
      </trkpt>
      <trkpt lat="46.03014" lon="5.47327">
        <ele>760.582</ele>
        <time>2019-04-27T15:38:58Z</time>
      </trkpt>
      <trkpt lat="46.03112" lon="5.47244">
        <ele>750.257</ele>
        <time>2019-04-27T15:39:07Z</time>
      </trkpt>
      <trkpt lat="46.03274" lon="5.47015">
        <ele>727.9</ele>
        <time>2019-04-27T15:39:21Z</time>
      </trkpt>
      <trkpt lat="46.0354" lon="5.46932">
        <ele>689.52</ele>
        <time>2019-04-27T15:39:43Z</time>
      </trkpt>
      <trkpt lat="46.03532" lon="5.46905">
        <ele>678.708</ele>
        <time>2019-04-27T15:39:49Z</time>
      </trkpt>
      <trkpt lat="46.03537" lon="5.46993">
        <ele>674.898</ele>
        <time>2019-04-27T15:39:57Z</time>
      </trkpt>
      <trkpt lat="46.03449" lon="5.47102">
        <ele>668.46</ele>
        <time>2019-04-27T15:40:11Z</time>
      </trkpt>
      <trkpt lat="46.03576" lon="5.47146">
        <ele>675.482</ele>
        <time>2019-04-27T15:40:31Z</time>
      </trkpt>
      <trkpt lat="46.03669" lon="5.47259">
        <ele>690.739</ele>
        <time>2019-04-27T15:40:46Z</time>
      </trkpt>
      <trkpt lat="46.03845" lon="5.46969">
        <ele>684.985</ele>
        <time>2019-04-27T15:41:07Z</time>
      </trkpt>
      <trkpt lat="46.03957" lon="5.46983">
        <ele>682.872</ele>
        <time>2019-04-27T15:41:17Z</time>
      </trkpt>
      <trkpt lat="46.04029" lon="5.4707">
        <ele>682.097</ele>
        <time>2019-04-27T15:41:26Z</time>
      </trkpt>
      <trkpt lat="46.041" lon="5.47326">
        <ele>665.836</ele>
        <time>2019-04-27T15:41:42Z</time>
      </trkpt>
      <trkpt lat="46.0411" lon="5.47557">
        <ele>643.894</ele>
        <time>2019-04-27T15:41:59Z</time>
      </trkpt>
      <trkpt lat="46.03985" lon="5.47733">
        <ele>623.057</ele>
        <time>2019-04-27T15:42:16Z</time>
      </trkpt>
      <trkpt lat="46.04111" lon="5.47703">
        <ele>612.122</ele>
        <time>2019-04-27T15:42:30Z</time>
      </trkpt>
      <trkpt lat="46.04183" lon="5.47627">
        <ele>605.308</ele>
        <time>2019-04-27T15:42:38Z</time>
      </trkpt>
      <trkpt lat="46.04282" lon="5.47761">
        <ele>590.092</ele>
        <time>2019-04-27T15:42:52Z</time>
      </trkpt>
      <trkpt lat="46.04225" lon="5.47811">
        <ele>593.514</ele>
        <time>2019-04-27T15:42:56Z</time>
      </trkpt>
      <trkpt lat="46.0419" lon="5.47932">
        <ele>610.646</ele>
        <time>2019-04-27T15:43:04Z</time>
      </trkpt>
      <trkpt lat="46.04283" lon="5.48059">
        <ele>637.293</ele>
        <time>2019-04-27T15:48:15Z</time>
      </trkpt>
      <trkpt lat="46.04614" lon="5.48096">
        <ele>631.899</ele>
        <time>2019-04-27T15:48:49Z</time>
      </trkpt>
      <trkpt lat="46.04678" lon="5.48056">
        <ele>624.236</ele>
        <time>2019-04-27T15:48:56Z</time>
      </trkpt>
      <trkpt lat="46.04768" lon="5.48064">
        <ele>621.511</ele>
        <time>2019-04-27T15:49:06Z</time>
      </trkpt>
      <trkpt lat="46.0484" lon="5.47974">
        <ele>619.35</ele>
        <time>2019-04-27T15:49:45Z</time>
      </trkpt>
      <trkpt lat="46.04904" lon="5.47989">
        <ele>610.732</ele>
        <time>2019-04-27T15:50:39Z</time>
      </trkpt>
      <trkpt lat="46.05035" lon="5.47875">
        <ele>586.292</ele>
        <time>2019-04-27T15:51:07Z</time>
      </trkpt>
      <trkpt lat="46.05063" lon="5.47933">
        <ele>573.211</ele>
        <time>2019-04-27T15:51:17Z</time>
      </trkpt>
      <trkpt lat="46.05233" lon="5.47952">
        <ele>528.108</ele>
        <time>2019-04-27T15:51:51Z</time>
      </trkpt>
      <trkpt lat="46.05252" lon="5.47992">
        <ele>515.566</ele>
        <time>2019-04-27T15:51:58Z</time>
      </trkpt>
      <trkpt lat="46.05377" lon="5.48026">
        <ele>472.168</ele>
        <time>2019-04-27T15:52:59Z</time>
      </trkpt>
      <trkpt lat="46.05415" lon="5.47996">
        <ele>459.79</ele>
        <time>2019-04-27T15:53:11Z</time>
      </trkpt>
      <trkpt lat="46.05409" lon="5.481">
        <ele>444.487</ele>
        <time>2019-04-27T15:53:26Z</time>
      </trkpt>
      <trkpt lat="46.05443" lon="5.48136">
        <ele>429.813</ele>
        <time>2019-04-27T15:53:38Z</time>
      </trkpt>
      <trkpt lat="46.05479" lon="5.48117">
        <ele>425.21</ele>
        <time>2019-04-27T15:53:44Z</time>
      </trkpt>
      <trkpt lat="46.05624" lon="5.47775">
        <ele>390.435</ele>
        <time>2019-04-27T15:54:16Z</time>
      </trkpt>
      <trkpt lat="46.05658" lon="5.4777">
        <ele>387.184</ele>
        <time>2019-04-27T15:54:19Z</time>
      </trkpt>
      <trkpt lat="46.05758" lon="5.47587">
        <ele>378.061</ele>
        <time>2019-04-27T15:54:42Z</time>
      </trkpt>
      <trkpt lat="46.05846" lon="5.47585">
        <ele>370.221</ele>
        <time>2019-04-27T15:54:50Z</time>
      </trkpt>
      <trkpt lat="46.0595" lon="5.47373">
        <ele>360.513</ele>
        <time>2019-04-27T15:55:12Z</time>
      </trkpt>
      <trkpt lat="46.0601" lon="5.47119">
        <ele>349.208</ele>
        <time>2019-04-27T15:55:35Z</time>
      </trkpt>
      <trkpt lat="46.06053" lon="5.47084">
        <ele>355.689</ele>
        <time>2019-04-27T15:55:48Z</time>
      </trkpt>
      <trkpt lat="46.0616" lon="5.47127">
        <ele>364.611</ele>
        <time>2019-04-27T15:56:23Z</time>
      </trkpt>
      <trkpt lat="46.06382" lon="5.47378">
        <ele>436.183</ele>
        <time>2019-04-27T15:57:40Z</time>
      </trkpt>
      <trkpt lat="46.06131" lon="5.47314">
        <ele>465.79</ele>
        <time>2019-04-27T15:58:53Z</time>
      </trkpt>
      <trkpt lat="46.06288" lon="5.47469">
        <ele>483.516</ele>
        <time>2019-04-27T15:59:21Z</time>
      </trkpt>
      <trkpt lat="46.06459" lon="5.4772">
        <ele>520.473</ele>
        <time>2019-04-27T16:00:02Z</time>
      </trkpt>
      <trkpt lat="46.06594" lon="5.47674">
        <ele>537.368</ele>
        <time>2019-04-27T16:03:32Z</time>
      </trkpt>
      <trkpt lat="46.0672" lon="5.47751">
        <ele>554.597</ele>
        <time>2019-04-27T16:03:48Z</time>
      </trkpt>
      <trkpt lat="46.06604" lon="5.47759">
        <ele>565.491</ele>
        <time>2019-04-27T16:04:04Z</time>
      </trkpt>
      <trkpt lat="46.06634" lon="5.48079">
        <ele>589.381</ele>
        <time>2019-04-27T16:04:25Z</time>
      </trkpt>
      <trkpt lat="46.06726" lon="5.48233">
        <ele>593.719</ele>
        <time>2019-04-27T16:04:36Z</time>
      </trkpt>
      <trkpt lat="46.06769" lon="5.4816">
        <ele>582.208</ele>
        <time>2019-04-27T16:04:53Z</time>
      </trkpt>
      <trkpt lat="46.0685" lon="5.48124">
        <ele>556.812</ele>
        <time>2019-04-27T16:05:24Z</time>
      </trkpt>
      <trkpt lat="46.06858" lon="5.48057">
        <ele>535.814</ele>
        <time>2019-04-27T16:05:43Z</time>
      </trkpt>
      <trkpt lat="46.07013" lon="5.48071">
        <ele>486.366</ele>
        <time>2019-04-27T16:06:17Z</time>
      </trkpt>
      <trkpt lat="46.07044" lon="5.48017">
        <ele>468.353</ele>
        <time>2019-04-27T16:06:30Z</time>
      </trkpt>
      <trkpt lat="46.07085" lon="5.48039">
        <ele>452.849</ele>
        <time>2019-04-27T16:06:41Z</time>
      </trkpt>
      <trkpt lat="46.07145" lon="5.48181">
        <ele>439.836</ele>
        <time>2019-04-27T16:06:53Z</time>
      </trkpt>
      <trkpt lat="46.07111" lon="5.48391">
        <ele>433.691</ele>
        <time>2019-04-27T16:07:09Z</time>
      </trkpt>
      <trkpt lat="46.0716" lon="5.48447">
        <ele>436.07</ele>
        <time>2019-04-27T16:07:17Z</time>
      </trkpt>
      <trkpt lat="46.07121" lon="5.48494">
        <ele>438.285</ele>
        <time>2019-04-27T16:07:29Z</time>
      </trkpt>
      <trkpt lat="46.07196" lon="5.48754">
        <ele>487.089</ele>
        <time>2019-04-27T16:09:46Z</time>
      </trkpt>
      <trkpt lat="46.0718" lon="5.48733">
        <ele>486.417</ele>
        <time>2019-04-27T16:10:57Z</time>
      </trkpt>
      <trkpt lat="46.07177" lon="5.4878">
        <ele>493.708</ele>
        <time>2019-04-27T16:11:23Z</time>
      </trkpt>
      <trkpt lat="46.07186" lon="5.48728">
        <ele>493.781</ele>
        <time>2019-04-27T16:12:31Z</time>
      </trkpt>
      <trkpt lat="46.07183" lon="5.48767">
        <ele>489.513</ele>
        <time>2019-04-27T16:13:43Z</time>
      </trkpt>
      <trkpt lat="46.07197" lon="5.48741">
        <ele>485.085</ele>
        <time>2019-04-27T16:15:00Z</time>
      </trkpt>
      <trkpt lat="46.07228" lon="5.48836">
        <ele>503.832</ele>
        <time>2019-04-27T16:16:33Z</time>
      </trkpt>
      <trkpt lat="46.07233" lon="5.48799">
        <ele>503.318</ele>
        <time>2019-04-27T16:17:25Z</time>
      </trkpt>
      <trkpt lat="46.07266" lon="5.48877">
        <ele>514.435</ele>
        <time>2019-04-27T16:19:43Z</time>
      </trkpt>
      <trkpt lat="46.07206" lon="5.48895">
        <ele>537.93</ele>
        <time>2019-04-27T16:20:04Z</time>
      </trkpt>
      <trkpt lat="46.07186" lon="5.48964">
        <ele>568.019</ele>
        <time>2019-04-27T16:21:18Z</time>
      </trkpt>
      <trkpt lat="46.07233" lon="5.48991">
        <ele>586.635</ele>
        <time>2019-04-27T16:22:24Z</time>
      </trkpt>
      <trkpt lat="46.0717" lon="5.49035">
        <ele>613.886</ele>
        <time>2019-04-27T16:23:24Z</time>
      </trkpt>
      <trkpt lat="46.07145" lon="5.49117">
        <ele>639.314</ele>
        <time>2019-04-27T16:23:45Z</time>
      </trkpt>
      <trkpt lat="46.07099" lon="5.49133">
        <ele>649.808</ele>
        <time>2019-04-27T16:24:02Z</time>
      </trkpt>
      <trkpt lat="46.07085" lon="5.49184">
        <ele>658.186</ele>
        <time>2019-04-27T16:24:23Z</time>
      </trkpt>
      <trkpt lat="46.07178" lon="5.49297">
        <ele>697.118</ele>
        <time>2019-04-27T16:25:31Z</time>
      </trkpt>
      <trkpt lat="46.07156" lon="5.49296">
        <ele>697.08</ele>
        <time>2019-04-27T16:25:41Z</time>
      </trkpt>
      <trkpt lat="46.07191" lon="5.49406">
        <ele>704.757</ele>
        <time>2019-04-27T16:26:58Z</time>
      </trkpt>
      <trkpt lat="46.07344" lon="5.49584">
        <ele>759.153</ele>
        <time>2019-04-27T16:27:46Z</time>
      </trkpt>
      <trkpt lat="46.07387" lon="5.4955">
        <ele>791.53</ele>
        <time>2019-04-27T16:30:48Z</time>
      </trkpt>
      <trkpt lat="46.07354" lon="5.49551">
        <ele>784.665</ele>
        <time>2019-04-27T16:32:03Z</time>
      </trkpt>
      <trkpt lat="46.0737" lon="5.49522">
        <ele>794.064</ele>
        <time>2019-04-27T16:34:09Z</time>
      </trkpt>
      <trkpt lat="46.07361" lon="5.49565">
        <ele>785.294</ele>
        <time>2019-04-27T16:35:02Z</time>
      </trkpt>
      <trkpt lat="46.0736" lon="5.49507">
        <ele>791.757</ele>
        <time>2019-04-27T16:36:52Z</time>
      </trkpt>
      <trkpt lat="46.07382" lon="5.49526">
        <ele>797.822</ele>
        <time>2019-04-27T16:38:46Z</time>
      </trkpt>
      <trkpt lat="46.07405" lon="5.49492">
        <ele>809.908</ele>
        <time>2019-04-27T16:41:05Z</time>
      </trkpt>
      <trkpt lat="46.07549" lon="5.49698">
        <ele>852.152</ele>
        <time>2019-04-27T16:42:16Z</time>
      </trkpt>
      <trkpt lat="46.07551" lon="5.49812">
        <ele>862.844</ele>
        <time>2019-04-27T16:42:34Z</time>
      </trkpt>
      <trkpt lat="46.07604" lon="5.49921">
        <ele>870.776</ele>
        <time>2019-04-27T16:42:51Z</time>
      </trkpt>
      <trkpt lat="46.0786" lon="5.4984">
        <ele>885.173</ele>
        <time>2019-04-27T16:43:25Z</time>
      </trkpt>
      <trkpt lat="46.07973" lon="5.50003">
        <ele>880.059</ele>
        <time>2019-04-27T16:43:47Z</time>
      </trkpt>
      <trkpt lat="46.08069" lon="5.50021">
        <ele>878.426</ele>
        <time>2019-04-27T16:44:02Z</time>
      </trkpt>
      <trkpt lat="46.08137" lon="5.49987">
        <ele>877.261</ele>
        <time>2019-04-27T16:44:12Z</time>
      </trkpt>
      <trkpt lat="46.08621" lon="5.49965">
        <ele>836.52</ele>
        <time>2019-04-27T16:45:10Z</time>
      </trkpt>
      <trkpt lat="46.0869" lon="5.50085">
        <ele>831.778</ele>
        <time>2019-04-27T16:45:19Z</time>
      </trkpt>
      <trkpt lat="46.08775" lon="5.50124">
        <ele>820.733</ele>
        <time>2019-04-27T16:45:32Z</time>
      </trkpt>
      <trkpt lat="46.08719" lon="5.50206">
        <ele>821.026</ele>
        <time>2019-04-27T16:45:44Z</time>
      </trkpt>
      <trkpt lat="46.08706" lon="5.50347">
        <ele>824.208</ele>
        <time>2019-04-27T16:45:57Z</time>
      </trkpt>
      <trkpt lat="46.09051" lon="5.50735">
        <ele>815.69</ele>
        <time>2019-04-27T16:46:40Z</time>
      </trkpt>
      <trkpt lat="46.0908" lon="5.5102">
        <ele>809.312</ele>
        <time>2019-04-27T16:46:57Z</time>
      </trkpt>
      <trkpt lat="46.0902" lon="5.51213">
        <ele>795.724</ele>
        <time>2019-04-27T16:47:24Z</time>
      </trkpt>
      <trkpt lat="46.09013" lon="5.51095">
        <ele>805.091</ele>
        <time>2019-04-27T16:47:38Z</time>
      </trkpt>
      <trkpt lat="46.08929" lon="5.50918">
        <ele>841.787</ele>
        <time>2019-04-27T16:48:09Z</time>
      </trkpt>
      <trkpt lat="46.08703" lon="5.50826">
        <ele>891.744</ele>
        <time>2019-04-27T16:48:35Z</time>
      </trkpt>
      <trkpt lat="46.0866" lon="5.50771">
        <ele>900.659</ele>
        <time>2019-04-27T16:48:43Z</time>
      </trkpt>
      <trkpt lat="46.0847" lon="5.5075">
        <ele>935.718</ele>
        <time>2019-04-27T16:49:02Z</time>
      </trkpt>
      <trkpt lat="46.08276" lon="5.50638">
        <ele>956.639</ele>
        <time>2019-04-27T16:51:56Z</time>
      </trkpt>
      <trkpt lat="46.0818" lon="5.50762">
        <ele>955.501</ele>
        <time>2019-04-27T16:52:08Z</time>
      </trkpt>
      <trkpt lat="46.07732" lon="5.50691">
        <ele>978.521</ele>
        <time>2019-04-27T16:52:35Z</time>
      </trkpt>
      <trkpt lat="46.07249" lon="5.50873">
        <ele>966.608</ele>
        <time>2019-04-27T16:53:02Z</time>
      </trkpt>
      <trkpt lat="46.07122" lon="5.50878">
        <ele>961.266</ele>
        <time>2019-04-27T16:53:09Z</time>
      </trkpt>
      <trkpt lat="46.06615" lon="5.51039">
        <ele>1008.178</ele>
        <time>2019-04-27T16:54:00Z</time>
      </trkpt>
      <trkpt lat="46.06417" lon="5.51226">
        <ele>992.41</ele>
        <time>2019-04-27T16:54:16Z</time>
      </trkpt>
      <trkpt lat="46.0607" lon="5.51303">
        <ele>979.177</ele>
        <time>2019-04-27T16:54:36Z</time>
      </trkpt>
      <trkpt lat="46.05996" lon="5.51274">
        <ele>977.083</ele>
        <time>2019-04-27T16:54:41Z</time>
      </trkpt>
      <trkpt lat="46.05822" lon="5.51308">
        <ele>981.22</ele>
        <time>2019-04-27T16:54:52Z</time>
      </trkpt>
      <trkpt lat="46.05601" lon="5.51216">
        <ele>955.495</ele>
        <time>2019-04-27T16:55:08Z</time>
      </trkpt>
      <trkpt lat="46.05634" lon="5.51298">
        <ele>943.634</ele>
        <time>2019-04-27T16:55:20Z</time>
      </trkpt>
      <trkpt lat="46.05527" lon="5.51508">
        <ele>880.671</ele>
        <time>2019-04-27T16:56:07Z</time>
      </trkpt>
      <trkpt lat="46.05351" lon="5.51718">
        <ele>817.541</ele>
        <time>2019-04-27T16:56:43Z</time>
      </trkpt>
      <trkpt lat="46.05186" lon="5.51774">
        <ele>776.415</ele>
        <time>2019-04-27T16:57:12Z</time>
      </trkpt>
      <trkpt lat="46.05291" lon="5.51922">
        <ele>732.208</ele>
        <time>2019-04-27T16:57:35Z</time>
      </trkpt>
      <trkpt lat="46.05158" lon="5.51967">
        <ele>712.56</ele>
        <time>2019-04-27T16:57:52Z</time>
      </trkpt>
      <trkpt lat="46.05285" lon="5.52012">
        <ele>699.412</ele>
        <time>2019-04-27T16:58:03Z</time>
      </trkpt>
      <trkpt lat="46.05271" lon="5.52287">
        <ele>666.244</ele>
        <time>2019-04-27T16:58:25Z</time>
      </trkpt>
      <trkpt lat="46.05323" lon="5.52491">
        <ele>661.061</ele>
        <time>2019-04-27T16:58:40Z</time>
      </trkpt>
      <trkpt lat="46.0529" lon="5.52587">
        <ele>660.717</ele>
        <time>2019-04-27T16:58:47Z</time>
      </trkpt>
      <trkpt lat="46.0506" lon="5.52668">
        <ele>670.224</ele>
        <time>2019-04-27T16:59:04Z</time>
      </trkpt>
      <trkpt lat="46.05016" lon="5.52937">
        <ele>679.219</ele>
        <time>2019-04-27T16:59:20Z</time>
      </trkpt>
      <trkpt lat="46.04754" lon="5.52895">
        <ele>678.218</ele>
        <time>2019-04-27T16:59:35Z</time>
      </trkpt>
      <trkpt lat="46.0439" lon="5.53049">
        <ele>682.376</ele>
        <time>2019-04-27T16:59:56Z</time>
      </trkpt>
      <trkpt lat="46.04283" lon="5.53055">
        <ele>683.69</ele>
        <time>2019-04-27T17:00:01Z</time>
      </trkpt>
      <trkpt lat="46.04083" lon="5.5297">
        <ele>689.019</ele>
        <time>2019-04-27T17:00:12Z</time>
      </trkpt>
      <trkpt lat="46.03939" lon="5.52772">
        <ele>685.608</ele>
        <time>2019-04-27T17:00:25Z</time>
      </trkpt>
      <trkpt lat="46.0376" lon="5.52773">
        <ele>685.19</ele>
        <time>2019-04-27T17:00:46Z</time>
      </trkpt>
      <trkpt lat="46.03375" lon="5.53227">
        <ele>725.812</ele>
        <time>2019-04-27T17:01:24Z</time>
      </trkpt>
      <trkpt lat="46.03348" lon="5.53376">
        <ele>754.884</ele>
        <time>2019-04-27T17:01:35Z</time>
      </trkpt>
      <trkpt lat="46.03082" lon="5.53862">
        <ele>847.021</ele>
        <time>2019-04-27T17:02:12Z</time>
      </trkpt>
      <trkpt lat="46.02996" lon="5.53946">
        <ele>863.357</ele>
        <time>2019-04-27T17:02:21Z</time>
      </trkpt>
      <trkpt lat="46.02855" lon="5.54213">
        <ele>895.194</ele>
        <time>2019-04-27T17:02:56Z</time>
      </trkpt>
      <trkpt lat="46.02756" lon="5.54508">
        <ele>923.259</ele>
        <time>2019-04-27T17:03:38Z</time>
      </trkpt>
      <trkpt lat="46.02781" lon="5.54788">
        <ele>925.428</ele>
        <time>2019-04-27T17:04:08Z</time>
      </trkpt>
      <trkpt lat="46.02647" lon="5.55104">
        <ele>911.618</ele>
        <time>2019-04-27T17:04:52Z</time>
      </trkpt>
      <trkpt lat="46.0272" lon="5.55274">
        <ele>906.298</ele>
        <time>2019-04-27T17:05:06Z</time>
      </trkpt>
      <trkpt lat="46.0274" lon="5.55479">
        <ele>891.517</ele>
        <time>2019-04-27T17:05:16Z</time>
      </trkpt>
      <trkpt lat="46.027" lon="5.55829">
        <ele>900.008</ele>
        <time>2019-04-27T17:05:31Z</time>
      </trkpt>
      <trkpt lat="46.02511" lon="5.56307">
        <ele>899.644</ele>
        <time>2019-04-27T17:05:55Z</time>
      </trkpt>
      <trkpt lat="46.02272" lon="5.56516">
        <ele>899.296</ele>
        <time>2019-04-27T17:06:14Z</time>
      </trkpt>
      <trkpt lat="46.0215" lon="5.56555">
        <ele>904.948</ele>
        <time>2019-04-27T17:06:22Z</time>
      </trkpt>
      <trkpt lat="46.01757" lon="5.56456">
        <ele>917.885</ele>
        <time>2019-04-27T17:06:44Z</time>
      </trkpt>
      <trkpt lat="46.0152" lon="5.56171">
        <ele>910.771</ele>
        <time>2019-04-27T17:07:04Z</time>
      </trkpt>
      <trkpt lat="46.01495" lon="5.56272">
        <ele>893.538</ele>
        <time>2019-04-27T17:07:20Z</time>
      </trkpt>
      <trkpt lat="46.01392" lon="5.56323">
        <ele>859.983</ele>
        <time>2019-04-27T17:07:42Z</time>
      </trkpt>
      <trkpt lat="46.01277" lon="5.56509">
        <ele>840.142</ele>
        <time>2019-04-27T17:08:02Z</time>
      </trkpt>
      <trkpt lat="46.01271" lon="5.56594">
        <ele>841.298</ele>
        <time>2019-04-27T17:08:10Z</time>
      </trkpt>
      <trkpt lat="46.01213" lon="5.56665">
        <ele>840.415</ele>
        <time>2019-04-27T17:08:19Z</time>
      </trkpt>
      <trkpt lat="46.01183" lon="5.56769">
        <ele>840.626</ele>
        <time>2019-04-27T17:08:31Z</time>
      </trkpt>
      <trkpt lat="46.01223" lon="5.56896">
        <ele>834.308</ele>
        <time>2019-04-27T17:08:47Z</time>
      </trkpt>
      <trkpt lat="46.01146" lon="5.57104">
        <ele>820.412</ele>
        <time>2019-04-27T17:09:03Z</time>
      </trkpt>
      <trkpt lat="46.01303" lon="5.57195">
        <ele>816.874</ele>
        <time>2019-04-27T17:09:14Z</time>
      </trkpt>
      <trkpt lat="46.01384" lon="5.57353">
        <ele>813.616</ele>
        <time>2019-04-27T17:09:22Z</time>
      </trkpt>
      <trkpt lat="46.01461" lon="5.57743">
        <ele>815.623</ele>
        <time>2019-04-27T17:09:36Z</time>
      </trkpt>
      <trkpt lat="46.01616" lon="5.58026">
        <ele>805.959</ele>
        <time>2019-04-27T17:09:54Z</time>
      </trkpt>
      <trkpt lat="46.01398" lon="5.58076">
        <ele>810.146</ele>
        <time>2019-04-27T17:10:11Z</time>
      </trkpt>
      <trkpt lat="46.01003" lon="5.57895">
        <ele>817.961</ele>
        <time>2019-04-27T17:10:31Z</time>
      </trkpt>
      <trkpt lat="46.00899" lon="5.57731">
        <ele>824.38</ele>
        <time>2019-04-27T17:10:40Z</time>
      </trkpt>
      <trkpt lat="46.00822" lon="5.57688">
        <ele>824.525</ele>
        <time>2019-04-27T17:10:45Z</time>
      </trkpt>
      <trkpt lat="46.0073" lon="5.57714">
        <ele>826.726</ele>
        <time>2019-04-27T17:10:50Z</time>
      </trkpt>
      <trkpt lat="46.00641" lon="5.57839">
        <ele>826.208</ele>
        <time>2019-04-27T17:10:57Z</time>
      </trkpt>
      <trkpt lat="46.00596" lon="5.57849">
        <ele>823.908</ele>
        <time>2019-04-27T17:11:00Z</time>
      </trkpt>
      <trkpt lat="46.00293" lon="5.57706">
        <ele>825.645</ele>
        <time>2019-04-27T17:11:19Z</time>
      </trkpt>
      <trkpt lat="46.00256" lon="5.57389">
        <ele>821.577</ele>
        <time>2019-04-27T17:11:38Z</time>
      </trkpt>
      <trkpt lat="46.00171" lon="5.57302">
        <ele>816.449</ele>
        <time>2019-04-27T17:11:48Z</time>
      </trkpt>
      <trkpt lat="46.00123" lon="5.57043">
        <ele>816.866</ele>
        <time>2019-04-27T17:12:00Z</time>
      </trkpt>
      <trkpt lat="45.99978" lon="5.56791">
        <ele>819.372</ele>
        <time>2019-04-27T17:12:13Z</time>
      </trkpt>
      <trkpt lat="45.99896" lon="5.56753">
        <ele>821.079</ele>
        <time>2019-04-27T17:12:20Z</time>
      </trkpt>
      <trkpt lat="45.99749" lon="5.56545">
        <ele>816.754</ele>
        <time>2019-04-27T17:12:46Z</time>
      </trkpt>
      <trkpt lat="45.99441" lon="5.56474">
        <ele>816.813</ele>
        <time>2019-04-27T17:13:17Z</time>
      </trkpt>
      <trkpt lat="45.99364" lon="5.56373">
        <ele>818.428</ele>
        <time>2019-04-27T17:13:24Z</time>
      </trkpt>
      <trkpt lat="45.99324" lon="5.56245">
        <ele>821.389</ele>
        <time>2019-04-27T17:13:30Z</time>
      </trkpt>
      <trkpt lat="45.99242" lon="5.56139">
        <ele>824.917</ele>
        <time>2019-04-27T17:13:36Z</time>
      </trkpt>
      <trkpt lat="45.99188" lon="5.55967">
        <ele>830.708</ele>
        <time>2019-04-27T17:13:43Z</time>
      </trkpt>
      <trkpt lat="45.99055" lon="5.55897">
        <ele>826.065</ele>
        <time>2019-04-27T17:13:51Z</time>
      </trkpt>
      <trkpt lat="45.98905" lon="5.5573">
        <ele>828.397</ele>
        <time>2019-04-27T17:14:00Z</time>
      </trkpt>
      <trkpt lat="45.98772" lon="5.55809">
        <ele>823.729</ele>
        <time>2019-04-27T17:14:15Z</time>
      </trkpt>
      <trkpt lat="45.98578" lon="5.55713">
        <ele>820.636</ele>
        <time>2019-04-27T17:14:36Z</time>
      </trkpt>
      <trkpt lat="45.97886" lon="5.55866">
        <ele>819.322</ele>
        <time>2019-04-27T17:15:45Z</time>
      </trkpt>
      <trkpt lat="45.97761" lon="5.55852">
        <ele>811.099</ele>
        <time>2019-04-27T17:15:57Z</time>
      </trkpt>
      <trkpt lat="45.97688" lon="5.56119">
        <ele>792.354</ele>
        <time>2019-04-27T17:16:20Z</time>
      </trkpt>
      <trkpt lat="45.9763" lon="5.56113">
        <ele>791.853</ele>
        <time>2019-04-27T17:16:26Z</time>
      </trkpt>
      <trkpt lat="45.97535" lon="5.55995">
        <ele>790.119</ele>
        <time>2019-04-27T17:16:38Z</time>
      </trkpt>
      <trkpt lat="45.96972" lon="5.5593">
        <ele>786.609</ele>
        <time>2019-04-27T17:17:09Z</time>
      </trkpt>
      <trkpt lat="45.96958" lon="5.56039">
        <ele>785.119</ele>
        <time>2019-04-27T17:17:15Z</time>
      </trkpt>
      <trkpt lat="45.96993" lon="5.56219">
        <ele>787.508</ele>
        <time>2019-04-27T17:17:27Z</time>
      </trkpt>
      <trkpt lat="45.97092" lon="5.56254">
        <ele>791.954</ele>
        <time>2019-04-27T17:17:38Z</time>
      </trkpt>
      <trkpt lat="45.97147" lon="5.56328">
        <ele>794.076</ele>
        <time>2019-04-27T17:17:46Z</time>
      </trkpt>
      <trkpt lat="45.97184" lon="5.56568">
        <ele>801.848</ele>
        <time>2019-04-27T17:17:59Z</time>
      </trkpt>
      <trkpt lat="45.97182" lon="5.56789">
        <ele>807.585</ele>
        <time>2019-04-27T17:18:11Z</time>
      </trkpt>
      <trkpt lat="45.97224" lon="5.56926">
        <ele>802.431</ele>
        <time>2019-04-27T17:18:20Z</time>
      </trkpt>
      <trkpt lat="45.97207" lon="5.57027">
        <ele>800.258</ele>
        <time>2019-04-27T17:18:27Z</time>
      </trkpt>
      <trkpt lat="45.97168" lon="5.57052">
        <ele>805.363</ele>
        <time>2019-04-27T17:18:30Z</time>
      </trkpt>
      <trkpt lat="45.9703" lon="5.56951">
        <ele>801.682</ele>
        <time>2019-04-27T17:18:42Z</time>
      </trkpt>
      <trkpt lat="45.96774" lon="5.56935">
        <ele>775.142</ele>
        <time>2019-04-27T17:19:09Z</time>
      </trkpt>
      <trkpt lat="45.96825" lon="5.57059">
        <ele>766.322</ele>
        <time>2019-04-27T17:19:17Z</time>
      </trkpt>
      <trkpt lat="45.96771" lon="5.5712">
        <ele>755.914</ele>
        <time>2019-04-27T17:19:26Z</time>
      </trkpt>
      <trkpt lat="45.96831" lon="5.57382">
        <ele>750.408</ele>
        <time>2019-04-27T17:19:41Z</time>
      </trkpt>
      <trkpt lat="45.96919" lon="5.57443">
        <ele>741.047</ele>
        <time>2019-04-27T17:19:50Z</time>
      </trkpt>
      <trkpt lat="45.9685" lon="5.5747">
        <ele>731.549</ele>
        <time>2019-04-27T17:19:59Z</time>
      </trkpt>
      <trkpt lat="45.96842" lon="5.5755">
        <ele>725.991</ele>
        <time>2019-04-27T17:20:07Z</time>
      </trkpt>
      <trkpt lat="45.96712" lon="5.57707">
        <ele>729.728</ele>
        <time>2019-04-27T17:20:28Z</time>
      </trkpt>
      <trkpt lat="45.96712" lon="5.57755">
        <ele>733.134</ele>
        <time>2019-04-27T17:20:32Z</time>
      </trkpt>
      <trkpt lat="45.96755" lon="5.57796">
        <ele>738.081</ele>
        <time>2019-04-27T17:20:37Z</time>
      </trkpt>
      <trkpt lat="45.96653" lon="5.57859">
        <ele>747.636</ele>
        <time>2019-04-27T17:20:48Z</time>
      </trkpt>
      <trkpt lat="45.96335" lon="5.57907">
        <ele>781.655</ele>
        <time>2019-04-27T17:21:10Z</time>
      </trkpt>
      <trkpt lat="45.96108" lon="5.58124">
        <ele>782.661</ele>
        <time>2019-04-27T17:21:30Z</time>
      </trkpt>
      <trkpt lat="45.96014" lon="5.58157">
        <ele>786.721</ele>
        <time>2019-04-27T17:21:38Z</time>
      </trkpt>
      <trkpt lat="45.95598" lon="5.58597">
        <ele>793.813</ele>
        <time>2019-04-27T17:22:13Z</time>
      </trkpt>
      <trkpt lat="45.95294" lon="5.58776">
        <ele>789.408</ele>
        <time>2019-04-27T17:22:46Z</time>
      </trkpt>
      <trkpt lat="45.94751" lon="5.5889">
        <ele>806.919</ele>
        <time>2019-04-27T17:25:43Z</time>
      </trkpt>
      <trkpt lat="45.94639" lon="5.58994">
        <ele>814.561</ele>
        <time>2019-04-27T17:25:59Z</time>
      </trkpt>
      <trkpt lat="45.9426" lon="5.5908">
        <ele>822.873</ele>
        <time>2019-04-27T17:26:27Z</time>
      </trkpt>
      <trkpt lat="45.94141" lon="5.59159">
        <ele>817.63</ele>
        <time>2019-04-27T17:26:36Z</time>
      </trkpt>
      <trkpt lat="45.94047" lon="5.59283">
        <ele>798.796</ele>
        <time>2019-04-27T17:26:47Z</time>
      </trkpt>
      <trkpt lat="45.94036" lon="5.59413">
        <ele>785.423</ele>
        <time>2019-04-27T17:26:57Z</time>
      </trkpt>
      <trkpt lat="45.939" lon="5.59438">
        <ele>784.738</ele>
        <time>2019-04-27T17:27:14Z</time>
      </trkpt>
      <trkpt lat="45.93837" lon="5.59604">
        <ele>781.637</ele>
        <time>2019-04-27T17:27:25Z</time>
      </trkpt>
      <trkpt lat="45.93881" lon="5.59767">
        <ele>775.443</ele>
        <time>2019-04-27T17:27:34Z</time>
      </trkpt>
      <trkpt lat="45.93867" lon="5.59828">
        <ele>774.264</ele>
        <time>2019-04-27T17:27:37Z</time>
      </trkpt>
      <trkpt lat="45.93975" lon="5.60081">
        <ele>771.21</ele>
        <time>2019-04-27T17:27:50Z</time>
      </trkpt>
      <trkpt lat="45.9422" lon="5.60373">
        <ele>774.808</ele>
        <time>2019-04-27T17:28:13Z</time>
      </trkpt>
      <trkpt lat="45.9427" lon="5.60566">
        <ele>779.297</ele>
        <time>2019-04-27T17:28:20Z</time>
      </trkpt>
      <trkpt lat="45.94338" lon="5.60671">
        <ele>784.849</ele>
        <time>2019-04-27T17:28:26Z</time>
      </trkpt>
      <trkpt lat="45.94402" lon="5.60641">
        <ele>786.871</ele>
        <time>2019-04-27T17:28:32Z</time>
      </trkpt>
      <trkpt lat="45.94484" lon="5.60705">
        <ele>793.448</ele>
        <time>2019-04-27T17:28:41Z</time>
      </trkpt>
      <trkpt lat="45.94222" lon="5.60726">
        <ele>804.984</ele>
        <time>2019-04-27T17:29:06Z</time>
      </trkpt>
      <trkpt lat="45.93945" lon="5.60678">
        <ele>828.281</ele>
        <time>2019-04-27T17:29:29Z</time>
      </trkpt>
      <trkpt lat="45.93735" lon="5.60759">
        <ele>856.316</ele>
        <time>2019-04-27T17:29:46Z</time>
      </trkpt>
      <trkpt lat="45.93715" lon="5.60829">
        <ele>860.865</ele>
        <time>2019-04-27T17:29:54Z</time>
      </trkpt>
      <trkpt lat="45.93962" lon="5.60851">
        <ele>859.289</ele>
        <time>2019-04-27T17:30:11Z</time>
      </trkpt>
      <trkpt lat="45.9419" lon="5.60799">
        <ele>857.406</ele>
        <time>2019-04-27T17:30:25Z</time>
      </trkpt>
      <trkpt lat="45.94269" lon="5.60843">
        <ele>859.926</ele>
        <time>2019-04-27T17:30:29Z</time>
      </trkpt>
      <trkpt lat="45.94366" lon="5.60839">
        <ele>862.308</ele>
        <time>2019-04-27T17:30:35Z</time>
      </trkpt>
      <trkpt lat="45.9452" lon="5.60957">
        <ele>870.641</ele>
        <time>2019-04-27T17:30:44Z</time>
      </trkpt>
      <trkpt lat="45.94612" lon="5.60965">
        <ele>871.553</ele>
        <time>2019-04-27T17:30:50Z</time>
      </trkpt>
      <trkpt lat="45.94721" lon="5.6104">
        <ele>877.715</ele>
        <time>2019-04-27T17:33:04Z</time>
      </trkpt>
      <trkpt lat="45.94704" lon="5.61028">
        <ele>876.942</ele>
        <time>2019-04-27T17:38:00Z</time>
      </trkpt>
    </trkseg>
  </trk>
  <trk>
    <name><![CDATA[Seyssel - Chanaz]]></name>
    <desc><![CDATA[name=Seyssel - Chanaz
cmt=
desc=
time=2021-07-27T13:23:15Z]]></desc>
    <extensions>
      <line xmlns="http://www.topografix.com/GPX/gpx_style/0/2">
        <color>FFFF00</color>
        <width>4</width>
      </line>
    </extensions>
    <trkseg>
      <trkpt lat="45.95826" lon="5.8337">
        <ele>255.423</ele>
        <time>2021-07-27T13:23:15Z</time>
      </trkpt>
      <trkpt lat="45.95825" lon="5.83397">
        <ele>254.683</ele>
        <time>2021-07-27T13:24:51Z</time>
      </trkpt>
      <trkpt lat="45.9577" lon="5.83403">
        <ele>254.611</ele>
        <time>2021-07-27T13:25:01Z</time>
      </trkpt>
      <trkpt lat="45.95765" lon="5.83378">
        <ele>254.608</ele>
        <time>2021-07-27T13:25:07Z</time>
      </trkpt>
      <trkpt lat="45.95754" lon="5.83379">
        <ele>254.619</ele>
        <time>2021-07-27T13:25:11Z</time>
      </trkpt>
      <trkpt lat="45.95738" lon="5.83422">
        <ele>254.621</ele>
        <time>2021-07-27T13:25:22Z</time>
      </trkpt>
      <trkpt lat="45.95418" lon="5.83719">
        <ele>247.945</ele>
        <time>2021-07-27T13:26:01Z</time>
      </trkpt>
      <trkpt lat="45.95394" lon="5.83715">
        <ele>251.923</ele>
        <time>2021-07-27T13:26:04Z</time>
      </trkpt>
      <trkpt lat="45.95352" lon="5.83643">
        <ele>253.478</ele>
        <time>2021-07-27T13:26:09Z</time>
      </trkpt>
      <trkpt lat="45.9514" lon="5.83129">
        <ele>263.254</ele>
        <time>2021-07-27T13:26:30Z</time>
      </trkpt>
      <trkpt lat="45.95144" lon="5.8298">
        <ele>269.133</ele>
        <time>2021-07-27T13:26:35Z</time>
      </trkpt>
      <trkpt lat="45.95129" lon="5.82898">
        <ele>269.864</ele>
        <time>2021-07-27T13:26:38Z</time>
      </trkpt>
      <trkpt lat="45.95082" lon="5.82833">
        <ele>269.892</ele>
        <time>2021-07-27T13:26:41Z</time>
      </trkpt>
      <trkpt lat="45.94936" lon="5.82694">
        <ele>268.173</ele>
        <time>2021-07-27T13:26:49Z</time>
      </trkpt>
      <trkpt lat="45.94871" lon="5.82553">
        <ele>278.02</ele>
        <time>2021-07-27T13:26:54Z</time>
      </trkpt>
      <trkpt lat="45.94825" lon="5.82398">
        <ele>290.008</ele>
        <time>2021-07-27T13:26:59Z</time>
      </trkpt>
      <trkpt lat="45.94715" lon="5.82201">
        <ele>295.046</ele>
        <time>2021-07-27T13:27:07Z</time>
      </trkpt>
      <trkpt lat="45.9466" lon="5.8184">
        <ele>314.718</ele>
        <time>2021-07-27T13:27:18Z</time>
      </trkpt>
      <trkpt lat="45.94568" lon="5.81579">
        <ele>326.492</ele>
        <time>2021-07-27T13:27:27Z</time>
      </trkpt>
      <trkpt lat="45.9453" lon="5.81519">
        <ele>319.44</ele>
        <time>2021-07-27T13:27:30Z</time>
      </trkpt>
      <trkpt lat="45.94482" lon="5.81481">
        <ele>326.685</ele>
        <time>2021-07-27T13:27:33Z</time>
      </trkpt>
      <trkpt lat="45.93968" lon="5.81253">
        <ele>337.531</ele>
        <time>2021-07-27T13:28:16Z</time>
      </trkpt>
      <trkpt lat="45.93735" lon="5.81191">
        <ele>312.78</ele>
        <time>2021-07-27T13:28:33Z</time>
      </trkpt>
      <trkpt lat="45.93644" lon="5.812">
        <ele>317.431</ele>
        <time>2021-07-27T13:28:40Z</time>
      </trkpt>
      <trkpt lat="45.93392" lon="5.81169">
        <ele>330.281</ele>
        <time>2021-07-27T13:28:53Z</time>
      </trkpt>
      <trkpt lat="45.93233" lon="5.81084">
        <ele>316.961</ele>
        <time>2021-07-27T13:29:06Z</time>
      </trkpt>
      <trkpt lat="45.93246" lon="5.81008">
        <ele>322.917</ele>
        <time>2021-07-27T13:29:14Z</time>
      </trkpt>
      <trkpt lat="45.93272" lon="5.80988">
        <ele>317.308</ele>
        <time>2021-07-27T13:29:18Z</time>
      </trkpt>
      <trkpt lat="45.9334" lon="5.80991">
        <ele>318.695</ele>
        <time>2021-07-27T13:29:25Z</time>
      </trkpt>
      <trkpt lat="45.93445" lon="5.80949">
        <ele>332.057</ele>
        <time>2021-07-27T13:29:34Z</time>
      </trkpt>
      <trkpt lat="45.93572" lon="5.80939">
        <ele>350.151</ele>
        <time>2021-07-27T13:29:46Z</time>
      </trkpt>
      <trkpt lat="45.9376" lon="5.80889">
        <ele>359.019</ele>
        <time>2021-07-27T13:30:12Z</time>
      </trkpt>
      <trkpt lat="45.93726" lon="5.80888">
        <ele>376.084</ele>
        <time>2021-07-27T13:30:24Z</time>
      </trkpt>
      <trkpt lat="45.9363" lon="5.8081">
        <ele>376.09</ele>
        <time>2021-07-27T13:30:40Z</time>
      </trkpt>
      <trkpt lat="45.93542" lon="5.80767">
        <ele>391.349</ele>
        <time>2021-07-27T13:30:53Z</time>
      </trkpt>
      <trkpt lat="45.93428" lon="5.80659">
        <ele>404.29</ele>
        <time>2021-07-27T13:31:14Z</time>
      </trkpt>
      <trkpt lat="45.93309" lon="5.80655">
        <ele>421.824</ele>
        <time>2021-07-27T13:31:31Z</time>
      </trkpt>
      <trkpt lat="45.93261" lon="5.80635">
        <ele>435.704</ele>
        <time>2021-07-27T13:31:38Z</time>
      </trkpt>
      <trkpt lat="45.93181" lon="5.80532">
        <ele>438.414</ele>
        <time>2021-07-27T13:31:51Z</time>
      </trkpt>
      <trkpt lat="45.93155" lon="5.80415">
        <ele>452.908</ele>
        <time>2021-07-27T13:32:05Z</time>
      </trkpt>
      <trkpt lat="45.93136" lon="5.80406">
        <ele>460.919</ele>
        <time>2021-07-27T13:32:08Z</time>
      </trkpt>
      <trkpt lat="45.93076" lon="5.80429">
        <ele>462.311</ele>
        <time>2021-07-27T13:32:17Z</time>
      </trkpt>
      <trkpt lat="45.92905" lon="5.80264">
        <ele>507.955</ele>
        <time>2021-07-27T13:32:46Z</time>
      </trkpt>
      <trkpt lat="45.92914" lon="5.80253">
        <ele>501.893</ele>
        <time>2021-07-27T13:32:50Z</time>
      </trkpt>
      <trkpt lat="45.93012" lon="5.80283">
        <ele>513.038</ele>
        <time>2021-07-27T13:33:03Z</time>
      </trkpt>
      <trkpt lat="45.93076" lon="5.80257">
        <ele>508.344</ele>
        <time>2021-07-27T13:33:13Z</time>
      </trkpt>
      <trkpt lat="45.9308" lon="5.80242">
        <ele>512.053</ele>
        <time>2021-07-27T13:33:17Z</time>
      </trkpt>
      <trkpt lat="45.93" lon="5.80217">
        <ele>528.654</ele>
        <time>2021-07-27T13:33:29Z</time>
      </trkpt>
      <trkpt lat="45.92958" lon="5.80133">
        <ele>539.595</ele>
        <time>2021-07-27T13:33:40Z</time>
      </trkpt>
      <trkpt lat="45.92658" lon="5.79992">
        <ele>584.149</ele>
        <time>2021-07-27T13:34:18Z</time>
      </trkpt>
      <trkpt lat="45.92593" lon="5.79991">
        <ele>584.723</ele>
        <time>2021-07-27T13:34:27Z</time>
      </trkpt>
      <trkpt lat="45.92436" lon="5.79846">
        <ele>614.808</ele>
        <time>2021-07-27T13:34:52Z</time>
      </trkpt>
      <trkpt lat="45.92416" lon="5.79775">
        <ele>618.326</ele>
        <time>2021-07-27T13:35:00Z</time>
      </trkpt>
      <trkpt lat="45.92374" lon="5.79713">
        <ele>641.738</ele>
        <time>2021-07-27T13:35:11Z</time>
      </trkpt>
      <trkpt lat="45.92497" lon="5.79762">
        <ele>656.012</ele>
        <time>2021-07-27T13:35:35Z</time>
      </trkpt>
      <trkpt lat="45.92557" lon="5.79752">
        <ele>664.28</ele>
        <time>2021-07-27T13:35:47Z</time>
      </trkpt>
      <trkpt lat="45.92492" lon="5.79692">
        <ele>675.695</ele>
        <time>2021-07-27T13:36:00Z</time>
      </trkpt>
      <trkpt lat="45.92483" lon="5.79655">
        <ele>682.191</ele>
        <time>2021-07-27T13:36:08Z</time>
      </trkpt>
      <trkpt lat="45.92591" lon="5.79675">
        <ele>701.55</ele>
        <time>2021-07-27T13:36:23Z</time>
      </trkpt>
      <trkpt lat="45.92636" lon="5.79666">
        <ele>708.041</ele>
        <time>2021-07-27T13:36:30Z</time>
      </trkpt>
      <trkpt lat="45.92681" lon="5.79703">
        <ele>706.428</ele>
        <time>2021-07-27T13:36:37Z</time>
      </trkpt>
      <trkpt lat="45.92714" lon="5.79702">
        <ele>718.489</ele>
        <time>2021-07-27T13:36:42Z</time>
      </trkpt>
      <trkpt lat="45.9274" lon="5.79784">
        <ele>715.317</ele>
        <time>2021-07-27T13:36:54Z</time>
      </trkpt>
      <trkpt lat="45.92737" lon="5.79688">
        <ele>730.508</ele>
        <time>2021-07-27T13:37:07Z</time>
      </trkpt>
      <trkpt lat="45.92693" lon="5.79576">
        <ele>748.289</ele>
        <time>2021-07-27T13:37:20Z</time>
      </trkpt>
      <trkpt lat="45.92799" lon="5.79681">
        <ele>747.321</ele>
        <time>2021-07-27T13:37:43Z</time>
      </trkpt>
      <trkpt lat="45.92804" lon="5.79665">
        <ele>748.195</ele>
        <time>2021-07-27T13:37:45Z</time>
      </trkpt>
      <trkpt lat="45.92738" lon="5.79539">
        <ele>765.483</ele>
        <time>2021-07-27T13:38:00Z</time>
      </trkpt>
      <trkpt lat="45.92716" lon="5.7942">
        <ele>784.788</ele>
        <time>2021-07-27T13:38:12Z</time>
      </trkpt>
      <trkpt lat="45.92667" lon="5.7945">
        <ele>788.914</ele>
        <time>2021-07-27T13:38:22Z</time>
      </trkpt>
      <trkpt lat="45.92644" lon="5.79442">
        <ele>794.053</ele>
        <time>2021-07-27T13:38:26Z</time>
      </trkpt>
      <trkpt lat="45.92629" lon="5.79416">
        <ele>804.924</ele>
        <time>2021-07-27T13:38:30Z</time>
      </trkpt>
      <trkpt lat="45.92626" lon="5.7936">
        <ele>795.112</ele>
        <time>2021-07-27T13:38:38Z</time>
      </trkpt>
      <trkpt lat="45.92533" lon="5.79325">
        <ele>796.932</ele>
        <time>2021-07-27T13:38:50Z</time>
      </trkpt>
      <trkpt lat="45.92519" lon="5.79288">
        <ele>801.805</ele>
        <time>2021-07-27T13:38:57Z</time>
      </trkpt>
      <trkpt lat="45.92574" lon="5.79286">
        <ele>811.508</ele>
        <time>2021-07-27T13:39:05Z</time>
      </trkpt>
      <trkpt lat="45.92636" lon="5.79252">
        <ele>810.718</ele>
        <time>2021-07-27T13:39:13Z</time>
      </trkpt>
      <trkpt lat="45.92761" lon="5.79247">
        <ele>830.29</ele>
        <time>2021-07-27T13:39:29Z</time>
      </trkpt>
      <trkpt lat="45.9285" lon="5.79176">
        <ele>840.354</ele>
        <time>2021-07-27T13:39:43Z</time>
      </trkpt>
      <trkpt lat="45.92863" lon="5.79207">
        <ele>839.892</ele>
        <time>2021-07-27T13:39:49Z</time>
      </trkpt>
      <trkpt lat="45.92854" lon="5.79275">
        <ele>839.667</ele>
        <time>2021-07-27T13:39:56Z</time>
      </trkpt>
      <trkpt lat="45.92867" lon="5.79283">
        <ele>844.333</ele>
        <time>2021-07-27T13:40:00Z</time>
      </trkpt>
      <trkpt lat="45.92903" lon="5.79239">
        <ele>857.622</ele>
        <time>2021-07-27T13:40:10Z</time>
      </trkpt>
      <trkpt lat="45.92975" lon="5.7922">
        <ele>859.273</ele>
        <time>2021-07-27T13:40:19Z</time>
      </trkpt>
      <trkpt lat="45.93028" lon="5.79186">
        <ele>867.927</ele>
        <time>2021-07-27T13:40:27Z</time>
      </trkpt>
      <trkpt lat="45.93097" lon="5.79184">
        <ele>881.868</ele>
        <time>2021-07-27T13:40:40Z</time>
      </trkpt>
      <trkpt lat="45.931" lon="5.79167">
        <ele>874.914</ele>
        <time>2021-07-27T13:42:56Z</time>
      </trkpt>
      <trkpt lat="45.93037" lon="5.79064">
        <ele>875.308</ele>
        <time>2021-07-27T13:43:11Z</time>
      </trkpt>
      <trkpt lat="45.93002" lon="5.78874">
        <ele>894.839</ele>
        <time>2021-07-27T13:43:29Z</time>
      </trkpt>
      <trkpt lat="45.92982" lon="5.78842">
        <ele>896.551</ele>
        <time>2021-07-27T13:43:34Z</time>
      </trkpt>
      <trkpt lat="45.9266" lon="5.78815">
        <ele>911.575</ele>
        <time>2021-07-27T13:44:07Z</time>
      </trkpt>
      <trkpt lat="45.92478" lon="5.78766">
        <ele>935.813</ele>
        <time>2021-07-27T13:44:29Z</time>
      </trkpt>
      <trkpt lat="45.9244" lon="5.78737">
        <ele>934.928</ele>
        <time>2021-07-27T13:44:36Z</time>
      </trkpt>
      <trkpt lat="45.9241" lon="5.78736">
        <ele>940.374</ele>
        <time>2021-07-27T13:44:42Z</time>
      </trkpt>
      <trkpt lat="45.92396" lon="5.78677">
        <ele>957.073</ele>
        <time>2021-07-27T13:44:51Z</time>
      </trkpt>
      <trkpt lat="45.92372" lon="5.78671">
        <ele>950.194</ele>
        <time>2021-07-27T13:44:57Z</time>
      </trkpt>
      <trkpt lat="45.92431" lon="5.78631">
        <ele>961.553</ele>
        <time>2021-07-27T13:45:05Z</time>
      </trkpt>
      <trkpt lat="45.92467" lon="5.78519">
        <ele>970.704</ele>
        <time>2021-07-27T13:45:17Z</time>
      </trkpt>
      <trkpt lat="45.92492" lon="5.78489">
        <ele>969.014</ele>
        <time>2021-07-27T13:45:22Z</time>
      </trkpt>
      <trkpt lat="45.92632" lon="5.78423">
        <ele>984.008</ele>
        <time>2021-07-27T13:45:40Z</time>
      </trkpt>
      <trkpt lat="45.93086" lon="5.78395">
        <ele>1022.032</ele>
        <time>2021-07-27T13:46:34Z</time>
      </trkpt>
      <trkpt lat="45.93232" lon="5.7837">
        <ele>1046.254</ele>
        <time>2021-07-27T13:46:52Z</time>
      </trkpt>
      <trkpt lat="45.93356" lon="5.78308">
        <ele>1061.048</ele>
        <time>2021-07-27T13:47:08Z</time>
      </trkpt>
      <trkpt lat="45.93459" lon="5.78299">
        <ele>1059.846</ele>
        <time>2021-07-27T13:47:21Z</time>
      </trkpt>
      <trkpt lat="45.93736" lon="5.78196">
        <ele>1093.591</ele>
        <time>2021-07-27T13:47:57Z</time>
      </trkpt>
      <trkpt lat="45.93863" lon="5.78109">
        <ele>1116.897</ele>
        <time>2021-07-27T13:48:19Z</time>
      </trkpt>
      <trkpt lat="45.93736" lon="5.78101">
        <ele>1136.176</ele>
        <time>2021-07-27T13:48:41Z</time>
      </trkpt>
      <trkpt lat="45.93629" lon="5.78063">
        <ele>1138.427</ele>
        <time>2021-07-27T13:48:56Z</time>
      </trkpt>
      <trkpt lat="45.93477" lon="5.78055">
        <ele>1159.096</ele>
        <time>2021-07-27T13:49:17Z</time>
      </trkpt>
      <trkpt lat="45.93421" lon="5.78033">
        <ele>1170.231</ele>
        <time>2021-07-27T13:49:26Z</time>
      </trkpt>
      <trkpt lat="45.9333" lon="5.78043">
        <ele>1183.924</ele>
        <time>2021-07-27T13:49:40Z</time>
      </trkpt>
      <trkpt lat="45.93248" lon="5.78015">
        <ele>1186.208</ele>
        <time>2021-07-27T13:49:53Z</time>
      </trkpt>
      <trkpt lat="45.93224" lon="5.77972">
        <ele>1185.476</ele>
        <time>2021-07-27T13:50:04Z</time>
      </trkpt>
      <trkpt lat="45.93128" lon="5.77974">
        <ele>1195.228</ele>
        <time>2021-07-27T13:50:21Z</time>
      </trkpt>
      <trkpt lat="45.93069" lon="5.77888">
        <ele>1197.052</ele>
        <time>2021-07-27T13:50:40Z</time>
      </trkpt>
      <trkpt lat="45.93066" lon="5.77845">
        <ele>1203.88</ele>
        <time>2021-07-27T13:50:47Z</time>
      </trkpt>
      <trkpt lat="45.93038" lon="5.778">
        <ele>1219.215</ele>
        <time>2021-07-27T13:50:58Z</time>
      </trkpt>
      <trkpt lat="45.93021" lon="5.77725">
        <ele>1220.811</ele>
        <time>2021-07-27T13:51:08Z</time>
      </trkpt>
      <trkpt lat="45.93048" lon="5.77562">
        <ele>1226.55</ele>
        <time>2021-07-27T13:51:25Z</time>
      </trkpt>
      <trkpt lat="45.93107" lon="5.77519">
        <ele>1226.931</ele>
        <time>2021-07-27T13:51:36Z</time>
      </trkpt>
      <trkpt lat="45.93215" lon="5.77398">
        <ele>1240.044</ele>
        <time>2021-07-27T13:51:55Z</time>
      </trkpt>
      <trkpt lat="45.93275" lon="5.774">
        <ele>1249.205</ele>
        <time>2021-07-27T13:52:04Z</time>
      </trkpt>
      <trkpt lat="45.93329" lon="5.77349">
        <ele>1249.315</ele>
        <time>2021-07-27T13:52:13Z</time>
      </trkpt>
      <trkpt lat="45.93363" lon="5.77345">
        <ele>1245.708</ele>
        <time>2021-07-27T13:52:20Z</time>
      </trkpt>
      <trkpt lat="45.93382" lon="5.77281">
        <ele>1258.561</ele>
        <time>2021-07-27T13:52:28Z</time>
      </trkpt>
      <trkpt lat="45.93442" lon="5.77226">
        <ele>1271.543</ele>
        <time>2021-07-27T13:52:37Z</time>
      </trkpt>
      <trkpt lat="45.93699" lon="5.77239">
        <ele>1271.347</ele>
        <time>2021-07-27T13:53:17Z</time>
      </trkpt>
      <trkpt lat="45.9391" lon="5.77321">
        <ele>1265.245</ele>
        <time>2021-07-27T13:56:41Z</time>
      </trkpt>
      <trkpt lat="45.93947" lon="5.7735">
        <ele>1269.25</ele>
        <time>2021-07-27T13:56:47Z</time>
      </trkpt>
      <trkpt lat="45.94036" lon="5.77369">
        <ele>1265.236</ele>
        <time>2021-07-27T13:57:03Z</time>
      </trkpt>
      <trkpt lat="45.94292" lon="5.77344">
        <ele>1268.825</ele>
        <time>2021-07-27T13:57:47Z</time>
      </trkpt>
      <trkpt lat="45.94365" lon="5.77364">
        <ele>1259.026</ele>
        <time>2021-07-27T13:58:00Z</time>
      </trkpt>
      <trkpt lat="45.94392" lon="5.77353">
        <ele>1252.615</ele>
        <time>2021-07-27T13:58:04Z</time>
      </trkpt>
      <trkpt lat="45.94415" lon="5.77306">
        <ele>1257.165</ele>
        <time>2021-07-27T13:58:11Z</time>
      </trkpt>
      <trkpt lat="45.94439" lon="5.77301">
        <ele>1249.111</ele>
        <time>2021-07-27T13:58:15Z</time>
      </trkpt>
      <trkpt lat="45.94517" lon="5.77418">
        <ele>1252.508</ele>
        <time>2021-07-27T13:58:30Z</time>
      </trkpt>
      <trkpt lat="45.94606" lon="5.77408">
        <ele>1240.858</ele>
        <time>2021-07-27T13:58:43Z</time>
      </trkpt>
      <trkpt lat="45.94754" lon="5.77469">
        <ele>1239.79</ele>
        <time>2021-07-27T13:59:02Z</time>
      </trkpt>
      <trkpt lat="45.94818" lon="5.77465">
        <ele>1225.934</ele>
        <time>2021-07-27T13:59:15Z</time>
      </trkpt>
      <trkpt lat="45.94852" lon="5.77507">
        <ele>1218.522</ele>
        <time>2021-07-27T13:59:24Z</time>
      </trkpt>
      <trkpt lat="45.94976" lon="5.77443">
        <ele>1234.727</ele>
        <time>2021-07-27T13:59:42Z</time>
      </trkpt>
      <trkpt lat="45.95059" lon="5.7748">
        <ele>1224.753</ele>
        <time>2021-07-27T13:59:54Z</time>
      </trkpt>
      <trkpt lat="45.95107" lon="5.77457">
        <ele>1233.362</ele>
        <time>2021-07-27T14:00:01Z</time>
      </trkpt>
      <trkpt lat="45.95186" lon="5.77456">
        <ele>1241.263</ele>
        <time>2021-07-27T14:00:16Z</time>
      </trkpt>
      <trkpt lat="45.95182" lon="5.77401">
        <ele>1231.522</ele>
        <time>2021-07-27T14:00:25Z</time>
      </trkpt>
      <trkpt lat="45.9515" lon="5.77343">
        <ele>1236.662</ele>
        <time>2021-07-27T14:00:33Z</time>
      </trkpt>
      <trkpt lat="45.95159" lon="5.77221">
        <ele>1243.908</ele>
        <time>2021-07-27T14:01:56Z</time>
      </trkpt>
      <trkpt lat="45.95307" lon="5.77177">
        <ele>1253.408</ele>
        <time>2021-07-27T14:02:12Z</time>
      </trkpt>
      <trkpt lat="45.95313" lon="5.77151">
        <ele>1255.619</ele>
        <time>2021-07-27T14:02:16Z</time>
      </trkpt>
      <trkpt lat="45.95249" lon="5.77113">
        <ele>1266.181</ele>
        <time>2021-07-27T14:02:23Z</time>
      </trkpt>
      <trkpt lat="45.952" lon="5.77025">
        <ele>1264.025</ele>
        <time>2021-07-27T14:02:29Z</time>
      </trkpt>
      <trkpt lat="45.9511" lon="5.76923">
        <ele>1273.543</ele>
        <time>2021-07-27T14:02:38Z</time>
      </trkpt>
      <trkpt lat="45.95064" lon="5.76896">
        <ele>1275.848</ele>
        <time>2021-07-27T14:02:43Z</time>
      </trkpt>
      <trkpt lat="45.94996" lon="5.7689">
        <ele>1279.894</ele>
        <time>2021-07-27T14:02:49Z</time>
      </trkpt>
      <trkpt lat="45.95" lon="5.76854">
        <ele>1283.083</ele>
        <time>2021-07-27T14:02:53Z</time>
      </trkpt>
      <trkpt lat="45.95132" lon="5.76767">
        <ele>1302.934</ele>
        <time>2021-07-27T14:03:07Z</time>
      </trkpt>
      <trkpt lat="45.95152" lon="5.76735">
        <ele>1299.863</ele>
        <time>2021-07-27T14:03:11Z</time>
      </trkpt>
      <trkpt lat="45.95221" lon="5.76514">
        <ele>1303.244</ele>
        <time>2021-07-27T14:03:23Z</time>
      </trkpt>
      <trkpt lat="45.95224" lon="5.76392">
        <ele>1304.018</ele>
        <time>2021-07-27T14:03:28Z</time>
      </trkpt>
      <trkpt lat="45.95211" lon="5.76322">
        <ele>1306.408</ele>
        <time>2021-07-27T14:03:31Z</time>
      </trkpt>
      <trkpt lat="45.95168" lon="5.76224">
        <ele>1305.053</ele>
        <time>2021-07-27T14:03:36Z</time>
      </trkpt>
      <trkpt lat="45.95076" lon="5.76141">
        <ele>1314.355</ele>
        <time>2021-07-27T14:03:44Z</time>
      </trkpt>
      <trkpt lat="45.94799" lon="5.76134">
        <ele>1314.559</ele>
        <time>2021-07-27T14:10:31Z</time>
      </trkpt>
      <trkpt lat="45.94775" lon="5.7611">
        <ele>1317.517</ele>
        <time>2021-07-27T14:10:35Z</time>
      </trkpt>
      <trkpt lat="45.9478" lon="5.7609">
        <ele>1315.152</ele>
        <time>2021-07-27T14:10:37Z</time>
      </trkpt>
      <trkpt lat="45.94931" lon="5.75984">
        <ele>1308.528</ele>
        <time>2021-07-27T14:10:50Z</time>
      </trkpt>
      <trkpt lat="45.95293" lon="5.75841">
        <ele>1255.537</ele>
        <time>2021-07-27T14:11:14Z</time>
      </trkpt>
      <trkpt lat="45.95355" lon="5.758">
        <ele>1262.658</ele>
        <time>2021-07-27T14:11:22Z</time>
      </trkpt>
      <trkpt lat="45.9535" lon="5.7578">
        <ele>1257.291</ele>
        <time>2021-07-27T14:11:25Z</time>
      </trkpt>
      <trkpt lat="45.95125" lon="5.75698">
        <ele>1226.081</ele>
        <time>2021-07-27T14:11:48Z</time>
      </trkpt>
      <trkpt lat="45.9511" lon="5.75665">
        <ele>1232.319</ele>
        <time>2021-07-27T14:11:52Z</time>
      </trkpt>
      <trkpt lat="45.9512" lon="5.75628">
        <ele>1231.708</ele>
        <time>2021-07-27T14:12:19Z</time>
      </trkpt>
      <trkpt lat="45.95084" lon="5.75644">
        <ele>1231.936</ele>
        <time>2021-07-27T14:13:54Z</time>
      </trkpt>
      <trkpt lat="45.94963" lon="5.75563">
        <ele>1231.188</ele>
        <time>2021-07-27T14:14:20Z</time>
      </trkpt>
      <trkpt lat="45.94957" lon="5.75573">
        <ele>1236.132</ele>
        <time>2021-07-27T14:14:24Z</time>
      </trkpt>
      <trkpt lat="45.95069" lon="5.75631">
        <ele>1233.01</ele>
        <time>2021-07-27T14:14:50Z</time>
      </trkpt>
      <trkpt lat="45.9511" lon="5.75629">
        <ele>1229.495</ele>
        <time>2021-07-27T14:14:59Z</time>
      </trkpt>
      <trkpt lat="45.95261" lon="5.75457">
        <ele>1229.641</ele>
        <time>2021-07-27T14:15:20Z</time>
      </trkpt>
      <trkpt lat="45.95252" lon="5.75418">
        <ele>1241.62</ele>
        <time>2021-07-27T14:15:26Z</time>
      </trkpt>
      <trkpt lat="45.95126" lon="5.7536">
        <ele>1251.821</ele>
        <time>2021-07-27T14:15:39Z</time>
      </trkpt>
      <trkpt lat="45.95095" lon="5.75321">
        <ele>1256.614</ele>
        <time>2021-07-27T14:15:43Z</time>
      </trkpt>
      <trkpt lat="45.95167" lon="5.75108">
        <ele>1263.854</ele>
        <time>2021-07-27T14:15:55Z</time>
      </trkpt>
      <trkpt lat="45.95258" lon="5.74977">
        <ele>1275.309</ele>
        <time>2021-07-27T14:16:06Z</time>
      </trkpt>
      <trkpt lat="45.95258" lon="5.74916">
        <ele>1272.608</ele>
        <time>2021-07-27T14:16:10Z</time>
      </trkpt>
      <trkpt lat="45.9523" lon="5.74809">
        <ele>1285.398</ele>
        <time>2021-07-27T14:16:18Z</time>
      </trkpt>
      <trkpt lat="45.95268" lon="5.74687">
        <ele>1283.04</ele>
        <time>2021-07-27T14:16:30Z</time>
      </trkpt>
      <trkpt lat="45.95251" lon="5.74661">
        <ele>1291.014</ele>
        <time>2021-07-27T14:16:33Z</time>
      </trkpt>
      <trkpt lat="45.94967" lon="5.74571">
        <ele>1266.182</ele>
        <time>2021-07-27T14:16:53Z</time>
      </trkpt>
      <trkpt lat="45.9479" lon="5.74482">
        <ele>1248.947</ele>
        <time>2021-07-27T14:17:06Z</time>
      </trkpt>
      <trkpt lat="45.94688" lon="5.7446">
        <ele>1238.983</ele>
        <time>2021-07-27T14:17:15Z</time>
      </trkpt>
      <trkpt lat="45.94625" lon="5.74471">
        <ele>1234.032</ele>
        <time>2021-07-27T14:17:20Z</time>
      </trkpt>
      <trkpt lat="45.94546" lon="5.74455">
        <ele>1225.563</ele>
        <time>2021-07-27T14:17:26Z</time>
      </trkpt>
      <trkpt lat="45.94458" lon="5.74479">
        <ele>1219.725</ele>
        <time>2021-07-27T14:17:33Z</time>
      </trkpt>
      <trkpt lat="45.94409" lon="5.74514">
        <ele>1214.226</ele>
        <time>2021-07-27T14:17:39Z</time>
      </trkpt>
      <trkpt lat="45.94391" lon="5.745">
        <ele>1212.108</ele>
        <time>2021-07-27T14:19:51Z</time>
      </trkpt>
      <trkpt lat="45.9453" lon="5.74413">
        <ele>1214.108</ele>
        <time>2021-07-27T14:20:05Z</time>
      </trkpt>
      <trkpt lat="45.94895" lon="5.74235">
        <ele>1174.469</ele>
        <time>2021-07-27T14:20:32Z</time>
      </trkpt>
      <trkpt lat="45.95098" lon="5.74173">
        <ele>1159.081</ele>
        <time>2021-07-27T14:20:48Z</time>
      </trkpt>
      <trkpt lat="45.9515" lon="5.74171">
        <ele>1159.055</ele>
        <time>2021-07-27T14:20:53Z</time>
      </trkpt>
      <trkpt lat="45.95241" lon="5.74118">
        <ele>1146.733</ele>
        <time>2021-07-27T14:21:00Z</time>
      </trkpt>
      <trkpt lat="45.95364" lon="5.74085">
        <ele>1128.248</ele>
        <time>2021-07-27T14:21:11Z</time>
      </trkpt>
      <trkpt lat="45.95421" lon="5.74113">
        <ele>1126.584</ele>
        <time>2021-07-27T14:21:16Z</time>
      </trkpt>
      <trkpt lat="45.95621" lon="5.74157">
        <ele>1106.943</ele>
        <time>2021-07-27T14:21:32Z</time>
      </trkpt>
      <trkpt lat="45.95784" lon="5.74112">
        <ele>1097.044</ele>
        <time>2021-07-27T14:21:45Z</time>
      </trkpt>
      <trkpt lat="45.9587" lon="5.74043">
        <ele>1085.249</ele>
        <time>2021-07-27T14:21:56Z</time>
      </trkpt>
      <trkpt lat="45.95874" lon="5.74013">
        <ele>1078.802</ele>
        <time>2021-07-27T14:21:59Z</time>
      </trkpt>
      <trkpt lat="45.9585" lon="5.73995">
        <ele>1077.222</ele>
        <time>2021-07-27T14:22:03Z</time>
      </trkpt>
      <trkpt lat="45.95766" lon="5.7403">
        <ele>1066.708</ele>
        <time>2021-07-27T14:22:15Z</time>
      </trkpt>
      <trkpt lat="45.95674" lon="5.74023">
        <ele>1064.911</ele>
        <time>2021-07-27T14:22:25Z</time>
      </trkpt>
      <trkpt lat="45.95611" lon="5.73965">
        <ele>1061.023</ele>
        <time>2021-07-27T14:22:32Z</time>
      </trkpt>
      <trkpt lat="45.95576" lon="5.73907">
        <ele>1048.757</ele>
        <time>2021-07-27T14:22:38Z</time>
      </trkpt>
      <trkpt lat="45.95546" lon="5.73896">
        <ele>1043.045</ele>
        <time>2021-07-27T14:22:42Z</time>
      </trkpt>
      <trkpt lat="45.95432" lon="5.73785">
        <ele>1025.87</ele>
        <time>2021-07-27T14:22:56Z</time>
      </trkpt>
      <trkpt lat="45.95363" lon="5.73744">
        <ele>1012.386</ele>
        <time>2021-07-27T14:23:08Z</time>
      </trkpt>
      <trkpt lat="45.95358" lon="5.73756">
        <ele>1003.535</ele>
        <time>2021-07-27T14:24:22Z</time>
      </trkpt>
      <trkpt lat="45.95131" lon="5.73741">
        <ele>974.026</ele>
        <time>2021-07-27T14:24:53Z</time>
      </trkpt>
      <trkpt lat="45.95075" lon="5.73721">
        <ele>980.486</ele>
        <time>2021-07-27T14:24:59Z</time>
      </trkpt>
      <trkpt lat="45.95016" lon="5.73738">
        <ele>964.86</ele>
        <time>2021-07-27T14:25:06Z</time>
      </trkpt>
      <trkpt lat="45.94975" lon="5.73709">
        <ele>952.826</ele>
        <time>2021-07-27T14:25:11Z</time>
      </trkpt>
      <trkpt lat="45.94902" lon="5.73696">
        <ele>940.508</ele>
        <time>2021-07-27T14:25:18Z</time>
      </trkpt>
      <trkpt lat="45.94771" lon="5.73706">
        <ele>920.695</ele>
        <time>2021-07-27T14:25:31Z</time>
      </trkpt>
      <trkpt lat="45.94713" lon="5.7367">
        <ele>907.827</ele>
        <time>2021-07-27T14:25:38Z</time>
      </trkpt>
      <trkpt lat="45.94572" lon="5.73714">
        <ele>883.621</ele>
        <time>2021-07-27T14:25:52Z</time>
      </trkpt>
      <trkpt lat="45.94512" lon="5.73692">
        <ele>886.579</ele>
        <time>2021-07-27T14:25:59Z</time>
      </trkpt>
      <trkpt lat="45.94441" lon="5.73705">
        <ele>888.084</ele>
        <time>2021-07-27T14:26:07Z</time>
      </trkpt>
      <trkpt lat="45.94408" lon="5.73692">
        <ele>883.47</ele>
        <time>2021-07-27T14:26:31Z</time>
      </trkpt>
      <trkpt lat="45.94223" lon="5.73828">
        <ele>881.019</ele>
        <time>2021-07-27T14:26:58Z</time>
      </trkpt>
      <trkpt lat="45.94061" lon="5.73884">
        <ele>885.01</ele>
        <time>2021-07-27T14:27:17Z</time>
      </trkpt>
      <trkpt lat="45.93954" lon="5.73891">
        <ele>901.458</ele>
        <time>2021-07-27T14:27:30Z</time>
      </trkpt>
      <trkpt lat="45.93894" lon="5.73944">
        <ele>907.552</ele>
        <time>2021-07-27T14:27:40Z</time>
      </trkpt>
      <trkpt lat="45.93846" lon="5.73921">
        <ele>894.317</ele>
        <time>2021-07-27T14:27:47Z</time>
      </trkpt>
      <trkpt lat="45.93721" lon="5.73912">
        <ele>894.808</ele>
        <time>2021-07-27T14:28:01Z</time>
      </trkpt>
      <trkpt lat="45.93674" lon="5.7394">
        <ele>892.122</ele>
        <time>2021-07-27T14:28:08Z</time>
      </trkpt>
      <trkpt lat="45.93642" lon="5.73925">
        <ele>886.484</ele>
        <time>2021-07-27T14:28:13Z</time>
      </trkpt>
      <trkpt lat="45.93215" lon="5.73949">
        <ele>844.758</ele>
        <time>2021-07-27T14:29:08Z</time>
      </trkpt>
      <trkpt lat="45.93113" lon="5.73924">
        <ele>821.596</ele>
        <time>2021-07-27T14:29:26Z</time>
      </trkpt>
      <trkpt lat="45.92976" lon="5.73962">
        <ele>829.641</ele>
        <time>2021-07-27T14:33:07Z</time>
      </trkpt>
      <trkpt lat="45.92758" lon="5.73985">
        <ele>837.037</ele>
        <time>2021-07-27T14:33:26Z</time>
      </trkpt>
      <trkpt lat="45.92688" lon="5.74012">
        <ele>844.156</ele>
        <time>2021-07-27T14:33:32Z</time>
      </trkpt>
      <trkpt lat="45.92557" lon="5.74113">
        <ele>857.427</ele>
        <time>2021-07-27T14:33:42Z</time>
      </trkpt>
      <trkpt lat="45.92432" lon="5.74147">
        <ele>852.462</ele>
        <time>2021-07-27T14:33:51Z</time>
      </trkpt>
      <trkpt lat="45.92303" lon="5.74249">
        <ele>874.883</ele>
        <time>2021-07-27T14:34:03Z</time>
      </trkpt>
      <trkpt lat="45.92176" lon="5.74312">
        <ele>888.311</ele>
        <time>2021-07-27T14:34:13Z</time>
      </trkpt>
      <trkpt lat="45.91985" lon="5.74502">
        <ele>929.508</ele>
        <time>2021-07-27T14:34:30Z</time>
      </trkpt>
      <trkpt lat="45.91962" lon="5.74559">
        <ele>941.573</ele>
        <time>2021-07-27T14:34:35Z</time>
      </trkpt>
      <trkpt lat="45.91961" lon="5.74647">
        <ele>932.055</ele>
        <time>2021-07-27T14:34:44Z</time>
      </trkpt>
      <trkpt lat="45.91976" lon="5.74681">
        <ele>939.329</ele>
        <time>2021-07-27T14:34:49Z</time>
      </trkpt>
      <trkpt lat="45.92084" lon="5.74767">
        <ele>933.797</ele>
        <time>2021-07-27T14:35:01Z</time>
      </trkpt>
      <trkpt lat="45.92284" lon="5.74789">
        <ele>945.452</ele>
        <time>2021-07-27T14:35:14Z</time>
      </trkpt>
      <trkpt lat="45.92371" lon="5.74834">
        <ele>946.878</ele>
        <time>2021-07-27T14:35:20Z</time>
      </trkpt>
      <trkpt lat="45.92438" lon="5.749">
        <ele>952.897</ele>
        <time>2021-07-27T14:35:26Z</time>
      </trkpt>
      <trkpt lat="45.92487" lon="5.74979">
        <ele>943.128</ele>
        <time>2021-07-27T14:35:33Z</time>
      </trkpt>
      <trkpt lat="45.92567" lon="5.75005">
        <ele>948.147</ele>
        <time>2021-07-27T14:35:39Z</time>
      </trkpt>
      <trkpt lat="45.92618" lon="5.75044">
        <ele>957.429</ele>
        <time>2021-07-27T14:35:43Z</time>
      </trkpt>
      <trkpt lat="45.92758" lon="5.75204">
        <ele>950.721</ele>
        <time>2021-07-27T14:35:56Z</time>
      </trkpt>
      <trkpt lat="45.92841" lon="5.75362">
        <ele>950.708</ele>
        <time>2021-07-27T14:36:08Z</time>
      </trkpt>
      <trkpt lat="45.92865" lon="5.75522">
        <ele>946.861</ele>
        <time>2021-07-27T14:36:18Z</time>
      </trkpt>
      <trkpt lat="45.92837" lon="5.75583">
        <ele>951.623</ele>
        <time>2021-07-27T14:36:26Z</time>
      </trkpt>
      <trkpt lat="45.92825" lon="5.75582">
        <ele>953.987</ele>
        <time>2021-07-27T14:36:28Z</time>
      </trkpt>
      <trkpt lat="45.92762" lon="5.75489">
        <ele>960.095</ele>
        <time>2021-07-27T14:36:37Z</time>
      </trkpt>
      <trkpt lat="45.92644" lon="5.75411">
        <ele>961.25</ele>
        <time>2021-07-27T14:36:48Z</time>
      </trkpt>
      <trkpt lat="45.92599" lon="5.75402">
        <ele>967.946</ele>
        <time>2021-07-27T14:36:58Z</time>
      </trkpt>
      <trkpt lat="45.92518" lon="5.75331">
        <ele>970.765</ele>
        <time>2021-07-27T14:37:33Z</time>
      </trkpt>
      <trkpt lat="45.9241" lon="5.75297">
        <ele>969.466</ele>
        <time>2021-07-27T14:37:41Z</time>
      </trkpt>
      <trkpt lat="45.9223" lon="5.75166">
        <ele>972.816</ele>
        <time>2021-07-27T14:37:55Z</time>
      </trkpt>
      <trkpt lat="45.92112" lon="5.75175">
        <ele>984.776</ele>
        <time>2021-07-27T14:38:04Z</time>
      </trkpt>
      <trkpt lat="45.92017" lon="5.75254">
        <ele>977.513</ele>
        <time>2021-07-27T14:38:12Z</time>
      </trkpt>
      <trkpt lat="45.91941" lon="5.75275">
        <ele>982.408</ele>
        <time>2021-07-27T14:38:18Z</time>
      </trkpt>
      <trkpt lat="45.91789" lon="5.75163">
        <ele>987.548</ele>
        <time>2021-07-27T14:38:31Z</time>
      </trkpt>
      <trkpt lat="45.91723" lon="5.75159">
        <ele>988.42</ele>
        <time>2021-07-27T14:38:36Z</time>
      </trkpt>
      <trkpt lat="45.91629" lon="5.75081">
        <ele>991.584</ele>
        <time>2021-07-27T14:38:45Z</time>
      </trkpt>
      <trkpt lat="45.91459" lon="5.75203">
        <ele>1003.352</ele>
        <time>2021-07-27T14:39:03Z</time>
      </trkpt>
      <trkpt lat="45.91354" lon="5.7509">
        <ele>1009.617</ele>
        <time>2021-07-27T14:39:13Z</time>
      </trkpt>
      <trkpt lat="45.91316" lon="5.75003">
        <ele>1018.823</ele>
        <time>2021-07-27T14:39:18Z</time>
      </trkpt>
      <trkpt lat="45.91243" lon="5.74965">
        <ele>1031.752</ele>
        <time>2021-07-27T14:39:25Z</time>
      </trkpt>
      <trkpt lat="45.9094" lon="5.75095">
        <ele>1073.913</ele>
        <time>2021-07-27T14:39:51Z</time>
      </trkpt>
      <trkpt lat="45.90869" lon="5.74952">
        <ele>1092.178</ele>
        <time>2021-07-27T14:40:01Z</time>
      </trkpt>
      <trkpt lat="45.90726" lon="5.74841">
        <ele>1112.533</ele>
        <time>2021-07-27T14:40:14Z</time>
      </trkpt>
      <trkpt lat="45.90624" lon="5.74696">
        <ele>1131.826</ele>
        <time>2021-07-27T14:40:24Z</time>
      </trkpt>
      <trkpt lat="45.90575" lon="5.74588">
        <ele>1146.608</ele>
        <time>2021-07-27T14:40:32Z</time>
      </trkpt>
      <trkpt lat="45.90567" lon="5.74527">
        <ele>1150.554</ele>
        <time>2021-07-27T14:40:41Z</time>
      </trkpt>
      <trkpt lat="45.90541" lon="5.74543">
        <ele>1154.976</ele>
        <time>2021-07-27T14:40:45Z</time>
      </trkpt>
      <trkpt lat="45.90488" lon="5.74679">
        <ele>1166.85</ele>
        <time>2021-07-27T14:40:55Z</time>
      </trkpt>
      <trkpt lat="45.90296" lon="5.74712">
        <ele>1173.798</ele>
        <time>2021-07-27T14:41:07Z</time>
      </trkpt>
      <trkpt lat="45.90181" lon="5.74707">
        <ele>1186.763</ele>
        <time>2021-07-27T14:41:14Z</time>
      </trkpt>
      <trkpt lat="45.90114" lon="5.74726">
        <ele>1186.919</ele>
        <time>2021-07-27T14:41:19Z</time>
      </trkpt>
      <trkpt lat="45.89989" lon="5.74854">
        <ele>1196.848</ele>
        <time>2021-07-27T14:41:31Z</time>
      </trkpt>
      <trkpt lat="45.89856" lon="5.74936">
        <ele>1204.429</ele>
        <time>2021-07-27T14:41:40Z</time>
      </trkpt>
      <trkpt lat="45.89718" lon="5.75189">
        <ele>1210.551</ele>
        <time>2021-07-27T14:41:56Z</time>
      </trkpt>
      <trkpt lat="45.90055" lon="5.75461">
        <ele>1224.301</ele>
        <time>2021-07-27T14:42:23Z</time>
      </trkpt>
      <trkpt lat="45.90066" lon="5.75527">
        <ele>1222.211</ele>
        <time>2021-07-27T14:42:28Z</time>
      </trkpt>
      <trkpt lat="45.90029" lon="5.75583">
        <ele>1231.208</ele>
        <time>2021-07-27T14:42:33Z</time>
      </trkpt>
      <trkpt lat="45.89875" lon="5.75686">
        <ele>1247.882</ele>
        <time>2021-07-27T14:42:48Z</time>
      </trkpt>
      <trkpt lat="45.89803" lon="5.75697">
        <ele>1271.464</ele>
        <time>2021-07-27T14:46:30Z</time>
      </trkpt>
      <trkpt lat="45.89687" lon="5.75757">
        <ele>1277.248</ele>
        <time>2021-07-27T14:46:47Z</time>
      </trkpt>
      <trkpt lat="45.89599" lon="5.75779">
        <ele>1275.966</ele>
        <time>2021-07-27T14:47:04Z</time>
      </trkpt>
      <trkpt lat="45.89313" lon="5.75763">
        <ele>1247.131</ele>
        <time>2021-07-27T14:48:04Z</time>
      </trkpt>
      <trkpt lat="45.89055" lon="5.75647">
        <ele>1195.237</ele>
        <time>2021-07-27T14:48:55Z</time>
      </trkpt>
      <trkpt lat="45.88968" lon="5.75551">
        <ele>1186.476</ele>
        <time>2021-07-27T14:49:20Z</time>
      </trkpt>
      <trkpt lat="45.88938" lon="5.75488">
        <ele>1174.877</ele>
        <time>2021-07-27T14:49:32Z</time>
      </trkpt>
      <trkpt lat="45.88946" lon="5.75469">
        <ele>1170.072</ele>
        <time>2021-07-27T14:49:55Z</time>
      </trkpt>
      <trkpt lat="45.8903" lon="5.75504">
        <ele>1145.713</ele>
        <time>2021-07-27T14:50:26Z</time>
      </trkpt>
      <trkpt lat="45.89167" lon="5.75484">
        <ele>1132.014</ele>
        <time>2021-07-27T14:50:53Z</time>
      </trkpt>
      <trkpt lat="45.89342" lon="5.7536">
        <ele>1088.908</ele>
        <time>2021-07-27T14:51:31Z</time>
      </trkpt>
      <trkpt lat="45.89338" lon="5.75333">
        <ele>1078.874</ele>
        <time>2021-07-27T14:51:36Z</time>
      </trkpt>
      <trkpt lat="45.89278" lon="5.75333">
        <ele>1060.876</ele>
        <time>2021-07-27T14:51:50Z</time>
      </trkpt>
      <trkpt lat="45.89173" lon="5.75295">
        <ele>1055.12</ele>
        <time>2021-07-27T14:52:15Z</time>
      </trkpt>
      <trkpt lat="45.89192" lon="5.75251">
        <ele>1054.598</ele>
        <time>2021-07-27T14:54:16Z</time>
      </trkpt>
      <trkpt lat="45.89238" lon="5.75235">
        <ele>1026.583</ele>
        <time>2021-07-27T14:54:28Z</time>
      </trkpt>
      <trkpt lat="45.89249" lon="5.75213">
        <ele>1011.969</ele>
        <time>2021-07-27T14:54:36Z</time>
      </trkpt>
      <trkpt lat="45.89243" lon="5.75111">
        <ele>1006.188</ele>
        <time>2021-07-27T14:54:58Z</time>
      </trkpt>
      <trkpt lat="45.89201" lon="5.75045">
        <ele>989.819</ele>
        <time>2021-07-27T14:55:15Z</time>
      </trkpt>
      <trkpt lat="45.89225" lon="5.74984">
        <ele>986.834</ele>
        <time>2021-07-27T14:55:27Z</time>
      </trkpt>
      <trkpt lat="45.89194" lon="5.74837">
        <ele>985.255</ele>
        <time>2021-07-27T14:55:46Z</time>
      </trkpt>
      <trkpt lat="45.89212" lon="5.74683">
        <ele>978.21</ele>
        <time>2021-07-27T14:55:59Z</time>
      </trkpt>
      <trkpt lat="45.89279" lon="5.74449">
        <ele>967.408</ele>
        <time>2021-07-27T14:56:16Z</time>
      </trkpt>
      <trkpt lat="45.89312" lon="5.74388">
        <ele>954.39</ele>
        <time>2021-07-27T14:56:22Z</time>
      </trkpt>
      <trkpt lat="45.89358" lon="5.74355">
        <ele>945.052</ele>
        <time>2021-07-27T14:56:28Z</time>
      </trkpt>
      <trkpt lat="45.8941" lon="5.74354">
        <ele>931.166</ele>
        <time>2021-07-27T14:56:36Z</time>
      </trkpt>
      <trkpt lat="45.89476" lon="5.74287">
        <ele>926.884</ele>
        <time>2021-07-27T14:56:46Z</time>
      </trkpt>
      <trkpt lat="45.89554" lon="5.74235">
        <ele>936.059</ele>
        <time>2021-07-27T14:56:57Z</time>
      </trkpt>
      <trkpt lat="45.89599" lon="5.74164">
        <ele>929.525</ele>
        <time>2021-07-27T14:57:05Z</time>
      </trkpt>
      <trkpt lat="45.89661" lon="5.74001">
        <ele>905.734</ele>
        <time>2021-07-27T14:57:20Z</time>
      </trkpt>
      <trkpt lat="45.89779" lon="5.73868">
        <ele>909.615</ele>
        <time>2021-07-27T14:57:37Z</time>
      </trkpt>
      <trkpt lat="45.89848" lon="5.73762">
        <ele>897.011</ele>
        <time>2021-07-27T14:57:48Z</time>
      </trkpt>
      <trkpt lat="45.9" lon="5.73607">
        <ele>885.621</ele>
        <time>2021-07-27T14:58:10Z</time>
      </trkpt>
      <trkpt lat="45.90157" lon="5.73547">
        <ele>874.603</ele>
        <time>2021-07-27T14:58:30Z</time>
      </trkpt>
      <trkpt lat="45.90241" lon="5.7359">
        <ele>861.908</ele>
        <time>2021-07-27T14:58:44Z</time>
      </trkpt>
      <trkpt lat="45.90315" lon="5.73508">
        <ele>852.098</ele>
        <time>2021-07-27T14:58:55Z</time>
      </trkpt>
      <trkpt lat="45.90342" lon="5.73457">
        <ele>854.36</ele>
        <time>2021-07-27T14:59:01Z</time>
      </trkpt>
      <trkpt lat="45.90444" lon="5.73412">
        <ele>838.444</ele>
        <time>2021-07-27T14:59:13Z</time>
      </trkpt>
      <trkpt lat="45.90505" lon="5.73411">
        <ele>832.972</ele>
        <time>2021-07-27T14:59:21Z</time>
      </trkpt>
      <trkpt lat="45.9054" lon="5.73366">
        <ele>840.547</ele>
        <time>2021-07-27T14:59:27Z</time>
      </trkpt>
      <trkpt lat="45.90673" lon="5.73314">
        <ele>824.013</ele>
        <time>2021-07-27T14:59:44Z</time>
      </trkpt>
      <trkpt lat="45.90708" lon="5.73332">
        <ele>831.622</ele>
        <time>2021-07-27T14:59:52Z</time>
      </trkpt>
      <trkpt lat="45.90871" lon="5.73291">
        <ele>809.443</ele>
        <time>2021-07-27T15:00:14Z</time>
      </trkpt>
      <trkpt lat="45.90964" lon="5.73331">
        <ele>793.452</ele>
        <time>2021-07-27T15:00:27Z</time>
      </trkpt>
      <trkpt lat="45.91054" lon="5.73322">
        <ele>787.553</ele>
        <time>2021-07-27T15:00:39Z</time>
      </trkpt>
      <trkpt lat="45.91188" lon="5.73352">
        <ele>782.108</ele>
        <time>2021-07-27T15:03:46Z</time>
      </trkpt>
      <trkpt lat="45.9125" lon="5.73404">
        <ele>775.308</ele>
        <time>2021-07-27T15:03:52Z</time>
      </trkpt>
      <trkpt lat="45.91341" lon="5.73414">
        <ele>766.852</ele>
        <time>2021-07-27T15:04:01Z</time>
      </trkpt>
      <trkpt lat="45.9134" lon="5.73366">
        <ele>765.614</ele>
        <time>2021-07-27T15:04:05Z</time>
      </trkpt>
      <trkpt lat="45.91275" lon="5.73193">
        <ele>754.268</ele>
        <time>2021-07-27T15:04:14Z</time>
      </trkpt>
      <trkpt lat="45.91204" lon="5.73081">
        <ele>751.056</ele>
        <time>2021-07-27T15:04:21Z</time>
      </trkpt>
      <trkpt lat="45.91097" lon="5.72976">
        <ele>727.791</ele>
        <time>2021-07-27T15:04:31Z</time>
      </trkpt>
      <trkpt lat="45.91105" lon="5.72941">
        <ele>723.377</ele>
        <time>2021-07-27T15:04:34Z</time>
      </trkpt>
      <trkpt lat="45.9119" lon="5.72955">
        <ele>711.746</ele>
        <time>2021-07-27T15:04:42Z</time>
      </trkpt>
      <trkpt lat="45.91328" lon="5.72909">
        <ele>693.657</ele>
        <time>2021-07-27T15:04:53Z</time>
      </trkpt>
      <trkpt lat="45.91347" lon="5.72876">
        <ele>685.682</ele>
        <time>2021-07-27T15:04:56Z</time>
      </trkpt>
      <trkpt lat="45.91349" lon="5.72835">
        <ele>677.643</ele>
        <time>2021-07-27T15:04:59Z</time>
      </trkpt>
      <trkpt lat="45.91326" lon="5.72785">
        <ele>668.417</ele>
        <time>2021-07-27T15:05:03Z</time>
      </trkpt>
      <trkpt lat="45.91262" lon="5.72713">
        <ele>668.308</ele>
        <time>2021-07-27T15:05:10Z</time>
      </trkpt>
      <trkpt lat="45.91083" lon="5.72582">
        <ele>633.775</ele>
        <time>2021-07-27T15:05:24Z</time>
      </trkpt>
      <trkpt lat="45.91027" lon="5.72522">
        <ele>628.517</ele>
        <time>2021-07-27T15:05:40Z</time>
      </trkpt>
      <trkpt lat="45.90881" lon="5.72508">
        <ele>632.331</ele>
        <time>2021-07-27T15:05:54Z</time>
      </trkpt>
      <trkpt lat="45.908" lon="5.72476">
        <ele>618.089</ele>
        <time>2021-07-27T15:06:02Z</time>
      </trkpt>
      <trkpt lat="45.90788" lon="5.72458">
        <ele>611.084</ele>
        <time>2021-07-27T15:06:07Z</time>
      </trkpt>
      <trkpt lat="45.90599" lon="5.72455">
        <ele>611.39</ele>
        <time>2021-07-27T15:06:21Z</time>
      </trkpt>
      <trkpt lat="45.90451" lon="5.72419">
        <ele>602.079</ele>
        <time>2021-07-27T15:06:30Z</time>
      </trkpt>
      <trkpt lat="45.90324" lon="5.72334">
        <ele>600.61</ele>
        <time>2021-07-27T15:06:39Z</time>
      </trkpt>
      <trkpt lat="45.90154" lon="5.72372">
        <ele>580.985</ele>
        <time>2021-07-27T15:06:50Z</time>
      </trkpt>
      <trkpt lat="45.89992" lon="5.72368">
        <ele>568.689</ele>
        <time>2021-07-27T15:07:02Z</time>
      </trkpt>
      <trkpt lat="45.89992" lon="5.72328">
        <ele>567.217</ele>
        <time>2021-07-27T15:07:05Z</time>
      </trkpt>
      <trkpt lat="45.90099" lon="5.72122">
        <ele>556.108</ele>
        <time>2021-07-27T15:07:18Z</time>
      </trkpt>
      <trkpt lat="45.90092" lon="5.72062">
        <ele>548.855</ele>
        <time>2021-07-27T15:07:22Z</time>
      </trkpt>
      <trkpt lat="45.90074" lon="5.72041">
        <ele>544.887</ele>
        <time>2021-07-27T15:07:24Z</time>
      </trkpt>
      <trkpt lat="45.89986" lon="5.72012">
        <ele>541.891</ele>
        <time>2021-07-27T15:07:31Z</time>
      </trkpt>
      <trkpt lat="45.89951" lon="5.71909">
        <ele>538.539</ele>
        <time>2021-07-27T15:07:39Z</time>
      </trkpt>
      <trkpt lat="45.89783" lon="5.71702">
        <ele>531.254</ele>
        <time>2021-07-27T15:08:43Z</time>
      </trkpt>
      <trkpt lat="45.89672" lon="5.71463">
        <ele>530.18</ele>
        <time>2021-07-27T15:08:56Z</time>
      </trkpt>
      <trkpt lat="45.89554" lon="5.71136">
        <ele>504.319</ele>
        <time>2021-07-27T15:09:10Z</time>
      </trkpt>
      <trkpt lat="45.89269" lon="5.70581">
        <ele>479.99</ele>
        <time>2021-07-27T15:09:35Z</time>
      </trkpt>
      <trkpt lat="45.8918" lon="5.70481">
        <ele>473.452</ele>
        <time>2021-07-27T15:09:42Z</time>
      </trkpt>
      <trkpt lat="45.88942" lon="5.70064">
        <ele>455.153</ele>
        <time>2021-07-27T15:10:03Z</time>
      </trkpt>
      <trkpt lat="45.88927" lon="5.69955">
        <ele>451.708</ele>
        <time>2021-07-27T15:10:09Z</time>
      </trkpt>
      <trkpt lat="45.8894" lon="5.69789">
        <ele>447.908</ele>
        <time>2021-07-27T15:10:17Z</time>
      </trkpt>
      <trkpt lat="45.89023" lon="5.69701">
        <ele>440.742</ele>
        <time>2021-07-27T15:10:25Z</time>
      </trkpt>
      <trkpt lat="45.89057" lon="5.69622">
        <ele>434.984</ele>
        <time>2021-07-27T15:10:30Z</time>
      </trkpt>
      <trkpt lat="45.89057" lon="5.69582">
        <ele>433.878</ele>
        <time>2021-07-27T15:10:33Z</time>
      </trkpt>
      <trkpt lat="45.88987" lon="5.69531">
        <ele>431.156</ele>
        <time>2021-07-27T15:10:40Z</time>
      </trkpt>
      <trkpt lat="45.88957" lon="5.69408">
        <ele>425.721</ele>
        <time>2021-07-27T15:10:47Z</time>
      </trkpt>
      <trkpt lat="45.88917" lon="5.69384">
        <ele>420.567</ele>
        <time>2021-07-27T15:10:50Z</time>
      </trkpt>
      <trkpt lat="45.88753" lon="5.69372">
        <ele>416.616</ele>
        <time>2021-07-27T15:10:59Z</time>
      </trkpt>
      <trkpt lat="45.88594" lon="5.69305">
        <ele>401.487</ele>
        <time>2021-07-27T15:11:09Z</time>
      </trkpt>
      <trkpt lat="45.88517" lon="5.69305">
        <ele>397.433</ele>
        <time>2021-07-27T15:11:14Z</time>
      </trkpt>
      <trkpt lat="45.88436" lon="5.69254">
        <ele>382.623</ele>
        <time>2021-07-27T15:11:21Z</time>
      </trkpt>
      <trkpt lat="45.88206" lon="5.69323">
        <ele>367.115</ele>
        <time>2021-07-27T15:11:37Z</time>
      </trkpt>
      <trkpt lat="45.88188" lon="5.6931">
        <ele>363.408</ele>
        <time>2021-07-27T15:11:39Z</time>
      </trkpt>
      <trkpt lat="45.8818" lon="5.69278">
        <ele>357.86</ele>
        <time>2021-07-27T15:11:41Z</time>
      </trkpt>
      <trkpt lat="45.88197" lon="5.69108">
        <ele>357.782</ele>
        <time>2021-07-27T15:11:51Z</time>
      </trkpt>
      <trkpt lat="45.88188" lon="5.68993">
        <ele>344.816</ele>
        <time>2021-07-27T15:12:01Z</time>
      </trkpt>
      <trkpt lat="45.88178" lon="5.68986">
        <ele>336.854</ele>
        <time>2021-07-27T15:12:08Z</time>
      </trkpt>
      <trkpt lat="45.88137" lon="5.69018">
        <ele>345.679</ele>
        <time>2021-07-27T15:12:13Z</time>
      </trkpt>
      <trkpt lat="45.88094" lon="5.69138">
        <ele>348.285</ele>
        <time>2021-07-27T15:12:21Z</time>
      </trkpt>
      <trkpt lat="45.88002" lon="5.69191">
        <ele>348.244</ele>
        <time>2021-07-27T15:12:29Z</time>
      </trkpt>
      <trkpt lat="45.87917" lon="5.6932">
        <ele>348.215</ele>
        <time>2021-07-27T15:12:37Z</time>
      </trkpt>
      <trkpt lat="45.8781" lon="5.69426">
        <ele>348.265</ele>
        <time>2021-07-27T15:12:45Z</time>
      </trkpt>
      <trkpt lat="45.87773" lon="5.69436">
        <ele>348.268</ele>
        <time>2021-07-27T15:12:48Z</time>
      </trkpt>
      <trkpt lat="45.87745" lon="5.69405">
        <ele>348.214</ele>
        <time>2021-07-27T15:12:51Z</time>
      </trkpt>
      <trkpt lat="45.87741" lon="5.6937">
        <ele>348.208</ele>
        <time>2021-07-27T15:12:53Z</time>
      </trkpt>
      <trkpt lat="45.87783" lon="5.69189">
        <ele>348.253</ele>
        <time>2021-07-27T15:13:02Z</time>
      </trkpt>
      <trkpt lat="45.87814" lon="5.68955">
        <ele>340.255</ele>
        <time>2021-07-27T15:13:13Z</time>
      </trkpt>
      <trkpt lat="45.87791" lon="5.68907">
        <ele>328.249</ele>
        <time>2021-07-27T15:13:17Z</time>
      </trkpt>
      <trkpt lat="45.87758" lon="5.68905">
        <ele>320.257</ele>
        <time>2021-07-27T15:13:20Z</time>
      </trkpt>
      <trkpt lat="45.87735" lon="5.68974">
        <ele>312.232</ele>
        <time>2021-07-27T15:13:24Z</time>
      </trkpt>
      <trkpt lat="45.87733" lon="5.69109">
        <ele>296.248</ele>
        <time>2021-07-27T15:13:30Z</time>
      </trkpt>
      <trkpt lat="45.87659" lon="5.69267">
        <ele>277.187</ele>
        <time>2021-07-27T15:13:39Z</time>
      </trkpt>
      <trkpt lat="45.87631" lon="5.69272">
        <ele>273.788</ele>
        <time>2021-07-27T15:13:42Z</time>
      </trkpt>
      <trkpt lat="45.87436" lon="5.69205">
        <ele>244.346</ele>
        <time>2021-07-27T15:14:02Z</time>
      </trkpt>
      <trkpt lat="45.87383" lon="5.69365">
        <ele>240.388</ele>
        <time>2021-07-27T15:14:16Z</time>
      </trkpt>
      <trkpt lat="45.87338" lon="5.69422">
        <ele>244.016</ele>
        <time>2021-07-27T15:14:24Z</time>
      </trkpt>
      <trkpt lat="45.87311" lon="5.69715">
        <ele>240.508</ele>
        <time>2021-07-27T15:14:41Z</time>
      </trkpt>
      <trkpt lat="45.87341" lon="5.70029">
        <ele>239.131</ele>
        <time>2021-07-27T15:14:58Z</time>
      </trkpt>
      <trkpt lat="45.87286" lon="5.70315">
        <ele>245.783</ele>
        <time>2021-07-27T15:15:09Z</time>
      </trkpt>
      <trkpt lat="45.87305" lon="5.70521">
        <ele>253.427</ele>
        <time>2021-07-27T15:15:18Z</time>
      </trkpt>
      <trkpt lat="45.87104" lon="5.70974">
        <ele>249.265</ele>
        <time>2021-07-27T15:15:38Z</time>
      </trkpt>
      <trkpt lat="45.87078" lon="5.71108">
        <ele>244.64</ele>
        <time>2021-07-27T15:15:43Z</time>
      </trkpt>
      <trkpt lat="45.8707" lon="5.71399">
        <ele>231.196</ele>
        <time>2021-07-27T15:15:53Z</time>
      </trkpt>
      <trkpt lat="45.86973" lon="5.71713">
        <ele>222.035</ele>
        <time>2021-07-27T15:16:04Z</time>
      </trkpt>
      <trkpt lat="45.8688" lon="5.71885">
        <ele>220.776</ele>
        <time>2021-07-27T15:16:11Z</time>
      </trkpt>
      <trkpt lat="45.86425" lon="5.7236">
        <ele>230.972</ele>
        <time>2021-07-27T15:16:34Z</time>
      </trkpt>
      <trkpt lat="45.86363" lon="5.72454">
        <ele>222.013</ele>
        <time>2021-07-27T15:16:38Z</time>
      </trkpt>
      <trkpt lat="45.86333" lon="5.726">
        <ele>219.014</ele>
        <time>2021-07-27T15:16:43Z</time>
      </trkpt>
      <trkpt lat="45.86356" lon="5.7303">
        <ele>233.008</ele>
        <time>2021-07-27T15:16:57Z</time>
      </trkpt>
      <trkpt lat="45.8635" lon="5.7315">
        <ele>231.084</ele>
        <time>2021-07-27T15:17:01Z</time>
      </trkpt>
      <trkpt lat="45.86209" lon="5.73538">
        <ele>236.646</ele>
        <time>2021-07-27T15:17:15Z</time>
      </trkpt>
      <trkpt lat="45.86106" lon="5.73899">
        <ele>223.22</ele>
        <time>2021-07-27T15:17:27Z</time>
      </trkpt>
      <trkpt lat="45.86018" lon="5.74075">
        <ele>223.218</ele>
        <time>2021-07-27T15:17:34Z</time>
      </trkpt>
      <trkpt lat="45.85962" lon="5.74128">
        <ele>231.153</ele>
        <time>2021-07-27T15:17:37Z</time>
      </trkpt>
      <trkpt lat="45.85822" lon="5.74213">
        <ele>232.869</ele>
        <time>2021-07-27T15:17:44Z</time>
      </trkpt>
      <trkpt lat="45.85758" lon="5.74299">
        <ele>237.858</ele>
        <time>2021-07-27T15:17:48Z</time>
      </trkpt>
      <trkpt lat="45.8569" lon="5.74448">
        <ele>237.939</ele>
        <time>2021-07-27T15:17:55Z</time>
      </trkpt>
      <trkpt lat="45.85631" lon="5.74734">
        <ele>246.477</ele>
        <time>2021-07-27T15:18:07Z</time>
      </trkpt>
      <trkpt lat="45.85562" lon="5.74823">
        <ele>246.461</ele>
        <time>2021-07-27T15:18:13Z</time>
      </trkpt>
      <trkpt lat="45.85486" lon="5.74974">
        <ele>244.527</ele>
        <time>2021-07-27T15:18:24Z</time>
      </trkpt>
      <trkpt lat="45.85378" lon="5.75127">
        <ele>250.208</ele>
        <time>2021-07-27T15:18:39Z</time>
      </trkpt>
      <trkpt lat="45.85314" lon="5.75249">
        <ele>241.884</ele>
        <time>2021-07-27T15:18:46Z</time>
      </trkpt>
      <trkpt lat="45.85255" lon="5.755">
        <ele>227.726</ele>
        <time>2021-07-27T15:18:58Z</time>
      </trkpt>
      <trkpt lat="45.85195" lon="5.75932">
        <ele>222.24</ele>
        <time>2021-07-27T15:19:16Z</time>
      </trkpt>
      <trkpt lat="45.85048" lon="5.76225">
        <ele>225.288</ele>
        <time>2021-07-27T15:19:30Z</time>
      </trkpt>
      <trkpt lat="45.84783" lon="5.76832">
        <ele>227.553</ele>
        <time>2021-07-27T15:20:04Z</time>
      </trkpt>
      <trkpt lat="45.84763" lon="5.76851">
        <ele>226.239</ele>
        <time>2021-07-27T15:20:08Z</time>
      </trkpt>
      <trkpt lat="45.84761" lon="5.76875">
        <ele>222.078</ele>
        <time>2021-07-27T15:20:11Z</time>
      </trkpt>
      <trkpt lat="45.84786" lon="5.76902">
        <ele>218.059</ele>
        <time>2021-07-27T15:20:15Z</time>
      </trkpt>
      <trkpt lat="45.84803" lon="5.76957">
        <ele>220.798</ele>
        <time>2021-07-27T15:20:19Z</time>
      </trkpt>
      <trkpt lat="45.84879" lon="5.7747">
        <ele>238.815</ele>
        <time>2021-07-27T15:20:43Z</time>
      </trkpt>
      <trkpt lat="45.8488" lon="5.77542">
        <ele>244.626</ele>
        <time>2021-07-27T15:20:47Z</time>
      </trkpt>
      <trkpt lat="45.84853" lon="5.77688">
        <ele>231.008</ele>
        <time>2021-07-27T15:21:04Z</time>
      </trkpt>
      <trkpt lat="45.84865" lon="5.77679">
        <ele>233.866</ele>
        <time>2021-07-27T15:21:08Z</time>
      </trkpt>
      <trkpt lat="45.84884" lon="5.77491">
        <ele>239.168</ele>
        <time>2021-07-27T15:21:18Z</time>
      </trkpt>
      <trkpt lat="45.84819" lon="5.76999">
        <ele>227.732</ele>
        <time>2021-07-27T15:21:48Z</time>
      </trkpt>
      <trkpt lat="45.84884" lon="5.77522">
        <ele>229.66</ele>
        <time>2021-07-27T15:22:32Z</time>
      </trkpt>
      <trkpt lat="45.84806" lon="5.78075">
        <ele>230.245</ele>
        <time>2021-07-27T15:23:20Z</time>
      </trkpt>
      <trkpt lat="45.84812" lon="5.78137">
        <ele>240.981</ele>
        <time>2021-07-27T15:23:37Z</time>
      </trkpt>
      <trkpt lat="45.84772" lon="5.78492">
        <ele>241.89</ele>
        <time>2021-07-27T15:24:19Z</time>
      </trkpt>
      <trkpt lat="45.84773" lon="5.78604">
        <ele>233.881</ele>
        <time>2021-07-27T15:24:27Z</time>
      </trkpt>
      <trkpt lat="45.84891" lon="5.79234">
        <ele>221.579</ele>
        <time>2021-07-27T15:25:30Z</time>
      </trkpt>
      <trkpt lat="45.85057" lon="5.79367">
        <ele>223.405</ele>
        <time>2021-07-27T15:25:44Z</time>
      </trkpt>
      <trkpt lat="45.85099" lon="5.79416">
        <ele>223.625</ele>
        <time>2021-07-27T15:25:50Z</time>
      </trkpt>
      <trkpt lat="45.85107" lon="5.79448">
        <ele>221.708</ele>
        <time>2021-07-27T15:25:53Z</time>
      </trkpt>
      <trkpt lat="45.85001" lon="5.79711">
        <ele>224.584</ele>
        <time>2021-07-27T15:26:14Z</time>
      </trkpt>
      <trkpt lat="45.8496" lon="5.79777">
        <ele>222.886</ele>
        <time>2021-07-27T15:26:22Z</time>
      </trkpt>
      <trkpt lat="45.84909" lon="5.79783">
        <ele>211.26</ele>
        <time>2021-07-27T15:27:21Z</time>
      </trkpt>
      <trkpt lat="45.84676" lon="5.79694">
        <ele>161.238</ele>
        <time>2021-07-27T15:27:46Z</time>
      </trkpt>
      <trkpt lat="45.84915" lon="5.7979">
        <ele>161.083</ele>
        <time>2021-07-27T15:28:06Z</time>
      </trkpt>
      <trkpt lat="45.84942" lon="5.79855">
        <ele>185.079</ele>
        <time>2021-07-27T15:28:13Z</time>
      </trkpt>
      <trkpt lat="45.84847" lon="5.80712">
        <ele>228.828</ele>
        <time>2021-07-27T15:28:51Z</time>
      </trkpt>
      <trkpt lat="45.84503" lon="5.80849">
        <ele>230.969</ele>
        <time>2021-07-27T15:29:13Z</time>
      </trkpt>
      <trkpt lat="45.84337" lon="5.80959">
        <ele>227.271</ele>
        <time>2021-07-27T15:29:22Z</time>
      </trkpt>
      <trkpt lat="45.84216" lon="5.80975">
        <ele>231.141</ele>
        <time>2021-07-27T15:29:28Z</time>
      </trkpt>
      <trkpt lat="45.8397" lon="5.80963">
        <ele>229.115</ele>
        <time>2021-07-27T15:29:39Z</time>
      </trkpt>
      <trkpt lat="45.8379" lon="5.81042">
        <ele>222.108</ele>
        <time>2021-07-27T15:29:47Z</time>
      </trkpt>
      <trkpt lat="45.83618" lon="5.8105">
        <ele>218.694</ele>
        <time>2021-07-27T15:29:56Z</time>
      </trkpt>
      <trkpt lat="45.83361" lon="5.81191">
        <ele>223.856</ele>
        <time>2021-07-27T15:30:14Z</time>
      </trkpt>
      <trkpt lat="45.83195" lon="5.81232">
        <ele>223.14</ele>
        <time>2021-07-27T15:30:22Z</time>
      </trkpt>
      <trkpt lat="45.83076" lon="5.81208">
        <ele>220.198</ele>
        <time>2021-07-27T15:30:28Z</time>
      </trkpt>
      <trkpt lat="45.82797" lon="5.81208">
        <ele>222.673</ele>
        <time>2021-07-27T15:30:43Z</time>
      </trkpt>
      <trkpt lat="45.82715" lon="5.81152">
        <ele>226.959</ele>
        <time>2021-07-27T15:30:48Z</time>
      </trkpt>
      <trkpt lat="45.82613" lon="5.81013">
        <ele>227.138</ele>
        <time>2021-07-27T15:30:56Z</time>
      </trkpt>
      <trkpt lat="45.82483" lon="5.80939">
        <ele>222.779</ele>
        <time>2021-07-27T15:31:05Z</time>
      </trkpt>
      <trkpt lat="45.82461" lon="5.80871">
        <ele>222.098</ele>
        <time>2021-07-27T15:31:09Z</time>
      </trkpt>
      <trkpt lat="45.82465" lon="5.80695">
        <ele>222.915</ele>
        <time>2021-07-27T15:31:19Z</time>
      </trkpt>
      <trkpt lat="45.82403" lon="5.80619">
        <ele>213.726</ele>
        <time>2021-07-27T15:31:27Z</time>
      </trkpt>
      <trkpt lat="45.82287" lon="5.80531">
        <ele>217.908</ele>
        <time>2021-07-27T15:31:36Z</time>
      </trkpt>
      <trkpt lat="45.82245" lon="5.80469">
        <ele>225.996</ele>
        <time>2021-07-27T15:31:40Z</time>
      </trkpt>
      <trkpt lat="45.82164" lon="5.80283">
        <ele>221.088</ele>
        <time>2021-07-27T15:31:49Z</time>
      </trkpt>
      <trkpt lat="45.82108" lon="5.80214">
        <ele>214.322</ele>
        <time>2021-07-27T15:31:53Z</time>
      </trkpt>
      <trkpt lat="45.81981" lon="5.80138">
        <ele>216.51</ele>
        <time>2021-07-27T15:32:00Z</time>
      </trkpt>
      <trkpt lat="45.8175" lon="5.799">
        <ele>219.655</ele>
        <time>2021-07-27T15:32:14Z</time>
      </trkpt>
      <trkpt lat="45.81219" lon="5.79534">
        <ele>214.641</ele>
        <time>2021-07-27T15:32:43Z</time>
      </trkpt>
      <trkpt lat="45.8113" lon="5.79491">
        <ele>227.16</ele>
        <time>2021-07-27T15:32:50Z</time>
      </trkpt>
      <trkpt lat="45.81045" lon="5.79507">
        <ele>225.641</ele>
        <time>2021-07-27T15:32:58Z</time>
      </trkpt>
      <trkpt lat="45.81019" lon="5.79475">
        <ele>230.113</ele>
        <time>2021-07-27T15:33:05Z</time>
      </trkpt>
      <trkpt lat="45.80957" lon="5.79452">
        <ele>232.943</ele>
        <time>2021-07-27T15:33:15Z</time>
      </trkpt>
      <trkpt lat="45.80907" lon="5.79409">
        <ele>224.407</ele>
        <time>2021-07-27T15:33:23Z</time>
      </trkpt>
      <trkpt lat="45.80909" lon="5.79271">
        <ele>230.408</ele>
        <time>2021-07-27T15:33:38Z</time>
      </trkpt>
      <trkpt lat="45.80877" lon="5.79117">
        <ele>225.258</ele>
        <time>2021-07-27T15:34:07Z</time>
      </trkpt>
      <trkpt lat="45.80924" lon="5.7891">
        <ele>227.15</ele>
        <time>2021-07-27T15:35:04Z</time>
      </trkpt>
      <trkpt lat="45.80876" lon="5.79118">
        <ele>226.744</ele>
        <time>2021-07-27T15:35:58Z</time>
      </trkpt>
      <trkpt lat="45.809" lon="5.79216">
        <ele>237.722</ele>
        <time>2021-07-27T15:36:27Z</time>
      </trkpt>
    </trkseg>
  </trk>
  <trk>
    <name><![CDATA[Seyssel - Culoz - Surjoux]]></name>
    <desc><![CDATA[name=Seyssel - Culoz - Surjoux
cmt=
desc=
time=2022-12-31T10:38:18Z]]></desc>
    <extensions>
      <line xmlns="http://www.topografix.com/GPX/gpx_style/0/2">
        <color>FF00FF</color>
        <width>4</width>
      </line>
    </extensions>
    <trkseg>
      <trkpt lat="45.9515" lon="5.83002">
        <ele>260.848</ele>
        <time>2022-12-31T10:38:18Z</time>
      </trkpt>
      <trkpt lat="45.95137" lon="5.83003">
        <ele>260.861</ele>
        <time>2022-12-31T10:38:19Z</time>
      </trkpt>
      <trkpt lat="45.9514" lon="5.82944">
        <ele>260.817</ele>
        <time>2022-12-31T10:38:23Z</time>
      </trkpt>
      <trkpt lat="45.95115" lon="5.82872">
        <ele>261.109</ele>
        <time>2022-12-31T10:38:28Z</time>
      </trkpt>
      <trkpt lat="45.94931" lon="5.8268">
        <ele>270.155</ele>
        <time>2022-12-31T10:38:45Z</time>
      </trkpt>
      <trkpt lat="45.94876" lon="5.82564">
        <ele>276.226</ele>
        <time>2022-12-31T10:38:52Z</time>
      </trkpt>
      <trkpt lat="45.94816" lon="5.82379">
        <ele>286.456</ele>
        <time>2022-12-31T10:39:02Z</time>
      </trkpt>
      <trkpt lat="45.94725" lon="5.82226">
        <ele>294.577</ele>
        <time>2022-12-31T10:39:12Z</time>
      </trkpt>
      <trkpt lat="45.9466" lon="5.81842">
        <ele>312.198</ele>
        <time>2022-12-31T10:39:32Z</time>
      </trkpt>
      <trkpt lat="45.94575" lon="5.81595">
        <ele>317.417</ele>
        <time>2022-12-31T10:39:45Z</time>
      </trkpt>
      <trkpt lat="45.94536" lon="5.81528">
        <ele>318.183</ele>
        <time>2022-12-31T10:39:49Z</time>
      </trkpt>
      <trkpt lat="45.94485" lon="5.81483">
        <ele>320.652</ele>
        <time>2022-12-31T10:39:53Z</time>
      </trkpt>
      <trkpt lat="45.93981" lon="5.81255">
        <ele>327.363</ele>
        <time>2022-12-31T10:40:27Z</time>
      </trkpt>
      <trkpt lat="45.93749" lon="5.81193">
        <ele>318.925</ele>
        <time>2022-12-31T10:40:41Z</time>
      </trkpt>
      <trkpt lat="45.93632" lon="5.81197">
        <ele>318.226</ele>
        <time>2022-12-31T10:40:48Z</time>
      </trkpt>
      <trkpt lat="45.9339" lon="5.81166">
        <ele>321.308</ele>
        <time>2022-12-31T10:41:03Z</time>
      </trkpt>
      <trkpt lat="45.93242" lon="5.81089">
        <ele>316.609</ele>
        <time>2022-12-31T10:41:16Z</time>
      </trkpt>
      <trkpt lat="45.93232" lon="5.81059">
        <ele>316.053</ele>
        <time>2022-12-31T10:41:20Z</time>
      </trkpt>
      <trkpt lat="45.93262" lon="5.8099">
        <ele>321.084</ele>
        <time>2022-12-31T10:41:30Z</time>
      </trkpt>
      <trkpt lat="45.93339" lon="5.8099">
        <ele>328.564</ele>
        <time>2022-12-31T10:41:41Z</time>
      </trkpt>
      <trkpt lat="45.93449" lon="5.80949">
        <ele>338.715</ele>
        <time>2022-12-31T10:41:56Z</time>
      </trkpt>
      <trkpt lat="45.93722" lon="5.80899">
        <ele>362.536</ele>
        <time>2022-12-31T10:42:33Z</time>
      </trkpt>
      <trkpt lat="45.93724" lon="5.80882">
        <ele>365.335</ele>
        <time>2022-12-31T10:42:37Z</time>
      </trkpt>
      <trkpt lat="45.93639" lon="5.80813">
        <ele>377.741</ele>
        <time>2022-12-31T10:42:55Z</time>
      </trkpt>
      <trkpt lat="45.93548" lon="5.80768">
        <ele>388.74</ele>
        <time>2022-12-31T10:43:11Z</time>
      </trkpt>
      <trkpt lat="45.93489" lon="5.80703">
        <ele>399.261</ele>
        <time>2022-12-31T10:43:23Z</time>
      </trkpt>
      <trkpt lat="45.93459" lon="5.80692">
        <ele>402.444</ele>
        <time>2022-12-31T10:43:30Z</time>
      </trkpt>
      <trkpt lat="45.93423" lon="5.80655">
        <ele>407.805</ele>
        <time>2022-12-31T10:43:39Z</time>
      </trkpt>
      <trkpt lat="45.93299" lon="5.8065">
        <ele>424.415</ele>
        <time>2022-12-31T10:44:02Z</time>
      </trkpt>
      <trkpt lat="45.93245" lon="5.80618">
        <ele>432.109</ele>
        <time>2022-12-31T10:44:12Z</time>
      </trkpt>
      <trkpt lat="45.93187" lon="5.80535">
        <ele>443.345</ele>
        <time>2022-12-31T10:44:25Z</time>
      </trkpt>
      <trkpt lat="45.93174" lon="5.8047">
        <ele>452.556</ele>
        <time>2022-12-31T10:44:35Z</time>
      </trkpt>
      <trkpt lat="45.93143" lon="5.80409">
        <ele>462.866</ele>
        <time>2022-12-31T10:44:45Z</time>
      </trkpt>
      <trkpt lat="45.93088" lon="5.80436">
        <ele>467.787</ele>
        <time>2022-12-31T10:44:54Z</time>
      </trkpt>
      <trkpt lat="45.92942" lon="5.80307">
        <ele>495.238</ele>
        <time>2022-12-31T10:45:20Z</time>
      </trkpt>
      <trkpt lat="45.9291" lon="5.80261">
        <ele>502.947</ele>
        <time>2022-12-31T10:45:27Z</time>
      </trkpt>
      <trkpt lat="45.92918" lon="5.80249">
        <ele>506.393</ele>
        <time>2022-12-31T10:45:31Z</time>
      </trkpt>
      <trkpt lat="45.92996" lon="5.80289">
        <ele>517.822</ele>
        <time>2022-12-31T10:45:45Z</time>
      </trkpt>
      <trkpt lat="45.9307" lon="5.80263">
        <ele>525.273</ele>
        <time>2022-12-31T10:45:56Z</time>
      </trkpt>
      <trkpt lat="45.93079" lon="5.80244">
        <ele>529.821</ele>
        <time>2022-12-31T10:46:01Z</time>
      </trkpt>
      <trkpt lat="45.93003" lon="5.8022">
        <ele>538.841</ele>
        <time>2022-12-31T10:46:16Z</time>
      </trkpt>
      <trkpt lat="45.92965" lon="5.80136">
        <ele>549.305</ele>
        <time>2022-12-31T10:46:28Z</time>
      </trkpt>
      <trkpt lat="45.92656" lon="5.79997">
        <ele>595.109</ele>
        <time>2022-12-31T10:47:19Z</time>
      </trkpt>
      <trkpt lat="45.92591" lon="5.79995">
        <ele>602.683</ele>
        <time>2022-12-31T10:47:28Z</time>
      </trkpt>
      <trkpt lat="45.92441" lon="5.79849">
        <ele>622.634</ele>
        <time>2022-12-31T10:48:23Z</time>
      </trkpt>
      <trkpt lat="45.92416" lon="5.7977">
        <ele>633.684</ele>
        <time>2022-12-31T10:48:41Z</time>
      </trkpt>
      <trkpt lat="45.92376" lon="5.79715">
        <ele>643.295</ele>
        <time>2022-12-31T10:48:55Z</time>
      </trkpt>
      <trkpt lat="45.92458" lon="5.79758">
        <ele>656.536</ele>
        <time>2022-12-31T10:49:15Z</time>
      </trkpt>
      <trkpt lat="45.92552" lon="5.79759">
        <ele>670.945</ele>
        <time>2022-12-31T10:49:34Z</time>
      </trkpt>
      <trkpt lat="45.92556" lon="5.79748">
        <ele>674.081</ele>
        <time>2022-12-31T10:49:38Z</time>
      </trkpt>
      <trkpt lat="45.92496" lon="5.79692">
        <ele>684.03</ele>
        <time>2022-12-31T10:49:53Z</time>
      </trkpt>
      <trkpt lat="45.92493" lon="5.79655">
        <ele>690.081</ele>
        <time>2022-12-31T10:49:59Z</time>
      </trkpt>
      <trkpt lat="45.92541" lon="5.79676">
        <ele>696.458</ele>
        <time>2022-12-31T10:50:09Z</time>
      </trkpt>
      <trkpt lat="45.92635" lon="5.79666">
        <ele>704.352</ele>
        <time>2022-12-31T10:50:24Z</time>
      </trkpt>
      <trkpt lat="45.92685" lon="5.79708">
        <ele>712.817</ele>
        <time>2022-12-31T10:50:34Z</time>
      </trkpt>
      <trkpt lat="45.92716" lon="5.79706">
        <ele>716.609</ele>
        <time>2022-12-31T10:50:39Z</time>
      </trkpt>
      <trkpt lat="45.92747" lon="5.79781">
        <ele>722.646</ele>
        <time>2022-12-31T10:50:53Z</time>
      </trkpt>
      <trkpt lat="45.92742" lon="5.79698">
        <ele>728.857</ele>
        <time>2022-12-31T10:52:07Z</time>
      </trkpt>
      <trkpt lat="45.92701" lon="5.79571">
        <ele>739.367</ele>
        <time>2022-12-31T10:52:24Z</time>
      </trkpt>
      <trkpt lat="45.92777" lon="5.79672">
        <ele>748.698</ele>
        <time>2022-12-31T10:52:42Z</time>
      </trkpt>
      <trkpt lat="45.92804" lon="5.79679">
        <ele>751.919</ele>
        <time>2022-12-31T10:52:48Z</time>
      </trkpt>
      <trkpt lat="45.92809" lon="5.79657">
        <ele>755.428</ele>
        <time>2022-12-31T10:52:52Z</time>
      </trkpt>
      <trkpt lat="45.92742" lon="5.79544">
        <ele>767.194</ele>
        <time>2022-12-31T10:53:09Z</time>
      </trkpt>
      <trkpt lat="45.92718" lon="5.79421">
        <ele>777.523</ele>
        <time>2022-12-31T10:53:23Z</time>
      </trkpt>
      <trkpt lat="45.92705" lon="5.79416">
        <ele>779.374</ele>
        <time>2022-12-31T10:53:27Z</time>
      </trkpt>
      <trkpt lat="45.92659" lon="5.79446">
        <ele>783.219</ele>
        <time>2022-12-31T10:53:36Z</time>
      </trkpt>
      <trkpt lat="45.9264" lon="5.79422">
        <ele>786.009</ele>
        <time>2022-12-31T10:53:40Z</time>
      </trkpt>
      <trkpt lat="45.92637" lon="5.79361">
        <ele>790.719</ele>
        <time>2022-12-31T10:53:47Z</time>
      </trkpt>
      <trkpt lat="45.92535" lon="5.79323">
        <ele>794.909</ele>
        <time>2022-12-31T10:54:02Z</time>
      </trkpt>
      <trkpt lat="45.92519" lon="5.79292">
        <ele>796.222</ele>
        <time>2022-12-31T10:54:07Z</time>
      </trkpt>
      <trkpt lat="45.92587" lon="5.79288">
        <ele>801.693</ele>
        <time>2022-12-31T10:54:17Z</time>
      </trkpt>
      <trkpt lat="45.92647" lon="5.7925">
        <ele>808.633</ele>
        <time>2022-12-31T10:54:27Z</time>
      </trkpt>
      <trkpt lat="45.92769" lon="5.79245">
        <ele>823.064</ele>
        <time>2022-12-31T10:54:47Z</time>
      </trkpt>
      <trkpt lat="45.92777" lon="5.79207">
        <ele>829.925</ele>
        <time>2022-12-31T10:55:04Z</time>
      </trkpt>
      <trkpt lat="45.92767" lon="5.79186">
        <ele>832.354</ele>
        <time>2022-12-31T10:55:42Z</time>
      </trkpt>
      <trkpt lat="45.92777" lon="5.79206">
        <ele>832.39</ele>
        <time>2022-12-31T10:56:15Z</time>
      </trkpt>
      <trkpt lat="45.92808" lon="5.7921">
        <ele>831.829</ele>
        <time>2022-12-31T10:56:40Z</time>
      </trkpt>
      <trkpt lat="45.92853" lon="5.79181">
        <ele>833.86</ele>
        <time>2022-12-31T10:56:52Z</time>
      </trkpt>
      <trkpt lat="45.92864" lon="5.79205">
        <ele>835.755</ele>
        <time>2022-12-31T10:56:56Z</time>
      </trkpt>
      <trkpt lat="45.92853" lon="5.79267">
        <ele>838.007</ele>
        <time>2022-12-31T10:57:04Z</time>
      </trkpt>
      <trkpt lat="45.9287" lon="5.79286">
        <ele>842.417</ele>
        <time>2022-12-31T10:57:09Z</time>
      </trkpt>
      <trkpt lat="45.92903" lon="5.79239">
        <ele>846.709</ele>
        <time>2022-12-31T10:57:18Z</time>
      </trkpt>
      <trkpt lat="45.92976" lon="5.79223">
        <ele>855.086</ele>
        <time>2022-12-31T10:57:30Z</time>
      </trkpt>
      <trkpt lat="45.93024" lon="5.79188">
        <ele>860.477</ele>
        <time>2022-12-31T10:57:39Z</time>
      </trkpt>
      <trkpt lat="45.93091" lon="5.79185">
        <ele>868.677</ele>
        <time>2022-12-31T10:57:50Z</time>
      </trkpt>
      <trkpt lat="45.93102" lon="5.79164">
        <ele>871.018</ele>
        <time>2022-12-31T10:57:54Z</time>
      </trkpt>
      <trkpt lat="45.93039" lon="5.79064">
        <ele>881.669</ele>
        <time>2022-12-31T10:58:09Z</time>
      </trkpt>
      <trkpt lat="45.93007" lon="5.78892">
        <ele>894.988</ele>
        <time>2022-12-31T10:58:28Z</time>
      </trkpt>
      <trkpt lat="45.92976" lon="5.78847">
        <ele>900.154</ele>
        <time>2022-12-31T10:58:34Z</time>
      </trkpt>
      <trkpt lat="45.92766" lon="5.78816">
        <ele>908.963</ele>
        <time>2022-12-31T10:58:54Z</time>
      </trkpt>
      <trkpt lat="45.92655" lon="5.78816">
        <ele>918.244</ele>
        <time>2022-12-31T10:59:05Z</time>
      </trkpt>
      <trkpt lat="45.92578" lon="5.78783">
        <ele>922.822</ele>
        <time>2022-12-31T11:02:35Z</time>
      </trkpt>
      <trkpt lat="45.92467" lon="5.78762">
        <ele>932.362</ele>
        <time>2022-12-31T11:02:52Z</time>
      </trkpt>
      <trkpt lat="45.92439" lon="5.78732">
        <ele>936.908</ele>
        <time>2022-12-31T11:03:02Z</time>
      </trkpt>
      <trkpt lat="45.92407" lon="5.78733">
        <ele>938.609</ele>
        <time>2022-12-31T11:03:09Z</time>
      </trkpt>
      <trkpt lat="45.92394" lon="5.78679">
        <ele>945.433</ele>
        <time>2022-12-31T11:03:19Z</time>
      </trkpt>
      <trkpt lat="45.92374" lon="5.78675">
        <ele>949.194</ele>
        <time>2022-12-31T11:03:25Z</time>
      </trkpt>
      <trkpt lat="45.9243" lon="5.78632">
        <ele>958.574</ele>
        <time>2022-12-31T11:03:41Z</time>
      </trkpt>
      <trkpt lat="45.92488" lon="5.78491">
        <ele>971.145</ele>
        <time>2022-12-31T11:04:06Z</time>
      </trkpt>
      <trkpt lat="45.92684" lon="5.78411">
        <ele>985.996</ele>
        <time>2022-12-31T11:04:39Z</time>
      </trkpt>
      <trkpt lat="45.93025" lon="5.78406">
        <ele>1017.485</ele>
        <time>2022-12-31T11:05:38Z</time>
      </trkpt>
      <trkpt lat="45.93223" lon="5.78378">
        <ele>1040.761</ele>
        <time>2022-12-31T11:06:11Z</time>
      </trkpt>
      <trkpt lat="45.93314" lon="5.78328">
        <ele>1049.94</ele>
        <time>2022-12-31T11:06:28Z</time>
      </trkpt>
      <trkpt lat="45.93432" lon="5.78314">
        <ele>1063.641</ele>
        <time>2022-12-31T11:06:46Z</time>
      </trkpt>
      <trkpt lat="45.93771" lon="5.78193">
        <ele>1109.468</ele>
        <time>2022-12-31T11:07:43Z</time>
      </trkpt>
      <trkpt lat="45.93864" lon="5.78106">
        <ele>1122.142</ele>
        <time>2022-12-31T11:08:10Z</time>
      </trkpt>
      <trkpt lat="45.93741" lon="5.78095">
        <ele>1135.826</ele>
        <time>2022-12-31T11:09:05Z</time>
      </trkpt>
      <trkpt lat="45.93639" lon="5.78065">
        <ele>1146.909</ele>
        <time>2022-12-31T11:09:20Z</time>
      </trkpt>
      <trkpt lat="45.93479" lon="5.7806">
        <ele>1161.077</ele>
        <time>2022-12-31T11:09:46Z</time>
      </trkpt>
      <trkpt lat="45.93418" lon="5.78033">
        <ele>1166.198</ele>
        <time>2022-12-31T11:09:58Z</time>
      </trkpt>
      <trkpt lat="45.93325" lon="5.78044">
        <ele>1174.998</ele>
        <time>2022-12-31T11:10:14Z</time>
      </trkpt>
      <trkpt lat="45.93277" lon="5.78034">
        <ele>1177.119</ele>
        <time>2022-12-31T11:10:22Z</time>
      </trkpt>
      <trkpt lat="45.93222" lon="5.7799">
        <ele>1186.88</ele>
        <time>2022-12-31T11:14:43Z</time>
      </trkpt>
      <trkpt lat="45.93138" lon="5.78004">
        <ele>1187.769</ele>
        <time>2022-12-31T11:15:10Z</time>
      </trkpt>
      <trkpt lat="45.93048" lon="5.77961">
        <ele>1188.595</ele>
        <time>2022-12-31T11:15:28Z</time>
      </trkpt>
      <trkpt lat="45.92999" lon="5.77961">
        <ele>1185.494</ele>
        <time>2022-12-31T11:15:37Z</time>
      </trkpt>
      <trkpt lat="45.92918" lon="5.78001">
        <ele>1175.965</ele>
        <time>2022-12-31T11:16:05Z</time>
      </trkpt>
      <trkpt lat="45.92835" lon="5.77993">
        <ele>1175.814</ele>
        <time>2022-12-31T11:16:22Z</time>
      </trkpt>
      <trkpt lat="45.92771" lon="5.77961">
        <ele>1175.354</ele>
        <time>2022-12-31T11:16:34Z</time>
      </trkpt>
      <trkpt lat="45.92695" lon="5.77962">
        <ele>1173.609</ele>
        <time>2022-12-31T11:16:49Z</time>
      </trkpt>
      <trkpt lat="45.92665" lon="5.7794">
        <ele>1174.009</ele>
        <time>2022-12-31T11:16:57Z</time>
      </trkpt>
      <trkpt lat="45.92617" lon="5.77965">
        <ele>1175.072</ele>
        <time>2022-12-31T11:17:56Z</time>
      </trkpt>
      <trkpt lat="45.92587" lon="5.77923">
        <ele>1174.933</ele>
        <time>2022-12-31T11:18:11Z</time>
      </trkpt>
      <trkpt lat="45.92553" lon="5.77939">
        <ele>1177.143</ele>
        <time>2022-12-31T11:18:20Z</time>
      </trkpt>
      <trkpt lat="45.92396" lon="5.77927">
        <ele>1178.724</ele>
        <time>2022-12-31T11:18:45Z</time>
      </trkpt>
      <trkpt lat="45.92312" lon="5.7786">
        <ele>1178.175</ele>
        <time>2022-12-31T11:18:59Z</time>
      </trkpt>
      <trkpt lat="45.92285" lon="5.77889">
        <ele>1179.464</ele>
        <time>2022-12-31T11:19:05Z</time>
      </trkpt>
      <trkpt lat="45.92201" lon="5.77864">
        <ele>1170.96</ele>
        <time>2022-12-31T11:19:20Z</time>
      </trkpt>
      <trkpt lat="45.9209" lon="5.7792">
        <ele>1164.569</ele>
        <time>2022-12-31T11:19:37Z</time>
      </trkpt>
      <trkpt lat="45.92065" lon="5.77909">
        <ele>1163.19</ele>
        <time>2022-12-31T11:19:41Z</time>
      </trkpt>
      <trkpt lat="45.92034" lon="5.77845">
        <ele>1159.253</ele>
        <time>2022-12-31T11:19:50Z</time>
      </trkpt>
      <trkpt lat="45.91973" lon="5.7787">
        <ele>1158.304</ele>
        <time>2022-12-31T11:20:03Z</time>
      </trkpt>
      <trkpt lat="45.91939" lon="5.77851">
        <ele>1157.014</ele>
        <time>2022-12-31T11:20:10Z</time>
      </trkpt>
      <trkpt lat="45.91884" lon="5.77852">
        <ele>1157.109</ele>
        <time>2022-12-31T11:20:20Z</time>
      </trkpt>
      <trkpt lat="45.91779" lon="5.77772">
        <ele>1154.856</ele>
        <time>2022-12-31T11:21:47Z</time>
      </trkpt>
      <trkpt lat="45.91728" lon="5.77756">
        <ele>1156.287</ele>
        <time>2022-12-31T11:21:55Z</time>
      </trkpt>
      <trkpt lat="45.91691" lon="5.77704">
        <ele>1156.937</ele>
        <time>2022-12-31T11:22:03Z</time>
      </trkpt>
      <trkpt lat="45.91617" lon="5.7767">
        <ele>1156.068</ele>
        <time>2022-12-31T11:22:16Z</time>
      </trkpt>
      <trkpt lat="45.91574" lon="5.77689">
        <ele>1157.239</ele>
        <time>2022-12-31T11:22:24Z</time>
      </trkpt>
      <trkpt lat="45.9148" lon="5.7762">
        <ele>1156.938</ele>
        <time>2022-12-31T11:22:41Z</time>
      </trkpt>
      <trkpt lat="45.91413" lon="5.77676">
        <ele>1149.894</ele>
        <time>2022-12-31T11:22:55Z</time>
      </trkpt>
      <trkpt lat="45.91352" lon="5.77671">
        <ele>1146.773</ele>
        <time>2022-12-31T11:25:01Z</time>
      </trkpt>
      <trkpt lat="45.91325" lon="5.7771">
        <ele>1144.514</ele>
        <time>2022-12-31T11:25:14Z</time>
      </trkpt>
      <trkpt lat="45.91242" lon="5.77748">
        <ele>1131.097</ele>
        <time>2022-12-31T11:25:35Z</time>
      </trkpt>
      <trkpt lat="45.91193" lon="5.77793">
        <ele>1127.323</ele>
        <time>2022-12-31T11:30:58Z</time>
      </trkpt>
      <trkpt lat="45.91053" lon="5.77712">
        <ele>1126.525</ele>
        <time>2022-12-31T11:31:17Z</time>
      </trkpt>
      <trkpt lat="45.90957" lon="5.77599">
        <ele>1131.409</ele>
        <time>2022-12-31T11:31:27Z</time>
      </trkpt>
      <trkpt lat="45.90872" lon="5.77542">
        <ele>1141.46</ele>
        <time>2022-12-31T11:31:36Z</time>
      </trkpt>
      <trkpt lat="45.90779" lon="5.77574">
        <ele>1149.571</ele>
        <time>2022-12-31T11:31:46Z</time>
      </trkpt>
      <trkpt lat="45.90719" lon="5.77561">
        <ele>1158.251</ele>
        <time>2022-12-31T11:31:54Z</time>
      </trkpt>
      <trkpt lat="45.90715" lon="5.77575">
        <ele>1160.382</ele>
        <time>2022-12-31T11:33:19Z</time>
      </trkpt>
      <trkpt lat="45.90718" lon="5.77555">
        <ele>1160.233</ele>
        <time>2022-12-31T11:33:37Z</time>
      </trkpt>
      <trkpt lat="45.90701" lon="5.77536">
        <ele>1161.072</ele>
        <time>2022-12-31T11:33:42Z</time>
      </trkpt>
      <trkpt lat="45.90665" lon="5.7753">
        <ele>1165.638</ele>
        <time>2022-12-31T11:33:52Z</time>
      </trkpt>
      <trkpt lat="45.90625" lon="5.77572">
        <ele>1171.867</ele>
        <time>2022-12-31T11:34:03Z</time>
      </trkpt>
      <trkpt lat="45.90494" lon="5.77612">
        <ele>1181.288</ele>
        <time>2022-12-31T11:34:34Z</time>
      </trkpt>
      <trkpt lat="45.90303" lon="5.77613">
        <ele>1186.065</ele>
        <time>2022-12-31T11:35:11Z</time>
      </trkpt>
      <trkpt lat="45.90217" lon="5.77585">
        <ele>1187.868</ele>
        <time>2022-12-31T11:36:56Z</time>
      </trkpt>
      <trkpt lat="45.90113" lon="5.77581">
        <ele>1192.414</ele>
        <time>2022-12-31T11:37:19Z</time>
      </trkpt>
      <trkpt lat="45.89911" lon="5.77525">
        <ele>1200.109</ele>
        <time>2022-12-31T11:37:56Z</time>
      </trkpt>
      <trkpt lat="45.89837" lon="5.77464">
        <ele>1203.387</ele>
        <time>2022-12-31T11:39:25Z</time>
      </trkpt>
      <trkpt lat="45.89758" lon="5.77431">
        <ele>1190.778</ele>
        <time>2022-12-31T11:40:06Z</time>
      </trkpt>
      <trkpt lat="45.89638" lon="5.77427">
        <ele>1190.188</ele>
        <time>2022-12-31T11:40:41Z</time>
      </trkpt>
      <trkpt lat="45.89674" lon="5.77429">
        <ele>1190.689</ele>
        <time>2022-12-31T11:44:25Z</time>
      </trkpt>
      <trkpt lat="45.89548" lon="5.77423">
        <ele>1194.44</ele>
        <time>2022-12-31T11:45:03Z</time>
      </trkpt>
      <trkpt lat="45.89363" lon="5.77327">
        <ele>1210.899</ele>
        <time>2022-12-31T11:46:09Z</time>
      </trkpt>
      <trkpt lat="45.89294" lon="5.77337">
        <ele>1218.635</ele>
        <time>2022-12-31T11:46:26Z</time>
      </trkpt>
      <trkpt lat="45.89208" lon="5.7732">
        <ele>1225.524</ele>
        <time>2022-12-31T11:46:45Z</time>
      </trkpt>
      <trkpt lat="45.89014" lon="5.77223">
        <ele>1229.185</ele>
        <time>2022-12-31T11:47:55Z</time>
      </trkpt>
      <trkpt lat="45.88817" lon="5.77162">
        <ele>1226.652</ele>
        <time>2022-12-31T11:52:08Z</time>
      </trkpt>
      <trkpt lat="45.88744" lon="5.77157">
        <ele>1229.153</ele>
        <time>2022-12-31T11:52:26Z</time>
      </trkpt>
      <trkpt lat="45.88574" lon="5.77192">
        <ele>1242.508</ele>
        <time>2022-12-31T11:53:16Z</time>
      </trkpt>
      <trkpt lat="45.88445" lon="5.77186">
        <ele>1247.709</ele>
        <time>2022-12-31T11:53:51Z</time>
      </trkpt>
      <trkpt lat="45.88374" lon="5.77215">
        <ele>1250.476</ele>
        <time>2022-12-31T11:54:46Z</time>
      </trkpt>
      <trkpt lat="45.88471" lon="5.77242">
        <ele>1254.517</ele>
        <time>2022-12-31T12:51:48Z</time>
      </trkpt>
      <trkpt lat="45.88476" lon="5.77191">
        <ele>1254.987</ele>
        <time>2022-12-31T12:52:08Z</time>
      </trkpt>
      <trkpt lat="45.88452" lon="5.77186">
        <ele>1253.138</ele>
        <time>2022-12-31T12:52:22Z</time>
      </trkpt>
      <trkpt lat="45.88368" lon="5.7722">
        <ele>1255.549</ele>
        <time>2022-12-31T12:52:50Z</time>
      </trkpt>
      <trkpt lat="45.88359" lon="5.77245">
        <ele>1255.068</ele>
        <time>2022-12-31T12:53:21Z</time>
      </trkpt>
      <trkpt lat="45.8841" lon="5.77015">
        <ele>1262.624</ele>
        <time>2022-12-31T12:53:52Z</time>
      </trkpt>
      <trkpt lat="45.88373" lon="5.76884">
        <ele>1263.893</ele>
        <time>2022-12-31T12:54:03Z</time>
      </trkpt>
      <trkpt lat="45.88411" lon="5.76744">
        <ele>1269.844</ele>
        <time>2022-12-31T12:54:15Z</time>
      </trkpt>
      <trkpt lat="45.88372" lon="5.76627">
        <ele>1276.578</ele>
        <time>2022-12-31T12:54:25Z</time>
      </trkpt>
      <trkpt lat="45.88316" lon="5.76305">
        <ele>1301.233</ele>
        <time>2022-12-31T12:54:46Z</time>
      </trkpt>
      <trkpt lat="45.88294" lon="5.76273">
        <ele>1304.926</ele>
        <time>2022-12-31T12:54:49Z</time>
      </trkpt>
      <trkpt lat="45.88215" lon="5.76259">
        <ele>1316.609</ele>
        <time>2022-12-31T12:54:58Z</time>
      </trkpt>
      <trkpt lat="45.88205" lon="5.76215">
        <ele>1319.518</ele>
        <time>2022-12-31T12:55:03Z</time>
      </trkpt>
      <trkpt lat="45.8823" lon="5.76188">
        <ele>1322.439</ele>
        <time>2022-12-31T12:55:07Z</time>
      </trkpt>
      <trkpt lat="45.8851" lon="5.76054">
        <ele>1346.269</ele>
        <time>2022-12-31T12:55:32Z</time>
      </trkpt>
      <trkpt lat="45.88583" lon="5.76055">
        <ele>1352.45</ele>
        <time>2022-12-31T12:55:42Z</time>
      </trkpt>
      <trkpt lat="45.88466" lon="5.76014">
        <ele>1361.161</ele>
        <time>2022-12-31T12:57:20Z</time>
      </trkpt>
      <trkpt lat="45.88473" lon="5.75989">
        <ele>1362.38</ele>
        <time>2022-12-31T12:57:26Z</time>
      </trkpt>
      <trkpt lat="45.88516" lon="5.75962">
        <ele>1365.666</ele>
        <time>2022-12-31T12:59:22Z</time>
      </trkpt>
      <trkpt lat="45.88474" lon="5.75989">
        <ele>1364.835</ele>
        <time>2022-12-31T12:59:31Z</time>
      </trkpt>
      <trkpt lat="45.8846" lon="5.76015">
        <ele>1362.016</ele>
        <time>2022-12-31T12:59:36Z</time>
      </trkpt>
      <trkpt lat="45.88412" lon="5.7603">
        <ele>1357.215</ele>
        <time>2022-12-31T12:59:57Z</time>
      </trkpt>
      <trkpt lat="45.88329" lon="5.7599">
        <ele>1369.765</ele>
        <time>2022-12-31T13:00:08Z</time>
      </trkpt>
      <trkpt lat="45.88285" lon="5.75906">
        <ele>1374.511</ele>
        <time>2022-12-31T13:00:18Z</time>
      </trkpt>
      <trkpt lat="45.88088" lon="5.75802">
        <ele>1405.609</ele>
        <time>2022-12-31T13:00:44Z</time>
      </trkpt>
      <trkpt lat="45.88093" lon="5.75786">
        <ele>1407.462</ele>
        <time>2022-12-31T13:00:47Z</time>
      </trkpt>
      <trkpt lat="45.88173" lon="5.75764">
        <ele>1421.873</ele>
        <time>2022-12-31T13:06:34Z</time>
      </trkpt>
      <trkpt lat="45.88085" lon="5.75798">
        <ele>1409.733</ele>
        <time>2022-12-31T13:06:52Z</time>
      </trkpt>
      <trkpt lat="45.88299" lon="5.7592">
        <ele>1376.094</ele>
        <time>2022-12-31T13:07:21Z</time>
      </trkpt>
      <trkpt lat="45.88333" lon="5.75991">
        <ele>1369.555</ele>
        <time>2022-12-31T13:07:29Z</time>
      </trkpt>
      <trkpt lat="45.88412" lon="5.76032">
        <ele>1363.944</ele>
        <time>2022-12-31T13:07:37Z</time>
      </trkpt>
      <trkpt lat="45.88471" lon="5.7602">
        <ele>1361.29</ele>
        <time>2022-12-31T13:07:44Z</time>
      </trkpt>
      <trkpt lat="45.88562" lon="5.76047">
        <ele>1351.479</ele>
        <time>2022-12-31T13:08:04Z</time>
      </trkpt>
      <trkpt lat="45.88437" lon="5.76081">
        <ele>1347.96</ele>
        <time>2022-12-31T13:08:21Z</time>
      </trkpt>
      <trkpt lat="45.88231" lon="5.76189">
        <ele>1327.528</ele>
        <time>2022-12-31T13:08:39Z</time>
      </trkpt>
      <trkpt lat="45.88206" lon="5.7622">
        <ele>1326.089</ele>
        <time>2022-12-31T13:08:43Z</time>
      </trkpt>
      <trkpt lat="45.88216" lon="5.76263">
        <ele>1320.317</ele>
        <time>2022-12-31T13:08:48Z</time>
      </trkpt>
      <trkpt lat="45.88282" lon="5.76272">
        <ele>1315.609</ele>
        <time>2022-12-31T13:08:58Z</time>
      </trkpt>
      <trkpt lat="45.8832" lon="5.76321">
        <ele>1308.913</ele>
        <time>2022-12-31T13:09:03Z</time>
      </trkpt>
      <trkpt lat="45.88372" lon="5.76644">
        <ele>1283.394</ele>
        <time>2022-12-31T13:09:21Z</time>
      </trkpt>
      <trkpt lat="45.88408" lon="5.76751">
        <ele>1276.924</ele>
        <time>2022-12-31T13:09:30Z</time>
      </trkpt>
      <trkpt lat="45.88405" lon="5.76805">
        <ele>1273.665</ele>
        <time>2022-12-31T13:09:34Z</time>
      </trkpt>
      <trkpt lat="45.88374" lon="5.76883">
        <ele>1270.426</ele>
        <time>2022-12-31T13:09:41Z</time>
      </trkpt>
      <trkpt lat="45.8841" lon="5.77012">
        <ele>1267.795</ele>
        <time>2022-12-31T13:09:54Z</time>
      </trkpt>
      <trkpt lat="45.88358" lon="5.77246">
        <ele>1256.521</ele>
        <time>2022-12-31T13:10:13Z</time>
      </trkpt>
      <trkpt lat="45.883" lon="5.77254">
        <ele>1259.93</ele>
        <time>2022-12-31T13:10:44Z</time>
      </trkpt>
      <trkpt lat="45.88074" lon="5.77398">
        <ele>1272.861</ele>
        <time>2022-12-31T13:16:10Z</time>
      </trkpt>
      <trkpt lat="45.87922" lon="5.77441">
        <ele>1273.812</ele>
        <time>2022-12-31T13:16:58Z</time>
      </trkpt>
      <trkpt lat="45.87726" lon="5.77403">
        <ele>1274.432</ele>
        <time>2022-12-31T13:18:44Z</time>
      </trkpt>
      <trkpt lat="45.8762" lon="5.77428">
        <ele>1266.905</ele>
        <time>2022-12-31T13:19:28Z</time>
      </trkpt>
      <trkpt lat="45.87551" lon="5.77423">
        <ele>1262.009</ele>
        <time>2022-12-31T13:19:46Z</time>
      </trkpt>
      <trkpt lat="45.87503" lon="5.77381">
        <ele>1258.222</ele>
        <time>2022-12-31T13:20:04Z</time>
      </trkpt>
      <trkpt lat="45.87363" lon="5.77349">
        <ele>1249.333</ele>
        <time>2022-12-31T13:20:45Z</time>
      </trkpt>
      <trkpt lat="45.8727" lon="5.77284">
        <ele>1241.583</ele>
        <time>2022-12-31T13:21:21Z</time>
      </trkpt>
      <trkpt lat="45.87108" lon="5.77273">
        <ele>1237.344</ele>
        <time>2022-12-31T13:22:20Z</time>
      </trkpt>
      <trkpt lat="45.87091" lon="5.77291">
        <ele>1234.465</ele>
        <time>2022-12-31T13:22:27Z</time>
      </trkpt>
      <trkpt lat="45.87091" lon="5.77331">
        <ele>1232.084</ele>
        <time>2022-12-31T13:22:35Z</time>
      </trkpt>
      <trkpt lat="45.87144" lon="5.77524">
        <ele>1222.81</ele>
        <time>2022-12-31T13:23:46Z</time>
      </trkpt>
      <trkpt lat="45.87177" lon="5.77587">
        <ele>1217.729</ele>
        <time>2022-12-31T13:24:04Z</time>
      </trkpt>
      <trkpt lat="45.87121" lon="5.77588">
        <ele>1212.07</ele>
        <time>2022-12-31T13:24:20Z</time>
      </trkpt>
      <trkpt lat="45.87046" lon="5.77524">
        <ele>1211.347</ele>
        <time>2022-12-31T13:24:34Z</time>
      </trkpt>
      <trkpt lat="45.86846" lon="5.77446">
        <ele>1199.129</ele>
        <time>2022-12-31T13:25:03Z</time>
      </trkpt>
      <trkpt lat="45.86789" lon="5.77437">
        <ele>1196.021</ele>
        <time>2022-12-31T13:26:14Z</time>
      </trkpt>
      <trkpt lat="45.86696" lon="5.77473">
        <ele>1188.809</ele>
        <time>2022-12-31T13:26:24Z</time>
      </trkpt>
      <trkpt lat="45.86566" lon="5.77465">
        <ele>1180.395</ele>
        <time>2022-12-31T13:26:40Z</time>
      </trkpt>
      <trkpt lat="45.86547" lon="5.77425">
        <ele>1181.556</ele>
        <time>2022-12-31T13:26:48Z</time>
      </trkpt>
      <trkpt lat="45.8653" lon="5.77424">
        <ele>1180.816</ele>
        <time>2022-12-31T13:28:10Z</time>
      </trkpt>
      <trkpt lat="45.8652" lon="5.77449">
        <ele>1179.467</ele>
        <time>2022-12-31T13:28:32Z</time>
      </trkpt>
      <trkpt lat="45.86495" lon="5.77424">
        <ele>1174.438</ele>
        <time>2022-12-31T13:38:05Z</time>
      </trkpt>
      <trkpt lat="45.86559" lon="5.7748">
        <ele>1180.927</ele>
        <time>2022-12-31T13:38:44Z</time>
      </trkpt>
      <trkpt lat="45.86584" lon="5.7753">
        <ele>1178.753</ele>
        <time>2022-12-31T13:38:58Z</time>
      </trkpt>
      <trkpt lat="45.86629" lon="5.7754">
        <ele>1173.012</ele>
        <time>2022-12-31T13:39:13Z</time>
      </trkpt>
      <trkpt lat="45.86704" lon="5.77704">
        <ele>1156.893</ele>
        <time>2022-12-31T13:39:55Z</time>
      </trkpt>
      <trkpt lat="45.86654" lon="5.77745">
        <ele>1151.214</ele>
        <time>2022-12-31T13:40:13Z</time>
      </trkpt>
      <trkpt lat="45.86647" lon="5.77784">
        <ele>1148.254</ele>
        <time>2022-12-31T13:40:21Z</time>
      </trkpt>
      <trkpt lat="45.86676" lon="5.77821">
        <ele>1144.509</ele>
        <time>2022-12-31T13:40:33Z</time>
      </trkpt>
      <trkpt lat="45.86738" lon="5.77851">
        <ele>1137.109</ele>
        <time>2022-12-31T13:40:53Z</time>
      </trkpt>
      <trkpt lat="45.86626" lon="5.77924">
        <ele>1119.432</ele>
        <time>2022-12-31T13:41:31Z</time>
      </trkpt>
      <trkpt lat="45.86592" lon="5.77925">
        <ele>1113.463</ele>
        <time>2022-12-31T13:41:43Z</time>
      </trkpt>
      <trkpt lat="45.86482" lon="5.77772">
        <ele>1087.633</ele>
        <time>2022-12-31T13:42:58Z</time>
      </trkpt>
      <trkpt lat="45.86404" lon="5.77483">
        <ele>1053.944</ele>
        <time>2022-12-31T13:44:11Z</time>
      </trkpt>
      <trkpt lat="45.86357" lon="5.77391">
        <ele>1042.645</ele>
        <time>2022-12-31T13:44:41Z</time>
      </trkpt>
      <trkpt lat="45.86332" lon="5.77188">
        <ele>1021.154</ele>
        <time>2022-12-31T13:46:06Z</time>
      </trkpt>
      <trkpt lat="45.86308" lon="5.77114">
        <ele>1011.81</ele>
        <time>2022-12-31T13:46:22Z</time>
      </trkpt>
      <trkpt lat="45.86313" lon="5.77071">
        <ele>1008.479</ele>
        <time>2022-12-31T13:46:35Z</time>
      </trkpt>
      <trkpt lat="45.86332" lon="5.77053">
        <ele>1005.29</ele>
        <time>2022-12-31T13:46:46Z</time>
      </trkpt>
      <trkpt lat="45.86342" lon="5.76872">
        <ele>988.882</ele>
        <time>2022-12-31T13:48:14Z</time>
      </trkpt>
      <trkpt lat="45.86318" lon="5.76916">
        <ele>979.143</ele>
        <time>2022-12-31T13:48:48Z</time>
      </trkpt>
      <trkpt lat="45.86313" lon="5.76868">
        <ele>970.117</ele>
        <time>2022-12-31T13:49:15Z</time>
      </trkpt>
      <trkpt lat="45.86292" lon="5.76963">
        <ele>956.509</ele>
        <time>2022-12-31T13:49:45Z</time>
      </trkpt>
      <trkpt lat="45.86292" lon="5.76831">
        <ele>942.819</ele>
        <time>2022-12-31T13:50:18Z</time>
      </trkpt>
      <trkpt lat="45.8628" lon="5.76832">
        <ele>940.35</ele>
        <time>2022-12-31T13:50:26Z</time>
      </trkpt>
      <trkpt lat="45.86256" lon="5.76995">
        <ele>925.37</ele>
        <time>2022-12-31T13:51:02Z</time>
      </trkpt>
      <trkpt lat="45.86228" lon="5.77069">
        <ele>917.161</ele>
        <time>2022-12-31T13:51:26Z</time>
      </trkpt>
      <trkpt lat="45.86228" lon="5.77133">
        <ele>911.722</ele>
        <time>2022-12-31T13:51:41Z</time>
      </trkpt>
      <trkpt lat="45.86213" lon="5.77089">
        <ele>906.261</ele>
        <time>2022-12-31T13:51:55Z</time>
      </trkpt>
      <trkpt lat="45.86194" lon="5.7677">
        <ele>876.027</ele>
        <time>2022-12-31T13:54:17Z</time>
      </trkpt>
      <trkpt lat="45.86156" lon="5.76891">
        <ele>863.666</ele>
        <time>2022-12-31T13:54:34Z</time>
      </trkpt>
      <trkpt lat="45.86142" lon="5.77145">
        <ele>841.767</ele>
        <time>2022-12-31T13:55:20Z</time>
      </trkpt>
      <trkpt lat="45.86079" lon="5.7685">
        <ele>812.523</ele>
        <time>2022-12-31T13:56:19Z</time>
      </trkpt>
      <trkpt lat="45.86058" lon="5.76685">
        <ele>796.883</ele>
        <time>2022-12-31T13:56:42Z</time>
      </trkpt>
      <trkpt lat="45.86035" lon="5.76747">
        <ele>789.111</ele>
        <time>2022-12-31T13:56:54Z</time>
      </trkpt>
      <trkpt lat="45.86022" lon="5.76848">
        <ele>779.609</ele>
        <time>2022-12-31T13:57:13Z</time>
      </trkpt>
      <trkpt lat="45.8601" lon="5.76784">
        <ele>771.913</ele>
        <time>2022-12-31T13:57:29Z</time>
      </trkpt>
      <trkpt lat="45.85971" lon="5.76698">
        <ele>762.574</ele>
        <time>2022-12-31T13:57:53Z</time>
      </trkpt>
      <trkpt lat="45.85903" lon="5.76638">
        <ele>754.534</ele>
        <time>2022-12-31T13:58:11Z</time>
      </trkpt>
      <trkpt lat="45.85844" lon="5.76636">
        <ele>744.975</ele>
        <time>2022-12-31T14:07:35Z</time>
      </trkpt>
      <trkpt lat="45.85895" lon="5.76693">
        <ele>737.416</ele>
        <time>2022-12-31T14:08:11Z</time>
      </trkpt>
      <trkpt lat="45.859" lon="5.76754">
        <ele>732.275</ele>
        <time>2022-12-31T14:08:22Z</time>
      </trkpt>
      <trkpt lat="45.85928" lon="5.76805">
        <ele>726.631</ele>
        <time>2022-12-31T14:08:36Z</time>
      </trkpt>
      <trkpt lat="45.85917" lon="5.7684">
        <ele>723.34</ele>
        <time>2022-12-31T14:08:43Z</time>
      </trkpt>
      <trkpt lat="45.85924" lon="5.76896">
        <ele>717.821</ele>
        <time>2022-12-31T14:08:51Z</time>
      </trkpt>
      <trkpt lat="45.85899" lon="5.76967">
        <ele>710.937</ele>
        <time>2022-12-31T14:09:04Z</time>
      </trkpt>
      <trkpt lat="45.859" lon="5.77105">
        <ele>699.949</ele>
        <time>2022-12-31T14:09:29Z</time>
      </trkpt>
      <trkpt lat="45.85855" lon="5.76999">
        <ele>686.013</ele>
        <time>2022-12-31T14:09:55Z</time>
      </trkpt>
      <trkpt lat="45.85827" lon="5.76883">
        <ele>674.509</ele>
        <time>2022-12-31T14:10:18Z</time>
      </trkpt>
      <trkpt lat="45.85811" lon="5.77021">
        <ele>661.254</ele>
        <time>2022-12-31T14:10:37Z</time>
      </trkpt>
      <trkpt lat="45.8582" lon="5.77146">
        <ele>649.175</ele>
        <time>2022-12-31T14:10:56Z</time>
      </trkpt>
      <trkpt lat="45.85859" lon="5.77211">
        <ele>643.145</ele>
        <time>2022-12-31T14:11:08Z</time>
      </trkpt>
      <trkpt lat="45.85864" lon="5.77288">
        <ele>635.526</ele>
        <time>2022-12-31T14:11:19Z</time>
      </trkpt>
      <trkpt lat="45.85854" lon="5.7729">
        <ele>633.747</ele>
        <time>2022-12-31T14:11:23Z</time>
      </trkpt>
      <trkpt lat="45.85829" lon="5.77226">
        <ele>625.276</ele>
        <time>2022-12-31T14:11:32Z</time>
      </trkpt>
      <trkpt lat="45.85766" lon="5.77185">
        <ele>615.472</ele>
        <time>2022-12-31T14:11:43Z</time>
      </trkpt>
      <trkpt lat="45.85707" lon="5.77051">
        <ele>598.421</ele>
        <time>2022-12-31T14:12:11Z</time>
      </trkpt>
      <trkpt lat="45.85698" lon="5.771">
        <ele>592.152</ele>
        <time>2022-12-31T14:12:19Z</time>
      </trkpt>
      <trkpt lat="45.8572" lon="5.7724">
        <ele>578.538</ele>
        <time>2022-12-31T14:12:40Z</time>
      </trkpt>
      <trkpt lat="45.85751" lon="5.77272">
        <ele>574.67</ele>
        <time>2022-12-31T14:12:50Z</time>
      </trkpt>
      <trkpt lat="45.85685" lon="5.77254">
        <ele>562.017</ele>
        <time>2022-12-31T14:13:09Z</time>
      </trkpt>
      <trkpt lat="45.85627" lon="5.7716">
        <ele>548.909</ele>
        <time>2022-12-31T14:13:28Z</time>
      </trkpt>
      <trkpt lat="45.85619" lon="5.77236">
        <ele>540.944</ele>
        <time>2022-12-31T14:13:41Z</time>
      </trkpt>
      <trkpt lat="45.8564" lon="5.77285">
        <ele>535.665</ele>
        <time>2022-12-31T14:13:49Z</time>
      </trkpt>
      <trkpt lat="45.85683" lon="5.77329">
        <ele>530.315</ele>
        <time>2022-12-31T14:14:00Z</time>
      </trkpt>
      <trkpt lat="45.85619" lon="5.7731">
        <ele>519.666</ele>
        <time>2022-12-31T14:14:14Z</time>
      </trkpt>
      <trkpt lat="45.85576" lon="5.77257">
        <ele>510.627</ele>
        <time>2022-12-31T14:14:27Z</time>
      </trkpt>
      <trkpt lat="45.8551" lon="5.77294">
        <ele>501.766</ele>
        <time>2022-12-31T14:14:42Z</time>
      </trkpt>
      <trkpt lat="45.85571" lon="5.77307">
        <ele>491.462</ele>
        <time>2022-12-31T14:15:44Z</time>
      </trkpt>
      <trkpt lat="45.857" lon="5.77484">
        <ele>470.571</ele>
        <time>2022-12-31T14:16:18Z</time>
      </trkpt>
      <trkpt lat="45.85644" lon="5.77612">
        <ele>458.722</ele>
        <time>2022-12-31T14:18:33Z</time>
      </trkpt>
      <trkpt lat="45.85605" lon="5.77664">
        <ele>452.518</ele>
        <time>2022-12-31T14:18:41Z</time>
      </trkpt>
      <trkpt lat="45.85618" lon="5.77884">
        <ele>439.998</ele>
        <time>2022-12-31T14:19:01Z</time>
      </trkpt>
      <trkpt lat="45.85704" lon="5.78005">
        <ele>428.917</ele>
        <time>2022-12-31T14:19:14Z</time>
      </trkpt>
      <trkpt lat="45.85788" lon="5.78088">
        <ele>419.209</ele>
        <time>2022-12-31T14:19:25Z</time>
      </trkpt>
      <trkpt lat="45.85832" lon="5.78211">
        <ele>405.882</ele>
        <time>2022-12-31T14:19:36Z</time>
      </trkpt>
      <trkpt lat="45.85824" lon="5.78244">
        <ele>401.843</ele>
        <time>2022-12-31T14:19:44Z</time>
      </trkpt>
      <trkpt lat="45.85702" lon="5.78144">
        <ele>383.153</ele>
        <time>2022-12-31T14:20:00Z</time>
      </trkpt>
      <trkpt lat="45.85681" lon="5.78154">
        <ele>379.094</ele>
        <time>2022-12-31T14:20:04Z</time>
      </trkpt>
      <trkpt lat="45.85713" lon="5.78312">
        <ele>363.985</ele>
        <time>2022-12-31T14:20:34Z</time>
      </trkpt>
      <trkpt lat="45.85764" lon="5.78396">
        <ele>358.194</ele>
        <time>2022-12-31T14:21:03Z</time>
      </trkpt>
      <trkpt lat="45.85762" lon="5.78424">
        <ele>355.79</ele>
        <time>2022-12-31T14:21:07Z</time>
      </trkpt>
      <trkpt lat="45.85711" lon="5.78415">
        <ele>349.239</ele>
        <time>2022-12-31T14:21:17Z</time>
      </trkpt>
      <trkpt lat="45.85594" lon="5.78354">
        <ele>339.97</ele>
        <time>2022-12-31T14:21:36Z</time>
      </trkpt>
      <trkpt lat="45.85522" lon="5.78247">
        <ele>332.537</ele>
        <time>2022-12-31T15:02:48Z</time>
      </trkpt>
      <trkpt lat="45.85449" lon="5.78071">
        <ele>319.749</ele>
        <time>2022-12-31T15:03:03Z</time>
      </trkpt>
      <trkpt lat="45.85383" lon="5.77968">
        <ele>308.213</ele>
        <time>2022-12-31T15:03:17Z</time>
      </trkpt>
      <trkpt lat="45.8537" lon="5.77976">
        <ele>307.609</ele>
        <time>2022-12-31T15:03:21Z</time>
      </trkpt>
      <trkpt lat="45.8538" lon="5.78102">
        <ele>304.924</ele>
        <time>2022-12-31T15:03:31Z</time>
      </trkpt>
      <trkpt lat="45.85356" lon="5.78559">
        <ele>282.485</ele>
        <time>2022-12-31T15:03:54Z</time>
      </trkpt>
      <trkpt lat="45.85339" lon="5.78602">
        <ele>278.495</ele>
        <time>2022-12-31T15:03:59Z</time>
      </trkpt>
      <trkpt lat="45.85319" lon="5.78597">
        <ele>276.586</ele>
        <time>2022-12-31T15:04:02Z</time>
      </trkpt>
      <trkpt lat="45.85274" lon="5.78478">
        <ele>273.557</ele>
        <time>2022-12-31T15:04:12Z</time>
      </trkpt>
      <trkpt lat="45.85183" lon="5.78328">
        <ele>263.786</ele>
        <time>2022-12-31T15:04:27Z</time>
      </trkpt>
      <trkpt lat="45.85152" lon="5.78328">
        <ele>260.752</ele>
        <time>2022-12-31T15:04:31Z</time>
      </trkpt>
      <trkpt lat="45.85006" lon="5.78393">
        <ele>247.341</ele>
        <time>2022-12-31T15:04:52Z</time>
      </trkpt>
      <trkpt lat="45.84907" lon="5.78312">
        <ele>245.792</ele>
        <time>2022-12-31T15:05:02Z</time>
      </trkpt>
      <trkpt lat="45.84857" lon="5.78297">
        <ele>240.779</ele>
        <time>2022-12-31T15:05:11Z</time>
      </trkpt>
      <trkpt lat="45.84839" lon="5.78315">
        <ele>240.205</ele>
        <time>2022-12-31T15:06:23Z</time>
      </trkpt>
      <trkpt lat="45.84792" lon="5.78316">
        <ele>238.125</ele>
        <time>2022-12-31T15:07:03Z</time>
      </trkpt>
      <trkpt lat="45.84773" lon="5.78502">
        <ele>235.609</ele>
        <time>2022-12-31T15:07:15Z</time>
      </trkpt>
      <trkpt lat="45.84777" lon="5.78607">
        <ele>233.398</ele>
        <time>2022-12-31T15:07:21Z</time>
      </trkpt>
      <trkpt lat="45.8488" lon="5.79199">
        <ele>228.389</ele>
        <time>2022-12-31T15:08:02Z</time>
      </trkpt>
      <trkpt lat="45.84917" lon="5.79263">
        <ele>232.569</ele>
        <time>2022-12-31T15:08:07Z</time>
      </trkpt>
      <trkpt lat="45.8508" lon="5.79389">
        <ele>233.62</ele>
        <time>2022-12-31T15:08:23Z</time>
      </trkpt>
      <trkpt lat="45.85107" lon="5.7945">
        <ele>235.491</ele>
        <time>2022-12-31T15:08:28Z</time>
      </trkpt>
      <trkpt lat="45.84995" lon="5.79726">
        <ele>237.56</ele>
        <time>2022-12-31T15:08:45Z</time>
      </trkpt>
      <trkpt lat="45.84932" lon="5.79801">
        <ele>234.756</ele>
        <time>2022-12-31T15:08:54Z</time>
      </trkpt>
      <trkpt lat="45.84942" lon="5.79919">
        <ele>237.795</ele>
        <time>2022-12-31T15:09:03Z</time>
      </trkpt>
      <trkpt lat="45.84858" lon="5.80659">
        <ele>234.516</ele>
        <time>2022-12-31T15:09:36Z</time>
      </trkpt>
      <trkpt lat="45.84833" lon="5.80737">
        <ele>232.487</ele>
        <time>2022-12-31T15:09:44Z</time>
      </trkpt>
      <trkpt lat="45.84811" lon="5.81078">
        <ele>236.742</ele>
        <time>2022-12-31T15:10:03Z</time>
      </trkpt>
      <trkpt lat="45.8485" lon="5.81272">
        <ele>234.726</ele>
        <time>2022-12-31T15:10:11Z</time>
      </trkpt>
      <trkpt lat="45.85111" lon="5.81833">
        <ele>237.809</ele>
        <time>2022-12-31T15:10:36Z</time>
      </trkpt>
      <trkpt lat="45.85143" lon="5.82076">
        <ele>229.079</ele>
        <time>2022-12-31T15:10:55Z</time>
      </trkpt>
      <trkpt lat="45.85163" lon="5.81966">
        <ele>229.14</ele>
        <time>2022-12-31T15:11:12Z</time>
      </trkpt>
      <trkpt lat="45.85136" lon="5.8199">
        <ele>229.33</ele>
        <time>2022-12-31T15:11:44Z</time>
      </trkpt>
      <trkpt lat="45.85084" lon="5.83054">
        <ele>230.121</ele>
        <time>2022-12-31T15:12:45Z</time>
      </trkpt>
      <trkpt lat="45.85124" lon="5.82412">
        <ele>230.472</ele>
        <time>2022-12-31T15:14:07Z</time>
      </trkpt>
      <trkpt lat="45.85991" lon="5.82728">
        <ele>230.081</ele>
        <time>2022-12-31T15:16:26Z</time>
      </trkpt>
      <trkpt lat="45.86386" lon="5.82852">
        <ele>230.747</ele>
        <time>2022-12-31T15:17:36Z</time>
      </trkpt>
      <trkpt lat="45.864" lon="5.82418">
        <ele>232.096</ele>
        <time>2022-12-31T15:18:41Z</time>
      </trkpt>
      <trkpt lat="45.86477" lon="5.81919">
        <ele>231.417</ele>
        <time>2022-12-31T15:20:51Z</time>
      </trkpt>
      <trkpt lat="45.86564" lon="5.8196">
        <ele>232.439</ele>
        <time>2022-12-31T15:21:07Z</time>
      </trkpt>
      <trkpt lat="45.8663" lon="5.81959">
        <ele>231.701</ele>
        <time>2022-12-31T15:21:15Z</time>
      </trkpt>
      <trkpt lat="45.86772" lon="5.82019">
        <ele>234.521</ele>
        <time>2022-12-31T15:21:47Z</time>
      </trkpt>
      <trkpt lat="45.86933" lon="5.82117">
        <ele>233.909</ele>
        <time>2022-12-31T15:22:20Z</time>
      </trkpt>
      <trkpt lat="45.86988" lon="5.82133">
        <ele>234.564</ele>
        <time>2022-12-31T15:22:35Z</time>
      </trkpt>
      <trkpt lat="45.8707" lon="5.82115">
        <ele>234.695</ele>
        <time>2022-12-31T15:23:00Z</time>
      </trkpt>
      <trkpt lat="45.87225" lon="5.82171">
        <ele>234.095</ele>
        <time>2022-12-31T15:23:25Z</time>
      </trkpt>
      <trkpt lat="45.87249" lon="5.82155">
        <ele>235.096</ele>
        <time>2022-12-31T15:23:31Z</time>
      </trkpt>
      <trkpt lat="45.87288" lon="5.82161">
        <ele>235.217</ele>
        <time>2022-12-31T15:23:42Z</time>
      </trkpt>
      <trkpt lat="45.87378" lon="5.82263">
        <ele>234.096</ele>
        <time>2022-12-31T15:23:59Z</time>
      </trkpt>
      <trkpt lat="45.87443" lon="5.82371">
        <ele>233.682</ele>
        <time>2022-12-31T15:24:12Z</time>
      </trkpt>
      <trkpt lat="45.87512" lon="5.82351">
        <ele>234.061</ele>
        <time>2022-12-31T15:24:21Z</time>
      </trkpt>
      <trkpt lat="45.87546" lon="5.82373">
        <ele>234.982</ele>
        <time>2022-12-31T15:24:27Z</time>
      </trkpt>
      <trkpt lat="45.87534" lon="5.8236">
        <ele>235.148</ele>
        <time>2022-12-31T15:24:50Z</time>
      </trkpt>
      <trkpt lat="45.87481" lon="5.82365">
        <ele>235.161</ele>
        <time>2022-12-31T15:25:50Z</time>
      </trkpt>
      <trkpt lat="45.87519" lon="5.82352">
        <ele>235.017</ele>
        <time>2022-12-31T15:29:15Z</time>
      </trkpt>
      <trkpt lat="45.87567" lon="5.82388">
        <ele>234.609</ele>
        <time>2022-12-31T15:29:46Z</time>
      </trkpt>
      <trkpt lat="45.87602" lon="5.82395">
        <ele>234.575</ele>
        <time>2022-12-31T15:29:57Z</time>
      </trkpt>
      <trkpt lat="45.8772" lon="5.82323">
        <ele>233.656</ele>
        <time>2022-12-31T15:30:24Z</time>
      </trkpt>
      <trkpt lat="45.87861" lon="5.82355">
        <ele>235.176</ele>
        <time>2022-12-31T15:30:41Z</time>
      </trkpt>
      <trkpt lat="45.88025" lon="5.82422">
        <ele>234.937</ele>
        <time>2022-12-31T15:31:01Z</time>
      </trkpt>
      <trkpt lat="45.88622" lon="5.83072">
        <ele>237.788</ele>
        <time>2022-12-31T15:32:27Z</time>
      </trkpt>
      <trkpt lat="45.88907" lon="5.83486">
        <ele>237.947</ele>
        <time>2022-12-31T15:33:15Z</time>
      </trkpt>
      <trkpt lat="45.8891" lon="5.83313">
        <ele>239.093</ele>
        <time>2022-12-31T15:34:02Z</time>
      </trkpt>
      <trkpt lat="45.88882" lon="5.83125">
        <ele>238.432</ele>
        <time>2022-12-31T15:35:06Z</time>
      </trkpt>
      <trkpt lat="45.88989" lon="5.82763">
        <ele>238.993</ele>
        <time>2022-12-31T15:36:10Z</time>
      </trkpt>
      <trkpt lat="45.90755" lon="5.83392">
        <ele>242.477</ele>
        <time>2022-12-31T15:44:53Z</time>
      </trkpt>
      <trkpt lat="45.90765" lon="5.83408">
        <ele>242.661</ele>
        <time>2022-12-31T15:44:57Z</time>
      </trkpt>
      <trkpt lat="45.90771" lon="5.83576">
        <ele>242.327</ele>
        <time>2022-12-31T15:45:21Z</time>
      </trkpt>
      <trkpt lat="45.90845" lon="5.83861">
        <ele>246.209</ele>
        <time>2022-12-31T15:46:00Z</time>
      </trkpt>
      <trkpt lat="45.90834" lon="5.83926">
        <ele>250.368</ele>
        <time>2022-12-31T15:46:09Z</time>
      </trkpt>
      <trkpt lat="45.90771" lon="5.83938">
        <ele>253.349</ele>
        <time>2022-12-31T15:46:22Z</time>
      </trkpt>
      <trkpt lat="45.90773" lon="5.83958">
        <ele>254.029</ele>
        <time>2022-12-31T15:46:42Z</time>
      </trkpt>
      <trkpt lat="45.90908" lon="5.83948">
        <ele>265.44</ele>
        <time>2022-12-31T15:46:53Z</time>
      </trkpt>
      <trkpt lat="45.91119" lon="5.83977">
        <ele>277.641</ele>
        <time>2022-12-31T15:47:06Z</time>
      </trkpt>
      <trkpt lat="45.91212" lon="5.83931">
        <ele>283.33</ele>
        <time>2022-12-31T15:47:12Z</time>
      </trkpt>
      <trkpt lat="45.91445" lon="5.83949">
        <ele>287.146</ele>
        <time>2022-12-31T15:47:25Z</time>
      </trkpt>
      <trkpt lat="45.91828" lon="5.83877">
        <ele>279.235</ele>
        <time>2022-12-31T15:47:45Z</time>
      </trkpt>
      <trkpt lat="45.91945" lon="5.83828">
        <ele>275.936</ele>
        <time>2022-12-31T15:47:52Z</time>
      </trkpt>
      <trkpt lat="45.92259" lon="5.8375">
        <ele>281.029</ele>
        <time>2022-12-31T15:48:10Z</time>
      </trkpt>
      <trkpt lat="45.92302" lon="5.8369">
        <ele>282.8</ele>
        <time>2022-12-31T15:48:14Z</time>
      </trkpt>
      <trkpt lat="45.92355" lon="5.83506">
        <ele>286.22</ele>
        <time>2022-12-31T15:48:23Z</time>
      </trkpt>
      <trkpt lat="45.92576" lon="5.83413">
        <ele>287.409</ele>
        <time>2022-12-31T15:48:42Z</time>
      </trkpt>
      <trkpt lat="45.9269" lon="5.83426">
        <ele>289.623</ele>
        <time>2022-12-31T15:48:53Z</time>
      </trkpt>
      <trkpt lat="45.92719" lon="5.83415">
        <ele>290.454</ele>
        <time>2022-12-31T15:48:56Z</time>
      </trkpt>
      <trkpt lat="45.92862" lon="5.83125">
        <ele>293.754</ele>
        <time>2022-12-31T15:49:20Z</time>
      </trkpt>
      <trkpt lat="45.93156" lon="5.82931">
        <ele>289.835</ele>
        <time>2022-12-31T15:49:45Z</time>
      </trkpt>
      <trkpt lat="45.93189" lon="5.82959">
        <ele>288.186</ele>
        <time>2022-12-31T15:49:49Z</time>
      </trkpt>
      <trkpt lat="45.93233" lon="5.83094">
        <ele>282.465</ele>
        <time>2022-12-31T15:49:58Z</time>
      </trkpt>
      <trkpt lat="45.9329" lon="5.83129">
        <ele>277.911</ele>
        <time>2022-12-31T15:50:06Z</time>
      </trkpt>
      <trkpt lat="45.93199" lon="5.83325">
        <ele>270.26</ele>
        <time>2022-12-31T15:50:21Z</time>
      </trkpt>
      <trkpt lat="45.932" lon="5.83579">
        <ele>260.011</ele>
        <time>2022-12-31T15:50:35Z</time>
      </trkpt>
      <trkpt lat="45.93238" lon="5.83632">
        <ele>258.365</ele>
        <time>2022-12-31T15:50:41Z</time>
      </trkpt>
      <trkpt lat="45.93343" lon="5.83679">
        <ele>257.768</ele>
        <time>2022-12-31T15:50:51Z</time>
      </trkpt>
      <trkpt lat="45.94005" lon="5.83616">
        <ele>255.114</ele>
        <time>2022-12-31T15:51:34Z</time>
      </trkpt>
      <trkpt lat="45.94216" lon="5.83637">
        <ele>254.709</ele>
        <time>2022-12-31T15:51:47Z</time>
      </trkpt>
      <trkpt lat="45.94388" lon="5.83698">
        <ele>255.567</ele>
        <time>2022-12-31T15:51:58Z</time>
      </trkpt>
      <trkpt lat="45.94767" lon="5.83937">
        <ele>261.098</ele>
        <time>2022-12-31T15:52:22Z</time>
      </trkpt>
      <trkpt lat="45.94864" lon="5.83973">
        <ele>257.638</ele>
        <time>2022-12-31T15:52:28Z</time>
      </trkpt>
      <trkpt lat="45.9498" lon="5.83959">
        <ele>255.269</ele>
        <time>2022-12-31T15:52:37Z</time>
      </trkpt>
      <trkpt lat="45.95252" lon="5.8385">
        <ele>256.01</ele>
        <time>2022-12-31T15:52:59Z</time>
      </trkpt>
      <trkpt lat="45.95378" lon="5.83772">
        <ele>252.059</ele>
        <time>2022-12-31T15:53:12Z</time>
      </trkpt>
      <trkpt lat="45.95461" lon="5.83768">
        <ele>253.095</ele>
        <time>2022-12-31T15:53:29Z</time>
      </trkpt>
      <trkpt lat="45.95756" lon="5.83649">
        <ele>256.924</ele>
        <time>2022-12-31T15:53:55Z</time>
      </trkpt>
      <trkpt lat="45.95854" lon="5.83643">
        <ele>257.955</ele>
        <time>2022-12-31T15:54:03Z</time>
      </trkpt>
      <trkpt lat="45.9638" lon="5.83702">
        <ele>261.691</ele>
        <time>2022-12-31T15:54:53Z</time>
      </trkpt>
      <trkpt lat="45.96399" lon="5.83729">
        <ele>261.681</ele>
        <time>2022-12-31T15:54:58Z</time>
      </trkpt>
      <trkpt lat="45.96413" lon="5.83718">
        <ele>261.919</ele>
        <time>2022-12-31T15:55:02Z</time>
      </trkpt>
      <trkpt lat="45.96397" lon="5.83713">
        <ele>261.409</ele>
        <time>2022-12-31T15:57:50Z</time>
      </trkpt>
      <trkpt lat="45.96405" lon="5.83684">
        <ele>261.49</ele>
        <time>2022-12-31T15:57:56Z</time>
      </trkpt>
      <trkpt lat="45.96593" lon="5.83569">
        <ele>276.911</ele>
        <time>2022-12-31T15:58:13Z</time>
      </trkpt>
      <trkpt lat="45.96698" lon="5.83554">
        <ele>279.751</ele>
        <time>2022-12-31T15:58:21Z</time>
      </trkpt>
      <trkpt lat="45.97138" lon="5.83571">
        <ele>281.492</ele>
        <time>2022-12-31T15:58:51Z</time>
      </trkpt>
      <trkpt lat="45.97202" lon="5.83613">
        <ele>277.813</ele>
        <time>2022-12-31T15:58:55Z</time>
      </trkpt>
      <trkpt lat="45.9725" lon="5.83687">
        <ele>276.392</ele>
        <time>2022-12-31T15:58:59Z</time>
      </trkpt>
      <trkpt lat="45.97308" lon="5.83743">
        <ele>272.468</ele>
        <time>2022-12-31T15:59:03Z</time>
      </trkpt>
      <trkpt lat="45.97356" lon="5.83762">
        <ele>269.147</ele>
        <time>2022-12-31T15:59:06Z</time>
      </trkpt>
      <trkpt lat="45.97509" lon="5.83768">
        <ele>263.118</ele>
        <time>2022-12-31T15:59:15Z</time>
      </trkpt>
      <trkpt lat="45.97647" lon="5.83851">
        <ele>261.656</ele>
        <time>2022-12-31T15:59:26Z</time>
      </trkpt>
      <trkpt lat="45.97694" lon="5.83748">
        <ele>263.359</ele>
        <time>2022-12-31T15:59:36Z</time>
      </trkpt>
      <trkpt lat="45.97688" lon="5.83707">
        <ele>263.614</ele>
        <time>2022-12-31T15:59:39Z</time>
      </trkpt>
      <trkpt lat="45.97625" lon="5.83592">
        <ele>270.009</ele>
        <time>2022-12-31T15:59:47Z</time>
      </trkpt>
      <trkpt lat="45.97551" lon="5.83543">
        <ele>273.876</ele>
        <time>2022-12-31T15:59:54Z</time>
      </trkpt>
      <trkpt lat="45.97546" lon="5.83497">
        <ele>274.067</ele>
        <time>2022-12-31T15:59:58Z</time>
      </trkpt>
      <trkpt lat="45.97561" lon="5.83489">
        <ele>274.757</ele>
        <time>2022-12-31T16:00:00Z</time>
      </trkpt>
      <trkpt lat="45.97713" lon="5.83608">
        <ele>286.788</ele>
        <time>2022-12-31T16:00:14Z</time>
      </trkpt>
      <trkpt lat="45.9781" lon="5.83753">
        <ele>295.199</ele>
        <time>2022-12-31T16:00:24Z</time>
      </trkpt>
      <trkpt lat="45.97892" lon="5.83805">
        <ele>298.778</ele>
        <time>2022-12-31T16:00:30Z</time>
      </trkpt>
      <trkpt lat="45.98239" lon="5.83784">
        <ele>306.634</ele>
        <time>2022-12-31T16:00:50Z</time>
      </trkpt>
      <trkpt lat="45.98503" lon="5.83674">
        <ele>321.453</ele>
        <time>2022-12-31T16:01:06Z</time>
      </trkpt>
      <trkpt lat="45.98586" lon="5.83579">
        <ele>326.944</ele>
        <time>2022-12-31T16:01:12Z</time>
      </trkpt>
      <trkpt lat="45.98795" lon="5.8328">
        <ele>334.199</ele>
        <time>2022-12-31T16:01:29Z</time>
      </trkpt>
      <trkpt lat="45.98925" lon="5.82988">
        <ele>344.007</ele>
        <time>2022-12-31T16:01:43Z</time>
      </trkpt>
      <trkpt lat="45.9896" lon="5.82877">
        <ele>348.027</ele>
        <time>2022-12-31T16:01:48Z</time>
      </trkpt>
      <trkpt lat="45.98966" lon="5.82708">
        <ele>352.909</ele>
        <time>2022-12-31T16:01:55Z</time>
      </trkpt>
      <trkpt lat="45.98925" lon="5.82548">
        <ele>360.76</ele>
        <time>2022-12-31T16:02:02Z</time>
      </trkpt>
      <trkpt lat="45.98914" lon="5.82449">
        <ele>362.661</ele>
        <time>2022-12-31T16:02:06Z</time>
      </trkpt>
      <trkpt lat="45.98957" lon="5.82175">
        <ele>366.271</ele>
        <time>2022-12-31T16:02:17Z</time>
      </trkpt>
      <trkpt lat="45.99" lon="5.82095">
        <ele>364.752</ele>
        <time>2022-12-31T16:02:21Z</time>
      </trkpt>
      <trkpt lat="45.99078" lon="5.82037">
        <ele>367.953</ele>
        <time>2022-12-31T16:02:26Z</time>
      </trkpt>
      <trkpt lat="45.99511" lon="5.81909">
        <ele>383.962</ele>
        <time>2022-12-31T16:03:01Z</time>
      </trkpt>
      <trkpt lat="45.99499" lon="5.81772">
        <ele>394.038</ele>
        <time>2022-12-31T16:03:21Z</time>
      </trkpt>
      <trkpt lat="45.9945" lon="5.81642">
        <ele>396.797</ele>
        <time>2022-12-31T16:03:44Z</time>
      </trkpt>
      <trkpt lat="45.99417" lon="5.81595">
        <ele>390.918</ele>
        <time>2022-12-31T16:04:52Z</time>
      </trkpt>
      <trkpt lat="45.99445" lon="5.81561">
        <ele>384.558</ele>
        <time>2022-12-31T16:05:18Z</time>
      </trkpt>
      <trkpt lat="45.99454" lon="5.81477">
        <ele>373.852</ele>
        <time>2022-12-31T16:05:50Z</time>
      </trkpt>
      <trkpt lat="45.99502" lon="5.81404">
        <ele>362.017</ele>
        <time>2022-12-31T16:06:29Z</time>
      </trkpt>
      <trkpt lat="45.99611" lon="5.814">
        <ele>339.709</ele>
        <time>2022-12-31T16:07:28Z</time>
      </trkpt>
      <trkpt lat="45.99672" lon="5.81367">
        <ele>342.066</ele>
        <time>2022-12-31T16:07:46Z</time>
      </trkpt>
      <trkpt lat="45.99716" lon="5.81364">
        <ele>337.887</ele>
        <time>2022-12-31T16:08:02Z</time>
      </trkpt>
      <trkpt lat="45.9977" lon="5.81334">
        <ele>330.327</ele>
        <time>2022-12-31T16:08:24Z</time>
      </trkpt>
      <trkpt lat="45.99814" lon="5.8128">
        <ele>321.448</ele>
        <time>2022-12-31T16:08:51Z</time>
      </trkpt>
      <trkpt lat="45.99915" lon="5.81228">
        <ele>302.649</ele>
        <time>2022-12-31T16:09:46Z</time>
      </trkpt>
      <trkpt lat="45.99997" lon="5.81226">
        <ele>290.468</ele>
        <time>2022-12-31T16:10:56Z</time>
      </trkpt>
      <trkpt lat="46.00035" lon="5.81267">
        <ele>280.754</ele>
        <time>2022-12-31T16:11:24Z</time>
      </trkpt>
      <trkpt lat="46.00165" lon="5.81171">
        <ele>271.943</ele>
        <time>2022-12-31T16:12:15Z</time>
      </trkpt>
      <trkpt lat="46.00344" lon="5.8116">
        <ele>278.814</ele>
        <time>2022-12-31T16:13:08Z</time>
      </trkpt>
      <trkpt lat="46.00523" lon="5.81109">
        <ele>278.272</ele>
        <time>2022-12-31T16:13:45Z</time>
      </trkpt>
      <trkpt lat="46.0062" lon="5.81136">
        <ele>278.513</ele>
        <time>2022-12-31T16:14:12Z</time>
      </trkpt>
      <trkpt lat="46.0074" lon="5.81135">
        <ele>278.214</ele>
        <time>2022-12-31T16:14:41Z</time>
      </trkpt>
      <trkpt lat="46.00848" lon="5.81193">
        <ele>278.109</ele>
        <time>2022-12-31T16:15:09Z</time>
      </trkpt>
      <trkpt lat="46.00947" lon="5.81186">
        <ele>278.148</ele>
        <time>2022-12-31T16:15:35Z</time>
      </trkpt>
      <trkpt lat="46.00991" lon="5.81212">
        <ele>277.329</ele>
        <time>2022-12-31T16:34:36Z</time>
      </trkpt>
      <trkpt lat="46.01025" lon="5.81357">
        <ele>276.819</ele>
        <time>2022-12-31T16:36:27Z</time>
      </trkpt>
      <trkpt lat="46.01061" lon="5.81387">
        <ele>276.99</ele>
        <time>2022-12-31T16:36:38Z</time>
      </trkpt>
      <trkpt lat="46.011" lon="5.81364">
        <ele>277.271</ele>
        <time>2022-12-31T16:36:50Z</time>
      </trkpt>
      <trkpt lat="46.01153" lon="5.81173">
        <ele>277.19</ele>
        <time>2022-12-31T16:37:58Z</time>
      </trkpt>
      <trkpt lat="46.01164" lon="5.81042">
        <ele>275.346</ele>
        <time>2022-12-31T16:38:24Z</time>
      </trkpt>
      <trkpt lat="46.01245" lon="5.80975">
        <ele>277.085</ele>
        <time>2022-12-31T16:38:43Z</time>
      </trkpt>
      <trkpt lat="46.01302" lon="5.80978">
        <ele>275.266</ele>
        <time>2022-12-31T16:38:56Z</time>
      </trkpt>
      <trkpt lat="46.01395" lon="5.8086">
        <ele>283.675</ele>
        <time>2022-12-31T16:39:39Z</time>
      </trkpt>
      <trkpt lat="46.01436" lon="5.80864">
        <ele>287.228</ele>
        <time>2022-12-31T16:39:48Z</time>
      </trkpt>
      <trkpt lat="46.01471" lon="5.80847">
        <ele>291.02</ele>
        <time>2022-12-31T16:39:57Z</time>
      </trkpt>
      <trkpt lat="46.01487" lon="5.80777">
        <ele>295.309</ele>
        <time>2022-12-31T16:40:08Z</time>
      </trkpt>
      <trkpt lat="46.0153" lon="5.80708">
        <ele>301.298</ele>
        <time>2022-12-31T16:40:22Z</time>
      </trkpt>
      <trkpt lat="46.01539" lon="5.80718">
        <ele>302.819</ele>
        <time>2022-12-31T16:40:29Z</time>
      </trkpt>
    </trkseg>
  </trk>
  <trk>
    <name><![CDATA[TET_F-22_20230517]]></name>
    <desc><![CDATA[name=TET_F-22_20230517]]></desc>
    <extensions>
      <line xmlns="http://www.topografix.com/GPX/gpx_style/0/2">
        <color>000088</color>
        <width>4</width>
      </line>
    </extensions>
    <trkseg>
      <trkpt lat="47.64379" lon="6.44284">
        <ele>294.399</ele>
      </trkpt>
      <trkpt lat="47.64379" lon="6.44284">
        <ele>294.399</ele>
      </trkpt>
      <trkpt lat="47.64339" lon="6.44197">
        <ele>299.704</ele>
      </trkpt>
      <trkpt lat="47.64321" lon="6.44136">
        <ele>304.616</ele>
      </trkpt>
      <trkpt lat="47.64293" lon="6.44061">
        <ele>307.459</ele>
      </trkpt>
      <trkpt lat="47.64197" lon="6.43744">
        <ele>302.145</ele>
      </trkpt>
      <trkpt lat="47.64136" lon="6.43556">
        <ele>300.889</ele>
      </trkpt>
      <trkpt lat="47.63994" lon="6.43314">
        <ele>296.582</ele>
      </trkpt>
      <trkpt lat="47.63943" lon="6.43194">
        <ele>292.045</ele>
      </trkpt>
      <trkpt lat="47.63919" lon="6.43119">
        <ele>287.524</ele>
      </trkpt>
      <trkpt lat="47.63916" lon="6.43075">
        <ele>285.996</ele>
      </trkpt>
      <trkpt lat="47.63835" lon="6.42882">
        <ele>284</ele>
      </trkpt>
      <trkpt lat="47.63795" lon="6.42852">
        <ele>284</ele>
      </trkpt>
      <trkpt lat="47.63706" lon="6.42745">
        <ele>286.449</ele>
      </trkpt>
      <trkpt lat="47.63665" lon="6.42553">
        <ele>291.955</ele>
      </trkpt>
      <trkpt lat="47.63643" lon="6.42472">
        <ele>292.128</ele>
      </trkpt>
      <trkpt lat="47.63572" lon="6.42278">
        <ele>287.603</ele>
      </trkpt>
      <trkpt lat="47.6357" lon="6.42249">
        <ele>287.535</ele>
      </trkpt>
      <trkpt lat="47.63564" lon="6.4215">
        <ele>286.697</ele>
      </trkpt>
      <trkpt lat="47.63431" lon="6.41893">
        <ele>288.866</ele>
      </trkpt>
      <trkpt lat="47.6341" lon="6.41821">
        <ele>288.939</ele>
      </trkpt>
      <trkpt lat="47.63391" lon="6.41733">
        <ele>289.712</ele>
      </trkpt>
      <trkpt lat="47.63359" lon="6.41467">
        <ele>288.91</ele>
      </trkpt>
      <trkpt lat="47.63354" lon="6.4143">
        <ele>288.737</ele>
      </trkpt>
      <trkpt lat="47.63281" lon="6.41279">
        <ele>289.941</ele>
      </trkpt>
      <trkpt lat="47.63281" lon="6.41279">
        <ele>289.945</ele>
      </trkpt>
      <trkpt lat="47.63231" lon="6.41243">
        <ele>292.545</ele>
      </trkpt>
      <trkpt lat="47.63165" lon="6.41213">
        <ele>297.045</ele>
      </trkpt>
      <trkpt lat="47.63162" lon="6.41213">
        <ele>297.121</ele>
      </trkpt>
      <trkpt lat="47.62931" lon="6.41318">
        <ele>296.563</ele>
      </trkpt>
      <trkpt lat="47.62859" lon="6.41378">
        <ele>298.09</ele>
      </trkpt>
      <trkpt lat="47.6282" lon="6.4139">
        <ele>298.509</ele>
      </trkpt>
      <trkpt lat="47.62803" lon="6.41393">
        <ele>297.841</ele>
      </trkpt>
      <trkpt lat="47.62624" lon="6.41446">
        <ele>295.94</ele>
      </trkpt>
      <trkpt lat="47.62432" lon="6.41469">
        <ele>300.545</ele>
      </trkpt>
      <trkpt lat="47.62329" lon="6.41544">
        <ele>298.935</ele>
      </trkpt>
      <trkpt lat="47.62236" lon="6.41511">
        <ele>294.892</ele>
      </trkpt>
      <trkpt lat="47.6223" lon="6.41507">
        <ele>294.496</ele>
      </trkpt>
      <trkpt lat="47.62133" lon="6.41487">
        <ele>290.305</ele>
      </trkpt>
      <trkpt lat="47.62097" lon="6.41475">
        <ele>288.551</ele>
      </trkpt>
      <trkpt lat="47.62062" lon="6.41435">
        <ele>285.095</ele>
      </trkpt>
      <trkpt lat="47.62024" lon="6.4138">
        <ele>282.68</ele>
      </trkpt>
      <trkpt lat="47.61952" lon="6.4133">
        <ele>280.905</ele>
      </trkpt>
      <trkpt lat="47.61738" lon="6.41208">
        <ele>281.574</ele>
      </trkpt>
      <trkpt lat="47.61722" lon="6.41201">
        <ele>281.004</ele>
      </trkpt>
      <trkpt lat="47.61642" lon="6.41182">
        <ele>282</ele>
      </trkpt>
      <trkpt lat="47.61588" lon="6.41128">
        <ele>283.901</ele>
      </trkpt>
      <trkpt lat="47.61561" lon="6.41119">
        <ele>284.585</ele>
      </trkpt>
      <trkpt lat="47.6146" lon="6.41108">
        <ele>288.563</ele>
      </trkpt>
      <trkpt lat="47.61497" lon="6.40983">
        <ele>291.742</ele>
      </trkpt>
      <trkpt lat="47.61517" lon="6.40755">
        <ele>300.07</ele>
      </trkpt>
      <trkpt lat="47.61516" lon="6.40734">
        <ele>300.56</ele>
      </trkpt>
      <trkpt lat="47.6151" lon="6.40694">
        <ele>301.877</ele>
      </trkpt>
      <trkpt lat="47.61501" lon="6.40613">
        <ele>303.857</ele>
      </trkpt>
      <trkpt lat="47.61501" lon="6.40596">
        <ele>304.39</ele>
      </trkpt>
      <trkpt lat="47.61538" lon="6.40446">
        <ele>311.778</ele>
      </trkpt>
      <trkpt lat="47.61522" lon="6.40395">
        <ele>317.119</ele>
      </trkpt>
      <trkpt lat="47.61528" lon="6.40329">
        <ele>319.954</ele>
      </trkpt>
      <trkpt lat="47.61531" lon="6.40119">
        <ele>320.409</ele>
      </trkpt>
      <trkpt lat="47.61546" lon="6.40085">
        <ele>324.085</ele>
      </trkpt>
      <trkpt lat="47.61567" lon="6.40036">
        <ele>327.119</ele>
      </trkpt>
      <trkpt lat="47.6156" lon="6.3999">
        <ele>328.781</ele>
      </trkpt>
      <trkpt lat="47.61522" lon="6.39812">
        <ele>325.988</ele>
      </trkpt>
      <trkpt lat="47.61525" lon="6.39695">
        <ele>325.462</ele>
      </trkpt>
      <trkpt lat="47.61524" lon="6.39601">
        <ele>324.176</ele>
      </trkpt>
      <trkpt lat="47.61473" lon="6.39438">
        <ele>317.706</ele>
      </trkpt>
      <trkpt lat="47.61468" lon="6.39415">
        <ele>317.562</ele>
      </trkpt>
      <trkpt lat="47.61522" lon="6.38994">
        <ele>303.742</ele>
      </trkpt>
      <trkpt lat="47.61521" lon="6.38938">
        <ele>299.502</ele>
      </trkpt>
      <trkpt lat="47.61521" lon="6.38938">
        <ele>299.502</ele>
      </trkpt>
      <trkpt lat="47.61469" lon="6.38879">
        <ele>294.21</ele>
      </trkpt>
      <trkpt lat="47.61363" lon="6.38743">
        <ele>286.169</ele>
      </trkpt>
      <trkpt lat="47.61312" lon="6.38699">
        <ele>284.285</ele>
      </trkpt>
      <trkpt lat="47.61167" lon="6.38426">
        <ele>285.675</ele>
      </trkpt>
      <trkpt lat="47.61152" lon="6.38379">
        <ele>288.69</ele>
      </trkpt>
      <trkpt lat="47.61152" lon="6.38379">
        <ele>288.727</ele>
      </trkpt>
      <trkpt lat="47.6105" lon="6.38286">
        <ele>293.508</ele>
      </trkpt>
      <trkpt lat="47.61028" lon="6.38243">
        <ele>294.22</ele>
      </trkpt>
      <trkpt lat="47.60983" lon="6.383">
        <ele>289.955</ele>
      </trkpt>
      <trkpt lat="47.60967" lon="6.38305">
        <ele>288.811</ele>
      </trkpt>
      <trkpt lat="47.60934" lon="6.3831">
        <ele>286.971</ele>
      </trkpt>
      <trkpt lat="47.60707" lon="6.38255">
        <ele>282.175</ele>
      </trkpt>
      <trkpt lat="47.60481" lon="6.38147">
        <ele>282.718</ele>
      </trkpt>
      <trkpt lat="47.60145" lon="6.38007">
        <ele>281.752</ele>
      </trkpt>
      <trkpt lat="47.59916" lon="6.37929">
        <ele>285.457</ele>
      </trkpt>
      <trkpt lat="47.59659" lon="6.37966">
        <ele>282.871</ele>
      </trkpt>
      <trkpt lat="47.59636" lon="6.37974">
        <ele>282.768</ele>
      </trkpt>
      <trkpt lat="47.59375" lon="6.37927">
        <ele>285.841</ele>
      </trkpt>
      <trkpt lat="47.59307" lon="6.37884">
        <ele>285.353</ele>
      </trkpt>
      <trkpt lat="47.5907" lon="6.37973">
        <ele>279.435</ele>
      </trkpt>
      <trkpt lat="47.59058" lon="6.3798">
        <ele>279.393</ele>
      </trkpt>
      <trkpt lat="47.59028" lon="6.37981">
        <ele>279.397</ele>
      </trkpt>
      <trkpt lat="47.5892" lon="6.37972">
        <ele>280.901</ele>
      </trkpt>
      <trkpt lat="47.58878" lon="6.3794">
        <ele>288.391</ele>
      </trkpt>
      <trkpt lat="47.58855" lon="6.37923">
        <ele>292.013</ele>
      </trkpt>
      <trkpt lat="47.58679" lon="6.38017">
        <ele>292.679</ele>
      </trkpt>
      <trkpt lat="47.58648" lon="6.38031">
        <ele>295.129</ele>
      </trkpt>
      <trkpt lat="47.58648" lon="6.38031">
        <ele>295.129</ele>
      </trkpt>
      <trkpt lat="47.58618" lon="6.38045">
        <ele>296.064</ele>
      </trkpt>
      <trkpt lat="47.5858" lon="6.38067">
        <ele>296.794</ele>
      </trkpt>
      <trkpt lat="47.58441" lon="6.38194">
        <ele>296.962</ele>
      </trkpt>
      <trkpt lat="47.5839" lon="6.38254">
        <ele>304.384</ele>
      </trkpt>
      <trkpt lat="47.58241" lon="6.38405">
        <ele>309.815</ele>
      </trkpt>
      <trkpt lat="47.57946" lon="6.3874">
        <ele>312.642</ele>
      </trkpt>
      <trkpt lat="47.57745" lon="6.38963">
        <ele>301.084</ele>
      </trkpt>
      <trkpt lat="47.57664" lon="6.39052">
        <ele>297.918</ele>
      </trkpt>
      <trkpt lat="47.57525" lon="6.39214">
        <ele>293.375</ele>
      </trkpt>
      <trkpt lat="47.57395" lon="6.39363">
        <ele>289.159</ele>
      </trkpt>
      <trkpt lat="47.57308" lon="6.39458">
        <ele>282.71</ele>
      </trkpt>
      <trkpt lat="47.57273" lon="6.39526">
        <ele>278.656</ele>
      </trkpt>
      <trkpt lat="47.57248" lon="6.39521">
        <ele>276.903</ele>
      </trkpt>
      <trkpt lat="47.57202" lon="6.39478">
        <ele>279.559</ele>
      </trkpt>
      <trkpt lat="47.57121" lon="6.39424">
        <ele>279.605</ele>
      </trkpt>
      <trkpt lat="47.56946" lon="6.39308">
        <ele>279.965</ele>
      </trkpt>
      <trkpt lat="47.56774" lon="6.39183">
        <ele>276.846</ele>
      </trkpt>
      <trkpt lat="47.56421" lon="6.38948">
        <ele>288.906</ele>
      </trkpt>
      <trkpt lat="47.56231" lon="6.38835">
        <ele>289</ele>
      </trkpt>
      <trkpt lat="47.55963" lon="6.38725">
        <ele>282.1</ele>
      </trkpt>
      <trkpt lat="47.55812" lon="6.38656">
        <ele>274.89</ele>
      </trkpt>
      <trkpt lat="47.55758" lon="6.38579">
        <ele>271.654</ele>
      </trkpt>
      <trkpt lat="47.55736" lon="6.38481">
        <ele>271.521</ele>
      </trkpt>
      <trkpt lat="47.55711" lon="6.38414">
        <ele>276.135</ele>
      </trkpt>
      <trkpt lat="47.55683" lon="6.38356">
        <ele>277.288</ele>
      </trkpt>
      <trkpt lat="47.55633" lon="6.38316">
        <ele>273.631</ele>
      </trkpt>
      <trkpt lat="47.55588" lon="6.38316">
        <ele>271.241</ele>
      </trkpt>
      <trkpt lat="47.55472" lon="6.38182">
        <ele>277.046</ele>
      </trkpt>
      <trkpt lat="47.5542" lon="6.38115">
        <ele>281.74</ele>
      </trkpt>
      <trkpt lat="47.55322" lon="6.38003">
        <ele>286.732</ele>
      </trkpt>
      <trkpt lat="47.5523" lon="6.37921">
        <ele>289.284</ele>
      </trkpt>
      <trkpt lat="47.55054" lon="6.37805">
        <ele>287.067</ele>
      </trkpt>
      <trkpt lat="47.54741" lon="6.37614">
        <ele>296.579</ele>
      </trkpt>
      <trkpt lat="47.54659" lon="6.37568">
        <ele>292.426</ele>
      </trkpt>
      <trkpt lat="47.54303" lon="6.37423">
        <ele>291.809</ele>
      </trkpt>
      <trkpt lat="47.54058" lon="6.37297">
        <ele>291.126</ele>
      </trkpt>
      <trkpt lat="47.5395" lon="6.37218">
        <ele>285.242</ele>
      </trkpt>
      <trkpt lat="47.53786" lon="6.37097">
        <ele>274.556</ele>
      </trkpt>
      <trkpt lat="47.5373" lon="6.37055">
        <ele>270.602</ele>
      </trkpt>
      <trkpt lat="47.5361" lon="6.37102">
        <ele>266.317</ele>
      </trkpt>
      <trkpt lat="47.53603" lon="6.37104">
        <ele>266.274</ele>
      </trkpt>
      <trkpt lat="47.53598" lon="6.37046">
        <ele>267.193</ele>
      </trkpt>
      <trkpt lat="47.53613" lon="6.36793">
        <ele>269.099</ele>
      </trkpt>
      <trkpt lat="47.53745" lon="6.36329">
        <ele>269.117</ele>
      </trkpt>
      <trkpt lat="47.53765" lon="6.36253">
        <ele>269.609</ele>
      </trkpt>
      <trkpt lat="47.53794" lon="6.36062">
        <ele>271.265</ele>
      </trkpt>
      <trkpt lat="47.53868" lon="6.35783">
        <ele>274.949</ele>
      </trkpt>
      <trkpt lat="47.53906" lon="6.3565">
        <ele>277.739</ele>
      </trkpt>
      <trkpt lat="47.53955" lon="6.35505">
        <ele>283.44</ele>
      </trkpt>
      <trkpt lat="47.54004" lon="6.35369">
        <ele>288.187</ele>
      </trkpt>
      <trkpt lat="47.54037" lon="6.35279">
        <ele>290.258</ele>
      </trkpt>
      <trkpt lat="47.54053" lon="6.35242">
        <ele>291.651</ele>
      </trkpt>
      <trkpt lat="47.54129" lon="6.35084">
        <ele>294.989</ele>
      </trkpt>
      <trkpt lat="47.54145" lon="6.35042">
        <ele>294.299</ele>
      </trkpt>
      <trkpt lat="47.54198" lon="6.3488">
        <ele>299.128</ele>
      </trkpt>
      <trkpt lat="47.54231" lon="6.34812">
        <ele>302.052</ele>
      </trkpt>
      <trkpt lat="47.54268" lon="6.34776">
        <ele>304.075</ele>
      </trkpt>
      <trkpt lat="47.54294" lon="6.34731">
        <ele>305.702</ele>
      </trkpt>
      <trkpt lat="47.54298" lon="6.34708">
        <ele>306.519</ele>
      </trkpt>
      <trkpt lat="47.54284" lon="6.34642">
        <ele>308.42</ele>
      </trkpt>
      <trkpt lat="47.54464" lon="6.34067">
        <ele>319.455</ele>
      </trkpt>
      <trkpt lat="47.54479" lon="6.34024">
        <ele>322.122</ele>
      </trkpt>
      <trkpt lat="47.54494" lon="6.33988">
        <ele>323.843</ele>
      </trkpt>
      <trkpt lat="47.54603" lon="6.33786">
        <ele>331.7</ele>
      </trkpt>
      <trkpt lat="47.54668" lon="6.33676">
        <ele>332.641</ele>
      </trkpt>
      <trkpt lat="47.54828" lon="6.33401">
        <ele>334.114</ele>
      </trkpt>
      <trkpt lat="47.54874" lon="6.33217">
        <ele>332.464</ele>
      </trkpt>
      <trkpt lat="47.54841" lon="6.32924">
        <ele>329.009</ele>
      </trkpt>
      <trkpt lat="47.54851" lon="6.32761">
        <ele>326.137</ele>
      </trkpt>
      <trkpt lat="47.54876" lon="6.3255">
        <ele>324.529</ele>
      </trkpt>
      <trkpt lat="47.54994" lon="6.3211">
        <ele>322.773</ele>
      </trkpt>
      <trkpt lat="47.55068" lon="6.31859">
        <ele>324</ele>
      </trkpt>
      <trkpt lat="47.55187" lon="6.31496">
        <ele>319.708</ele>
      </trkpt>
      <trkpt lat="47.55192" lon="6.31483">
        <ele>319.845</ele>
      </trkpt>
      <trkpt lat="47.55151" lon="6.3126">
        <ele>314.858</ele>
      </trkpt>
      <trkpt lat="47.5507" lon="6.30864">
        <ele>307.048</ele>
      </trkpt>
      <trkpt lat="47.55058" lon="6.30821">
        <ele>307.318</ele>
      </trkpt>
      <trkpt lat="47.55107" lon="6.30554">
        <ele>314</ele>
      </trkpt>
      <trkpt lat="47.55108" lon="6.30547">
        <ele>314</ele>
      </trkpt>
      <trkpt lat="47.55082" lon="6.303">
        <ele>315.054</ele>
      </trkpt>
      <trkpt lat="47.55105" lon="6.3009">
        <ele>318.758</ele>
      </trkpt>
      <trkpt lat="47.55089" lon="6.29812">
        <ele>319.973</ele>
      </trkpt>
      <trkpt lat="47.55055" lon="6.29665">
        <ele>318.072</ele>
      </trkpt>
      <trkpt lat="47.5505" lon="6.29459">
        <ele>315.544</ele>
      </trkpt>
      <trkpt lat="47.55057" lon="6.29378">
        <ele>316.344</ele>
      </trkpt>
      <trkpt lat="47.5496" lon="6.29177">
        <ele>313.553</ele>
      </trkpt>
      <trkpt lat="47.54956" lon="6.29076">
        <ele>309.464</ele>
      </trkpt>
      <trkpt lat="47.54859" lon="6.28977">
        <ele>309.162</ele>
      </trkpt>
      <trkpt lat="47.54904" lon="6.28857">
        <ele>306.918</ele>
      </trkpt>
      <trkpt lat="47.54958" lon="6.28869">
        <ele>306.097</ele>
      </trkpt>
      <trkpt lat="47.55012" lon="6.28848">
        <ele>303.249</ele>
      </trkpt>
      <trkpt lat="47.5503" lon="6.288">
        <ele>303.915</ele>
      </trkpt>
      <trkpt lat="47.55019" lon="6.28752">
        <ele>305.328</ele>
      </trkpt>
      <trkpt lat="47.54861" lon="6.28645">
        <ele>321.028</ele>
      </trkpt>
      <trkpt lat="47.54767" lon="6.2854">
        <ele>329.12</ele>
      </trkpt>
      <trkpt lat="47.54635" lon="6.28397">
        <ele>338.935</ele>
      </trkpt>
      <trkpt lat="47.54607" lon="6.28359">
        <ele>340.354</ele>
      </trkpt>
      <trkpt lat="47.54556" lon="6.28272">
        <ele>342.713</ele>
      </trkpt>
      <trkpt lat="47.54535" lon="6.28229">
        <ele>344.923</ele>
      </trkpt>
      <trkpt lat="47.5439" lon="6.27972">
        <ele>345.021</ele>
      </trkpt>
      <trkpt lat="47.5439" lon="6.27972">
        <ele>345.021</ele>
      </trkpt>
      <trkpt lat="47.54252" lon="6.27822">
        <ele>339.642</ele>
      </trkpt>
      <trkpt lat="47.5402" lon="6.27638">
        <ele>332.978</ele>
      </trkpt>
      <trkpt lat="47.53973" lon="6.27604">
        <ele>329.779</ele>
      </trkpt>
      <trkpt lat="47.53888" lon="6.27507">
        <ele>324.22</ele>
      </trkpt>
      <trkpt lat="47.53827" lon="6.2745">
        <ele>321.019</ele>
      </trkpt>
      <trkpt lat="47.53745" lon="6.27352">
        <ele>315.658</ele>
      </trkpt>
      <trkpt lat="47.53679" lon="6.27303">
        <ele>313.944</ele>
      </trkpt>
      <trkpt lat="47.53428" lon="6.27346">
        <ele>301.444</ele>
      </trkpt>
      <trkpt lat="47.53412" lon="6.27359">
        <ele>298.687</ele>
      </trkpt>
      <trkpt lat="47.53393" lon="6.27357">
        <ele>296.586</ele>
      </trkpt>
      <trkpt lat="47.53339" lon="6.27323">
        <ele>292.565</ele>
      </trkpt>
      <trkpt lat="47.53293" lon="6.27307">
        <ele>291.882</ele>
      </trkpt>
      <trkpt lat="47.53293" lon="6.27307">
        <ele>291.882</ele>
      </trkpt>
      <trkpt lat="47.53289" lon="6.27303">
        <ele>292.061</ele>
      </trkpt>
      <trkpt lat="47.53217" lon="6.27221">
        <ele>290.614</ele>
      </trkpt>
      <trkpt lat="47.53065" lon="6.26951">
        <ele>286.085</ele>
      </trkpt>
      <trkpt lat="47.52912" lon="6.26805">
        <ele>279.544</ele>
      </trkpt>
      <trkpt lat="47.52819" lon="6.2671">
        <ele>275.584</ele>
      </trkpt>
      <trkpt lat="47.52785" lon="6.26674">
        <ele>274.238</ele>
      </trkpt>
      <trkpt lat="47.52603" lon="6.26527">
        <ele>271.253</ele>
      </trkpt>
      <trkpt lat="47.5243" lon="6.26682">
        <ele>270</ele>
      </trkpt>
      <trkpt lat="47.5225" lon="6.26746">
        <ele>274.002</ele>
      </trkpt>
      <trkpt lat="47.52183" lon="6.26746">
        <ele>275.919</ele>
      </trkpt>
      <trkpt lat="47.52105" lon="6.2677">
        <ele>279.209</ele>
      </trkpt>
      <trkpt lat="47.52024" lon="6.26798">
        <ele>283.986</ele>
      </trkpt>
      <trkpt lat="47.51975" lon="6.26819">
        <ele>288.729</ele>
      </trkpt>
      <trkpt lat="47.51949" lon="6.26831">
        <ele>291.392</ele>
      </trkpt>
      <trkpt lat="47.51921" lon="6.26843">
        <ele>294.913</ele>
      </trkpt>
      <trkpt lat="47.51889" lon="6.26851">
        <ele>297.653</ele>
      </trkpt>
      <trkpt lat="47.51829" lon="6.26855">
        <ele>303.117</ele>
      </trkpt>
      <trkpt lat="47.5175" lon="6.26887">
        <ele>309.003</ele>
      </trkpt>
      <trkpt lat="47.51688" lon="6.26953">
        <ele>311.547</ele>
      </trkpt>
      <trkpt lat="47.51652" lon="6.26982">
        <ele>313.163</ele>
      </trkpt>
      <trkpt lat="47.51621" lon="6.27">
        <ele>313.25</ele>
      </trkpt>
      <trkpt lat="47.51614" lon="6.27005">
        <ele>313.248</ele>
      </trkpt>
      <trkpt lat="47.51502" lon="6.27142">
        <ele>321.146</ele>
      </trkpt>
      <trkpt lat="47.51438" lon="6.27192">
        <ele>323.108</ele>
      </trkpt>
      <trkpt lat="47.51368" lon="6.27265">
        <ele>319.358</ele>
      </trkpt>
      <trkpt lat="47.51273" lon="6.27381">
        <ele>312.094</ele>
      </trkpt>
      <trkpt lat="47.51212" lon="6.27454">
        <ele>307.284</ele>
      </trkpt>
      <trkpt lat="47.51173" lon="6.275">
        <ele>304.995</ele>
      </trkpt>
      <trkpt lat="47.51136" lon="6.27535">
        <ele>304.751</ele>
      </trkpt>
      <trkpt lat="47.51046" lon="6.27283">
        <ele>303.614</ele>
      </trkpt>
      <trkpt lat="47.51062" lon="6.27031">
        <ele>307.697</ele>
      </trkpt>
      <trkpt lat="47.51068" lon="6.26825">
        <ele>308.474</ele>
      </trkpt>
      <trkpt lat="47.5109" lon="6.26678">
        <ele>312.003</ele>
      </trkpt>
      <trkpt lat="47.51104" lon="6.26415">
        <ele>316.356</ele>
      </trkpt>
      <trkpt lat="47.51083" lon="6.26272">
        <ele>319.42</ele>
      </trkpt>
      <trkpt lat="47.51078" lon="6.26231">
        <ele>320.571</ele>
      </trkpt>
      <trkpt lat="47.51064" lon="6.25929">
        <ele>321.956</ele>
      </trkpt>
      <trkpt lat="47.5105" lon="6.25777">
        <ele>325.122</ele>
      </trkpt>
      <trkpt lat="47.5104" lon="6.25732">
        <ele>327.398</ele>
      </trkpt>
      <trkpt lat="47.51028" lon="6.25667">
        <ele>331.023</ele>
      </trkpt>
      <trkpt lat="47.51014" lon="6.25449">
        <ele>329.751</ele>
      </trkpt>
      <trkpt lat="47.51006" lon="6.25271">
        <ele>323.403</ele>
      </trkpt>
      <trkpt lat="47.50999" lon="6.25153">
        <ele>324.452</ele>
      </trkpt>
      <trkpt lat="47.50996" lon="6.2507">
        <ele>328.325</ele>
      </trkpt>
      <trkpt lat="47.5101" lon="6.25024">
        <ele>330.349</ele>
      </trkpt>
      <trkpt lat="47.51041" lon="6.24995">
        <ele>331.186</ele>
      </trkpt>
      <trkpt lat="47.51051" lon="6.24973">
        <ele>330.065</ele>
      </trkpt>
      <trkpt lat="47.51052" lon="6.24953">
        <ele>329.315</ele>
      </trkpt>
      <trkpt lat="47.50883" lon="6.24647">
        <ele>327.738</ele>
      </trkpt>
      <trkpt lat="47.50876" lon="6.24635">
        <ele>327.671</ele>
      </trkpt>
      <trkpt lat="47.50855" lon="6.24553">
        <ele>324.381</ele>
      </trkpt>
      <trkpt lat="47.50828" lon="6.24412">
        <ele>315.396</ele>
      </trkpt>
      <trkpt lat="47.50807" lon="6.24317">
        <ele>307.535</ele>
      </trkpt>
      <trkpt lat="47.50764" lon="6.24196">
        <ele>299.152</ele>
      </trkpt>
      <trkpt lat="47.5075" lon="6.24146">
        <ele>297.498</ele>
      </trkpt>
      <trkpt lat="47.50751" lon="6.24146">
        <ele>297.418</ele>
      </trkpt>
      <trkpt lat="47.50651" lon="6.24056">
        <ele>299.498</ele>
      </trkpt>
      <trkpt lat="47.50613" lon="6.23976">
        <ele>298.003</ele>
      </trkpt>
      <trkpt lat="47.50665" lon="6.23897">
        <ele>283.465</ele>
      </trkpt>
      <trkpt lat="47.50681" lon="6.23854">
        <ele>280.336</ele>
      </trkpt>
      <trkpt lat="47.50734" lon="6.23754">
        <ele>274.259</ele>
      </trkpt>
      <trkpt lat="47.50786" lon="6.23653">
        <ele>269.055</ele>
      </trkpt>
      <trkpt lat="47.50839" lon="6.23553">
        <ele>264.708</ele>
      </trkpt>
      <trkpt lat="47.50921" lon="6.23604">
        <ele>261.962</ele>
      </trkpt>
      <trkpt lat="47.50975" lon="6.23588">
        <ele>261.248</ele>
      </trkpt>
      <trkpt lat="47.51003" lon="6.23303">
        <ele>259.444</ele>
      </trkpt>
      <trkpt lat="47.5105" lon="6.23037">
        <ele>267.621</ele>
      </trkpt>
      <trkpt lat="47.51094" lon="6.22812">
        <ele>271.398</ele>
      </trkpt>
      <trkpt lat="47.51097" lon="6.22798">
        <ele>271.499</ele>
      </trkpt>
      <trkpt lat="47.51073" lon="6.22558">
        <ele>277.346</ele>
      </trkpt>
      <trkpt lat="47.51073" lon="6.22549">
        <ele>277.63</ele>
      </trkpt>
      <trkpt lat="47.51091" lon="6.2247">
        <ele>279.356</ele>
      </trkpt>
      <trkpt lat="47.51111" lon="6.22419">
        <ele>281</ele>
      </trkpt>
      <trkpt lat="47.51132" lon="6.21817">
        <ele>289.588</ele>
      </trkpt>
      <trkpt lat="47.51122" lon="6.21731">
        <ele>295.404</ele>
      </trkpt>
      <trkpt lat="47.51148" lon="6.21594">
        <ele>309.951</ele>
      </trkpt>
      <trkpt lat="47.51168" lon="6.21512">
        <ele>308.439</ele>
      </trkpt>
      <trkpt lat="47.51126" lon="6.21221">
        <ele>294.388</ele>
      </trkpt>
      <trkpt lat="47.51113" lon="6.21003">
        <ele>287.044</ele>
      </trkpt>
      <trkpt lat="47.51108" lon="6.20877">
        <ele>282.771</ele>
      </trkpt>
      <trkpt lat="47.51111" lon="6.20755">
        <ele>280.994</ele>
      </trkpt>
      <trkpt lat="47.51103" lon="6.20319">
        <ele>271.79</ele>
      </trkpt>
      <trkpt lat="47.51093" lon="6.20204">
        <ele>264.329</ele>
      </trkpt>
      <trkpt lat="47.51102" lon="6.20087">
        <ele>257.143</ele>
      </trkpt>
      <trkpt lat="47.5111" lon="6.2001">
        <ele>256.336</ele>
      </trkpt>
      <trkpt lat="47.511" lon="6.20036">
        <ele>256.71</ele>
      </trkpt>
      <trkpt lat="47.5113" lon="6.19893">
        <ele>255.725</ele>
      </trkpt>
      <trkpt lat="47.51135" lon="6.19867">
        <ele>255.967</ele>
      </trkpt>
      <trkpt lat="47.51055" lon="6.19729">
        <ele>256.999</ele>
      </trkpt>
      <trkpt lat="47.50954" lon="6.19709">
        <ele>257.973</ele>
      </trkpt>
      <trkpt lat="47.50937" lon="6.19704">
        <ele>258.157</ele>
      </trkpt>
      <trkpt lat="47.50923" lon="6.19693">
        <ele>258.34</ele>
      </trkpt>
      <trkpt lat="47.50902" lon="6.19616">
        <ele>266.004</ele>
      </trkpt>
      <trkpt lat="47.50896" lon="6.19571">
        <ele>269.31</ele>
      </trkpt>
      <trkpt lat="47.50878" lon="6.19531">
        <ele>271.262</ele>
      </trkpt>
      <trkpt lat="47.50833" lon="6.19479">
        <ele>273.021</ele>
      </trkpt>
      <trkpt lat="47.50771" lon="6.1943">
        <ele>279.979</ele>
      </trkpt>
      <trkpt lat="47.50686" lon="6.19361">
        <ele>284.3</ele>
      </trkpt>
      <trkpt lat="47.50636" lon="6.19302">
        <ele>282.951</ele>
      </trkpt>
      <trkpt lat="47.50551" lon="6.19178">
        <ele>279.912</ele>
      </trkpt>
      <trkpt lat="47.50355" lon="6.18957">
        <ele>273.327</ele>
      </trkpt>
      <trkpt lat="47.50305" lon="6.18847">
        <ele>272.976</ele>
      </trkpt>
      <trkpt lat="47.50189" lon="6.18751">
        <ele>268.633</ele>
      </trkpt>
      <trkpt lat="47.50176" lon="6.18699">
        <ele>267.954</ele>
      </trkpt>
      <trkpt lat="47.50171" lon="6.18342">
        <ele>274.29</ele>
      </trkpt>
      <trkpt lat="47.50175" lon="6.18256">
        <ele>274.367</ele>
      </trkpt>
      <trkpt lat="47.50177" lon="6.18238">
        <ele>274.788</ele>
      </trkpt>
      <trkpt lat="47.50281" lon="6.17959">
        <ele>277.151</ele>
      </trkpt>
      <trkpt lat="47.50098" lon="6.17871">
        <ele>288.163</ele>
      </trkpt>
      <trkpt lat="47.49981" lon="6.17855">
        <ele>288.312</ele>
      </trkpt>
      <trkpt lat="47.49871" lon="6.17843">
        <ele>286.78</ele>
      </trkpt>
      <trkpt lat="47.49829" lon="6.17832">
        <ele>285.75</ele>
      </trkpt>
      <trkpt lat="47.49786" lon="6.1781">
        <ele>282.606</ele>
      </trkpt>
      <trkpt lat="47.49623" lon="6.17413">
        <ele>284</ele>
      </trkpt>
      <trkpt lat="47.49572" lon="6.17264">
        <ele>285.208</ele>
      </trkpt>
      <trkpt lat="47.49517" lon="6.17168">
        <ele>285.407</ele>
      </trkpt>
      <trkpt lat="47.49459" lon="6.16849">
        <ele>289.949</ele>
      </trkpt>
      <trkpt lat="47.49395" lon="6.16228">
        <ele>289</ele>
      </trkpt>
      <trkpt lat="47.4938" lon="6.16074">
        <ele>288</ele>
      </trkpt>
      <trkpt lat="47.49164" lon="6.15871">
        <ele>282.9</ele>
      </trkpt>
      <trkpt lat="47.49114" lon="6.15788">
        <ele>281.808</ele>
      </trkpt>
      <trkpt lat="47.4901" lon="6.15593">
        <ele>280.564</ele>
      </trkpt>
      <trkpt lat="47.4892" lon="6.15486">
        <ele>277.102</ele>
      </trkpt>
      <trkpt lat="47.48905" lon="6.15222">
        <ele>275.189</ele>
      </trkpt>
      <trkpt lat="47.48883" lon="6.15055">
        <ele>270.768</ele>
      </trkpt>
      <trkpt lat="47.48837" lon="6.14897">
        <ele>265.64</ele>
      </trkpt>
      <trkpt lat="47.48877" lon="6.15026">
        <ele>269.564</ele>
      </trkpt>
      <trkpt lat="47.48883" lon="6.15058">
        <ele>270.811</ele>
      </trkpt>
      <trkpt lat="47.4884" lon="6.14906">
        <ele>266.18</ele>
      </trkpt>
      <trkpt lat="47.48811" lon="6.1482">
        <ele>264</ele>
      </trkpt>
      <trkpt lat="47.48853" lon="6.147">
        <ele>265.243</ele>
      </trkpt>
      <trkpt lat="47.48868" lon="6.14629">
        <ele>266.005</ele>
      </trkpt>
      <trkpt lat="47.48912" lon="6.14304">
        <ele>268.231</ele>
      </trkpt>
      <trkpt lat="47.48992" lon="6.13979">
        <ele>269.826</ele>
      </trkpt>
      <trkpt lat="47.49215" lon="6.13357">
        <ele>275.102</ele>
      </trkpt>
      <trkpt lat="47.49347" lon="6.12795">
        <ele>285.691</ele>
      </trkpt>
      <trkpt lat="47.49416" lon="6.12458">
        <ele>294.499</ele>
      </trkpt>
      <trkpt lat="47.49441" lon="6.12362">
        <ele>297.83</ele>
      </trkpt>
      <trkpt lat="47.495" lon="6.12167">
        <ele>304.028</ele>
      </trkpt>
      <trkpt lat="47.49513" lon="6.12115">
        <ele>308.206</ele>
      </trkpt>
      <trkpt lat="47.49539" lon="6.11888">
        <ele>315.277</ele>
      </trkpt>
      <trkpt lat="47.49542" lon="6.11805">
        <ele>318.982</ele>
      </trkpt>
      <trkpt lat="47.49538" lon="6.11617">
        <ele>321.926</ele>
      </trkpt>
      <trkpt lat="47.49538" lon="6.11617">
        <ele>321.926</ele>
      </trkpt>
      <trkpt lat="47.49493" lon="6.11458">
        <ele>322.623</ele>
      </trkpt>
      <trkpt lat="47.49493" lon="6.11286">
        <ele>319.044</ele>
      </trkpt>
      <trkpt lat="47.4947" lon="6.11103">
        <ele>313.73</ele>
      </trkpt>
      <trkpt lat="47.49412" lon="6.10908">
        <ele>308.674</ele>
      </trkpt>
      <trkpt lat="47.49388" lon="6.10773">
        <ele>303.821</ele>
      </trkpt>
      <trkpt lat="47.49382" lon="6.1069">
        <ele>300.466</ele>
      </trkpt>
      <trkpt lat="47.49355" lon="6.1058">
        <ele>292.738</ele>
      </trkpt>
      <trkpt lat="47.49381" lon="6.10218">
        <ele>294.869</ele>
      </trkpt>
      <trkpt lat="47.49422" lon="6.10063">
        <ele>292.881</ele>
      </trkpt>
      <trkpt lat="47.49431" lon="6.10014">
        <ele>289.425</ele>
      </trkpt>
      <trkpt lat="47.49405" lon="6.10039">
        <ele>287.387</ele>
      </trkpt>
      <trkpt lat="47.49315" lon="6.10174">
        <ele>282.937</ele>
      </trkpt>
      <trkpt lat="47.49138" lon="6.10276">
        <ele>279.918</ele>
      </trkpt>
      <trkpt lat="47.48959" lon="6.10301">
        <ele>282.602</ele>
      </trkpt>
      <trkpt lat="47.48745" lon="6.10286">
        <ele>282.783</ele>
      </trkpt>
      <trkpt lat="47.48725" lon="6.1019">
        <ele>280.692</ele>
      </trkpt>
      <trkpt lat="47.48595" lon="6.09917">
        <ele>281.412</ele>
      </trkpt>
      <trkpt lat="47.48468" lon="6.09875">
        <ele>284.148</ele>
      </trkpt>
      <trkpt lat="47.48365" lon="6.09784">
        <ele>292.171</ele>
      </trkpt>
      <trkpt lat="47.48333" lon="6.09646">
        <ele>298.68</ele>
      </trkpt>
      <trkpt lat="47.48309" lon="6.0955">
        <ele>296.983</ele>
      </trkpt>
      <trkpt lat="47.48303" lon="6.09499">
        <ele>297.642</ele>
      </trkpt>
      <trkpt lat="47.48294" lon="6.09449">
        <ele>297.705</ele>
      </trkpt>
      <trkpt lat="47.48277" lon="6.09359">
        <ele>298.968</ele>
      </trkpt>
      <trkpt lat="47.48265" lon="6.09228">
        <ele>301.506</ele>
      </trkpt>
      <trkpt lat="47.48249" lon="6.09092">
        <ele>301.043</ele>
      </trkpt>
      <trkpt lat="47.48219" lon="6.09031">
        <ele>303.405</ele>
      </trkpt>
      <trkpt lat="47.48147" lon="6.08971">
        <ele>307.012</ele>
      </trkpt>
      <trkpt lat="47.4803" lon="6.08912">
        <ele>317.01</ele>
      </trkpt>
      <trkpt lat="47.4799" lon="6.08886">
        <ele>319.782</ele>
      </trkpt>
      <trkpt lat="47.47912" lon="6.08838">
        <ele>324.188</ele>
      </trkpt>
      <trkpt lat="47.47877" lon="6.08816">
        <ele>324.552</ele>
      </trkpt>
      <trkpt lat="47.47812" lon="6.08781">
        <ele>324.04</ele>
      </trkpt>
      <trkpt lat="47.47746" lon="6.08748">
        <ele>322.766</ele>
      </trkpt>
      <trkpt lat="47.47705" lon="6.08724">
        <ele>320.437</ele>
      </trkpt>
      <trkpt lat="47.47671" lon="6.08725">
        <ele>320.014</ele>
      </trkpt>
      <trkpt lat="47.47664" lon="6.08685">
        <ele>319.745</ele>
      </trkpt>
      <trkpt lat="47.47646" lon="6.08583">
        <ele>314.717</ele>
      </trkpt>
      <trkpt lat="47.47645" lon="6.0858">
        <ele>314.667</ele>
      </trkpt>
      <trkpt lat="47.47626" lon="6.08526">
        <ele>313.457</ele>
      </trkpt>
      <trkpt lat="47.47625" lon="6.08501">
        <ele>313.504</ele>
      </trkpt>
      <trkpt lat="47.47646" lon="6.0838">
        <ele>316.319</ele>
      </trkpt>
      <trkpt lat="47.47647" lon="6.08289">
        <ele>322.037</ele>
      </trkpt>
      <trkpt lat="47.47591" lon="6.08157">
        <ele>323.175</ele>
      </trkpt>
      <trkpt lat="47.47455" lon="6.07895">
        <ele>324.481</ele>
      </trkpt>
      <trkpt lat="47.4741" lon="6.07817">
        <ele>329.084</ele>
      </trkpt>
      <trkpt lat="47.4738" lon="6.07746">
        <ele>330.877</ele>
      </trkpt>
      <trkpt lat="47.47378" lon="6.07737">
        <ele>331.079</ele>
      </trkpt>
      <trkpt lat="47.47324" lon="6.07576">
        <ele>328.174</ele>
      </trkpt>
      <trkpt lat="47.47249" lon="6.07475">
        <ele>321.067</ele>
      </trkpt>
      <trkpt lat="47.47198" lon="6.07432">
        <ele>319.075</ele>
      </trkpt>
      <trkpt lat="47.47145" lon="6.07398">
        <ele>315.142</ele>
      </trkpt>
      <trkpt lat="47.47091" lon="6.07298">
        <ele>312.76</ele>
      </trkpt>
      <trkpt lat="47.47063" lon="6.07246">
        <ele>312.078</ele>
      </trkpt>
      <trkpt lat="47.47064" lon="6.07245">
        <ele>312.062</ele>
      </trkpt>
      <trkpt lat="47.47061" lon="6.07238">
        <ele>311.682</ele>
      </trkpt>
      <trkpt lat="47.47063" lon="6.07095">
        <ele>307.718</ele>
      </trkpt>
      <trkpt lat="47.47066" lon="6.07076">
        <ele>307.718</ele>
      </trkpt>
      <trkpt lat="47.47092" lon="6.07002">
        <ele>313.465</ele>
      </trkpt>
      <trkpt lat="47.4714" lon="6.06888">
        <ele>322.03</ele>
      </trkpt>
      <trkpt lat="47.47152" lon="6.06853">
        <ele>324.06</ele>
      </trkpt>
      <trkpt lat="47.47152" lon="6.06853">
        <ele>324.06</ele>
      </trkpt>
      <trkpt lat="47.47154" lon="6.06762">
        <ele>327.621</ele>
      </trkpt>
      <trkpt lat="47.47154" lon="6.06711">
        <ele>327.989</ele>
      </trkpt>
      <trkpt lat="47.47172" lon="6.06647">
        <ele>330.516</ele>
      </trkpt>
      <trkpt lat="47.47213" lon="6.06573">
        <ele>338.528</ele>
      </trkpt>
      <trkpt lat="47.47225" lon="6.06543">
        <ele>342.037</ele>
      </trkpt>
      <trkpt lat="47.47225" lon="6.06543">
        <ele>342.037</ele>
      </trkpt>
      <trkpt lat="47.47219" lon="6.065">
        <ele>342.39</ele>
      </trkpt>
      <trkpt lat="47.47195" lon="6.06438">
        <ele>340.401</ele>
      </trkpt>
      <trkpt lat="47.47144" lon="6.06316">
        <ele>339.901</ele>
      </trkpt>
      <trkpt lat="47.47131" lon="6.06279">
        <ele>341.394</ele>
      </trkpt>
      <trkpt lat="47.47104" lon="6.06209">
        <ele>345.331</ele>
      </trkpt>
      <trkpt lat="47.46982" lon="6.0622">
        <ele>339.161</ele>
      </trkpt>
      <trkpt lat="47.46982" lon="6.0622">
        <ele>339.164</ele>
      </trkpt>
      <trkpt lat="47.46932" lon="6.06258">
        <ele>329.729</ele>
      </trkpt>
      <trkpt lat="47.46909" lon="6.06269">
        <ele>325.584</ele>
      </trkpt>
      <trkpt lat="47.46896" lon="6.06272">
        <ele>323.884</ele>
      </trkpt>
      <trkpt lat="47.46854" lon="6.06281">
        <ele>318.459</ele>
      </trkpt>
      <trkpt lat="47.46822" lon="6.06299">
        <ele>316.163</ele>
      </trkpt>
      <trkpt lat="47.46731" lon="6.06369">
        <ele>311.29</ele>
      </trkpt>
      <trkpt lat="47.46633" lon="6.06454">
        <ele>315.729</ele>
      </trkpt>
      <trkpt lat="47.46508" lon="6.06517">
        <ele>312.562</ele>
      </trkpt>
      <trkpt lat="47.46397" lon="6.06552">
        <ele>304.553</ele>
      </trkpt>
      <trkpt lat="47.46313" lon="6.06578">
        <ele>298.543</ele>
      </trkpt>
      <trkpt lat="47.46249" lon="6.06598">
        <ele>294.465</ele>
      </trkpt>
      <trkpt lat="47.46164" lon="6.06623">
        <ele>295</ele>
      </trkpt>
      <trkpt lat="47.4583" lon="6.06575">
        <ele>297.15</ele>
      </trkpt>
      <trkpt lat="47.45773" lon="6.06561">
        <ele>294.654</ele>
      </trkpt>
      <trkpt lat="47.45565" lon="6.06512">
        <ele>307</ele>
      </trkpt>
      <trkpt lat="47.45548" lon="6.06508">
        <ele>306.928</ele>
      </trkpt>
      <trkpt lat="47.45591" lon="6.0616">
        <ele>306.801</ele>
      </trkpt>
      <trkpt lat="47.4561" lon="6.05963">
        <ele>309.949</ele>
      </trkpt>
      <trkpt lat="47.45627" lon="6.05846">
        <ele>314.659</ele>
      </trkpt>
      <trkpt lat="47.45637" lon="6.05776">
        <ele>317.944</ele>
      </trkpt>
      <trkpt lat="47.45668" lon="6.05527">
        <ele>332.093</ele>
      </trkpt>
      <trkpt lat="47.45681" lon="6.05474">
        <ele>336.402</ele>
      </trkpt>
      <trkpt lat="47.4573" lon="6.05315">
        <ele>344.933</ele>
      </trkpt>
      <trkpt lat="47.45799" lon="6.05182">
        <ele>349.346</ele>
      </trkpt>
      <trkpt lat="47.4584" lon="6.05111">
        <ele>352.243</ele>
      </trkpt>
      <trkpt lat="47.45864" lon="6.05076">
        <ele>353.469</ele>
      </trkpt>
      <trkpt lat="47.45843" lon="6.05073">
        <ele>352.716</ele>
      </trkpt>
      <trkpt lat="47.45739" lon="6.05038">
        <ele>350.844</ele>
      </trkpt>
      <trkpt lat="47.45708" lon="6.05023">
        <ele>349.148</ele>
      </trkpt>
      <trkpt lat="47.45564" lon="6.05088">
        <ele>345.58</ele>
      </trkpt>
      <trkpt lat="47.45366" lon="6.05161">
        <ele>337.197</ele>
      </trkpt>
      <trkpt lat="47.45266" lon="6.05193">
        <ele>335.041</ele>
      </trkpt>
      <trkpt lat="47.45199" lon="6.05256">
        <ele>331.352</ele>
      </trkpt>
      <trkpt lat="47.45084" lon="6.05273">
        <ele>325.421</ele>
      </trkpt>
      <trkpt lat="47.44826" lon="6.0523">
        <ele>314.217</ele>
      </trkpt>
      <trkpt lat="47.44648" lon="6.05222">
        <ele>305.333</ele>
      </trkpt>
      <trkpt lat="47.44561" lon="6.05209">
        <ele>299.854</ele>
      </trkpt>
      <trkpt lat="47.44561" lon="6.05209">
        <ele>299.846</ele>
      </trkpt>
      <trkpt lat="47.4438" lon="6.0547">
        <ele>293</ele>
      </trkpt>
      <trkpt lat="47.44266" lon="6.05331">
        <ele>290.558</ele>
      </trkpt>
      <trkpt lat="47.44161" lon="6.05257">
        <ele>286.026</ele>
      </trkpt>
      <trkpt lat="47.4408" lon="6.05126">
        <ele>286.647</ele>
      </trkpt>
      <trkpt lat="47.44276" lon="6.04969">
        <ele>291.116</ele>
      </trkpt>
      <trkpt lat="47.44353" lon="6.04911">
        <ele>290</ele>
      </trkpt>
      <trkpt lat="47.44429" lon="6.04854">
        <ele>290.934</ele>
      </trkpt>
      <trkpt lat="47.44511" lon="6.04792">
        <ele>293.376</ele>
      </trkpt>
      <trkpt lat="47.44646" lon="6.04552">
        <ele>298.263</ele>
      </trkpt>
      <trkpt lat="47.44703" lon="6.04456">
        <ele>300.176</ele>
      </trkpt>
      <trkpt lat="47.44817" lon="6.04266">
        <ele>306.164</ele>
      </trkpt>
      <trkpt lat="47.44901" lon="6.04126">
        <ele>308</ele>
      </trkpt>
      <trkpt lat="47.44902" lon="6.04125">
        <ele>308</ele>
      </trkpt>
      <trkpt lat="47.4496" lon="6.04032">
        <ele>312.351</ele>
      </trkpt>
      <trkpt lat="47.44995" lon="6.03976">
        <ele>316.034</ele>
      </trkpt>
      <trkpt lat="47.45028" lon="6.03888">
        <ele>321.046</ele>
      </trkpt>
      <trkpt lat="47.45061" lon="6.0377">
        <ele>322.546</ele>
      </trkpt>
      <trkpt lat="47.45092" lon="6.03658">
        <ele>316.906</ele>
      </trkpt>
      <trkpt lat="47.45067" lon="6.03536">
        <ele>315.319</ele>
      </trkpt>
      <trkpt lat="47.45077" lon="6.03328">
        <ele>309.616</ele>
      </trkpt>
      <trkpt lat="47.45038" lon="6.03117">
        <ele>304</ele>
      </trkpt>
      <trkpt lat="47.45006" lon="6.03014">
        <ele>307.05</ele>
      </trkpt>
      <trkpt lat="47.44968" lon="6.02901">
        <ele>315.464</ele>
      </trkpt>
      <trkpt lat="47.44967" lon="6.02898">
        <ele>315.638</ele>
      </trkpt>
      <trkpt lat="47.4488" lon="6.02819">
        <ele>321.347</ele>
      </trkpt>
      <trkpt lat="47.44748" lon="6.02653">
        <ele>317.451</ele>
      </trkpt>
      <trkpt lat="47.44667" lon="6.02577">
        <ele>313.748</ele>
      </trkpt>
      <trkpt lat="47.44473" lon="6.02388">
        <ele>304.016</ele>
      </trkpt>
      <trkpt lat="47.44442" lon="6.02334">
        <ele>301.922</ele>
      </trkpt>
      <trkpt lat="47.44221" lon="6.02186">
        <ele>297.635</ele>
      </trkpt>
      <trkpt lat="47.44025" lon="6.01938">
        <ele>298.944</ele>
      </trkpt>
      <trkpt lat="47.43971" lon="6.01871">
        <ele>297.206</ele>
      </trkpt>
      <trkpt lat="47.43766" lon="6.01554">
        <ele>286.605</ele>
      </trkpt>
      <trkpt lat="47.43632" lon="6.01399">
        <ele>286.365</ele>
      </trkpt>
      <trkpt lat="47.43568" lon="6.01313">
        <ele>287.087</ele>
      </trkpt>
      <trkpt lat="47.43413" lon="6.01107">
        <ele>282.008</ele>
      </trkpt>
      <trkpt lat="47.43358" lon="6.01008">
        <ele>281.418</ele>
      </trkpt>
      <trkpt lat="47.43347" lon="6.00989">
        <ele>280.919</ele>
      </trkpt>
      <trkpt lat="47.4326" lon="6.00607">
        <ele>276.527</ele>
      </trkpt>
      <trkpt lat="47.43185" lon="6.00377">
        <ele>274.425</ele>
      </trkpt>
      <trkpt lat="47.43146" lon="6.00224">
        <ele>271.966</ele>
      </trkpt>
      <trkpt lat="47.43094" lon="5.99982">
        <ele>267.732</ele>
      </trkpt>
      <trkpt lat="47.43073" lon="5.99886">
        <ele>266.581</ele>
      </trkpt>
      <trkpt lat="47.43027" lon="5.99812">
        <ele>265</ele>
      </trkpt>
      <trkpt lat="47.42996" lon="5.99784">
        <ele>265</ele>
      </trkpt>
      <trkpt lat="47.42922" lon="5.9977">
        <ele>265.519</ele>
      </trkpt>
      <trkpt lat="47.42872" lon="5.99793">
        <ele>265.852</ele>
      </trkpt>
      <trkpt lat="47.42812" lon="5.99841">
        <ele>265.677</ele>
      </trkpt>
      <trkpt lat="47.42738" lon="5.99907">
        <ele>265.043</ele>
      </trkpt>
      <trkpt lat="47.42733" lon="5.99913">
        <ele>264.969</ele>
      </trkpt>
      <trkpt lat="47.42503" lon="6.00001">
        <ele>268.006</ele>
      </trkpt>
      <trkpt lat="47.4241" lon="6.00043">
        <ele>264</ele>
      </trkpt>
      <trkpt lat="47.42189" lon="6.00153">
        <ele>268.592</ele>
      </trkpt>
      <trkpt lat="47.42076" lon="6.00148">
        <ele>269.311</ele>
      </trkpt>
      <trkpt lat="47.42003" lon="6.00129">
        <ele>263.952</ele>
      </trkpt>
      <trkpt lat="47.4199" lon="6.00115">
        <ele>264.335</ele>
      </trkpt>
      <trkpt lat="47.41961" lon="5.99963">
        <ele>269.322</ele>
      </trkpt>
      <trkpt lat="47.42003" lon="5.99914">
        <ele>271.519</ele>
      </trkpt>
      <trkpt lat="47.42026" lon="5.99852">
        <ele>273.479</ele>
      </trkpt>
      <trkpt lat="47.42108" lon="5.99775">
        <ele>279.495</ele>
      </trkpt>
      <trkpt lat="47.4216" lon="5.99696">
        <ele>286.493</ele>
      </trkpt>
      <trkpt lat="47.42203" lon="5.99592">
        <ele>287.369</ele>
      </trkpt>
      <trkpt lat="47.4225" lon="5.99486">
        <ele>292.497</ele>
      </trkpt>
      <trkpt lat="47.42304" lon="5.99397">
        <ele>297.53</ele>
      </trkpt>
      <trkpt lat="47.42336" lon="5.99346">
        <ele>299.608</ele>
      </trkpt>
      <trkpt lat="47.42332" lon="5.993">
        <ele>302.451</ele>
      </trkpt>
      <trkpt lat="47.42319" lon="5.99278">
        <ele>303.994</ele>
      </trkpt>
      <trkpt lat="47.42276" lon="5.99232">
        <ele>306.157</ele>
      </trkpt>
      <trkpt lat="47.4218" lon="5.99209">
        <ele>311.297</ele>
      </trkpt>
      <trkpt lat="47.42044" lon="5.99147">
        <ele>317.017</ele>
      </trkpt>
      <trkpt lat="47.42021" lon="5.99133">
        <ele>317.831</ele>
      </trkpt>
      <trkpt lat="47.41966" lon="5.99036">
        <ele>317.234</ele>
      </trkpt>
      <trkpt lat="47.41963" lon="5.99032">
        <ele>317.221</ele>
      </trkpt>
      <trkpt lat="47.4193" lon="5.98766">
        <ele>327.382</ele>
      </trkpt>
      <trkpt lat="47.41952" lon="5.98724">
        <ele>330.271</ele>
      </trkpt>
      <trkpt lat="47.41986" lon="5.98676">
        <ele>333.083</ele>
      </trkpt>
      <trkpt lat="47.42003" lon="5.9864">
        <ele>336.501</ele>
      </trkpt>
      <trkpt lat="47.42015" lon="5.9859">
        <ele>340.736</ele>
      </trkpt>
      <trkpt lat="47.42015" lon="5.98464">
        <ele>347</ele>
      </trkpt>
      <trkpt lat="47.42036" lon="5.98341">
        <ele>347.282</ele>
      </trkpt>
      <trkpt lat="47.42041" lon="5.98198">
        <ele>346.601</ele>
      </trkpt>
      <trkpt lat="47.42041" lon="5.98055">
        <ele>344.994</ele>
      </trkpt>
      <trkpt lat="47.42039" lon="5.97802">
        <ele>330.809</ele>
      </trkpt>
      <trkpt lat="47.42043" lon="5.97741">
        <ele>327.852</ele>
      </trkpt>
      <trkpt lat="47.41993" lon="5.97638">
        <ele>327.515</ele>
      </trkpt>
      <trkpt lat="47.41993" lon="5.97637">
        <ele>327.5</ele>
      </trkpt>
      <trkpt lat="47.41769" lon="5.97351">
        <ele>322.596</ele>
      </trkpt>
      <trkpt lat="47.41708" lon="5.97279">
        <ele>328.487</ele>
      </trkpt>
      <trkpt lat="47.41557" lon="5.97181">
        <ele>324.02</ele>
      </trkpt>
      <trkpt lat="47.41527" lon="5.97165">
        <ele>325.383</ele>
      </trkpt>
      <trkpt lat="47.41509" lon="5.97204">
        <ele>322.796</ele>
      </trkpt>
      <trkpt lat="47.41439" lon="5.97261">
        <ele>319.589</ele>
      </trkpt>
      <trkpt lat="47.4136" lon="5.97315">
        <ele>315.62</ele>
      </trkpt>
      <trkpt lat="47.41282" lon="5.97426">
        <ele>311.713</ele>
      </trkpt>
      <trkpt lat="47.41203" lon="5.97496">
        <ele>306.737</ele>
      </trkpt>
      <trkpt lat="47.41139" lon="5.97642">
        <ele>307.982</ele>
      </trkpt>
      <trkpt lat="47.41124" lon="5.97691">
        <ele>306.719</ele>
      </trkpt>
      <trkpt lat="47.40949" lon="5.9777">
        <ele>298.28</ele>
      </trkpt>
      <trkpt lat="47.40941" lon="5.97824">
        <ele>299.484</ele>
      </trkpt>
      <trkpt lat="47.40827" lon="5.97865">
        <ele>306.321</ele>
      </trkpt>
      <trkpt lat="47.40751" lon="5.97888">
        <ele>310.778</ele>
      </trkpt>
      <trkpt lat="47.40685" lon="5.97885">
        <ele>313.813</ele>
      </trkpt>
      <trkpt lat="47.40606" lon="5.97877">
        <ele>317.606</ele>
      </trkpt>
      <trkpt lat="47.40435" lon="5.9785">
        <ele>323.083</ele>
      </trkpt>
      <trkpt lat="47.40348" lon="5.97833">
        <ele>322.841</ele>
      </trkpt>
      <trkpt lat="47.40226" lon="5.97759">
        <ele>323.63</ele>
      </trkpt>
      <trkpt lat="47.40009" lon="5.97618">
        <ele>325.067</ele>
      </trkpt>
      <trkpt lat="47.39892" lon="5.97563">
        <ele>327.115</ele>
      </trkpt>
      <trkpt lat="47.39815" lon="5.97546">
        <ele>327.53</ele>
      </trkpt>
      <trkpt lat="47.39742" lon="5.97584">
        <ele>328.988</ele>
      </trkpt>
      <trkpt lat="47.39652" lon="5.97632">
        <ele>326.244</ele>
      </trkpt>
      <trkpt lat="47.39571" lon="5.97677">
        <ele>322.27</ele>
      </trkpt>
      <trkpt lat="47.39461" lon="5.97797">
        <ele>318.342</ele>
      </trkpt>
      <trkpt lat="47.394" lon="5.97887">
        <ele>316.266</ele>
      </trkpt>
      <trkpt lat="47.39349" lon="5.97964">
        <ele>309.689</ele>
      </trkpt>
      <trkpt lat="47.39288" lon="5.97992">
        <ele>307.58</ele>
      </trkpt>
      <trkpt lat="47.39191" lon="5.98008">
        <ele>306.289</ele>
      </trkpt>
      <trkpt lat="47.39138" lon="5.98004">
        <ele>303.813</ele>
      </trkpt>
      <trkpt lat="47.39097" lon="5.97992">
        <ele>302.481</ele>
      </trkpt>
      <trkpt lat="47.39027" lon="5.97972">
        <ele>298.937</ele>
      </trkpt>
      <trkpt lat="47.38945" lon="5.9795">
        <ele>294.026</ele>
      </trkpt>
      <trkpt lat="47.38849" lon="5.97904">
        <ele>288.099</ele>
      </trkpt>
      <trkpt lat="47.38769" lon="5.97855">
        <ele>282.524</ele>
      </trkpt>
      <trkpt lat="47.38673" lon="5.97794">
        <ele>275.47</ele>
      </trkpt>
      <trkpt lat="47.38626" lon="5.97795">
        <ele>272.37</ele>
      </trkpt>
      <trkpt lat="47.38542" lon="5.97819">
        <ele>268.246</ele>
      </trkpt>
      <trkpt lat="47.38443" lon="5.97866">
        <ele>261.844</ele>
      </trkpt>
      <trkpt lat="47.38443" lon="5.97867">
        <ele>261.803</ele>
      </trkpt>
      <trkpt lat="47.38387" lon="5.97905">
        <ele>256.801</ele>
      </trkpt>
      <trkpt lat="47.38339" lon="5.97959">
        <ele>254.841</ele>
      </trkpt>
      <trkpt lat="47.38321" lon="5.98036">
        <ele>256.052</ele>
      </trkpt>
      <trkpt lat="47.38305" lon="5.9806">
        <ele>256.271</ele>
      </trkpt>
      <trkpt lat="47.38251" lon="5.98035">
        <ele>250.592</ele>
      </trkpt>
      <trkpt lat="47.38209" lon="5.9802">
        <ele>248.23</ele>
      </trkpt>
      <trkpt lat="47.38185" lon="5.97866">
        <ele>246.306</ele>
      </trkpt>
      <trkpt lat="47.3819" lon="5.97815">
        <ele>247.439</ele>
      </trkpt>
      <trkpt lat="47.38027" lon="5.97522">
        <ele>253.209</ele>
      </trkpt>
      <trkpt lat="47.38006" lon="5.97489">
        <ele>253.601</ele>
      </trkpt>
      <trkpt lat="47.37749" lon="5.97265">
        <ele>250.95</ele>
      </trkpt>
      <trkpt lat="47.37646" lon="5.97149">
        <ele>242.847</ele>
      </trkpt>
      <trkpt lat="47.37645" lon="5.97148">
        <ele>242.75</ele>
      </trkpt>
      <trkpt lat="47.37541" lon="5.96921">
        <ele>246.306</ele>
      </trkpt>
      <trkpt lat="47.37472" lon="5.96683">
        <ele>251.412</ele>
      </trkpt>
      <trkpt lat="47.37421" lon="5.96541">
        <ele>256.246</ele>
      </trkpt>
      <trkpt lat="47.37235" lon="5.9643">
        <ele>247.884</ele>
      </trkpt>
      <trkpt lat="47.37187" lon="5.9655">
        <ele>249.239</ele>
      </trkpt>
      <trkpt lat="47.37143" lon="5.9666">
        <ele>246.296</ele>
      </trkpt>
      <trkpt lat="47.37042" lon="5.97013">
        <ele>239.947</ele>
      </trkpt>
      <trkpt lat="47.36951" lon="5.97351">
        <ele>244</ele>
      </trkpt>
      <trkpt lat="47.3692" lon="5.9744">
        <ele>243.178</ele>
      </trkpt>
      <trkpt lat="47.36875" lon="5.97398">
        <ele>242.838</ele>
      </trkpt>
      <trkpt lat="47.36658" lon="5.97323">
        <ele>237.494</ele>
      </trkpt>
      <trkpt lat="47.36623" lon="5.974">
        <ele>232.427</ele>
      </trkpt>
      <trkpt lat="47.36349" lon="5.97297">
        <ele>224.167</ele>
      </trkpt>
      <trkpt lat="47.36238" lon="5.97219">
        <ele>223.102</ele>
      </trkpt>
      <trkpt lat="47.361" lon="5.97102">
        <ele>222.199</ele>
      </trkpt>
      <trkpt lat="47.3606" lon="5.97064">
        <ele>222</ele>
      </trkpt>
      <trkpt lat="47.35989" lon="5.9703">
        <ele>220.535</ele>
      </trkpt>
      <trkpt lat="47.35951" lon="5.97071">
        <ele>220.431</ele>
      </trkpt>
      <trkpt lat="47.3594" lon="5.97089">
        <ele>221.812</ele>
      </trkpt>
      <trkpt lat="47.35854" lon="5.97034">
        <ele>222.473</ele>
      </trkpt>
      <trkpt lat="47.35775" lon="5.96983">
        <ele>222.217</ele>
      </trkpt>
      <trkpt lat="47.35716" lon="5.96945">
        <ele>220.272</ele>
      </trkpt>
      <trkpt lat="47.35684" lon="5.96916">
        <ele>219.976</ele>
      </trkpt>
      <trkpt lat="47.35626" lon="5.96822">
        <ele>219</ele>
      </trkpt>
      <trkpt lat="47.35387" lon="5.9664">
        <ele>219.875</ele>
      </trkpt>
      <trkpt lat="47.35247" lon="5.96493">
        <ele>222.469</ele>
      </trkpt>
      <trkpt lat="47.35195" lon="5.96433">
        <ele>226.378</ele>
      </trkpt>
      <trkpt lat="47.35166" lon="5.96384">
        <ele>228.037</ele>
      </trkpt>
      <trkpt lat="47.35054" lon="5.96191">
        <ele>228.042</ele>
      </trkpt>
      <trkpt lat="47.34981" lon="5.96095">
        <ele>229.87</ele>
      </trkpt>
      <trkpt lat="47.34915" lon="5.9612">
        <ele>229.269</ele>
      </trkpt>
      <trkpt lat="47.34854" lon="5.96113">
        <ele>226.37</ele>
      </trkpt>
      <trkpt lat="47.34771" lon="5.96051">
        <ele>222.55</ele>
      </trkpt>
      <trkpt lat="47.34656" lon="5.95794">
        <ele>223.958</ele>
      </trkpt>
      <trkpt lat="47.34677" lon="5.95633">
        <ele>221.23</ele>
      </trkpt>
      <trkpt lat="47.3467" lon="5.95395">
        <ele>226.973</ele>
      </trkpt>
      <trkpt lat="47.34752" lon="5.95172">
        <ele>231</ele>
      </trkpt>
      <trkpt lat="47.34889" lon="5.94848">
        <ele>232</ele>
      </trkpt>
      <trkpt lat="47.3506" lon="5.94633">
        <ele>224.853</ele>
      </trkpt>
      <trkpt lat="47.35151" lon="5.94471">
        <ele>228.476</ele>
      </trkpt>
      <trkpt lat="47.3516" lon="5.94451">
        <ele>229.553</ele>
      </trkpt>
      <trkpt lat="47.35096" lon="5.94129">
        <ele>218.63</ele>
      </trkpt>
      <trkpt lat="47.35005" lon="5.9406">
        <ele>215.456</ele>
      </trkpt>
      <trkpt lat="47.35112" lon="5.94008">
        <ele>218.74</ele>
      </trkpt>
      <trkpt lat="47.35194" lon="5.93873">
        <ele>230.561</ele>
      </trkpt>
      <trkpt lat="47.35258" lon="5.93792">
        <ele>233.499</ele>
      </trkpt>
      <trkpt lat="47.35291" lon="5.9362">
        <ele>232.803</ele>
      </trkpt>
      <trkpt lat="47.35328" lon="5.93502">
        <ele>224.273</ele>
      </trkpt>
      <trkpt lat="47.35395" lon="5.93423">
        <ele>216.962</ele>
      </trkpt>
      <trkpt lat="47.3541" lon="5.9336">
        <ele>215.771</ele>
      </trkpt>
      <trkpt lat="47.35425" lon="5.93235">
        <ele>216</ele>
      </trkpt>
      <trkpt lat="47.3544" lon="5.9311">
        <ele>220.94</ele>
      </trkpt>
      <trkpt lat="47.35448" lon="5.93045">
        <ele>227.155</ele>
      </trkpt>
      <trkpt lat="47.35447" lon="5.92974">
        <ele>232.938</ele>
      </trkpt>
      <trkpt lat="47.35476" lon="5.92855">
        <ele>237</ele>
      </trkpt>
      <trkpt lat="47.35505" lon="5.92735">
        <ele>240.713</ele>
      </trkpt>
      <trkpt lat="47.35534" lon="5.92616">
        <ele>245.22</ele>
      </trkpt>
      <trkpt lat="47.35563" lon="5.92496">
        <ele>250.148</ele>
      </trkpt>
      <trkpt lat="47.35592" lon="5.92376">
        <ele>254.283</ele>
      </trkpt>
      <trkpt lat="47.35621" lon="5.92257">
        <ele>258</ele>
      </trkpt>
      <trkpt lat="47.3565" lon="5.92137">
        <ele>257.909</ele>
      </trkpt>
      <trkpt lat="47.35682" lon="5.9202">
        <ele>254</ele>
      </trkpt>
      <trkpt lat="47.35723" lon="5.91871">
        <ele>250.346</ele>
      </trkpt>
      <trkpt lat="47.35742" lon="5.91748">
        <ele>253.283</ele>
      </trkpt>
      <trkpt lat="47.35751" lon="5.91695">
        <ele>255.987</ele>
      </trkpt>
      <trkpt lat="47.35675" lon="5.91648">
        <ele>254.965</ele>
      </trkpt>
      <trkpt lat="47.35492" lon="5.9147">
        <ele>254.837</ele>
      </trkpt>
      <trkpt lat="47.35275" lon="5.91243">
        <ele>253.144</ele>
      </trkpt>
      <trkpt lat="47.35208" lon="5.91164">
        <ele>251.58</ele>
      </trkpt>
      <trkpt lat="47.35121" lon="5.90877">
        <ele>250.519</ele>
      </trkpt>
      <trkpt lat="47.3518" lon="5.90508">
        <ele>249.362</ele>
      </trkpt>
      <trkpt lat="47.35355" lon="5.90228">
        <ele>243.174</ele>
      </trkpt>
      <trkpt lat="47.35456" lon="5.90068">
        <ele>241.42</ele>
      </trkpt>
      <trkpt lat="47.3555" lon="5.89833">
        <ele>249.568</ele>
      </trkpt>
      <trkpt lat="47.35427" lon="5.89588">
        <ele>251.686</ele>
      </trkpt>
      <trkpt lat="47.35384" lon="5.89531">
        <ele>255.401</ele>
      </trkpt>
      <trkpt lat="47.35341" lon="5.8945">
        <ele>264.561</ele>
      </trkpt>
      <trkpt lat="47.35289" lon="5.89471">
        <ele>269.873</ele>
      </trkpt>
      <trkpt lat="47.35225" lon="5.89284">
        <ele>282.853</ele>
      </trkpt>
      <trkpt lat="47.35206" lon="5.8916">
        <ele>287.105</ele>
      </trkpt>
      <trkpt lat="47.35206" lon="5.89158">
        <ele>287.155</ele>
      </trkpt>
      <trkpt lat="47.35195" lon="5.89079">
        <ele>289.201</ele>
      </trkpt>
      <trkpt lat="47.35099" lon="5.88913">
        <ele>294.667</ele>
      </trkpt>
      <trkpt lat="47.35013" lon="5.88632">
        <ele>293.479</ele>
      </trkpt>
      <trkpt lat="47.34995" lon="5.88553">
        <ele>289.703</ele>
      </trkpt>
      <trkpt lat="47.3496" lon="5.88418">
        <ele>282.536</ele>
      </trkpt>
      <trkpt lat="47.34849" lon="5.88309">
        <ele>280.698</ele>
      </trkpt>
      <trkpt lat="47.34774" lon="5.88247">
        <ele>275.655</ele>
      </trkpt>
      <trkpt lat="47.34695" lon="5.88163">
        <ele>266.582</ele>
      </trkpt>
      <trkpt lat="47.34625" lon="5.88124">
        <ele>262.906</ele>
      </trkpt>
      <trkpt lat="47.34544" lon="5.88067">
        <ele>257.81</ele>
      </trkpt>
      <trkpt lat="47.34496" lon="5.88009">
        <ele>251.449</ele>
      </trkpt>
      <trkpt lat="47.34262" lon="5.87968">
        <ele>253.66</ele>
      </trkpt>
      <trkpt lat="47.34147" lon="5.881">
        <ele>260.501</ele>
      </trkpt>
      <trkpt lat="47.34134" lon="5.88143">
        <ele>261.584</ele>
      </trkpt>
      <trkpt lat="47.34086" lon="5.88206">
        <ele>258.604</ele>
      </trkpt>
      <trkpt lat="47.34019" lon="5.88331">
        <ele>254.041</ele>
      </trkpt>
      <trkpt lat="47.33995" lon="5.88394">
        <ele>252.643</ele>
      </trkpt>
      <trkpt lat="47.33828" lon="5.88637">
        <ele>252.857</ele>
      </trkpt>
      <trkpt lat="47.33724" lon="5.88698">
        <ele>248.135</ele>
      </trkpt>
      <trkpt lat="47.33631" lon="5.8875">
        <ele>239.92</ele>
      </trkpt>
      <trkpt lat="47.33601" lon="5.88789">
        <ele>236.331</ele>
      </trkpt>
      <trkpt lat="47.33573" lon="5.88946">
        <ele>233.279</ele>
      </trkpt>
      <trkpt lat="47.33465" lon="5.8907">
        <ele>227.617</ele>
      </trkpt>
      <trkpt lat="47.3339" lon="5.89164">
        <ele>224.898</ele>
      </trkpt>
      <trkpt lat="47.33312" lon="5.89255">
        <ele>224.427</ele>
      </trkpt>
      <trkpt lat="47.33235" lon="5.89372">
        <ele>226.053</ele>
      </trkpt>
      <trkpt lat="47.33174" lon="5.89409">
        <ele>222.555</ele>
      </trkpt>
      <trkpt lat="47.33083" lon="5.89439">
        <ele>220.794</ele>
      </trkpt>
      <trkpt lat="47.33021" lon="5.89449">
        <ele>220.157</ele>
      </trkpt>
      <trkpt lat="47.32991" lon="5.89444">
        <ele>220.315</ele>
      </trkpt>
      <trkpt lat="47.32975" lon="5.89444">
        <ele>220.897</ele>
      </trkpt>
      <trkpt lat="47.32946" lon="5.89458">
        <ele>222.441</ele>
      </trkpt>
      <trkpt lat="47.32865" lon="5.8934">
        <ele>222.747</ele>
      </trkpt>
      <trkpt lat="47.32763" lon="5.89197">
        <ele>221.077</ele>
      </trkpt>
      <trkpt lat="47.32629" lon="5.88996">
        <ele>218.656</ele>
      </trkpt>
      <trkpt lat="47.32583" lon="5.88921">
        <ele>218.999</ele>
      </trkpt>
      <trkpt lat="47.32565" lon="5.88871">
        <ele>219.213</ele>
      </trkpt>
      <trkpt lat="47.32408" lon="5.88591">
        <ele>215.586</ele>
      </trkpt>
      <trkpt lat="47.32278" lon="5.88305">
        <ele>207.999</ele>
      </trkpt>
      <trkpt lat="47.32205" lon="5.8816">
        <ele>210.244</ele>
      </trkpt>
      <trkpt lat="47.32072" lon="5.87888">
        <ele>216.217</ele>
      </trkpt>
      <trkpt lat="47.32041" lon="5.87786">
        <ele>216.528</ele>
      </trkpt>
      <trkpt lat="47.31865" lon="5.87189">
        <ele>210.402</ele>
      </trkpt>
      <trkpt lat="47.31822" lon="5.87026">
        <ele>208.578</ele>
      </trkpt>
      <trkpt lat="47.3177" lon="5.86689">
        <ele>207</ele>
      </trkpt>
      <trkpt lat="47.3163" lon="5.86654">
        <ele>204.993</ele>
      </trkpt>
      <trkpt lat="47.31494" lon="5.8669">
        <ele>207.961</ele>
      </trkpt>
      <trkpt lat="47.31449" lon="5.86835">
        <ele>206.665</ele>
      </trkpt>
      <trkpt lat="47.31401" lon="5.87083">
        <ele>208.817</ele>
      </trkpt>
      <trkpt lat="47.31359" lon="5.87442">
        <ele>211.096</ele>
      </trkpt>
      <trkpt lat="47.31521" lon="5.88049">
        <ele>215.251</ele>
      </trkpt>
      <trkpt lat="47.31528" lon="5.88068">
        <ele>215.006</ele>
      </trkpt>
      <trkpt lat="47.31591" lon="5.88398">
        <ele>210.523</ele>
      </trkpt>
      <trkpt lat="47.31506" lon="5.88705">
        <ele>209.92</ele>
      </trkpt>
      <trkpt lat="47.31446" lon="5.88746">
        <ele>209.638</ele>
      </trkpt>
      <trkpt lat="47.31248" lon="5.88963">
        <ele>211.935</ele>
      </trkpt>
      <trkpt lat="47.31227" lon="5.88995">
        <ele>209.842</ele>
      </trkpt>
      <trkpt lat="47.31139" lon="5.89096">
        <ele>209.442</ele>
      </trkpt>
      <trkpt lat="47.31072" lon="5.89126">
        <ele>210.422</ele>
      </trkpt>
      <trkpt lat="47.31037" lon="5.89209">
        <ele>213.132</ele>
      </trkpt>
      <trkpt lat="47.31014" lon="5.89263">
        <ele>216.34</ele>
      </trkpt>
      <trkpt lat="47.30998" lon="5.8929">
        <ele>220.898</ele>
      </trkpt>
      <trkpt lat="47.30972" lon="5.89325">
        <ele>223.066</ele>
      </trkpt>
      <trkpt lat="47.30896" lon="5.89386">
        <ele>232.743</ele>
      </trkpt>
      <trkpt lat="47.30844" lon="5.89448">
        <ele>230.886</ele>
      </trkpt>
      <trkpt lat="47.30833" lon="5.89621">
        <ele>220</ele>
      </trkpt>
      <trkpt lat="47.30831" lon="5.89632">
        <ele>220</ele>
      </trkpt>
      <trkpt lat="47.3081" lon="5.89791">
        <ele>220.622</ele>
      </trkpt>
      <trkpt lat="47.3074" lon="5.89959">
        <ele>228.013</ele>
      </trkpt>
      <trkpt lat="47.30665" lon="5.90054">
        <ele>219.027</ele>
      </trkpt>
      <trkpt lat="47.30647" lon="5.90336">
        <ele>213.587</ele>
      </trkpt>
      <trkpt lat="47.30647" lon="5.90339">
        <ele>213.482</ele>
      </trkpt>
      <trkpt lat="47.30871" lon="5.90263">
        <ele>209.45</ele>
      </trkpt>
      <trkpt lat="47.30996" lon="5.90607">
        <ele>211.97</ele>
      </trkpt>
      <trkpt lat="47.31172" lon="5.91206">
        <ele>215.574</ele>
      </trkpt>
      <trkpt lat="47.31261" lon="5.91517">
        <ele>214.576</ele>
      </trkpt>
      <trkpt lat="47.31331" lon="5.91716">
        <ele>215.106</ele>
      </trkpt>
      <trkpt lat="47.31427" lon="5.92121">
        <ele>225.114</ele>
      </trkpt>
      <trkpt lat="47.31475" lon="5.92319">
        <ele>228.15</ele>
      </trkpt>
      <trkpt lat="47.31502" lon="5.92424">
        <ele>230.068</ele>
      </trkpt>
      <trkpt lat="47.315" lon="5.92996">
        <ele>220.184</ele>
      </trkpt>
      <trkpt lat="47.31498" lon="5.93106">
        <ele>218.016</ele>
      </trkpt>
      <trkpt lat="47.31493" lon="5.93151">
        <ele>216.471</ele>
      </trkpt>
      <trkpt lat="47.31474" lon="5.93249">
        <ele>215.959</ele>
      </trkpt>
      <trkpt lat="47.31444" lon="5.93316">
        <ele>216.342</ele>
      </trkpt>
      <trkpt lat="47.31368" lon="5.93424">
        <ele>218.512</ele>
      </trkpt>
      <trkpt lat="47.31301" lon="5.93744">
        <ele>221</ele>
      </trkpt>
      <trkpt lat="47.31345" lon="5.93987">
        <ele>226.228</ele>
      </trkpt>
      <trkpt lat="47.31378" lon="5.94108">
        <ele>230.079</ele>
      </trkpt>
      <trkpt lat="47.31299" lon="5.94197">
        <ele>224.852</ele>
      </trkpt>
      <trkpt lat="47.31175" lon="5.94244">
        <ele>229.488</ele>
      </trkpt>
      <trkpt lat="47.31065" lon="5.94302">
        <ele>232.858</ele>
      </trkpt>
      <trkpt lat="47.31022" lon="5.94285">
        <ele>233.443</ele>
      </trkpt>
      <trkpt lat="47.30981" lon="5.94233">
        <ele>233.429</ele>
      </trkpt>
      <trkpt lat="47.30834" lon="5.9408">
        <ele>240.623</ele>
      </trkpt>
      <trkpt lat="47.30786" lon="5.94093">
        <ele>240.452</ele>
      </trkpt>
      <trkpt lat="47.30761" lon="5.94121">
        <ele>239.609</ele>
      </trkpt>
      <trkpt lat="47.30751" lon="5.94211">
        <ele>236.512</ele>
      </trkpt>
      <trkpt lat="47.30735" lon="5.94265">
        <ele>232.822</ele>
      </trkpt>
      <trkpt lat="47.30625" lon="5.94495">
        <ele>222.41</ele>
      </trkpt>
      <trkpt lat="47.30618" lon="5.94505">
        <ele>222.389</ele>
      </trkpt>
      <trkpt lat="47.30409" lon="5.94712">
        <ele>230</ele>
      </trkpt>
      <trkpt lat="47.30297" lon="5.94837">
        <ele>229.806</ele>
      </trkpt>
      <trkpt lat="47.30271" lon="5.94886">
        <ele>229.76</ele>
      </trkpt>
      <trkpt lat="47.30211" lon="5.94918">
        <ele>229.592</ele>
      </trkpt>
      <trkpt lat="47.30125" lon="5.94928">
        <ele>226.515</ele>
      </trkpt>
      <trkpt lat="47.3012" lon="5.94929">
        <ele>226.327</ele>
      </trkpt>
      <trkpt lat="47.29981" lon="5.9492">
        <ele>224.727</ele>
      </trkpt>
      <trkpt lat="47.29964" lon="5.94919">
        <ele>225</ele>
      </trkpt>
      <trkpt lat="47.29909" lon="5.94939">
        <ele>225</ele>
      </trkpt>
      <trkpt lat="47.29868" lon="5.94844">
        <ele>231.896</ele>
      </trkpt>
      <trkpt lat="47.29865" lon="5.94834">
        <ele>232.449</ele>
      </trkpt>
      <trkpt lat="47.29781" lon="5.94748">
        <ele>243.466</ele>
      </trkpt>
      <trkpt lat="47.29702" lon="5.94711">
        <ele>250.38</ele>
      </trkpt>
      <trkpt lat="47.29578" lon="5.94622">
        <ele>248.424</ele>
      </trkpt>
      <trkpt lat="47.29562" lon="5.94602">
        <ele>248.422</ele>
      </trkpt>
      <trkpt lat="47.29534" lon="5.94493">
        <ele>248.978</ele>
      </trkpt>
      <trkpt lat="47.2949" lon="5.94461">
        <ele>250.998</ele>
      </trkpt>
      <trkpt lat="47.2941" lon="5.94524">
        <ele>254.638</ele>
      </trkpt>
      <trkpt lat="47.29367" lon="5.94568">
        <ele>257.977</ele>
      </trkpt>
      <trkpt lat="47.29343" lon="5.94604">
        <ele>260.551</ele>
      </trkpt>
      <trkpt lat="47.29318" lon="5.94652">
        <ele>264.068</ele>
      </trkpt>
      <trkpt lat="47.29314" lon="5.94648">
        <ele>264.623</ele>
      </trkpt>
      <trkpt lat="47.29305" lon="5.9468">
        <ele>265.689</ele>
      </trkpt>
      <trkpt lat="47.29277" lon="5.94752">
        <ele>270.116</ele>
      </trkpt>
      <trkpt lat="47.29261" lon="5.94796">
        <ele>272.581</ele>
      </trkpt>
      <trkpt lat="47.2925" lon="5.94841">
        <ele>274.903</ele>
      </trkpt>
      <trkpt lat="47.29244" lon="5.94925">
        <ele>278.9</ele>
      </trkpt>
      <trkpt lat="47.2924" lon="5.95099">
        <ele>287.461</ele>
      </trkpt>
      <trkpt lat="47.29239" lon="5.95208">
        <ele>291.698</ele>
      </trkpt>
      <trkpt lat="47.29239" lon="5.95285">
        <ele>294</ele>
      </trkpt>
      <trkpt lat="47.29238" lon="5.95334">
        <ele>295.608</ele>
      </trkpt>
      <trkpt lat="47.29224" lon="5.95375">
        <ele>297.178</ele>
      </trkpt>
      <trkpt lat="47.29138" lon="5.95444">
        <ele>294.952</ele>
      </trkpt>
      <trkpt lat="47.29117" lon="5.9545">
        <ele>293.365</ele>
      </trkpt>
      <trkpt lat="47.29031" lon="5.9545">
        <ele>291.834</ele>
      </trkpt>
      <trkpt lat="47.28983" lon="5.95433">
        <ele>294.431</ele>
      </trkpt>
      <trkpt lat="47.28938" lon="5.95415">
        <ele>299.548</ele>
      </trkpt>
      <trkpt lat="47.28918" lon="5.95408">
        <ele>301.007</ele>
      </trkpt>
      <trkpt lat="47.28862" lon="5.954">
        <ele>303.387</ele>
      </trkpt>
      <trkpt lat="47.28825" lon="5.95398">
        <ele>303.028</ele>
      </trkpt>
      <trkpt lat="47.28783" lon="5.95428">
        <ele>301.354</ele>
      </trkpt>
      <trkpt lat="47.28752" lon="5.95509">
        <ele>296.305</ele>
      </trkpt>
      <trkpt lat="47.28745" lon="5.95554">
        <ele>293.525</ele>
      </trkpt>
      <trkpt lat="47.28749" lon="5.95647">
        <ele>289.539</ele>
      </trkpt>
      <trkpt lat="47.28751" lon="5.95706">
        <ele>287.673</ele>
      </trkpt>
      <trkpt lat="47.28743" lon="5.95746">
        <ele>285.086</ele>
      </trkpt>
      <trkpt lat="47.28702" lon="5.95842">
        <ele>279.451</ele>
      </trkpt>
      <trkpt lat="47.28597" lon="5.96043">
        <ele>274.448</ele>
      </trkpt>
      <trkpt lat="47.28485" lon="5.95879">
        <ele>273.344</ele>
      </trkpt>
      <trkpt lat="47.2848" lon="5.9551">
        <ele>273.266</ele>
      </trkpt>
      <trkpt lat="47.28468" lon="5.9541">
        <ele>273.859</ele>
      </trkpt>
      <trkpt lat="47.28389" lon="5.95124">
        <ele>280</ele>
      </trkpt>
      <trkpt lat="47.28314" lon="5.94849">
        <ele>284.547</ele>
      </trkpt>
      <trkpt lat="47.2817" lon="5.94324">
        <ele>284.086</ele>
      </trkpt>
      <trkpt lat="47.28138" lon="5.94132">
        <ele>280.866</ele>
      </trkpt>
      <trkpt lat="47.28073" lon="5.93679">
        <ele>279.205</ele>
      </trkpt>
      <trkpt lat="47.28035" lon="5.9348">
        <ele>273.489</ele>
      </trkpt>
      <trkpt lat="47.28012" lon="5.93334">
        <ele>265.027</ele>
      </trkpt>
      <trkpt lat="47.28004" lon="5.93271">
        <ele>264.506</ele>
      </trkpt>
      <trkpt lat="47.2799" lon="5.93242">
        <ele>263.111</ele>
      </trkpt>
      <trkpt lat="47.28013" lon="5.93119">
        <ele>264.907</ele>
      </trkpt>
      <trkpt lat="47.28043" lon="5.92979">
        <ele>270.985</ele>
      </trkpt>
      <trkpt lat="47.28064" lon="5.92896">
        <ele>271.493</ele>
      </trkpt>
      <trkpt lat="47.28067" lon="5.92887">
        <ele>271.365</ele>
      </trkpt>
      <trkpt lat="47.28191" lon="5.92407">
        <ele>286.683</ele>
      </trkpt>
      <trkpt lat="47.28224" lon="5.9229">
        <ele>277.659</ele>
      </trkpt>
      <trkpt lat="47.28234" lon="5.92256">
        <ele>276.976</ele>
      </trkpt>
      <trkpt lat="47.28291" lon="5.92159">
        <ele>269.244</ele>
      </trkpt>
      <trkpt lat="47.28384" lon="5.91993">
        <ele>271.515</ele>
      </trkpt>
      <trkpt lat="47.28484" lon="5.918">
        <ele>267.367</ele>
      </trkpt>
      <trkpt lat="47.28561" lon="5.91653">
        <ele>260.518</ele>
      </trkpt>
      <trkpt lat="47.28636" lon="5.91444">
        <ele>247.095</ele>
      </trkpt>
      <trkpt lat="47.28708" lon="5.91229">
        <ele>240.388</ele>
      </trkpt>
      <trkpt lat="47.2871" lon="5.91224">
        <ele>240.41</ele>
      </trkpt>
      <trkpt lat="47.28645" lon="5.91019">
        <ele>235.823</ele>
      </trkpt>
      <trkpt lat="47.28629" lon="5.90929">
        <ele>232.754</ele>
      </trkpt>
      <trkpt lat="47.28625" lon="5.90804">
        <ele>230.419</ele>
      </trkpt>
      <trkpt lat="47.28653" lon="5.90591">
        <ele>225.146</ele>
      </trkpt>
      <trkpt lat="47.28664" lon="5.90396">
        <ele>220.355</ele>
      </trkpt>
      <trkpt lat="47.28672" lon="5.9015">
        <ele>215.179</ele>
      </trkpt>
      <trkpt lat="47.28676" lon="5.90127">
        <ele>214.675</ele>
      </trkpt>
      <trkpt lat="47.28617" lon="5.899">
        <ele>214.495</ele>
      </trkpt>
      <trkpt lat="47.28582" lon="5.89794">
        <ele>217.495</ele>
      </trkpt>
      <trkpt lat="47.28595" lon="5.89699">
        <ele>219.832</ele>
      </trkpt>
      <trkpt lat="47.28596" lon="5.89688">
        <ele>220.121</ele>
      </trkpt>
      <trkpt lat="47.28589" lon="5.89468">
        <ele>221.792</ele>
      </trkpt>
      <trkpt lat="47.28597" lon="5.89457">
        <ele>221.522</ele>
      </trkpt>
      <trkpt lat="47.28527" lon="5.89367">
        <ele>227.82</ele>
      </trkpt>
      <trkpt lat="47.28498" lon="5.89332">
        <ele>230.12</ele>
      </trkpt>
      <trkpt lat="47.28371" lon="5.89204">
        <ele>233.416</ele>
      </trkpt>
      <trkpt lat="47.28236" lon="5.89056">
        <ele>240</ele>
      </trkpt>
      <trkpt lat="47.28195" lon="5.88975">
        <ele>240.073</ele>
      </trkpt>
      <trkpt lat="47.2818" lon="5.88915">
        <ele>240.531</ele>
      </trkpt>
      <trkpt lat="47.28163" lon="5.88769">
        <ele>243.444</ele>
      </trkpt>
      <trkpt lat="47.28079" lon="5.88545">
        <ele>247.772</ele>
      </trkpt>
      <trkpt lat="47.28024" lon="5.88499">
        <ele>244.721</ele>
      </trkpt>
      <trkpt lat="47.27981" lon="5.88472">
        <ele>241.618</ele>
      </trkpt>
      <trkpt lat="47.27954" lon="5.88456">
        <ele>240.341</ele>
      </trkpt>
      <trkpt lat="47.27896" lon="5.88417">
        <ele>238.263</ele>
      </trkpt>
      <trkpt lat="47.27792" lon="5.88304">
        <ele>233.881</ele>
      </trkpt>
      <trkpt lat="47.27707" lon="5.88208">
        <ele>227.705</ele>
      </trkpt>
      <trkpt lat="47.27693" lon="5.88189">
        <ele>226.804</ele>
      </trkpt>
      <trkpt lat="47.27523" lon="5.87882">
        <ele>228.803</ele>
      </trkpt>
      <trkpt lat="47.27446" lon="5.87816">
        <ele>227.358</ele>
      </trkpt>
      <trkpt lat="47.27335" lon="5.87735">
        <ele>221.56</ele>
      </trkpt>
      <trkpt lat="47.2731" lon="5.87688">
        <ele>218.23</ele>
      </trkpt>
      <trkpt lat="47.273" lon="5.87676">
        <ele>217.343</ele>
      </trkpt>
      <trkpt lat="47.2723" lon="5.87634">
        <ele>218</ele>
      </trkpt>
      <trkpt lat="47.27182" lon="5.87505">
        <ele>219.359</ele>
      </trkpt>
      <trkpt lat="47.27143" lon="5.87449">
        <ele>220.974</ele>
      </trkpt>
      <trkpt lat="47.27046" lon="5.87427">
        <ele>224.471</ele>
      </trkpt>
      <trkpt lat="47.27007" lon="5.87421">
        <ele>226.645</ele>
      </trkpt>
      <trkpt lat="47.26945" lon="5.8744">
        <ele>230.824</ele>
      </trkpt>
      <trkpt lat="47.26878" lon="5.87481">
        <ele>235.661</ele>
      </trkpt>
      <trkpt lat="47.26808" lon="5.87465">
        <ele>240.786</ele>
      </trkpt>
      <trkpt lat="47.26808" lon="5.87465">
        <ele>240.786</ele>
      </trkpt>
      <trkpt lat="47.26758" lon="5.87445">
        <ele>246.492</ele>
      </trkpt>
      <trkpt lat="47.2668" lon="5.87379">
        <ele>253.422</ele>
      </trkpt>
      <trkpt lat="47.26594" lon="5.87332">
        <ele>259.232</ele>
      </trkpt>
      <trkpt lat="47.26469" lon="5.87386">
        <ele>258.792</ele>
      </trkpt>
      <trkpt lat="47.26364" lon="5.87355">
        <ele>259.091</ele>
      </trkpt>
      <trkpt lat="47.26319" lon="5.87306">
        <ele>255.404</ele>
      </trkpt>
      <trkpt lat="47.26214" lon="5.87193">
        <ele>252.571</ele>
      </trkpt>
      <trkpt lat="47.26192" lon="5.87144">
        <ele>255.61</ele>
      </trkpt>
      <trkpt lat="47.26173" lon="5.87094">
        <ele>257.264</ele>
      </trkpt>
      <trkpt lat="47.26164" lon="5.87006">
        <ele>258.666</ele>
      </trkpt>
      <trkpt lat="47.26117" lon="5.86986">
        <ele>258.406</ele>
      </trkpt>
      <trkpt lat="47.26103" lon="5.86951">
        <ele>258.077</ele>
      </trkpt>
      <trkpt lat="47.26028" lon="5.86844">
        <ele>256.371</ele>
      </trkpt>
      <trkpt lat="47.26025" lon="5.86839">
        <ele>256.088</ele>
      </trkpt>
      <trkpt lat="47.25937" lon="5.86709">
        <ele>254.226</ele>
      </trkpt>
      <trkpt lat="47.25931" lon="5.86705">
        <ele>254.588</ele>
      </trkpt>
      <trkpt lat="47.25876" lon="5.8668">
        <ele>256.977</ele>
      </trkpt>
      <trkpt lat="47.2586" lon="5.86676">
        <ele>257.729</ele>
      </trkpt>
      <trkpt lat="47.25708" lon="5.86584">
        <ele>261.495</ele>
      </trkpt>
      <trkpt lat="47.25662" lon="5.86561">
        <ele>265.466</ele>
      </trkpt>
      <trkpt lat="47.25604" lon="5.86524">
        <ele>269.17</ele>
      </trkpt>
      <trkpt lat="47.25537" lon="5.86477">
        <ele>274.335</ele>
      </trkpt>
      <trkpt lat="47.25399" lon="5.86456">
        <ele>280</ele>
      </trkpt>
      <trkpt lat="47.25291" lon="5.86504">
        <ele>278.414</ele>
      </trkpt>
      <trkpt lat="47.25187" lon="5.86609">
        <ele>270.508</ele>
      </trkpt>
      <trkpt lat="47.25155" lon="5.86638">
        <ele>268.164</ele>
      </trkpt>
      <trkpt lat="47.25096" lon="5.8666">
        <ele>262.356</ele>
      </trkpt>
      <trkpt lat="47.25069" lon="5.86681">
        <ele>258.431</ele>
      </trkpt>
      <trkpt lat="47.25015" lon="5.86749">
        <ele>247.67</ele>
      </trkpt>
      <trkpt lat="47.24944" lon="5.86822">
        <ele>235.394</ele>
      </trkpt>
      <trkpt lat="47.24917" lon="5.8685">
        <ele>232.446</ele>
      </trkpt>
      <trkpt lat="47.24752" lon="5.86876">
        <ele>235.931</ele>
      </trkpt>
      <trkpt lat="47.2474" lon="5.86874">
        <ele>236.086</ele>
      </trkpt>
      <trkpt lat="47.24553" lon="5.87063">
        <ele>231.507</ele>
      </trkpt>
      <trkpt lat="47.24533" lon="5.87148">
        <ele>236.685</ele>
      </trkpt>
      <trkpt lat="47.24504" lon="5.87196">
        <ele>240.125</ele>
      </trkpt>
      <trkpt lat="47.24466" lon="5.87223">
        <ele>244.478</ele>
      </trkpt>
      <trkpt lat="47.24435" lon="5.87273">
        <ele>246.274</ele>
      </trkpt>
      <trkpt lat="47.2435" lon="5.87254">
        <ele>246.86</ele>
      </trkpt>
      <trkpt lat="47.24253" lon="5.87181">
        <ele>249.328</ele>
      </trkpt>
      <trkpt lat="47.24196" lon="5.87091">
        <ele>251.884</ele>
      </trkpt>
      <trkpt lat="47.24138" lon="5.87011">
        <ele>256.201</ele>
      </trkpt>
      <trkpt lat="47.24108" lon="5.86955">
        <ele>258.818</ele>
      </trkpt>
      <trkpt lat="47.24058" lon="5.86895">
        <ele>265.519</ele>
      </trkpt>
      <trkpt lat="47.24014" lon="5.86837">
        <ele>267.333</ele>
      </trkpt>
      <trkpt lat="47.23959" lon="5.86814">
        <ele>269.037</ele>
      </trkpt>
      <trkpt lat="47.23879" lon="5.86779">
        <ele>272.4</ele>
      </trkpt>
      <trkpt lat="47.23828" lon="5.86743">
        <ele>272.534</ele>
      </trkpt>
      <trkpt lat="47.23674" lon="5.86628">
        <ele>275.25</ele>
      </trkpt>
      <trkpt lat="47.23598" lon="5.86571">
        <ele>279.311</ele>
      </trkpt>
      <trkpt lat="47.23554" lon="5.86556">
        <ele>283.118</ele>
      </trkpt>
      <trkpt lat="47.23329" lon="5.86512">
        <ele>284.715</ele>
      </trkpt>
      <trkpt lat="47.2327" lon="5.86473">
        <ele>280.03</ele>
      </trkpt>
      <trkpt lat="47.23192" lon="5.86416">
        <ele>273.022</ele>
      </trkpt>
      <trkpt lat="47.23147" lon="5.86384">
        <ele>270.112</ele>
      </trkpt>
      <trkpt lat="47.2307" lon="5.86326">
        <ele>267.213</ele>
      </trkpt>
      <trkpt lat="47.23068" lon="5.86325">
        <ele>267.079</ele>
      </trkpt>
      <trkpt lat="47.22985" lon="5.86288">
        <ele>265.876</ele>
      </trkpt>
      <trkpt lat="47.22899" lon="5.86252">
        <ele>263.633</ele>
      </trkpt>
      <trkpt lat="47.22842" lon="5.86156">
        <ele>260.627</ele>
      </trkpt>
      <trkpt lat="47.22651" lon="5.85994">
        <ele>257</ele>
      </trkpt>
      <trkpt lat="47.22652" lon="5.85992">
        <ele>257</ele>
      </trkpt>
      <trkpt lat="47.2266" lon="5.85807">
        <ele>251.311</ele>
      </trkpt>
      <trkpt lat="47.22705" lon="5.85718">
        <ele>246.729</ele>
      </trkpt>
      <trkpt lat="47.22741" lon="5.85634">
        <ele>243.203</ele>
      </trkpt>
      <trkpt lat="47.22751" lon="5.85491">
        <ele>241.916</ele>
      </trkpt>
      <trkpt lat="47.22734" lon="5.8521">
        <ele>237.997</ele>
      </trkpt>
      <trkpt lat="47.22719" lon="5.85097">
        <ele>235.198</ele>
      </trkpt>
      <trkpt lat="47.22698" lon="5.85016">
        <ele>234.925</ele>
      </trkpt>
      <trkpt lat="47.22558" lon="5.84903">
        <ele>239.85</ele>
      </trkpt>
      <trkpt lat="47.2245" lon="5.8487">
        <ele>247.2</ele>
      </trkpt>
      <trkpt lat="47.22401" lon="5.84864">
        <ele>250.671</ele>
      </trkpt>
      <trkpt lat="47.22289" lon="5.84873">
        <ele>259.59</ele>
      </trkpt>
      <trkpt lat="47.22184" lon="5.84845">
        <ele>262.383</ele>
      </trkpt>
      <trkpt lat="47.22114" lon="5.84835">
        <ele>266.705</ele>
      </trkpt>
      <trkpt lat="47.22075" lon="5.84832">
        <ele>269.128</ele>
      </trkpt>
      <trkpt lat="47.21988" lon="5.84828">
        <ele>278.329</ele>
      </trkpt>
      <trkpt lat="47.2196" lon="5.84824">
        <ele>282.228</ele>
      </trkpt>
      <trkpt lat="47.21932" lon="5.84818">
        <ele>285.16</ele>
      </trkpt>
      <trkpt lat="47.21803" lon="5.84752">
        <ele>280.117</ele>
      </trkpt>
      <trkpt lat="47.21745" lon="5.84718">
        <ele>276.502</ele>
      </trkpt>
      <trkpt lat="47.21677" lon="5.84684">
        <ele>274.27</ele>
      </trkpt>
      <trkpt lat="47.21465" lon="5.84596">
        <ele>274.583</ele>
      </trkpt>
      <trkpt lat="47.214" lon="5.84564">
        <ele>272.519</ele>
      </trkpt>
      <trkpt lat="47.21368" lon="5.84555">
        <ele>268.209</ele>
      </trkpt>
      <trkpt lat="47.21258" lon="5.84533">
        <ele>270.048</ele>
      </trkpt>
      <trkpt lat="47.2106" lon="5.84381">
        <ele>267.712</ele>
      </trkpt>
      <trkpt lat="47.20969" lon="5.84365">
        <ele>264.864</ele>
      </trkpt>
      <trkpt lat="47.20887" lon="5.84321">
        <ele>260.602</ele>
      </trkpt>
      <trkpt lat="47.20879" lon="5.84316">
        <ele>259.788</ele>
      </trkpt>
      <trkpt lat="47.20837" lon="5.84333">
        <ele>254.324</ele>
      </trkpt>
      <trkpt lat="47.20783" lon="5.8442">
        <ele>254.885</ele>
      </trkpt>
      <trkpt lat="47.20754" lon="5.84462">
        <ele>257.116</ele>
      </trkpt>
      <trkpt lat="47.20717" lon="5.84534">
        <ele>261.401</ele>
      </trkpt>
      <trkpt lat="47.20709" lon="5.84677">
        <ele>264.025</ele>
      </trkpt>
      <trkpt lat="47.2071" lon="5.84682">
        <ele>264.296</ele>
      </trkpt>
      <trkpt lat="47.20773" lon="5.84986">
        <ele>269.327</ele>
      </trkpt>
      <trkpt lat="47.20831" lon="5.85157">
        <ele>270.113</ele>
      </trkpt>
      <trkpt lat="47.20934" lon="5.8548">
        <ele>260.723</ele>
      </trkpt>
      <trkpt lat="47.21008" lon="5.85559">
        <ele>255.971</ele>
      </trkpt>
      <trkpt lat="47.20906" lon="5.85846">
        <ele>257.119</ele>
      </trkpt>
      <trkpt lat="47.20902" lon="5.85882">
        <ele>259.52</ele>
      </trkpt>
      <trkpt lat="47.20902" lon="5.85882">
        <ele>259.534</ele>
      </trkpt>
      <trkpt lat="47.20923" lon="5.85935">
        <ele>263.064</ele>
      </trkpt>
      <trkpt lat="47.20926" lon="5.85938">
        <ele>263.207</ele>
      </trkpt>
      <trkpt lat="47.20952" lon="5.85987">
        <ele>266.088</ele>
      </trkpt>
      <trkpt lat="47.20928" lon="5.86">
        <ele>269.229</ele>
      </trkpt>
      <trkpt lat="47.20825" lon="5.86002">
        <ele>274.429</ele>
      </trkpt>
      <trkpt lat="47.20825" lon="5.86102">
        <ele>278.337</ele>
      </trkpt>
      <trkpt lat="47.20825" lon="5.86175">
        <ele>281.307</ele>
      </trkpt>
      <trkpt lat="47.20822" lon="5.86235">
        <ele>284.321</ele>
      </trkpt>
      <trkpt lat="47.20797" lon="5.86298">
        <ele>289.072</ele>
      </trkpt>
      <trkpt lat="47.20792" lon="5.86306">
        <ele>290.058</ele>
      </trkpt>
      <trkpt lat="47.20688" lon="5.86343">
        <ele>295.201</ele>
      </trkpt>
      <trkpt lat="47.20693" lon="5.86429">
        <ele>291.987</ele>
      </trkpt>
      <trkpt lat="47.20624" lon="5.86524">
        <ele>285.994</ele>
      </trkpt>
      <trkpt lat="47.20564" lon="5.86599">
        <ele>279.347</ele>
      </trkpt>
      <trkpt lat="47.20551" lon="5.86646">
        <ele>276.361</ele>
      </trkpt>
      <trkpt lat="47.2056" lon="5.86753">
        <ele>270.91</ele>
      </trkpt>
      <trkpt lat="47.20539" lon="5.86834">
        <ele>268.376</ele>
      </trkpt>
      <trkpt lat="47.20483" lon="5.8693">
        <ele>262.897</ele>
      </trkpt>
      <trkpt lat="47.20474" lon="5.86945">
        <ele>262.078</ele>
      </trkpt>
      <trkpt lat="47.20421" lon="5.87276">
        <ele>259</ele>
      </trkpt>
      <trkpt lat="47.20339" lon="5.87344">
        <ele>263.007</ele>
      </trkpt>
      <trkpt lat="47.20238" lon="5.87401">
        <ele>265.45</ele>
      </trkpt>
      <trkpt lat="47.20214" lon="5.87396">
        <ele>266.398</ele>
      </trkpt>
      <trkpt lat="47.19933" lon="5.87513">
        <ele>273.33</ele>
      </trkpt>
      <trkpt lat="47.1974" lon="5.87612">
        <ele>273.647</ele>
      </trkpt>
      <trkpt lat="47.19708" lon="5.87641">
        <ele>271.985</ele>
      </trkpt>
      <trkpt lat="47.19675" lon="5.87667">
        <ele>271.996</ele>
      </trkpt>
      <trkpt lat="47.19609" lon="5.87669">
        <ele>274.223</ele>
      </trkpt>
      <trkpt lat="47.19542" lon="5.87674">
        <ele>276.019</ele>
      </trkpt>
      <trkpt lat="47.19517" lon="5.87668">
        <ele>276.843</ele>
      </trkpt>
      <trkpt lat="47.19465" lon="5.8763">
        <ele>277.863</ele>
      </trkpt>
      <trkpt lat="47.19417" lon="5.87601">
        <ele>279.851</ele>
      </trkpt>
      <trkpt lat="47.19299" lon="5.87593">
        <ele>285.925</ele>
      </trkpt>
      <trkpt lat="47.19256" lon="5.87633">
        <ele>282.759</ele>
      </trkpt>
      <trkpt lat="47.19203" lon="5.87643">
        <ele>278.74</ele>
      </trkpt>
      <trkpt lat="47.1915" lon="5.87542">
        <ele>276.854</ele>
      </trkpt>
      <trkpt lat="47.1906" lon="5.87553">
        <ele>268.311</ele>
      </trkpt>
      <trkpt lat="47.19013" lon="5.87953">
        <ele>265.065</ele>
      </trkpt>
      <trkpt lat="47.18994" lon="5.88078">
        <ele>264.33</ele>
      </trkpt>
      <trkpt lat="47.18944" lon="5.88244">
        <ele>262.459</ele>
      </trkpt>
      <trkpt lat="47.18855" lon="5.88462">
        <ele>257.589</ele>
      </trkpt>
      <trkpt lat="47.18842" lon="5.88497">
        <ele>256.326</ele>
      </trkpt>
      <trkpt lat="47.18747" lon="5.88631">
        <ele>259.519</ele>
      </trkpt>
      <trkpt lat="47.18787" lon="5.88744">
        <ele>262.766</ele>
      </trkpt>
      <trkpt lat="47.18827" lon="5.88854">
        <ele>264.58</ele>
      </trkpt>
      <trkpt lat="47.18997" lon="5.89072">
        <ele>263.94</ele>
      </trkpt>
      <trkpt lat="47.19068" lon="5.89145">
        <ele>261.967</ele>
      </trkpt>
      <trkpt lat="47.19069" lon="5.89146">
        <ele>261.933</ele>
      </trkpt>
      <trkpt lat="47.19081" lon="5.89218">
        <ele>260.165</ele>
      </trkpt>
      <trkpt lat="47.19159" lon="5.89353">
        <ele>261.786</ele>
      </trkpt>
      <trkpt lat="47.19292" lon="5.89559">
        <ele>255.189</ele>
      </trkpt>
      <trkpt lat="47.19297" lon="5.89567">
        <ele>254.928</ele>
      </trkpt>
      <trkpt lat="47.1933" lon="5.89646">
        <ele>250.372</ele>
      </trkpt>
      <trkpt lat="47.19375" lon="5.89755">
        <ele>246.741</ele>
      </trkpt>
      <trkpt lat="47.19376" lon="5.89758">
        <ele>246.659</ele>
      </trkpt>
      <trkpt lat="47.19413" lon="5.89863">
        <ele>241.822</ele>
      </trkpt>
      <trkpt lat="47.19459" lon="5.89966">
        <ele>239.21</ele>
      </trkpt>
      <trkpt lat="47.19356" lon="5.90011">
        <ele>235.608</ele>
      </trkpt>
      <trkpt lat="47.19147" lon="5.89925">
        <ele>232.989</ele>
      </trkpt>
      <trkpt lat="47.19056" lon="5.89922">
        <ele>231.815</ele>
      </trkpt>
      <trkpt lat="47.18944" lon="5.89958">
        <ele>232</ele>
      </trkpt>
      <trkpt lat="47.18847" lon="5.89955">
        <ele>234.699</ele>
      </trkpt>
      <trkpt lat="47.18732" lon="5.89886">
        <ele>238.199</ele>
      </trkpt>
      <trkpt lat="47.18556" lon="5.89839">
        <ele>237.658</ele>
      </trkpt>
      <trkpt lat="47.18494" lon="5.89868">
        <ele>233.744</ele>
      </trkpt>
      <trkpt lat="47.18412" lon="5.89941">
        <ele>228</ele>
      </trkpt>
      <trkpt lat="47.184" lon="5.89955">
        <ele>228.236</ele>
      </trkpt>
      <trkpt lat="47.18327" lon="5.9035">
        <ele>231</ele>
      </trkpt>
      <trkpt lat="47.18271" lon="5.90573">
        <ele>234</ele>
      </trkpt>
      <trkpt lat="47.18169" lon="5.90687">
        <ele>237.159</ele>
      </trkpt>
      <trkpt lat="47.1796" lon="5.90834">
        <ele>235.009</ele>
      </trkpt>
      <trkpt lat="47.17864" lon="5.90905">
        <ele>234.003</ele>
      </trkpt>
      <trkpt lat="47.17808" lon="5.90948">
        <ele>232.101</ele>
      </trkpt>
      <trkpt lat="47.17744" lon="5.90937">
        <ele>230.628</ele>
      </trkpt>
      <trkpt lat="47.17649" lon="5.90782">
        <ele>230.314</ele>
      </trkpt>
      <trkpt lat="47.17525" lon="5.90415">
        <ele>232.632</ele>
      </trkpt>
      <trkpt lat="47.17506" lon="5.90332">
        <ele>233.653</ele>
      </trkpt>
      <trkpt lat="47.17509" lon="5.90306">
        <ele>233.466</ele>
      </trkpt>
      <trkpt lat="47.1752" lon="5.90213">
        <ele>239.553</ele>
      </trkpt>
      <trkpt lat="47.17498" lon="5.90195">
        <ele>241.124</ele>
      </trkpt>
      <trkpt lat="47.17466" lon="5.90215">
        <ele>244.222</ele>
      </trkpt>
      <trkpt lat="47.17408" lon="5.90331">
        <ele>251.607</ele>
      </trkpt>
      <trkpt lat="47.173" lon="5.90313">
        <ele>253.079</ele>
      </trkpt>
      <trkpt lat="47.17271" lon="5.90316">
        <ele>251.413</ele>
      </trkpt>
      <trkpt lat="47.17233" lon="5.90489">
        <ele>246.146</ele>
      </trkpt>
      <trkpt lat="47.17188" lon="5.90598">
        <ele>248.161</ele>
      </trkpt>
      <trkpt lat="47.17132" lon="5.90706">
        <ele>254.166</ele>
      </trkpt>
      <trkpt lat="47.17088" lon="5.90747">
        <ele>257.41</ele>
      </trkpt>
      <trkpt lat="47.17052" lon="5.90798">
        <ele>261.681</ele>
      </trkpt>
      <trkpt lat="47.17029" lon="5.90809">
        <ele>264.424</ele>
      </trkpt>
      <trkpt lat="47.16998" lon="5.90792">
        <ele>266.562</ele>
      </trkpt>
      <trkpt lat="47.1692" lon="5.90698">
        <ele>272.917</ele>
      </trkpt>
      <trkpt lat="47.16867" lon="5.90661">
        <ele>277.848</ele>
      </trkpt>
      <trkpt lat="47.16811" lon="5.90647">
        <ele>281.172</ele>
      </trkpt>
      <trkpt lat="47.16773" lon="5.90639">
        <ele>283.985</ele>
      </trkpt>
      <trkpt lat="47.16668" lon="5.90578">
        <ele>290.431</ele>
      </trkpt>
      <trkpt lat="47.16662" lon="5.90575">
        <ele>291.485</ele>
      </trkpt>
      <trkpt lat="47.16586" lon="5.90517">
        <ele>296.944</ele>
      </trkpt>
      <trkpt lat="47.16501" lon="5.90449">
        <ele>301.083</ele>
      </trkpt>
      <trkpt lat="47.1643" lon="5.90375">
        <ele>300.25</ele>
      </trkpt>
      <trkpt lat="47.16382" lon="5.90324">
        <ele>299.183</ele>
      </trkpt>
      <trkpt lat="47.16274" lon="5.90221">
        <ele>293.806</ele>
      </trkpt>
      <trkpt lat="47.16042" lon="5.90155">
        <ele>287.925</ele>
      </trkpt>
      <trkpt lat="47.15963" lon="5.90104">
        <ele>285.398</ele>
      </trkpt>
      <trkpt lat="47.15959" lon="5.90101">
        <ele>285.167</ele>
      </trkpt>
      <trkpt lat="47.15786" lon="5.90181">
        <ele>280.751</ele>
      </trkpt>
      <trkpt lat="47.15783" lon="5.90183">
        <ele>280.456</ele>
      </trkpt>
      <trkpt lat="47.15689" lon="5.90187">
        <ele>273.63</ele>
      </trkpt>
      <trkpt lat="47.15684" lon="5.9022">
        <ele>273.262</ele>
      </trkpt>
      <trkpt lat="47.15648" lon="5.90543">
        <ele>275.978</ele>
      </trkpt>
      <trkpt lat="47.15669" lon="5.90678">
        <ele>280.537</ele>
      </trkpt>
      <trkpt lat="47.15658" lon="5.90771">
        <ele>283.381</ele>
      </trkpt>
      <trkpt lat="47.15621" lon="5.90916">
        <ele>290.718</ele>
      </trkpt>
      <trkpt lat="47.15604" lon="5.91021">
        <ele>295.757</ele>
      </trkpt>
      <trkpt lat="47.15596" lon="5.91115">
        <ele>301.055</ele>
      </trkpt>
      <trkpt lat="47.15587" lon="5.91176">
        <ele>302.303</ele>
      </trkpt>
      <trkpt lat="47.15544" lon="5.91342">
        <ele>308.598</ele>
      </trkpt>
      <trkpt lat="47.15536" lon="5.91412">
        <ele>309.723</ele>
      </trkpt>
      <trkpt lat="47.15532" lon="5.91486">
        <ele>312.555</ele>
      </trkpt>
      <trkpt lat="47.15535" lon="5.91548">
        <ele>314.92</ele>
      </trkpt>
      <trkpt lat="47.15456" lon="5.91602">
        <ele>320.6</ele>
      </trkpt>
      <trkpt lat="47.1543" lon="5.9161">
        <ele>323.903</ele>
      </trkpt>
      <trkpt lat="47.15374" lon="5.91613">
        <ele>328.236</ele>
      </trkpt>
      <trkpt lat="47.15291" lon="5.91614">
        <ele>333.824</ele>
      </trkpt>
      <trkpt lat="47.15205" lon="5.91613">
        <ele>340.598</ele>
      </trkpt>
      <trkpt lat="47.15118" lon="5.91612">
        <ele>345.877</ele>
      </trkpt>
      <trkpt lat="47.15087" lon="5.91612">
        <ele>347.85</ele>
      </trkpt>
      <trkpt lat="47.1502" lon="5.91605">
        <ele>353.065</ele>
      </trkpt>
      <trkpt lat="47.14957" lon="5.91577">
        <ele>358.513</ele>
      </trkpt>
      <trkpt lat="47.14881" lon="5.91502">
        <ele>361.119</ele>
      </trkpt>
      <trkpt lat="47.14824" lon="5.9141">
        <ele>364.079</ele>
      </trkpt>
      <trkpt lat="47.14712" lon="5.91291">
        <ele>368.553</ele>
      </trkpt>
      <trkpt lat="47.14645" lon="5.9121">
        <ele>367.052</ele>
      </trkpt>
      <trkpt lat="47.14578" lon="5.91129">
        <ele>364.416</ele>
      </trkpt>
      <trkpt lat="47.14531" lon="5.91072">
        <ele>364.777</ele>
      </trkpt>
      <trkpt lat="47.14447" lon="5.90975">
        <ele>365.028</ele>
      </trkpt>
      <trkpt lat="47.14422" lon="5.90972">
        <ele>365.809</ele>
      </trkpt>
      <trkpt lat="47.14372" lon="5.91013">
        <ele>368.936</ele>
      </trkpt>
      <trkpt lat="47.1434" lon="5.91049">
        <ele>370.612</ele>
      </trkpt>
      <trkpt lat="47.14293" lon="5.91089">
        <ele>373.814</ele>
      </trkpt>
      <trkpt lat="47.14271" lon="5.91097">
        <ele>375.759</ele>
      </trkpt>
      <trkpt lat="47.14178" lon="5.91055">
        <ele>377.617</ele>
      </trkpt>
      <trkpt lat="47.14094" lon="5.9103">
        <ele>381.556</ele>
      </trkpt>
      <trkpt lat="47.13988" lon="5.91011">
        <ele>387.295</ele>
      </trkpt>
      <trkpt lat="47.13924" lon="5.90956">
        <ele>389.591</ele>
      </trkpt>
      <trkpt lat="47.13856" lon="5.90948">
        <ele>392.057</ele>
      </trkpt>
      <trkpt lat="47.1377" lon="5.90932">
        <ele>395.013</ele>
      </trkpt>
      <trkpt lat="47.13724" lon="5.90911">
        <ele>397.536</ele>
      </trkpt>
      <trkpt lat="47.13553" lon="5.90796">
        <ele>400.03</ele>
      </trkpt>
      <trkpt lat="47.13414" lon="5.90624">
        <ele>401.211</ele>
      </trkpt>
      <trkpt lat="47.13275" lon="5.9054">
        <ele>399.511</ele>
      </trkpt>
      <trkpt lat="47.13034" lon="5.90353">
        <ele>399.449</ele>
      </trkpt>
      <trkpt lat="47.12865" lon="5.90308">
        <ele>404.096</ele>
      </trkpt>
      <trkpt lat="47.12646" lon="5.90185">
        <ele>397.298</ele>
      </trkpt>
      <trkpt lat="47.12567" lon="5.90133">
        <ele>397.793</ele>
      </trkpt>
      <trkpt lat="47.12518" lon="5.90097">
        <ele>395.586</ele>
      </trkpt>
      <trkpt lat="47.12363" lon="5.90056">
        <ele>387.924</ele>
      </trkpt>
      <trkpt lat="47.1228" lon="5.90021">
        <ele>380.076</ele>
      </trkpt>
      <trkpt lat="47.12166" lon="5.89959">
        <ele>369.752</ele>
      </trkpt>
      <trkpt lat="47.12074" lon="5.8991">
        <ele>362.765</ele>
      </trkpt>
      <trkpt lat="47.11993" lon="5.89867">
        <ele>354.906</ele>
      </trkpt>
      <trkpt lat="47.11903" lon="5.89799">
        <ele>349.202</ele>
      </trkpt>
      <trkpt lat="47.11827" lon="5.89739">
        <ele>345.723</ele>
      </trkpt>
      <trkpt lat="47.11757" lon="5.89685">
        <ele>337.153</ele>
      </trkpt>
      <trkpt lat="47.11679" lon="5.89631">
        <ele>332.411</ele>
      </trkpt>
      <trkpt lat="47.11601" lon="5.89577">
        <ele>327.85</ele>
      </trkpt>
      <trkpt lat="47.11568" lon="5.89564">
        <ele>325.759</ele>
      </trkpt>
      <trkpt lat="47.11461" lon="5.89474">
        <ele>321.746</ele>
      </trkpt>
      <trkpt lat="47.11324" lon="5.89336">
        <ele>309.611</ele>
      </trkpt>
      <trkpt lat="47.11156" lon="5.89163">
        <ele>293.853</ele>
      </trkpt>
      <trkpt lat="47.11037" lon="5.89043">
        <ele>285.233</ele>
      </trkpt>
      <trkpt lat="47.1097" lon="5.88977">
        <ele>281.241</ele>
      </trkpt>
      <trkpt lat="47.10856" lon="5.88869">
        <ele>275.301</ele>
      </trkpt>
      <trkpt lat="47.10758" lon="5.88777">
        <ele>271.286</ele>
      </trkpt>
      <trkpt lat="47.10692" lon="5.88857">
        <ele>266.834</ele>
      </trkpt>
      <trkpt lat="47.1059" lon="5.88977">
        <ele>265.643</ele>
      </trkpt>
      <trkpt lat="47.10576" lon="5.88942">
        <ele>265.747</ele>
      </trkpt>
      <trkpt lat="47.1049" lon="5.88691">
        <ele>264.681</ele>
      </trkpt>
      <trkpt lat="47.10348" lon="5.88414">
        <ele>265</ele>
      </trkpt>
      <trkpt lat="47.10172" lon="5.88613">
        <ele>265.988</ele>
      </trkpt>
      <trkpt lat="47.09895" lon="5.88558">
        <ele>264.788</ele>
      </trkpt>
      <trkpt lat="47.09885" lon="5.88556">
        <ele>264.998</ele>
      </trkpt>
      <trkpt lat="47.09715" lon="5.88521">
        <ele>264.109</ele>
      </trkpt>
      <trkpt lat="47.09456" lon="5.88461">
        <ele>263.246</ele>
      </trkpt>
      <trkpt lat="47.09323" lon="5.88433">
        <ele>263.94</ele>
      </trkpt>
      <trkpt lat="47.09198" lon="5.88422">
        <ele>266.513</ele>
      </trkpt>
      <trkpt lat="47.09082" lon="5.88417">
        <ele>270.978</ele>
      </trkpt>
      <trkpt lat="47.0891" lon="5.88412">
        <ele>276.184</ele>
      </trkpt>
      <trkpt lat="47.0883" lon="5.8841">
        <ele>280.24</ele>
      </trkpt>
      <trkpt lat="47.08771" lon="5.88432">
        <ele>283.935</ele>
      </trkpt>
      <trkpt lat="47.08763" lon="5.8843">
        <ele>284.235</ele>
      </trkpt>
      <trkpt lat="47.08727" lon="5.88493">
        <ele>286.074</ele>
      </trkpt>
      <trkpt lat="47.08769" lon="5.88568">
        <ele>288.757</ele>
      </trkpt>
      <trkpt lat="47.0877" lon="5.88626">
        <ele>292.198</ele>
      </trkpt>
      <trkpt lat="47.08739" lon="5.88681">
        <ele>297.685</ele>
      </trkpt>
      <trkpt lat="47.08719" lon="5.88746">
        <ele>301.712</ele>
      </trkpt>
      <trkpt lat="47.08678" lon="5.88858">
        <ele>309.137</ele>
      </trkpt>
      <trkpt lat="47.08656" lon="5.88914">
        <ele>312.837</ele>
      </trkpt>
      <trkpt lat="47.08647" lon="5.88955">
        <ele>315.774</ele>
      </trkpt>
      <trkpt lat="47.08638" lon="5.8903">
        <ele>321.099</ele>
      </trkpt>
      <trkpt lat="47.08633" lon="5.89101">
        <ele>326.279</ele>
      </trkpt>
      <trkpt lat="47.08624" lon="5.8914">
        <ele>329.058</ele>
      </trkpt>
      <trkpt lat="47.08608" lon="5.89194">
        <ele>332.23</ele>
      </trkpt>
      <trkpt lat="47.08589" lon="5.89273">
        <ele>336.216</ele>
      </trkpt>
      <trkpt lat="47.086" lon="5.89347">
        <ele>341.26</ele>
      </trkpt>
      <trkpt lat="47.08582" lon="5.89435">
        <ele>347.362</ele>
      </trkpt>
      <trkpt lat="47.0856" lon="5.89496">
        <ele>350.022</ele>
      </trkpt>
      <trkpt lat="47.08441" lon="5.89879">
        <ele>359.373</ele>
      </trkpt>
      <trkpt lat="47.08406" lon="5.90004">
        <ele>357.095</ele>
      </trkpt>
      <trkpt lat="47.08352" lon="5.90242">
        <ele>355.581</ele>
      </trkpt>
      <trkpt lat="47.08333" lon="5.90303">
        <ele>355</ele>
      </trkpt>
      <trkpt lat="47.08305" lon="5.90386">
        <ele>355.938</ele>
      </trkpt>
      <trkpt lat="47.08274" lon="5.90447">
        <ele>359.618</ele>
      </trkpt>
      <trkpt lat="47.0823" lon="5.90544">
        <ele>371.188</ele>
      </trkpt>
      <trkpt lat="47.08216" lon="5.90592">
        <ele>372.213</ele>
      </trkpt>
      <trkpt lat="47.08197" lon="5.90708">
        <ele>377.293</ele>
      </trkpt>
      <trkpt lat="47.08188" lon="5.90706">
        <ele>377.869</ele>
      </trkpt>
      <trkpt lat="47.08078" lon="5.90645">
        <ele>376.578</ele>
      </trkpt>
      <trkpt lat="47.07965" lon="5.90576">
        <ele>373.677</ele>
      </trkpt>
      <trkpt lat="47.07858" lon="5.90478">
        <ele>368.546</ele>
      </trkpt>
      <trkpt lat="47.07795" lon="5.9043">
        <ele>367.376</ele>
      </trkpt>
      <trkpt lat="47.07735" lon="5.90414">
        <ele>366.246</ele>
      </trkpt>
      <trkpt lat="47.07639" lon="5.90408">
        <ele>360.369</ele>
      </trkpt>
      <trkpt lat="47.07555" lon="5.9038">
        <ele>357.66</ele>
      </trkpt>
      <trkpt lat="47.0755" lon="5.90379">
        <ele>357.44</ele>
      </trkpt>
      <trkpt lat="47.07347" lon="5.90341">
        <ele>352</ele>
      </trkpt>
      <trkpt lat="47.07137" lon="5.90308">
        <ele>352.027</ele>
      </trkpt>
      <trkpt lat="47.06971" lon="5.90332">
        <ele>345.937</ele>
      </trkpt>
      <trkpt lat="47.06721" lon="5.90258">
        <ele>342.55</ele>
      </trkpt>
      <trkpt lat="47.06582" lon="5.90236">
        <ele>339.421</ele>
      </trkpt>
      <trkpt lat="47.06353" lon="5.90163">
        <ele>331.238</ele>
      </trkpt>
      <trkpt lat="47.06342" lon="5.90149">
        <ele>331.253</ele>
      </trkpt>
      <trkpt lat="47.06147" lon="5.9005">
        <ele>328.564</ele>
      </trkpt>
      <trkpt lat="47.0608" lon="5.90088">
        <ele>332.229</ele>
      </trkpt>
      <trkpt lat="47.06038" lon="5.90128">
        <ele>336.27</ele>
      </trkpt>
      <trkpt lat="47.05937" lon="5.90152">
        <ele>341.084</ele>
      </trkpt>
      <trkpt lat="47.05842" lon="5.9007">
        <ele>334.326</ele>
      </trkpt>
      <trkpt lat="47.05759" lon="5.89989">
        <ele>331.034</ele>
      </trkpt>
      <trkpt lat="47.0572" lon="5.89974">
        <ele>328.447</ele>
      </trkpt>
      <trkpt lat="47.05665" lon="5.89937">
        <ele>325.204</ele>
      </trkpt>
      <trkpt lat="47.05633" lon="5.89868">
        <ele>321.815</ele>
      </trkpt>
      <trkpt lat="47.05624" lon="5.89814">
        <ele>320.044</ele>
      </trkpt>
      <trkpt lat="47.0561" lon="5.89747">
        <ele>317.349</ele>
      </trkpt>
      <trkpt lat="47.05577" lon="5.89675">
        <ele>313.052</ele>
      </trkpt>
      <trkpt lat="47.05578" lon="5.89678">
        <ele>313.04</ele>
      </trkpt>
      <trkpt lat="47.05528" lon="5.8968">
        <ele>308.5</ele>
      </trkpt>
      <trkpt lat="47.05518" lon="5.89678">
        <ele>309.277</ele>
      </trkpt>
      <trkpt lat="47.0543" lon="5.8966">
        <ele>312.51</ele>
      </trkpt>
      <trkpt lat="47.05405" lon="5.89658">
        <ele>314.192</ele>
      </trkpt>
      <trkpt lat="47.05389" lon="5.89658">
        <ele>315.302</ele>
      </trkpt>
      <trkpt lat="47.053" lon="5.89745">
        <ele>317.86</ele>
      </trkpt>
      <trkpt lat="47.05181" lon="5.89682">
        <ele>329.889</ele>
      </trkpt>
      <trkpt lat="47.05143" lon="5.89671">
        <ele>332.542</ele>
      </trkpt>
      <trkpt lat="47.0509" lon="5.89657">
        <ele>334.983</ele>
      </trkpt>
      <trkpt lat="47.05023" lon="5.89627">
        <ele>337.963</ele>
      </trkpt>
      <trkpt lat="47.04984" lon="5.89622">
        <ele>338.947</ele>
      </trkpt>
      <trkpt lat="47.04926" lon="5.89633">
        <ele>340.782</ele>
      </trkpt>
      <trkpt lat="47.04851" lon="5.89626">
        <ele>348.564</ele>
      </trkpt>
      <trkpt lat="47.0484" lon="5.89625">
        <ele>349.49</ele>
      </trkpt>
      <trkpt lat="47.0468" lon="5.89665">
        <ele>359.023</ele>
      </trkpt>
      <trkpt lat="47.04576" lon="5.89725">
        <ele>367.8</ele>
      </trkpt>
      <trkpt lat="47.04302" lon="5.89688">
        <ele>379.636</ele>
      </trkpt>
      <trkpt lat="47.03992" lon="5.89628">
        <ele>386.035</ele>
      </trkpt>
      <trkpt lat="47.03858" lon="5.89471">
        <ele>387.17</ele>
      </trkpt>
      <trkpt lat="47.03741" lon="5.89426">
        <ele>391.317</ele>
      </trkpt>
      <trkpt lat="47.03561" lon="5.89396">
        <ele>398.067</ele>
      </trkpt>
      <trkpt lat="47.03408" lon="5.89389">
        <ele>403.812</ele>
      </trkpt>
      <trkpt lat="47.03292" lon="5.89318">
        <ele>405.765</ele>
      </trkpt>
      <trkpt lat="47.03152" lon="5.89264">
        <ele>412.324</ele>
      </trkpt>
      <trkpt lat="47.03084" lon="5.89305">
        <ele>418.989</ele>
      </trkpt>
      <trkpt lat="47.03081" lon="5.8921">
        <ele>421.517</ele>
      </trkpt>
      <trkpt lat="47.02944" lon="5.89004">
        <ele>433.238</ele>
      </trkpt>
      <trkpt lat="47.02871" lon="5.88914">
        <ele>439.537</ele>
      </trkpt>
      <trkpt lat="47.0265" lon="5.88856">
        <ele>455.15</ele>
      </trkpt>
      <trkpt lat="47.02421" lon="5.88784">
        <ele>468.549</ele>
      </trkpt>
      <trkpt lat="47.02235" lon="5.88721">
        <ele>473.75</ele>
      </trkpt>
      <trkpt lat="47.0203" lon="5.88622">
        <ele>486.921</ele>
      </trkpt>
      <trkpt lat="47.01783" lon="5.88479">
        <ele>500.354</ele>
      </trkpt>
      <trkpt lat="47.01624" lon="5.88501">
        <ele>511.54</ele>
      </trkpt>
      <trkpt lat="47.01434" lon="5.88494">
        <ele>521.243</ele>
      </trkpt>
      <trkpt lat="47.0136" lon="5.88592">
        <ele>529.903</ele>
      </trkpt>
      <trkpt lat="47.0121" lon="5.8861">
        <ele>539.114</ele>
      </trkpt>
      <trkpt lat="47.01151" lon="5.88624">
        <ele>544.451</ele>
      </trkpt>
      <trkpt lat="47.01237" lon="5.88673">
        <ele>549.378</ele>
      </trkpt>
      <trkpt lat="47.01302" lon="5.8877">
        <ele>555.511</ele>
      </trkpt>
      <trkpt lat="47.014" lon="5.88799">
        <ele>564.503</ele>
      </trkpt>
      <trkpt lat="47.0134" lon="5.88851">
        <ele>568.018</ele>
      </trkpt>
      <trkpt lat="47.01263" lon="5.889">
        <ele>573.577</ele>
      </trkpt>
      <trkpt lat="47.01213" lon="5.88951">
        <ele>572.61</ele>
      </trkpt>
      <trkpt lat="47.01188" lon="5.8897">
        <ele>569.764</ele>
      </trkpt>
      <trkpt lat="47.01083" lon="5.88987">
        <ele>563.8</ele>
      </trkpt>
      <trkpt lat="47.00932" lon="5.89127">
        <ele>554.728</ele>
      </trkpt>
      <trkpt lat="47.00788" lon="5.8945">
        <ele>554.573</ele>
      </trkpt>
      <trkpt lat="47.00768" lon="5.89498">
        <ele>558.912</ele>
      </trkpt>
      <trkpt lat="47.00764" lon="5.89571">
        <ele>564.112</ele>
      </trkpt>
      <trkpt lat="47.00743" lon="5.89625">
        <ele>568.354</ele>
      </trkpt>
      <trkpt lat="47.00727" lon="5.89751">
        <ele>565.151</ele>
      </trkpt>
      <trkpt lat="47.00695" lon="5.89777">
        <ele>563.123</ele>
      </trkpt>
      <trkpt lat="47.00603" lon="5.89799">
        <ele>559.43</ele>
      </trkpt>
      <trkpt lat="47.00554" lon="5.89859">
        <ele>558.098</ele>
      </trkpt>
      <trkpt lat="47.0059" lon="5.89932">
        <ele>553.763</ele>
      </trkpt>
      <trkpt lat="47.00538" lon="5.90142">
        <ele>556.94</ele>
      </trkpt>
      <trkpt lat="47.00538" lon="5.902">
        <ele>559.313</ele>
      </trkpt>
      <trkpt lat="47.00528" lon="5.90266">
        <ele>561.798</ele>
      </trkpt>
      <trkpt lat="47.00481" lon="5.90316">
        <ele>558.195</ele>
      </trkpt>
      <trkpt lat="47.00404" lon="5.90374">
        <ele>548.158</ele>
      </trkpt>
      <trkpt lat="47.00354" lon="5.90412">
        <ele>540.77</ele>
      </trkpt>
      <trkpt lat="47.00269" lon="5.9044">
        <ele>531.262</ele>
      </trkpt>
      <trkpt lat="47.00185" lon="5.90467">
        <ele>521.322</ele>
      </trkpt>
      <trkpt lat="46.99947" lon="5.90454">
        <ele>522.558</ele>
      </trkpt>
      <trkpt lat="46.99735" lon="5.9041">
        <ele>523.589</ele>
      </trkpt>
      <trkpt lat="46.99564" lon="5.90369">
        <ele>525.159</ele>
      </trkpt>
      <trkpt lat="46.9946" lon="5.90339">
        <ele>525.673</ele>
      </trkpt>
      <trkpt lat="46.99404" lon="5.90271">
        <ele>529.858</ele>
      </trkpt>
      <trkpt lat="46.99382" lon="5.9026">
        <ele>531.05</ele>
      </trkpt>
      <trkpt lat="46.99335" lon="5.90279">
        <ele>533.695</ele>
      </trkpt>
      <trkpt lat="46.99268" lon="5.90359">
        <ele>538.905</ele>
      </trkpt>
      <trkpt lat="46.99138" lon="5.90511">
        <ele>544.566</ele>
      </trkpt>
      <trkpt lat="46.9911" lon="5.90543">
        <ele>546.183</ele>
      </trkpt>
      <trkpt lat="46.99108" lon="5.90478">
        <ele>540.903</ele>
      </trkpt>
      <trkpt lat="46.99121" lon="5.90374">
        <ele>536.181</ele>
      </trkpt>
      <trkpt lat="46.99142" lon="5.9025">
        <ele>530.005</ele>
      </trkpt>
      <trkpt lat="46.99162" lon="5.90127">
        <ele>525.042</ele>
      </trkpt>
      <trkpt lat="46.99183" lon="5.90003">
        <ele>516.75</ele>
      </trkpt>
      <trkpt lat="46.99204" lon="5.8988">
        <ele>510.275</ele>
      </trkpt>
      <trkpt lat="46.99232" lon="5.89721">
        <ele>501.57</ele>
      </trkpt>
      <trkpt lat="46.99241" lon="5.89593">
        <ele>493.492</ele>
      </trkpt>
      <trkpt lat="46.99234" lon="5.89522">
        <ele>491.832</ele>
      </trkpt>
      <trkpt lat="46.99215" lon="5.89405">
        <ele>484.579</ele>
      </trkpt>
      <trkpt lat="46.99206" lon="5.89393">
        <ele>482.205</ele>
      </trkpt>
      <trkpt lat="46.99197" lon="5.89447">
        <ele>478.767</ele>
      </trkpt>
      <trkpt lat="46.99188" lon="5.89626">
        <ele>473.134</ele>
      </trkpt>
      <trkpt lat="46.99122" lon="5.89785">
        <ele>463.655</ele>
      </trkpt>
      <trkpt lat="46.99121" lon="5.89787">
        <ele>463.567</ele>
      </trkpt>
      <trkpt lat="46.99054" lon="5.89951">
        <ele>456.312</ele>
      </trkpt>
      <trkpt lat="46.99048" lon="5.89933">
        <ele>454.801</ele>
      </trkpt>
      <trkpt lat="46.99075" lon="5.89792">
        <ele>450.451</ele>
      </trkpt>
      <trkpt lat="46.99066" lon="5.89552">
        <ele>443.118</ele>
      </trkpt>
      <trkpt lat="46.99064" lon="5.89502">
        <ele>440.591</ele>
      </trkpt>
      <trkpt lat="46.99034" lon="5.89455">
        <ele>437.901</ele>
      </trkpt>
      <trkpt lat="46.98975" lon="5.89226">
        <ele>443.785</ele>
      </trkpt>
      <trkpt lat="46.9891" lon="5.89142">
        <ele>449.177</ele>
      </trkpt>
      <trkpt lat="46.98905" lon="5.89135">
        <ele>449.481</ele>
      </trkpt>
      <trkpt lat="46.98868" lon="5.89021">
        <ele>443.799</ele>
      </trkpt>
      <trkpt lat="46.98857" lon="5.88908">
        <ele>439.636</ele>
      </trkpt>
      <trkpt lat="46.98852" lon="5.88874">
        <ele>440.008</ele>
      </trkpt>
      <trkpt lat="46.98806" lon="5.88721">
        <ele>447.973</ele>
      </trkpt>
      <trkpt lat="46.98684" lon="5.88629">
        <ele>450.703</ele>
      </trkpt>
      <trkpt lat="46.98599" lon="5.88648">
        <ele>447.866</ele>
      </trkpt>
      <trkpt lat="46.98568" lon="5.88661">
        <ele>448.426</ele>
      </trkpt>
      <trkpt lat="46.98514" lon="5.88586">
        <ele>450.006</ele>
      </trkpt>
      <trkpt lat="46.98382" lon="5.88496">
        <ele>457.256</ele>
      </trkpt>
      <trkpt lat="46.98322" lon="5.88466">
        <ele>458.968</ele>
      </trkpt>
      <trkpt lat="46.98306" lon="5.88402">
        <ele>459.905</ele>
      </trkpt>
      <trkpt lat="46.98216" lon="5.88168">
        <ele>476.633</ele>
      </trkpt>
      <trkpt lat="46.98166" lon="5.88172">
        <ele>479.799</ele>
      </trkpt>
      <trkpt lat="46.98115" lon="5.88172">
        <ele>481.646</ele>
      </trkpt>
      <trkpt lat="46.98091" lon="5.88144">
        <ele>481.217</ele>
      </trkpt>
      <trkpt lat="46.98029" lon="5.88055">
        <ele>487.601</ele>
      </trkpt>
      <trkpt lat="46.98022" lon="5.88044">
        <ele>488.877</ele>
      </trkpt>
      <trkpt lat="46.97937" lon="5.87984">
        <ele>494.854</ele>
      </trkpt>
      <trkpt lat="46.97889" lon="5.87951">
        <ele>499.652</ele>
      </trkpt>
      <trkpt lat="46.97877" lon="5.87887">
        <ele>502.227</ele>
      </trkpt>
      <trkpt lat="46.97866" lon="5.87854">
        <ele>504.281</ele>
      </trkpt>
      <trkpt lat="46.97849" lon="5.8774">
        <ele>509.477</ele>
      </trkpt>
      <trkpt lat="46.97843" lon="5.87619">
        <ele>517.461</ele>
      </trkpt>
      <trkpt lat="46.97799" lon="5.87549">
        <ele>523.281</ele>
      </trkpt>
      <trkpt lat="46.97762" lon="5.87469">
        <ele>529.55</ele>
      </trkpt>
      <trkpt lat="46.97715" lon="5.87407">
        <ele>535.682</ele>
      </trkpt>
      <trkpt lat="46.97702" lon="5.87293">
        <ele>542.241</ele>
      </trkpt>
      <trkpt lat="46.97678" lon="5.87171">
        <ele>546.244</ele>
      </trkpt>
      <trkpt lat="46.97633" lon="5.87011">
        <ele>552.223</ele>
      </trkpt>
      <trkpt lat="46.9758" lon="5.86926">
        <ele>558.837</ele>
      </trkpt>
      <trkpt lat="46.97432" lon="5.86674">
        <ele>557.388</ele>
      </trkpt>
      <trkpt lat="46.97355" lon="5.86564">
        <ele>551.586</ele>
      </trkpt>
      <trkpt lat="46.97277" lon="5.86508">
        <ele>547.958</ele>
      </trkpt>
      <trkpt lat="46.97199" lon="5.86453">
        <ele>541.128</ele>
      </trkpt>
      <trkpt lat="46.97121" lon="5.86398">
        <ele>536.951</ele>
      </trkpt>
      <trkpt lat="46.97043" lon="5.86342">
        <ele>530.224</ele>
      </trkpt>
      <trkpt lat="46.96965" lon="5.86287">
        <ele>521.568</ele>
      </trkpt>
      <trkpt lat="46.96887" lon="5.86232">
        <ele>510.603</ele>
      </trkpt>
      <trkpt lat="46.96851" lon="5.86206">
        <ele>503.632</ele>
      </trkpt>
      <trkpt lat="46.96775" lon="5.86145">
        <ele>493.079</ele>
      </trkpt>
      <trkpt lat="46.96699" lon="5.86084">
        <ele>487.095</ele>
      </trkpt>
      <trkpt lat="46.96649" lon="5.86043">
        <ele>484.487</ele>
      </trkpt>
      <trkpt lat="46.96649" lon="5.86044">
        <ele>484.645</ele>
      </trkpt>
      <trkpt lat="46.96548" lon="5.86088">
        <ele>475.413</ele>
      </trkpt>
      <trkpt lat="46.96394" lon="5.86104">
        <ele>469.362</ele>
      </trkpt>
      <trkpt lat="46.96323" lon="5.86102">
        <ele>465.966</ele>
      </trkpt>
      <trkpt lat="46.96259" lon="5.86123">
        <ele>462.036</ele>
      </trkpt>
      <trkpt lat="46.96225" lon="5.8614">
        <ele>459.465</ele>
      </trkpt>
      <trkpt lat="46.96222" lon="5.86116">
        <ele>456.425</ele>
      </trkpt>
      <trkpt lat="46.96267" lon="5.85969">
        <ele>442.386</ele>
      </trkpt>
      <trkpt lat="46.96306" lon="5.85834">
        <ele>429.085</ele>
      </trkpt>
      <trkpt lat="46.96314" lon="5.85807">
        <ele>425.255</ele>
      </trkpt>
      <trkpt lat="46.96307" lon="5.85793">
        <ele>423.107</ele>
      </trkpt>
      <trkpt lat="46.96292" lon="5.85782">
        <ele>420.545</ele>
      </trkpt>
      <trkpt lat="46.96267" lon="5.85777">
        <ele>416.465</ele>
      </trkpt>
      <trkpt lat="46.96234" lon="5.85777">
        <ele>411.197</ele>
      </trkpt>
      <trkpt lat="46.96204" lon="5.85766">
        <ele>405.781</ele>
      </trkpt>
      <trkpt lat="46.96164" lon="5.85776">
        <ele>399.192</ele>
      </trkpt>
      <trkpt lat="46.96097" lon="5.85799">
        <ele>389.017</ele>
      </trkpt>
      <trkpt lat="46.96045" lon="5.85827">
        <ele>380.26</ele>
      </trkpt>
      <trkpt lat="46.9602" lon="5.85836">
        <ele>375.228</ele>
      </trkpt>
      <trkpt lat="46.95969" lon="5.85863">
        <ele>367.709</ele>
      </trkpt>
      <trkpt lat="46.95968" lon="5.85864">
        <ele>367.6</ele>
      </trkpt>
      <trkpt lat="46.9594" lon="5.85884">
        <ele>364.012</ele>
      </trkpt>
      <trkpt lat="46.95905" lon="5.85897">
        <ele>359.598</ele>
      </trkpt>
      <trkpt lat="46.9587" lon="5.85921">
        <ele>355.294</ele>
      </trkpt>
      <trkpt lat="46.95841" lon="5.85957">
        <ele>351.294</ele>
      </trkpt>
      <trkpt lat="46.95816" lon="5.85991">
        <ele>348.312</ele>
      </trkpt>
      <trkpt lat="46.95791" lon="5.86013">
        <ele>343.586</ele>
      </trkpt>
      <trkpt lat="46.95768" lon="5.86023">
        <ele>337.954</ele>
      </trkpt>
      <trkpt lat="46.95735" lon="5.8606">
        <ele>332.624</ele>
      </trkpt>
      <trkpt lat="46.95698" lon="5.86114">
        <ele>328.539</ele>
      </trkpt>
      <trkpt lat="46.95694" lon="5.86118">
        <ele>328.057</ele>
      </trkpt>
      <trkpt lat="46.95645" lon="5.8616">
        <ele>318.947</ele>
      </trkpt>
      <trkpt lat="46.95633" lon="5.86166">
        <ele>316.568</ele>
      </trkpt>
      <trkpt lat="46.95567" lon="5.86236">
        <ele>311.555</ele>
      </trkpt>
      <trkpt lat="46.95567" lon="5.86215">
        <ele>307.018</ele>
      </trkpt>
      <trkpt lat="46.95733" lon="5.85956">
        <ele>305.874</ele>
      </trkpt>
      <trkpt lat="46.95766" lon="5.85869">
        <ele>305.448</ele>
      </trkpt>
      <trkpt lat="46.95778" lon="5.85818">
        <ele>301.195</ele>
      </trkpt>
      <trkpt lat="46.95779" lon="5.85812">
        <ele>301.325</ele>
      </trkpt>
      <trkpt lat="46.95803" lon="5.85691">
        <ele>300.898</ele>
      </trkpt>
      <trkpt lat="46.95838" lon="5.85582">
        <ele>300.422</ele>
      </trkpt>
      <trkpt lat="46.95857" lon="5.8552">
        <ele>299.979</ele>
      </trkpt>
      <trkpt lat="46.95881" lon="5.85398">
        <ele>301.355</ele>
      </trkpt>
      <trkpt lat="46.9589" lon="5.85347">
        <ele>297.868</ele>
      </trkpt>
      <trkpt lat="46.95906" lon="5.85231">
        <ele>301.096</ele>
      </trkpt>
      <trkpt lat="46.95911" lon="5.8521">
        <ele>300.198</ele>
      </trkpt>
      <trkpt lat="46.95939" lon="5.85176">
        <ele>302.319</ele>
      </trkpt>
      <trkpt lat="46.95992" lon="5.85104">
        <ele>301.331</ele>
      </trkpt>
      <trkpt lat="46.96049" lon="5.8498">
        <ele>304.425</ele>
      </trkpt>
      <trkpt lat="46.96055" lon="5.84954">
        <ele>300.821</ele>
      </trkpt>
      <trkpt lat="46.96065" lon="5.84861">
        <ele>297.3</ele>
      </trkpt>
      <trkpt lat="46.9607" lon="5.84816">
        <ele>295.086</ele>
      </trkpt>
      <trkpt lat="46.96095" lon="5.84689">
        <ele>292.167</ele>
      </trkpt>
      <trkpt lat="46.96109" lon="5.8462">
        <ele>291.286</ele>
      </trkpt>
      <trkpt lat="46.96124" lon="5.84551">
        <ele>289.796</ele>
      </trkpt>
      <trkpt lat="46.96131" lon="5.84509">
        <ele>292.821</ele>
      </trkpt>
      <trkpt lat="46.96125" lon="5.84358">
        <ele>294.621</ele>
      </trkpt>
      <trkpt lat="46.96105" lon="5.84319">
        <ele>300.963</ele>
      </trkpt>
      <trkpt lat="46.96044" lon="5.84275">
        <ele>304.715</ele>
      </trkpt>
      <trkpt lat="46.95961" lon="5.84172">
        <ele>311.751</ele>
      </trkpt>
      <trkpt lat="46.95924" lon="5.84079">
        <ele>315.983</ele>
      </trkpt>
      <trkpt lat="46.95927" lon="5.83885">
        <ele>321.053</ele>
      </trkpt>
      <trkpt lat="46.9594" lon="5.83762">
        <ele>325.039</ele>
      </trkpt>
      <trkpt lat="46.95945" lon="5.83716">
        <ele>327.037</ele>
      </trkpt>
      <trkpt lat="46.95926" lon="5.83635">
        <ele>328.811</ele>
      </trkpt>
      <trkpt lat="46.95763" lon="5.83598">
        <ele>333.518</ele>
      </trkpt>
      <trkpt lat="46.95667" lon="5.83597">
        <ele>337.96</ele>
      </trkpt>
      <trkpt lat="46.95622" lon="5.83531">
        <ele>341.496</ele>
      </trkpt>
      <trkpt lat="46.9559" lon="5.835">
        <ele>343.754</ele>
      </trkpt>
      <trkpt lat="46.9552" lon="5.83485">
        <ele>347</ele>
      </trkpt>
      <trkpt lat="46.9535" lon="5.83464">
        <ele>342.79</ele>
      </trkpt>
      <trkpt lat="46.95256" lon="5.83399">
        <ele>338.339</ele>
      </trkpt>
      <trkpt lat="46.95151" lon="5.83341">
        <ele>333.8</ele>
      </trkpt>
      <trkpt lat="46.95115" lon="5.83311">
        <ele>330.828</ele>
      </trkpt>
      <trkpt lat="46.95067" lon="5.83274">
        <ele>328.949</ele>
      </trkpt>
      <trkpt lat="46.95033" lon="5.83253">
        <ele>330.417</ele>
      </trkpt>
      <trkpt lat="46.95033" lon="5.83253">
        <ele>330.417</ele>
      </trkpt>
      <trkpt lat="46.95" lon="5.83235">
        <ele>333.558</ele>
      </trkpt>
      <trkpt lat="46.95006" lon="5.83095">
        <ele>338.576</ele>
      </trkpt>
      <trkpt lat="46.95005" lon="5.83058">
        <ele>339.912</ele>
      </trkpt>
      <trkpt lat="46.95004" lon="5.83035">
        <ele>341.509</ele>
      </trkpt>
      <trkpt lat="46.95003" lon="5.82965">
        <ele>345.112</ele>
      </trkpt>
      <trkpt lat="46.95003" lon="5.82924">
        <ele>346.52</ele>
      </trkpt>
      <trkpt lat="46.94999" lon="5.82855">
        <ele>348.05</ele>
      </trkpt>
      <trkpt lat="46.94985" lon="5.82649">
        <ele>352.396</ele>
      </trkpt>
      <trkpt lat="46.94987" lon="5.82649">
        <ele>352.267</ele>
      </trkpt>
      <trkpt lat="46.95034" lon="5.82554">
        <ele>351.576</ele>
      </trkpt>
      <trkpt lat="46.95114" lon="5.82387">
        <ele>355.877</ele>
      </trkpt>
      <trkpt lat="46.95114" lon="5.82386">
        <ele>355.859</ele>
      </trkpt>
      <trkpt lat="46.95169" lon="5.82223">
        <ele>353.998</ele>
      </trkpt>
      <trkpt lat="46.95198" lon="5.82123">
        <ele>357.527</ele>
      </trkpt>
      <trkpt lat="46.95233" lon="5.82019">
        <ele>359.395</ele>
      </trkpt>
      <trkpt lat="46.95237" lon="5.8185">
        <ele>359.078</ele>
      </trkpt>
      <trkpt lat="46.952" lon="5.81669">
        <ele>356.248</ele>
      </trkpt>
      <trkpt lat="46.95238" lon="5.81559">
        <ele>352.588</ele>
      </trkpt>
      <trkpt lat="46.95227" lon="5.81483">
        <ele>349.6</ele>
      </trkpt>
      <trkpt lat="46.95124" lon="5.81422">
        <ele>343.889</ele>
      </trkpt>
      <trkpt lat="46.95102" lon="5.81404">
        <ele>343.218</ele>
      </trkpt>
      <trkpt lat="46.95055" lon="5.81325">
        <ele>341.727</ele>
      </trkpt>
      <trkpt lat="46.9485" lon="5.81032">
        <ele>343.906</ele>
      </trkpt>
      <trkpt lat="46.94845" lon="5.81023">
        <ele>344</ele>
      </trkpt>
      <trkpt lat="46.94791" lon="5.80911">
        <ele>348.211</ele>
      </trkpt>
      <trkpt lat="46.94791" lon="5.80911">
        <ele>348.211</ele>
      </trkpt>
      <trkpt lat="46.9478" lon="5.80819">
        <ele>352.443</ele>
      </trkpt>
      <trkpt lat="46.94772" lon="5.80743">
        <ele>355.441</ele>
      </trkpt>
      <trkpt lat="46.94754" lon="5.807">
        <ele>357.613</ele>
      </trkpt>
      <trkpt lat="46.94708" lon="5.80607">
        <ele>362.153</ele>
      </trkpt>
      <trkpt lat="46.94677" lon="5.80379">
        <ele>369.546</ele>
      </trkpt>
      <trkpt lat="46.94666" lon="5.80321">
        <ele>369.73</ele>
      </trkpt>
      <trkpt lat="46.94643" lon="5.80253">
        <ele>366.535</ele>
      </trkpt>
      <trkpt lat="46.9462" lon="5.80131">
        <ele>363.941</ele>
      </trkpt>
      <trkpt lat="46.94618" lon="5.80032">
        <ele>357.983</ele>
      </trkpt>
      <trkpt lat="46.94622" lon="5.79957">
        <ele>352.965</ele>
      </trkpt>
      <trkpt lat="46.94646" lon="5.79882">
        <ele>347.101</ele>
      </trkpt>
      <trkpt lat="46.94656" lon="5.79843">
        <ele>345.312</ele>
      </trkpt>
      <trkpt lat="46.9466" lon="5.79807">
        <ele>342.919</ele>
      </trkpt>
      <trkpt lat="46.94681" lon="5.79737">
        <ele>338.129</ele>
      </trkpt>
      <trkpt lat="46.94683" lon="5.79696">
        <ele>334.872</ele>
      </trkpt>
      <trkpt lat="46.94681" lon="5.79655">
        <ele>330.719</ele>
      </trkpt>
      <trkpt lat="46.94687" lon="5.79599">
        <ele>327.153</ele>
      </trkpt>
      <trkpt lat="46.94687" lon="5.79596">
        <ele>326.932</ele>
      </trkpt>
      <trkpt lat="46.94689" lon="5.79522">
        <ele>323.135</ele>
      </trkpt>
      <trkpt lat="46.94683" lon="5.79389">
        <ele>315.201</ele>
      </trkpt>
      <trkpt lat="46.94686" lon="5.79306">
        <ele>310.472</ele>
      </trkpt>
      <trkpt lat="46.94697" lon="5.79205">
        <ele>304.402</ele>
      </trkpt>
      <trkpt lat="46.94691" lon="5.79125">
        <ele>302.068</ele>
      </trkpt>
      <trkpt lat="46.94637" lon="5.78745">
        <ele>295.823</ele>
      </trkpt>
      <trkpt lat="46.94619" lon="5.78607">
        <ele>292.116</ele>
      </trkpt>
      <trkpt lat="46.94597" lon="5.78463">
        <ele>286.699</ele>
      </trkpt>
      <trkpt lat="46.94583" lon="5.78369">
        <ele>286.262</ele>
      </trkpt>
      <trkpt lat="46.94559" lon="5.78206">
        <ele>290.516</ele>
      </trkpt>
      <trkpt lat="46.94588" lon="5.78123">
        <ele>293.474</ele>
      </trkpt>
      <trkpt lat="46.9459" lon="5.78118">
        <ele>293.58</ele>
      </trkpt>
      <trkpt lat="46.94614" lon="5.78038">
        <ele>293.328</ele>
      </trkpt>
      <trkpt lat="46.94612" lon="5.78036">
        <ele>293.296</ele>
      </trkpt>
      <trkpt lat="46.94549" lon="5.77998">
        <ele>296.257</ele>
      </trkpt>
      <trkpt lat="46.94427" lon="5.77899">
        <ele>297.784</ele>
      </trkpt>
      <trkpt lat="46.94215" lon="5.77637">
        <ele>297.511</ele>
      </trkpt>
      <trkpt lat="46.94139" lon="5.77535">
        <ele>299.728</ele>
      </trkpt>
      <trkpt lat="46.94063" lon="5.77435">
        <ele>300.942</ele>
      </trkpt>
      <trkpt lat="46.94044" lon="5.7741">
        <ele>301.44</ele>
      </trkpt>
      <trkpt lat="46.93962" lon="5.77302">
        <ele>299.796</ele>
      </trkpt>
      <trkpt lat="46.93853" lon="5.77121">
        <ele>298.898</ele>
      </trkpt>
      <trkpt lat="46.93804" lon="5.77041">
        <ele>303.461</ele>
      </trkpt>
      <trkpt lat="46.9376" lon="5.76902">
        <ele>307.915</ele>
      </trkpt>
      <trkpt lat="46.93748" lon="5.76873">
        <ele>309.35</ele>
      </trkpt>
      <trkpt lat="46.93689" lon="5.76981">
        <ele>308.113</ele>
      </trkpt>
      <trkpt lat="46.93526" lon="5.76977">
        <ele>318.739</ele>
      </trkpt>
      <trkpt lat="46.93514" lon="5.76951">
        <ele>320.63</ele>
      </trkpt>
      <trkpt lat="46.93439" lon="5.76991">
        <ele>322.934</ele>
      </trkpt>
      <trkpt lat="46.93413" lon="5.77014">
        <ele>325.032</ele>
      </trkpt>
      <trkpt lat="46.93387" lon="5.7707">
        <ele>330.193</ele>
      </trkpt>
      <trkpt lat="46.93313" lon="5.77205">
        <ele>331.545</ele>
      </trkpt>
      <trkpt lat="46.93238" lon="5.77277">
        <ele>336.386</ele>
      </trkpt>
      <trkpt lat="46.93154" lon="5.77354">
        <ele>342.459</ele>
      </trkpt>
      <trkpt lat="46.93125" lon="5.77382">
        <ele>343.77</ele>
      </trkpt>
      <trkpt lat="46.93089" lon="5.77373">
        <ele>342.552</ele>
      </trkpt>
      <trkpt lat="46.93053" lon="5.77343">
        <ele>341.085</ele>
      </trkpt>
      <trkpt lat="46.93048" lon="5.77328">
        <ele>339.96</ele>
      </trkpt>
      <trkpt lat="46.93076" lon="5.77194">
        <ele>330.709</ele>
      </trkpt>
      <trkpt lat="46.93096" lon="5.77125">
        <ele>327.684</ele>
      </trkpt>
      <trkpt lat="46.93092" lon="5.77035">
        <ele>322.572</ele>
      </trkpt>
      <trkpt lat="46.93092" lon="5.77035">
        <ele>322.572</ele>
      </trkpt>
      <trkpt lat="46.93034" lon="5.76984">
        <ele>317.079</ele>
      </trkpt>
      <trkpt lat="46.9296" lon="5.76942">
        <ele>310.607</ele>
      </trkpt>
      <trkpt lat="46.92933" lon="5.77046">
        <ele>309.105</ele>
      </trkpt>
      <trkpt lat="46.92865" lon="5.77095">
        <ele>300.416</ele>
      </trkpt>
      <trkpt lat="46.92826" lon="5.771">
        <ele>299.889</ele>
      </trkpt>
      <trkpt lat="46.92768" lon="5.77116">
        <ele>299.244</ele>
      </trkpt>
      <trkpt lat="46.92648" lon="5.77168">
        <ele>301.589</ele>
      </trkpt>
      <trkpt lat="46.92612" lon="5.77177">
        <ele>305.593</ele>
      </trkpt>
      <trkpt lat="46.92552" lon="5.77169">
        <ele>310.076</ele>
      </trkpt>
      <trkpt lat="46.92616" lon="5.76931">
        <ele>306.362</ele>
      </trkpt>
      <trkpt lat="46.9255" lon="5.76741">
        <ele>301.473</ele>
      </trkpt>
      <trkpt lat="46.9255" lon="5.76741">
        <ele>301.473</ele>
      </trkpt>
      <trkpt lat="46.92557" lon="5.76693">
        <ele>297.92</ele>
      </trkpt>
      <trkpt lat="46.92525" lon="5.76566">
        <ele>290.131</ele>
      </trkpt>
      <trkpt lat="46.92429" lon="5.76466">
        <ele>280.112</ele>
      </trkpt>
      <trkpt lat="46.92403" lon="5.76439">
        <ele>276.78</ele>
      </trkpt>
      <trkpt lat="46.92226" lon="5.76689">
        <ele>273.306</ele>
      </trkpt>
      <trkpt lat="46.92014" lon="5.76874">
        <ele>273.5</ele>
      </trkpt>
      <trkpt lat="46.91737" lon="5.76943">
        <ele>274.833</ele>
      </trkpt>
      <trkpt lat="46.91635" lon="5.76971">
        <ele>276.843</ele>
      </trkpt>
      <trkpt lat="46.91491" lon="5.76952">
        <ele>278.872</ele>
      </trkpt>
      <trkpt lat="46.9141" lon="5.76884">
        <ele>272.356</ele>
      </trkpt>
      <trkpt lat="46.91353" lon="5.76815">
        <ele>268.53</ele>
      </trkpt>
      <trkpt lat="46.91322" lon="5.76772">
        <ele>267.603</ele>
      </trkpt>
      <trkpt lat="46.91274" lon="5.7684">
        <ele>268.829</ele>
      </trkpt>
      <trkpt lat="46.91243" lon="5.76909">
        <ele>268.789</ele>
      </trkpt>
      <trkpt lat="46.91173" lon="5.77036">
        <ele>275.946</ele>
      </trkpt>
      <trkpt lat="46.91173" lon="5.77036">
        <ele>275.946</ele>
      </trkpt>
      <trkpt lat="46.91098" lon="5.77042">
        <ele>271.305</ele>
      </trkpt>
      <trkpt lat="46.90947" lon="5.77002">
        <ele>269.915</ele>
      </trkpt>
      <trkpt lat="46.90867" lon="5.76933">
        <ele>272.866</ele>
      </trkpt>
      <trkpt lat="46.90863" lon="5.76922">
        <ele>272.985</ele>
      </trkpt>
      <trkpt lat="46.91018" lon="5.76665">
        <ele>270.255</ele>
      </trkpt>
      <trkpt lat="46.91166" lon="5.76365">
        <ele>271.079</ele>
      </trkpt>
      <trkpt lat="46.91223" lon="5.76248">
        <ele>270.045</ele>
      </trkpt>
      <trkpt lat="46.91272" lon="5.76114">
        <ele>267.387</ele>
      </trkpt>
      <trkpt lat="46.91274" lon="5.76108">
        <ele>267.229</ele>
      </trkpt>
      <trkpt lat="46.91272" lon="5.75833">
        <ele>267.211</ele>
      </trkpt>
      <trkpt lat="46.91213" lon="5.75839">
        <ele>271.196</ele>
      </trkpt>
      <trkpt lat="46.91203" lon="5.75817">
        <ele>271.161</ele>
      </trkpt>
      <trkpt lat="46.91174" lon="5.7575">
        <ele>280.683</ele>
      </trkpt>
      <trkpt lat="46.91157" lon="5.75724">
        <ele>284.902</ele>
      </trkpt>
      <trkpt lat="46.91117" lon="5.75667">
        <ele>287.182</ele>
      </trkpt>
      <trkpt lat="46.91071" lon="5.75629">
        <ele>291.497</ele>
      </trkpt>
      <trkpt lat="46.91006" lon="5.75627">
        <ele>299.853</ele>
      </trkpt>
      <trkpt lat="46.90962" lon="5.75605">
        <ele>306.707</ele>
      </trkpt>
      <trkpt lat="46.90841" lon="5.75703">
        <ele>311.626</ele>
      </trkpt>
      <trkpt lat="46.90796" lon="5.75671">
        <ele>312.216</ele>
      </trkpt>
      <trkpt lat="46.90724" lon="5.75728">
        <ele>314.447</ele>
      </trkpt>
      <trkpt lat="46.90694" lon="5.75817">
        <ele>320.048</ele>
      </trkpt>
      <trkpt lat="46.90545" lon="5.75784">
        <ele>323.23</ele>
      </trkpt>
      <trkpt lat="46.90539" lon="5.75782">
        <ele>323.532</ele>
      </trkpt>
      <trkpt lat="46.90384" lon="5.7577">
        <ele>327.801</ele>
      </trkpt>
      <trkpt lat="46.90298" lon="5.75782">
        <ele>322.91</ele>
      </trkpt>
      <trkpt lat="46.9029" lon="5.75785">
        <ele>322.717</ele>
      </trkpt>
      <trkpt lat="46.90211" lon="5.75761">
        <ele>328.598</ele>
      </trkpt>
      <trkpt lat="46.90197" lon="5.75745">
        <ele>330.325</ele>
      </trkpt>
      <trkpt lat="46.90194" lon="5.757">
        <ele>333.752</ele>
      </trkpt>
      <trkpt lat="46.902" lon="5.75659">
        <ele>333.597</ele>
      </trkpt>
      <trkpt lat="46.90264" lon="5.75396">
        <ele>329.499</ele>
      </trkpt>
      <trkpt lat="46.90266" lon="5.75373">
        <ele>329.069</ele>
      </trkpt>
      <trkpt lat="46.90291" lon="5.75213">
        <ele>324.838</ele>
      </trkpt>
      <trkpt lat="46.90302" lon="5.75165">
        <ele>323.121</ele>
      </trkpt>
      <trkpt lat="46.90343" lon="5.75057">
        <ele>321.036</ele>
      </trkpt>
      <trkpt lat="46.90223" lon="5.7497">
        <ele>316.024</ele>
      </trkpt>
      <trkpt lat="46.90063" lon="5.74979">
        <ele>320.138</ele>
      </trkpt>
      <trkpt lat="46.89871" lon="5.74931">
        <ele>318.24</ele>
      </trkpt>
      <trkpt lat="46.89819" lon="5.74911">
        <ele>315.893</ele>
      </trkpt>
      <trkpt lat="46.89782" lon="5.74875">
        <ele>317.182</ele>
      </trkpt>
      <trkpt lat="46.89757" lon="5.74839">
        <ele>320.458</ele>
      </trkpt>
      <trkpt lat="46.89702" lon="5.7482">
        <ele>326.025</ele>
      </trkpt>
      <trkpt lat="46.89632" lon="5.74852">
        <ele>331.164</ele>
      </trkpt>
      <trkpt lat="46.89632" lon="5.74852">
        <ele>331.164</ele>
      </trkpt>
      <trkpt lat="46.89571" lon="5.74872">
        <ele>336.905</ele>
      </trkpt>
      <trkpt lat="46.89518" lon="5.74887">
        <ele>343.994</ele>
      </trkpt>
      <trkpt lat="46.89434" lon="5.74906">
        <ele>349.627</ele>
      </trkpt>
      <trkpt lat="46.89432" lon="5.74906">
        <ele>349.616</ele>
      </trkpt>
      <trkpt lat="46.89352" lon="5.74894">
        <ele>355.454</ele>
      </trkpt>
      <trkpt lat="46.89328" lon="5.74876">
        <ele>358.63</ele>
      </trkpt>
      <trkpt lat="46.89298" lon="5.74828">
        <ele>361.502</ele>
      </trkpt>
      <trkpt lat="46.89264" lon="5.748">
        <ele>363.352</ele>
      </trkpt>
      <trkpt lat="46.89196" lon="5.74724">
        <ele>360.165</ele>
      </trkpt>
      <trkpt lat="46.89216" lon="5.74635">
        <ele>355.625</ele>
      </trkpt>
      <trkpt lat="46.89241" lon="5.74483">
        <ele>359.162</ele>
      </trkpt>
      <trkpt lat="46.89059" lon="5.74395">
        <ele>356.397</ele>
      </trkpt>
      <trkpt lat="46.89058" lon="5.74394">
        <ele>356.328</ele>
      </trkpt>
      <trkpt lat="46.89018" lon="5.74384">
        <ele>350.413</ele>
      </trkpt>
      <trkpt lat="46.89001" lon="5.74361">
        <ele>348.121</ele>
      </trkpt>
      <trkpt lat="46.89052" lon="5.74155">
        <ele>334.95</ele>
      </trkpt>
      <trkpt lat="46.89071" lon="5.74095">
        <ele>329.427</ele>
      </trkpt>
      <trkpt lat="46.89071" lon="5.74095">
        <ele>329.427</ele>
      </trkpt>
      <trkpt lat="46.8909" lon="5.74038">
        <ele>323.826</ele>
      </trkpt>
      <trkpt lat="46.89086" lon="5.74036">
        <ele>323.579</ele>
      </trkpt>
      <trkpt lat="46.89067" lon="5.73992">
        <ele>323.339</ele>
      </trkpt>
      <trkpt lat="46.8906" lon="5.73951">
        <ele>320.789</ele>
      </trkpt>
      <trkpt lat="46.89001" lon="5.73912">
        <ele>315.088</ele>
      </trkpt>
      <trkpt lat="46.89001" lon="5.73912">
        <ele>315.088</ele>
      </trkpt>
      <trkpt lat="46.88898" lon="5.73843">
        <ele>301.785</ele>
      </trkpt>
      <trkpt lat="46.88901" lon="5.73827">
        <ele>301.466</ele>
      </trkpt>
      <trkpt lat="46.89036" lon="5.73568">
        <ele>293.889</ele>
      </trkpt>
      <trkpt lat="46.8907" lon="5.73485">
        <ele>287.884</ele>
      </trkpt>
      <trkpt lat="46.89055" lon="5.73456">
        <ele>287.456</ele>
      </trkpt>
      <trkpt lat="46.89086" lon="5.73135">
        <ele>284.139</ele>
      </trkpt>
      <trkpt lat="46.89104" lon="5.73031">
        <ele>289.18</ele>
      </trkpt>
      <trkpt lat="46.89105" lon="5.73026">
        <ele>289.36</ele>
      </trkpt>
      <trkpt lat="46.8875" lon="5.72881">
        <ele>296.418</ele>
      </trkpt>
      <trkpt lat="46.88693" lon="5.72858">
        <ele>300.914</ele>
      </trkpt>
      <trkpt lat="46.88587" lon="5.72837">
        <ele>300.717</ele>
      </trkpt>
      <trkpt lat="46.88524" lon="5.72825">
        <ele>301.442</ele>
      </trkpt>
      <trkpt lat="46.88414" lon="5.72949">
        <ele>299.072</ele>
      </trkpt>
      <trkpt lat="46.88393" lon="5.72977">
        <ele>299.241</ele>
      </trkpt>
      <trkpt lat="46.88315" lon="5.73122">
        <ele>296.664</ele>
      </trkpt>
      <trkpt lat="46.88287" lon="5.73159">
        <ele>297.314</ele>
      </trkpt>
      <trkpt lat="46.88252" lon="5.73244">
        <ele>298.179</ele>
      </trkpt>
      <trkpt lat="46.88242" lon="5.7328">
        <ele>299.562</ele>
      </trkpt>
      <trkpt lat="46.88221" lon="5.73506">
        <ele>304.011</ele>
      </trkpt>
      <trkpt lat="46.882" lon="5.73562">
        <ele>305.617</ele>
      </trkpt>
      <trkpt lat="46.88184" lon="5.73601">
        <ele>306.632</ele>
      </trkpt>
      <trkpt lat="46.88156" lon="5.73783">
        <ele>311.202</ele>
      </trkpt>
      <trkpt lat="46.88174" lon="5.73856">
        <ele>316.543</ele>
      </trkpt>
      <trkpt lat="46.88165" lon="5.73892">
        <ele>320.355</ele>
      </trkpt>
      <trkpt lat="46.88127" lon="5.73934">
        <ele>324.148</ele>
      </trkpt>
      <trkpt lat="46.88088" lon="5.73988">
        <ele>328.734</ele>
      </trkpt>
      <trkpt lat="46.88048" lon="5.74073">
        <ele>337.023</ele>
      </trkpt>
      <trkpt lat="46.88046" lon="5.7408">
        <ele>337.772</ele>
      </trkpt>
      <trkpt lat="46.88021" lon="5.74191">
        <ele>349.876</ele>
      </trkpt>
      <trkpt lat="46.88016" lon="5.74266">
        <ele>358.92</ele>
      </trkpt>
      <trkpt lat="46.88008" lon="5.74407">
        <ele>369.721</ele>
      </trkpt>
      <trkpt lat="46.88023" lon="5.7449">
        <ele>378.01</ele>
      </trkpt>
      <trkpt lat="46.88065" lon="5.74627">
        <ele>395.557</ele>
      </trkpt>
      <trkpt lat="46.8807" lon="5.74682">
        <ele>398.594</ele>
      </trkpt>
      <trkpt lat="46.88109" lon="5.74764">
        <ele>401.907</ele>
      </trkpt>
      <trkpt lat="46.88202" lon="5.7513">
        <ele>412.951</ele>
      </trkpt>
      <trkpt lat="46.88209" lon="5.75268">
        <ele>419.632</ele>
      </trkpt>
      <trkpt lat="46.88222" lon="5.75418">
        <ele>425.071</ele>
      </trkpt>
      <trkpt lat="46.88224" lon="5.75481">
        <ele>428.813</ele>
      </trkpt>
      <trkpt lat="46.88222" lon="5.7549">
        <ele>429.345</ele>
      </trkpt>
      <trkpt lat="46.88201" lon="5.75526">
        <ele>433.758</ele>
      </trkpt>
      <trkpt lat="46.8818" lon="5.7555">
        <ele>437.066</ele>
      </trkpt>
      <trkpt lat="46.88174" lon="5.75568">
        <ele>439.176</ele>
      </trkpt>
      <trkpt lat="46.88175" lon="5.75578">
        <ele>440.319</ele>
      </trkpt>
      <trkpt lat="46.88251" lon="5.7565">
        <ele>453.171</ele>
      </trkpt>
      <trkpt lat="46.8826" lon="5.75677">
        <ele>457.192</ele>
      </trkpt>
      <trkpt lat="46.88182" lon="5.75744">
        <ele>461.749</ele>
      </trkpt>
      <trkpt lat="46.88166" lon="5.75757">
        <ele>462.76</ele>
      </trkpt>
      <trkpt lat="46.88208" lon="5.7583">
        <ele>460.068</ele>
      </trkpt>
      <trkpt lat="46.88263" lon="5.76003">
        <ele>463.313</ele>
      </trkpt>
      <trkpt lat="46.88265" lon="5.76061">
        <ele>466.094</ele>
      </trkpt>
      <trkpt lat="46.88271" lon="5.7609">
        <ele>466.989</ele>
      </trkpt>
      <trkpt lat="46.88259" lon="5.76178">
        <ele>474.797</ele>
      </trkpt>
      <trkpt lat="46.88253" lon="5.76211">
        <ele>479.585</ele>
      </trkpt>
      <trkpt lat="46.8825" lon="5.76251">
        <ele>484.004</ele>
      </trkpt>
      <trkpt lat="46.8825" lon="5.76251">
        <ele>484.004</ele>
      </trkpt>
      <trkpt lat="46.88217" lon="5.76262">
        <ele>490.976</ele>
      </trkpt>
      <trkpt lat="46.88189" lon="5.76247">
        <ele>495.829</ele>
      </trkpt>
      <trkpt lat="46.88163" lon="5.7623">
        <ele>499.758</ele>
      </trkpt>
      <trkpt lat="46.88143" lon="5.76222">
        <ele>502.403</ele>
      </trkpt>
      <trkpt lat="46.88113" lon="5.76224">
        <ele>506.839</ele>
      </trkpt>
      <trkpt lat="46.88074" lon="5.76227">
        <ele>512.266</ele>
      </trkpt>
      <trkpt lat="46.88051" lon="5.76234">
        <ele>515.289</ele>
      </trkpt>
      <trkpt lat="46.88036" lon="5.76246">
        <ele>517.824</ele>
      </trkpt>
      <trkpt lat="46.88032" lon="5.76255">
        <ele>519.038</ele>
      </trkpt>
      <trkpt lat="46.88028" lon="5.76277">
        <ele>521.841</ele>
      </trkpt>
      <trkpt lat="46.88035" lon="5.7632">
        <ele>527.443</ele>
      </trkpt>
      <trkpt lat="46.88051" lon="5.76367">
        <ele>533.007</ele>
      </trkpt>
      <trkpt lat="46.88077" lon="5.76419">
        <ele>540.004</ele>
      </trkpt>
      <trkpt lat="46.881" lon="5.76461">
        <ele>545.099</ele>
      </trkpt>
      <trkpt lat="46.88113" lon="5.76501">
        <ele>547.846</ele>
      </trkpt>
      <trkpt lat="46.88112" lon="5.76512">
        <ele>550.436</ele>
      </trkpt>
      <trkpt lat="46.88073" lon="5.76497">
        <ele>556.446</ele>
      </trkpt>
      <trkpt lat="46.88035" lon="5.76478">
        <ele>561.8</ele>
      </trkpt>
      <trkpt lat="46.88002" lon="5.76476">
        <ele>565.47</ele>
      </trkpt>
      <trkpt lat="46.87962" lon="5.76468">
        <ele>569.673</ele>
      </trkpt>
      <trkpt lat="46.87933" lon="5.76473">
        <ele>572.416</ele>
      </trkpt>
      <trkpt lat="46.87888" lon="5.76485">
        <ele>576.555</ele>
      </trkpt>
      <trkpt lat="46.87843" lon="5.7663">
        <ele>570.115</ele>
      </trkpt>
      <trkpt lat="46.87829" lon="5.76651">
        <ele>569.826</ele>
      </trkpt>
      <trkpt lat="46.87671" lon="5.76967">
        <ele>570.654</ele>
      </trkpt>
      <trkpt lat="46.87607" lon="5.77125">
        <ele>567.339</ele>
      </trkpt>
      <trkpt lat="46.87594" lon="5.77148">
        <ele>566.867</ele>
      </trkpt>
      <trkpt lat="46.87465" lon="5.77356">
        <ele>568.935</ele>
      </trkpt>
      <trkpt lat="46.87414" lon="5.77372">
        <ele>573.852</ele>
      </trkpt>
      <trkpt lat="46.87391" lon="5.77386">
        <ele>577.626</ele>
      </trkpt>
      <trkpt lat="46.87389" lon="5.77452">
        <ele>580.239</ele>
      </trkpt>
      <trkpt lat="46.87374" lon="5.77589">
        <ele>580.957</ele>
      </trkpt>
      <trkpt lat="46.87321" lon="5.77784">
        <ele>586.76</ele>
      </trkpt>
      <trkpt lat="46.87277" lon="5.77887">
        <ele>592.918</ele>
      </trkpt>
      <trkpt lat="46.87214" lon="5.78185">
        <ele>591.323</ele>
      </trkpt>
      <trkpt lat="46.87095" lon="5.78402">
        <ele>583.579</ele>
      </trkpt>
      <trkpt lat="46.87095" lon="5.78402">
        <ele>583.579</ele>
      </trkpt>
      <trkpt lat="46.87065" lon="5.78483">
        <ele>588.322</ele>
      </trkpt>
      <trkpt lat="46.87059" lon="5.78505">
        <ele>589.145</ele>
      </trkpt>
      <trkpt lat="46.87208" lon="5.78822">
        <ele>588.783</ele>
      </trkpt>
      <trkpt lat="46.87247" lon="5.78922">
        <ele>584.03</ele>
      </trkpt>
      <trkpt lat="46.87244" lon="5.79005">
        <ele>578.442</ele>
      </trkpt>
      <trkpt lat="46.87204" lon="5.79055">
        <ele>576.358</ele>
      </trkpt>
      <trkpt lat="46.87168" lon="5.79173">
        <ele>568.717</ele>
      </trkpt>
      <trkpt lat="46.87161" lon="5.79239">
        <ele>565.085</ele>
      </trkpt>
      <trkpt lat="46.87154" lon="5.79278">
        <ele>563.062</ele>
      </trkpt>
      <trkpt lat="46.86923" lon="5.79968">
        <ele>558.863</ele>
      </trkpt>
      <trkpt lat="46.869" lon="5.80011">
        <ele>558.458</ele>
      </trkpt>
      <trkpt lat="46.86777" lon="5.80189">
        <ele>560.787</ele>
      </trkpt>
      <trkpt lat="46.86763" lon="5.80335">
        <ele>555.078</ele>
      </trkpt>
      <trkpt lat="46.86747" lon="5.80348">
        <ele>554.753</ele>
      </trkpt>
      <trkpt lat="46.86735" lon="5.80344">
        <ele>554.556</ele>
      </trkpt>
      <trkpt lat="46.86672" lon="5.80363">
        <ele>549.095</ele>
      </trkpt>
      <trkpt lat="46.86641" lon="5.80365">
        <ele>547.113</ele>
      </trkpt>
      <trkpt lat="46.86597" lon="5.80359">
        <ele>545.26</ele>
      </trkpt>
      <trkpt lat="46.86554" lon="5.80418">
        <ele>542.158</ele>
      </trkpt>
      <trkpt lat="46.86526" lon="5.80507">
        <ele>536.41</ele>
      </trkpt>
      <trkpt lat="46.86536" lon="5.8053">
        <ele>535.255</ele>
      </trkpt>
      <trkpt lat="46.86536" lon="5.8053">
        <ele>535.255</ele>
      </trkpt>
      <trkpt lat="46.86558" lon="5.80547">
        <ele>532.803</ele>
      </trkpt>
      <trkpt lat="46.86574" lon="5.80545">
        <ele>531.293</ele>
      </trkpt>
      <trkpt lat="46.86586" lon="5.80563">
        <ele>529.909</ele>
      </trkpt>
      <trkpt lat="46.86586" lon="5.80599">
        <ele>531.297</ele>
      </trkpt>
      <trkpt lat="46.86591" lon="5.80623">
        <ele>532.374</ele>
      </trkpt>
      <trkpt lat="46.8661" lon="5.8066">
        <ele>534.168</ele>
      </trkpt>
      <trkpt lat="46.86646" lon="5.80702">
        <ele>534.97</ele>
      </trkpt>
      <trkpt lat="46.8667" lon="5.81001">
        <ele>538.993</ele>
      </trkpt>
      <trkpt lat="46.8665" lon="5.8104">
        <ele>538.394</ele>
      </trkpt>
      <trkpt lat="46.86441" lon="5.81211">
        <ele>538.596</ele>
      </trkpt>
      <trkpt lat="46.86304" lon="5.81319">
        <ele>541.555</ele>
      </trkpt>
      <trkpt lat="46.8601" lon="5.814">
        <ele>543.604</ele>
      </trkpt>
      <trkpt lat="46.85853" lon="5.81443">
        <ele>540.948</ele>
      </trkpt>
      <trkpt lat="46.85778" lon="5.81461">
        <ele>540.592</ele>
      </trkpt>
      <trkpt lat="46.85532" lon="5.81555">
        <ele>543.843</ele>
      </trkpt>
      <trkpt lat="46.8527" lon="5.8166">
        <ele>547.361</ele>
      </trkpt>
      <trkpt lat="46.85215" lon="5.81684">
        <ele>547.892</ele>
      </trkpt>
      <trkpt lat="46.85131" lon="5.81731">
        <ele>552.347</ele>
      </trkpt>
      <trkpt lat="46.84647" lon="5.81711">
        <ele>567.185</ele>
      </trkpt>
      <trkpt lat="46.84506" lon="5.81719">
        <ele>573.414</ele>
      </trkpt>
      <trkpt lat="46.8443" lon="5.81743">
        <ele>577.016</ele>
      </trkpt>
      <trkpt lat="46.84344" lon="5.81816">
        <ele>579.999</ele>
      </trkpt>
      <trkpt lat="46.84338" lon="5.81822">
        <ele>580.232</ele>
      </trkpt>
      <trkpt lat="46.84121" lon="5.819">
        <ele>579.407</ele>
      </trkpt>
      <trkpt lat="46.83663" lon="5.82019">
        <ele>577.677</ele>
      </trkpt>
      <trkpt lat="46.83459" lon="5.82073">
        <ele>580.308</ele>
      </trkpt>
      <trkpt lat="46.83114" lon="5.8216">
        <ele>582.538</ele>
      </trkpt>
      <trkpt lat="46.83002" lon="5.81928">
        <ele>574.921</ele>
      </trkpt>
      <trkpt lat="46.82957" lon="5.8185">
        <ele>569.334</ele>
      </trkpt>
      <trkpt lat="46.82813" lon="5.81571">
        <ele>571.592</ele>
      </trkpt>
      <trkpt lat="46.82807" lon="5.8156">
        <ele>571.956</ele>
      </trkpt>
      <trkpt lat="46.82693" lon="5.81356">
        <ele>576.14</ele>
      </trkpt>
      <trkpt lat="46.82574" lon="5.81298">
        <ele>571.783</ele>
      </trkpt>
      <trkpt lat="46.82408" lon="5.81171">
        <ele>572.213</ele>
      </trkpt>
      <trkpt lat="46.82426" lon="5.81047">
        <ele>575.434</ele>
      </trkpt>
      <trkpt lat="46.82436" lon="5.80977">
        <ele>577.304</ele>
      </trkpt>
      <trkpt lat="46.82475" lon="5.80855">
        <ele>579.775</ele>
      </trkpt>
      <trkpt lat="46.82428" lon="5.80722">
        <ele>577</ele>
      </trkpt>
      <trkpt lat="46.82332" lon="5.8064">
        <ele>578.949</ele>
      </trkpt>
      <trkpt lat="46.8231" lon="5.80593">
        <ele>579.967</ele>
      </trkpt>
      <trkpt lat="46.82203" lon="5.80658">
        <ele>583.941</ele>
      </trkpt>
      <trkpt lat="46.82062" lon="5.80623">
        <ele>578.656</ele>
      </trkpt>
      <trkpt lat="46.81994" lon="5.80576">
        <ele>573.86</ele>
      </trkpt>
      <trkpt lat="46.81949" lon="5.80546">
        <ele>572.893</ele>
      </trkpt>
      <trkpt lat="46.81847" lon="5.80511">
        <ele>569.577</ele>
      </trkpt>
      <trkpt lat="46.81792" lon="5.80485">
        <ele>568.544</ele>
      </trkpt>
      <trkpt lat="46.81538" lon="5.8037">
        <ele>570.611</ele>
      </trkpt>
      <trkpt lat="46.81401" lon="5.80249">
        <ele>574.021</ele>
      </trkpt>
      <trkpt lat="46.81391" lon="5.8023">
        <ele>574.048</ele>
      </trkpt>
      <trkpt lat="46.81273" lon="5.79997">
        <ele>575.24</ele>
      </trkpt>
      <trkpt lat="46.81273" lon="5.79997">
        <ele>575.24</ele>
      </trkpt>
      <trkpt lat="46.81092" lon="5.79878">
        <ele>573</ele>
      </trkpt>
      <trkpt lat="46.80728" lon="5.79861">
        <ele>566.22</ele>
      </trkpt>
      <trkpt lat="46.80577" lon="5.79856">
        <ele>564.202</ele>
      </trkpt>
      <trkpt lat="46.80317" lon="5.79846">
        <ele>564.266</ele>
      </trkpt>
      <trkpt lat="46.80264" lon="5.79844">
        <ele>562.515</ele>
      </trkpt>
      <trkpt lat="46.80228" lon="5.79842">
        <ele>562.56</ele>
      </trkpt>
      <trkpt lat="46.7983" lon="5.79827">
        <ele>561.684</ele>
      </trkpt>
      <trkpt lat="46.79495" lon="5.79811">
        <ele>558.166</ele>
      </trkpt>
      <trkpt lat="46.79382" lon="5.79809">
        <ele>554.861</ele>
      </trkpt>
      <trkpt lat="46.79306" lon="5.79808">
        <ele>552.09</ele>
      </trkpt>
      <trkpt lat="46.79206" lon="5.79791">
        <ele>549.201</ele>
      </trkpt>
      <trkpt lat="46.79004" lon="5.79736">
        <ele>550.849</ele>
      </trkpt>
      <trkpt lat="46.78759" lon="5.7962">
        <ele>547.526</ele>
      </trkpt>
      <trkpt lat="46.78702" lon="5.79589">
        <ele>543.547</ele>
      </trkpt>
      <trkpt lat="46.78643" lon="5.795">
        <ele>538.256</ele>
      </trkpt>
      <trkpt lat="46.78639" lon="5.79494">
        <ele>537.748</ele>
      </trkpt>
      <trkpt lat="46.78574" lon="5.79499">
        <ele>535</ele>
      </trkpt>
      <trkpt lat="46.78415" lon="5.79388">
        <ele>529.926</ele>
      </trkpt>
      <trkpt lat="46.78326" lon="5.79324">
        <ele>526.722</ele>
      </trkpt>
      <trkpt lat="46.78259" lon="5.79264">
        <ele>525</ele>
      </trkpt>
      <trkpt lat="46.78021" lon="5.79061">
        <ele>525.955</ele>
      </trkpt>
      <trkpt lat="46.77809" lon="5.78841">
        <ele>524.748</ele>
      </trkpt>
      <trkpt lat="46.77703" lon="5.78691">
        <ele>523.121</ele>
      </trkpt>
      <trkpt lat="46.77561" lon="5.78521">
        <ele>523</ele>
      </trkpt>
      <trkpt lat="46.77489" lon="5.7822">
        <ele>525.025</ele>
      </trkpt>
      <trkpt lat="46.77475" lon="5.78173">
        <ele>527.99</ele>
      </trkpt>
      <trkpt lat="46.77465" lon="5.78161">
        <ele>530.05</ele>
      </trkpt>
      <trkpt lat="46.77319" lon="5.78171">
        <ele>538.353</ele>
      </trkpt>
      <trkpt lat="46.77187" lon="5.78178">
        <ele>544.325</ele>
      </trkpt>
      <trkpt lat="46.76995" lon="5.78216">
        <ele>554.145</ele>
      </trkpt>
      <trkpt lat="46.76901" lon="5.78254">
        <ele>556.147</ele>
      </trkpt>
      <trkpt lat="46.76823" lon="5.78277">
        <ele>556.983</ele>
      </trkpt>
      <trkpt lat="46.76566" lon="5.78345">
        <ele>557.885</ele>
      </trkpt>
      <trkpt lat="46.76304" lon="5.78415">
        <ele>560.824</ele>
      </trkpt>
      <trkpt lat="46.75933" lon="5.78586">
        <ele>565.468</ele>
      </trkpt>
      <trkpt lat="46.75887" lon="5.78607">
        <ele>568.808</ele>
      </trkpt>
      <trkpt lat="46.75856" lon="5.78612">
        <ele>570.177</ele>
      </trkpt>
      <trkpt lat="46.75825" lon="5.78608">
        <ele>571.405</ele>
      </trkpt>
      <trkpt lat="46.75781" lon="5.78582">
        <ele>573.902</ele>
      </trkpt>
      <trkpt lat="46.75656" lon="5.78446">
        <ele>581.342</ele>
      </trkpt>
      <trkpt lat="46.75593" lon="5.78375">
        <ele>583.815</ele>
      </trkpt>
      <trkpt lat="46.75536" lon="5.78312">
        <ele>587.269</ele>
      </trkpt>
      <trkpt lat="46.75387" lon="5.78262">
        <ele>593.956</ele>
      </trkpt>
      <trkpt lat="46.753" lon="5.7824">
        <ele>596.519</ele>
      </trkpt>
      <trkpt lat="46.75132" lon="5.7832">
        <ele>600.363</ele>
      </trkpt>
      <trkpt lat="46.75008" lon="5.7802">
        <ele>605.494</ele>
      </trkpt>
      <trkpt lat="46.74964" lon="5.77932">
        <ele>609.078</ele>
      </trkpt>
      <trkpt lat="46.74929" lon="5.77808">
        <ele>614.51</ele>
      </trkpt>
      <trkpt lat="46.74911" lon="5.77755">
        <ele>617.076</ele>
      </trkpt>
      <trkpt lat="46.7487" lon="5.77708">
        <ele>620.446</ele>
      </trkpt>
      <trkpt lat="46.74839" lon="5.77669">
        <ele>619.96</ele>
      </trkpt>
      <trkpt lat="46.74794" lon="5.77594">
        <ele>620.219</ele>
      </trkpt>
      <trkpt lat="46.74783" lon="5.77576">
        <ele>620.342</ele>
      </trkpt>
      <trkpt lat="46.74735" lon="5.77499">
        <ele>620.05</ele>
      </trkpt>
      <trkpt lat="46.74498" lon="5.77417">
        <ele>624.933</ele>
      </trkpt>
      <trkpt lat="46.7448" lon="5.77418">
        <ele>624.208</ele>
      </trkpt>
      <trkpt lat="46.74443" lon="5.77403">
        <ele>622.278</ele>
      </trkpt>
      <trkpt lat="46.74411" lon="5.77383">
        <ele>619.875</ele>
      </trkpt>
      <trkpt lat="46.74393" lon="5.77367">
        <ele>618.917</ele>
      </trkpt>
      <trkpt lat="46.74252" lon="5.77265">
        <ele>611.153</ele>
      </trkpt>
      <trkpt lat="46.74156" lon="5.77215">
        <ele>609.282</ele>
      </trkpt>
      <trkpt lat="46.73968" lon="5.76955">
        <ele>610.163</ele>
      </trkpt>
      <trkpt lat="46.73927" lon="5.76899">
        <ele>611.856</ele>
      </trkpt>
      <trkpt lat="46.73845" lon="5.76829">
        <ele>615.956</ele>
      </trkpt>
      <trkpt lat="46.73758" lon="5.76667">
        <ele>610.014</ele>
      </trkpt>
      <trkpt lat="46.73749" lon="5.76636">
        <ele>608.874</ele>
      </trkpt>
      <trkpt lat="46.73731" lon="5.76515">
        <ele>606.006</ele>
      </trkpt>
      <trkpt lat="46.73712" lon="5.76392">
        <ele>604.361</ele>
      </trkpt>
      <trkpt lat="46.73603" lon="5.76052">
        <ele>605.452</ele>
      </trkpt>
      <trkpt lat="46.73485" lon="5.75808">
        <ele>602.042</ele>
      </trkpt>
      <trkpt lat="46.7343" lon="5.75736">
        <ele>598.753</ele>
      </trkpt>
      <trkpt lat="46.73414" lon="5.75721">
        <ele>598.874</ele>
      </trkpt>
      <trkpt lat="46.73245" lon="5.75588">
        <ele>596.158</ele>
      </trkpt>
      <trkpt lat="46.73083" lon="5.75444">
        <ele>589.978</ele>
      </trkpt>
      <trkpt lat="46.72972" lon="5.75243">
        <ele>587.24</ele>
      </trkpt>
      <trkpt lat="46.72788" lon="5.74969">
        <ele>582.437</ele>
      </trkpt>
      <trkpt lat="46.72722" lon="5.7488">
        <ele>581.999</ele>
      </trkpt>
      <trkpt lat="46.72525" lon="5.74623">
        <ele>580.519</ele>
      </trkpt>
      <trkpt lat="46.72251" lon="5.74394">
        <ele>579</ele>
      </trkpt>
      <trkpt lat="46.72094" lon="5.74272">
        <ele>578.524</ele>
      </trkpt>
      <trkpt lat="46.71894" lon="5.74104">
        <ele>578.624</ele>
      </trkpt>
      <trkpt lat="46.71694" lon="5.73938">
        <ele>577.001</ele>
      </trkpt>
      <trkpt lat="46.7157" lon="5.73883">
        <ele>578.899</ele>
      </trkpt>
      <trkpt lat="46.71351" lon="5.73792">
        <ele>580.495</ele>
      </trkpt>
      <trkpt lat="46.71124" lon="5.73671">
        <ele>584.862</ele>
      </trkpt>
      <trkpt lat="46.7104" lon="5.7363">
        <ele>585.508</ele>
      </trkpt>
      <trkpt lat="46.70811" lon="5.73585">
        <ele>583.222</ele>
      </trkpt>
      <trkpt lat="46.70553" lon="5.73437">
        <ele>582.256</ele>
      </trkpt>
      <trkpt lat="46.70341" lon="5.73294">
        <ele>583</ele>
      </trkpt>
      <trkpt lat="46.70291" lon="5.73292">
        <ele>583.822</ele>
      </trkpt>
      <trkpt lat="46.7022" lon="5.73258">
        <ele>587.147</ele>
      </trkpt>
      <trkpt lat="46.70139" lon="5.73204">
        <ele>586.352</ele>
      </trkpt>
      <trkpt lat="46.70114" lon="5.73179">
        <ele>585.816</ele>
      </trkpt>
      <trkpt lat="46.70104" lon="5.73124">
        <ele>584.751</ele>
      </trkpt>
      <trkpt lat="46.70056" lon="5.73029">
        <ele>585.94</ele>
      </trkpt>
      <trkpt lat="46.70009" lon="5.72984">
        <ele>585.72</ele>
      </trkpt>
      <trkpt lat="46.69794" lon="5.72811">
        <ele>588.355</ele>
      </trkpt>
      <trkpt lat="46.69598" lon="5.72686">
        <ele>586.93</ele>
      </trkpt>
      <trkpt lat="46.69369" lon="5.72745">
        <ele>584.443</ele>
      </trkpt>
      <trkpt lat="46.69168" lon="5.72798">
        <ele>587.207</ele>
      </trkpt>
      <trkpt lat="46.69096" lon="5.72815">
        <ele>593.888</ele>
      </trkpt>
      <trkpt lat="46.6906" lon="5.72811">
        <ele>593.219</ele>
      </trkpt>
      <trkpt lat="46.6904" lon="5.72804">
        <ele>591.875</ele>
      </trkpt>
      <trkpt lat="46.68971" lon="5.72756">
        <ele>589.905</ele>
      </trkpt>
      <trkpt lat="46.68918" lon="5.7271">
        <ele>590.175</ele>
      </trkpt>
      <trkpt lat="46.6889" lon="5.72685">
        <ele>588.576</ele>
      </trkpt>
      <trkpt lat="46.68854" lon="5.72655">
        <ele>589.591</ele>
      </trkpt>
      <trkpt lat="46.68785" lon="5.72607">
        <ele>588.581</ele>
      </trkpt>
      <trkpt lat="46.68558" lon="5.72482">
        <ele>586.948</ele>
      </trkpt>
      <trkpt lat="46.68465" lon="5.72419">
        <ele>586.61</ele>
      </trkpt>
      <trkpt lat="46.68361" lon="5.72373">
        <ele>586.911</ele>
      </trkpt>
      <trkpt lat="46.68307" lon="5.72379">
        <ele>586.273</ele>
      </trkpt>
      <trkpt lat="46.6823" lon="5.72407">
        <ele>585.448</ele>
      </trkpt>
      <trkpt lat="46.68172" lon="5.72427">
        <ele>586.071</ele>
      </trkpt>
      <trkpt lat="46.68088" lon="5.72418">
        <ele>585.603</ele>
      </trkpt>
      <trkpt lat="46.68035" lon="5.72396">
        <ele>584.695</ele>
      </trkpt>
      <trkpt lat="46.67976" lon="5.72359">
        <ele>583.452</ele>
      </trkpt>
      <trkpt lat="46.67923" lon="5.72321">
        <ele>583.688</ele>
      </trkpt>
      <trkpt lat="46.67858" lon="5.72278">
        <ele>583.984</ele>
      </trkpt>
      <trkpt lat="46.67765" lon="5.72208">
        <ele>583.023</ele>
      </trkpt>
      <trkpt lat="46.67637" lon="5.72137">
        <ele>582.571</ele>
      </trkpt>
      <trkpt lat="46.67474" lon="5.72112">
        <ele>583.089</ele>
      </trkpt>
      <trkpt lat="46.67449" lon="5.7211">
        <ele>582.677</ele>
      </trkpt>
      <trkpt lat="46.67268" lon="5.72133">
        <ele>581.656</ele>
      </trkpt>
      <trkpt lat="46.67104" lon="5.72141">
        <ele>580.289</ele>
      </trkpt>
      <trkpt lat="46.67046" lon="5.72139">
        <ele>580.944</ele>
      </trkpt>
      <trkpt lat="46.66993" lon="5.72135">
        <ele>580.454</ele>
      </trkpt>
      <trkpt lat="46.66757" lon="5.72129">
        <ele>579.687</ele>
      </trkpt>
      <trkpt lat="46.66738" lon="5.72113">
        <ele>580.274</ele>
      </trkpt>
      <trkpt lat="46.66521" lon="5.72035">
        <ele>578.72</ele>
      </trkpt>
      <trkpt lat="46.6646" lon="5.72023">
        <ele>578.856</ele>
      </trkpt>
      <trkpt lat="46.66376" lon="5.71981">
        <ele>579.298</ele>
      </trkpt>
      <trkpt lat="46.66344" lon="5.71933">
        <ele>577.933</ele>
      </trkpt>
      <trkpt lat="46.66314" lon="5.71901">
        <ele>577.774</ele>
      </trkpt>
      <trkpt lat="46.66198" lon="5.71806">
        <ele>577.676</ele>
      </trkpt>
      <trkpt lat="46.66156" lon="5.71774">
        <ele>577.03</ele>
      </trkpt>
      <trkpt lat="46.66132" lon="5.7176">
        <ele>576.619</ele>
      </trkpt>
      <trkpt lat="46.661" lon="5.71789">
        <ele>579.734</ele>
      </trkpt>
      <trkpt lat="46.66017" lon="5.72032">
        <ele>571.767</ele>
      </trkpt>
      <trkpt lat="46.66002" lon="5.72138">
        <ele>569.374</ele>
      </trkpt>
      <trkpt lat="46.66074" lon="5.72252">
        <ele>564.343</ele>
      </trkpt>
      <trkpt lat="46.66195" lon="5.72334">
        <ele>556.069</ele>
      </trkpt>
      <trkpt lat="46.66235" lon="5.7239">
        <ele>552.96</ele>
      </trkpt>
      <trkpt lat="46.66235" lon="5.7239">
        <ele>552.96</ele>
      </trkpt>
      <trkpt lat="46.66275" lon="5.72445">
        <ele>549.815</ele>
      </trkpt>
      <trkpt lat="46.66314" lon="5.72534">
        <ele>544.878</ele>
      </trkpt>
      <trkpt lat="46.66322" lon="5.7259">
        <ele>543.246</ele>
      </trkpt>
      <trkpt lat="46.66272" lon="5.72761">
        <ele>535.319</ele>
      </trkpt>
      <trkpt lat="46.66263" lon="5.72774">
        <ele>533.926</ele>
      </trkpt>
      <trkpt lat="46.66207" lon="5.72815">
        <ele>531.259</ele>
      </trkpt>
      <trkpt lat="46.66153" lon="5.72844">
        <ele>528.337</ele>
      </trkpt>
      <trkpt lat="46.66092" lon="5.72877">
        <ele>526.697</ele>
      </trkpt>
      <trkpt lat="46.66063" lon="5.72912">
        <ele>522.246</ele>
      </trkpt>
      <trkpt lat="46.66046" lon="5.7294">
        <ele>520.803</ele>
      </trkpt>
      <trkpt lat="46.66006" lon="5.72986">
        <ele>519.281</ele>
      </trkpt>
      <trkpt lat="46.65964" lon="5.73046">
        <ele>516.344</ele>
      </trkpt>
      <trkpt lat="46.65898" lon="5.73015">
        <ele>515.473</ele>
      </trkpt>
      <trkpt lat="46.6588" lon="5.72964">
        <ele>515.096</ele>
      </trkpt>
      <trkpt lat="46.65846" lon="5.72818">
        <ele>514.32</ele>
      </trkpt>
      <trkpt lat="46.65825" lon="5.72776">
        <ele>510.902</ele>
      </trkpt>
      <trkpt lat="46.65808" lon="5.72738">
        <ele>509.878</ele>
      </trkpt>
      <trkpt lat="46.65798" lon="5.72678">
        <ele>508.414</ele>
      </trkpt>
      <trkpt lat="46.65782" lon="5.72665">
        <ele>506.456</ele>
      </trkpt>
      <trkpt lat="46.65771" lon="5.72675">
        <ele>503.34</ele>
      </trkpt>
      <trkpt lat="46.65771" lon="5.72775">
        <ele>501.393</ele>
      </trkpt>
      <trkpt lat="46.65717" lon="5.7268">
        <ele>489.277</ele>
      </trkpt>
      <trkpt lat="46.65679" lon="5.72553">
        <ele>483.364</ele>
      </trkpt>
      <trkpt lat="46.65654" lon="5.72513">
        <ele>481.324</ele>
      </trkpt>
      <trkpt lat="46.65604" lon="5.72449">
        <ele>479.302</ele>
      </trkpt>
      <trkpt lat="46.6554" lon="5.72397">
        <ele>475.887</ele>
      </trkpt>
      <trkpt lat="46.6544" lon="5.72299">
        <ele>472.076</ele>
      </trkpt>
      <trkpt lat="46.6544" lon="5.72299">
        <ele>472.076</ele>
      </trkpt>
      <trkpt lat="46.65291" lon="5.72149">
        <ele>473.922</ele>
      </trkpt>
      <trkpt lat="46.65271" lon="5.72129">
        <ele>474.627</ele>
      </trkpt>
      <trkpt lat="46.65206" lon="5.72038">
        <ele>472.551</ele>
      </trkpt>
      <trkpt lat="46.65193" lon="5.72005">
        <ele>470.807</ele>
      </trkpt>
      <trkpt lat="46.65143" lon="5.71881">
        <ele>471.19</ele>
      </trkpt>
      <trkpt lat="46.65108" lon="5.71757">
        <ele>476.366</ele>
      </trkpt>
      <trkpt lat="46.65104" lon="5.71698">
        <ele>480.196</ele>
      </trkpt>
      <trkpt lat="46.65099" lon="5.71662">
        <ele>482.025</ele>
      </trkpt>
      <trkpt lat="46.65086" lon="5.7162">
        <ele>483.079</ele>
      </trkpt>
      <trkpt lat="46.6505" lon="5.71551">
        <ele>485.391</ele>
      </trkpt>
      <trkpt lat="46.64853" lon="5.71282">
        <ele>493.928</ele>
      </trkpt>
      <trkpt lat="46.64799" lon="5.71208">
        <ele>497.625</ele>
      </trkpt>
      <trkpt lat="46.64738" lon="5.71163">
        <ele>503.332</ele>
      </trkpt>
      <trkpt lat="46.64649" lon="5.71125">
        <ele>504.436</ele>
      </trkpt>
      <trkpt lat="46.64537" lon="5.71075">
        <ele>506.528</ele>
      </trkpt>
      <trkpt lat="46.64476" lon="5.71051">
        <ele>506.822</ele>
      </trkpt>
      <trkpt lat="46.64438" lon="5.71055">
        <ele>507.164</ele>
      </trkpt>
      <trkpt lat="46.64411" lon="5.71091">
        <ele>508.704</ele>
      </trkpt>
      <trkpt lat="46.64386" lon="5.71237">
        <ele>511.103</ele>
      </trkpt>
      <trkpt lat="46.6437" lon="5.71323">
        <ele>512.772</ele>
      </trkpt>
      <trkpt lat="46.64338" lon="5.71417">
        <ele>514.357</ele>
      </trkpt>
      <trkpt lat="46.64304" lon="5.71604">
        <ele>519.866</ele>
      </trkpt>
      <trkpt lat="46.6419" lon="5.71737">
        <ele>518.486</ele>
      </trkpt>
      <trkpt lat="46.64149" lon="5.71742">
        <ele>517.804</ele>
      </trkpt>
      <trkpt lat="46.64082" lon="5.71719">
        <ele>516.215</ele>
      </trkpt>
      <trkpt lat="46.63883" lon="5.71511">
        <ele>514.994</ele>
      </trkpt>
      <trkpt lat="46.63788" lon="5.71423">
        <ele>510.907</ele>
      </trkpt>
      <trkpt lat="46.63742" lon="5.71392">
        <ele>509.312</ele>
      </trkpt>
      <trkpt lat="46.63685" lon="5.71355">
        <ele>506.54</ele>
      </trkpt>
      <trkpt lat="46.63599" lon="5.71182">
        <ele>507.973</ele>
      </trkpt>
      <trkpt lat="46.63588" lon="5.71176">
        <ele>507.701</ele>
      </trkpt>
      <trkpt lat="46.63548" lon="5.71161">
        <ele>506.71</ele>
      </trkpt>
      <trkpt lat="46.63304" lon="5.71133">
        <ele>499.141</ele>
      </trkpt>
      <trkpt lat="46.6327" lon="5.7113">
        <ele>497.946</ele>
      </trkpt>
      <trkpt lat="46.6323" lon="5.71121">
        <ele>495.134</ele>
      </trkpt>
      <trkpt lat="46.63176" lon="5.71042">
        <ele>489.635</ele>
      </trkpt>
      <trkpt lat="46.63142" lon="5.70952">
        <ele>485.495</ele>
      </trkpt>
      <trkpt lat="46.63108" lon="5.70886">
        <ele>482.602</ele>
      </trkpt>
      <trkpt lat="46.6297" lon="5.70805">
        <ele>473.854</ele>
      </trkpt>
      <trkpt lat="46.62909" lon="5.70777">
        <ele>470.382</ele>
      </trkpt>
      <trkpt lat="46.62702" lon="5.70693">
        <ele>471.497</ele>
      </trkpt>
      <trkpt lat="46.62491" lon="5.70546">
        <ele>475.225</ele>
      </trkpt>
      <trkpt lat="46.62486" lon="5.70541">
        <ele>475.26</ele>
      </trkpt>
      <trkpt lat="46.62497" lon="5.70506">
        <ele>475.193</ele>
      </trkpt>
      <trkpt lat="46.62624" lon="5.70226">
        <ele>477.521</ele>
      </trkpt>
      <trkpt lat="46.62632" lon="5.70202">
        <ele>477.066</ele>
      </trkpt>
      <trkpt lat="46.62688" lon="5.70086">
        <ele>471.256</ele>
      </trkpt>
      <trkpt lat="46.62772" lon="5.69957">
        <ele>467.459</ele>
      </trkpt>
      <trkpt lat="46.6292" lon="5.69746">
        <ele>463.759</ele>
      </trkpt>
      <trkpt lat="46.62979" lon="5.69656">
        <ele>463</ele>
      </trkpt>
      <trkpt lat="46.63082" lon="5.6937">
        <ele>462</ele>
      </trkpt>
      <trkpt lat="46.63093" lon="5.6933">
        <ele>462</ele>
      </trkpt>
      <trkpt lat="46.63236" lon="5.6906">
        <ele>465.507</ele>
      </trkpt>
      <trkpt lat="46.63255" lon="5.6901">
        <ele>467.101</ele>
      </trkpt>
      <trkpt lat="46.63279" lon="5.68945">
        <ele>468.994</ele>
      </trkpt>
      <trkpt lat="46.63355" lon="5.68837">
        <ele>472.141</ele>
      </trkpt>
      <trkpt lat="46.63343" lon="5.68749">
        <ele>475.336</ele>
      </trkpt>
      <trkpt lat="46.63313" lon="5.68735">
        <ele>477.615</ele>
      </trkpt>
      <trkpt lat="46.63293" lon="5.68732">
        <ele>478.292</ele>
      </trkpt>
      <trkpt lat="46.63224" lon="5.68715">
        <ele>477.577</ele>
      </trkpt>
      <trkpt lat="46.63173" lon="5.68683">
        <ele>476.135</ele>
      </trkpt>
      <trkpt lat="46.6307" lon="5.68681">
        <ele>471.211</ele>
      </trkpt>
      <trkpt lat="46.63051" lon="5.68697">
        <ele>470.054</ele>
      </trkpt>
      <trkpt lat="46.63029" lon="5.68714">
        <ele>470.274</ele>
      </trkpt>
      <trkpt lat="46.62874" lon="5.68711">
        <ele>472.279</ele>
      </trkpt>
      <trkpt lat="46.62817" lon="5.68671">
        <ele>471.609</ele>
      </trkpt>
      <trkpt lat="46.6279" lon="5.68643">
        <ele>472.57</ele>
      </trkpt>
      <trkpt lat="46.62747" lon="5.68627">
        <ele>471.745</ele>
      </trkpt>
      <trkpt lat="46.62674" lon="5.68565">
        <ele>472.125</ele>
      </trkpt>
      <trkpt lat="46.62648" lon="5.68489">
        <ele>475.419</ele>
      </trkpt>
      <trkpt lat="46.62659" lon="5.68458">
        <ele>477.917</ele>
      </trkpt>
      <trkpt lat="46.62478" lon="5.68208">
        <ele>478.693</ele>
      </trkpt>
      <trkpt lat="46.62451" lon="5.68194">
        <ele>476.72</ele>
      </trkpt>
      <trkpt lat="46.62435" lon="5.68194">
        <ele>475.682</ele>
      </trkpt>
      <trkpt lat="46.62399" lon="5.6819">
        <ele>474.503</ele>
      </trkpt>
      <trkpt lat="46.62329" lon="5.68181">
        <ele>472.916</ele>
      </trkpt>
      <trkpt lat="46.62271" lon="5.68177">
        <ele>472.071</ele>
      </trkpt>
      <trkpt lat="46.62239" lon="5.68174">
        <ele>471.322</ele>
      </trkpt>
      <trkpt lat="46.62187" lon="5.68137">
        <ele>471.9</ele>
      </trkpt>
      <trkpt lat="46.62093" lon="5.68144">
        <ele>469.701</ele>
      </trkpt>
      <trkpt lat="46.62073" lon="5.68149">
        <ele>469.243</ele>
      </trkpt>
      <trkpt lat="46.6201" lon="5.68127">
        <ele>471.046</ele>
      </trkpt>
      <trkpt lat="46.61995" lon="5.68124">
        <ele>471.05</ele>
      </trkpt>
      <trkpt lat="46.61914" lon="5.68145">
        <ele>468.509</ele>
      </trkpt>
      <trkpt lat="46.61858" lon="5.68158">
        <ele>468.624</ele>
      </trkpt>
      <trkpt lat="46.61814" lon="5.68229">
        <ele>465.459</ele>
      </trkpt>
      <trkpt lat="46.61807" lon="5.68232">
        <ele>465.574</ele>
      </trkpt>
      <trkpt lat="46.61703" lon="5.68146">
        <ele>467.215</ele>
      </trkpt>
      <trkpt lat="46.61573" lon="5.68134">
        <ele>465.682</ele>
      </trkpt>
      <trkpt lat="46.61437" lon="5.68015">
        <ele>467.203</ele>
      </trkpt>
      <trkpt lat="46.61444" lon="5.67924">
        <ele>470.018</ele>
      </trkpt>
      <trkpt lat="46.6145" lon="5.67894">
        <ele>471.304</ele>
      </trkpt>
      <trkpt lat="46.61476" lon="5.67834">
        <ele>473.268</ele>
      </trkpt>
      <trkpt lat="46.61484" lon="5.67805">
        <ele>473.42</ele>
      </trkpt>
      <trkpt lat="46.61558" lon="5.67337">
        <ele>475</ele>
      </trkpt>
      <trkpt lat="46.61577" lon="5.67181">
        <ele>476</ele>
      </trkpt>
      <trkpt lat="46.61561" lon="5.66962">
        <ele>478.875</ele>
      </trkpt>
      <trkpt lat="46.61555" lon="5.66881">
        <ele>480.613</ele>
      </trkpt>
      <trkpt lat="46.61534" lon="5.66863">
        <ele>482.694</ele>
      </trkpt>
      <trkpt lat="46.61295" lon="5.66962">
        <ele>483.772</ele>
      </trkpt>
      <trkpt lat="46.61011" lon="5.67078">
        <ele>479.158</ele>
      </trkpt>
      <trkpt lat="46.60964" lon="5.67106">
        <ele>477.541</ele>
      </trkpt>
      <trkpt lat="46.60718" lon="5.67173">
        <ele>475.786</ele>
      </trkpt>
      <trkpt lat="46.60606" lon="5.67192">
        <ele>474.212</ele>
      </trkpt>
      <trkpt lat="46.60546" lon="5.67216">
        <ele>472.723</ele>
      </trkpt>
      <trkpt lat="46.60311" lon="5.67313">
        <ele>475.56</ele>
      </trkpt>
      <trkpt lat="46.60256" lon="5.6733">
        <ele>476.76</ele>
      </trkpt>
      <trkpt lat="46.60004" lon="5.67289">
        <ele>477.584</ele>
      </trkpt>
      <trkpt lat="46.59823" lon="5.67243">
        <ele>476.978</ele>
      </trkpt>
      <trkpt lat="46.59795" lon="5.67241">
        <ele>476.871</ele>
      </trkpt>
      <trkpt lat="46.59693" lon="5.67252">
        <ele>477.339</ele>
      </trkpt>
      <trkpt lat="46.5962" lon="5.67248">
        <ele>475.655</ele>
      </trkpt>
      <trkpt lat="46.59553" lon="5.67247">
        <ele>473.458</ele>
      </trkpt>
      <trkpt lat="46.59446" lon="5.6727">
        <ele>471.898</ele>
      </trkpt>
      <trkpt lat="46.59389" lon="5.673">
        <ele>470.224</ele>
      </trkpt>
      <trkpt lat="46.59319" lon="5.67437">
        <ele>468.95</ele>
      </trkpt>
      <trkpt lat="46.59251" lon="5.67775">
        <ele>461.049</ele>
      </trkpt>
      <trkpt lat="46.59225" lon="5.6785">
        <ele>460.876</ele>
      </trkpt>
      <trkpt lat="46.59101" lon="5.6774">
        <ele>460.133</ele>
      </trkpt>
      <trkpt lat="46.59062" lon="5.67746">
        <ele>460.162</ele>
      </trkpt>
      <trkpt lat="46.58897" lon="5.67784">
        <ele>460.551</ele>
      </trkpt>
      <trkpt lat="46.58753" lon="5.67838">
        <ele>461.739</ele>
      </trkpt>
      <trkpt lat="46.58523" lon="5.67952">
        <ele>459</ele>
      </trkpt>
      <trkpt lat="46.58314" lon="5.68075">
        <ele>459.182</ele>
      </trkpt>
      <trkpt lat="46.58198" lon="5.68045">
        <ele>458</ele>
      </trkpt>
      <trkpt lat="46.58126" lon="5.68048">
        <ele>458.72</ele>
      </trkpt>
      <trkpt lat="46.58095" lon="5.68066">
        <ele>458.996</ele>
      </trkpt>
      <trkpt lat="46.58021" lon="5.68158">
        <ele>463.198</ele>
      </trkpt>
      <trkpt lat="46.57944" lon="5.68203">
        <ele>466.543</ele>
      </trkpt>
      <trkpt lat="46.57855" lon="5.6832">
        <ele>469.422</ele>
      </trkpt>
      <trkpt lat="46.57745" lon="5.68452">
        <ele>467.266</ele>
      </trkpt>
      <trkpt lat="46.57749" lon="5.68536">
        <ele>467.039</ele>
      </trkpt>
      <trkpt lat="46.57711" lon="5.687">
        <ele>466.413</ele>
      </trkpt>
      <trkpt lat="46.57587" lon="5.6853">
        <ele>463.825</ele>
      </trkpt>
      <trkpt lat="46.57413" lon="5.68314">
        <ele>469.149</ele>
      </trkpt>
      <trkpt lat="46.57163" lon="5.67997">
        <ele>473.765</ele>
      </trkpt>
      <trkpt lat="46.56933" lon="5.67676">
        <ele>476</ele>
      </trkpt>
      <trkpt lat="46.56752" lon="5.67429">
        <ele>477.651</ele>
      </trkpt>
      <trkpt lat="46.5656" lon="5.67222">
        <ele>480.522</ele>
      </trkpt>
      <trkpt lat="46.56342" lon="5.66916">
        <ele>481.006</ele>
      </trkpt>
      <trkpt lat="46.56299" lon="5.66865">
        <ele>480.599</ele>
      </trkpt>
      <trkpt lat="46.56257" lon="5.66833">
        <ele>482.299</ele>
      </trkpt>
      <trkpt lat="46.56148" lon="5.66775">
        <ele>486.175</ele>
      </trkpt>
      <trkpt lat="46.55993" lon="5.66549">
        <ele>487.478</ele>
      </trkpt>
      <trkpt lat="46.55969" lon="5.66497">
        <ele>487.109</ele>
      </trkpt>
      <trkpt lat="46.55943" lon="5.66427">
        <ele>486.896</ele>
      </trkpt>
      <trkpt lat="46.55929" lon="5.66402">
        <ele>486.196</ele>
      </trkpt>
      <trkpt lat="46.55805" lon="5.6627">
        <ele>486.972</ele>
      </trkpt>
      <trkpt lat="46.5574" lon="5.66204">
        <ele>488.878</ele>
      </trkpt>
      <trkpt lat="46.5574" lon="5.66204">
        <ele>488.878</ele>
      </trkpt>
      <trkpt lat="46.5566" lon="5.66117">
        <ele>492.156</ele>
      </trkpt>
      <trkpt lat="46.55678" lon="5.65927">
        <ele>499.411</ele>
      </trkpt>
      <trkpt lat="46.55718" lon="5.65869">
        <ele>499.477</ele>
      </trkpt>
      <trkpt lat="46.55745" lon="5.65753">
        <ele>503.654</ele>
      </trkpt>
      <trkpt lat="46.55745" lon="5.65753">
        <ele>503.654</ele>
      </trkpt>
      <trkpt lat="46.55751" lon="5.6573">
        <ele>506.154</ele>
      </trkpt>
      <trkpt lat="46.55796" lon="5.65688">
        <ele>512.609</ele>
      </trkpt>
      <trkpt lat="46.55838" lon="5.65627">
        <ele>521.344</ele>
      </trkpt>
      <trkpt lat="46.55727" lon="5.65541">
        <ele>527.98</ele>
      </trkpt>
      <trkpt lat="46.55633" lon="5.65444">
        <ele>542.193</ele>
      </trkpt>
      <trkpt lat="46.55538" lon="5.65345">
        <ele>551.808</ele>
      </trkpt>
      <trkpt lat="46.55402" lon="5.65236">
        <ele>565.762</ele>
      </trkpt>
      <trkpt lat="46.55189" lon="5.65105">
        <ele>577.154</ele>
      </trkpt>
      <trkpt lat="46.55159" lon="5.6508">
        <ele>579.021</ele>
      </trkpt>
      <trkpt lat="46.55159" lon="5.6508">
        <ele>579.021</ele>
      </trkpt>
      <trkpt lat="46.55049" lon="5.64991">
        <ele>589.378</ele>
      </trkpt>
      <trkpt lat="46.54999" lon="5.6495">
        <ele>595.41</ele>
      </trkpt>
      <trkpt lat="46.54969" lon="5.6488">
        <ele>602.237</ele>
      </trkpt>
      <trkpt lat="46.54968" lon="5.64826">
        <ele>606.424</ele>
      </trkpt>
      <trkpt lat="46.55053" lon="5.6471">
        <ele>626.487</ele>
      </trkpt>
      <trkpt lat="46.55025" lon="5.64684">
        <ele>628.907</ele>
      </trkpt>
      <trkpt lat="46.54989" lon="5.64657">
        <ele>635.022</ele>
      </trkpt>
      <trkpt lat="46.54856" lon="5.64577">
        <ele>638.356</ele>
      </trkpt>
      <trkpt lat="46.54716" lon="5.64487">
        <ele>647.605</ele>
      </trkpt>
      <trkpt lat="46.54581" lon="5.64422">
        <ele>652.099</ele>
      </trkpt>
      <trkpt lat="46.54542" lon="5.64364">
        <ele>651.553</ele>
      </trkpt>
      <trkpt lat="46.54534" lon="5.64271">
        <ele>641.672</ele>
      </trkpt>
      <trkpt lat="46.54529" lon="5.64167">
        <ele>626.179</ele>
      </trkpt>
      <trkpt lat="46.54508" lon="5.64113">
        <ele>619.545</ele>
      </trkpt>
      <trkpt lat="46.54461" lon="5.64057">
        <ele>610.825</ele>
      </trkpt>
      <trkpt lat="46.544" lon="5.64013">
        <ele>595.19</ele>
      </trkpt>
      <trkpt lat="46.54285" lon="5.6395">
        <ele>584.071</ele>
      </trkpt>
      <trkpt lat="46.54171" lon="5.63888">
        <ele>577.495</ele>
      </trkpt>
      <trkpt lat="46.54156" lon="5.63857">
        <ele>573.533</ele>
      </trkpt>
      <trkpt lat="46.5415" lon="5.63838">
        <ele>572.862</ele>
      </trkpt>
      <trkpt lat="46.54154" lon="5.63815">
        <ele>571.445</ele>
      </trkpt>
      <trkpt lat="46.54149" lon="5.63798">
        <ele>570.804</ele>
      </trkpt>
      <trkpt lat="46.5412" lon="5.63759">
        <ele>569.549</ele>
      </trkpt>
      <trkpt lat="46.54032" lon="5.63689">
        <ele>562.055</ele>
      </trkpt>
      <trkpt lat="46.53996" lon="5.63665">
        <ele>558.733</ele>
      </trkpt>
      <trkpt lat="46.53975" lon="5.63644">
        <ele>556.464</ele>
      </trkpt>
      <trkpt lat="46.53895" lon="5.63536">
        <ele>551.332</ele>
      </trkpt>
      <trkpt lat="46.53845" lon="5.63476">
        <ele>549.574</ele>
      </trkpt>
      <trkpt lat="46.53815" lon="5.63463">
        <ele>547.997</ele>
      </trkpt>
      <trkpt lat="46.53606" lon="5.63331">
        <ele>546.246</ele>
      </trkpt>
      <trkpt lat="46.5346" lon="5.63315">
        <ele>551.145</ele>
      </trkpt>
      <trkpt lat="46.53308" lon="5.63217">
        <ele>553.71</ele>
      </trkpt>
      <trkpt lat="46.53266" lon="5.63216">
        <ele>551.754</ele>
      </trkpt>
      <trkpt lat="46.53257" lon="5.63324">
        <ele>554.526</ele>
      </trkpt>
      <trkpt lat="46.53203" lon="5.6334">
        <ele>548.265</ele>
      </trkpt>
      <trkpt lat="46.53168" lon="5.63292">
        <ele>542.2</ele>
      </trkpt>
      <trkpt lat="46.53143" lon="5.63275">
        <ele>539.455</ele>
      </trkpt>
      <trkpt lat="46.53106" lon="5.63279">
        <ele>536.82</ele>
      </trkpt>
      <trkpt lat="46.53055" lon="5.63265">
        <ele>533.973</ele>
      </trkpt>
      <trkpt lat="46.53005" lon="5.63295">
        <ele>532.291</ele>
      </trkpt>
      <trkpt lat="46.52918" lon="5.63324">
        <ele>526.118</ele>
      </trkpt>
      <trkpt lat="46.52854" lon="5.63299">
        <ele>520.481</ele>
      </trkpt>
      <trkpt lat="46.52807" lon="5.63279">
        <ele>517.117</ele>
      </trkpt>
      <trkpt lat="46.52741" lon="5.63258">
        <ele>515.31</ele>
      </trkpt>
      <trkpt lat="46.52655" lon="5.6332">
        <ele>512.153</ele>
      </trkpt>
      <trkpt lat="46.52649" lon="5.63319">
        <ele>511.706</ele>
      </trkpt>
      <trkpt lat="46.52601" lon="5.63242">
        <ele>510.424</ele>
      </trkpt>
      <trkpt lat="46.52564" lon="5.63254">
        <ele>508.174</ele>
      </trkpt>
      <trkpt lat="46.5251" lon="5.63277">
        <ele>504.726</ele>
      </trkpt>
      <trkpt lat="46.52453" lon="5.63297">
        <ele>500.701</ele>
      </trkpt>
      <trkpt lat="46.52424" lon="5.63301">
        <ele>497.538</ele>
      </trkpt>
      <trkpt lat="46.52378" lon="5.6333">
        <ele>492.708</ele>
      </trkpt>
      <trkpt lat="46.52327" lon="5.63378">
        <ele>489.466</ele>
      </trkpt>
      <trkpt lat="46.52273" lon="5.63391">
        <ele>485.575</ele>
      </trkpt>
      <trkpt lat="46.52193" lon="5.63414">
        <ele>483.938</ele>
      </trkpt>
      <trkpt lat="46.52039" lon="5.6369">
        <ele>484</ele>
      </trkpt>
      <trkpt lat="46.52021" lon="5.63719">
        <ele>484.677</ele>
      </trkpt>
      <trkpt lat="46.51963" lon="5.63779">
        <ele>483.321</ele>
      </trkpt>
      <trkpt lat="46.51924" lon="5.63809">
        <ele>481.305</ele>
      </trkpt>
      <trkpt lat="46.51855" lon="5.63901">
        <ele>475.22</ele>
      </trkpt>
      <trkpt lat="46.51743" lon="5.63916">
        <ele>466.905</ele>
      </trkpt>
      <trkpt lat="46.51705" lon="5.63914">
        <ele>462.663</ele>
      </trkpt>
      <trkpt lat="46.51653" lon="5.63883">
        <ele>457.384</ele>
      </trkpt>
      <trkpt lat="46.51605" lon="5.63798">
        <ele>452.641</ele>
      </trkpt>
      <trkpt lat="46.51556" lon="5.6372">
        <ele>448.677</ele>
      </trkpt>
      <trkpt lat="46.51526" lon="5.63687">
        <ele>446.785</ele>
      </trkpt>
      <trkpt lat="46.51516" lon="5.63685">
        <ele>446.014</ele>
      </trkpt>
      <trkpt lat="46.51412" lon="5.63679">
        <ele>441.418</ele>
      </trkpt>
      <trkpt lat="46.51343" lon="5.63622">
        <ele>436.043</ele>
      </trkpt>
      <trkpt lat="46.51279" lon="5.63579">
        <ele>432.659</ele>
      </trkpt>
      <trkpt lat="46.51207" lon="5.63518">
        <ele>428.534</ele>
      </trkpt>
      <trkpt lat="46.51172" lon="5.63478">
        <ele>426.073</ele>
      </trkpt>
      <trkpt lat="46.50973" lon="5.63346">
        <ele>419.589</ele>
      </trkpt>
      <trkpt lat="46.50936" lon="5.63333">
        <ele>417.09</ele>
      </trkpt>
      <trkpt lat="46.50831" lon="5.6328">
        <ele>414.184</ele>
      </trkpt>
      <trkpt lat="46.50761" lon="5.63184">
        <ele>410.821</ele>
      </trkpt>
      <trkpt lat="46.5074" lon="5.6316">
        <ele>408.975</ele>
      </trkpt>
      <trkpt lat="46.50635" lon="5.6314">
        <ele>402.992</ele>
      </trkpt>
      <trkpt lat="46.50558" lon="5.63153">
        <ele>400.754</ele>
      </trkpt>
      <trkpt lat="46.50545" lon="5.63153">
        <ele>400.022</ele>
      </trkpt>
      <trkpt lat="46.50499" lon="5.63096">
        <ele>398.979</ele>
      </trkpt>
      <trkpt lat="46.50483" lon="5.62999">
        <ele>405.013</ele>
      </trkpt>
      <trkpt lat="46.50477" lon="5.62983">
        <ele>405.115</ele>
      </trkpt>
      <trkpt lat="46.50433" lon="5.62942">
        <ele>408.362</ele>
      </trkpt>
      <trkpt lat="46.50395" lon="5.62914">
        <ele>411.76</ele>
      </trkpt>
      <trkpt lat="46.50363" lon="5.62902">
        <ele>413.832</ele>
      </trkpt>
      <trkpt lat="46.50335" lon="5.62879">
        <ele>416.649</ele>
      </trkpt>
      <trkpt lat="46.50321" lon="5.62837">
        <ele>419.095</ele>
      </trkpt>
      <trkpt lat="46.50324" lon="5.62807">
        <ele>419.624</ele>
      </trkpt>
      <trkpt lat="46.50373" lon="5.62715">
        <ele>422.369</ele>
      </trkpt>
      <trkpt lat="46.50384" lon="5.62653">
        <ele>427.91</ele>
      </trkpt>
      <trkpt lat="46.50306" lon="5.62625">
        <ele>434.537</ele>
      </trkpt>
      <trkpt lat="46.50235" lon="5.62608">
        <ele>438.197</ele>
      </trkpt>
      <trkpt lat="46.50213" lon="5.62601">
        <ele>439.514</ele>
      </trkpt>
      <trkpt lat="46.50153" lon="5.62651">
        <ele>443.769</ele>
      </trkpt>
      <trkpt lat="46.50006" lon="5.62757">
        <ele>448.025</ele>
      </trkpt>
      <trkpt lat="46.49976" lon="5.62759">
        <ele>448.867</ele>
      </trkpt>
      <trkpt lat="46.49961" lon="5.62746">
        <ele>450.639</ele>
      </trkpt>
      <trkpt lat="46.49958" lon="5.62727">
        <ele>452.233</ele>
      </trkpt>
      <trkpt lat="46.49973" lon="5.62706">
        <ele>450.307</ele>
      </trkpt>
      <trkpt lat="46.49932" lon="5.62606">
        <ele>452.085</ele>
      </trkpt>
      <trkpt lat="46.49901" lon="5.62551">
        <ele>453.859</ele>
      </trkpt>
      <trkpt lat="46.49855" lon="5.62491">
        <ele>455.942</ele>
      </trkpt>
      <trkpt lat="46.49853" lon="5.62483">
        <ele>455.847</ele>
      </trkpt>
      <trkpt lat="46.49849" lon="5.62347">
        <ele>460.601</ele>
      </trkpt>
      <trkpt lat="46.49879" lon="5.62323">
        <ele>463.603</ele>
      </trkpt>
      <trkpt lat="46.49953" lon="5.62238">
        <ele>470.254</ele>
      </trkpt>
      <trkpt lat="46.49945" lon="5.62225">
        <ele>470.91</ele>
      </trkpt>
      <trkpt lat="46.49904" lon="5.62193">
        <ele>473.528</ele>
      </trkpt>
      <trkpt lat="46.49785" lon="5.62103">
        <ele>479.418</ele>
      </trkpt>
      <trkpt lat="46.49773" lon="5.62094">
        <ele>479.532</ele>
      </trkpt>
      <trkpt lat="46.49655" lon="5.62004">
        <ele>485.203</ele>
      </trkpt>
      <trkpt lat="46.49537" lon="5.61912">
        <ele>492.888</ele>
      </trkpt>
      <trkpt lat="46.49499" lon="5.61884">
        <ele>495.205</ele>
      </trkpt>
      <trkpt lat="46.49463" lon="5.61856">
        <ele>496.672</ele>
      </trkpt>
      <trkpt lat="46.49365" lon="5.61776">
        <ele>496.211</ele>
      </trkpt>
      <trkpt lat="46.49289" lon="5.61716">
        <ele>498.477</ele>
      </trkpt>
      <trkpt lat="46.49263" lon="5.617">
        <ele>500.797</ele>
      </trkpt>
      <trkpt lat="46.49195" lon="5.61741">
        <ele>505.293</ele>
      </trkpt>
      <trkpt lat="46.4916" lon="5.61752">
        <ele>508.445</ele>
      </trkpt>
      <trkpt lat="46.491" lon="5.61757">
        <ele>511.532</ele>
      </trkpt>
      <trkpt lat="46.49067" lon="5.61751">
        <ele>512.538</ele>
      </trkpt>
      <trkpt lat="46.48992" lon="5.61731">
        <ele>516.944</ele>
      </trkpt>
      <trkpt lat="46.48949" lon="5.61713">
        <ele>521.198</ele>
      </trkpt>
      <trkpt lat="46.48892" lon="5.61687">
        <ele>524.888</ele>
      </trkpt>
      <trkpt lat="46.48837" lon="5.61665">
        <ele>527.868</ele>
      </trkpt>
      <trkpt lat="46.48744" lon="5.61625">
        <ele>531.611</ele>
      </trkpt>
      <trkpt lat="46.48615" lon="5.61552">
        <ele>529.168</ele>
      </trkpt>
      <trkpt lat="46.485" lon="5.61524">
        <ele>533.128</ele>
      </trkpt>
      <trkpt lat="46.48271" lon="5.61493">
        <ele>529.069</ele>
      </trkpt>
      <trkpt lat="46.48118" lon="5.6148">
        <ele>527.986</ele>
      </trkpt>
      <trkpt lat="46.48107" lon="5.61479">
        <ele>527.621</ele>
      </trkpt>
      <trkpt lat="46.47889" lon="5.61556">
        <ele>530.992</ele>
      </trkpt>
      <trkpt lat="46.4781" lon="5.61591">
        <ele>533.56</ele>
      </trkpt>
      <trkpt lat="46.47765" lon="5.616">
        <ele>533.033</ele>
      </trkpt>
      <trkpt lat="46.47711" lon="5.61586">
        <ele>533.045</ele>
      </trkpt>
      <trkpt lat="46.47599" lon="5.61514">
        <ele>535.057</ele>
      </trkpt>
      <trkpt lat="46.47578" lon="5.61496">
        <ele>536.375</ele>
      </trkpt>
      <trkpt lat="46.47482" lon="5.6137">
        <ele>536.248</ele>
      </trkpt>
      <trkpt lat="46.4741" lon="5.61325">
        <ele>532.689</ele>
      </trkpt>
      <trkpt lat="46.47358" lon="5.61293">
        <ele>531.534</ele>
      </trkpt>
      <trkpt lat="46.47216" lon="5.61242">
        <ele>529.848</ele>
      </trkpt>
      <trkpt lat="46.4716" lon="5.6125">
        <ele>528.971</ele>
      </trkpt>
      <trkpt lat="46.47067" lon="5.61237">
        <ele>528.518</ele>
      </trkpt>
      <trkpt lat="46.46848" lon="5.61161">
        <ele>523.885</ele>
      </trkpt>
      <trkpt lat="46.4682" lon="5.6115">
        <ele>524</ele>
      </trkpt>
      <trkpt lat="46.46678" lon="5.61109">
        <ele>526.599</ele>
      </trkpt>
      <trkpt lat="46.46667" lon="5.61104">
        <ele>526.995</ele>
      </trkpt>
      <trkpt lat="46.46594" lon="5.61273">
        <ele>532.901</ele>
      </trkpt>
      <trkpt lat="46.46571" lon="5.61354">
        <ele>535.205</ele>
      </trkpt>
      <trkpt lat="46.46354" lon="5.61302">
        <ele>534.858</ele>
      </trkpt>
      <trkpt lat="46.46332" lon="5.6134">
        <ele>536.964</ele>
      </trkpt>
      <trkpt lat="46.46314" lon="5.6136">
        <ele>537.645</ele>
      </trkpt>
      <trkpt lat="46.4619" lon="5.61292">
        <ele>546.105</ele>
      </trkpt>
      <trkpt lat="46.46132" lon="5.6133">
        <ele>552.71</ele>
      </trkpt>
      <trkpt lat="46.46036" lon="5.61369">
        <ele>561.779</ele>
      </trkpt>
      <trkpt lat="46.46003" lon="5.61389">
        <ele>564.985</ele>
      </trkpt>
      <trkpt lat="46.45986" lon="5.6141">
        <ele>568.069</ele>
      </trkpt>
      <trkpt lat="46.45947" lon="5.61398">
        <ele>570.632</ele>
      </trkpt>
      <trkpt lat="46.45922" lon="5.6139">
        <ele>572.478</ele>
      </trkpt>
      <trkpt lat="46.45886" lon="5.61364">
        <ele>574.635</ele>
      </trkpt>
      <trkpt lat="46.45875" lon="5.61353">
        <ele>574.673</ele>
      </trkpt>
      <trkpt lat="46.45856" lon="5.61364">
        <ele>578.136</ele>
      </trkpt>
      <trkpt lat="46.45876" lon="5.61393">
        <ele>580.39</ele>
      </trkpt>
      <trkpt lat="46.45899" lon="5.61469">
        <ele>585.827</ele>
      </trkpt>
      <trkpt lat="46.45911" lon="5.61511">
        <ele>588.866</ele>
      </trkpt>
      <trkpt lat="46.46001" lon="5.61633">
        <ele>597.925</ele>
      </trkpt>
      <trkpt lat="46.46011" lon="5.61673">
        <ele>599.85</ele>
      </trkpt>
      <trkpt lat="46.46001" lon="5.61718">
        <ele>604.588</ele>
      </trkpt>
      <trkpt lat="46.45974" lon="5.61786">
        <ele>609.474</ele>
      </trkpt>
      <trkpt lat="46.45965" lon="5.61813">
        <ele>610.123</ele>
      </trkpt>
      <trkpt lat="46.45945" lon="5.61913">
        <ele>614.666</ele>
      </trkpt>
      <trkpt lat="46.45933" lon="5.62003">
        <ele>618.474</ele>
      </trkpt>
      <trkpt lat="46.45926" lon="5.62045">
        <ele>622.064</ele>
      </trkpt>
      <trkpt lat="46.45912" lon="5.62088">
        <ele>627.69</ele>
      </trkpt>
      <trkpt lat="46.45907" lon="5.62136">
        <ele>632.486</ele>
      </trkpt>
      <trkpt lat="46.45903" lon="5.62181">
        <ele>634.798</ele>
      </trkpt>
      <trkpt lat="46.45887" lon="5.62224">
        <ele>639.121</ele>
      </trkpt>
      <trkpt lat="46.45861" lon="5.62238">
        <ele>641.12</ele>
      </trkpt>
      <trkpt lat="46.45861" lon="5.62238">
        <ele>641.12</ele>
      </trkpt>
      <trkpt lat="46.45845" lon="5.62262">
        <ele>644.861</ele>
      </trkpt>
      <trkpt lat="46.45845" lon="5.62299">
        <ele>647.447</ele>
      </trkpt>
      <trkpt lat="46.45842" lon="5.62325">
        <ele>648.886</ele>
      </trkpt>
      <trkpt lat="46.45827" lon="5.62354">
        <ele>652.338</ele>
      </trkpt>
      <trkpt lat="46.45854" lon="5.62439">
        <ele>659.359</ele>
      </trkpt>
      <trkpt lat="46.45836" lon="5.625">
        <ele>664.383</ele>
      </trkpt>
      <trkpt lat="46.45823" lon="5.62589">
        <ele>671.242</ele>
      </trkpt>
      <trkpt lat="46.45796" lon="5.62637">
        <ele>675.932</ele>
      </trkpt>
      <trkpt lat="46.45774" lon="5.62664">
        <ele>677.86</ele>
      </trkpt>
      <trkpt lat="46.45755" lon="5.62661">
        <ele>680.298</ele>
      </trkpt>
      <trkpt lat="46.45735" lon="5.62647">
        <ele>683.473</ele>
      </trkpt>
      <trkpt lat="46.45708" lon="5.62611">
        <ele>687.519</ele>
      </trkpt>
      <trkpt lat="46.45703" lon="5.62606">
        <ele>687.794</ele>
      </trkpt>
      <trkpt lat="46.45575" lon="5.62604">
        <ele>694.584</ele>
      </trkpt>
      <trkpt lat="46.45556" lon="5.62606">
        <ele>697.001</ele>
      </trkpt>
      <trkpt lat="46.45533" lon="5.62598">
        <ele>698.048</ele>
      </trkpt>
      <trkpt lat="46.45509" lon="5.62584">
        <ele>700.396</ele>
      </trkpt>
      <trkpt lat="46.45427" lon="5.62595">
        <ele>708.977</ele>
      </trkpt>
      <trkpt lat="46.45364" lon="5.62609">
        <ele>714.752</ele>
      </trkpt>
      <trkpt lat="46.45368" lon="5.6273">
        <ele>714.885</ele>
      </trkpt>
      <trkpt lat="46.45264" lon="5.62817">
        <ele>712.657</ele>
      </trkpt>
      <trkpt lat="46.45236" lon="5.62829">
        <ele>712.383</ele>
      </trkpt>
      <trkpt lat="46.45208" lon="5.62859">
        <ele>710.201</ele>
      </trkpt>
      <trkpt lat="46.45183" lon="5.62946">
        <ele>712.847</ele>
      </trkpt>
      <trkpt lat="46.45213" lon="5.62967">
        <ele>714.29</ele>
      </trkpt>
      <trkpt lat="46.45192" lon="5.63056">
        <ele>720.005</ele>
      </trkpt>
      <trkpt lat="46.45018" lon="5.63206">
        <ele>714.227</ele>
      </trkpt>
      <trkpt lat="46.44965" lon="5.63251">
        <ele>707.935</ele>
      </trkpt>
      <trkpt lat="46.44912" lon="5.63298">
        <ele>702.263</ele>
      </trkpt>
      <trkpt lat="46.44847" lon="5.63362">
        <ele>698.957</ele>
      </trkpt>
      <trkpt lat="46.44768" lon="5.63447">
        <ele>697.83</ele>
      </trkpt>
      <trkpt lat="46.4465" lon="5.63446">
        <ele>702.033</ele>
      </trkpt>
      <trkpt lat="46.44634" lon="5.63438">
        <ele>703.994</ele>
      </trkpt>
      <trkpt lat="46.44607" lon="5.63435">
        <ele>707.788</ele>
      </trkpt>
      <trkpt lat="46.44573" lon="5.6344">
        <ele>712.339</ele>
      </trkpt>
      <trkpt lat="46.44472" lon="5.63321">
        <ele>710.561</ele>
      </trkpt>
      <trkpt lat="46.44426" lon="5.63283">
        <ele>709.084</ele>
      </trkpt>
      <trkpt lat="46.44391" lon="5.63263">
        <ele>707.965</ele>
      </trkpt>
      <trkpt lat="46.44341" lon="5.63258">
        <ele>706.554</ele>
      </trkpt>
      <trkpt lat="46.44167" lon="5.63182">
        <ele>710.167</ele>
      </trkpt>
      <trkpt lat="46.44134" lon="5.63207">
        <ele>713.68</ele>
      </trkpt>
      <trkpt lat="46.44096" lon="5.63243">
        <ele>716.3</ele>
      </trkpt>
      <trkpt lat="46.44047" lon="5.63297">
        <ele>718.599</ele>
      </trkpt>
      <trkpt lat="46.43937" lon="5.63368">
        <ele>723.456</ele>
      </trkpt>
      <trkpt lat="46.43892" lon="5.63373">
        <ele>727.07</ele>
      </trkpt>
      <trkpt lat="46.43835" lon="5.63382">
        <ele>729.614</ele>
      </trkpt>
      <trkpt lat="46.43782" lon="5.63364">
        <ele>733.242</ele>
      </trkpt>
      <trkpt lat="46.43703" lon="5.63283">
        <ele>731.052</ele>
      </trkpt>
      <trkpt lat="46.43701" lon="5.63282">
        <ele>730.818</ele>
      </trkpt>
      <trkpt lat="46.43611" lon="5.63242">
        <ele>728.1</ele>
      </trkpt>
      <trkpt lat="46.43562" lon="5.63227">
        <ele>727.542</ele>
      </trkpt>
      <trkpt lat="46.43374" lon="5.6318">
        <ele>716.792</ele>
      </trkpt>
      <trkpt lat="46.43339" lon="5.6318">
        <ele>713.552</ele>
      </trkpt>
      <trkpt lat="46.4328" lon="5.63213">
        <ele>708.111</ele>
      </trkpt>
      <trkpt lat="46.43111" lon="5.63416">
        <ele>711.912</ele>
      </trkpt>
      <trkpt lat="46.43139" lon="5.63473">
        <ele>711.917</ele>
      </trkpt>
      <trkpt lat="46.43167" lon="5.63523">
        <ele>713.706</ele>
      </trkpt>
      <trkpt lat="46.4317" lon="5.63536">
        <ele>713.47</ele>
      </trkpt>
      <trkpt lat="46.43158" lon="5.63569">
        <ele>715.329</ele>
      </trkpt>
      <trkpt lat="46.43135" lon="5.63568">
        <ele>716.712</ele>
      </trkpt>
      <trkpt lat="46.43121" lon="5.63555">
        <ele>716.407</ele>
      </trkpt>
      <trkpt lat="46.43023" lon="5.63483">
        <ele>719.772</ele>
      </trkpt>
      <trkpt lat="46.43006" lon="5.63473">
        <ele>719.843</ele>
      </trkpt>
      <trkpt lat="46.42965" lon="5.63503">
        <ele>721.472</ele>
      </trkpt>
      <trkpt lat="46.42952" lon="5.63523">
        <ele>723.066</ele>
      </trkpt>
      <trkpt lat="46.42931" lon="5.63553">
        <ele>726.948</ele>
      </trkpt>
      <trkpt lat="46.42898" lon="5.63584">
        <ele>726.662</ele>
      </trkpt>
      <trkpt lat="46.42834" lon="5.63606">
        <ele>723.081</ele>
      </trkpt>
      <trkpt lat="46.42744" lon="5.6363">
        <ele>718.873</ele>
      </trkpt>
      <trkpt lat="46.427" lon="5.6366">
        <ele>715.51</ele>
      </trkpt>
      <trkpt lat="46.42675" lon="5.63667">
        <ele>714.275</ele>
      </trkpt>
      <trkpt lat="46.42618" lon="5.6365">
        <ele>711.972</ele>
      </trkpt>
      <trkpt lat="46.42419" lon="5.63602">
        <ele>705.09</ele>
      </trkpt>
      <trkpt lat="46.42394" lon="5.63601">
        <ele>704.383</ele>
      </trkpt>
      <trkpt lat="46.42282" lon="5.63578">
        <ele>700.997</ele>
      </trkpt>
      <trkpt lat="46.42132" lon="5.63504">
        <ele>697.263</ele>
      </trkpt>
      <trkpt lat="46.42034" lon="5.63493">
        <ele>696.087</ele>
      </trkpt>
      <trkpt lat="46.41937" lon="5.63476">
        <ele>691.727</ele>
      </trkpt>
      <trkpt lat="46.41865" lon="5.63464">
        <ele>689.42</ele>
      </trkpt>
      <trkpt lat="46.41804" lon="5.6346">
        <ele>688.146</ele>
      </trkpt>
      <trkpt lat="46.41683" lon="5.63456">
        <ele>684.416</ele>
      </trkpt>
      <trkpt lat="46.41661" lon="5.6354">
        <ele>682.944</ele>
      </trkpt>
      <trkpt lat="46.41778" lon="5.63637">
        <ele>676.937</ele>
      </trkpt>
      <trkpt lat="46.41912" lon="5.63737">
        <ele>667.285</ele>
      </trkpt>
      <trkpt lat="46.42132" lon="5.63894">
        <ele>653.546</ele>
      </trkpt>
      <trkpt lat="46.42156" lon="5.63932">
        <ele>651.593</ele>
      </trkpt>
      <trkpt lat="46.42159" lon="5.63958">
        <ele>650.208</ele>
      </trkpt>
      <trkpt lat="46.42158" lon="5.63995">
        <ele>648.737</ele>
      </trkpt>
      <trkpt lat="46.42153" lon="5.64093">
        <ele>644.998</ele>
      </trkpt>
      <trkpt lat="46.42089" lon="5.64128">
        <ele>655.735</ele>
      </trkpt>
      <trkpt lat="46.42056" lon="5.64104">
        <ele>661.363</ele>
      </trkpt>
      <trkpt lat="46.42041" lon="5.64112">
        <ele>665.781</ele>
      </trkpt>
      <trkpt lat="46.42042" lon="5.64169">
        <ele>673.655</ele>
      </trkpt>
      <trkpt lat="46.42065" lon="5.64213">
        <ele>674.468</ele>
      </trkpt>
      <trkpt lat="46.42083" lon="5.64261">
        <ele>680.382</ele>
      </trkpt>
      <trkpt lat="46.42089" lon="5.64323">
        <ele>685.118</ele>
      </trkpt>
      <trkpt lat="46.42089" lon="5.64344">
        <ele>686.788</ele>
      </trkpt>
      <trkpt lat="46.42035" lon="5.64316">
        <ele>692.94</ele>
      </trkpt>
      <trkpt lat="46.41997" lon="5.64304">
        <ele>692.372</ele>
      </trkpt>
      <trkpt lat="46.41964" lon="5.64285">
        <ele>694.532</ele>
      </trkpt>
      <trkpt lat="46.41935" lon="5.64268">
        <ele>698.899</ele>
      </trkpt>
      <trkpt lat="46.41758" lon="5.64205">
        <ele>704.454</ele>
      </trkpt>
      <trkpt lat="46.41646" lon="5.6416">
        <ele>696.991</ele>
      </trkpt>
      <trkpt lat="46.41574" lon="5.64122">
        <ele>692.065</ele>
      </trkpt>
      <trkpt lat="46.41515" lon="5.64128">
        <ele>690.047</ele>
      </trkpt>
      <trkpt lat="46.41427" lon="5.64084">
        <ele>684.08</ele>
      </trkpt>
      <trkpt lat="46.41347" lon="5.64057">
        <ele>678.21</ele>
      </trkpt>
      <trkpt lat="46.41303" lon="5.64058">
        <ele>673.043</ele>
      </trkpt>
      <trkpt lat="46.41216" lon="5.64031">
        <ele>668.68</ele>
      </trkpt>
      <trkpt lat="46.41183" lon="5.64048">
        <ele>666.521</ele>
      </trkpt>
      <trkpt lat="46.41108" lon="5.64023">
        <ele>663.359</ele>
      </trkpt>
      <trkpt lat="46.41102" lon="5.6402">
        <ele>663.2</ele>
      </trkpt>
      <trkpt lat="46.41028" lon="5.63973">
        <ele>659.934</ele>
      </trkpt>
      <trkpt lat="46.40972" lon="5.63942">
        <ele>657.325</ele>
      </trkpt>
      <trkpt lat="46.40928" lon="5.63882">
        <ele>654.144</ele>
      </trkpt>
      <trkpt lat="46.40897" lon="5.63891">
        <ele>652.78</ele>
      </trkpt>
      <trkpt lat="46.40858" lon="5.63875">
        <ele>651.199</ele>
      </trkpt>
      <trkpt lat="46.40838" lon="5.63848">
        <ele>649.45</ele>
      </trkpt>
      <trkpt lat="46.40815" lon="5.63835">
        <ele>648.603</ele>
      </trkpt>
      <trkpt lat="46.40739" lon="5.63816">
        <ele>644.351</ele>
      </trkpt>
      <trkpt lat="46.40706" lon="5.63796">
        <ele>642.865</ele>
      </trkpt>
      <trkpt lat="46.40638" lon="5.63805">
        <ele>638.038</ele>
      </trkpt>
      <trkpt lat="46.40603" lon="5.63803">
        <ele>636.874</ele>
      </trkpt>
      <trkpt lat="46.40504" lon="5.63786">
        <ele>630.908</ele>
      </trkpt>
      <trkpt lat="46.40415" lon="5.63768">
        <ele>626.026</ele>
      </trkpt>
      <trkpt lat="46.40332" lon="5.63742">
        <ele>621.487</ele>
      </trkpt>
      <trkpt lat="46.40187" lon="5.63724">
        <ele>613.091</ele>
      </trkpt>
      <trkpt lat="46.40139" lon="5.63735">
        <ele>607.521</ele>
      </trkpt>
      <trkpt lat="46.3999" lon="5.63608">
        <ele>614.915</ele>
      </trkpt>
      <trkpt lat="46.39925" lon="5.63567">
        <ele>621.067</ele>
      </trkpt>
      <trkpt lat="46.39844" lon="5.6354">
        <ele>628.581</ele>
      </trkpt>
      <trkpt lat="46.39732" lon="5.63472">
        <ele>641.323</ele>
      </trkpt>
      <trkpt lat="46.39673" lon="5.63404">
        <ele>646.149</ele>
      </trkpt>
      <trkpt lat="46.39591" lon="5.63414">
        <ele>637.665</ele>
      </trkpt>
      <trkpt lat="46.39523" lon="5.63441">
        <ele>629.626</ele>
      </trkpt>
      <trkpt lat="46.39447" lon="5.63411">
        <ele>626.404</ele>
      </trkpt>
      <trkpt lat="46.39294" lon="5.63362">
        <ele>613.508</ele>
      </trkpt>
      <trkpt lat="46.39247" lon="5.63398">
        <ele>608.256</ele>
      </trkpt>
      <trkpt lat="46.39205" lon="5.63396">
        <ele>604.185</ele>
      </trkpt>
      <trkpt lat="46.39178" lon="5.63369">
        <ele>601.485</ele>
      </trkpt>
      <trkpt lat="46.39126" lon="5.63356">
        <ele>598.456</ele>
      </trkpt>
      <trkpt lat="46.39088" lon="5.63345">
        <ele>594.763</ele>
      </trkpt>
      <trkpt lat="46.39025" lon="5.63318">
        <ele>587.028</ele>
      </trkpt>
      <trkpt lat="46.38932" lon="5.63342">
        <ele>574.849</ele>
      </trkpt>
      <trkpt lat="46.38875" lon="5.6334">
        <ele>570.469</ele>
      </trkpt>
      <trkpt lat="46.3881" lon="5.63338">
        <ele>565.166</ele>
      </trkpt>
      <trkpt lat="46.38772" lon="5.63356">
        <ele>561.771</ele>
      </trkpt>
      <trkpt lat="46.38703" lon="5.63367">
        <ele>553.632</ele>
      </trkpt>
      <trkpt lat="46.38647" lon="5.63396">
        <ele>549.056</ele>
      </trkpt>
      <trkpt lat="46.3864" lon="5.63399">
        <ele>548.297</ele>
      </trkpt>
      <trkpt lat="46.38482" lon="5.63392">
        <ele>539.262</ele>
      </trkpt>
      <trkpt lat="46.38435" lon="5.634">
        <ele>540.813</ele>
      </trkpt>
      <trkpt lat="46.38399" lon="5.63377">
        <ele>545.971</ele>
      </trkpt>
      <trkpt lat="46.38312" lon="5.63334">
        <ele>552.745</ele>
      </trkpt>
      <trkpt lat="46.38203" lon="5.63285">
        <ele>560.532</ele>
      </trkpt>
      <trkpt lat="46.38064" lon="5.63289">
        <ele>553.304</ele>
      </trkpt>
      <trkpt lat="46.3795" lon="5.63274">
        <ele>550.994</ele>
      </trkpt>
      <trkpt lat="46.37888" lon="5.63247">
        <ele>552.451</ele>
      </trkpt>
      <trkpt lat="46.37881" lon="5.63249">
        <ele>552.462</ele>
      </trkpt>
      <trkpt lat="46.37855" lon="5.63267">
        <ele>551.934</ele>
      </trkpt>
      <trkpt lat="46.37824" lon="5.633">
        <ele>545.296</ele>
      </trkpt>
      <trkpt lat="46.3781" lon="5.63326">
        <ele>545.022</ele>
      </trkpt>
      <trkpt lat="46.37712" lon="5.633">
        <ele>550.347</ele>
      </trkpt>
      <trkpt lat="46.37677" lon="5.63283">
        <ele>556.812</ele>
      </trkpt>
      <trkpt lat="46.37576" lon="5.63282">
        <ele>551.111</ele>
      </trkpt>
      <trkpt lat="46.3753" lon="5.63283">
        <ele>546.752</ele>
      </trkpt>
      <trkpt lat="46.37496" lon="5.63247">
        <ele>544.574</ele>
      </trkpt>
      <trkpt lat="46.37424" lon="5.63233">
        <ele>536.187</ele>
      </trkpt>
      <trkpt lat="46.37406" lon="5.63233">
        <ele>536.265</ele>
      </trkpt>
      <trkpt lat="46.37335" lon="5.63247">
        <ele>535.606</ele>
      </trkpt>
      <trkpt lat="46.37317" lon="5.63241">
        <ele>535.095</ele>
      </trkpt>
      <trkpt lat="46.37126" lon="5.63254">
        <ele>537.363</ele>
      </trkpt>
      <trkpt lat="46.37078" lon="5.63216">
        <ele>545.176</ele>
      </trkpt>
      <trkpt lat="46.37077" lon="5.63133">
        <ele>550.387</ele>
      </trkpt>
      <trkpt lat="46.37079" lon="5.63127">
        <ele>550.664</ele>
      </trkpt>
      <trkpt lat="46.371" lon="5.62987">
        <ele>553.865</ele>
      </trkpt>
      <trkpt lat="46.37094" lon="5.62944">
        <ele>556.543</ele>
      </trkpt>
      <trkpt lat="46.37066" lon="5.62853">
        <ele>563.139</ele>
      </trkpt>
      <trkpt lat="46.3703" lon="5.62852">
        <ele>567.404</ele>
      </trkpt>
      <trkpt lat="46.3701" lon="5.6286">
        <ele>569.93</ele>
      </trkpt>
      <trkpt lat="46.36983" lon="5.62872">
        <ele>572.21</ele>
      </trkpt>
      <trkpt lat="46.36932" lon="5.62872">
        <ele>577.479</ele>
      </trkpt>
      <trkpt lat="46.36917" lon="5.62865">
        <ele>578.875</ele>
      </trkpt>
      <trkpt lat="46.36803" lon="5.62744">
        <ele>582.191</ele>
      </trkpt>
      <trkpt lat="46.36792" lon="5.62728">
        <ele>582.387</ele>
      </trkpt>
      <trkpt lat="46.36699" lon="5.62628">
        <ele>578.298</ele>
      </trkpt>
      <trkpt lat="46.36609" lon="5.62522">
        <ele>580.323</ele>
      </trkpt>
      <trkpt lat="46.36629" lon="5.62359">
        <ele>581.633</ele>
      </trkpt>
      <trkpt lat="46.36632" lon="5.62339">
        <ele>582.469</ele>
      </trkpt>
      <trkpt lat="46.3661" lon="5.62258">
        <ele>582.157</ele>
      </trkpt>
      <trkpt lat="46.36572" lon="5.62263">
        <ele>580.333</ele>
      </trkpt>
      <trkpt lat="46.3645" lon="5.62193">
        <ele>575.568</ele>
      </trkpt>
      <trkpt lat="46.36428" lon="5.62173">
        <ele>574.222</ele>
      </trkpt>
      <trkpt lat="46.36409" lon="5.62148">
        <ele>573.188</ele>
      </trkpt>
      <trkpt lat="46.36406" lon="5.62137">
        <ele>572.956</ele>
      </trkpt>
      <trkpt lat="46.36384" lon="5.62011">
        <ele>568.121</ele>
      </trkpt>
      <trkpt lat="46.36386" lon="5.62002">
        <ele>567.839</ele>
      </trkpt>
      <trkpt lat="46.3641" lon="5.61847">
        <ele>566.303</ele>
      </trkpt>
      <trkpt lat="46.36353" lon="5.61795">
        <ele>562.888</ele>
      </trkpt>
      <trkpt lat="46.36291" lon="5.61779">
        <ele>557.753</ele>
      </trkpt>
      <trkpt lat="46.36251" lon="5.61741">
        <ele>555.435</ele>
      </trkpt>
      <trkpt lat="46.36235" lon="5.61672">
        <ele>554.505</ele>
      </trkpt>
      <trkpt lat="46.36296" lon="5.61478">
        <ele>544.641</ele>
      </trkpt>
      <trkpt lat="46.36226" lon="5.61471">
        <ele>545.006</ele>
      </trkpt>
      <trkpt lat="46.36142" lon="5.61462">
        <ele>547.136</ele>
      </trkpt>
      <trkpt lat="46.35969" lon="5.61378">
        <ele>545</ele>
      </trkpt>
      <trkpt lat="46.358" lon="5.61386">
        <ele>540.538</ele>
      </trkpt>
      <trkpt lat="46.3567" lon="5.6133">
        <ele>537.466</ele>
      </trkpt>
      <trkpt lat="46.35541" lon="5.61287">
        <ele>538.35</ele>
      </trkpt>
      <trkpt lat="46.35495" lon="5.61273">
        <ele>539.021</ele>
      </trkpt>
      <trkpt lat="46.35443" lon="5.61263">
        <ele>538.06</ele>
      </trkpt>
      <trkpt lat="46.35329" lon="5.61302">
        <ele>535.298</ele>
      </trkpt>
      <trkpt lat="46.35285" lon="5.61346">
        <ele>533.322</ele>
      </trkpt>
      <trkpt lat="46.35259" lon="5.61447">
        <ele>528.982</ele>
      </trkpt>
      <trkpt lat="46.35225" lon="5.61534">
        <ele>526.434</ele>
      </trkpt>
      <trkpt lat="46.35181" lon="5.61622">
        <ele>525.304</ele>
      </trkpt>
      <trkpt lat="46.35174" lon="5.61632">
        <ele>525.199</ele>
      </trkpt>
      <trkpt lat="46.35129" lon="5.61778">
        <ele>519.303</ele>
      </trkpt>
      <trkpt lat="46.35165" lon="5.62034">
        <ele>505.968</ele>
      </trkpt>
      <trkpt lat="46.35187" lon="5.62065">
        <ele>503.207</ele>
      </trkpt>
      <trkpt lat="46.35179" lon="5.62213">
        <ele>497.282</ele>
      </trkpt>
      <trkpt lat="46.35184" lon="5.62248">
        <ele>494.833</ele>
      </trkpt>
      <trkpt lat="46.35188" lon="5.62276">
        <ele>491.72</ele>
      </trkpt>
      <trkpt lat="46.35186" lon="5.62337">
        <ele>488.168</ele>
      </trkpt>
      <trkpt lat="46.35191" lon="5.62376">
        <ele>482.594</ele>
      </trkpt>
      <trkpt lat="46.35196" lon="5.62397">
        <ele>480.878</ele>
      </trkpt>
      <trkpt lat="46.35201" lon="5.62416">
        <ele>482.135</ele>
      </trkpt>
      <trkpt lat="46.35203" lon="5.62433">
        <ele>481.349</ele>
      </trkpt>
      <trkpt lat="46.35209" lon="5.62498">
        <ele>476.063</ele>
      </trkpt>
      <trkpt lat="46.3521" lon="5.62517">
        <ele>475.037</ele>
      </trkpt>
      <trkpt lat="46.35173" lon="5.62602">
        <ele>472.61</ele>
      </trkpt>
      <trkpt lat="46.35155" lon="5.62629">
        <ele>470.499</ele>
      </trkpt>
      <trkpt lat="46.35113" lon="5.62694">
        <ele>466.912</ele>
      </trkpt>
      <trkpt lat="46.35112" lon="5.62726">
        <ele>463.553</ele>
      </trkpt>
      <trkpt lat="46.35114" lon="5.62726">
        <ele>463.392</ele>
      </trkpt>
      <trkpt lat="46.35151" lon="5.6271">
        <ele>462.22</ele>
      </trkpt>
      <trkpt lat="46.35155" lon="5.6271">
        <ele>461.948</ele>
      </trkpt>
      <trkpt lat="46.35164" lon="5.62731">
        <ele>458.979</ele>
      </trkpt>
      <trkpt lat="46.35113" lon="5.62837">
        <ele>451.616</ele>
      </trkpt>
      <trkpt lat="46.35092" lon="5.62882">
        <ele>449.27</ele>
      </trkpt>
      <trkpt lat="46.35079" lon="5.62921">
        <ele>446.418</ele>
      </trkpt>
      <trkpt lat="46.35101" lon="5.62928">
        <ele>443.744</ele>
      </trkpt>
      <trkpt lat="46.35109" lon="5.62925">
        <ele>443.229</ele>
      </trkpt>
      <trkpt lat="46.35152" lon="5.62889">
        <ele>440.08</ele>
      </trkpt>
      <trkpt lat="46.35169" lon="5.62885">
        <ele>438.19</ele>
      </trkpt>
      <trkpt lat="46.35198" lon="5.62879">
        <ele>435.602</ele>
      </trkpt>
      <trkpt lat="46.35216" lon="5.62877">
        <ele>433.32</ele>
      </trkpt>
      <trkpt lat="46.35223" lon="5.62891">
        <ele>430.867</ele>
      </trkpt>
      <trkpt lat="46.35221" lon="5.62906">
        <ele>429.15</ele>
      </trkpt>
      <trkpt lat="46.35183" lon="5.62968">
        <ele>426.532</ele>
      </trkpt>
      <trkpt lat="46.35189" lon="5.6298">
        <ele>424.021</ele>
      </trkpt>
      <trkpt lat="46.35191" lon="5.6298">
        <ele>423.627</ele>
      </trkpt>
      <trkpt lat="46.35248" lon="5.62796">
        <ele>411.827</ele>
      </trkpt>
      <trkpt lat="46.35274" lon="5.62653">
        <ele>406.612</ele>
      </trkpt>
      <trkpt lat="46.35282" lon="5.62651">
        <ele>401.102</ele>
      </trkpt>
      <trkpt lat="46.35285" lon="5.62659">
        <ele>398.05</ele>
      </trkpt>
      <trkpt lat="46.35278" lon="5.62713">
        <ele>397.593</ele>
      </trkpt>
      <trkpt lat="46.35275" lon="5.62768">
        <ele>395.055</ele>
      </trkpt>
      <trkpt lat="46.35279" lon="5.62842">
        <ele>389.29</ele>
      </trkpt>
      <trkpt lat="46.35276" lon="5.62964">
        <ele>384.217</ele>
      </trkpt>
      <trkpt lat="46.35269" lon="5.63011">
        <ele>381.014</ele>
      </trkpt>
      <trkpt lat="46.35266" lon="5.63043">
        <ele>378.361</ele>
      </trkpt>
      <trkpt lat="46.35266" lon="5.63043">
        <ele>378.361</ele>
      </trkpt>
      <trkpt lat="46.35263" lon="5.63065">
        <ele>375.796</ele>
      </trkpt>
      <trkpt lat="46.35261" lon="5.63078">
        <ele>373.888</ele>
      </trkpt>
      <trkpt lat="46.35251" lon="5.63096">
        <ele>374.006</ele>
      </trkpt>
      <trkpt lat="46.35031" lon="5.6304">
        <ele>365.812</ele>
      </trkpt>
      <trkpt lat="46.35" lon="5.63028">
        <ele>361.039</ele>
      </trkpt>
      <trkpt lat="46.34951" lon="5.63016">
        <ele>363.256</ele>
      </trkpt>
      <trkpt lat="46.3492" lon="5.63007">
        <ele>361.42</ele>
      </trkpt>
      <trkpt lat="46.34886" lon="5.63003">
        <ele>357.641</ele>
      </trkpt>
      <trkpt lat="46.34869" lon="5.63004">
        <ele>356.982</ele>
      </trkpt>
      <trkpt lat="46.34845" lon="5.63006">
        <ele>354.867</ele>
      </trkpt>
      <trkpt lat="46.34836" lon="5.63006">
        <ele>354.383</ele>
      </trkpt>
      <trkpt lat="46.34821" lon="5.63004">
        <ele>353.943</ele>
      </trkpt>
      <trkpt lat="46.3479" lon="5.63008">
        <ele>353.071</ele>
      </trkpt>
      <trkpt lat="46.34772" lon="5.63013">
        <ele>353.216</ele>
      </trkpt>
      <trkpt lat="46.34758" lon="5.63015">
        <ele>352.536</ele>
      </trkpt>
      <trkpt lat="46.34706" lon="5.63011">
        <ele>349.377</ele>
      </trkpt>
      <trkpt lat="46.34669" lon="5.63007">
        <ele>348.394</ele>
      </trkpt>
      <trkpt lat="46.34571" lon="5.62956">
        <ele>346.49</ele>
      </trkpt>
      <trkpt lat="46.34548" lon="5.62926">
        <ele>344.464</ele>
      </trkpt>
      <trkpt lat="46.34528" lon="5.62898">
        <ele>338.812</ele>
      </trkpt>
      <trkpt lat="46.34506" lon="5.62868">
        <ele>338.663</ele>
      </trkpt>
      <trkpt lat="46.34469" lon="5.62811">
        <ele>337.435</ele>
      </trkpt>
      <trkpt lat="46.3446" lon="5.62804">
        <ele>337.679</ele>
      </trkpt>
      <trkpt lat="46.34452" lon="5.62805">
        <ele>336.305</ele>
      </trkpt>
      <trkpt lat="46.34442" lon="5.62796">
        <ele>335.857</ele>
      </trkpt>
      <trkpt lat="46.3429" lon="5.62694">
        <ele>336.49</ele>
      </trkpt>
      <trkpt lat="46.34184" lon="5.6263">
        <ele>333.236</ele>
      </trkpt>
      <trkpt lat="46.3401" lon="5.6241">
        <ele>327.695</ele>
      </trkpt>
      <trkpt lat="46.33956" lon="5.62395">
        <ele>325.124</ele>
      </trkpt>
      <trkpt lat="46.3387" lon="5.62458">
        <ele>326.198</ele>
      </trkpt>
      <trkpt lat="46.33676" lon="5.62349">
        <ele>322.92</ele>
      </trkpt>
      <trkpt lat="46.3364" lon="5.62327">
        <ele>321.817</ele>
      </trkpt>
      <trkpt lat="46.33554" lon="5.62221">
        <ele>319.929</ele>
      </trkpt>
      <trkpt lat="46.33463" lon="5.62163">
        <ele>316.089</ele>
      </trkpt>
      <trkpt lat="46.33415" lon="5.62147">
        <ele>313.092</ele>
      </trkpt>
      <trkpt lat="46.33385" lon="5.62126">
        <ele>313.709</ele>
      </trkpt>
      <trkpt lat="46.33238" lon="5.61908">
        <ele>317.848</ele>
      </trkpt>
      <trkpt lat="46.33074" lon="5.61672">
        <ele>317.71</ele>
      </trkpt>
      <trkpt lat="46.33031" lon="5.61602">
        <ele>318.445</ele>
      </trkpt>
      <trkpt lat="46.32958" lon="5.61507">
        <ele>311.894</ele>
      </trkpt>
      <trkpt lat="46.32801" lon="5.61241">
        <ele>312.512</ele>
      </trkpt>
      <trkpt lat="46.32665" lon="5.61069">
        <ele>320.725</ele>
      </trkpt>
      <trkpt lat="46.32557" lon="5.60952">
        <ele>313.31</ele>
      </trkpt>
      <trkpt lat="46.3254" lon="5.60931">
        <ele>312.257</ele>
      </trkpt>
      <trkpt lat="46.32516" lon="5.609">
        <ele>312.912</ele>
      </trkpt>
      <trkpt lat="46.32413" lon="5.608">
        <ele>307.567</ele>
      </trkpt>
      <trkpt lat="46.32299" lon="5.60703">
        <ele>305.777</ele>
      </trkpt>
      <trkpt lat="46.32273" lon="5.60671">
        <ele>305.44</ele>
      </trkpt>
      <trkpt lat="46.32221" lon="5.60626">
        <ele>310.058</ele>
      </trkpt>
      <trkpt lat="46.3171" lon="5.6023">
        <ele>307.387</ele>
      </trkpt>
      <trkpt lat="46.31632" lon="5.60173">
        <ele>309.211</ele>
      </trkpt>
      <trkpt lat="46.31577" lon="5.60134">
        <ele>311.601</ele>
      </trkpt>
      <trkpt lat="46.31524" lon="5.6012">
        <ele>309.691</ele>
      </trkpt>
      <trkpt lat="46.31421" lon="5.6013">
        <ele>309.891</ele>
      </trkpt>
      <trkpt lat="46.31319" lon="5.60218">
        <ele>306.093</ele>
      </trkpt>
      <trkpt lat="46.31189" lon="5.60262">
        <ele>309.879</ele>
      </trkpt>
      <trkpt lat="46.31077" lon="5.60207">
        <ele>315.487</ele>
      </trkpt>
      <trkpt lat="46.30956" lon="5.60131">
        <ele>327.285</ele>
      </trkpt>
      <trkpt lat="46.30899" lon="5.60111">
        <ele>329.46</ele>
      </trkpt>
      <trkpt lat="46.3087" lon="5.6011">
        <ele>331.137</ele>
      </trkpt>
      <trkpt lat="46.30827" lon="5.60113">
        <ele>330.495</ele>
      </trkpt>
      <trkpt lat="46.30784" lon="5.60109">
        <ele>331.31</ele>
      </trkpt>
      <trkpt lat="46.30728" lon="5.60074">
        <ele>328.846</ele>
      </trkpt>
      <trkpt lat="46.30688" lon="5.60044">
        <ele>323.998</ele>
      </trkpt>
      <trkpt lat="46.30647" lon="5.60021">
        <ele>317.64</ele>
      </trkpt>
      <trkpt lat="46.30612" lon="5.60003">
        <ele>315.77</ele>
      </trkpt>
      <trkpt lat="46.30576" lon="5.59988">
        <ele>318.055</ele>
      </trkpt>
      <trkpt lat="46.30464" lon="5.59963">
        <ele>320.314</ele>
      </trkpt>
      <trkpt lat="46.3036" lon="5.59917">
        <ele>325.915</ele>
      </trkpt>
      <trkpt lat="46.3027" lon="5.59872">
        <ele>329.408</ele>
      </trkpt>
      <trkpt lat="46.30136" lon="5.59825">
        <ele>330.191</ele>
      </trkpt>
      <trkpt lat="46.2997" lon="5.59744">
        <ele>320.68</ele>
      </trkpt>
      <trkpt lat="46.29928" lon="5.59712">
        <ele>318.398</ele>
      </trkpt>
      <trkpt lat="46.29855" lon="5.59643">
        <ele>313.3</ele>
      </trkpt>
      <trkpt lat="46.29695" lon="5.59467">
        <ele>311.891</ele>
      </trkpt>
      <trkpt lat="46.29593" lon="5.59327">
        <ele>311.909</ele>
      </trkpt>
      <trkpt lat="46.29498" lon="5.59214">
        <ele>311.23</ele>
      </trkpt>
      <trkpt lat="46.29475" lon="5.59164">
        <ele>309.436</ele>
      </trkpt>
      <trkpt lat="46.29458" lon="5.59125">
        <ele>308.877</ele>
      </trkpt>
      <trkpt lat="46.29312" lon="5.59251">
        <ele>303.622</ele>
      </trkpt>
      <trkpt lat="46.29306" lon="5.59258">
        <ele>305.954</ele>
      </trkpt>
      <trkpt lat="46.29378" lon="5.59381">
        <ele>314.14</ele>
      </trkpt>
      <trkpt lat="46.29514" lon="5.59643">
        <ele>312.971</ele>
      </trkpt>
      <trkpt lat="46.29786" lon="5.5991">
        <ele>314.279</ele>
      </trkpt>
      <trkpt lat="46.29941" lon="5.60002">
        <ele>312.228</ele>
      </trkpt>
      <trkpt lat="46.30105" lon="5.60093">
        <ele>314.741</ele>
      </trkpt>
      <trkpt lat="46.30289" lon="5.60173">
        <ele>309.895</ele>
      </trkpt>
      <trkpt lat="46.30354" lon="5.60216">
        <ele>310.476</ele>
      </trkpt>
      <trkpt lat="46.30405" lon="5.60245">
        <ele>309.619</ele>
      </trkpt>
      <trkpt lat="46.3049" lon="5.60281">
        <ele>310.275</ele>
      </trkpt>
      <trkpt lat="46.30595" lon="5.60344">
        <ele>308.902</ele>
      </trkpt>
      <trkpt lat="46.30655" lon="5.60409">
        <ele>310.142</ele>
      </trkpt>
      <trkpt lat="46.30698" lon="5.60442">
        <ele>309.806</ele>
      </trkpt>
      <trkpt lat="46.30737" lon="5.60473">
        <ele>310.67</ele>
      </trkpt>
      <trkpt lat="46.30841" lon="5.60609">
        <ele>317.901</ele>
      </trkpt>
      <trkpt lat="46.31081" lon="5.60809">
        <ele>327.489</ele>
      </trkpt>
      <trkpt lat="46.31126" lon="5.60838">
        <ele>328.942</ele>
      </trkpt>
      <trkpt lat="46.31166" lon="5.60859">
        <ele>328.61</ele>
      </trkpt>
      <trkpt lat="46.31214" lon="5.60898">
        <ele>333.078</ele>
      </trkpt>
      <trkpt lat="46.31268" lon="5.60927">
        <ele>332.198</ele>
      </trkpt>
      <trkpt lat="46.31332" lon="5.60945">
        <ele>328.374</ele>
      </trkpt>
      <trkpt lat="46.31372" lon="5.60984">
        <ele>329.976</ele>
      </trkpt>
      <trkpt lat="46.31422" lon="5.61015">
        <ele>327.833</ele>
      </trkpt>
      <trkpt lat="46.31508" lon="5.61036">
        <ele>326.309</ele>
      </trkpt>
      <trkpt lat="46.31677" lon="5.61081">
        <ele>318.901</ele>
      </trkpt>
      <trkpt lat="46.31776" lon="5.61135">
        <ele>315.178</ele>
      </trkpt>
      <trkpt lat="46.31972" lon="5.61284">
        <ele>310.728</ele>
      </trkpt>
      <trkpt lat="46.32064" lon="5.61346">
        <ele>308.758</ele>
      </trkpt>
      <trkpt lat="46.32112" lon="5.61403">
        <ele>309.998</ele>
      </trkpt>
      <trkpt lat="46.32152" lon="5.61446">
        <ele>310.742</ele>
      </trkpt>
      <trkpt lat="46.32249" lon="5.61531">
        <ele>310.463</ele>
      </trkpt>
      <trkpt lat="46.32326" lon="5.61586">
        <ele>310.958</ele>
      </trkpt>
      <trkpt lat="46.32426" lon="5.61657">
        <ele>310.406</ele>
      </trkpt>
      <trkpt lat="46.32434" lon="5.61669">
        <ele>311.707</ele>
      </trkpt>
      <trkpt lat="46.32434" lon="5.61669">
        <ele>311.707</ele>
      </trkpt>
      <trkpt lat="46.32459" lon="5.61705">
        <ele>310.615</ele>
      </trkpt>
      <trkpt lat="46.32535" lon="5.6189">
        <ele>310.621</ele>
      </trkpt>
      <trkpt lat="46.32558" lon="5.61932">
        <ele>311.199</ele>
      </trkpt>
      <trkpt lat="46.32584" lon="5.61961">
        <ele>310.223</ele>
      </trkpt>
      <trkpt lat="46.3272" lon="5.62024">
        <ele>312.721</ele>
      </trkpt>
      <trkpt lat="46.3282" lon="5.62183">
        <ele>312.07</ele>
      </trkpt>
      <trkpt lat="46.3284" lon="5.62332">
        <ele>315.094</ele>
      </trkpt>
      <trkpt lat="46.32852" lon="5.62432">
        <ele>318.027</ele>
      </trkpt>
      <trkpt lat="46.32909" lon="5.6282">
        <ele>313.757</ele>
      </trkpt>
      <trkpt lat="46.32911" lon="5.62937">
        <ele>315.984</ele>
      </trkpt>
      <trkpt lat="46.32907" lon="5.62973">
        <ele>315.105</ele>
      </trkpt>
      <trkpt lat="46.32896" lon="5.63075">
        <ele>310.957</ele>
      </trkpt>
      <trkpt lat="46.32912" lon="5.63188">
        <ele>311.911</ele>
      </trkpt>
      <trkpt lat="46.32998" lon="5.63394">
        <ele>310.581</ele>
      </trkpt>
      <trkpt lat="46.33016" lon="5.6343">
        <ele>310.896</ele>
      </trkpt>
      <trkpt lat="46.33101" lon="5.63576">
        <ele>312.243</ele>
      </trkpt>
      <trkpt lat="46.33073" lon="5.6354">
        <ele>314.572</ele>
      </trkpt>
      <trkpt lat="46.32994" lon="5.63445">
        <ele>324.944</ele>
      </trkpt>
      <trkpt lat="46.32927" lon="5.63364">
        <ele>343.123</ele>
      </trkpt>
      <trkpt lat="46.32877" lon="5.63304">
        <ele>350.75</ele>
      </trkpt>
      <trkpt lat="46.32817" lon="5.6321">
        <ele>361.733</ele>
      </trkpt>
      <trkpt lat="46.32758" lon="5.63117">
        <ele>378.558</ele>
      </trkpt>
      <trkpt lat="46.32698" lon="5.63023">
        <ele>388.232</ele>
      </trkpt>
      <trkpt lat="46.32639" lon="5.6293">
        <ele>398.872</ele>
      </trkpt>
      <trkpt lat="46.3258" lon="5.62836">
        <ele>414.68</ele>
      </trkpt>
      <trkpt lat="46.32568" lon="5.62819">
        <ele>417.075</ele>
      </trkpt>
      <trkpt lat="46.32514" lon="5.62733">
        <ele>432.179</ele>
      </trkpt>
      <trkpt lat="46.3251" lon="5.62625">
        <ele>436.501</ele>
      </trkpt>
      <trkpt lat="46.32447" lon="5.62536">
        <ele>451.145</ele>
      </trkpt>
      <trkpt lat="46.32414" lon="5.6249">
        <ele>459.127</ele>
      </trkpt>
      <trkpt lat="46.32337" lon="5.6243">
        <ele>471.641</ele>
      </trkpt>
      <trkpt lat="46.32336" lon="5.62429">
        <ele>471.855</ele>
      </trkpt>
      <trkpt lat="46.32281" lon="5.62462">
        <ele>484.995</ele>
      </trkpt>
      <trkpt lat="46.32204" lon="5.62417">
        <ele>498.351</ele>
      </trkpt>
      <trkpt lat="46.32064" lon="5.62277">
        <ele>525.248</ele>
      </trkpt>
      <trkpt lat="46.32011" lon="5.62303">
        <ele>534.589</ele>
      </trkpt>
      <trkpt lat="46.31987" lon="5.62181">
        <ele>547.025</ele>
      </trkpt>
      <trkpt lat="46.32057" lon="5.62097">
        <ele>554.629</ele>
      </trkpt>
      <trkpt lat="46.3206" lon="5.62077">
        <ele>558.906</ele>
      </trkpt>
      <trkpt lat="46.32061" lon="5.62075">
        <ele>559.54</ele>
      </trkpt>
      <trkpt lat="46.32054" lon="5.62072">
        <ele>560.606</ele>
      </trkpt>
      <trkpt lat="46.32029" lon="5.62072">
        <ele>561.759</ele>
      </trkpt>
      <trkpt lat="46.32026" lon="5.62073">
        <ele>562</ele>
      </trkpt>
      <trkpt lat="46.32004" lon="5.62079">
        <ele>565.303</ele>
      </trkpt>
      <trkpt lat="46.3196" lon="5.62088">
        <ele>572.503</ele>
      </trkpt>
      <trkpt lat="46.31941" lon="5.62095">
        <ele>575.428</ele>
      </trkpt>
      <trkpt lat="46.3192" lon="5.62116">
        <ele>579.4</ele>
      </trkpt>
      <trkpt lat="46.31905" lon="5.622">
        <ele>587.821</ele>
      </trkpt>
      <trkpt lat="46.31885" lon="5.62196">
        <ele>597.286</ele>
      </trkpt>
      <trkpt lat="46.31842" lon="5.62072">
        <ele>607.637</ele>
      </trkpt>
      <trkpt lat="46.31819" lon="5.6201">
        <ele>611.139</ele>
      </trkpt>
      <trkpt lat="46.31821" lon="5.61988">
        <ele>612.577</ele>
      </trkpt>
      <trkpt lat="46.31828" lon="5.61965">
        <ele>614.405</ele>
      </trkpt>
      <trkpt lat="46.31827" lon="5.61948">
        <ele>617.16</ele>
      </trkpt>
      <trkpt lat="46.31808" lon="5.61929">
        <ele>619.941</ele>
      </trkpt>
      <trkpt lat="46.31808" lon="5.61929">
        <ele>619.941</ele>
      </trkpt>
      <trkpt lat="46.31785" lon="5.61912">
        <ele>622.942</ele>
      </trkpt>
      <trkpt lat="46.31751" lon="5.6189">
        <ele>626.624</ele>
      </trkpt>
      <trkpt lat="46.31703" lon="5.61882">
        <ele>630.188</ele>
      </trkpt>
      <trkpt lat="46.31663" lon="5.61866">
        <ele>635.905</ele>
      </trkpt>
      <trkpt lat="46.31606" lon="5.61846">
        <ele>644.771</ele>
      </trkpt>
      <trkpt lat="46.31584" lon="5.61821">
        <ele>647.872</ele>
      </trkpt>
      <trkpt lat="46.3155" lon="5.61755">
        <ele>651.996</ele>
      </trkpt>
      <trkpt lat="46.31529" lon="5.61726">
        <ele>650.982</ele>
      </trkpt>
      <trkpt lat="46.31501" lon="5.61718">
        <ele>655.241</ele>
      </trkpt>
      <trkpt lat="46.31472" lon="5.61709">
        <ele>661.086</ele>
      </trkpt>
      <trkpt lat="46.31422" lon="5.61702">
        <ele>662.101</ele>
      </trkpt>
      <trkpt lat="46.31362" lon="5.6171">
        <ele>675.726</ele>
      </trkpt>
      <trkpt lat="46.3135" lon="5.61719">
        <ele>678.705</ele>
      </trkpt>
      <trkpt lat="46.31344" lon="5.61742">
        <ele>682.125</ele>
      </trkpt>
      <trkpt lat="46.31348" lon="5.61766">
        <ele>685.22</ele>
      </trkpt>
      <trkpt lat="46.31368" lon="5.61804">
        <ele>692.761</ele>
      </trkpt>
      <trkpt lat="46.31311" lon="5.61834">
        <ele>701.234</ele>
      </trkpt>
      <trkpt lat="46.31319" lon="5.61933">
        <ele>703.798</ele>
      </trkpt>
      <trkpt lat="46.31322" lon="5.61943">
        <ele>703.961</ele>
      </trkpt>
      <trkpt lat="46.31367" lon="5.6208">
        <ele>706.578</ele>
      </trkpt>
      <trkpt lat="46.31376" lon="5.62124">
        <ele>706.186</ele>
      </trkpt>
      <trkpt lat="46.31369" lon="5.62213">
        <ele>709.488</ele>
      </trkpt>
      <trkpt lat="46.31358" lon="5.62254">
        <ele>711.534</ele>
      </trkpt>
      <trkpt lat="46.31345" lon="5.62283">
        <ele>714.602</ele>
      </trkpt>
      <trkpt lat="46.31284" lon="5.6233">
        <ele>719.877</ele>
      </trkpt>
      <trkpt lat="46.31268" lon="5.62328">
        <ele>720.714</ele>
      </trkpt>
      <trkpt lat="46.31219" lon="5.62351">
        <ele>721.371</ele>
      </trkpt>
      <trkpt lat="46.31161" lon="5.62345">
        <ele>715.671</ele>
      </trkpt>
      <trkpt lat="46.31115" lon="5.62396">
        <ele>711.09</ele>
      </trkpt>
      <trkpt lat="46.31059" lon="5.62424">
        <ele>710.389</ele>
      </trkpt>
      <trkpt lat="46.31001" lon="5.62426">
        <ele>705.397</ele>
      </trkpt>
      <trkpt lat="46.30975" lon="5.62504">
        <ele>702.097</ele>
      </trkpt>
      <trkpt lat="46.30928" lon="5.62597">
        <ele>694.498</ele>
      </trkpt>
      <trkpt lat="46.30902" lon="5.62633">
        <ele>695.242</ele>
      </trkpt>
      <trkpt lat="46.30835" lon="5.62669">
        <ele>691.829</ele>
      </trkpt>
      <trkpt lat="46.30742" lon="5.62669">
        <ele>686.975</ele>
      </trkpt>
      <trkpt lat="46.30709" lon="5.62677">
        <ele>682.821</ele>
      </trkpt>
      <trkpt lat="46.3081" lon="5.62758">
        <ele>675.601</ele>
      </trkpt>
      <trkpt lat="46.30906" lon="5.62842">
        <ele>669.065</ele>
      </trkpt>
      <trkpt lat="46.3092" lon="5.6289">
        <ele>663.449</ele>
      </trkpt>
      <trkpt lat="46.30937" lon="5.62904">
        <ele>663.287</ele>
      </trkpt>
      <trkpt lat="46.30999" lon="5.62973">
        <ele>656.574</ele>
      </trkpt>
      <trkpt lat="46.31015" lon="5.63012">
        <ele>654.952</ele>
      </trkpt>
      <trkpt lat="46.31044" lon="5.63039">
        <ele>654.372</ele>
      </trkpt>
      <trkpt lat="46.31051" lon="5.63063">
        <ele>649.674</ele>
      </trkpt>
      <trkpt lat="46.31014" lon="5.63043">
        <ele>647.8</ele>
      </trkpt>
      <trkpt lat="46.30937" lon="5.62996">
        <ele>641.218</ele>
      </trkpt>
      <trkpt lat="46.30888" lon="5.62935">
        <ele>639.053</ele>
      </trkpt>
      <trkpt lat="46.30802" lon="5.62883">
        <ele>630.576</ele>
      </trkpt>
      <trkpt lat="46.30717" lon="5.62859">
        <ele>622.298</ele>
      </trkpt>
      <trkpt lat="46.30635" lon="5.62844">
        <ele>618.969</ele>
      </trkpt>
      <trkpt lat="46.30575" lon="5.62831">
        <ele>614.852</ele>
      </trkpt>
      <trkpt lat="46.30548" lon="5.6284">
        <ele>612.724</ele>
      </trkpt>
      <trkpt lat="46.30564" lon="5.62866">
        <ele>609.21</ele>
      </trkpt>
      <trkpt lat="46.30596" lon="5.62888">
        <ele>606.634</ele>
      </trkpt>
      <trkpt lat="46.30675" lon="5.62926">
        <ele>600.055</ele>
      </trkpt>
      <trkpt lat="46.30733" lon="5.62971">
        <ele>595.465</ele>
      </trkpt>
      <trkpt lat="46.30767" lon="5.63011">
        <ele>591.976</ele>
      </trkpt>
      <trkpt lat="46.30821" lon="5.63092">
        <ele>584.388</ele>
      </trkpt>
      <trkpt lat="46.30886" lon="5.63183">
        <ele>576.577</ele>
      </trkpt>
      <trkpt lat="46.30936" lon="5.6324">
        <ele>571.47</ele>
      </trkpt>
      <trkpt lat="46.30966" lon="5.63277">
        <ele>568.631</ele>
      </trkpt>
      <trkpt lat="46.30983" lon="5.63308">
        <ele>565.945</ele>
      </trkpt>
      <trkpt lat="46.30979" lon="5.63332">
        <ele>562.668</ele>
      </trkpt>
      <trkpt lat="46.30964" lon="5.63354">
        <ele>559.96</ele>
      </trkpt>
      <trkpt lat="46.30949" lon="5.63353">
        <ele>557.581</ele>
      </trkpt>
      <trkpt lat="46.30832" lon="5.63328">
        <ele>549.435</ele>
      </trkpt>
      <trkpt lat="46.30806" lon="5.6334">
        <ele>547.492</ele>
      </trkpt>
      <trkpt lat="46.30701" lon="5.63319">
        <ele>540.599</ele>
      </trkpt>
      <trkpt lat="46.30681" lon="5.6332">
        <ele>538.402</ele>
      </trkpt>
      <trkpt lat="46.30594" lon="5.63269">
        <ele>532.032</ele>
      </trkpt>
      <trkpt lat="46.30546" lon="5.63213">
        <ele>529.999</ele>
      </trkpt>
      <trkpt lat="46.305" lon="5.63192">
        <ele>526.593</ele>
      </trkpt>
      <trkpt lat="46.30452" lon="5.63158">
        <ele>524.424</ele>
      </trkpt>
      <trkpt lat="46.30395" lon="5.63133">
        <ele>520.376</ele>
      </trkpt>
      <trkpt lat="46.30362" lon="5.63134">
        <ele>516.769</ele>
      </trkpt>
      <trkpt lat="46.30345" lon="5.63139">
        <ele>514.785</ele>
      </trkpt>
      <trkpt lat="46.30318" lon="5.63125">
        <ele>512.536</ele>
      </trkpt>
      <trkpt lat="46.30246" lon="5.6306">
        <ele>507.971</ele>
      </trkpt>
      <trkpt lat="46.30205" lon="5.63037">
        <ele>503.56</ele>
      </trkpt>
      <trkpt lat="46.30187" lon="5.63044">
        <ele>500.619</ele>
      </trkpt>
      <trkpt lat="46.30176" lon="5.631">
        <ele>495.581</ele>
      </trkpt>
      <trkpt lat="46.30179" lon="5.63151">
        <ele>491.781</ele>
      </trkpt>
      <trkpt lat="46.30187" lon="5.63189">
        <ele>490.051</ele>
      </trkpt>
      <trkpt lat="46.30104" lon="5.63281">
        <ele>481.381</ele>
      </trkpt>
      <trkpt lat="46.30053" lon="5.63413">
        <ele>481.981</ele>
      </trkpt>
      <trkpt lat="46.30089" lon="5.63801">
        <ele>481.803</ele>
      </trkpt>
      <trkpt lat="46.30126" lon="5.641">
        <ele>475.017</ele>
      </trkpt>
      <trkpt lat="46.30204" lon="5.64289">
        <ele>465.659</ele>
      </trkpt>
      <trkpt lat="46.30227" lon="5.64362">
        <ele>462.746</ele>
      </trkpt>
      <trkpt lat="46.3026" lon="5.64431">
        <ele>461.017</ele>
      </trkpt>
      <trkpt lat="46.30326" lon="5.64547">
        <ele>455.588</ele>
      </trkpt>
      <trkpt lat="46.30329" lon="5.64711">
        <ele>452.086</ele>
      </trkpt>
      <trkpt lat="46.3029" lon="5.6495">
        <ele>448.776</ele>
      </trkpt>
      <trkpt lat="46.30383" lon="5.65099">
        <ele>439.757</ele>
      </trkpt>
      <trkpt lat="46.30408" lon="5.6518">
        <ele>433.6</ele>
      </trkpt>
      <trkpt lat="46.30455" lon="5.65331">
        <ele>424.696</ele>
      </trkpt>
      <trkpt lat="46.30444" lon="5.65316">
        <ele>424.23</ele>
      </trkpt>
      <trkpt lat="46.30383" lon="5.65276">
        <ele>421.941</ele>
      </trkpt>
      <trkpt lat="46.30328" lon="5.65312">
        <ele>413.82</ele>
      </trkpt>
      <trkpt lat="46.30312" lon="5.65323">
        <ele>412.271</ele>
      </trkpt>
      <trkpt lat="46.30297" lon="5.65369">
        <ele>411.609</ele>
      </trkpt>
      <trkpt lat="46.30153" lon="5.65578">
        <ele>419.582</ele>
      </trkpt>
      <trkpt lat="46.30118" lon="5.65591">
        <ele>419.71</ele>
      </trkpt>
      <trkpt lat="46.30049" lon="5.65619">
        <ele>418.716</ele>
      </trkpt>
      <trkpt lat="46.30066" lon="5.65679">
        <ele>416.208</ele>
      </trkpt>
      <trkpt lat="46.30076" lon="5.65691">
        <ele>416.084</ele>
      </trkpt>
      <trkpt lat="46.3018" lon="5.65802">
        <ele>407.193</ele>
      </trkpt>
      <trkpt lat="46.3029" lon="5.65907">
        <ele>401.018</ele>
      </trkpt>
      <trkpt lat="46.30295" lon="5.6591">
        <ele>400.492</ele>
      </trkpt>
      <trkpt lat="46.30327" lon="5.65833">
        <ele>401.471</ele>
      </trkpt>
      <trkpt lat="46.30314" lon="5.65928">
        <ele>396.974</ele>
      </trkpt>
      <trkpt lat="46.30296" lon="5.65976">
        <ele>396.153</ele>
      </trkpt>
      <trkpt lat="46.30188" lon="5.66059">
        <ele>396.484</ele>
      </trkpt>
      <trkpt lat="46.30177" lon="5.66124">
        <ele>402.37</ele>
      </trkpt>
      <trkpt lat="46.30146" lon="5.66188">
        <ele>407.536</ele>
      </trkpt>
      <trkpt lat="46.30134" lon="5.66235">
        <ele>410.496</ele>
      </trkpt>
      <trkpt lat="46.30127" lon="5.66404">
        <ele>420.175</ele>
      </trkpt>
      <trkpt lat="46.30105" lon="5.66447">
        <ele>423.11</ele>
      </trkpt>
      <trkpt lat="46.30097" lon="5.66478">
        <ele>426.928</ele>
      </trkpt>
      <trkpt lat="46.30095" lon="5.66534">
        <ele>434.076</ele>
      </trkpt>
      <trkpt lat="46.30106" lon="5.6661">
        <ele>439.59</ele>
      </trkpt>
      <trkpt lat="46.30121" lon="5.66667">
        <ele>445.248</ele>
      </trkpt>
      <trkpt lat="46.3012" lon="5.66723">
        <ele>451.556</ele>
      </trkpt>
      <trkpt lat="46.30134" lon="5.66796">
        <ele>457.618</ele>
      </trkpt>
      <trkpt lat="46.30137" lon="5.66854">
        <ele>466.105</ele>
      </trkpt>
      <trkpt lat="46.30146" lon="5.66892">
        <ele>468.62</ele>
      </trkpt>
      <trkpt lat="46.30152" lon="5.66914">
        <ele>471.134</ele>
      </trkpt>
      <trkpt lat="46.30151" lon="5.66913">
        <ele>471.099</ele>
      </trkpt>
      <trkpt lat="46.30133" lon="5.66952">
        <ele>477.527</ele>
      </trkpt>
      <trkpt lat="46.30124" lon="5.66995">
        <ele>483.341</ele>
      </trkpt>
      <trkpt lat="46.30124" lon="5.67038">
        <ele>487.345</ele>
      </trkpt>
      <trkpt lat="46.30095" lon="5.67068">
        <ele>494.324</ele>
      </trkpt>
      <trkpt lat="46.30078" lon="5.67107">
        <ele>502.239</ele>
      </trkpt>
      <trkpt lat="46.30041" lon="5.67125">
        <ele>511.265</ele>
      </trkpt>
      <trkpt lat="46.30025" lon="5.67126">
        <ele>515.425</ele>
      </trkpt>
      <trkpt lat="46.30009" lon="5.67119">
        <ele>519.121</ele>
      </trkpt>
      <trkpt lat="46.29932" lon="5.67057">
        <ele>545.831</ele>
      </trkpt>
      <trkpt lat="46.29909" lon="5.67054">
        <ele>551.734</ele>
      </trkpt>
      <trkpt lat="46.2989" lon="5.6707">
        <ele>558.778</ele>
      </trkpt>
      <trkpt lat="46.29858" lon="5.6708">
        <ele>565.959</ele>
      </trkpt>
      <trkpt lat="46.29817" lon="5.67129">
        <ele>571.741</ele>
      </trkpt>
      <trkpt lat="46.29733" lon="5.67255">
        <ele>580.124</ele>
      </trkpt>
      <trkpt lat="46.29665" lon="5.67413">
        <ele>580.922</ele>
      </trkpt>
      <trkpt lat="46.29637" lon="5.67478">
        <ele>582.394</ele>
      </trkpt>
      <trkpt lat="46.29586" lon="5.67505">
        <ele>579.775</ele>
      </trkpt>
      <trkpt lat="46.29566" lon="5.67551">
        <ele>578.102</ele>
      </trkpt>
      <trkpt lat="46.29546" lon="5.6756">
        <ele>575.518</ele>
      </trkpt>
      <trkpt lat="46.29504" lon="5.67584">
        <ele>570.908</ele>
      </trkpt>
      <trkpt lat="46.29489" lon="5.67599">
        <ele>569.041</ele>
      </trkpt>
      <trkpt lat="46.29473" lon="5.67644">
        <ele>567.061</ele>
      </trkpt>
      <trkpt lat="46.29462" lon="5.67728">
        <ele>564.494</ele>
      </trkpt>
      <trkpt lat="46.2945" lon="5.67776">
        <ele>560.222</ele>
      </trkpt>
      <trkpt lat="46.29438" lon="5.67806">
        <ele>557.761</ele>
      </trkpt>
      <trkpt lat="46.29432" lon="5.67802">
        <ele>557.625</ele>
      </trkpt>
      <trkpt lat="46.29355" lon="5.67733">
        <ele>555.217</ele>
      </trkpt>
      <trkpt lat="46.29353" lon="5.67732">
        <ele>555.152</ele>
      </trkpt>
      <trkpt lat="46.29235" lon="5.67714">
        <ele>551.835</ele>
      </trkpt>
      <trkpt lat="46.29228" lon="5.67713">
        <ele>551.744</ele>
      </trkpt>
      <trkpt lat="46.29018" lon="5.67769">
        <ele>548.346</ele>
      </trkpt>
      <trkpt lat="46.28826" lon="5.67827">
        <ele>544.792</ele>
      </trkpt>
      <trkpt lat="46.2881" lon="5.67833">
        <ele>544.193</ele>
      </trkpt>
      <trkpt lat="46.28769" lon="5.67844">
        <ele>543.805</ele>
      </trkpt>
      <trkpt lat="46.28542" lon="5.67914">
        <ele>542.787</ele>
      </trkpt>
      <trkpt lat="46.28323" lon="5.67959">
        <ele>542.207</ele>
      </trkpt>
      <trkpt lat="46.28175" lon="5.67903">
        <ele>542.548</ele>
      </trkpt>
      <trkpt lat="46.28104" lon="5.67869">
        <ele>543.116</ele>
      </trkpt>
      <trkpt lat="46.28028" lon="5.67835">
        <ele>544.133</ele>
      </trkpt>
      <trkpt lat="46.28022" lon="5.67832">
        <ele>544.123</ele>
      </trkpt>
      <trkpt lat="46.27743" lon="5.67715">
        <ele>549.766</ele>
      </trkpt>
      <trkpt lat="46.27711" lon="5.67703">
        <ele>550.958</ele>
      </trkpt>
      <trkpt lat="46.2767" lon="5.6769">
        <ele>552.874</ele>
      </trkpt>
      <trkpt lat="46.27623" lon="5.67688">
        <ele>555.693</ele>
      </trkpt>
      <trkpt lat="46.2757" lon="5.67689">
        <ele>559.137</ele>
      </trkpt>
      <trkpt lat="46.27427" lon="5.67572">
        <ele>561.363</ele>
      </trkpt>
      <trkpt lat="46.27369" lon="5.67503">
        <ele>562.599</ele>
      </trkpt>
      <trkpt lat="46.27237" lon="5.6724">
        <ele>564.016</ele>
      </trkpt>
      <trkpt lat="46.2717" lon="5.67102">
        <ele>561.407</ele>
      </trkpt>
      <trkpt lat="46.27086" lon="5.66931">
        <ele>558.149</ele>
      </trkpt>
      <trkpt lat="46.27083" lon="5.66923">
        <ele>558</ele>
      </trkpt>
      <trkpt lat="46.26984" lon="5.66722">
        <ele>553.151</ele>
      </trkpt>
      <trkpt lat="46.26984" lon="5.66722">
        <ele>553.151</ele>
      </trkpt>
      <trkpt lat="46.26854" lon="5.66454">
        <ele>554.656</ele>
      </trkpt>
      <trkpt lat="46.26824" lon="5.6639">
        <ele>554.693</ele>
      </trkpt>
      <trkpt lat="46.26753" lon="5.66233">
        <ele>552.937</ele>
      </trkpt>
      <trkpt lat="46.26648" lon="5.66134">
        <ele>554.683</ele>
      </trkpt>
      <trkpt lat="46.26562" lon="5.66058">
        <ele>555.075</ele>
      </trkpt>
      <trkpt lat="46.2638" lon="5.65953">
        <ele>556.29</ele>
      </trkpt>
      <trkpt lat="46.2623" lon="5.65939">
        <ele>554.747</ele>
      </trkpt>
      <trkpt lat="46.26096" lon="5.65897">
        <ele>552.274</ele>
      </trkpt>
      <trkpt lat="46.25912" lon="5.65822">
        <ele>553.639</ele>
      </trkpt>
      <trkpt lat="46.25884" lon="5.65865">
        <ele>556.354</ele>
      </trkpt>
      <trkpt lat="46.25882" lon="5.65866">
        <ele>556.517</ele>
      </trkpt>
      <trkpt lat="46.25851" lon="5.65893">
        <ele>560.795</ele>
      </trkpt>
      <trkpt lat="46.25739" lon="5.65821">
        <ele>557.782</ele>
      </trkpt>
      <trkpt lat="46.25711" lon="5.658">
        <ele>557.305</ele>
      </trkpt>
      <trkpt lat="46.2565" lon="5.65794">
        <ele>557.566</ele>
      </trkpt>
      <trkpt lat="46.25497" lon="5.65767">
        <ele>551.129</ele>
      </trkpt>
      <trkpt lat="46.25491" lon="5.65763">
        <ele>550.666</ele>
      </trkpt>
      <trkpt lat="46.25266" lon="5.65724">
        <ele>552.135</ele>
      </trkpt>
      <trkpt lat="46.25037" lon="5.6574">
        <ele>562.43</ele>
      </trkpt>
      <trkpt lat="46.24946" lon="5.65867">
        <ele>572.87</ele>
      </trkpt>
      <trkpt lat="46.2493" lon="5.65926">
        <ele>575.106</ele>
      </trkpt>
      <trkpt lat="46.24927" lon="5.65945">
        <ele>576.915</ele>
      </trkpt>
      <trkpt lat="46.24919" lon="5.65979">
        <ele>578.658</ele>
      </trkpt>
      <trkpt lat="46.24842" lon="5.66062">
        <ele>585.791</ele>
      </trkpt>
      <trkpt lat="46.24832" lon="5.66091">
        <ele>587.435</ele>
      </trkpt>
      <trkpt lat="46.24814" lon="5.66126">
        <ele>589.995</ele>
      </trkpt>
      <trkpt lat="46.24751" lon="5.66158">
        <ele>592.251</ele>
      </trkpt>
      <trkpt lat="46.24719" lon="5.66188">
        <ele>598.052</ele>
      </trkpt>
      <trkpt lat="46.24697" lon="5.66219">
        <ele>599.539</ele>
      </trkpt>
      <trkpt lat="46.24674" lon="5.66257">
        <ele>605.294</ele>
      </trkpt>
      <trkpt lat="46.24659" lon="5.66275">
        <ele>603.895</ele>
      </trkpt>
      <trkpt lat="46.24592" lon="5.66351">
        <ele>609.518</ele>
      </trkpt>
      <trkpt lat="46.24521" lon="5.66509">
        <ele>618.813</ele>
      </trkpt>
      <trkpt lat="46.24433" lon="5.66731">
        <ele>631.728</ele>
      </trkpt>
      <trkpt lat="46.24393" lon="5.66815">
        <ele>637.744</ele>
      </trkpt>
      <trkpt lat="46.24393" lon="5.66815">
        <ele>637.744</ele>
      </trkpt>
      <trkpt lat="46.24323" lon="5.66962">
        <ele>644.341</ele>
      </trkpt>
      <trkpt lat="46.24257" lon="5.67045">
        <ele>648.701</ele>
      </trkpt>
      <trkpt lat="46.24196" lon="5.67137">
        <ele>651.808</ele>
      </trkpt>
      <trkpt lat="46.2413" lon="5.67269">
        <ele>663.012</ele>
      </trkpt>
      <trkpt lat="46.24119" lon="5.67289">
        <ele>663.16</ele>
      </trkpt>
      <trkpt lat="46.241" lon="5.67409">
        <ele>673.139</ele>
      </trkpt>
      <trkpt lat="46.241" lon="5.67409">
        <ele>673.139</ele>
      </trkpt>
      <trkpt lat="46.24095" lon="5.6747">
        <ele>675.876</ele>
      </trkpt>
      <trkpt lat="46.24097" lon="5.6751">
        <ele>681.551</ele>
      </trkpt>
      <trkpt lat="46.24101" lon="5.67548">
        <ele>684.434</ele>
      </trkpt>
      <trkpt lat="46.24112" lon="5.67571">
        <ele>689.516</ele>
      </trkpt>
      <trkpt lat="46.24133" lon="5.67597">
        <ele>697.048</ele>
      </trkpt>
      <trkpt lat="46.24164" lon="5.67622">
        <ele>701.597</ele>
      </trkpt>
      <trkpt lat="46.24172" lon="5.67635">
        <ele>699.537</ele>
      </trkpt>
      <trkpt lat="46.2416" lon="5.67682">
        <ele>696.087</ele>
      </trkpt>
      <trkpt lat="46.24148" lon="5.67688">
        <ele>696.107</ele>
      </trkpt>
      <trkpt lat="46.2413" lon="5.67714">
        <ele>700.761</ele>
      </trkpt>
      <trkpt lat="46.24112" lon="5.67742">
        <ele>704.359</ele>
      </trkpt>
      <trkpt lat="46.24104" lon="5.67746">
        <ele>704.912</ele>
      </trkpt>
      <trkpt lat="46.24054" lon="5.67756">
        <ele>709.623</ele>
      </trkpt>
      <trkpt lat="46.24022" lon="5.67762">
        <ele>711.841</ele>
      </trkpt>
      <trkpt lat="46.24011" lon="5.67762">
        <ele>712.822</ele>
      </trkpt>
      <trkpt lat="46.23948" lon="5.67778">
        <ele>719.577</ele>
      </trkpt>
      <trkpt lat="46.23878" lon="5.67772">
        <ele>725.049</ele>
      </trkpt>
      <trkpt lat="46.23851" lon="5.67789">
        <ele>728.365</ele>
      </trkpt>
      <trkpt lat="46.23842" lon="5.67825">
        <ele>732.203</ele>
      </trkpt>
      <trkpt lat="46.2383" lon="5.6784">
        <ele>732.295</ele>
      </trkpt>
      <trkpt lat="46.23796" lon="5.67834">
        <ele>734.332</ele>
      </trkpt>
      <trkpt lat="46.23785" lon="5.67835">
        <ele>735.474</ele>
      </trkpt>
      <trkpt lat="46.23751" lon="5.67854">
        <ele>738.669</ele>
      </trkpt>
      <trkpt lat="46.23733" lon="5.67911">
        <ele>741.887</ele>
      </trkpt>
      <trkpt lat="46.23734" lon="5.67937">
        <ele>744.278</ele>
      </trkpt>
      <trkpt lat="46.23735" lon="5.67963">
        <ele>745.926</ele>
      </trkpt>
      <trkpt lat="46.23729" lon="5.67982">
        <ele>746.89</ele>
      </trkpt>
      <trkpt lat="46.23623" lon="5.68001">
        <ele>755.647</ele>
      </trkpt>
      <trkpt lat="46.23549" lon="5.68072">
        <ele>764.246</ele>
      </trkpt>
      <trkpt lat="46.23557" lon="5.68214">
        <ele>774.484</ele>
      </trkpt>
      <trkpt lat="46.23553" lon="5.68248">
        <ele>776.098</ele>
      </trkpt>
      <trkpt lat="46.23542" lon="5.68269">
        <ele>779.9</ele>
      </trkpt>
      <trkpt lat="46.23475" lon="5.68368">
        <ele>787.527</ele>
      </trkpt>
      <trkpt lat="46.23454" lon="5.68399">
        <ele>789.692</ele>
      </trkpt>
      <trkpt lat="46.23427" lon="5.68416">
        <ele>792.24</ele>
      </trkpt>
      <trkpt lat="46.234" lon="5.68436">
        <ele>795.848</ele>
      </trkpt>
      <trkpt lat="46.23379" lon="5.68459">
        <ele>798.568</ele>
      </trkpt>
      <trkpt lat="46.23375" lon="5.68471">
        <ele>798.6</ele>
      </trkpt>
      <trkpt lat="46.23379" lon="5.68507">
        <ele>798.303</ele>
      </trkpt>
      <trkpt lat="46.23544" lon="5.685">
        <ele>808.921</ele>
      </trkpt>
      <trkpt lat="46.23616" lon="5.68532">
        <ele>816.809</ele>
      </trkpt>
      <trkpt lat="46.23705" lon="5.68541">
        <ele>821.685</ele>
      </trkpt>
      <trkpt lat="46.23742" lon="5.68578">
        <ele>827.772</ele>
      </trkpt>
      <trkpt lat="46.23752" lon="5.68605">
        <ele>831.616</ele>
      </trkpt>
      <trkpt lat="46.23772" lon="5.68636">
        <ele>833.199</ele>
      </trkpt>
      <trkpt lat="46.23786" lon="5.68642">
        <ele>832.791</ele>
      </trkpt>
      <trkpt lat="46.23881" lon="5.68597">
        <ele>840.849</ele>
      </trkpt>
      <trkpt lat="46.23914" lon="5.68523">
        <ele>844.827</ele>
      </trkpt>
      <trkpt lat="46.23947" lon="5.68516">
        <ele>846.607</ele>
      </trkpt>
      <trkpt lat="46.24019" lon="5.68559">
        <ele>857.412</ele>
      </trkpt>
      <trkpt lat="46.24041" lon="5.68572">
        <ele>859.536</ele>
      </trkpt>
      <trkpt lat="46.24064" lon="5.68602">
        <ele>863.196</ele>
      </trkpt>
      <trkpt lat="46.24068" lon="5.68626">
        <ele>864.454</ele>
      </trkpt>
      <trkpt lat="46.24069" lon="5.68717">
        <ele>870.262</ele>
      </trkpt>
      <trkpt lat="46.24032" lon="5.68842">
        <ele>878.093</ele>
      </trkpt>
      <trkpt lat="46.24025" lon="5.68882">
        <ele>879.451</ele>
      </trkpt>
      <trkpt lat="46.2403" lon="5.68915">
        <ele>879.213</ele>
      </trkpt>
      <trkpt lat="46.24039" lon="5.6893">
        <ele>879.354</ele>
      </trkpt>
      <trkpt lat="46.24081" lon="5.68997">
        <ele>880.575</ele>
      </trkpt>
      <trkpt lat="46.24118" lon="5.69048">
        <ele>885.405</ele>
      </trkpt>
      <trkpt lat="46.24127" lon="5.6917">
        <ele>893.488</ele>
      </trkpt>
      <trkpt lat="46.24136" lon="5.69202">
        <ele>893.738</ele>
      </trkpt>
      <trkpt lat="46.24153" lon="5.69228">
        <ele>896.591</ele>
      </trkpt>
      <trkpt lat="46.24178" lon="5.6924">
        <ele>899.807</ele>
      </trkpt>
      <trkpt lat="46.24199" lon="5.6927">
        <ele>905.461</ele>
      </trkpt>
      <trkpt lat="46.24216" lon="5.69293">
        <ele>905.399</ele>
      </trkpt>
      <trkpt lat="46.24223" lon="5.69296">
        <ele>903.417</ele>
      </trkpt>
      <trkpt lat="46.24264" lon="5.69275">
        <ele>905.59</ele>
      </trkpt>
      <trkpt lat="46.24293" lon="5.69294">
        <ele>910.779</ele>
      </trkpt>
      <trkpt lat="46.24339" lon="5.69347">
        <ele>914.809</ele>
      </trkpt>
      <trkpt lat="46.24366" lon="5.69423">
        <ele>921.289</ele>
      </trkpt>
      <trkpt lat="46.24376" lon="5.69489">
        <ele>921.821</ele>
      </trkpt>
      <trkpt lat="46.24369" lon="5.6952">
        <ele>924.543</ele>
      </trkpt>
      <trkpt lat="46.24258" lon="5.69476">
        <ele>932.512</ele>
      </trkpt>
      <trkpt lat="46.24232" lon="5.69465">
        <ele>933.09</ele>
      </trkpt>
      <trkpt lat="46.24157" lon="5.69451">
        <ele>936.877</ele>
      </trkpt>
      <trkpt lat="46.24125" lon="5.69456">
        <ele>939.733</ele>
      </trkpt>
      <trkpt lat="46.24102" lon="5.69483">
        <ele>942.157</ele>
      </trkpt>
      <trkpt lat="46.24075" lon="5.69497">
        <ele>943.406</ele>
      </trkpt>
      <trkpt lat="46.24046" lon="5.69498">
        <ele>946.832</ele>
      </trkpt>
      <trkpt lat="46.23968" lon="5.69439">
        <ele>954.115</ele>
      </trkpt>
      <trkpt lat="46.23944" lon="5.69445">
        <ele>956.169</ele>
      </trkpt>
      <trkpt lat="46.2386" lon="5.69501">
        <ele>960.189</ele>
      </trkpt>
      <trkpt lat="46.2386" lon="5.69501">
        <ele>960.189</ele>
      </trkpt>
      <trkpt lat="46.23737" lon="5.69531">
        <ele>959.531</ele>
      </trkpt>
      <trkpt lat="46.23727" lon="5.69533">
        <ele>959.901</ele>
      </trkpt>
      <trkpt lat="46.2368" lon="5.69504">
        <ele>956.843</ele>
      </trkpt>
      <trkpt lat="46.23667" lon="5.69494">
        <ele>955.183</ele>
      </trkpt>
      <trkpt lat="46.23657" lon="5.69491">
        <ele>951.536</ele>
      </trkpt>
      <trkpt lat="46.23609" lon="5.69524">
        <ele>946.479</ele>
      </trkpt>
      <trkpt lat="46.23556" lon="5.69504">
        <ele>924.203</ele>
      </trkpt>
      <trkpt lat="46.23548" lon="5.69539">
        <ele>945.42</ele>
      </trkpt>
      <trkpt lat="46.2351" lon="5.69568">
        <ele>949.892</ele>
      </trkpt>
      <trkpt lat="46.23493" lon="5.69586">
        <ele>954.416</ele>
      </trkpt>
      <trkpt lat="46.23487" lon="5.69588">
        <ele>955.12</ele>
      </trkpt>
      <trkpt lat="46.23465" lon="5.69584">
        <ele>951.604</ele>
      </trkpt>
      <trkpt lat="46.23456" lon="5.69587">
        <ele>950.767</ele>
      </trkpt>
      <trkpt lat="46.23448" lon="5.69596">
        <ele>952.199</ele>
      </trkpt>
      <trkpt lat="46.23436" lon="5.69617">
        <ele>956.366</ele>
      </trkpt>
      <trkpt lat="46.23428" lon="5.69672">
        <ele>968.64</ele>
      </trkpt>
      <trkpt lat="46.23419" lon="5.69704">
        <ele>968.923</ele>
      </trkpt>
      <trkpt lat="46.23335" lon="5.69706">
        <ele>969.342</ele>
      </trkpt>
      <trkpt lat="46.23285" lon="5.69716">
        <ele>967.628</ele>
      </trkpt>
      <trkpt lat="46.23252" lon="5.69726">
        <ele>963.355</ele>
      </trkpt>
      <trkpt lat="46.23232" lon="5.69721">
        <ele>958.643</ele>
      </trkpt>
      <trkpt lat="46.23168" lon="5.69671">
        <ele>952.469</ele>
      </trkpt>
      <trkpt lat="46.23137" lon="5.69643">
        <ele>946.802</ele>
      </trkpt>
      <trkpt lat="46.2311" lon="5.69613">
        <ele>942.698</ele>
      </trkpt>
      <trkpt lat="46.23089" lon="5.6957">
        <ele>939.415</ele>
      </trkpt>
      <trkpt lat="46.23059" lon="5.69521">
        <ele>940.834</ele>
      </trkpt>
      <trkpt lat="46.23031" lon="5.69534">
        <ele>939.48</ele>
      </trkpt>
      <trkpt lat="46.23024" lon="5.69561">
        <ele>936.711</ele>
      </trkpt>
      <trkpt lat="46.23034" lon="5.69591">
        <ele>934.51</ele>
      </trkpt>
      <trkpt lat="46.23097" lon="5.69666">
        <ele>927.198</ele>
      </trkpt>
      <trkpt lat="46.23119" lon="5.69779">
        <ele>917.077</ele>
      </trkpt>
      <trkpt lat="46.23111" lon="5.6979">
        <ele>915.386</ele>
      </trkpt>
      <trkpt lat="46.23088" lon="5.69808">
        <ele>909.91</ele>
      </trkpt>
      <trkpt lat="46.23022" lon="5.69817">
        <ele>909.947</ele>
      </trkpt>
      <trkpt lat="46.22845" lon="5.69589">
        <ele>898.959</ele>
      </trkpt>
      <trkpt lat="46.22812" lon="5.69588">
        <ele>896.283</ele>
      </trkpt>
      <trkpt lat="46.22787" lon="5.69607">
        <ele>891.456</ele>
      </trkpt>
      <trkpt lat="46.22777" lon="5.69624">
        <ele>888.805</ele>
      </trkpt>
      <trkpt lat="46.2277" lon="5.69633">
        <ele>886.982</ele>
      </trkpt>
      <trkpt lat="46.22797" lon="5.69722">
        <ele>886.722</ele>
      </trkpt>
      <trkpt lat="46.22837" lon="5.6993">
        <ele>878.392</ele>
      </trkpt>
      <trkpt lat="46.22919" lon="5.70076">
        <ele>870.546</ele>
      </trkpt>
      <trkpt lat="46.22919" lon="5.70076">
        <ele>870.546</ele>
      </trkpt>
      <trkpt lat="46.22937" lon="5.70124">
        <ele>867.122</ele>
      </trkpt>
      <trkpt lat="46.22867" lon="5.70197">
        <ele>869.671</ele>
      </trkpt>
      <trkpt lat="46.22764" lon="5.70193">
        <ele>869.783</ele>
      </trkpt>
      <trkpt lat="46.22528" lon="5.7015">
        <ele>865.648</ele>
      </trkpt>
      <trkpt lat="46.22442" lon="5.70106">
        <ele>861.078</ele>
      </trkpt>
      <trkpt lat="46.22442" lon="5.70106">
        <ele>861.078</ele>
      </trkpt>
      <trkpt lat="46.22365" lon="5.70068">
        <ele>857.055</ele>
      </trkpt>
      <trkpt lat="46.2234" lon="5.70051">
        <ele>855.483</ele>
      </trkpt>
      <trkpt lat="46.22312" lon="5.70063">
        <ele>857.387</ele>
      </trkpt>
      <trkpt lat="46.22278" lon="5.70075">
        <ele>857.947</ele>
      </trkpt>
      <trkpt lat="46.22229" lon="5.7008">
        <ele>851.936</ele>
      </trkpt>
      <trkpt lat="46.22193" lon="5.70062">
        <ele>851.928</ele>
      </trkpt>
      <trkpt lat="46.22045" lon="5.70101">
        <ele>851.768</ele>
      </trkpt>
      <trkpt lat="46.21874" lon="5.70039">
        <ele>858.952</ele>
      </trkpt>
      <trkpt lat="46.21833" lon="5.70043">
        <ele>857.841</ele>
      </trkpt>
      <trkpt lat="46.21749" lon="5.69959">
        <ele>864.417</ele>
      </trkpt>
      <trkpt lat="46.21712" lon="5.70058">
        <ele>869.814</ele>
      </trkpt>
      <trkpt lat="46.21697" lon="5.70087">
        <ele>875.308</ele>
      </trkpt>
      <trkpt lat="46.21653" lon="5.7016">
        <ele>881.527</ele>
      </trkpt>
      <trkpt lat="46.21652" lon="5.70206">
        <ele>883.555</ele>
      </trkpt>
      <trkpt lat="46.21663" lon="5.7027">
        <ele>889.286</ele>
      </trkpt>
      <trkpt lat="46.21635" lon="5.70351">
        <ele>894.407</ele>
      </trkpt>
      <trkpt lat="46.2163" lon="5.70445">
        <ele>902.044</ele>
      </trkpt>
      <trkpt lat="46.21622" lon="5.70503">
        <ele>899.079</ele>
      </trkpt>
      <trkpt lat="46.2159" lon="5.70587">
        <ele>896.444</ele>
      </trkpt>
      <trkpt lat="46.21612" lon="5.70744">
        <ele>891.019</ele>
      </trkpt>
      <trkpt lat="46.21615" lon="5.70819">
        <ele>888.668</ele>
      </trkpt>
      <trkpt lat="46.21603" lon="5.70958">
        <ele>882.256</ele>
      </trkpt>
      <trkpt lat="46.21616" lon="5.71033">
        <ele>878.195</ele>
      </trkpt>
      <trkpt lat="46.21653" lon="5.71124">
        <ele>869.378</ele>
      </trkpt>
      <trkpt lat="46.21665" lon="5.71198">
        <ele>866.587</ele>
      </trkpt>
      <trkpt lat="46.21644" lon="5.71291">
        <ele>861.168</ele>
      </trkpt>
      <trkpt lat="46.21648" lon="5.71331">
        <ele>859.594</ele>
      </trkpt>
      <trkpt lat="46.21672" lon="5.71386">
        <ele>858.208</ele>
      </trkpt>
      <trkpt lat="46.21668" lon="5.71502">
        <ele>845.807</ele>
      </trkpt>
      <trkpt lat="46.21671" lon="5.71633">
        <ele>830.922</ele>
      </trkpt>
      <trkpt lat="46.2166" lon="5.71743">
        <ele>824.901</ele>
      </trkpt>
      <trkpt lat="46.21654" lon="5.71843">
        <ele>818.888</ele>
      </trkpt>
      <trkpt lat="46.21637" lon="5.71924">
        <ele>810.828</ele>
      </trkpt>
      <trkpt lat="46.21613" lon="5.71911">
        <ele>813.671</ele>
      </trkpt>
      <trkpt lat="46.21613" lon="5.7191">
        <ele>813.744</ele>
      </trkpt>
      <trkpt lat="46.21511" lon="5.71913">
        <ele>816.935</ele>
      </trkpt>
      <trkpt lat="46.21465" lon="5.7188">
        <ele>821.119</ele>
      </trkpt>
      <trkpt lat="46.21444" lon="5.71864">
        <ele>822.844</ele>
      </trkpt>
      <trkpt lat="46.21408" lon="5.71803">
        <ele>824.056</ele>
      </trkpt>
      <trkpt lat="46.21381" lon="5.71751">
        <ele>829.489</ele>
      </trkpt>
      <trkpt lat="46.21333" lon="5.71698">
        <ele>832.849</ele>
      </trkpt>
      <trkpt lat="46.21315" lon="5.71667">
        <ele>835.289</ele>
      </trkpt>
      <trkpt lat="46.21301" lon="5.71572">
        <ele>834.445</ele>
      </trkpt>
      <trkpt lat="46.21258" lon="5.71492">
        <ele>838.174</ele>
      </trkpt>
      <trkpt lat="46.21228" lon="5.71447">
        <ele>843.727</ele>
      </trkpt>
      <trkpt lat="46.21198" lon="5.7144">
        <ele>847.213</ele>
      </trkpt>
      <trkpt lat="46.21108" lon="5.71405">
        <ele>852.136</ele>
      </trkpt>
      <trkpt lat="46.21074" lon="5.71367">
        <ele>856.084</ele>
      </trkpt>
      <trkpt lat="46.21054" lon="5.71342">
        <ele>858.228</ele>
      </trkpt>
      <trkpt lat="46.21035" lon="5.7132">
        <ele>862.657</ele>
      </trkpt>
      <trkpt lat="46.20975" lon="5.71303">
        <ele>864.138</ele>
      </trkpt>
      <trkpt lat="46.20904" lon="5.71265">
        <ele>868.595</ele>
      </trkpt>
      <trkpt lat="46.20855" lon="5.71284">
        <ele>868.636</ele>
      </trkpt>
      <trkpt lat="46.20829" lon="5.71313">
        <ele>868.08</ele>
      </trkpt>
      <trkpt lat="46.20802" lon="5.71341">
        <ele>865.784</ele>
      </trkpt>
      <trkpt lat="46.20742" lon="5.71322">
        <ele>865.836</ele>
      </trkpt>
      <trkpt lat="46.207" lon="5.7131">
        <ele>869.542</ele>
      </trkpt>
      <trkpt lat="46.20678" lon="5.71325">
        <ele>873.019</ele>
      </trkpt>
      <trkpt lat="46.20658" lon="5.71332">
        <ele>875.861</ele>
      </trkpt>
      <trkpt lat="46.20636" lon="5.71336">
        <ele>877.611</ele>
      </trkpt>
      <trkpt lat="46.2061" lon="5.71386">
        <ele>879.638</ele>
      </trkpt>
      <trkpt lat="46.20591" lon="5.71456">
        <ele>879.061</ele>
      </trkpt>
      <trkpt lat="46.20568" lon="5.71526">
        <ele>877.791</ele>
      </trkpt>
      <trkpt lat="46.2056" lon="5.71547">
        <ele>876.627</ele>
      </trkpt>
      <trkpt lat="46.2045" lon="5.71558">
        <ele>872.783</ele>
      </trkpt>
      <trkpt lat="46.20315" lon="5.71512">
        <ele>874.045</ele>
      </trkpt>
      <trkpt lat="46.20271" lon="5.71489">
        <ele>875.835</ele>
      </trkpt>
      <trkpt lat="46.20136" lon="5.71421">
        <ele>878.344</ele>
      </trkpt>
      <trkpt lat="46.20067" lon="5.7139">
        <ele>878.693</ele>
      </trkpt>
      <trkpt lat="46.20029" lon="5.71388">
        <ele>875.207</ele>
      </trkpt>
      <trkpt lat="46.20006" lon="5.71392">
        <ele>872.091</ele>
      </trkpt>
      <trkpt lat="46.19977" lon="5.71404">
        <ele>868.451</ele>
      </trkpt>
      <trkpt lat="46.19951" lon="5.71425">
        <ele>863.543</ele>
      </trkpt>
      <trkpt lat="46.19903" lon="5.7145">
        <ele>857.166</ele>
      </trkpt>
      <trkpt lat="46.19873" lon="5.71457">
        <ele>854.577</ele>
      </trkpt>
      <trkpt lat="46.19773" lon="5.71433">
        <ele>852.353</ele>
      </trkpt>
      <trkpt lat="46.19742" lon="5.71466">
        <ele>847.086</ele>
      </trkpt>
      <trkpt lat="46.19719" lon="5.71491">
        <ele>840.847</ele>
      </trkpt>
      <trkpt lat="46.19706" lon="5.71493">
        <ele>838.727</ele>
      </trkpt>
      <trkpt lat="46.19627" lon="5.71426">
        <ele>830.605</ele>
      </trkpt>
      <trkpt lat="46.1959" lon="5.71423">
        <ele>825.132</ele>
      </trkpt>
      <trkpt lat="46.19505" lon="5.71784">
        <ele>819.202</ele>
      </trkpt>
      <trkpt lat="46.19505" lon="5.71784">
        <ele>819.202</ele>
      </trkpt>
      <trkpt lat="46.19502" lon="5.71879">
        <ele>818.074</ele>
      </trkpt>
      <trkpt lat="46.19497" lon="5.71996">
        <ele>817.215</ele>
      </trkpt>
      <trkpt lat="46.19493" lon="5.72071">
        <ele>814.136</ele>
      </trkpt>
      <trkpt lat="46.19449" lon="5.72198">
        <ele>808.784</ele>
      </trkpt>
      <trkpt lat="46.19415" lon="5.72292">
        <ele>806.697</ele>
      </trkpt>
      <trkpt lat="46.19411" lon="5.72367">
        <ele>804.261</ele>
      </trkpt>
      <trkpt lat="46.19411" lon="5.72394">
        <ele>801.789</ele>
      </trkpt>
      <trkpt lat="46.1938" lon="5.72472">
        <ele>800.683</ele>
      </trkpt>
      <trkpt lat="46.19373" lon="5.72527">
        <ele>800.685</ele>
      </trkpt>
      <trkpt lat="46.19355" lon="5.72621">
        <ele>796.413</ele>
      </trkpt>
      <trkpt lat="46.19341" lon="5.72667">
        <ele>793.997</ele>
      </trkpt>
      <trkpt lat="46.19291" lon="5.72728">
        <ele>789.3</ele>
      </trkpt>
      <trkpt lat="46.19254" lon="5.72775">
        <ele>785.34</ele>
      </trkpt>
      <trkpt lat="46.19206" lon="5.72816">
        <ele>778.801</ele>
      </trkpt>
      <trkpt lat="46.19171" lon="5.72813">
        <ele>776.987</ele>
      </trkpt>
      <trkpt lat="46.19133" lon="5.72769">
        <ele>776.526</ele>
      </trkpt>
      <trkpt lat="46.19133" lon="5.72769">
        <ele>776.526</ele>
      </trkpt>
      <trkpt lat="46.19083" lon="5.72518">
        <ele>769.976</ele>
      </trkpt>
      <trkpt lat="46.19082" lon="5.72513">
        <ele>769.706</ele>
      </trkpt>
      <trkpt lat="46.19065" lon="5.72432">
        <ele>765.435</ele>
      </trkpt>
      <trkpt lat="46.1907" lon="5.72338">
        <ele>760.096</ele>
      </trkpt>
      <trkpt lat="46.19079" lon="5.72254">
        <ele>756.172</ele>
      </trkpt>
      <trkpt lat="46.19079" lon="5.72233">
        <ele>755.398</ele>
      </trkpt>
      <trkpt lat="46.19029" lon="5.72166">
        <ele>748.405</ele>
      </trkpt>
      <trkpt lat="46.18997" lon="5.7217">
        <ele>745.402</ele>
      </trkpt>
      <trkpt lat="46.18966" lon="5.7215">
        <ele>744.349</ele>
      </trkpt>
      <trkpt lat="46.18929" lon="5.72132">
        <ele>738.958</ele>
      </trkpt>
      <trkpt lat="46.18924" lon="5.72155">
        <ele>736.589</ele>
      </trkpt>
      <trkpt lat="46.18945" lon="5.72289">
        <ele>730.363</ele>
      </trkpt>
      <trkpt lat="46.1894" lon="5.72363">
        <ele>725.671</ele>
      </trkpt>
      <trkpt lat="46.18921" lon="5.72399">
        <ele>722.733</ele>
      </trkpt>
      <trkpt lat="46.18902" lon="5.7245">
        <ele>718.833</ele>
      </trkpt>
      <trkpt lat="46.18888" lon="5.72562">
        <ele>709.748</ele>
      </trkpt>
      <trkpt lat="46.1888" lon="5.7259">
        <ele>708.154</ele>
      </trkpt>
      <trkpt lat="46.18837" lon="5.72746">
        <ele>694.668</ele>
      </trkpt>
      <trkpt lat="46.18823" lon="5.72833">
        <ele>688.184</ele>
      </trkpt>
      <trkpt lat="46.18813" lon="5.72922">
        <ele>682.934</ele>
      </trkpt>
      <trkpt lat="46.18814" lon="5.7304">
        <ele>675.159</ele>
      </trkpt>
      <trkpt lat="46.18798" lon="5.73184">
        <ele>662.87</ele>
      </trkpt>
      <trkpt lat="46.18791" lon="5.73319">
        <ele>651.614</ele>
      </trkpt>
      <trkpt lat="46.18796" lon="5.73498">
        <ele>637.939</ele>
      </trkpt>
      <trkpt lat="46.18798" lon="5.73525">
        <ele>635.181</ele>
      </trkpt>
      <trkpt lat="46.1884" lon="5.73608">
        <ele>631.633</ele>
      </trkpt>
      <trkpt lat="46.18836" lon="5.7363">
        <ele>627.331</ele>
      </trkpt>
      <trkpt lat="46.1882" lon="5.73637">
        <ele>624.466</ele>
      </trkpt>
      <trkpt lat="46.18804" lon="5.73625">
        <ele>623.551</ele>
      </trkpt>
      <trkpt lat="46.18745" lon="5.73456">
        <ele>610.42</ele>
      </trkpt>
      <trkpt lat="46.187" lon="5.73287">
        <ele>602.09</ele>
      </trkpt>
      <trkpt lat="46.18689" lon="5.73234">
        <ele>597.563</ele>
      </trkpt>
      <trkpt lat="46.18688" lon="5.73193">
        <ele>597.59</ele>
      </trkpt>
      <trkpt lat="46.18687" lon="5.73152">
        <ele>594.899</ele>
      </trkpt>
      <trkpt lat="46.1868" lon="5.73152">
        <ele>591.336</ele>
      </trkpt>
      <trkpt lat="46.1867" lon="5.73202">
        <ele>587.768</ele>
      </trkpt>
      <trkpt lat="46.18657" lon="5.73332">
        <ele>577.819</ele>
      </trkpt>
      <trkpt lat="46.18675" lon="5.73463">
        <ele>568.203</ele>
      </trkpt>
      <trkpt lat="46.18679" lon="5.73519">
        <ele>564.592</ele>
      </trkpt>
      <trkpt lat="46.18687" lon="5.73563">
        <ele>561.955</ele>
      </trkpt>
      <trkpt lat="46.1868" lon="5.73588">
        <ele>556.983</ele>
      </trkpt>
      <trkpt lat="46.18659" lon="5.73534">
        <ele>556.206</ele>
      </trkpt>
      <trkpt lat="46.1862" lon="5.7346">
        <ele>552.301</ele>
      </trkpt>
      <trkpt lat="46.18615" lon="5.73372">
        <ele>551.906</ele>
      </trkpt>
      <trkpt lat="46.18602" lon="5.73342">
        <ele>548.683</ele>
      </trkpt>
      <trkpt lat="46.18587" lon="5.73336">
        <ele>547.723</ele>
      </trkpt>
      <trkpt lat="46.18577" lon="5.73338">
        <ele>549.93</ele>
      </trkpt>
      <trkpt lat="46.18569" lon="5.73354">
        <ele>549.672</ele>
      </trkpt>
      <trkpt lat="46.18524" lon="5.73548">
        <ele>538.441</ele>
      </trkpt>
      <trkpt lat="46.18518" lon="5.73597">
        <ele>536.663</ele>
      </trkpt>
      <trkpt lat="46.18508" lon="5.73652">
        <ele>534.292</ele>
      </trkpt>
      <trkpt lat="46.18478" lon="5.73711">
        <ele>532.108</ele>
      </trkpt>
      <trkpt lat="46.18448" lon="5.7373">
        <ele>529.175</ele>
      </trkpt>
      <trkpt lat="46.18362" lon="5.73766">
        <ele>524.648</ele>
      </trkpt>
      <trkpt lat="46.18196" lon="5.73772">
        <ele>518.091</ele>
      </trkpt>
      <trkpt lat="46.18051" lon="5.7381">
        <ele>512.103</ele>
      </trkpt>
      <trkpt lat="46.17975" lon="5.7381">
        <ele>511.114</ele>
      </trkpt>
      <trkpt lat="46.17959" lon="5.73811">
        <ele>510.722</ele>
      </trkpt>
      <trkpt lat="46.17943" lon="5.7382">
        <ele>508.992</ele>
      </trkpt>
      <trkpt lat="46.18038" lon="5.73828">
        <ele>505.596</ele>
      </trkpt>
      <trkpt lat="46.18066" lon="5.73821">
        <ele>501.656</ele>
      </trkpt>
      <trkpt lat="46.18124" lon="5.7381">
        <ele>501.218</ele>
      </trkpt>
      <trkpt lat="46.18163" lon="5.73809">
        <ele>500.208</ele>
      </trkpt>
      <trkpt lat="46.18186" lon="5.73813">
        <ele>498.773</ele>
      </trkpt>
      <trkpt lat="46.18218" lon="5.73817">
        <ele>497.594</ele>
      </trkpt>
      <trkpt lat="46.18233" lon="5.73831">
        <ele>493.943</ele>
      </trkpt>
      <trkpt lat="46.18242" lon="5.73858">
        <ele>494.417</ele>
      </trkpt>
      <trkpt lat="46.18263" lon="5.73903">
        <ele>500.282</ele>
      </trkpt>
      <trkpt lat="46.18276" lon="5.73911">
        <ele>500.863</ele>
      </trkpt>
      <trkpt lat="46.18313" lon="5.73928">
        <ele>502.388</ele>
      </trkpt>
      <trkpt lat="46.18338" lon="5.73944">
        <ele>504.297</ele>
      </trkpt>
      <trkpt lat="46.18309" lon="5.73947">
        <ele>507.491</ele>
      </trkpt>
      <trkpt lat="46.18213" lon="5.73925">
        <ele>517.466</ele>
      </trkpt>
      <trkpt lat="46.18166" lon="5.73934">
        <ele>522.697</ele>
      </trkpt>
      <trkpt lat="46.18128" lon="5.73956">
        <ele>527.469</ele>
      </trkpt>
      <trkpt lat="46.18111" lon="5.74018">
        <ele>532.928</ele>
      </trkpt>
      <trkpt lat="46.1811" lon="5.74042">
        <ele>535.105</ele>
      </trkpt>
      <trkpt lat="46.18106" lon="5.74068">
        <ele>536.848</ele>
      </trkpt>
      <trkpt lat="46.18074" lon="5.74129">
        <ele>541.787</ele>
      </trkpt>
      <trkpt lat="46.1805" lon="5.74186">
        <ele>545.823</ele>
      </trkpt>
      <trkpt lat="46.17976" lon="5.74307">
        <ele>541.123</ele>
      </trkpt>
      <trkpt lat="46.17951" lon="5.74323">
        <ele>538.456</ele>
      </trkpt>
      <trkpt lat="46.17922" lon="5.7435">
        <ele>535.166</ele>
      </trkpt>
      <trkpt lat="46.17827" lon="5.74465">
        <ele>532.532</ele>
      </trkpt>
      <trkpt lat="46.17761" lon="5.74548">
        <ele>529.504</ele>
      </trkpt>
      <trkpt lat="46.17737" lon="5.74605">
        <ele>527.651</ele>
      </trkpt>
      <trkpt lat="46.17672" lon="5.74651">
        <ele>527.302</ele>
      </trkpt>
      <trkpt lat="46.17645" lon="5.74686">
        <ele>526.97</ele>
      </trkpt>
      <trkpt lat="46.17638" lon="5.74708">
        <ele>525.526</ele>
      </trkpt>
      <trkpt lat="46.17631" lon="5.74729">
        <ele>525.349</ele>
      </trkpt>
      <trkpt lat="46.17614" lon="5.7474">
        <ele>522.153</ele>
      </trkpt>
      <trkpt lat="46.1751" lon="5.7484">
        <ele>521.659</ele>
      </trkpt>
      <trkpt lat="46.17436" lon="5.74938">
        <ele>526.069</ele>
      </trkpt>
      <trkpt lat="46.17429" lon="5.74949">
        <ele>525.572</ele>
      </trkpt>
      <trkpt lat="46.17398" lon="5.74955">
        <ele>526.132</ele>
      </trkpt>
      <trkpt lat="46.17384" lon="5.74975">
        <ele>528.447</ele>
      </trkpt>
      <trkpt lat="46.17372" lon="5.75021">
        <ele>528.76</ele>
      </trkpt>
      <trkpt lat="46.17366" lon="5.75081">
        <ele>529.721</ele>
      </trkpt>
      <trkpt lat="46.17367" lon="5.75167">
        <ele>530.631</ele>
      </trkpt>
      <trkpt lat="46.17367" lon="5.75179">
        <ele>531.502</ele>
      </trkpt>
      <trkpt lat="46.1736" lon="5.75242">
        <ele>535.142</ele>
      </trkpt>
      <trkpt lat="46.17357" lon="5.75303">
        <ele>536.229</ele>
      </trkpt>
      <trkpt lat="46.17354" lon="5.75355">
        <ele>535.885</ele>
      </trkpt>
      <trkpt lat="46.17351" lon="5.75358">
        <ele>536.077</ele>
      </trkpt>
      <trkpt lat="46.17332" lon="5.75345">
        <ele>532.091</ele>
      </trkpt>
      <trkpt lat="46.17309" lon="5.75329">
        <ele>534.144</ele>
      </trkpt>
      <trkpt lat="46.17265" lon="5.75345">
        <ele>532.494</ele>
      </trkpt>
      <trkpt lat="46.17233" lon="5.7538">
        <ele>528.915</ele>
      </trkpt>
      <trkpt lat="46.17209" lon="5.75426">
        <ele>525.638</ele>
      </trkpt>
      <trkpt lat="46.17192" lon="5.75466">
        <ele>521.762</ele>
      </trkpt>
      <trkpt lat="46.17155" lon="5.7554">
        <ele>515.48</ele>
      </trkpt>
      <trkpt lat="46.17108" lon="5.7561">
        <ele>509.256</ele>
      </trkpt>
      <trkpt lat="46.17076" lon="5.75611">
        <ele>502.915</ele>
      </trkpt>
      <trkpt lat="46.17065" lon="5.75611">
        <ele>501.288</ele>
      </trkpt>
      <trkpt lat="46.17052" lon="5.7562">
        <ele>497.715</ele>
      </trkpt>
      <trkpt lat="46.17024" lon="5.75704">
        <ele>490.183</ele>
      </trkpt>
      <trkpt lat="46.16984" lon="5.75821">
        <ele>479.607</ele>
      </trkpt>
      <trkpt lat="46.16959" lon="5.75912">
        <ele>470.802</ele>
      </trkpt>
      <trkpt lat="46.16933" lon="5.75993">
        <ele>463.052</ele>
      </trkpt>
      <trkpt lat="46.16913" lon="5.76028">
        <ele>457.004</ele>
      </trkpt>
      <trkpt lat="46.1687" lon="5.76086">
        <ele>446.736</ele>
      </trkpt>
      <trkpt lat="46.16805" lon="5.76164">
        <ele>442.605</ele>
      </trkpt>
      <trkpt lat="46.16755" lon="5.76261">
        <ele>439.825</ele>
      </trkpt>
      <trkpt lat="46.16749" lon="5.76265">
        <ele>438.042</ele>
      </trkpt>
      <trkpt lat="46.16694" lon="5.76306">
        <ele>433.987</ele>
      </trkpt>
      <trkpt lat="46.16588" lon="5.76424">
        <ele>433.51</ele>
      </trkpt>
      <trkpt lat="46.16551" lon="5.76516">
        <ele>433.64</ele>
      </trkpt>
      <trkpt lat="46.16514" lon="5.76586">
        <ele>429.562</ele>
      </trkpt>
      <trkpt lat="46.16509" lon="5.7663">
        <ele>430.019</ele>
      </trkpt>
      <trkpt lat="46.16492" lon="5.76749">
        <ele>429.328</ele>
      </trkpt>
      <trkpt lat="46.16477" lon="5.76839">
        <ele>431.108</ele>
      </trkpt>
      <trkpt lat="46.16472" lon="5.76853">
        <ele>431.255</ele>
      </trkpt>
      <trkpt lat="46.16457" lon="5.76871">
        <ele>429.335</ele>
      </trkpt>
      <trkpt lat="46.16447" lon="5.76817">
        <ele>428.94</ele>
      </trkpt>
      <trkpt lat="46.16438" lon="5.7678">
        <ele>428.328</ele>
      </trkpt>
      <trkpt lat="46.16411" lon="5.76703">
        <ele>431.094</ele>
      </trkpt>
      <trkpt lat="46.16393" lon="5.76672">
        <ele>433.374</ele>
      </trkpt>
      <trkpt lat="46.16387" lon="5.76664">
        <ele>435.2</ele>
      </trkpt>
      <trkpt lat="46.16374" lon="5.76652">
        <ele>437.707</ele>
      </trkpt>
      <trkpt lat="46.16381" lon="5.76601">
        <ele>437.375</ele>
      </trkpt>
      <trkpt lat="46.16394" lon="5.76496">
        <ele>433.332</ele>
      </trkpt>
      <trkpt lat="46.16417" lon="5.76346">
        <ele>439.157</ele>
      </trkpt>
      <trkpt lat="46.16439" lon="5.76202">
        <ele>448.7</ele>
      </trkpt>
      <trkpt lat="46.1644" lon="5.76186">
        <ele>449.742</ele>
      </trkpt>
      <trkpt lat="46.16443" lon="5.76141">
        <ele>454.609</ele>
      </trkpt>
      <trkpt lat="46.16447" lon="5.76127">
        <ele>455.927</ele>
      </trkpt>
      <trkpt lat="46.16461" lon="5.76113">
        <ele>456.435</ele>
      </trkpt>
      <trkpt lat="46.16475" lon="5.75997">
        <ele>470.967</ele>
      </trkpt>
      <trkpt lat="46.16468" lon="5.75961">
        <ele>477.109</ele>
      </trkpt>
      <trkpt lat="46.16498" lon="5.75896">
        <ele>486.419</ele>
      </trkpt>
      <trkpt lat="46.16516" lon="5.75827">
        <ele>487.93</ele>
      </trkpt>
      <trkpt lat="46.16528" lon="5.75769">
        <ele>493.635</ele>
      </trkpt>
      <trkpt lat="46.16521" lon="5.75693">
        <ele>497.894</ele>
      </trkpt>
      <trkpt lat="46.16512" lon="5.75669">
        <ele>497.275</ele>
      </trkpt>
      <trkpt lat="46.16477" lon="5.75607">
        <ele>507.937</ele>
      </trkpt>
      <trkpt lat="46.16473" lon="5.756">
        <ele>510.56</ele>
      </trkpt>
      <trkpt lat="46.16471" lon="5.75591">
        <ele>513.227</ele>
      </trkpt>
      <trkpt lat="46.16472" lon="5.75552">
        <ele>517.743</ele>
      </trkpt>
      <trkpt lat="46.16463" lon="5.75498">
        <ele>522.45</ele>
      </trkpt>
      <trkpt lat="46.16458" lon="5.75472">
        <ele>525.369</ele>
      </trkpt>
      <trkpt lat="46.16459" lon="5.75394">
        <ele>529.784</ele>
      </trkpt>
      <trkpt lat="46.16448" lon="5.7532">
        <ele>533.941</ele>
      </trkpt>
      <trkpt lat="46.16441" lon="5.75309">
        <ele>537.494</ele>
      </trkpt>
      <trkpt lat="46.16407" lon="5.75312">
        <ele>539.921</ele>
      </trkpt>
      <trkpt lat="46.16395" lon="5.75319">
        <ele>541.655</ele>
      </trkpt>
      <trkpt lat="46.16385" lon="5.75322">
        <ele>543.63</ele>
      </trkpt>
      <trkpt lat="46.16359" lon="5.75303">
        <ele>545.652</ele>
      </trkpt>
      <trkpt lat="46.16326" lon="5.75268">
        <ele>551.901</ele>
      </trkpt>
      <trkpt lat="46.16316" lon="5.75246">
        <ele>553.173</ele>
      </trkpt>
      <trkpt lat="46.16284" lon="5.75181">
        <ele>559.984</ele>
      </trkpt>
      <trkpt lat="46.16253" lon="5.75133">
        <ele>566.597</ele>
      </trkpt>
      <trkpt lat="46.16264" lon="5.75082">
        <ele>570.252</ele>
      </trkpt>
      <trkpt lat="46.16265" lon="5.75053">
        <ele>572.096</ele>
      </trkpt>
      <trkpt lat="46.16225" lon="5.74978">
        <ele>577.492</ele>
      </trkpt>
      <trkpt lat="46.16208" lon="5.74958">
        <ele>580.422</ele>
      </trkpt>
      <trkpt lat="46.16175" lon="5.74894">
        <ele>585.171</ele>
      </trkpt>
      <trkpt lat="46.16153" lon="5.7488">
        <ele>588.466</ele>
      </trkpt>
      <trkpt lat="46.16124" lon="5.74836">
        <ele>593.587</ele>
      </trkpt>
      <trkpt lat="46.16061" lon="5.7474">
        <ele>604.947</ele>
      </trkpt>
      <trkpt lat="46.16043" lon="5.74745">
        <ele>604.87</ele>
      </trkpt>
      <trkpt lat="46.16031" lon="5.74758">
        <ele>606.688</ele>
      </trkpt>
      <trkpt lat="46.16026" lon="5.74776">
        <ele>605.737</ele>
      </trkpt>
      <trkpt lat="46.16027" lon="5.74788">
        <ele>607.189</ele>
      </trkpt>
      <trkpt lat="46.1603" lon="5.74802">
        <ele>608.785</ele>
      </trkpt>
      <trkpt lat="46.16031" lon="5.74827">
        <ele>608.722</ele>
      </trkpt>
      <trkpt lat="46.16031" lon="5.74843">
        <ele>611.229</ele>
      </trkpt>
      <trkpt lat="46.16023" lon="5.74859">
        <ele>613.356</ele>
      </trkpt>
      <trkpt lat="46.15929" lon="5.74845">
        <ele>621.257</ele>
      </trkpt>
      <trkpt lat="46.15902" lon="5.74839">
        <ele>624.38</ele>
      </trkpt>
      <trkpt lat="46.15887" lon="5.74828">
        <ele>624.527</ele>
      </trkpt>
      <trkpt lat="46.15834" lon="5.74778">
        <ele>632.748</ele>
      </trkpt>
      <trkpt lat="46.1579" lon="5.74822">
        <ele>640.401</ele>
      </trkpt>
      <trkpt lat="46.1577" lon="5.74846">
        <ele>641.894</ele>
      </trkpt>
      <trkpt lat="46.15708" lon="5.74923">
        <ele>650.321</ele>
      </trkpt>
      <trkpt lat="46.1568" lon="5.74956">
        <ele>652.188</ele>
      </trkpt>
      <trkpt lat="46.15661" lon="5.74971">
        <ele>654.347</ele>
      </trkpt>
      <trkpt lat="46.15637" lon="5.74971">
        <ele>656.916</ele>
      </trkpt>
      <trkpt lat="46.15609" lon="5.74965">
        <ele>660.027</ele>
      </trkpt>
      <trkpt lat="46.15587" lon="5.74947">
        <ele>663.321</ele>
      </trkpt>
      <trkpt lat="46.15516" lon="5.74849">
        <ele>669.856</ele>
      </trkpt>
      <trkpt lat="46.15478" lon="5.74782">
        <ele>677.357</ele>
      </trkpt>
      <trkpt lat="46.15455" lon="5.74734">
        <ele>680.797</ele>
      </trkpt>
      <trkpt lat="46.15362" lon="5.74695">
        <ele>691.581</ele>
      </trkpt>
      <trkpt lat="46.15303" lon="5.74735">
        <ele>695.26</ele>
      </trkpt>
      <trkpt lat="46.15274" lon="5.74767">
        <ele>699.776</ele>
      </trkpt>
      <trkpt lat="46.15259" lon="5.74788">
        <ele>702.406</ele>
      </trkpt>
      <trkpt lat="46.15217" lon="5.74806">
        <ele>705.833</ele>
      </trkpt>
      <trkpt lat="46.15186" lon="5.74827">
        <ele>710.577</ele>
      </trkpt>
      <trkpt lat="46.15152" lon="5.74814">
        <ele>713.317</ele>
      </trkpt>
      <trkpt lat="46.15136" lon="5.74822">
        <ele>717.155</ele>
      </trkpt>
      <trkpt lat="46.15126" lon="5.74838">
        <ele>718.938</ele>
      </trkpt>
      <trkpt lat="46.15117" lon="5.74857">
        <ele>721.081</ele>
      </trkpt>
      <trkpt lat="46.15101" lon="5.74871">
        <ele>723.74</ele>
      </trkpt>
      <trkpt lat="46.15021" lon="5.74878">
        <ele>731.263</ele>
      </trkpt>
      <trkpt lat="46.14973" lon="5.74872">
        <ele>737.447</ele>
      </trkpt>
      <trkpt lat="46.14887" lon="5.74853">
        <ele>748.236</ele>
      </trkpt>
      <trkpt lat="46.14887" lon="5.74853">
        <ele>748.236</ele>
      </trkpt>
      <trkpt lat="46.14857" lon="5.74837">
        <ele>753.401</ele>
      </trkpt>
      <trkpt lat="46.14806" lon="5.74805">
        <ele>758.886</ele>
      </trkpt>
      <trkpt lat="46.14793" lon="5.74762">
        <ele>761.31</ele>
      </trkpt>
      <trkpt lat="46.14758" lon="5.74746">
        <ele>766.528</ele>
      </trkpt>
      <trkpt lat="46.14719" lon="5.74754">
        <ele>771.786</ele>
      </trkpt>
      <trkpt lat="46.14662" lon="5.74739">
        <ele>778.475</ele>
      </trkpt>
      <trkpt lat="46.14607" lon="5.74713">
        <ele>784.845</ele>
      </trkpt>
      <trkpt lat="46.14524" lon="5.74653">
        <ele>796.78</ele>
      </trkpt>
      <trkpt lat="46.14478" lon="5.74618">
        <ele>800.583</ele>
      </trkpt>
      <trkpt lat="46.14454" lon="5.74576">
        <ele>804.637</ele>
      </trkpt>
      <trkpt lat="46.14416" lon="5.74553">
        <ele>809.392</ele>
      </trkpt>
      <trkpt lat="46.14366" lon="5.74505">
        <ele>816.551</ele>
      </trkpt>
      <trkpt lat="46.14323" lon="5.74435">
        <ele>822.57</ele>
      </trkpt>
      <trkpt lat="46.14236" lon="5.74368">
        <ele>832.166</ele>
      </trkpt>
      <trkpt lat="46.14207" lon="5.7437">
        <ele>838.136</ele>
      </trkpt>
      <trkpt lat="46.14206" lon="5.74389">
        <ele>841.138</ele>
      </trkpt>
      <trkpt lat="46.14274" lon="5.74442">
        <ele>844.191</ele>
      </trkpt>
      <trkpt lat="46.14287" lon="5.74482">
        <ele>845.434</ele>
      </trkpt>
      <trkpt lat="46.14304" lon="5.74555">
        <ele>851.301</ele>
      </trkpt>
      <trkpt lat="46.14317" lon="5.7462">
        <ele>857.656</ele>
      </trkpt>
      <trkpt lat="46.14373" lon="5.74706">
        <ele>864.948</ele>
      </trkpt>
      <trkpt lat="46.14405" lon="5.74753">
        <ele>869.02</ele>
      </trkpt>
      <trkpt lat="46.14425" lon="5.74776">
        <ele>869.773</ele>
      </trkpt>
      <trkpt lat="46.14541" lon="5.74855">
        <ele>862.147</ele>
      </trkpt>
      <trkpt lat="46.14713" lon="5.74985">
        <ele>855.157</ele>
      </trkpt>
      <trkpt lat="46.14894" lon="5.75124">
        <ele>862.504</ele>
      </trkpt>
      <trkpt lat="46.15045" lon="5.75182">
        <ele>858.791</ele>
      </trkpt>
      <trkpt lat="46.15106" lon="5.75212">
        <ele>865.791</ele>
      </trkpt>
      <trkpt lat="46.1522" lon="5.75249">
        <ele>868.342</ele>
      </trkpt>
      <trkpt lat="46.15274" lon="5.75265">
        <ele>866.24</ele>
      </trkpt>
      <trkpt lat="46.153" lon="5.75288">
        <ele>866.035</ele>
      </trkpt>
      <trkpt lat="46.15375" lon="5.75383">
        <ele>868.265</ele>
      </trkpt>
      <trkpt lat="46.15512" lon="5.75509">
        <ele>864.431</ele>
      </trkpt>
      <trkpt lat="46.15551" lon="5.75561">
        <ele>872.833</ele>
      </trkpt>
      <trkpt lat="46.15687" lon="5.75838">
        <ele>867.955</ele>
      </trkpt>
      <trkpt lat="46.15635" lon="5.75994">
        <ele>874.23</ele>
      </trkpt>
      <trkpt lat="46.15631" lon="5.76014">
        <ele>876.692</ele>
      </trkpt>
      <trkpt lat="46.15629" lon="5.76051">
        <ele>876.018</ele>
      </trkpt>
      <trkpt lat="46.15602" lon="5.76159">
        <ele>872.57</ele>
      </trkpt>
      <trkpt lat="46.15588" lon="5.7624">
        <ele>872.849</ele>
      </trkpt>
      <trkpt lat="46.15598" lon="5.76314">
        <ele>872.818</ele>
      </trkpt>
      <trkpt lat="46.15598" lon="5.76323">
        <ele>872.083</ele>
      </trkpt>
      <trkpt lat="46.15582" lon="5.76366">
        <ele>871.532</ele>
      </trkpt>
      <trkpt lat="46.15537" lon="5.76464">
        <ele>869.713</ele>
      </trkpt>
      <trkpt lat="46.15525" lon="5.76502">
        <ele>870.918</ele>
      </trkpt>
      <trkpt lat="46.15565" lon="5.76646">
        <ele>870.069</ele>
      </trkpt>
      <trkpt lat="46.15562" lon="5.76708">
        <ele>872.474</ele>
      </trkpt>
      <trkpt lat="46.15565" lon="5.76726">
        <ele>872.285</ele>
      </trkpt>
      <trkpt lat="46.15574" lon="5.76769">
        <ele>868.722</ele>
      </trkpt>
      <trkpt lat="46.15573" lon="5.76806">
        <ele>869.988</ele>
      </trkpt>
      <trkpt lat="46.15587" lon="5.76857">
        <ele>868.192</ele>
      </trkpt>
      <trkpt lat="46.15586" lon="5.76882">
        <ele>868.433</ele>
      </trkpt>
      <trkpt lat="46.15522" lon="5.76979">
        <ele>863.913</ele>
      </trkpt>
      <trkpt lat="46.15503" lon="5.76985">
        <ele>863.245</ele>
      </trkpt>
      <trkpt lat="46.1535" lon="5.77071">
        <ele>854.348</ele>
      </trkpt>
      <trkpt lat="46.15307" lon="5.77089">
        <ele>851.203</ele>
      </trkpt>
      <trkpt lat="46.15256" lon="5.77091">
        <ele>848.707</ele>
      </trkpt>
      <trkpt lat="46.1523" lon="5.77088">
        <ele>846.646</ele>
      </trkpt>
      <trkpt lat="46.15162" lon="5.77064">
        <ele>843.459</ele>
      </trkpt>
      <trkpt lat="46.1514" lon="5.77054">
        <ele>841.502</ele>
      </trkpt>
      <trkpt lat="46.15121" lon="5.77029">
        <ele>842.78</ele>
      </trkpt>
      <trkpt lat="46.15031" lon="5.77033">
        <ele>837.739</ele>
      </trkpt>
      <trkpt lat="46.14946" lon="5.77175">
        <ele>830.54</ele>
      </trkpt>
      <trkpt lat="46.1495" lon="5.77208">
        <ele>832.431</ele>
      </trkpt>
      <trkpt lat="46.14954" lon="5.77241">
        <ele>826.222</ele>
      </trkpt>
      <trkpt lat="46.14948" lon="5.77252">
        <ele>825.346</ele>
      </trkpt>
      <trkpt lat="46.14807" lon="5.77304">
        <ele>818.613</ele>
      </trkpt>
      <trkpt lat="46.1471" lon="5.77337">
        <ele>817.439</ele>
      </trkpt>
      <trkpt lat="46.14677" lon="5.77384">
        <ele>816.011</ele>
      </trkpt>
      <trkpt lat="46.14668" lon="5.77413">
        <ele>815.758</ele>
      </trkpt>
      <trkpt lat="46.14647" lon="5.77469">
        <ele>813.584</ele>
      </trkpt>
      <trkpt lat="46.14647" lon="5.77469">
        <ele>813.584</ele>
      </trkpt>
      <trkpt lat="46.14629" lon="5.77542">
        <ele>811.898</ele>
      </trkpt>
      <trkpt lat="46.14584" lon="5.77685">
        <ele>804.936</ele>
      </trkpt>
      <trkpt lat="46.14408" lon="5.77801">
        <ele>791.637</ele>
      </trkpt>
      <trkpt lat="46.14372" lon="5.77812">
        <ele>789.028</ele>
      </trkpt>
      <trkpt lat="46.14303" lon="5.77834">
        <ele>784.606</ele>
      </trkpt>
      <trkpt lat="46.14251" lon="5.77836">
        <ele>780.739</ele>
      </trkpt>
      <trkpt lat="46.14173" lon="5.77857">
        <ele>777.761</ele>
      </trkpt>
      <trkpt lat="46.14154" lon="5.77864">
        <ele>776.345</ele>
      </trkpt>
      <trkpt lat="46.14124" lon="5.77891">
        <ele>772.821</ele>
      </trkpt>
      <trkpt lat="46.14088" lon="5.77896">
        <ele>771.231</ele>
      </trkpt>
      <trkpt lat="46.14042" lon="5.77878">
        <ele>769.312</ele>
      </trkpt>
      <trkpt lat="46.13887" lon="5.77863">
        <ele>765.685</ele>
      </trkpt>
      <trkpt lat="46.13723" lon="5.77923">
        <ele>763.281</ele>
      </trkpt>
      <trkpt lat="46.13659" lon="5.77979">
        <ele>760.737</ele>
      </trkpt>
      <trkpt lat="46.13624" lon="5.78003">
        <ele>759.237</ele>
      </trkpt>
      <trkpt lat="46.13537" lon="5.78028">
        <ele>755.317</ele>
      </trkpt>
      <trkpt lat="46.13486" lon="5.78052">
        <ele>751.423</ele>
      </trkpt>
      <trkpt lat="46.13462" lon="5.78061">
        <ele>749.533</ele>
      </trkpt>
      <trkpt lat="46.13328" lon="5.78046">
        <ele>741.184</ele>
      </trkpt>
      <trkpt lat="46.13282" lon="5.78057">
        <ele>737.919</ele>
      </trkpt>
      <trkpt lat="46.13236" lon="5.78069">
        <ele>734.558</ele>
      </trkpt>
      <trkpt lat="46.13208" lon="5.78028">
        <ele>733.93</ele>
      </trkpt>
      <trkpt lat="46.13191" lon="5.78024">
        <ele>731.957</ele>
      </trkpt>
      <trkpt lat="46.13177" lon="5.78055">
        <ele>729.753</ele>
      </trkpt>
      <trkpt lat="46.13097" lon="5.78004">
        <ele>733.664</ele>
      </trkpt>
      <trkpt lat="46.13061" lon="5.77965">
        <ele>736.572</ele>
      </trkpt>
      <trkpt lat="46.13027" lon="5.77923">
        <ele>739.86</ele>
      </trkpt>
      <trkpt lat="46.12952" lon="5.77799">
        <ele>747.828</ele>
      </trkpt>
      <trkpt lat="46.12908" lon="5.77758">
        <ele>752.074</ele>
      </trkpt>
      <trkpt lat="46.12901" lon="5.77777">
        <ele>748.948</ele>
      </trkpt>
      <trkpt lat="46.12796" lon="5.77797">
        <ele>737.875</ele>
      </trkpt>
      <trkpt lat="46.12701" lon="5.77797">
        <ele>731.621</ele>
      </trkpt>
      <trkpt lat="46.12596" lon="5.77775">
        <ele>723.466</ele>
      </trkpt>
      <trkpt lat="46.1254" lon="5.7778">
        <ele>720.278</ele>
      </trkpt>
      <trkpt lat="46.12441" lon="5.77787">
        <ele>714.515</ele>
      </trkpt>
      <trkpt lat="46.12385" lon="5.77794">
        <ele>710.68</ele>
      </trkpt>
      <trkpt lat="46.12322" lon="5.77803">
        <ele>705.067</ele>
      </trkpt>
      <trkpt lat="46.1227" lon="5.77816">
        <ele>699.046</ele>
      </trkpt>
      <trkpt lat="46.12233" lon="5.77829">
        <ele>696.364</ele>
      </trkpt>
      <trkpt lat="46.12129" lon="5.77823">
        <ele>688.408</ele>
      </trkpt>
      <trkpt lat="46.12082" lon="5.77811">
        <ele>685.558</ele>
      </trkpt>
      <trkpt lat="46.12065" lon="5.77806">
        <ele>684.926</ele>
      </trkpt>
      <trkpt lat="46.12023" lon="5.77815">
        <ele>680.573</ele>
      </trkpt>
      <trkpt lat="46.11952" lon="5.77802">
        <ele>677.261</ele>
      </trkpt>
      <trkpt lat="46.11879" lon="5.77802">
        <ele>671.83</ele>
      </trkpt>
      <trkpt lat="46.11856" lon="5.77794">
        <ele>670.996</ele>
      </trkpt>
      <trkpt lat="46.11727" lon="5.77809">
        <ele>660.72</ele>
      </trkpt>
      <trkpt lat="46.11714" lon="5.77815">
        <ele>659.678</ele>
      </trkpt>
      <trkpt lat="46.11697" lon="5.77817">
        <ele>658.675</ele>
      </trkpt>
      <trkpt lat="46.11677" lon="5.77813">
        <ele>656.764</ele>
      </trkpt>
      <trkpt lat="46.11509" lon="5.77784">
        <ele>643.112</ele>
      </trkpt>
      <trkpt lat="46.11509" lon="5.77784">
        <ele>643.112</ele>
      </trkpt>
      <trkpt lat="46.11475" lon="5.77771">
        <ele>641.24</ele>
      </trkpt>
      <trkpt lat="46.11394" lon="5.77778">
        <ele>633.361</ele>
      </trkpt>
      <trkpt lat="46.11338" lon="5.77768">
        <ele>630.2</ele>
      </trkpt>
      <trkpt lat="46.11299" lon="5.77766">
        <ele>627.956</ele>
      </trkpt>
      <trkpt lat="46.1129" lon="5.77772">
        <ele>626.505</ele>
      </trkpt>
      <trkpt lat="46.11253" lon="5.7777">
        <ele>623.397</ele>
      </trkpt>
      <trkpt lat="46.1122" lon="5.77768">
        <ele>620.057</ele>
      </trkpt>
      <trkpt lat="46.11192" lon="5.77789">
        <ele>618.344</ele>
      </trkpt>
      <trkpt lat="46.11163" lon="5.77792">
        <ele>616.065</ele>
      </trkpt>
      <trkpt lat="46.11099" lon="5.77798">
        <ele>611.231</ele>
      </trkpt>
      <trkpt lat="46.11044" lon="5.778">
        <ele>606.798</ele>
      </trkpt>
      <trkpt lat="46.10958" lon="5.77827">
        <ele>602.656</ele>
      </trkpt>
      <trkpt lat="46.10928" lon="5.77845">
        <ele>601.238</ele>
      </trkpt>
      <trkpt lat="46.10903" lon="5.77855">
        <ele>599.917</ele>
      </trkpt>
      <trkpt lat="46.10875" lon="5.77854">
        <ele>598.268</ele>
      </trkpt>
      <trkpt lat="46.10841" lon="5.77853">
        <ele>592.183</ele>
      </trkpt>
      <trkpt lat="46.10819" lon="5.77857">
        <ele>588.225</ele>
      </trkpt>
      <trkpt lat="46.10784" lon="5.7788">
        <ele>583.059</ele>
      </trkpt>
      <trkpt lat="46.10766" lon="5.77887">
        <ele>581.701</ele>
      </trkpt>
      <trkpt lat="46.10711" lon="5.77881">
        <ele>578.923</ele>
      </trkpt>
      <trkpt lat="46.10522" lon="5.77815">
        <ele>575.865</ele>
      </trkpt>
      <trkpt lat="46.10504" lon="5.7781">
        <ele>576.689</ele>
      </trkpt>
      <trkpt lat="46.10449" lon="5.77795">
        <ele>577.369</ele>
      </trkpt>
      <trkpt lat="46.10229" lon="5.77729">
        <ele>574.971</ele>
      </trkpt>
      <trkpt lat="46.10038" lon="5.77728">
        <ele>574.1</ele>
      </trkpt>
      <trkpt lat="46.09838" lon="5.77882">
        <ele>571.073</ele>
      </trkpt>
      <trkpt lat="46.09798" lon="5.7791">
        <ele>571.692</ele>
      </trkpt>
      <trkpt lat="46.09732" lon="5.77949">
        <ele>575.132</ele>
      </trkpt>
      <trkpt lat="46.09697" lon="5.77954">
        <ele>576.589</ele>
      </trkpt>
      <trkpt lat="46.09545" lon="5.77981">
        <ele>578.375</ele>
      </trkpt>
      <trkpt lat="46.09435" lon="5.78075">
        <ele>574.203</ele>
      </trkpt>
      <trkpt lat="46.09426" lon="5.78086">
        <ele>574</ele>
      </trkpt>
      <trkpt lat="46.09266" lon="5.78244">
        <ele>572.548</ele>
      </trkpt>
      <trkpt lat="46.09172" lon="5.78299">
        <ele>566.33</ele>
      </trkpt>
      <trkpt lat="46.09153" lon="5.78309">
        <ele>565.665</ele>
      </trkpt>
      <trkpt lat="46.08964" lon="5.7845">
        <ele>557.377</ele>
      </trkpt>
      <trkpt lat="46.08927" lon="5.78491">
        <ele>553.018</ele>
      </trkpt>
      <trkpt lat="46.08901" lon="5.78503">
        <ele>550.329</ele>
      </trkpt>
      <trkpt lat="46.08879" lon="5.78511">
        <ele>548.266</ele>
      </trkpt>
      <trkpt lat="46.08731" lon="5.78455">
        <ele>545</ele>
      </trkpt>
      <trkpt lat="46.08673" lon="5.78465">
        <ele>544.01</ele>
      </trkpt>
      <trkpt lat="46.08666" lon="5.78365">
        <ele>539.227</ele>
      </trkpt>
      <trkpt lat="46.08672" lon="5.78296">
        <ele>535.612</ele>
      </trkpt>
      <trkpt lat="46.08617" lon="5.78216">
        <ele>530.471</ele>
      </trkpt>
      <trkpt lat="46.08593" lon="5.78155">
        <ele>527.023</ele>
      </trkpt>
      <trkpt lat="46.08592" lon="5.78148">
        <ele>526.893</ele>
      </trkpt>
      <trkpt lat="46.08553" lon="5.77865">
        <ele>522.734</ele>
      </trkpt>
      <trkpt lat="46.08534" lon="5.77842">
        <ele>524.036</ele>
      </trkpt>
      <trkpt lat="46.08326" lon="5.77651">
        <ele>528.486</ele>
      </trkpt>
      <trkpt lat="46.08313" lon="5.77669">
        <ele>527.554</ele>
      </trkpt>
      <trkpt lat="46.07985" lon="5.78104">
        <ele>536.281</ele>
      </trkpt>
      <trkpt lat="46.07886" lon="5.78236">
        <ele>545.567</ele>
      </trkpt>
      <trkpt lat="46.07822" lon="5.78319">
        <ele>550.877</ele>
      </trkpt>
      <trkpt lat="46.07817" lon="5.78325">
        <ele>551.281</ele>
      </trkpt>
      <trkpt lat="46.07729" lon="5.78464">
        <ele>549.515</ele>
      </trkpt>
      <trkpt lat="46.07727" lon="5.78495">
        <ele>548.33</ele>
      </trkpt>
      <trkpt lat="46.07718" lon="5.78557">
        <ele>544.11</ele>
      </trkpt>
      <trkpt lat="46.07711" lon="5.78587">
        <ele>542.701</ele>
      </trkpt>
      <trkpt lat="46.0767" lon="5.7874">
        <ele>533.865</ele>
      </trkpt>
      <trkpt lat="46.07653" lon="5.78807">
        <ele>530.912</ele>
      </trkpt>
      <trkpt lat="46.07649" lon="5.78825">
        <ele>529.863</ele>
      </trkpt>
      <trkpt lat="46.07642" lon="5.78851">
        <ele>527.938</ele>
      </trkpt>
      <trkpt lat="46.07621" lon="5.78952">
        <ele>525.073</ele>
      </trkpt>
      <trkpt lat="46.07586" lon="5.78947">
        <ele>524.992</ele>
      </trkpt>
      <trkpt lat="46.07493" lon="5.78911">
        <ele>521.776</ele>
      </trkpt>
      <trkpt lat="46.07491" lon="5.7891">
        <ele>521.67</ele>
      </trkpt>
      <trkpt lat="46.07404" lon="5.7889">
        <ele>517.088</ele>
      </trkpt>
      <trkpt lat="46.07362" lon="5.78884">
        <ele>515.201</ele>
      </trkpt>
      <trkpt lat="46.0727" lon="5.78865">
        <ele>510.723</ele>
      </trkpt>
      <trkpt lat="46.07246" lon="5.78869">
        <ele>509.863</ele>
      </trkpt>
      <trkpt lat="46.07187" lon="5.7889">
        <ele>508.721</ele>
      </trkpt>
      <trkpt lat="46.07179" lon="5.78894">
        <ele>508.357</ele>
      </trkpt>
      <trkpt lat="46.07071" lon="5.79">
        <ele>507.455</ele>
      </trkpt>
      <trkpt lat="46.06959" lon="5.79015">
        <ele>511.02</ele>
      </trkpt>
      <trkpt lat="46.06857" lon="5.79035">
        <ele>517.942</ele>
      </trkpt>
      <trkpt lat="46.06725" lon="5.79036">
        <ele>521.599</ele>
      </trkpt>
      <trkpt lat="46.06709" lon="5.79037">
        <ele>521.693</ele>
      </trkpt>
      <trkpt lat="46.06634" lon="5.79064">
        <ele>522.234</ele>
      </trkpt>
      <trkpt lat="46.06586" lon="5.79132">
        <ele>520.337</ele>
      </trkpt>
      <trkpt lat="46.06568" lon="5.79145">
        <ele>518.794</ele>
      </trkpt>
      <trkpt lat="46.06546" lon="5.79144">
        <ele>518.354</ele>
      </trkpt>
      <trkpt lat="46.06485" lon="5.79136">
        <ele>517.456</ele>
      </trkpt>
      <trkpt lat="46.06426" lon="5.7914">
        <ele>515.307</ele>
      </trkpt>
      <trkpt lat="46.06308" lon="5.79156">
        <ele>510.907</ele>
      </trkpt>
      <trkpt lat="46.06239" lon="5.79191">
        <ele>507.367</ele>
      </trkpt>
      <trkpt lat="46.06214" lon="5.79224">
        <ele>503.587</ele>
      </trkpt>
      <trkpt lat="46.06161" lon="5.79278">
        <ele>499.016</ele>
      </trkpt>
      <trkpt lat="46.06104" lon="5.79334">
        <ele>496.465</ele>
      </trkpt>
      <trkpt lat="46.06067" lon="5.79363">
        <ele>494.416</ele>
      </trkpt>
      <trkpt lat="46.05986" lon="5.79446">
        <ele>492.937</ele>
      </trkpt>
      <trkpt lat="46.05896" lon="5.79501">
        <ele>488.197</ele>
      </trkpt>
      <trkpt lat="46.05816" lon="5.79526">
        <ele>480.619</ele>
      </trkpt>
      <trkpt lat="46.05771" lon="5.7953">
        <ele>478.364</ele>
      </trkpt>
      <trkpt lat="46.05728" lon="5.79522">
        <ele>475.433</ele>
      </trkpt>
      <trkpt lat="46.0569" lon="5.79527">
        <ele>472.46</ele>
      </trkpt>
      <trkpt lat="46.05652" lon="5.7954">
        <ele>468.552</ele>
      </trkpt>
      <trkpt lat="46.05621" lon="5.79583">
        <ele>464.703</ele>
      </trkpt>
      <trkpt lat="46.05617" lon="5.79597">
        <ele>463.312</ele>
      </trkpt>
      <trkpt lat="46.05568" lon="5.79639">
        <ele>454.311</ele>
      </trkpt>
      <trkpt lat="46.05535" lon="5.79682">
        <ele>446.498</ele>
      </trkpt>
      <trkpt lat="46.05482" lon="5.79709">
        <ele>438.488</ele>
      </trkpt>
      <trkpt lat="46.05456" lon="5.7972">
        <ele>432.617</ele>
      </trkpt>
      <trkpt lat="46.05438" lon="5.7973">
        <ele>428.405</ele>
      </trkpt>
      <trkpt lat="46.05435" lon="5.79786">
        <ele>428.914</ele>
      </trkpt>
      <trkpt lat="46.05423" lon="5.79922">
        <ele>423.279</ele>
      </trkpt>
      <trkpt lat="46.05402" lon="5.7987">
        <ele>421.377</ele>
      </trkpt>
      <trkpt lat="46.05395" lon="5.79833">
        <ele>420.202</ele>
      </trkpt>
      <trkpt lat="46.05381" lon="5.79816">
        <ele>418.023</ele>
      </trkpt>
      <trkpt lat="46.05365" lon="5.79811">
        <ele>415.346</ele>
      </trkpt>
      <trkpt lat="46.05297" lon="5.79961">
        <ele>399.686</ele>
      </trkpt>
      <trkpt lat="46.05279" lon="5.79992">
        <ele>394.861</ele>
      </trkpt>
      <trkpt lat="46.05265" lon="5.80021">
        <ele>392.647</ele>
      </trkpt>
      <trkpt lat="46.05257" lon="5.80025">
        <ele>391.267</ele>
      </trkpt>
      <trkpt lat="46.05235" lon="5.80061">
        <ele>387.184</ele>
      </trkpt>
      <trkpt lat="46.05223" lon="5.80099">
        <ele>385.03</ele>
      </trkpt>
      <trkpt lat="46.05201" lon="5.80139">
        <ele>382.454</ele>
      </trkpt>
      <trkpt lat="46.052" lon="5.80165">
        <ele>381.41</ele>
      </trkpt>
      <trkpt lat="46.0518" lon="5.80322">
        <ele>372.397</ele>
      </trkpt>
      <trkpt lat="46.05168" lon="5.80365">
        <ele>369.889</ele>
      </trkpt>
      <trkpt lat="46.05161" lon="5.80424">
        <ele>367.729</ele>
      </trkpt>
      <trkpt lat="46.0516" lon="5.80434">
        <ele>367.365</ele>
      </trkpt>
      <trkpt lat="46.0514" lon="5.80661">
        <ele>359.23</ele>
      </trkpt>
      <trkpt lat="46.0514" lon="5.80662">
        <ele>359.201</ele>
      </trkpt>
      <trkpt lat="46.05144" lon="5.80685">
        <ele>359.195</ele>
      </trkpt>
      <trkpt lat="46.05155" lon="5.80712">
        <ele>358.655</ele>
      </trkpt>
      <trkpt lat="46.05157" lon="5.8072">
        <ele>358.389</ele>
      </trkpt>
      <trkpt lat="46.05162" lon="5.80779">
        <ele>355.619</ele>
      </trkpt>
      <trkpt lat="46.05177" lon="5.80829">
        <ele>356.999</ele>
      </trkpt>
      <trkpt lat="46.05206" lon="5.80861">
        <ele>358.152</ele>
      </trkpt>
      <trkpt lat="46.0523" lon="5.80894">
        <ele>356.694</ele>
      </trkpt>
      <trkpt lat="46.05239" lon="5.80942">
        <ele>355.147</ele>
      </trkpt>
      <trkpt lat="46.05239" lon="5.80942">
        <ele>355.147</ele>
      </trkpt>
      <trkpt lat="46.05232" lon="5.80968">
        <ele>351.702</ele>
      </trkpt>
      <trkpt lat="46.0522" lon="5.8098">
        <ele>349.676</ele>
      </trkpt>
      <trkpt lat="46.05206" lon="5.8098">
        <ele>347.811</ele>
      </trkpt>
      <trkpt lat="46.05111" lon="5.80895">
        <ele>341.564</ele>
      </trkpt>
      <trkpt lat="46.05022" lon="5.8094">
        <ele>336.751</ele>
      </trkpt>
      <trkpt lat="46.0502" lon="5.80957">
        <ele>332.285</ele>
      </trkpt>
      <trkpt lat="46.0502" lon="5.80971">
        <ele>327.645</ele>
      </trkpt>
      <trkpt lat="46.0502" lon="5.80984">
        <ele>323.282</ele>
      </trkpt>
      <trkpt lat="46.0502" lon="5.81">
        <ele>318.137</ele>
      </trkpt>
      <trkpt lat="46.05021" lon="5.81014">
        <ele>323.577</ele>
      </trkpt>
      <trkpt lat="46.05024" lon="5.81026">
        <ele>329.972</ele>
      </trkpt>
      <trkpt lat="46.0503" lon="5.8104">
        <ele>329.032</ele>
      </trkpt>
      <trkpt lat="46.05059" lon="5.81057">
        <ele>332.463</ele>
      </trkpt>
      <trkpt lat="46.05066" lon="5.81057">
        <ele>333.708</ele>
      </trkpt>
      <trkpt lat="46.05069" lon="5.81056">
        <ele>334.24</ele>
      </trkpt>
      <trkpt lat="46.05088" lon="5.81056">
        <ele>334.992</ele>
      </trkpt>
      <trkpt lat="46.05121" lon="5.8107">
        <ele>329.284</ele>
      </trkpt>
      <trkpt lat="46.05192" lon="5.81111">
        <ele>333.975</ele>
      </trkpt>
      <trkpt lat="46.05201" lon="5.81118">
        <ele>330.416</ele>
      </trkpt>
      <trkpt lat="46.05222" lon="5.81134">
        <ele>332.609</ele>
      </trkpt>
      <trkpt lat="46.05269" lon="5.81183">
        <ele>331.207</ele>
      </trkpt>
      <trkpt lat="46.05276" lon="5.81219">
        <ele>333.741</ele>
      </trkpt>
      <trkpt lat="46.05273" lon="5.81241">
        <ele>330.215</ele>
      </trkpt>
      <trkpt lat="46.05253" lon="5.81336">
        <ele>333.37</ele>
      </trkpt>
      <trkpt lat="46.05246" lon="5.81357">
        <ele>330.415</ele>
      </trkpt>
      <trkpt lat="46.0524" lon="5.81374">
        <ele>327.118</ele>
      </trkpt>
      <trkpt lat="46.05234" lon="5.81387">
        <ele>328.499</ele>
      </trkpt>
      <trkpt lat="46.05223" lon="5.81399">
        <ele>332.834</ele>
      </trkpt>
      <trkpt lat="46.052" lon="5.81403">
        <ele>336.672</ele>
      </trkpt>
      <trkpt lat="46.05175" lon="5.81389">
        <ele>337.223</ele>
      </trkpt>
      <trkpt lat="46.05146" lon="5.8139">
        <ele>341.87</ele>
      </trkpt>
      <trkpt lat="46.05126" lon="5.81409">
        <ele>351.594</ele>
      </trkpt>
      <trkpt lat="46.05109" lon="5.81422">
        <ele>356.859</ele>
      </trkpt>
      <trkpt lat="46.05087" lon="5.81424">
        <ele>361.423</ele>
      </trkpt>
      <trkpt lat="46.05086" lon="5.81424">
        <ele>361.527</ele>
      </trkpt>
      <trkpt lat="46.05069" lon="5.81411">
        <ele>363.011</ele>
      </trkpt>
      <trkpt lat="46.05024" lon="5.81349">
        <ele>361.327</ele>
      </trkpt>
      <trkpt lat="46.04958" lon="5.81291">
        <ele>367.524</ele>
      </trkpt>
      <trkpt lat="46.04948" lon="5.81288">
        <ele>368.853</ele>
      </trkpt>
      <trkpt lat="46.04893" lon="5.81287">
        <ele>378.813</ele>
      </trkpt>
      <trkpt lat="46.04849" lon="5.81227">
        <ele>379.012</ele>
      </trkpt>
      <trkpt lat="46.04782" lon="5.81202">
        <ele>382.717</ele>
      </trkpt>
      <trkpt lat="46.04722" lon="5.81208">
        <ele>384.529</ele>
      </trkpt>
      <trkpt lat="46.04694" lon="5.81202">
        <ele>381.458</ele>
      </trkpt>
      <trkpt lat="46.04654" lon="5.81175">
        <ele>377.788</ele>
      </trkpt>
      <trkpt lat="46.04636" lon="5.81181">
        <ele>381.021</ele>
      </trkpt>
      <trkpt lat="46.04631" lon="5.81197">
        <ele>385.168</ele>
      </trkpt>
      <trkpt lat="46.04638" lon="5.81222">
        <ele>391.026</ele>
      </trkpt>
      <trkpt lat="46.04644" lon="5.81227">
        <ele>392.543</ele>
      </trkpt>
      <trkpt lat="46.04696" lon="5.81236">
        <ele>394.013</ele>
      </trkpt>
      <trkpt lat="46.0476" lon="5.81245">
        <ele>399.717</ele>
      </trkpt>
      <trkpt lat="46.0478" lon="5.81258">
        <ele>402.015</ele>
      </trkpt>
      <trkpt lat="46.0479" lon="5.8127">
        <ele>403.801</ele>
      </trkpt>
      <trkpt lat="46.04821" lon="5.81333">
        <ele>412.808</ele>
      </trkpt>
      <trkpt lat="46.04834" lon="5.81367">
        <ele>417.85</ele>
      </trkpt>
      <trkpt lat="46.04899" lon="5.81416">
        <ele>419.864</ele>
      </trkpt>
      <trkpt lat="46.0493" lon="5.81433">
        <ele>421.02</ele>
      </trkpt>
      <trkpt lat="46.04988" lon="5.81494">
        <ele>420.223</ele>
      </trkpt>
      <trkpt lat="46.04988" lon="5.8151">
        <ele>422.092</ele>
      </trkpt>
      <trkpt lat="46.04987" lon="5.81531">
        <ele>425.131</ele>
      </trkpt>
      <trkpt lat="46.04991" lon="5.81558">
        <ele>427.554</ele>
      </trkpt>
      <trkpt lat="46.05001" lon="5.8158">
        <ele>429.053</ele>
      </trkpt>
      <trkpt lat="46.05022" lon="5.81594">
        <ele>428.037</ele>
      </trkpt>
      <trkpt lat="46.05042" lon="5.81594">
        <ele>423.772</ele>
      </trkpt>
      <trkpt lat="46.05077" lon="5.81644">
        <ele>429.186</ele>
      </trkpt>
      <trkpt lat="46.05151" lon="5.81658">
        <ele>428.057</ele>
      </trkpt>
      <trkpt lat="46.05182" lon="5.81683">
        <ele>425.977</ele>
      </trkpt>
      <trkpt lat="46.05173" lon="5.8175">
        <ele>427.748</ele>
      </trkpt>
      <trkpt lat="46.05145" lon="5.81759">
        <ele>433.547</ele>
      </trkpt>
      <trkpt lat="46.05108" lon="5.81742">
        <ele>441.508</ele>
      </trkpt>
      <trkpt lat="46.0499" lon="5.81679">
        <ele>450.625</ele>
      </trkpt>
      <trkpt lat="46.04948" lon="5.81662">
        <ele>454.872</ele>
      </trkpt>
      <trkpt lat="46.04902" lon="5.81666">
        <ele>459.993</ele>
      </trkpt>
      <trkpt lat="46.0489" lon="5.81673">
        <ele>461.112</ele>
      </trkpt>
      <trkpt lat="46.04869" lon="5.81689">
        <ele>462.677</ele>
      </trkpt>
      <trkpt lat="46.04825" lon="5.81727">
        <ele>464.607</ele>
      </trkpt>
      <trkpt lat="46.04771" lon="5.81782">
        <ele>469.421</ele>
      </trkpt>
      <trkpt lat="46.04771" lon="5.81782">
        <ele>469.421</ele>
      </trkpt>
      <trkpt lat="46.04752" lon="5.81836">
        <ele>471.993</ele>
      </trkpt>
      <trkpt lat="46.04743" lon="5.81958">
        <ele>475.977</ele>
      </trkpt>
      <trkpt lat="46.04624" lon="5.82253">
        <ele>476.334</ele>
      </trkpt>
      <trkpt lat="46.04624" lon="5.82253">
        <ele>476.334</ele>
      </trkpt>
      <trkpt lat="46.04595" lon="5.82485">
        <ele>478.116</ele>
      </trkpt>
      <trkpt lat="46.04599" lon="5.82544">
        <ele>480.778</ele>
      </trkpt>
      <trkpt lat="46.04578" lon="5.82611">
        <ele>484.156</ele>
      </trkpt>
      <trkpt lat="46.04531" lon="5.82698">
        <ele>488.128</ele>
      </trkpt>
      <trkpt lat="46.04494" lon="5.82788">
        <ele>490</ele>
      </trkpt>
      <trkpt lat="46.04418" lon="5.83076">
        <ele>491.048</ele>
      </trkpt>
      <trkpt lat="46.04325" lon="5.83437">
        <ele>495.146</ele>
      </trkpt>
      <trkpt lat="46.0426" lon="5.83692">
        <ele>503.576</ele>
      </trkpt>
      <trkpt lat="46.0426" lon="5.83692">
        <ele>503.576</ele>
      </trkpt>
      <trkpt lat="46.04213" lon="5.83876">
        <ele>509.894</ele>
      </trkpt>
      <trkpt lat="46.04188" lon="5.83971">
        <ele>512.731</ele>
      </trkpt>
      <trkpt lat="46.04136" lon="5.84154">
        <ele>517.44</ele>
      </trkpt>
      <trkpt lat="46.04105" lon="5.84261">
        <ele>518.067</ele>
      </trkpt>
      <trkpt lat="46.04086" lon="5.84498">
        <ele>523.198</ele>
      </trkpt>
      <trkpt lat="46.04204" lon="5.84743">
        <ele>531.333</ele>
      </trkpt>
      <trkpt lat="46.04293" lon="5.84921">
        <ele>536</ele>
      </trkpt>
      <trkpt lat="46.04332" lon="5.84962">
        <ele>536</ele>
      </trkpt>
      <trkpt lat="46.04458" lon="5.85026">
        <ele>531.538</ele>
      </trkpt>
      <trkpt lat="46.04508" lon="5.85083">
        <ele>529.008</ele>
      </trkpt>
      <trkpt lat="46.04508" lon="5.85083">
        <ele>529.008</ele>
      </trkpt>
      <trkpt lat="46.0451" lon="5.85123">
        <ele>527.741</ele>
      </trkpt>
      <trkpt lat="46.04442" lon="5.85357">
        <ele>524</ele>
      </trkpt>
      <trkpt lat="46.04394" lon="5.85474">
        <ele>522.184</ele>
      </trkpt>
      <trkpt lat="46.04259" lon="5.85705">
        <ele>519</ele>
      </trkpt>
      <trkpt lat="46.0424" lon="5.85737">
        <ele>518.486</ele>
      </trkpt>
      <trkpt lat="46.04231" lon="5.85767">
        <ele>517.574</ele>
      </trkpt>
      <trkpt lat="46.04195" lon="5.85758">
        <ele>517.715</ele>
      </trkpt>
      <trkpt lat="46.04043" lon="5.86044">
        <ele>514.087</ele>
      </trkpt>
      <trkpt lat="46.03938" lon="5.86246">
        <ele>510.162</ele>
      </trkpt>
      <trkpt lat="46.03914" lon="5.86279">
        <ele>509.963</ele>
      </trkpt>
      <trkpt lat="46.03876" lon="5.86321">
        <ele>509</ele>
      </trkpt>
      <trkpt lat="46.03738" lon="5.8653">
        <ele>503.2</ele>
      </trkpt>
      <trkpt lat="46.03713" lon="5.86559">
        <ele>501.006</ele>
      </trkpt>
      <trkpt lat="46.03666" lon="5.86626">
        <ele>499.501</ele>
      </trkpt>
      <trkpt lat="46.03639" lon="5.86693">
        <ele>498.096</ele>
      </trkpt>
      <trkpt lat="46.03514" lon="5.86893">
        <ele>492.892</ele>
      </trkpt>
      <trkpt lat="46.035" lon="5.86923">
        <ele>491.731</ele>
      </trkpt>
      <trkpt lat="46.03488" lon="5.86954">
        <ele>489.296</ele>
      </trkpt>
      <trkpt lat="46.03469" lon="5.87021">
        <ele>486.091</ele>
      </trkpt>
      <trkpt lat="46.03446" lon="5.87138">
        <ele>479.824</ele>
      </trkpt>
      <trkpt lat="46.03418" lon="5.87252">
        <ele>473.911</ele>
      </trkpt>
      <trkpt lat="46.03408" lon="5.87281">
        <ele>472.586</ele>
      </trkpt>
      <trkpt lat="46.0335" lon="5.87387">
        <ele>465.712</ele>
      </trkpt>
      <trkpt lat="46.03311" lon="5.8746">
        <ele>460.442</ele>
      </trkpt>
      <trkpt lat="46.03287" lon="5.87496">
        <ele>458.761</ele>
      </trkpt>
      <trkpt lat="46.03263" lon="5.87527">
        <ele>458.103</ele>
      </trkpt>
      <trkpt lat="46.03215" lon="5.87621">
        <ele>453.268</ele>
      </trkpt>
      <trkpt lat="46.03183" lon="5.87706">
        <ele>447.886</ele>
      </trkpt>
      <trkpt lat="46.03127" lon="5.87842">
        <ele>442.702</ele>
      </trkpt>
      <trkpt lat="46.03105" lon="5.87872">
        <ele>441.03</ele>
      </trkpt>
      <trkpt lat="46.0309" lon="5.87889">
        <ele>438.643</ele>
      </trkpt>
      <trkpt lat="46.03077" lon="5.879">
        <ele>435.758</ele>
      </trkpt>
      <trkpt lat="46.03077" lon="5.879">
        <ele>435.768</ele>
      </trkpt>
      <trkpt lat="46.03063" lon="5.87911">
        <ele>431.942</ele>
      </trkpt>
      <trkpt lat="46.03018" lon="5.879">
        <ele>422.829</ele>
      </trkpt>
      <trkpt lat="46.02992" lon="5.87899">
        <ele>417.235</ele>
      </trkpt>
      <trkpt lat="46.0296" lon="5.87894">
        <ele>411.626</ele>
      </trkpt>
      <trkpt lat="46.02942" lon="5.87888">
        <ele>408.467</ele>
      </trkpt>
      <trkpt lat="46.02918" lon="5.87895">
        <ele>404.195</ele>
      </trkpt>
      <trkpt lat="46.02875" lon="5.87947">
        <ele>399.431</ele>
      </trkpt>
      <trkpt lat="46.02852" lon="5.87979">
        <ele>395.481</ele>
      </trkpt>
      <trkpt lat="46.0283" lon="5.8799">
        <ele>392.501</ele>
      </trkpt>
      <trkpt lat="46.02815" lon="5.88007">
        <ele>389.782</ele>
      </trkpt>
      <trkpt lat="46.02795" lon="5.88014">
        <ele>387.049</ele>
      </trkpt>
      <trkpt lat="46.0277" lon="5.88011">
        <ele>384.799</ele>
      </trkpt>
      <trkpt lat="46.02745" lon="5.88041">
        <ele>378.76</ele>
      </trkpt>
      <trkpt lat="46.02731" lon="5.8807">
        <ele>373.937</ele>
      </trkpt>
      <trkpt lat="46.02722" lon="5.88096">
        <ele>370.551</ele>
      </trkpt>
      <trkpt lat="46.02712" lon="5.88123">
        <ele>367.031</ele>
      </trkpt>
      <trkpt lat="46.02688" lon="5.88137">
        <ele>363.778</ele>
      </trkpt>
      <trkpt lat="46.02649" lon="5.88113">
        <ele>361.299</ele>
      </trkpt>
      <trkpt lat="46.02609" lon="5.8806">
        <ele>356.37</ele>
      </trkpt>
      <trkpt lat="46.02577" lon="5.88047">
        <ele>349.217</ele>
      </trkpt>
      <trkpt lat="46.0256" lon="5.88041">
        <ele>344.655</ele>
      </trkpt>
      <trkpt lat="46.02547" lon="5.88038">
        <ele>340.655</ele>
      </trkpt>
      <trkpt lat="46.02536" lon="5.88042">
        <ele>336.597</ele>
      </trkpt>
      <trkpt lat="46.02518" lon="5.88021">
        <ele>331.78</ele>
      </trkpt>
      <trkpt lat="46.02512" lon="5.8805">
        <ele>327.137</ele>
      </trkpt>
      <trkpt lat="46.0251" lon="5.88089">
        <ele>324.807</ele>
      </trkpt>
      <trkpt lat="46.0251" lon="5.88089">
        <ele>324.691</ele>
      </trkpt>
      <trkpt lat="46.02498" lon="5.88133">
        <ele>320.389</ele>
      </trkpt>
      <trkpt lat="46.02491" lon="5.88158">
        <ele>317.337</ele>
      </trkpt>
      <trkpt lat="46.02495" lon="5.88177">
        <ele>317.993</ele>
      </trkpt>
      <trkpt lat="46.02493" lon="5.88237">
        <ele>313.545</ele>
      </trkpt>
      <trkpt lat="46.02487" lon="5.88266">
        <ele>309.752</ele>
      </trkpt>
      <trkpt lat="46.02477" lon="5.88284">
        <ele>306.375</ele>
      </trkpt>
      <trkpt lat="46.02455" lon="5.88301">
        <ele>302.295</ele>
      </trkpt>
      <trkpt lat="46.02408" lon="5.88348">
        <ele>295.833</ele>
      </trkpt>
      <trkpt lat="46.02556" lon="5.88639">
        <ele>296.041</ele>
      </trkpt>
      <trkpt lat="46.02563" lon="5.88647">
        <ele>296.28</ele>
      </trkpt>
      <trkpt lat="46.02549" lon="5.88695">
        <ele>288.468</ele>
      </trkpt>
      <trkpt lat="46.02479" lon="5.88802">
        <ele>299.819</ele>
      </trkpt>
      <trkpt lat="46.0247" lon="5.88824">
        <ele>303.305</ele>
      </trkpt>
      <trkpt lat="46.0246" lon="5.88846">
        <ele>307.307</ele>
      </trkpt>
      <trkpt lat="46.02468" lon="5.88892">
        <ele>310.958</ele>
      </trkpt>
      <trkpt lat="46.02466" lon="5.89098">
        <ele>321.228</ele>
      </trkpt>
      <trkpt lat="46.0244" lon="5.89092">
        <ele>322.219</ele>
      </trkpt>
      <trkpt lat="46.02414" lon="5.89086">
        <ele>323.623</ele>
      </trkpt>
      <trkpt lat="46.02398" lon="5.8908">
        <ele>326.225</ele>
      </trkpt>
      <trkpt lat="46.02382" lon="5.89056">
        <ele>327.667</ele>
      </trkpt>
      <trkpt lat="46.02363" lon="5.8902">
        <ele>329.996</ele>
      </trkpt>
      <trkpt lat="46.0233" lon="5.88953">
        <ele>333.931</ele>
      </trkpt>
      <trkpt lat="46.02293" lon="5.88874">
        <ele>337.062</ele>
      </trkpt>
      <trkpt lat="46.02231" lon="5.88875">
        <ele>345.359</ele>
      </trkpt>
      <trkpt lat="46.02215" lon="5.88896">
        <ele>348.277</ele>
      </trkpt>
      <trkpt lat="46.02206" lon="5.88918">
        <ele>351.726</ele>
      </trkpt>
      <trkpt lat="46.02209" lon="5.88947">
        <ele>354.233</ele>
      </trkpt>
      <trkpt lat="46.02229" lon="5.88986">
        <ele>358.197</ele>
      </trkpt>
      <trkpt lat="46.02166" lon="5.89067">
        <ele>368.488</ele>
      </trkpt>
      <trkpt lat="46.02166" lon="5.89067">
        <ele>368.504</ele>
      </trkpt>
      <trkpt lat="46.02142" lon="5.8908">
        <ele>372.327</ele>
      </trkpt>
      <trkpt lat="46.0213" lon="5.89079">
        <ele>374.385</ele>
      </trkpt>
      <trkpt lat="46.02118" lon="5.89066">
        <ele>375.526</ele>
      </trkpt>
      <trkpt lat="46.02096" lon="5.89042">
        <ele>377.531</ele>
      </trkpt>
      <trkpt lat="46.02044" lon="5.89032">
        <ele>383.919</ele>
      </trkpt>
      <trkpt lat="46.01794" lon="5.89038">
        <ele>383.161</ele>
      </trkpt>
      <trkpt lat="46.01791" lon="5.89037">
        <ele>382.916</ele>
      </trkpt>
      <trkpt lat="46.01788" lon="5.88929">
        <ele>383.364</ele>
      </trkpt>
      <trkpt lat="46.01764" lon="5.89025">
        <ele>380.074</ele>
      </trkpt>
      <trkpt lat="46.01745" lon="5.89068">
        <ele>375.4</ele>
      </trkpt>
      <trkpt lat="46.01716" lon="5.89188">
        <ele>366.482</ele>
      </trkpt>
      <trkpt lat="46.01709" lon="5.89215">
        <ele>364.743</ele>
      </trkpt>
      <trkpt lat="46.01685" lon="5.89278">
        <ele>360.922</ele>
      </trkpt>
      <trkpt lat="46.0164" lon="5.89334">
        <ele>355.313</ele>
      </trkpt>
      <trkpt lat="46.01609" lon="5.89321">
        <ele>353.857</ele>
      </trkpt>
      <trkpt lat="46.01604" lon="5.89307">
        <ele>354.34</ele>
      </trkpt>
      <trkpt lat="46.01591" lon="5.89266">
        <ele>355.049</ele>
      </trkpt>
      <trkpt lat="46.01554" lon="5.8924">
        <ele>359.678</ele>
      </trkpt>
      <trkpt lat="46.01531" lon="5.89247">
        <ele>363.232</ele>
      </trkpt>
      <trkpt lat="46.01513" lon="5.89251">
        <ele>365.23</ele>
      </trkpt>
      <trkpt lat="46.01481" lon="5.89158">
        <ele>369.076</ele>
      </trkpt>
      <trkpt lat="46.01483" lon="5.89141">
        <ele>371.059</ele>
      </trkpt>
      <trkpt lat="46.01493" lon="5.89117">
        <ele>371.842</ele>
      </trkpt>
      <trkpt lat="46.01514" lon="5.89094">
        <ele>369.276</ele>
      </trkpt>
      <trkpt lat="46.01406" lon="5.88968">
        <ele>384.349</ele>
      </trkpt>
      <trkpt lat="46.01372" lon="5.88942">
        <ele>388.337</ele>
      </trkpt>
      <trkpt lat="46.01271" lon="5.8882">
        <ele>394.023</ele>
      </trkpt>
      <trkpt lat="46.01224" lon="5.88755">
        <ele>395.081</ele>
      </trkpt>
      <trkpt lat="46.01114" lon="5.88629">
        <ele>398.482</ele>
      </trkpt>
      <trkpt lat="46.01105" lon="5.88622">
        <ele>398.732</ele>
      </trkpt>
      <trkpt lat="46.00965" lon="5.88755">
        <ele>406.281</ele>
      </trkpt>
      <trkpt lat="46.00937" lon="5.88811">
        <ele>410.919</ele>
      </trkpt>
      <trkpt lat="46.00921" lon="5.88865">
        <ele>415.273</ele>
      </trkpt>
      <trkpt lat="46.0083" lon="5.89001">
        <ele>421.94</ele>
      </trkpt>
      <trkpt lat="46.00805" lon="5.89034">
        <ele>424.443</ele>
      </trkpt>
      <trkpt lat="46.00771" lon="5.89079">
        <ele>427.829</ele>
      </trkpt>
      <trkpt lat="46.00749" lon="5.89114">
        <ele>430.233</ele>
      </trkpt>
      <trkpt lat="46.00713" lon="5.89145">
        <ele>433.549</ele>
      </trkpt>
      <trkpt lat="46.00635" lon="5.89251">
        <ele>441.439</ele>
      </trkpt>
      <trkpt lat="46.00614" lon="5.89274">
        <ele>444.68</ele>
      </trkpt>
      <trkpt lat="46.00564" lon="5.89302">
        <ele>450.13</ele>
      </trkpt>
      <trkpt lat="46.00474" lon="5.89424">
        <ele>461.752</ele>
      </trkpt>
      <trkpt lat="46.00468" lon="5.89467">
        <ele>464.591</ele>
      </trkpt>
      <trkpt lat="46.0044" lon="5.89545">
        <ele>473.238</ele>
      </trkpt>
      <trkpt lat="46.00424" lon="5.89622">
        <ele>477.251</ele>
      </trkpt>
      <trkpt lat="46.00407" lon="5.89717">
        <ele>480.662</ele>
      </trkpt>
      <trkpt lat="46.00406" lon="5.89799">
        <ele>484.166</ele>
      </trkpt>
      <trkpt lat="46.004" lon="5.89879">
        <ele>488.241</ele>
      </trkpt>
      <trkpt lat="46.00382" lon="5.89933">
        <ele>490.825</ele>
      </trkpt>
      <trkpt lat="46.00304" lon="5.9006">
        <ele>496.122</ele>
      </trkpt>
      <trkpt lat="46.0029" lon="5.90132">
        <ele>496.902</ele>
      </trkpt>
      <trkpt lat="46.00282" lon="5.90259">
        <ele>501.967</ele>
      </trkpt>
      <trkpt lat="46.00277" lon="5.90334">
        <ele>504.963</ele>
      </trkpt>
      <trkpt lat="46.00252" lon="5.90395">
        <ele>507.805</ele>
      </trkpt>
      <trkpt lat="46.00217" lon="5.90417">
        <ele>509.024</ele>
      </trkpt>
      <trkpt lat="46.00152" lon="5.90481">
        <ele>514.617</ele>
      </trkpt>
      <trkpt lat="46.00072" lon="5.90507">
        <ele>516.788</ele>
      </trkpt>
      <trkpt lat="46.00052" lon="5.90549">
        <ele>521.249</ele>
      </trkpt>
      <trkpt lat="46.00041" lon="5.90574">
        <ele>524.024</ele>
      </trkpt>
      <trkpt lat="46.00041" lon="5.90622">
        <ele>529.496</ele>
      </trkpt>
      <trkpt lat="46.00041" lon="5.90622">
        <ele>529.496</ele>
      </trkpt>
      <trkpt lat="46.00037" lon="5.90666">
        <ele>535.175</ele>
      </trkpt>
      <trkpt lat="46.00015" lon="5.90704">
        <ele>539.72</ele>
      </trkpt>
      <trkpt lat="46.00015" lon="5.90704">
        <ele>539.72</ele>
      </trkpt>
      <trkpt lat="45.99971" lon="5.90733">
        <ele>542.863</ele>
      </trkpt>
      <trkpt lat="45.99917" lon="5.90769">
        <ele>545.787</ele>
      </trkpt>
      <trkpt lat="45.99917" lon="5.90769">
        <ele>545.787</ele>
      </trkpt>
      <trkpt lat="45.99876" lon="5.90808">
        <ele>549.373</ele>
      </trkpt>
      <trkpt lat="45.99826" lon="5.90884">
        <ele>557.154</ele>
      </trkpt>
      <trkpt lat="45.99826" lon="5.90884">
        <ele>557.154</ele>
      </trkpt>
      <trkpt lat="45.99784" lon="5.90973">
        <ele>565.843</ele>
      </trkpt>
      <trkpt lat="45.99761" lon="5.91037">
        <ele>567.312</ele>
      </trkpt>
      <trkpt lat="45.99754" lon="5.91066">
        <ele>566.792</ele>
      </trkpt>
      <trkpt lat="45.99772" lon="5.91296">
        <ele>563.789</ele>
      </trkpt>
      <trkpt lat="45.99779" lon="5.91321">
        <ele>563.526</ele>
      </trkpt>
      <trkpt lat="45.99824" lon="5.91457">
        <ele>562.66</ele>
      </trkpt>
      <trkpt lat="45.9981" lon="5.91596">
        <ele>560.914</ele>
      </trkpt>
      <trkpt lat="45.99811" lon="5.91617">
        <ele>561</ele>
      </trkpt>
      <trkpt lat="45.99816" lon="5.91681">
        <ele>561.624</ele>
      </trkpt>
      <trkpt lat="45.99826" lon="5.91786">
        <ele>562.492</ele>
      </trkpt>
      <trkpt lat="45.99825" lon="5.91817">
        <ele>562.718</ele>
      </trkpt>
      <trkpt lat="45.99746" lon="5.92124">
        <ele>567.996</ele>
      </trkpt>
      <trkpt lat="45.9973" lon="5.92293">
        <ele>574.159</ele>
      </trkpt>
      <trkpt lat="45.99719" lon="5.92362">
        <ele>579.675</ele>
      </trkpt>
      <trkpt lat="45.99697" lon="5.92429">
        <ele>587.468</ele>
      </trkpt>
      <trkpt lat="45.9967" lon="5.9248">
        <ele>593.489</ele>
      </trkpt>
      <trkpt lat="45.99651" lon="5.92513">
        <ele>597.154</ele>
      </trkpt>
      <trkpt lat="45.99612" lon="5.92568">
        <ele>600.514</ele>
      </trkpt>
      <trkpt lat="45.99441" lon="5.9276">
        <ele>592.133</ele>
      </trkpt>
      <trkpt lat="45.99442" lon="5.92789">
        <ele>586.785</ele>
      </trkpt>
      <trkpt lat="45.99462" lon="5.9282">
        <ele>581.156</ele>
      </trkpt>
      <trkpt lat="45.99458" lon="5.92859">
        <ele>575.225</ele>
      </trkpt>
      <trkpt lat="45.99463" lon="5.92912">
        <ele>568.836</ele>
      </trkpt>
      <trkpt lat="45.99484" lon="5.92969">
        <ele>562.892</ele>
      </trkpt>
      <trkpt lat="45.99494" lon="5.93003">
        <ele>558.901</ele>
      </trkpt>
      <trkpt lat="45.99505" lon="5.93026">
        <ele>555.311</ele>
      </trkpt>
      <trkpt lat="45.99528" lon="5.93044">
        <ele>549.875</ele>
      </trkpt>
      <trkpt lat="45.99558" lon="5.93083">
        <ele>541.878</ele>
      </trkpt>
      <trkpt lat="45.99558" lon="5.93083">
        <ele>541.878</ele>
      </trkpt>
      <trkpt lat="45.99593" lon="5.93107">
        <ele>537.017</ele>
      </trkpt>
      <trkpt lat="45.99634" lon="5.93126">
        <ele>531.685</ele>
      </trkpt>
      <trkpt lat="45.99665" lon="5.93152">
        <ele>527.175</ele>
      </trkpt>
      <trkpt lat="45.99698" lon="5.93183">
        <ele>519.907</ele>
      </trkpt>
      <trkpt lat="45.99694" lon="5.93312">
        <ele>512.698</ele>
      </trkpt>
      <trkpt lat="45.99692" lon="5.93354">
        <ele>510.135</ele>
      </trkpt>
      <trkpt lat="45.99688" lon="5.93381">
        <ele>507.904</ele>
      </trkpt>
      <trkpt lat="45.99686" lon="5.93384">
        <ele>507.799</ele>
      </trkpt>
      <trkpt lat="45.99627" lon="5.93525">
        <ele>498.205</ele>
      </trkpt>
      <trkpt lat="45.99559" lon="5.9354">
        <ele>493.323</ele>
      </trkpt>
      <trkpt lat="45.99494" lon="5.93636">
        <ele>489.459</ele>
      </trkpt>
      <trkpt lat="45.99512" lon="5.93702">
        <ele>493.853</ele>
      </trkpt>
      <trkpt lat="45.99492" lon="5.93956">
        <ele>499.8</ele>
      </trkpt>
      <trkpt lat="45.99484" lon="5.93986">
        <ele>501.219</ele>
      </trkpt>
      <trkpt lat="45.99391" lon="5.94109">
        <ele>501.247</ele>
      </trkpt>
      <trkpt lat="45.99342" lon="5.94145">
        <ele>496.7</ele>
      </trkpt>
      <trkpt lat="45.99283" lon="5.94544">
        <ele>490.49</ele>
      </trkpt>
      <trkpt lat="45.99252" lon="5.94732">
        <ele>487.977</ele>
      </trkpt>
      <trkpt lat="45.99226" lon="5.94772">
        <ele>487.287</ele>
      </trkpt>
      <trkpt lat="45.99046" lon="5.94946">
        <ele>482.32</ele>
      </trkpt>
      <trkpt lat="45.99153" lon="5.95049">
        <ele>492.285</ele>
      </trkpt>
      <trkpt lat="45.99162" lon="5.95108">
        <ele>493.328</ele>
      </trkpt>
      <trkpt lat="45.9916" lon="5.9526">
        <ele>492.663</ele>
      </trkpt>
      <trkpt lat="45.99167" lon="5.95302">
        <ele>490.995</ele>
      </trkpt>
    </trkseg>
  </trk>
  <trk>
    <name><![CDATA[TET_F-26_20230517]]></name>
    <desc><![CDATA[name=TET_F-26_20230517]]></desc>
    <extensions>
      <line xmlns="http://www.topografix.com/GPX/gpx_style/0/2">
        <color>008800</color>
        <width>4</width>
      </line>
    </extensions>
    <trkseg>
      <trkpt lat="46.19151" lon="5.72788">
        <ele>777</ele>
      </trkpt>
      <trkpt lat="46.19151" lon="5.72526">
        <ele>779.18</ele>
      </trkpt>
      <trkpt lat="46.19199" lon="5.7214">
        <ele>790.273</ele>
      </trkpt>
      <trkpt lat="46.19058" lon="5.71782">
        <ele>798.784</ele>
      </trkpt>
      <trkpt lat="46.18972" lon="5.71692">
        <ele>794.135</ele>
      </trkpt>
      <trkpt lat="46.18944" lon="5.71544">
        <ele>798.327</ele>
      </trkpt>
      <trkpt lat="46.18855" lon="5.71388">
        <ele>798.166</ele>
      </trkpt>
      <trkpt lat="46.18739" lon="5.71354">
        <ele>795.382</ele>
      </trkpt>
      <trkpt lat="46.18689" lon="5.71394">
        <ele>797.018</ele>
      </trkpt>
      <trkpt lat="46.18662" lon="5.71426">
        <ele>800.538</ele>
      </trkpt>
      <trkpt lat="46.1863" lon="5.7142">
        <ele>805.633</ele>
      </trkpt>
      <trkpt lat="46.18565" lon="5.71468">
        <ele>810.066</ele>
      </trkpt>
      <trkpt lat="46.18545" lon="5.71468">
        <ele>811.231</ele>
      </trkpt>
      <trkpt lat="46.1848" lon="5.71491">
        <ele>815.521</ele>
      </trkpt>
      <trkpt lat="46.18442" lon="5.71502">
        <ele>817.753</ele>
      </trkpt>
      <trkpt lat="46.18394" lon="5.71461">
        <ele>816.362</ele>
      </trkpt>
      <trkpt lat="46.18341" lon="5.71468">
        <ele>812.443</ele>
      </trkpt>
      <trkpt lat="46.18304" lon="5.71465">
        <ele>811.036</ele>
      </trkpt>
      <trkpt lat="46.18202" lon="5.71364">
        <ele>799.984</ele>
      </trkpt>
      <trkpt lat="46.18143" lon="5.71228">
        <ele>798.532</ele>
      </trkpt>
      <trkpt lat="46.1812" lon="5.71195">
        <ele>798.6</ele>
      </trkpt>
      <trkpt lat="46.18091" lon="5.71095">
        <ele>802.264</ele>
      </trkpt>
      <trkpt lat="46.18029" lon="5.70972">
        <ele>799.104</ele>
      </trkpt>
      <trkpt lat="46.17984" lon="5.70943">
        <ele>799.528</ele>
      </trkpt>
      <trkpt lat="46.17993" lon="5.70869">
        <ele>806.643</ele>
      </trkpt>
      <trkpt lat="46.17988" lon="5.70823">
        <ele>810.252</ele>
      </trkpt>
      <trkpt lat="46.18008" lon="5.7079">
        <ele>815.256</ele>
      </trkpt>
      <trkpt lat="46.17998" lon="5.70727">
        <ele>822.34</ele>
      </trkpt>
      <trkpt lat="46.18016" lon="5.70675">
        <ele>829.952</ele>
      </trkpt>
      <trkpt lat="46.18069" lon="5.70622">
        <ele>835.36</ele>
      </trkpt>
      <trkpt lat="46.18051" lon="5.70512">
        <ele>850.436</ele>
      </trkpt>
      <trkpt lat="46.18086" lon="5.70394">
        <ele>861.552</ele>
      </trkpt>
      <trkpt lat="46.18178" lon="5.70321">
        <ele>881.804</ele>
      </trkpt>
      <trkpt lat="46.183" lon="5.70268">
        <ele>904.293</ele>
      </trkpt>
      <trkpt lat="46.1837" lon="5.70103">
        <ele>917.534</ele>
      </trkpt>
      <trkpt lat="46.18432" lon="5.69764">
        <ele>925.278</ele>
      </trkpt>
      <trkpt lat="46.18426" lon="5.69608">
        <ele>922.597</ele>
      </trkpt>
      <trkpt lat="46.1838" lon="5.69432">
        <ele>904.12</ele>
      </trkpt>
      <trkpt lat="46.18536" lon="5.69319">
        <ele>876.991</ele>
      </trkpt>
      <trkpt lat="46.18439" lon="5.69221">
        <ele>842.593</ele>
      </trkpt>
      <trkpt lat="46.1853" lon="5.6912">
        <ele>826.986</ele>
      </trkpt>
      <trkpt lat="46.18513" lon="5.69034">
        <ele>815.833</ele>
      </trkpt>
      <trkpt lat="46.18546" lon="5.68936">
        <ele>802.44</ele>
      </trkpt>
      <trkpt lat="46.18548" lon="5.68827">
        <ele>788.956</ele>
      </trkpt>
      <trkpt lat="46.18529" lon="5.68722">
        <ele>783.205</ele>
      </trkpt>
      <trkpt lat="46.18515" lon="5.68573">
        <ele>772</ele>
      </trkpt>
      <trkpt lat="46.18448" lon="5.68562">
        <ele>776.655</ele>
      </trkpt>
      <trkpt lat="46.18407" lon="5.68426">
        <ele>781.012</ele>
      </trkpt>
      <trkpt lat="46.18359" lon="5.68313">
        <ele>785.676</ele>
      </trkpt>
      <trkpt lat="46.1845" lon="5.68185">
        <ele>796.608</ele>
      </trkpt>
      <trkpt lat="46.18428" lon="5.68098">
        <ele>802.416</ele>
      </trkpt>
      <trkpt lat="46.18407" lon="5.68035">
        <ele>806.919</ele>
      </trkpt>
      <trkpt lat="46.18484" lon="5.67898">
        <ele>813.709</ele>
      </trkpt>
      <trkpt lat="46.18508" lon="5.67816">
        <ele>819.536</ele>
      </trkpt>
      <trkpt lat="46.18508" lon="5.67767">
        <ele>825.264</ele>
      </trkpt>
      <trkpt lat="46.18516" lon="5.67721">
        <ele>832.099</ele>
      </trkpt>
      <trkpt lat="46.18505" lon="5.67692">
        <ele>837.658</ele>
      </trkpt>
      <trkpt lat="46.18465" lon="5.67653">
        <ele>841.804</ele>
      </trkpt>
      <trkpt lat="46.18406" lon="5.67603">
        <ele>853.275</ele>
      </trkpt>
      <trkpt lat="46.18291" lon="5.67547">
        <ele>862.272</ele>
      </trkpt>
      <trkpt lat="46.18303" lon="5.6752">
        <ele>867.824</ele>
      </trkpt>
      <trkpt lat="46.18343" lon="5.67504">
        <ele>873.409</ele>
      </trkpt>
      <trkpt lat="46.18383" lon="5.67517">
        <ele>879.67</ele>
      </trkpt>
      <trkpt lat="46.18379" lon="5.67471">
        <ele>885.488</ele>
      </trkpt>
      <trkpt lat="46.18313" lon="5.67382">
        <ele>904.027</ele>
      </trkpt>
      <trkpt lat="46.183" lon="5.67316">
        <ele>907.2</ele>
      </trkpt>
      <trkpt lat="46.18301" lon="5.6728">
        <ele>906.244</ele>
      </trkpt>
      <trkpt lat="46.18299" lon="5.67131">
        <ele>912.359</ele>
      </trkpt>
      <trkpt lat="46.18188" lon="5.66955">
        <ele>921.933</ele>
      </trkpt>
      <trkpt lat="46.18158" lon="5.66864">
        <ele>926.511</ele>
      </trkpt>
      <trkpt lat="46.18151" lon="5.66803">
        <ele>929.795</ele>
      </trkpt>
      <trkpt lat="46.18157" lon="5.66738">
        <ele>933.124</ele>
      </trkpt>
      <trkpt lat="46.18187" lon="5.66669">
        <ele>936.621</ele>
      </trkpt>
      <trkpt lat="46.18194" lon="5.66598">
        <ele>940.399</ele>
      </trkpt>
      <trkpt lat="46.18249" lon="5.66443">
        <ele>939.876</ele>
      </trkpt>
      <trkpt lat="46.18316" lon="5.66307">
        <ele>941.785</ele>
      </trkpt>
      <trkpt lat="46.18352" lon="5.66295">
        <ele>945.272</ele>
      </trkpt>
      <trkpt lat="46.18317" lon="5.66165">
        <ele>952.968</ele>
      </trkpt>
      <trkpt lat="46.18249" lon="5.6591">
        <ele>968.612</ele>
      </trkpt>
      <trkpt lat="46.1827" lon="5.65778">
        <ele>970.879</ele>
      </trkpt>
      <trkpt lat="46.18054" lon="5.65583">
        <ele>963.964</ele>
      </trkpt>
      <trkpt lat="46.18054" lon="5.65513">
        <ele>955.125</ele>
      </trkpt>
      <trkpt lat="46.18299" lon="5.65505">
        <ele>943.658</ele>
      </trkpt>
      <trkpt lat="46.18377" lon="5.6545">
        <ele>902.972</ele>
      </trkpt>
      <trkpt lat="46.18253" lon="5.65368">
        <ele>893.772</ele>
      </trkpt>
      <trkpt lat="46.18078" lon="5.65342">
        <ele>887.808</ele>
      </trkpt>
      <trkpt lat="46.18024" lon="5.65252">
        <ele>889.874</ele>
      </trkpt>
      <trkpt lat="46.17835" lon="5.65225">
        <ele>890.368</ele>
      </trkpt>
      <trkpt lat="46.17849" lon="5.65147">
        <ele>896.725</ele>
      </trkpt>
      <trkpt lat="46.1773" lon="5.64949">
        <ele>884.982</ele>
      </trkpt>
      <trkpt lat="46.17767" lon="5.64847">
        <ele>880.519</ele>
      </trkpt>
      <trkpt lat="46.17772" lon="5.6466">
        <ele>879.222</ele>
      </trkpt>
      <trkpt lat="46.17831" lon="5.64531">
        <ele>872.938</ele>
      </trkpt>
      <trkpt lat="46.17847" lon="5.6448">
        <ele>866.226</ele>
      </trkpt>
      <trkpt lat="46.17936" lon="5.6434">
        <ele>866.514</ele>
      </trkpt>
      <trkpt lat="46.17895" lon="5.64172">
        <ele>883.594</ele>
      </trkpt>
      <trkpt lat="46.17817" lon="5.64098">
        <ele>887.836</ele>
      </trkpt>
      <trkpt lat="46.17811" lon="5.63888">
        <ele>887.778</ele>
      </trkpt>
      <trkpt lat="46.17744" lon="5.63709">
        <ele>893.963</ele>
      </trkpt>
      <trkpt lat="46.17679" lon="5.63541">
        <ele>906.101</ele>
      </trkpt>
      <trkpt lat="46.17783" lon="5.6351">
        <ele>905.904</ele>
      </trkpt>
      <trkpt lat="46.17847" lon="5.63369">
        <ele>915.803</ele>
      </trkpt>
      <trkpt lat="46.17758" lon="5.63264">
        <ele>909.655</ele>
      </trkpt>
      <trkpt lat="46.17833" lon="5.63065">
        <ele>907.02</ele>
      </trkpt>
      <trkpt lat="46.17892" lon="5.62975">
        <ele>910.252</ele>
      </trkpt>
      <trkpt lat="46.1793" lon="5.62749">
        <ele>900.421</ele>
      </trkpt>
      <trkpt lat="46.17797" lon="5.62453">
        <ele>880.385</ele>
      </trkpt>
      <trkpt lat="46.17948" lon="5.62331">
        <ele>882.866</ele>
      </trkpt>
      <trkpt lat="46.18012" lon="5.62206">
        <ele>872.5</ele>
      </trkpt>
      <trkpt lat="46.18139" lon="5.62108">
        <ele>859.66</ele>
      </trkpt>
      <trkpt lat="46.18122" lon="5.62061">
        <ele>854.88</ele>
      </trkpt>
      <trkpt lat="46.18033" lon="5.62023">
        <ele>849.844</ele>
      </trkpt>
      <trkpt lat="46.18079" lon="5.61898">
        <ele>837.14</ele>
      </trkpt>
      <trkpt lat="46.18197" lon="5.61394">
        <ele>800.092</ele>
      </trkpt>
      <trkpt lat="46.18272" lon="5.61335">
        <ele>794.619</ele>
      </trkpt>
      <trkpt lat="46.18331" lon="5.61226">
        <ele>785.44</ele>
      </trkpt>
      <trkpt lat="46.18382" lon="5.61074">
        <ele>768.736</ele>
      </trkpt>
      <trkpt lat="46.18311" lon="5.60904">
        <ele>755.696</ele>
      </trkpt>
      <trkpt lat="46.18216" lon="5.60487">
        <ele>734.394</ele>
      </trkpt>
      <trkpt lat="46.18456" lon="5.60514">
        <ele>710.464</ele>
      </trkpt>
      <trkpt lat="46.18504" lon="5.60295">
        <ele>702.389</ele>
      </trkpt>
      <trkpt lat="46.18574" lon="5.60209">
        <ele>693.256</ele>
      </trkpt>
      <trkpt lat="46.1855" lon="5.60104">
        <ele>689.595</ele>
      </trkpt>
      <trkpt lat="46.18573" lon="5.59862">
        <ele>672.504</ele>
      </trkpt>
      <trkpt lat="46.18581" lon="5.59795">
        <ele>667.681</ele>
      </trkpt>
      <trkpt lat="46.18597" lon="5.59635">
        <ele>653.456</ele>
      </trkpt>
      <trkpt lat="46.18535" lon="5.5953">
        <ele>646.083</ele>
      </trkpt>
      <trkpt lat="46.18543" lon="5.59509">
        <ele>645.194</ele>
      </trkpt>
      <trkpt lat="46.18545" lon="5.59493">
        <ele>644.052</ele>
      </trkpt>
      <trkpt lat="46.18551" lon="5.5945">
        <ele>639.011</ele>
      </trkpt>
      <trkpt lat="46.18549" lon="5.59446">
        <ele>639.265</ele>
      </trkpt>
      <trkpt lat="46.18548" lon="5.59437">
        <ele>638.523</ele>
      </trkpt>
      <trkpt lat="46.18545" lon="5.59398">
        <ele>635.998</ele>
      </trkpt>
      <trkpt lat="46.18539" lon="5.59349">
        <ele>631.619</ele>
      </trkpt>
      <trkpt lat="46.18516" lon="5.59265">
        <ele>624.929</ele>
      </trkpt>
      <trkpt lat="46.1849" lon="5.59174">
        <ele>612.559</ele>
      </trkpt>
      <trkpt lat="46.18475" lon="5.59134">
        <ele>608.127</ele>
      </trkpt>
      <trkpt lat="46.18455" lon="5.59078">
        <ele>602.354</ele>
      </trkpt>
      <trkpt lat="46.18439" lon="5.59031">
        <ele>596.749</ele>
      </trkpt>
      <trkpt lat="46.18422" lon="5.58972">
        <ele>589.235</ele>
      </trkpt>
      <trkpt lat="46.18406" lon="5.58931">
        <ele>586.195</ele>
      </trkpt>
      <trkpt lat="46.18385" lon="5.5888">
        <ele>579.475</ele>
      </trkpt>
      <trkpt lat="46.1836" lon="5.58833">
        <ele>572.274</ele>
      </trkpt>
      <trkpt lat="46.18293" lon="5.58717">
        <ele>554.586</ele>
      </trkpt>
      <trkpt lat="46.18271" lon="5.58635">
        <ele>545.14</ele>
      </trkpt>
      <trkpt lat="46.18302" lon="5.58359">
        <ele>512.136</ele>
      </trkpt>
      <trkpt lat="46.18203" lon="5.58291">
        <ele>502.234</ele>
      </trkpt>
      <trkpt lat="46.17907" lon="5.58122">
        <ele>487.348</ele>
      </trkpt>
      <trkpt lat="46.17867" lon="5.58113">
        <ele>488</ele>
      </trkpt>
      <trkpt lat="46.17093" lon="5.5767">
        <ele>479</ele>
      </trkpt>
      <trkpt lat="46.17775" lon="5.55484">
        <ele>480.9</ele>
      </trkpt>
      <trkpt lat="46.18584" lon="5.52879">
        <ele>482.644</ele>
      </trkpt>
      <trkpt lat="46.18471" lon="5.52786">
        <ele>484</ele>
      </trkpt>
      <trkpt lat="46.18306" lon="5.52506">
        <ele>482.987</ele>
      </trkpt>
      <trkpt lat="46.18293" lon="5.52642">
        <ele>482.853</ele>
      </trkpt>
      <trkpt lat="46.1821" lon="5.52923">
        <ele>484.34</ele>
      </trkpt>
      <trkpt lat="46.18065" lon="5.53197">
        <ele>487.32</ele>
      </trkpt>
      <trkpt lat="46.18003" lon="5.534">
        <ele>487.892</ele>
      </trkpt>
      <trkpt lat="46.17907" lon="5.53662">
        <ele>489</ele>
      </trkpt>
      <trkpt lat="46.17807" lon="5.53802">
        <ele>490.82</ele>
      </trkpt>
      <trkpt lat="46.17667" lon="5.53635">
        <ele>505.533</ele>
      </trkpt>
      <trkpt lat="46.17418" lon="5.53402">
        <ele>521.153</ele>
      </trkpt>
      <trkpt lat="46.17289" lon="5.53188">
        <ele>534.748</ele>
      </trkpt>
      <trkpt lat="46.17105" lon="5.52912">
        <ele>540.899</ele>
      </trkpt>
      <trkpt lat="46.16808" lon="5.52851">
        <ele>547.551</ele>
      </trkpt>
      <trkpt lat="46.16498" lon="5.52536">
        <ele>551.154</ele>
      </trkpt>
      <trkpt lat="46.16397" lon="5.52396">
        <ele>549.145</ele>
      </trkpt>
      <trkpt lat="46.16448" lon="5.52251">
        <ele>544.712</ele>
      </trkpt>
      <trkpt lat="46.16496" lon="5.51966">
        <ele>544.664</ele>
      </trkpt>
      <trkpt lat="46.16256" lon="5.51951">
        <ele>545.548</ele>
      </trkpt>
      <trkpt lat="46.16051" lon="5.51941">
        <ele>553.105</ele>
      </trkpt>
      <trkpt lat="46.15938" lon="5.51762">
        <ele>564.799</ele>
      </trkpt>
      <trkpt lat="46.15822" lon="5.51731">
        <ele>563.644</ele>
      </trkpt>
      <trkpt lat="46.1586" lon="5.51664">
        <ele>571.083</ele>
      </trkpt>
      <trkpt lat="46.15865" lon="5.51462">
        <ele>579.051</ele>
      </trkpt>
      <trkpt lat="46.1577" lon="5.51357">
        <ele>590.004</ele>
      </trkpt>
      <trkpt lat="46.15713" lon="5.51236">
        <ele>604.008</ele>
      </trkpt>
      <trkpt lat="46.15716" lon="5.51177">
        <ele>608.032</ele>
      </trkpt>
      <trkpt lat="46.15597" lon="5.50987">
        <ele>626.714</ele>
      </trkpt>
      <trkpt lat="46.15567" lon="5.50921">
        <ele>629.752</ele>
      </trkpt>
      <trkpt lat="46.15395" lon="5.50879">
        <ele>632.146</ele>
      </trkpt>
      <trkpt lat="46.15297" lon="5.50789">
        <ele>638.48</ele>
      </trkpt>
      <trkpt lat="46.15219" lon="5.50727">
        <ele>644.813</ele>
      </trkpt>
      <trkpt lat="46.15219" lon="5.50544">
        <ele>660.383</ele>
      </trkpt>
      <trkpt lat="46.14938" lon="5.50401">
        <ele>691.823</ele>
      </trkpt>
      <trkpt lat="46.14938" lon="5.50323">
        <ele>697.78</ele>
      </trkpt>
      <trkpt lat="46.15038" lon="5.50221">
        <ele>704.693</ele>
      </trkpt>
      <trkpt lat="46.15094" lon="5.49803">
        <ele>736.339</ele>
      </trkpt>
      <trkpt lat="46.15085" lon="5.49628">
        <ele>732.197</ele>
      </trkpt>
      <trkpt lat="46.15347" lon="5.49654">
        <ele>738.365</ele>
      </trkpt>
      <trkpt lat="46.15376" lon="5.49576">
        <ele>737.864</ele>
      </trkpt>
      <trkpt lat="46.1526" lon="5.49405">
        <ele>751.531</ele>
      </trkpt>
      <trkpt lat="46.15149" lon="5.49319">
        <ele>746.069</ele>
      </trkpt>
      <trkpt lat="46.15125" lon="5.49284">
        <ele>750.543</ele>
      </trkpt>
      <trkpt lat="46.15141" lon="5.49202">
        <ele>761.479</ele>
      </trkpt>
      <trkpt lat="46.15286" lon="5.49046">
        <ele>778.376</ele>
      </trkpt>
      <trkpt lat="46.1507" lon="5.48934">
        <ele>780.844</ele>
      </trkpt>
      <trkpt lat="46.14895" lon="5.48934">
        <ele>770.211</ele>
      </trkpt>
      <trkpt lat="46.14774" lon="5.48872">
        <ele>767.608</ele>
      </trkpt>
      <trkpt lat="46.14561" lon="5.48795">
        <ele>758.274</ele>
      </trkpt>
      <trkpt lat="46.14304" lon="5.48628">
        <ele>748.224</ele>
      </trkpt>
      <trkpt lat="46.14294" lon="5.48558">
        <ele>750.992</ele>
      </trkpt>
      <trkpt lat="46.14008" lon="5.48513">
        <ele>738.308</ele>
      </trkpt>
      <trkpt lat="46.13967" lon="5.48552">
        <ele>735.208</ele>
      </trkpt>
      <trkpt lat="46.13755" lon="5.4856">
        <ele>721.051</ele>
      </trkpt>
      <trkpt lat="46.13579" lon="5.48538">
        <ele>716.952</ele>
      </trkpt>
      <trkpt lat="46.13476" lon="5.48529">
        <ele>715.776</ele>
      </trkpt>
      <trkpt lat="46.13403" lon="5.48596">
        <ele>710.276</ele>
      </trkpt>
      <trkpt lat="46.13271" lon="5.48563">
        <ele>710.405</ele>
      </trkpt>
      <trkpt lat="46.1305" lon="5.48587">
        <ele>714.818</ele>
      </trkpt>
      <trkpt lat="46.12985" lon="5.48584">
        <ele>714.145</ele>
      </trkpt>
      <trkpt lat="46.12937" lon="5.48584">
        <ele>710.28</ele>
      </trkpt>
      <trkpt lat="46.1284" lon="5.48666">
        <ele>704.976</ele>
      </trkpt>
      <trkpt lat="46.12815" lon="5.48557">
        <ele>705.011</ele>
      </trkpt>
      <trkpt lat="46.12734" lon="5.48487">
        <ele>703.351</ele>
      </trkpt>
      <trkpt lat="46.12696" lon="5.48331">
        <ele>695.729</ele>
      </trkpt>
      <trkpt lat="46.12669" lon="5.48273">
        <ele>695.861</ele>
      </trkpt>
      <trkpt lat="46.12758" lon="5.48214">
        <ele>703.65</ele>
      </trkpt>
      <trkpt lat="46.12771" lon="5.48136">
        <ele>711.537</ele>
      </trkpt>
      <trkpt lat="46.12661" lon="5.48047">
        <ele>711.091</ele>
      </trkpt>
      <trkpt lat="46.12515" lon="5.48024">
        <ele>720.007</ele>
      </trkpt>
      <trkpt lat="46.1238" lon="5.48075">
        <ele>710.791</ele>
      </trkpt>
      <trkpt lat="46.12219" lon="5.48029">
        <ele>703.191</ele>
      </trkpt>
      <trkpt lat="46.1213" lon="5.48041">
        <ele>695.572</ele>
      </trkpt>
      <trkpt lat="46.11987" lon="5.48034">
        <ele>675.92</ele>
      </trkpt>
      <trkpt lat="46.11944" lon="5.47995">
        <ele>668.849</ele>
      </trkpt>
      <trkpt lat="46.11766" lon="5.47918">
        <ele>657.378</ele>
      </trkpt>
      <trkpt lat="46.11612" lon="5.47907">
        <ele>654.272</ele>
      </trkpt>
      <trkpt lat="46.11523" lon="5.47868">
        <ele>645.904</ele>
      </trkpt>
      <trkpt lat="46.11494" lon="5.47856">
        <ele>642.336</ele>
      </trkpt>
      <trkpt lat="46.1145" lon="5.47892">
        <ele>636.845</ele>
      </trkpt>
      <trkpt lat="46.11405" lon="5.47888">
        <ele>629.338</ele>
      </trkpt>
      <trkpt lat="46.11381" lon="5.47898">
        <ele>625.394</ele>
      </trkpt>
      <trkpt lat="46.1138" lon="5.47902">
        <ele>625.078</ele>
      </trkpt>
      <trkpt lat="46.11377" lon="5.47927">
        <ele>621.648</ele>
      </trkpt>
      <trkpt lat="46.11394" lon="5.47946">
        <ele>620.071</ele>
      </trkpt>
      <trkpt lat="46.11423" lon="5.47965">
        <ele>613.557</ele>
      </trkpt>
      <trkpt lat="46.11476" lon="5.4798">
        <ele>613.735</ele>
      </trkpt>
      <trkpt lat="46.11495" lon="5.47991">
        <ele>613.484</ele>
      </trkpt>
      <trkpt lat="46.11512" lon="5.48">
        <ele>612.728</ele>
      </trkpt>
      <trkpt lat="46.11519" lon="5.48004">
        <ele>612.864</ele>
      </trkpt>
      <trkpt lat="46.11534" lon="5.48013">
        <ele>612.41</ele>
      </trkpt>
      <trkpt lat="46.11542" lon="5.48035">
        <ele>610.698</ele>
      </trkpt>
      <trkpt lat="46.11538" lon="5.48038">
        <ele>611.37</ele>
      </trkpt>
      <trkpt lat="46.11506" lon="5.48037">
        <ele>610.465</ele>
      </trkpt>
      <trkpt lat="46.11489" lon="5.48036">
        <ele>610.87</ele>
      </trkpt>
      <trkpt lat="46.11462" lon="5.48036">
        <ele>612.666</ele>
      </trkpt>
      <trkpt lat="46.11387" lon="5.48071">
        <ele>615.42</ele>
      </trkpt>
      <trkpt lat="46.11371" lon="5.4808">
        <ele>614.592</ele>
      </trkpt>
      <trkpt lat="46.11364" lon="5.48083">
        <ele>614.196</ele>
      </trkpt>
      <trkpt lat="46.1131" lon="5.4801">
        <ele>606.236</ele>
      </trkpt>
      <trkpt lat="46.11178" lon="5.48005">
        <ele>600.029</ele>
      </trkpt>
      <trkpt lat="46.11127" lon="5.47924">
        <ele>601.364</ele>
      </trkpt>
      <trkpt lat="46.11138" lon="5.47761">
        <ele>602.144</ele>
      </trkpt>
      <trkpt lat="46.11176" lon="5.47658">
        <ele>598.376</ele>
      </trkpt>
      <trkpt lat="46.11218" lon="5.47555">
        <ele>592.814</ele>
      </trkpt>
      <trkpt lat="46.11275" lon="5.47469">
        <ele>586.093</ele>
      </trkpt>
      <trkpt lat="46.11399" lon="5.47456">
        <ele>587.368</ele>
      </trkpt>
      <trkpt lat="46.11396" lon="5.47413">
        <ele>581.992</ele>
      </trkpt>
      <trkpt lat="46.11436" lon="5.47362">
        <ele>585.753</ele>
      </trkpt>
      <trkpt lat="46.11466" lon="5.47194">
        <ele>585.656</ele>
      </trkpt>
      <trkpt lat="46.11438" lon="5.4707">
        <ele>580.552</ele>
      </trkpt>
      <trkpt lat="46.11366" lon="5.47066">
        <ele>573.214</ele>
      </trkpt>
      <trkpt lat="46.11312" lon="5.47113">
        <ele>569.716</ele>
      </trkpt>
      <trkpt lat="46.11072" lon="5.47071">
        <ele>572.036</ele>
      </trkpt>
      <trkpt lat="46.10878" lon="5.47138">
        <ele>569.411</ele>
      </trkpt>
      <trkpt lat="46.10821" lon="5.47193">
        <ele>572.865</ele>
      </trkpt>
      <trkpt lat="46.10703" lon="5.47122">
        <ele>573.608</ele>
      </trkpt>
      <trkpt lat="46.10662" lon="5.47154">
        <ele>573.467</ele>
      </trkpt>
      <trkpt lat="46.10487" lon="5.47127">
        <ele>568.877</ele>
      </trkpt>
      <trkpt lat="46.10409" lon="5.46715">
        <ele>569.653</ele>
      </trkpt>
      <trkpt lat="46.10334" lon="5.4654">
        <ele>567.899</ele>
      </trkpt>
      <trkpt lat="46.10353" lon="5.46473">
        <ele>563.191</ele>
      </trkpt>
      <trkpt lat="46.1018" lon="5.46284">
        <ele>553.576</ele>
      </trkpt>
      <trkpt lat="46.0986" lon="5.46096">
        <ele>539.231</ele>
      </trkpt>
      <trkpt lat="46.09671" lon="5.45844">
        <ele>528.393</ele>
      </trkpt>
      <trkpt lat="46.09598" lon="5.45593">
        <ele>524</ele>
      </trkpt>
      <trkpt lat="46.09436" lon="5.45957">
        <ele>534.576</ele>
      </trkpt>
      <trkpt lat="46.09295" lon="5.46022">
        <ele>534.911</ele>
      </trkpt>
      <trkpt lat="46.09144" lon="5.4609">
        <ele>540.621</ele>
      </trkpt>
      <trkpt lat="46.09075" lon="5.46253">
        <ele>542.343</ele>
      </trkpt>
      <trkpt lat="46.08987" lon="5.46375">
        <ele>540.395</ele>
      </trkpt>
      <trkpt lat="46.08922" lon="5.46285">
        <ele>533.002</ele>
      </trkpt>
      <trkpt lat="46.08903" lon="5.46219">
        <ele>536.632</ele>
      </trkpt>
      <trkpt lat="46.08846" lon="5.46157">
        <ele>522.822</ele>
      </trkpt>
      <trkpt lat="46.08741" lon="5.46087">
        <ele>512.13</ele>
      </trkpt>
      <trkpt lat="46.08633" lon="5.4608">
        <ele>498.847</ele>
      </trkpt>
      <trkpt lat="46.08547" lon="5.45963">
        <ele>493.167</ele>
      </trkpt>
      <trkpt lat="46.08412" lon="5.45823">
        <ele>480.904</ele>
      </trkpt>
      <trkpt lat="46.08333" lon="5.45628">
        <ele>474.144</ele>
      </trkpt>
      <trkpt lat="46.08311" lon="5.45597">
        <ele>468.902</ele>
      </trkpt>
      <trkpt lat="46.08152" lon="5.45305">
        <ele>446.327</ele>
      </trkpt>
      <trkpt lat="46.08117" lon="5.45259">
        <ele>442.544</ele>
      </trkpt>
      <trkpt lat="46.08093" lon="5.4522">
        <ele>438.775</ele>
      </trkpt>
      <trkpt lat="46.07967" lon="5.451">
        <ele>427.009</ele>
      </trkpt>
      <trkpt lat="46.07968" lon="5.45119">
        <ele>423.713</ele>
      </trkpt>
      <trkpt lat="46.07832" lon="5.45036">
        <ele>415.739</ele>
      </trkpt>
      <trkpt lat="46.07804" lon="5.44971">
        <ele>410.386</ele>
      </trkpt>
      <trkpt lat="46.07748" lon="5.44851">
        <ele>402.25</ele>
      </trkpt>
      <trkpt lat="46.0779" lon="5.45052">
        <ele>398.295</ele>
      </trkpt>
      <trkpt lat="46.07821" lon="5.45138">
        <ele>394.001</ele>
      </trkpt>
      <trkpt lat="46.07824" lon="5.45309">
        <ele>377.322</ele>
      </trkpt>
      <trkpt lat="46.07951" lon="5.45468">
        <ele>363.872</ele>
      </trkpt>
      <trkpt lat="46.0797" lon="5.45504">
        <ele>365.952</ele>
      </trkpt>
      <trkpt lat="46.07968" lon="5.4555">
        <ele>359.331</ele>
      </trkpt>
      <trkpt lat="46.07992" lon="5.45628">
        <ele>349.127</ele>
      </trkpt>
      <trkpt lat="46.08047" lon="5.45745">
        <ele>341.574</ele>
      </trkpt>
      <trkpt lat="46.08072" lon="5.4585">
        <ele>338.707</ele>
      </trkpt>
      <trkpt lat="46.08044" lon="5.45993">
        <ele>329.99</ele>
      </trkpt>
      <trkpt lat="46.08079" lon="5.46114">
        <ele>321.021</ele>
      </trkpt>
      <trkpt lat="46.08066" lon="5.4617">
        <ele>311.542</ele>
      </trkpt>
      <trkpt lat="46.07939" lon="5.45915">
        <ele>309.472</ele>
      </trkpt>
      <trkpt lat="46.07846" lon="5.45816">
        <ele>305.456</ele>
      </trkpt>
      <trkpt lat="46.07725" lon="5.45646">
        <ele>304.623</ele>
      </trkpt>
      <trkpt lat="46.07606" lon="5.45428">
        <ele>300.857</ele>
      </trkpt>
      <trkpt lat="46.07587" lon="5.45291">
        <ele>299.517</ele>
      </trkpt>
      <trkpt lat="46.07521" lon="5.45094">
        <ele>298.153</ele>
      </trkpt>
      <trkpt lat="46.07507" lon="5.44883">
        <ele>296.75</ele>
      </trkpt>
      <trkpt lat="46.07509" lon="5.44641">
        <ele>292.72</ele>
      </trkpt>
      <trkpt lat="46.07511" lon="5.44503">
        <ele>291.043</ele>
      </trkpt>
      <trkpt lat="46.07461" lon="5.44505">
        <ele>290.735</ele>
      </trkpt>
      <trkpt lat="46.07392" lon="5.44591">
        <ele>292.807</ele>
      </trkpt>
      <trkpt lat="46.07379" lon="5.44853">
        <ele>297.239</ele>
      </trkpt>
      <trkpt lat="46.07393" lon="5.45088">
        <ele>300.746</ele>
      </trkpt>
      <trkpt lat="46.07346" lon="5.44972">
        <ele>299.197</ele>
      </trkpt>
      <trkpt lat="46.07342" lon="5.44869">
        <ele>312.516</ele>
      </trkpt>
      <trkpt lat="46.07325" lon="5.44739">
        <ele>324.296</ele>
      </trkpt>
      <trkpt lat="46.07244" lon="5.44595">
        <ele>338.987</ele>
      </trkpt>
      <trkpt lat="46.06996" lon="5.4444">
        <ele>385.649</ele>
      </trkpt>
      <trkpt lat="46.06839" lon="5.44242">
        <ele>411</ele>
      </trkpt>
      <trkpt lat="46.06817" lon="5.4416">
        <ele>416.237</ele>
      </trkpt>
      <trkpt lat="46.06739" lon="5.43981">
        <ele>435.237</ele>
      </trkpt>
      <trkpt lat="46.06623" lon="5.43833">
        <ele>430.567</ele>
      </trkpt>
      <trkpt lat="46.06558" lon="5.43713">
        <ele>439.433</ele>
      </trkpt>
      <trkpt lat="46.06498" lon="5.43627">
        <ele>442.86</ele>
      </trkpt>
      <trkpt lat="46.06409" lon="5.43456">
        <ele>425.323</ele>
      </trkpt>
      <trkpt lat="46.06201" lon="5.43121">
        <ele>376.332</ele>
      </trkpt>
      <trkpt lat="46.06141" lon="5.43">
        <ele>366.152</ele>
      </trkpt>
      <trkpt lat="46.06134" lon="5.42859">
        <ele>364.46</ele>
      </trkpt>
      <trkpt lat="46.06133" lon="5.42857">
        <ele>364.675</ele>
      </trkpt>
      <trkpt lat="46.06123" lon="5.42837">
        <ele>365.695</ele>
      </trkpt>
      <trkpt lat="46.06112" lon="5.42814">
        <ele>366.158</ele>
      </trkpt>
      <trkpt lat="46.06092" lon="5.42774">
        <ele>369.711</ele>
      </trkpt>
      <trkpt lat="46.06076" lon="5.4275">
        <ele>372.639</ele>
      </trkpt>
      <trkpt lat="46.06035" lon="5.42713">
        <ele>380.581</ele>
      </trkpt>
      <trkpt lat="46.06021" lon="5.42699">
        <ele>382.425</ele>
      </trkpt>
      <trkpt lat="46.05984" lon="5.42662">
        <ele>386.35</ele>
      </trkpt>
      <trkpt lat="46.05953" lon="5.42651">
        <ele>387.738</ele>
      </trkpt>
      <trkpt lat="46.0585" lon="5.42617">
        <ele>390.739</ele>
      </trkpt>
      <trkpt lat="46.05744" lon="5.42515">
        <ele>394.618</ele>
      </trkpt>
      <trkpt lat="46.05692" lon="5.42368">
        <ele>389.986</ele>
      </trkpt>
      <trkpt lat="46.05666" lon="5.42316">
        <ele>387.182</ele>
      </trkpt>
      <trkpt lat="46.05633" lon="5.42278">
        <ele>385.664</ele>
      </trkpt>
      <trkpt lat="46.05612" lon="5.42252">
        <ele>382.426</ele>
      </trkpt>
      <trkpt lat="46.056" lon="5.42226">
        <ele>382.153</ele>
      </trkpt>
      <trkpt lat="46.0556" lon="5.42123">
        <ele>377.738</ele>
      </trkpt>
      <trkpt lat="46.0554" lon="5.42088">
        <ele>378.834</ele>
      </trkpt>
      <trkpt lat="46.05451" lon="5.42081">
        <ele>377.239</ele>
      </trkpt>
      <trkpt lat="46.05405" lon="5.4207">
        <ele>375.659</ele>
      </trkpt>
      <trkpt lat="46.05311" lon="5.42004">
        <ele>371.304</ele>
      </trkpt>
      <trkpt lat="46.0529" lon="5.41995">
        <ele>367.642</ele>
      </trkpt>
      <trkpt lat="46.05196" lon="5.41993">
        <ele>362.839</ele>
      </trkpt>
      <trkpt lat="46.05176" lon="5.4197">
        <ele>361.469</ele>
      </trkpt>
      <trkpt lat="46.05166" lon="5.41927">
        <ele>361.185</ele>
      </trkpt>
      <trkpt lat="46.05159" lon="5.41776">
        <ele>365.528</ele>
      </trkpt>
      <trkpt lat="46.05128" lon="5.41717">
        <ele>367.421</ele>
      </trkpt>
      <trkpt lat="46.05062" lon="5.41636">
        <ele>369.328</ele>
      </trkpt>
      <trkpt lat="46.05024" lon="5.4156">
        <ele>366.296</ele>
      </trkpt>
      <trkpt lat="46.04996" lon="5.41495">
        <ele>366.092</ele>
      </trkpt>
      <trkpt lat="46.04921" lon="5.41447">
        <ele>362.417</ele>
      </trkpt>
      <trkpt lat="46.04885" lon="5.41441">
        <ele>359.488</ele>
      </trkpt>
      <trkpt lat="46.04832" lon="5.41391">
        <ele>354.1</ele>
      </trkpt>
      <trkpt lat="46.04808" lon="5.41371">
        <ele>351.099</ele>
      </trkpt>
      <trkpt lat="46.04785" lon="5.4135">
        <ele>349.304</ele>
      </trkpt>
      <trkpt lat="46.04724" lon="5.41322">
        <ele>345.286</ele>
      </trkpt>
      <trkpt lat="46.04633" lon="5.41295">
        <ele>339.115</ele>
      </trkpt>
      <trkpt lat="46.04581" lon="5.41307">
        <ele>333.72</ele>
      </trkpt>
      <trkpt lat="46.04497" lon="5.41289">
        <ele>323.08</ele>
      </trkpt>
      <trkpt lat="46.04452" lon="5.41263">
        <ele>319.076</ele>
      </trkpt>
      <trkpt lat="46.04413" lon="5.41234">
        <ele>314.66</ele>
      </trkpt>
      <trkpt lat="46.04391" lon="5.41234">
        <ele>311.707</ele>
      </trkpt>
      <trkpt lat="46.04364" lon="5.41239">
        <ele>309.271</ele>
      </trkpt>
      <trkpt lat="46.04224" lon="5.41059">
        <ele>301.104</ele>
      </trkpt>
      <trkpt lat="46.04085" lon="5.40972">
        <ele>307.932</ele>
      </trkpt>
      <trkpt lat="46.04005" lon="5.40918">
        <ele>303.276</ele>
      </trkpt>
      <trkpt lat="46.03932" lon="5.4094">
        <ele>298.497</ele>
      </trkpt>
      <trkpt lat="46.03933" lon="5.40783">
        <ele>286.218</ele>
      </trkpt>
      <trkpt lat="46.03925" lon="5.40676">
        <ele>281.437</ele>
      </trkpt>
      <trkpt lat="46.0393" lon="5.40676">
        <ele>281.497</ele>
      </trkpt>
      <trkpt lat="46.0396" lon="5.40676">
        <ele>282.232</ele>
      </trkpt>
      <trkpt lat="46.04083" lon="5.40733">
        <ele>285.393</ele>
      </trkpt>
      <trkpt lat="46.04088" lon="5.40735">
        <ele>285.46</ele>
      </trkpt>
      <trkpt lat="46.04143" lon="5.40762">
        <ele>286.948</ele>
      </trkpt>
      <trkpt lat="46.04213" lon="5.40793">
        <ele>290.884</ele>
      </trkpt>
      <trkpt lat="46.04215" lon="5.40796">
        <ele>291.136</ele>
      </trkpt>
      <trkpt lat="46.04259" lon="5.40657">
        <ele>295.207</ele>
      </trkpt>
      <trkpt lat="46.0432" lon="5.40608">
        <ele>299.928</ele>
      </trkpt>
      <trkpt lat="46.04386" lon="5.4054">
        <ele>301.626</ele>
      </trkpt>
      <trkpt lat="46.04434" lon="5.40472">
        <ele>298.242</ele>
      </trkpt>
      <trkpt lat="46.04454" lon="5.40355">
        <ele>303.252</ele>
      </trkpt>
      <trkpt lat="46.04478" lon="5.40242">
        <ele>305.396</ele>
      </trkpt>
      <trkpt lat="46.04505" lon="5.40124">
        <ele>309.159</ele>
      </trkpt>
      <trkpt lat="46.04514" lon="5.4008">
        <ele>311.136</ele>
      </trkpt>
      <trkpt lat="46.0453" lon="5.40018">
        <ele>316.48</ele>
      </trkpt>
      <trkpt lat="46.04543" lon="5.3996">
        <ele>319.614</ele>
      </trkpt>
      <trkpt lat="46.0455" lon="5.39922">
        <ele>316.576</ele>
      </trkpt>
      <trkpt lat="46.04557" lon="5.39883">
        <ele>313.628</ele>
      </trkpt>
      <trkpt lat="46.04562" lon="5.39852">
        <ele>311.5</ele>
      </trkpt>
      <trkpt lat="46.04579" lon="5.39771">
        <ele>304.824</ele>
      </trkpt>
      <trkpt lat="46.04594" lon="5.39723">
        <ele>301.271</ele>
      </trkpt>
      <trkpt lat="46.04604" lon="5.39678">
        <ele>297.176</ele>
      </trkpt>
      <trkpt lat="46.04622" lon="5.39645">
        <ele>293.569</ele>
      </trkpt>
      <trkpt lat="46.04682" lon="5.39557">
        <ele>285.104</ele>
      </trkpt>
      <trkpt lat="46.04688" lon="5.39507">
        <ele>281.504</ele>
      </trkpt>
      <trkpt lat="46.04706" lon="5.39465">
        <ele>277.804</ele>
      </trkpt>
      <trkpt lat="46.04715" lon="5.39428">
        <ele>273.922</ele>
      </trkpt>
      <trkpt lat="46.0473" lon="5.3938">
        <ele>269.61</ele>
      </trkpt>
      <trkpt lat="46.04752" lon="5.39347">
        <ele>266.385</ele>
      </trkpt>
      <trkpt lat="46.04794" lon="5.39277">
        <ele>262.804</ele>
      </trkpt>
      <trkpt lat="46.04802" lon="5.39263">
        <ele>261.724</ele>
      </trkpt>
      <trkpt lat="46.04882" lon="5.39139">
        <ele>259</ele>
      </trkpt>
      <trkpt lat="46.05025" lon="5.3891">
        <ele>257</ele>
      </trkpt>
      <trkpt lat="46.05045" lon="5.38881">
        <ele>256.38</ele>
      </trkpt>
      <trkpt lat="46.05054" lon="5.38861">
        <ele>256.052</ele>
      </trkpt>
      <trkpt lat="46.04975" lon="5.38859">
        <ele>257.832</ele>
      </trkpt>
      <trkpt lat="46.04544" lon="5.38889">
        <ele>256.582</ele>
      </trkpt>
      <trkpt lat="46.0434" lon="5.38904">
        <ele>253.374</ele>
      </trkpt>
      <trkpt lat="46.04333" lon="5.38823">
        <ele>252.379</ele>
      </trkpt>
      <trkpt lat="46.04472" lon="5.38651">
        <ele>251.563</ele>
      </trkpt>
      <trkpt lat="46.045" lon="5.38608">
        <ele>251.888</ele>
      </trkpt>
      <trkpt lat="46.04599" lon="5.38348">
        <ele>248.23</ele>
      </trkpt>
      <trkpt lat="46.04642" lon="5.38171">
        <ele>248.827</ele>
      </trkpt>
      <trkpt lat="46.04496" lon="5.38086">
        <ele>246.774</ele>
      </trkpt>
      <trkpt lat="46.04335" lon="5.37944">
        <ele>246.075</ele>
      </trkpt>
      <trkpt lat="46.04294" lon="5.38081">
        <ele>245.965</ele>
      </trkpt>
      <trkpt lat="46.04201" lon="5.38206">
        <ele>246.098</ele>
      </trkpt>
      <trkpt lat="46.04082" lon="5.38716">
        <ele>256</ele>
      </trkpt>
      <trkpt lat="46.03946" lon="5.38731">
        <ele>256.298</ele>
      </trkpt>
      <trkpt lat="46.03691" lon="5.38528">
        <ele>255</ele>
      </trkpt>
      <trkpt lat="46.03518" lon="5.38448">
        <ele>254.045</ele>
      </trkpt>
      <trkpt lat="46.03307" lon="5.38363">
        <ele>254</ele>
      </trkpt>
      <trkpt lat="46.03213" lon="5.38328">
        <ele>254</ele>
      </trkpt>
      <trkpt lat="46.03061" lon="5.38332">
        <ele>254</ele>
      </trkpt>
      <trkpt lat="46.02961" lon="5.38253">
        <ele>254</ele>
      </trkpt>
      <trkpt lat="46.02918" lon="5.38126">
        <ele>253</ele>
      </trkpt>
      <trkpt lat="46.02676" lon="5.3793">
        <ele>251.319</ele>
      </trkpt>
      <trkpt lat="46.02549" lon="5.37798">
        <ele>250.236</ele>
      </trkpt>
      <trkpt lat="46.02497" lon="5.37689">
        <ele>250</ele>
      </trkpt>
      <trkpt lat="46.02521" lon="5.37482">
        <ele>249.266</ele>
      </trkpt>
      <trkpt lat="46.02399" lon="5.3696">
        <ele>248</ele>
      </trkpt>
      <trkpt lat="46.02404" lon="5.36659">
        <ele>247</ele>
      </trkpt>
      <trkpt lat="46.02471" lon="5.36312">
        <ele>247</ele>
      </trkpt>
      <trkpt lat="46.02347" lon="5.36263">
        <ele>246.501</ele>
      </trkpt>
      <trkpt lat="46.02236" lon="5.35967">
        <ele>246</ele>
      </trkpt>
      <trkpt lat="46.02184" lon="5.35827">
        <ele>246.376</ele>
      </trkpt>
      <trkpt lat="46.02111" lon="5.35558">
        <ele>245.887</ele>
      </trkpt>
      <trkpt lat="46.02046" lon="5.35418">
        <ele>245</ele>
      </trkpt>
      <trkpt lat="46.01997" lon="5.35293">
        <ele>244</ele>
      </trkpt>
      <trkpt lat="46.01851" lon="5.3504">
        <ele>243.644</ele>
      </trkpt>
      <trkpt lat="46.01791" lon="5.34787">
        <ele>243</ele>
      </trkpt>
      <trkpt lat="46.01767" lon="5.34658">
        <ele>242.427</ele>
      </trkpt>
      <trkpt lat="46.01705" lon="5.34483">
        <ele>243</ele>
      </trkpt>
      <trkpt lat="46.01679" lon="5.34241">
        <ele>239.712</ele>
      </trkpt>
      <trkpt lat="46.01595" lon="5.34038">
        <ele>242</ele>
      </trkpt>
      <trkpt lat="46.01003" lon="5.34098">
        <ele>241.472</ele>
      </trkpt>
      <trkpt lat="46.01037" lon="5.33986">
        <ele>240.833</ele>
      </trkpt>
      <trkpt lat="46.01195" lon="5.33562">
        <ele>240</ele>
      </trkpt>
      <trkpt lat="46.01431" lon="5.33449">
        <ele>236.404</ele>
      </trkpt>
      <trkpt lat="46.0148" lon="5.33329">
        <ele>235.764</ele>
      </trkpt>
      <trkpt lat="46.01501" lon="5.33118">
        <ele>236</ele>
      </trkpt>
      <trkpt lat="46.0151" lon="5.32944">
        <ele>236.64</ele>
      </trkpt>
      <trkpt lat="46.01547" lon="5.32731">
        <ele>236.308</ele>
      </trkpt>
      <trkpt lat="46.01669" lon="5.32561">
        <ele>236</ele>
      </trkpt>
      <trkpt lat="46.01751" lon="5.32369">
        <ele>234</ele>
      </trkpt>
      <trkpt lat="46.0177" lon="5.32119">
        <ele>233.28</ele>
      </trkpt>
      <trkpt lat="46.01704" lon="5.32028">
        <ele>233</ele>
      </trkpt>
      <trkpt lat="46.01712" lon="5.31825">
        <ele>234.19</ele>
      </trkpt>
      <trkpt lat="46.01608" lon="5.31727">
        <ele>233</ele>
      </trkpt>
      <trkpt lat="46.01588" lon="5.31597">
        <ele>233</ele>
      </trkpt>
      <trkpt lat="46.0165" lon="5.31355">
        <ele>232.132</ele>
      </trkpt>
      <trkpt lat="46.01553" lon="5.31238">
        <ele>232.62</ele>
      </trkpt>
      <trkpt lat="46.01169" lon="5.31208">
        <ele>232.935</ele>
      </trkpt>
      <trkpt lat="46.00888" lon="5.31007">
        <ele>231.724</ele>
      </trkpt>
      <trkpt lat="46.008" lon="5.30895">
        <ele>231.332</ele>
      </trkpt>
      <trkpt lat="46.00622" lon="5.30588">
        <ele>231.506</ele>
      </trkpt>
      <trkpt lat="46.00361" lon="5.29875">
        <ele>230.502</ele>
      </trkpt>
      <trkpt lat="46.00273" lon="5.29673">
        <ele>232.763</ele>
      </trkpt>
      <trkpt lat="46.00336" lon="5.29478">
        <ele>226</ele>
      </trkpt>
      <trkpt lat="46.00422" lon="5.29363">
        <ele>236.824</ele>
      </trkpt>
      <trkpt lat="46.00431" lon="5.29096">
        <ele>237.032</ele>
      </trkpt>
      <trkpt lat="46.00345" lon="5.28976">
        <ele>234</ele>
      </trkpt>
      <trkpt lat="46.00363" lon="5.28822">
        <ele>236.408</ele>
      </trkpt>
      <trkpt lat="46.00453" lon="5.28682">
        <ele>242.372</ele>
      </trkpt>
      <trkpt lat="46.00452" lon="5.28527">
        <ele>248.756</ele>
      </trkpt>
      <trkpt lat="46.0045" lon="5.28145">
        <ele>247.8</ele>
      </trkpt>
      <trkpt lat="46.00357" lon="5.2814">
        <ele>252.473</ele>
      </trkpt>
      <trkpt lat="46.00255" lon="5.27898">
        <ele>258.089</ele>
      </trkpt>
      <trkpt lat="46.00171" lon="5.27848">
        <ele>258.056</ele>
      </trkpt>
      <trkpt lat="46.00017" lon="5.27819">
        <ele>256.077</ele>
      </trkpt>
      <trkpt lat="45.99848" lon="5.27713">
        <ele>243.53</ele>
      </trkpt>
      <trkpt lat="45.99751" lon="5.27716">
        <ele>237.492</ele>
      </trkpt>
      <trkpt lat="45.99678" lon="5.27787">
        <ele>231.668</ele>
      </trkpt>
      <trkpt lat="45.99522" lon="5.27878">
        <ele>227.082</ele>
      </trkpt>
      <trkpt lat="45.98974" lon="5.27174">
        <ele>238.83</ele>
      </trkpt>
      <trkpt lat="45.98906" lon="5.26979">
        <ele>246.699</ele>
      </trkpt>
      <trkpt lat="45.98921" lon="5.26925">
        <ele>249.806</ele>
      </trkpt>
      <trkpt lat="45.98978" lon="5.26908">
        <ele>255.481</ele>
      </trkpt>
      <trkpt lat="45.99055" lon="5.26913">
        <ele>262.336</ele>
      </trkpt>
      <trkpt lat="45.99131" lon="5.26979">
        <ele>267.237</ele>
      </trkpt>
      <trkpt lat="45.99177" lon="5.26992">
        <ele>272.747</ele>
      </trkpt>
      <trkpt lat="45.99312" lon="5.27123">
        <ele>280.216</ele>
      </trkpt>
      <trkpt lat="45.9937" lon="5.27146">
        <ele>283.534</ele>
      </trkpt>
      <trkpt lat="45.99434" lon="5.27136">
        <ele>287.599</ele>
      </trkpt>
      <trkpt lat="45.99507" lon="5.27144">
        <ele>291.012</ele>
      </trkpt>
      <trkpt lat="45.99388" lon="5.27056">
        <ele>296.92</ele>
      </trkpt>
      <trkpt lat="45.99331" lon="5.26893">
        <ele>302.633</ele>
      </trkpt>
      <trkpt lat="45.99276" lon="5.26773">
        <ele>304.947</ele>
      </trkpt>
      <trkpt lat="45.99005" lon="5.26452">
        <ele>308.403</ele>
      </trkpt>
      <trkpt lat="45.98872" lon="5.26226">
        <ele>311.363</ele>
      </trkpt>
      <trkpt lat="45.98867" lon="5.2618">
        <ele>310.378</ele>
      </trkpt>
      <trkpt lat="45.98912" lon="5.26055">
        <ele>310</ele>
      </trkpt>
      <trkpt lat="45.9868" lon="5.25849">
        <ele>309.734</ele>
      </trkpt>
      <trkpt lat="45.98666" lon="5.25467">
        <ele>312</ele>
      </trkpt>
      <trkpt lat="45.98582" lon="5.25381">
        <ele>311.014</ele>
      </trkpt>
      <trkpt lat="45.98733" lon="5.25084">
        <ele>309</ele>
      </trkpt>
      <trkpt lat="45.98708" lon="5.24913">
        <ele>308</ele>
      </trkpt>
      <trkpt lat="45.98665" lon="5.24796">
        <ele>308</ele>
      </trkpt>
      <trkpt lat="45.98648" lon="5.24593">
        <ele>309.766</ele>
      </trkpt>
      <trkpt lat="45.98624" lon="5.24421">
        <ele>312.928</ele>
      </trkpt>
      <trkpt lat="45.98529" lon="5.24238">
        <ele>316</ele>
      </trkpt>
      <trkpt lat="45.98508" lon="5.2408">
        <ele>319.747</ele>
      </trkpt>
      <trkpt lat="45.98321" lon="5.2378">
        <ele>319.964</ele>
      </trkpt>
      <trkpt lat="45.98162" lon="5.23547">
        <ele>323</ele>
      </trkpt>
      <trkpt lat="45.98022" lon="5.23512">
        <ele>323</ele>
      </trkpt>
      <trkpt lat="45.97879" lon="5.23493">
        <ele>323</ele>
      </trkpt>
      <trkpt lat="45.97655" lon="5.23307">
        <ele>319.58</ele>
      </trkpt>
      <trkpt lat="45.97579" lon="5.23143">
        <ele>318</ele>
      </trkpt>
      <trkpt lat="45.9773" lon="5.22846">
        <ele>319</ele>
      </trkpt>
      <trkpt lat="45.97856" lon="5.22733">
        <ele>319.499</ele>
      </trkpt>
      <trkpt lat="45.98037" lon="5.2272">
        <ele>320</ele>
      </trkpt>
      <trkpt lat="45.98204" lon="5.22758">
        <ele>319.344</ele>
      </trkpt>
      <trkpt lat="45.98287" lon="5.2268">
        <ele>318</ele>
      </trkpt>
      <trkpt lat="45.98365" lon="5.22653">
        <ele>318.437</ele>
      </trkpt>
      <trkpt lat="45.98505" lon="5.22383">
        <ele>320</ele>
      </trkpt>
      <trkpt lat="45.98656" lon="5.22289">
        <ele>321.249</ele>
      </trkpt>
      <trkpt lat="45.98688" lon="5.22292">
        <ele>321.512</ele>
      </trkpt>
      <trkpt lat="45.98982" lon="5.22245">
        <ele>317.648</ele>
      </trkpt>
      <trkpt lat="45.99127" lon="5.22123">
        <ele>318.245</ele>
      </trkpt>
      <trkpt lat="45.99258" lon="5.22066">
        <ele>320.376</ele>
      </trkpt>
      <trkpt lat="45.9969" lon="5.22454">
        <ele>318.711</ele>
      </trkpt>
      <trkpt lat="45.99848" lon="5.22044">
        <ele>312.944</ele>
      </trkpt>
      <trkpt lat="45.99931" lon="5.21778">
        <ele>313.004</ele>
      </trkpt>
      <trkpt lat="45.99944" lon="5.21236">
        <ele>311.992</ele>
      </trkpt>
      <trkpt lat="45.99975" lon="5.20889">
        <ele>316.8</ele>
      </trkpt>
      <trkpt lat="45.99983" lon="5.20608">
        <ele>312.164</ele>
      </trkpt>
      <trkpt lat="46.00042" lon="5.20436">
        <ele>306.852</ele>
      </trkpt>
      <trkpt lat="45.99968" lon="5.20226">
        <ele>304.712</ele>
      </trkpt>
      <trkpt lat="45.99911" lon="5.20012">
        <ele>305</ele>
      </trkpt>
      <trkpt lat="45.99908" lon="5.19875">
        <ele>308.344</ele>
      </trkpt>
      <trkpt lat="45.99864" lon="5.19653">
        <ele>311</ele>
      </trkpt>
      <trkpt lat="45.99815" lon="5.19259">
        <ele>305.554</ele>
      </trkpt>
      <trkpt lat="45.99822" lon="5.18834">
        <ele>294.869</ele>
      </trkpt>
      <trkpt lat="45.99818" lon="5.18822">
        <ele>294.471</ele>
      </trkpt>
      <trkpt lat="45.99613" lon="5.18772">
        <ele>300.448</ele>
      </trkpt>
      <trkpt lat="45.99411" lon="5.18741">
        <ele>306.418</ele>
      </trkpt>
      <trkpt lat="45.99203" lon="5.18734">
        <ele>307</ele>
      </trkpt>
      <trkpt lat="45.98993" lon="5.18673">
        <ele>304.724</ele>
      </trkpt>
      <trkpt lat="45.98753" lon="5.18447">
        <ele>297.314</ele>
      </trkpt>
      <trkpt lat="45.9854" lon="5.18491">
        <ele>295.819</ele>
      </trkpt>
      <trkpt lat="45.98329" lon="5.18418">
        <ele>281.163</ele>
      </trkpt>
      <trkpt lat="45.98051" lon="5.18522">
        <ele>283.914</ele>
      </trkpt>
      <trkpt lat="45.97992" lon="5.18514">
        <ele>280.914</ele>
      </trkpt>
      <trkpt lat="45.97946" lon="5.18343">
        <ele>280.019</ele>
      </trkpt>
      <trkpt lat="45.97727" lon="5.17914">
        <ele>275</ele>
      </trkpt>
      <trkpt lat="45.97372" lon="5.18263">
        <ele>267.392</ele>
      </trkpt>
      <trkpt lat="45.96977" lon="5.18352">
        <ele>265.784</ele>
      </trkpt>
      <trkpt lat="45.96959" lon="5.18351">
        <ele>266.384</ele>
      </trkpt>
      <trkpt lat="45.96847" lon="5.18242">
        <ele>264.362</ele>
      </trkpt>
      <trkpt lat="45.9671" lon="5.18184">
        <ele>261.184</ele>
      </trkpt>
      <trkpt lat="45.9666" lon="5.17945">
        <ele>262.98</ele>
      </trkpt>
      <trkpt lat="45.96612" lon="5.17825">
        <ele>267.277</ele>
      </trkpt>
      <trkpt lat="45.96564" lon="5.17703">
        <ele>276.384</ele>
      </trkpt>
      <trkpt lat="45.9647" lon="5.17666">
        <ele>283.072</ele>
      </trkpt>
      <trkpt lat="45.96415" lon="5.1763">
        <ele>288.719</ele>
      </trkpt>
      <trkpt lat="45.96391" lon="5.17563">
        <ele>293.712</ele>
      </trkpt>
      <trkpt lat="45.96387" lon="5.17229">
        <ele>299.688</ele>
      </trkpt>
      <trkpt lat="45.95531" lon="5.17203">
        <ele>287.692</ele>
      </trkpt>
      <trkpt lat="45.9389" lon="5.18023">
        <ele>296.205</ele>
      </trkpt>
      <trkpt lat="45.93854" lon="5.17894">
        <ele>299.47</ele>
      </trkpt>
      <trkpt lat="45.93779" lon="5.1774">
        <ele>299.656</ele>
      </trkpt>
      <trkpt lat="45.93758" lon="5.17645">
        <ele>296.508</ele>
      </trkpt>
      <trkpt lat="45.93729" lon="5.17298">
        <ele>287.484</ele>
      </trkpt>
      <trkpt lat="45.93669" lon="5.17182">
        <ele>284.962</ele>
      </trkpt>
      <trkpt lat="45.93651" lon="5.1698">
        <ele>285.408</ele>
      </trkpt>
      <trkpt lat="45.93785" lon="5.16874">
        <ele>275.826</ele>
      </trkpt>
      <trkpt lat="45.94017" lon="5.16807">
        <ele>281.612</ele>
      </trkpt>
      <trkpt lat="45.94235" lon="5.16755">
        <ele>279.72</ele>
      </trkpt>
      <trkpt lat="45.94375" lon="5.16782">
        <ele>281.576</ele>
      </trkpt>
      <trkpt lat="45.9451" lon="5.16797">
        <ele>286.831</ele>
      </trkpt>
      <trkpt lat="45.94464" lon="5.16711">
        <ele>283.704</ele>
      </trkpt>
      <trkpt lat="45.94364" lon="5.16458">
        <ele>276.133</ele>
      </trkpt>
      <trkpt lat="45.94361" lon="5.16131">
        <ele>263.419</ele>
      </trkpt>
      <trkpt lat="45.94202" lon="5.16112">
        <ele>266.632</ele>
      </trkpt>
      <trkpt lat="45.94164" lon="5.16022">
        <ele>273.492</ele>
      </trkpt>
      <trkpt lat="45.94203" lon="5.15718">
        <ele>289.92</ele>
      </trkpt>
      <trkpt lat="45.93961" lon="5.1552">
        <ele>285.876</ele>
      </trkpt>
      <trkpt lat="45.9396" lon="5.14989">
        <ele>292.222</ele>
      </trkpt>
      <trkpt lat="45.93806" lon="5.14889">
        <ele>294.996</ele>
      </trkpt>
      <trkpt lat="45.93749" lon="5.14686">
        <ele>296</ele>
      </trkpt>
      <trkpt lat="45.93619" lon="5.14542">
        <ele>297</ele>
      </trkpt>
      <trkpt lat="45.9349" lon="5.1448">
        <ele>301</ele>
      </trkpt>
      <trkpt lat="45.9319" lon="5.14064">
        <ele>294.84</ele>
      </trkpt>
      <trkpt lat="45.93178" lon="5.1404">
        <ele>294.739</ele>
      </trkpt>
      <trkpt lat="45.93094" lon="5.13976">
        <ele>295.532</ele>
      </trkpt>
      <trkpt lat="45.93015" lon="5.13948">
        <ele>298.861</ele>
      </trkpt>
      <trkpt lat="45.92908" lon="5.13926">
        <ele>300.481</ele>
      </trkpt>
      <trkpt lat="45.92847" lon="5.13836">
        <ele>297.443</ele>
      </trkpt>
      <trkpt lat="45.92681" lon="5.13729">
        <ele>294.272</ele>
      </trkpt>
      <trkpt lat="45.92527" lon="5.13798">
        <ele>293</ele>
      </trkpt>
      <trkpt lat="45.92397" lon="5.13909">
        <ele>291.357</ele>
      </trkpt>
      <trkpt lat="45.92236" lon="5.1401">
        <ele>288</ele>
      </trkpt>
      <trkpt lat="45.92161" lon="5.14044">
        <ele>288</ele>
      </trkpt>
      <trkpt lat="45.92078" lon="5.14134">
        <ele>287.192</ele>
      </trkpt>
      <trkpt lat="45.91994" lon="5.14252">
        <ele>287.144</ele>
      </trkpt>
      <trkpt lat="45.91887" lon="5.14396">
        <ele>287.624</ele>
      </trkpt>
      <trkpt lat="45.91796" lon="5.14499">
        <ele>288.76</ele>
      </trkpt>
      <trkpt lat="45.9172" lon="5.14585">
        <ele>290.96</ele>
      </trkpt>
      <trkpt lat="45.91676" lon="5.1466">
        <ele>290.072</ele>
      </trkpt>
      <trkpt lat="45.91626" lon="5.1477">
        <ele>291.28</ele>
      </trkpt>
      <trkpt lat="45.91428" lon="5.15034">
        <ele>291.867</ele>
      </trkpt>
      <trkpt lat="45.91225" lon="5.15014">
        <ele>294.95</ele>
      </trkpt>
      <trkpt lat="45.91024" lon="5.15345">
        <ele>291.637</ele>
      </trkpt>
      <trkpt lat="45.9093" lon="5.15506">
        <ele>291</ele>
      </trkpt>
      <trkpt lat="45.90916" lon="5.15497">
        <ele>291</ele>
      </trkpt>
      <trkpt lat="45.90778" lon="5.15463">
        <ele>291.995</ele>
      </trkpt>
      <trkpt lat="45.90604" lon="5.15426">
        <ele>294.75</ele>
      </trkpt>
      <trkpt lat="45.90362" lon="5.15416">
        <ele>298.968</ele>
      </trkpt>
      <trkpt lat="45.90153" lon="5.15484">
        <ele>305.209</ele>
      </trkpt>
      <trkpt lat="45.90056" lon="5.15555">
        <ele>303.016</ele>
      </trkpt>
      <trkpt lat="45.90065" lon="5.15414">
        <ele>303.627</ele>
      </trkpt>
      <trkpt lat="45.89997" lon="5.15265">
        <ele>303.892</ele>
      </trkpt>
      <trkpt lat="45.89937" lon="5.15148">
        <ele>299.464</ele>
      </trkpt>
      <trkpt lat="45.89884" lon="5.15027">
        <ele>293.819</ele>
      </trkpt>
      <trkpt lat="45.89853" lon="5.15">
        <ele>291.708</ele>
      </trkpt>
      <trkpt lat="45.89656" lon="5.14706">
        <ele>282</ele>
      </trkpt>
      <trkpt lat="45.89643" lon="5.14689">
        <ele>282</ele>
      </trkpt>
      <trkpt lat="45.89652" lon="5.14553">
        <ele>283.043</ele>
      </trkpt>
      <trkpt lat="45.89759" lon="5.14302">
        <ele>286.52</ele>
      </trkpt>
      <trkpt lat="45.89764" lon="5.14192">
        <ele>282.875</ele>
      </trkpt>
      <trkpt lat="45.89776" lon="5.14038">
        <ele>277.872</ele>
      </trkpt>
      <trkpt lat="45.89725" lon="5.13868">
        <ele>278.952</ele>
      </trkpt>
      <trkpt lat="45.89695" lon="5.13813">
        <ele>275.045</ele>
      </trkpt>
      <trkpt lat="45.89682" lon="5.13656">
        <ele>272.276</ele>
      </trkpt>
      <trkpt lat="45.89677" lon="5.1363">
        <ele>272.372</ele>
      </trkpt>
      <trkpt lat="45.89779" lon="5.13572">
        <ele>276.86</ele>
      </trkpt>
      <trkpt lat="45.89868" lon="5.13549">
        <ele>281.603</ele>
      </trkpt>
      <trkpt lat="45.899" lon="5.13518">
        <ele>280.989</ele>
      </trkpt>
      <trkpt lat="45.89844" lon="5.13302">
        <ele>278.616</ele>
      </trkpt>
      <trkpt lat="45.89821" lon="5.13089">
        <ele>277.001</ele>
      </trkpt>
      <trkpt lat="45.89809" lon="5.13058">
        <ele>276.84</ele>
      </trkpt>
      <trkpt lat="45.89756" lon="5.12934">
        <ele>276.489</ele>
      </trkpt>
      <trkpt lat="45.8993" lon="5.12765">
        <ele>271</ele>
      </trkpt>
      <trkpt lat="45.89991" lon="5.12729">
        <ele>273.352</ele>
      </trkpt>
      <trkpt lat="45.90012" lon="5.12681">
        <ele>274.296</ele>
      </trkpt>
      <trkpt lat="45.90023" lon="5.12541">
        <ele>271.304</ele>
      </trkpt>
      <trkpt lat="45.89904" lon="5.125">
        <ele>269.912</ele>
      </trkpt>
      <trkpt lat="45.89791" lon="5.12495">
        <ele>272.906</ele>
      </trkpt>
      <trkpt lat="45.89843" lon="5.1234">
        <ele>272.123</ele>
      </trkpt>
      <trkpt lat="45.89857" lon="5.12263">
        <ele>268.99</ele>
      </trkpt>
      <trkpt lat="45.89815" lon="5.12183">
        <ele>269.024</ele>
      </trkpt>
      <trkpt lat="45.89737" lon="5.12252">
        <ele>267.434</ele>
      </trkpt>
      <trkpt lat="45.89614" lon="5.12219">
        <ele>266.44</ele>
      </trkpt>
      <trkpt lat="45.89556" lon="5.12166">
        <ele>270.048</ele>
      </trkpt>
      <trkpt lat="45.89515" lon="5.12157">
        <ele>269.728</ele>
      </trkpt>
      <trkpt lat="45.895" lon="5.12028">
        <ele>266</ele>
      </trkpt>
      <trkpt lat="45.89444" lon="5.11904">
        <ele>267.801</ele>
      </trkpt>
      <trkpt lat="45.89344" lon="5.11866">
        <ele>265.732</ele>
      </trkpt>
      <trkpt lat="45.89254" lon="5.11916">
        <ele>263.024</ele>
      </trkpt>
      <trkpt lat="45.89231" lon="5.11914">
        <ele>263.162</ele>
      </trkpt>
      <trkpt lat="45.89145" lon="5.11846">
        <ele>262.56</ele>
      </trkpt>
      <trkpt lat="45.8913" lon="5.1165">
        <ele>260.128</ele>
      </trkpt>
      <trkpt lat="45.89043" lon="5.11539">
        <ele>261.346</ele>
      </trkpt>
      <trkpt lat="45.89128" lon="5.11399">
        <ele>259.425</ele>
      </trkpt>
      <trkpt lat="45.89101" lon="5.11241">
        <ele>259.272</ele>
      </trkpt>
      <trkpt lat="45.89094" lon="5.11103">
        <ele>259.356</ele>
      </trkpt>
      <trkpt lat="45.89122" lon="5.10935">
        <ele>260.734</ele>
      </trkpt>
      <trkpt lat="45.89092" lon="5.1089">
        <ele>256.835</ele>
      </trkpt>
      <trkpt lat="45.89054" lon="5.10819">
        <ele>257.463</ele>
      </trkpt>
      <trkpt lat="45.88976" lon="5.10699">
        <ele>254.635</ele>
      </trkpt>
      <trkpt lat="45.88977" lon="5.10661">
        <ele>255.068</ele>
      </trkpt>
      <trkpt lat="45.89004" lon="5.10545">
        <ele>257.205</ele>
      </trkpt>
      <trkpt lat="45.89004" lon="5.10397">
        <ele>256.801</ele>
      </trkpt>
      <trkpt lat="45.88977" lon="5.10221">
        <ele>255.421</ele>
      </trkpt>
      <trkpt lat="45.88969" lon="5.10092">
        <ele>255.144</ele>
      </trkpt>
      <trkpt lat="45.88931" lon="5.09927">
        <ele>256.857</ele>
      </trkpt>
      <trkpt lat="45.88876" lon="5.09824">
        <ele>256.252</ele>
      </trkpt>
      <trkpt lat="45.88895" lon="5.09796">
        <ele>259.321</ele>
      </trkpt>
      <trkpt lat="45.8891" lon="5.0977">
        <ele>262.481</ele>
      </trkpt>
      <trkpt lat="45.88922" lon="5.09706">
        <ele>268.592</ele>
      </trkpt>
      <trkpt lat="45.88927" lon="5.09654">
        <ele>274.284</ele>
      </trkpt>
      <trkpt lat="45.88936" lon="5.09585">
        <ele>275.894</ele>
      </trkpt>
      <trkpt lat="45.89001" lon="5.09596">
        <ele>280.584</ele>
      </trkpt>
      <trkpt lat="45.89016" lon="5.09528">
        <ele>283.723</ele>
      </trkpt>
      <trkpt lat="45.8906" lon="5.09463">
        <ele>287.652</ele>
      </trkpt>
      <trkpt lat="45.89139" lon="5.0954">
        <ele>291.562</ele>
      </trkpt>
      <trkpt lat="45.89199" lon="5.09654">
        <ele>290.075</ele>
      </trkpt>
      <trkpt lat="45.89263" lon="5.09785">
        <ele>287.74</ele>
      </trkpt>
      <trkpt lat="45.89448" lon="5.09699">
        <ele>279.872</ele>
      </trkpt>
      <trkpt lat="45.89586" lon="5.09671">
        <ele>281.015</ele>
      </trkpt>
      <trkpt lat="45.89752" lon="5.09674">
        <ele>282.981</ele>
      </trkpt>
      <trkpt lat="45.89803" lon="5.09633">
        <ele>283.212</ele>
      </trkpt>
      <trkpt lat="45.89821" lon="5.0901">
        <ele>287.272</ele>
      </trkpt>
      <trkpt lat="45.89794" lon="5.085">
        <ele>286.416</ele>
      </trkpt>
      <trkpt lat="45.89671" lon="5.08506">
        <ele>290</ele>
      </trkpt>
      <trkpt lat="45.8974" lon="5.0809">
        <ele>286.726</ele>
      </trkpt>
      <trkpt lat="45.89857" lon="5.07968">
        <ele>285.852</ele>
      </trkpt>
      <trkpt lat="45.8974" lon="5.0771">
        <ele>285</ele>
      </trkpt>
      <trkpt lat="45.89655" lon="5.07624">
        <ele>287.956</ele>
      </trkpt>
      <trkpt lat="45.89521" lon="5.07695">
        <ele>288</ele>
      </trkpt>
      <trkpt lat="45.89322" lon="5.07656">
        <ele>290</ele>
      </trkpt>
      <trkpt lat="45.89098" lon="5.07513">
        <ele>282.277</ele>
      </trkpt>
      <trkpt lat="45.88899" lon="5.07416">
        <ele>279</ele>
      </trkpt>
      <trkpt lat="45.88778" lon="5.07569">
        <ele>278.52</ele>
      </trkpt>
      <trkpt lat="45.88737" lon="5.07542">
        <ele>278.26</ele>
      </trkpt>
      <trkpt lat="45.88559" lon="5.07531">
        <ele>278</ele>
      </trkpt>
      <trkpt lat="45.8807" lon="5.07521">
        <ele>283.127</ele>
      </trkpt>
      <trkpt lat="45.87863" lon="5.07464">
        <ele>278.724</ele>
      </trkpt>
      <trkpt lat="45.87709" lon="5.07472">
        <ele>278</ele>
      </trkpt>
      <trkpt lat="45.8752" lon="5.07442">
        <ele>280.28</ele>
      </trkpt>
      <trkpt lat="45.87272" lon="5.07411">
        <ele>279.592</ele>
      </trkpt>
      <trkpt lat="45.87081" lon="5.07445">
        <ele>282.168</ele>
      </trkpt>
      <trkpt lat="45.86987" lon="5.07414">
        <ele>281.481</ele>
      </trkpt>
      <trkpt lat="45.86898" lon="5.07356">
        <ele>279</ele>
      </trkpt>
      <trkpt lat="45.86752" lon="5.07224">
        <ele>278.928</ele>
      </trkpt>
      <trkpt lat="45.86655" lon="5.07099">
        <ele>279.237</ele>
      </trkpt>
      <trkpt lat="45.86517" lon="5.06901">
        <ele>274.176</ele>
      </trkpt>
      <trkpt lat="45.86277" lon="5.068">
        <ele>277.222</ele>
      </trkpt>
      <trkpt lat="45.86159" lon="5.06797">
        <ele>273.786</ele>
      </trkpt>
      <trkpt lat="45.86105" lon="5.06782">
        <ele>270.018</ele>
      </trkpt>
      <trkpt lat="45.86041" lon="5.06826">
        <ele>262.116</ele>
      </trkpt>
      <trkpt lat="45.86026" lon="5.06891">
        <ele>260.883</ele>
      </trkpt>
      <trkpt lat="45.86024" lon="5.06939">
        <ele>255.366</ele>
      </trkpt>
      <trkpt lat="45.85997" lon="5.07028">
        <ele>251.658</ele>
      </trkpt>
      <trkpt lat="45.86015" lon="5.0708">
        <ele>246.105</ele>
      </trkpt>
      <trkpt lat="45.85987" lon="5.07036">
        <ele>245.886</ele>
      </trkpt>
      <trkpt lat="45.85971" lon="5.06997">
        <ele>241.746</ele>
      </trkpt>
      <trkpt lat="45.85949" lon="5.06976">
        <ele>238.428</ele>
      </trkpt>
      <trkpt lat="45.85919" lon="5.06977">
        <ele>239.459</ele>
      </trkpt>
      <trkpt lat="45.85832" lon="5.06856">
        <ele>227.031</ele>
      </trkpt>
      <trkpt lat="45.85784" lon="5.06794">
        <ele>223.088</ele>
      </trkpt>
      <trkpt lat="45.85711" lon="5.06508">
        <ele>219.788</ele>
      </trkpt>
      <trkpt lat="45.85663" lon="5.06324">
        <ele>216</ele>
      </trkpt>
      <trkpt lat="45.85602" lon="5.06187">
        <ele>213.912</ele>
      </trkpt>
      <trkpt lat="45.85445" lon="5.05985">
        <ele>206.04</ele>
      </trkpt>
      <trkpt lat="45.85512" lon="5.05925">
        <ele>210.034</ele>
      </trkpt>
      <trkpt lat="45.85665" lon="5.0577">
        <ele>215.497</ele>
      </trkpt>
      <trkpt lat="45.85747" lon="5.05704">
        <ele>217.401</ele>
      </trkpt>
      <trkpt lat="45.85784" lon="5.05702">
        <ele>217.707</ele>
      </trkpt>
      <trkpt lat="45.86342" lon="5.05392">
        <ele>216.683</ele>
      </trkpt>
      <trkpt lat="45.8651" lon="5.0532">
        <ele>217.68</ele>
      </trkpt>
      <trkpt lat="45.86656" lon="5.05237">
        <ele>216</ele>
      </trkpt>
      <trkpt lat="45.86833" lon="5.05166">
        <ele>219.988</ele>
      </trkpt>
      <trkpt lat="45.86927" lon="5.04819">
        <ele>227.448</ele>
      </trkpt>
      <trkpt lat="45.86924" lon="5.0462">
        <ele>230.916</ele>
      </trkpt>
      <trkpt lat="45.86859" lon="5.04655">
        <ele>228.924</ele>
      </trkpt>
      <trkpt lat="45.86477" lon="5.04719">
        <ele>221.212</ele>
      </trkpt>
      <trkpt lat="45.86582" lon="5.04613">
        <ele>235.814</ele>
      </trkpt>
      <trkpt lat="45.86307" lon="5.04568">
        <ele>276.76</ele>
      </trkpt>
      <trkpt lat="45.86293" lon="5.04525">
        <ele>280.945</ele>
      </trkpt>
      <trkpt lat="45.8616" lon="5.03909">
        <ele>291.45</ele>
      </trkpt>
      <trkpt lat="45.86146" lon="5.0364">
        <ele>295.744</ele>
      </trkpt>
      <trkpt lat="45.86154" lon="5.03433">
        <ele>298.412</ele>
      </trkpt>
      <trkpt lat="45.86215" lon="5.03101">
        <ele>298.26</ele>
      </trkpt>
      <trkpt lat="45.86287" lon="5.02824">
        <ele>293.668</ele>
      </trkpt>
      <trkpt lat="45.86352" lon="5.02574">
        <ele>286.108</ele>
      </trkpt>
      <trkpt lat="45.864" lon="5.02391">
        <ele>290.324</ele>
      </trkpt>
      <trkpt lat="45.86388" lon="5.0211">
        <ele>299.04</ele>
      </trkpt>
      <trkpt lat="45.86447" lon="5.01926">
        <ele>301.511</ele>
      </trkpt>
      <trkpt lat="45.86521" lon="5.01624">
        <ele>303.763</ele>
      </trkpt>
      <trkpt lat="45.86527" lon="5.01629">
        <ele>303.392</ele>
      </trkpt>
      <trkpt lat="45.86731" lon="5.01761">
        <ele>299.729</ele>
      </trkpt>
      <trkpt lat="45.86763" lon="5.0179">
        <ele>299.56</ele>
      </trkpt>
      <trkpt lat="45.86924" lon="5.0147">
        <ele>303.736</ele>
      </trkpt>
      <trkpt lat="45.87025" lon="5.01445">
        <ele>301.098</ele>
      </trkpt>
      <trkpt lat="45.8707" lon="5.00569">
        <ele>306.712</ele>
      </trkpt>
      <trkpt lat="45.87047" lon="5.00327">
        <ele>308.308</ele>
      </trkpt>
      <trkpt lat="45.87121" lon="5.00183">
        <ele>306.209</ele>
      </trkpt>
      <trkpt lat="45.87186" lon="5.00093">
        <ele>304.546</ele>
      </trkpt>
      <trkpt lat="45.87287" lon="4.9991">
        <ele>302.668</ele>
      </trkpt>
      <trkpt lat="45.87389" lon="4.99683">
        <ele>301</ele>
      </trkpt>
      <trkpt lat="45.8761" lon="4.99449">
        <ele>300.842</ele>
      </trkpt>
      <trkpt lat="45.87595" lon="4.99294">
        <ele>299.584</ele>
      </trkpt>
      <trkpt lat="45.87664" lon="4.99091">
        <ele>298.276</ele>
      </trkpt>
      <trkpt lat="45.87722" lon="4.98977">
        <ele>297.001</ele>
      </trkpt>
      <trkpt lat="45.87741" lon="4.98932">
        <ele>296.855</ele>
      </trkpt>
      <trkpt lat="45.87763" lon="4.98801">
        <ele>297</ele>
      </trkpt>
      <trkpt lat="45.87782" lon="4.98635">
        <ele>294.131</ele>
      </trkpt>
      <trkpt lat="45.87793" lon="4.98609">
        <ele>293.966</ele>
      </trkpt>
      <trkpt lat="45.87816" lon="4.98484">
        <ele>291.424</ele>
      </trkpt>
      <trkpt lat="45.87774" lon="4.9819">
        <ele>288.022</ele>
      </trkpt>
      <trkpt lat="45.87774" lon="4.98163">
        <ele>288.268</ele>
      </trkpt>
      <trkpt lat="45.87701" lon="4.97944">
        <ele>287.764</ele>
      </trkpt>
      <trkpt lat="45.87698" lon="4.97801">
        <ele>289.036</ele>
      </trkpt>
      <trkpt lat="45.87723" lon="4.97648">
        <ele>290.963</ele>
      </trkpt>
      <trkpt lat="45.87724" lon="4.97578">
        <ele>290.936</ele>
      </trkpt>
      <trkpt lat="45.87713" lon="4.9735">
        <ele>293.332</ele>
      </trkpt>
      <trkpt lat="45.87718" lon="4.97181">
        <ele>296.074</ele>
      </trkpt>
      <trkpt lat="45.87736" lon="4.97108">
        <ele>299.168</ele>
      </trkpt>
      <trkpt lat="45.8777" lon="4.96928">
        <ele>306.426</ele>
      </trkpt>
      <trkpt lat="45.87767" lon="4.96865">
        <ele>306.225</ele>
      </trkpt>
      <trkpt lat="45.87667" lon="4.96805">
        <ele>303.012</ele>
      </trkpt>
      <trkpt lat="45.87592" lon="4.96548">
        <ele>300.085</ele>
      </trkpt>
      <trkpt lat="45.87457" lon="4.96466">
        <ele>298.452</ele>
      </trkpt>
      <trkpt lat="45.87292" lon="4.96368">
        <ele>298.615</ele>
      </trkpt>
      <trkpt lat="45.87179" lon="4.96282">
        <ele>300</ele>
      </trkpt>
      <trkpt lat="45.86999" lon="4.96243">
        <ele>301.955</ele>
      </trkpt>
      <trkpt lat="45.86978" lon="4.96267">
        <ele>301.335</ele>
      </trkpt>
      <trkpt lat="45.86857" lon="4.96344">
        <ele>296.384</ele>
      </trkpt>
      <trkpt lat="45.86826" lon="4.96243">
        <ele>293.22</ele>
      </trkpt>
      <trkpt lat="45.86587" lon="4.96095">
        <ele>275.187</ele>
      </trkpt>
      <trkpt lat="45.86822" lon="4.95003">
        <ele>272.064</ele>
      </trkpt>
      <trkpt lat="45.86683" lon="4.94906">
        <ele>270.616</ele>
      </trkpt>
      <trkpt lat="45.86511" lon="4.94707">
        <ele>270</ele>
      </trkpt>
      <trkpt lat="45.86177" lon="4.94514">
        <ele>271.628</ele>
      </trkpt>
      <trkpt lat="45.86078" lon="4.94685">
        <ele>272</ele>
      </trkpt>
      <trkpt lat="45.8589" lon="4.94625">
        <ele>283.48</ele>
      </trkpt>
      <trkpt lat="45.85773" lon="4.94651">
        <ele>279.767</ele>
      </trkpt>
      <trkpt lat="45.85606" lon="4.94587">
        <ele>273.684</ele>
      </trkpt>
      <trkpt lat="45.85525" lon="4.94535">
        <ele>273.766</ele>
      </trkpt>
      <trkpt lat="45.85385" lon="4.94514">
        <ele>274</ele>
      </trkpt>
      <trkpt lat="45.85408" lon="4.94384">
        <ele>273.688</ele>
      </trkpt>
      <trkpt lat="45.85505" lon="4.94166">
        <ele>280.868</ele>
      </trkpt>
      <trkpt lat="45.8565" lon="4.93984">
        <ele>281.824</ele>
      </trkpt>
      <trkpt lat="45.85699" lon="4.93735">
        <ele>282.984</ele>
      </trkpt>
      <trkpt lat="45.85517" lon="4.93614">
        <ele>281.364</ele>
      </trkpt>
      <trkpt lat="45.85442" lon="4.93623">
        <ele>276.484</ele>
      </trkpt>
      <trkpt lat="45.85417" lon="4.93518">
        <ele>279.743</ele>
      </trkpt>
      <trkpt lat="45.85333" lon="4.93448">
        <ele>277.723</ele>
      </trkpt>
      <trkpt lat="45.85216" lon="4.93263">
        <ele>276.552</ele>
      </trkpt>
      <trkpt lat="45.8521" lon="4.93123">
        <ele>277.88</ele>
      </trkpt>
      <trkpt lat="45.85106" lon="4.93241">
        <ele>275.94</ele>
      </trkpt>
      <trkpt lat="45.85094" lon="4.93087">
        <ele>275.384</ele>
      </trkpt>
      <trkpt lat="45.85085" lon="4.92909">
        <ele>274.32</ele>
      </trkpt>
      <trkpt lat="45.85104" lon="4.92775">
        <ele>274.744</ele>
      </trkpt>
      <trkpt lat="45.8511" lon="4.92443">
        <ele>275</ele>
      </trkpt>
      <trkpt lat="45.85069" lon="4.92242">
        <ele>275.139</ele>
      </trkpt>
      <trkpt lat="45.84922" lon="4.92224">
        <ele>275.756</ele>
      </trkpt>
      <trkpt lat="45.8469" lon="4.9216">
        <ele>276.32</ele>
      </trkpt>
      <trkpt lat="45.84648" lon="4.91696">
        <ele>276.634</ele>
      </trkpt>
      <trkpt lat="45.8462" lon="4.9146">
        <ele>278.261</ele>
      </trkpt>
      <trkpt lat="45.84492" lon="4.91372">
        <ele>282.297</ele>
      </trkpt>
      <trkpt lat="45.84257" lon="4.91523">
        <ele>291.282</ele>
      </trkpt>
      <trkpt lat="45.84249" lon="4.91516">
        <ele>291.093</ele>
      </trkpt>
      <trkpt lat="45.8422" lon="4.91437">
        <ele>292.385</ele>
      </trkpt>
      <trkpt lat="45.841" lon="4.91474">
        <ele>295.155</ele>
      </trkpt>
      <trkpt lat="45.83967" lon="4.91486">
        <ele>297.636</ele>
      </trkpt>
      <trkpt lat="45.83863" lon="4.91486">
        <ele>295.096</ele>
      </trkpt>
      <trkpt lat="45.83773" lon="4.91469">
        <ele>297.376</ele>
      </trkpt>
      <trkpt lat="45.83667" lon="4.91416">
        <ele>303.044</ele>
      </trkpt>
      <trkpt lat="45.83605" lon="4.91373">
        <ele>308.122</ele>
      </trkpt>
      <trkpt lat="45.83525" lon="4.91301">
        <ele>310.135</ele>
      </trkpt>
      <trkpt lat="45.83462" lon="4.91241">
        <ele>311</ele>
      </trkpt>
      <trkpt lat="45.83355" lon="4.91149">
        <ele>311.848</ele>
      </trkpt>
      <trkpt lat="45.83277" lon="4.91078">
        <ele>308.813</ele>
      </trkpt>
      <trkpt lat="45.83181" lon="4.90992">
        <ele>306.227</ele>
      </trkpt>
      <trkpt lat="45.83052" lon="4.90879">
        <ele>300.629</ele>
      </trkpt>
      <trkpt lat="45.82996" lon="4.9078">
        <ele>298.225</ele>
      </trkpt>
      <trkpt lat="45.8288" lon="4.90726">
        <ele>298.311</ele>
      </trkpt>
      <trkpt lat="45.82621" lon="4.90499">
        <ele>309</ele>
      </trkpt>
      <trkpt lat="45.82417" lon="4.90319">
        <ele>300.473</ele>
      </trkpt>
      <trkpt lat="45.82286" lon="4.90196">
        <ele>295.337</ele>
      </trkpt>
      <trkpt lat="45.82219" lon="4.901">
        <ele>294</ele>
      </trkpt>
      <trkpt lat="45.82174" lon="4.89986">
        <ele>293.494</ele>
      </trkpt>
      <trkpt lat="45.82127" lon="4.89872">
        <ele>294</ele>
      </trkpt>
      <trkpt lat="45.82084" lon="4.89744">
        <ele>293.023</ele>
      </trkpt>
      <trkpt lat="45.82043" lon="4.89585">
        <ele>289.507</ele>
      </trkpt>
      <trkpt lat="45.81951" lon="4.89441">
        <ele>283.084</ele>
      </trkpt>
      <trkpt lat="45.81883" lon="4.89353">
        <ele>279.48</ele>
      </trkpt>
      <trkpt lat="45.81816" lon="4.89261">
        <ele>275.154</ele>
      </trkpt>
      <trkpt lat="45.81749" lon="4.89141">
        <ele>275</ele>
      </trkpt>
      <trkpt lat="45.81687" lon="4.89057">
        <ele>276</ele>
      </trkpt>
      <trkpt lat="45.81593" lon="4.89023">
        <ele>276</ele>
      </trkpt>
      <trkpt lat="45.81466" lon="4.88896">
        <ele>276</ele>
      </trkpt>
      <trkpt lat="45.81389" lon="4.88821">
        <ele>275.998</ele>
      </trkpt>
      <trkpt lat="45.81292" lon="4.88716">
        <ele>277.638</ele>
      </trkpt>
      <trkpt lat="45.81172" lon="4.88598">
        <ele>277.097</ele>
      </trkpt>
      <trkpt lat="45.81069" lon="4.88503">
        <ele>274.986</ele>
      </trkpt>
      <trkpt lat="45.80983" lon="4.88443">
        <ele>270.462</ele>
      </trkpt>
      <trkpt lat="45.80953" lon="4.88287">
        <ele>263.568</ele>
      </trkpt>
      <trkpt lat="45.80898" lon="4.88145">
        <ele>257.28</ele>
      </trkpt>
      <trkpt lat="45.80799" lon="4.88108">
        <ele>250.753</ele>
      </trkpt>
      <trkpt lat="45.80702" lon="4.88169">
        <ele>244.419</ele>
      </trkpt>
      <trkpt lat="45.80608" lon="4.88252">
        <ele>238.689</ele>
      </trkpt>
      <trkpt lat="45.80516" lon="4.88259">
        <ele>235.41</ele>
      </trkpt>
      <trkpt lat="45.80406" lon="4.88192">
        <ele>234.571</ele>
      </trkpt>
      <trkpt lat="45.80308" lon="4.88076">
        <ele>231.186</ele>
      </trkpt>
      <trkpt lat="45.80226" lon="4.8798">
        <ele>230.001</ele>
      </trkpt>
      <trkpt lat="45.80136" lon="4.87877">
        <ele>229.897</ele>
      </trkpt>
      <trkpt lat="45.80071" lon="4.87787">
        <ele>228.801</ele>
      </trkpt>
      <trkpt lat="45.80003" lon="4.87699">
        <ele>224.271</ele>
      </trkpt>
      <trkpt lat="45.799" lon="4.87643">
        <ele>220.476</ele>
      </trkpt>
      <trkpt lat="45.79808" lon="4.87606">
        <ele>219.36</ele>
      </trkpt>
      <trkpt lat="45.79713" lon="4.87568">
        <ele>216.8</ele>
      </trkpt>
      <trkpt lat="45.79619" lon="4.87572">
        <ele>213.184</ele>
      </trkpt>
      <trkpt lat="45.79529" lon="4.87465">
        <ele>209.114</ele>
      </trkpt>
      <trkpt lat="45.7946" lon="4.87302">
        <ele>200.054</ele>
      </trkpt>
      <trkpt lat="45.79428" lon="4.87179">
        <ele>192.939</ele>
      </trkpt>
      <trkpt lat="45.79333" lon="4.87089">
        <ele>194.208</ele>
      </trkpt>
      <trkpt lat="45.79258" lon="4.8693">
        <ele>191.029</ele>
      </trkpt>
      <trkpt lat="45.79224" lon="4.868">
        <ele>184.15</ele>
      </trkpt>
      <trkpt lat="45.7919" lon="4.86664">
        <ele>185.59</ele>
      </trkpt>
      <trkpt lat="45.7917" lon="4.86516">
        <ele>181.598</ele>
      </trkpt>
      <trkpt lat="45.79145" lon="4.86289">
        <ele>179.876</ele>
      </trkpt>
      <trkpt lat="45.7913" lon="4.86154">
        <ele>180.221</ele>
      </trkpt>
      <trkpt lat="45.79108" lon="4.8601">
        <ele>179.282</ele>
      </trkpt>
      <trkpt lat="45.79067" lon="4.85892">
        <ele>180.013</ele>
      </trkpt>
      <trkpt lat="45.79024" lon="4.85774">
        <ele>179.644</ele>
      </trkpt>
      <trkpt lat="45.78984" lon="4.85658">
        <ele>179.819</ele>
      </trkpt>
      <trkpt lat="45.78936" lon="4.85531">
        <ele>177.58</ele>
      </trkpt>
      <trkpt lat="45.78868" lon="4.85345">
        <ele>176.805</ele>
      </trkpt>
      <trkpt lat="45.78778" lon="4.85177">
        <ele>178.678</ele>
      </trkpt>
      <trkpt lat="45.78694" lon="4.85036">
        <ele>175.364</ele>
      </trkpt>
      <trkpt lat="45.786" lon="4.84862">
        <ele>173.554</ele>
      </trkpt>
      <trkpt lat="45.78524" lon="4.8472">
        <ele>171.825</ele>
      </trkpt>
      <trkpt lat="45.78441" lon="4.84596">
        <ele>171.309</ele>
      </trkpt>
      <trkpt lat="45.78359" lon="4.84491">
        <ele>171.845</ele>
      </trkpt>
      <trkpt lat="45.78263" lon="4.84381">
        <ele>172.087</ele>
      </trkpt>
      <trkpt lat="45.78151" lon="4.84274">
        <ele>176.265</ele>
      </trkpt>
      <trkpt lat="45.78042" lon="4.84195">
        <ele>172.479</ele>
      </trkpt>
      <trkpt lat="45.77947" lon="4.8413">
        <ele>171.412</ele>
      </trkpt>
      <trkpt lat="45.77703" lon="4.84004">
        <ele>174.409</ele>
      </trkpt>
      <trkpt lat="45.77514" lon="4.83907">
        <ele>172.185</ele>
      </trkpt>
      <trkpt lat="45.77421" lon="4.83858">
        <ele>171.147</ele>
      </trkpt>
      <trkpt lat="45.77329" lon="4.83828">
        <ele>169.968</ele>
      </trkpt>
      <trkpt lat="45.77211" lon="4.83815">
        <ele>168.868</ele>
      </trkpt>
      <trkpt lat="45.77082" lon="4.83804">
        <ele>168.914</ele>
      </trkpt>
      <trkpt lat="45.76988" lon="4.83791">
        <ele>168.705</ele>
      </trkpt>
      <trkpt lat="45.76879" lon="4.83785">
        <ele>171.372</ele>
      </trkpt>
      <trkpt lat="45.76776" lon="4.83791">
        <ele>169.361</ele>
      </trkpt>
      <trkpt lat="45.76675" lon="4.83802">
        <ele>168</ele>
      </trkpt>
      <trkpt lat="45.76567" lon="4.8381">
        <ele>168.1</ele>
      </trkpt>
      <trkpt lat="45.76404" lon="4.83819">
        <ele>168</ele>
      </trkpt>
      <trkpt lat="45.76306" lon="4.83817">
        <ele>168.003</ele>
      </trkpt>
      <trkpt lat="45.76211" lon="4.8381">
        <ele>167.175</ele>
      </trkpt>
      <trkpt lat="45.76102" lon="4.83789">
        <ele>167.603</ele>
      </trkpt>
      <trkpt lat="45.75999" lon="4.83765">
        <ele>168.529</ele>
      </trkpt>
      <trkpt lat="45.75831" lon="4.83716">
        <ele>167.015</ele>
      </trkpt>
      <trkpt lat="45.75705" lon="4.83658">
        <ele>168.075</ele>
      </trkpt>
      <trkpt lat="45.75613" lon="4.83598">
        <ele>165.022</ele>
      </trkpt>
      <trkpt lat="45.75488" lon="4.83504">
        <ele>167</ele>
      </trkpt>
      <trkpt lat="45.75396" lon="4.83422">
        <ele>167</ele>
      </trkpt>
      <trkpt lat="45.75304" lon="4.8336">
        <ele>166.957</ele>
      </trkpt>
      <trkpt lat="45.7522" lon="4.833">
        <ele>167</ele>
      </trkpt>
      <trkpt lat="45.75085" lon="4.8321">
        <ele>167</ele>
      </trkpt>
      <trkpt lat="45.74975" lon="4.83132">
        <ele>167</ele>
      </trkpt>
      <trkpt lat="45.74834" lon="4.83019">
        <ele>165.327</ele>
      </trkpt>
      <trkpt lat="45.74735" lon="4.82937">
        <ele>165.345</ele>
      </trkpt>
      <trkpt lat="45.74568" lon="4.82791">
        <ele>165.791</ele>
      </trkpt>
      <trkpt lat="45.74475" lon="4.82729">
        <ele>165.973</ele>
      </trkpt>
      <trkpt lat="45.74014" lon="4.82338">
        <ele>165.493</ele>
      </trkpt>
      <trkpt lat="45.73681" lon="4.82055">
        <ele>165.472</ele>
      </trkpt>
      <trkpt lat="45.73583" lon="4.81969">
        <ele>165.899</ele>
      </trkpt>
      <trkpt lat="45.73325" lon="4.81748">
        <ele>170.125</ele>
      </trkpt>
      <trkpt lat="45.73222" lon="4.8166">
        <ele>169.998</ele>
      </trkpt>
      <trkpt lat="45.73143" lon="4.81594">
        <ele>162</ele>
      </trkpt>
      <trkpt lat="45.73059" lon="4.81521">
        <ele>166.389</ele>
      </trkpt>
      <trkpt lat="45.72969" lon="4.81545">
        <ele>171.407</ele>
      </trkpt>
      <trkpt lat="45.72877" lon="4.81557">
        <ele>175.243</ele>
      </trkpt>
      <trkpt lat="45.72724" lon="4.81487">
        <ele>179.595</ele>
      </trkpt>
      <trkpt lat="45.72611" lon="4.81427">
        <ele>182.275</ele>
      </trkpt>
      <trkpt lat="45.72525" lon="4.81384">
        <ele>186.789</ele>
      </trkpt>
      <trkpt lat="45.72403" lon="4.81268">
        <ele>189.934</ele>
      </trkpt>
      <trkpt lat="45.72295" lon="4.8119">
        <ele>191.771</ele>
      </trkpt>
      <trkpt lat="45.72162" lon="4.81139">
        <ele>188.833</ele>
      </trkpt>
      <trkpt lat="45.72031" lon="4.81081">
        <ele>186.014</ele>
      </trkpt>
      <trkpt lat="45.71888" lon="4.81023">
        <ele>177.23</ele>
      </trkpt>
      <trkpt lat="45.71797" lon="4.80989">
        <ele>169.002</ele>
      </trkpt>
      <trkpt lat="45.71797" lon="4.80858">
        <ele>165.603</ele>
      </trkpt>
      <trkpt lat="45.71894" lon="4.80721">
        <ele>166.159</ele>
      </trkpt>
      <trkpt lat="45.71945" lon="4.80605">
        <ele>166.205</ele>
      </trkpt>
      <trkpt lat="45.71956" lon="4.80424">
        <ele>167</ele>
      </trkpt>
      <trkpt lat="45.71967" lon="4.80193">
        <ele>168</ele>
      </trkpt>
      <trkpt lat="45.71976" lon="4.8004">
        <ele>168.883</ele>
      </trkpt>
      <trkpt lat="45.71984" lon="4.79875">
        <ele>170.071</ele>
      </trkpt>
      <trkpt lat="45.72057" lon="4.79755">
        <ele>170.78</ele>
      </trkpt>
      <trkpt lat="45.72121" lon="4.79663">
        <ele>169.279</ele>
      </trkpt>
      <trkpt lat="45.72139" lon="4.79519">
        <ele>171</ele>
      </trkpt>
      <trkpt lat="45.72149" lon="4.79369">
        <ele>171.626</ele>
      </trkpt>
      <trkpt lat="45.72162" lon="4.7921">
        <ele>171.675</ele>
      </trkpt>
      <trkpt lat="45.72177" lon="4.78987">
        <ele>172.919</ele>
      </trkpt>
      <trkpt lat="45.7219" lon="4.78798">
        <ele>173.073</ele>
      </trkpt>
      <trkpt lat="45.72224" lon="4.78658">
        <ele>173.922</ele>
      </trkpt>
      <trkpt lat="45.72254" lon="4.78513">
        <ele>175.708</ele>
      </trkpt>
      <trkpt lat="45.72306" lon="4.78407">
        <ele>176.03</ele>
      </trkpt>
      <trkpt lat="45.72413" lon="4.78304">
        <ele>178.744</ele>
      </trkpt>
      <trkpt lat="45.7245" lon="4.78184">
        <ele>177.245</ele>
      </trkpt>
      <trkpt lat="45.72435" lon="4.77998">
        <ele>178.089</ele>
      </trkpt>
      <trkpt lat="45.72467" lon="4.77888">
        <ele>183.09</ele>
      </trkpt>
      <trkpt lat="45.72525" lon="4.77789">
        <ele>188.644</ele>
      </trkpt>
      <trkpt lat="45.72439" lon="4.77699">
        <ele>195.638</ele>
      </trkpt>
      <trkpt lat="45.72403" lon="4.77596">
        <ele>201.273</ele>
      </trkpt>
      <trkpt lat="45.72385" lon="4.7739">
        <ele>209.336</ele>
      </trkpt>
      <trkpt lat="45.72501" lon="4.77281">
        <ele>218.37</ele>
      </trkpt>
      <trkpt lat="45.72585" lon="4.77227">
        <ele>220.361</ele>
      </trkpt>
      <trkpt lat="45.72542" lon="4.77159">
        <ele>227.225</ele>
      </trkpt>
      <trkpt lat="45.72471" lon="4.77217">
        <ele>232.366</ele>
      </trkpt>
      <trkpt lat="45.72362" lon="4.77219">
        <ele>239.736</ele>
      </trkpt>
      <trkpt lat="45.72291" lon="4.77141">
        <ele>245.855</ele>
      </trkpt>
      <trkpt lat="45.72263" lon="4.77019">
        <ele>251.955</ele>
      </trkpt>
      <trkpt lat="45.72274" lon="4.76852">
        <ele>262.709</ele>
      </trkpt>
      <trkpt lat="45.7222" lon="4.76762">
        <ele>266.275</ele>
      </trkpt>
      <trkpt lat="45.72293" lon="4.76704">
        <ele>273.675</ele>
      </trkpt>
      <trkpt lat="45.72407" lon="4.7665">
        <ele>279.713</ele>
      </trkpt>
      <trkpt lat="45.72355" lon="4.76558">
        <ele>288.421</ele>
      </trkpt>
      <trkpt lat="45.72237" lon="4.76438">
        <ele>296.593</ele>
      </trkpt>
      <trkpt lat="45.72166" lon="4.76298">
        <ele>301</ele>
      </trkpt>
      <trkpt lat="45.72106" lon="4.76116">
        <ele>305.863</ele>
      </trkpt>
      <trkpt lat="45.72089" lon="4.75981">
        <ele>309</ele>
      </trkpt>
      <trkpt lat="45.72003" lon="4.75927">
        <ele>309.323</ele>
      </trkpt>
      <trkpt lat="45.71926" lon="4.75815">
        <ele>309.439</ele>
      </trkpt>
      <trkpt lat="45.71881" lon="4.75699">
        <ele>309.743</ele>
      </trkpt>
      <trkpt lat="45.71812" lon="4.75521">
        <ele>312.929</ele>
      </trkpt>
      <trkpt lat="45.71731" lon="4.75348">
        <ele>315.379</ele>
      </trkpt>
      <trkpt lat="45.71634" lon="4.7523">
        <ele>320.165</ele>
      </trkpt>
      <trkpt lat="45.71557" lon="4.7515">
        <ele>321</ele>
      </trkpt>
      <trkpt lat="45.71506" lon="4.75039">
        <ele>320.69</ele>
      </trkpt>
      <trkpt lat="45.7139" lon="4.74989">
        <ele>319.808</ele>
      </trkpt>
      <trkpt lat="45.713" lon="4.74957">
        <ele>319.527</ele>
      </trkpt>
      <trkpt lat="45.71233" lon="4.74856">
        <ele>315.666</ele>
      </trkpt>
      <trkpt lat="45.71201" lon="4.74736">
        <ele>316.08</ele>
      </trkpt>
      <trkpt lat="45.71209" lon="4.74575">
        <ele>318.54</ele>
      </trkpt>
      <trkpt lat="45.71225" lon="4.74431">
        <ele>317.644</ele>
      </trkpt>
      <trkpt lat="45.71194" lon="4.74273">
        <ele>316.189</ele>
      </trkpt>
      <trkpt lat="45.7116" lon="4.74084">
        <ele>319.754</ele>
      </trkpt>
      <trkpt lat="45.71154" lon="4.73944">
        <ele>319.535</ele>
      </trkpt>
      <trkpt lat="45.71085" lon="4.73878">
        <ele>317.059</ele>
      </trkpt>
      <trkpt lat="45.71072" lon="4.7387">
        <ele>316.731</ele>
      </trkpt>
      <trkpt lat="45.70802" lon="4.73576">
        <ele>312</ele>
      </trkpt>
      <trkpt lat="45.70553" lon="4.73275">
        <ele>307.077</ele>
      </trkpt>
      <trkpt lat="45.70343" lon="4.73133">
        <ele>308</ele>
      </trkpt>
      <trkpt lat="45.70167" lon="4.7282">
        <ele>308</ele>
      </trkpt>
      <trkpt lat="45.7009" lon="4.72619">
        <ele>306.459</ele>
      </trkpt>
      <trkpt lat="45.70072" lon="4.72398">
        <ele>302.307</ele>
      </trkpt>
      <trkpt lat="45.70053" lon="4.71992">
        <ele>301.099</ele>
      </trkpt>
      <trkpt lat="45.70023" lon="4.71844">
        <ele>299.216</ele>
      </trkpt>
      <trkpt lat="45.69873" lon="4.71483">
        <ele>288.459</ele>
      </trkpt>
      <trkpt lat="45.69881" lon="4.71292">
        <ele>280.836</ele>
      </trkpt>
      <trkpt lat="45.69908" lon="4.71236">
        <ele>278.262</ele>
      </trkpt>
      <trkpt lat="45.69956" lon="4.71172">
        <ele>274.457</ele>
      </trkpt>
      <trkpt lat="45.69913" lon="4.71151">
        <ele>268.146</ele>
      </trkpt>
      <trkpt lat="45.69811" lon="4.7126">
        <ele>264.699</ele>
      </trkpt>
      <trkpt lat="45.69776" lon="4.7132">
        <ele>262.779</ele>
      </trkpt>
      <trkpt lat="45.69767" lon="4.71271">
        <ele>256.453</ele>
      </trkpt>
      <trkpt lat="45.69827" lon="4.7113">
        <ele>251.261</ele>
      </trkpt>
      <trkpt lat="45.69798" lon="4.71098">
        <ele>255.555</ele>
      </trkpt>
      <trkpt lat="45.69742" lon="4.71119">
        <ele>259.804</ele>
      </trkpt>
      <trkpt lat="45.69671" lon="4.71105">
        <ele>264.97</ele>
      </trkpt>
      <trkpt lat="45.69463" lon="4.70886">
        <ele>281.203</ele>
      </trkpt>
      <trkpt lat="45.6938" lon="4.70921">
        <ele>283.859</ele>
      </trkpt>
      <trkpt lat="45.69086" lon="4.70808">
        <ele>299.982</ele>
      </trkpt>
      <trkpt lat="45.69003" lon="4.70744">
        <ele>304.892</ele>
      </trkpt>
      <trkpt lat="45.68788" lon="4.70649">
        <ele>315.514</ele>
      </trkpt>
      <trkpt lat="45.6875" lon="4.70536">
        <ele>320.718</ele>
      </trkpt>
      <trkpt lat="45.68559" lon="4.70408">
        <ele>334.999</ele>
      </trkpt>
      <trkpt lat="45.68521" lon="4.70398">
        <ele>338.345</ele>
      </trkpt>
      <trkpt lat="45.68493" lon="4.70409">
        <ele>340.231</ele>
      </trkpt>
      <trkpt lat="45.68517" lon="4.70313">
        <ele>344.641</ele>
      </trkpt>
      <trkpt lat="45.68504" lon="4.70222">
        <ele>346.55</ele>
      </trkpt>
      <trkpt lat="45.68459" lon="4.70129">
        <ele>347.806</ele>
      </trkpt>
      <trkpt lat="45.68445" lon="4.70019">
        <ele>347.979</ele>
      </trkpt>
      <trkpt lat="45.68375" lon="4.69964">
        <ele>351</ele>
      </trkpt>
      <trkpt lat="45.68386" lon="4.69925">
        <ele>350.379</ele>
      </trkpt>
      <trkpt lat="45.68468" lon="4.69677">
        <ele>338.584</ele>
      </trkpt>
      <trkpt lat="45.68486" lon="4.69545">
        <ele>332.808</ele>
      </trkpt>
      <trkpt lat="45.68578" lon="4.69197">
        <ele>318.346</ele>
      </trkpt>
      <trkpt lat="45.68542" lon="4.68937">
        <ele>318.606</ele>
      </trkpt>
      <trkpt lat="45.6852" lon="4.68836">
        <ele>320.535</ele>
      </trkpt>
      <trkpt lat="45.68419" lon="4.6862">
        <ele>323.138</ele>
      </trkpt>
      <trkpt lat="45.68313" lon="4.68412">
        <ele>316.078</ele>
      </trkpt>
      <trkpt lat="45.68286" lon="4.68159">
        <ele>323.617</ele>
      </trkpt>
      <trkpt lat="45.68264" lon="4.67945">
        <ele>322.983</ele>
      </trkpt>
      <trkpt lat="45.68235" lon="4.67855">
        <ele>321.55</ele>
      </trkpt>
      <trkpt lat="45.68232" lon="4.6771">
        <ele>319.446</ele>
      </trkpt>
      <trkpt lat="45.6823" lon="4.67535">
        <ele>313.436</ele>
      </trkpt>
      <trkpt lat="45.68218" lon="4.67316">
        <ele>316.438</ele>
      </trkpt>
      <trkpt lat="45.68202" lon="4.67202">
        <ele>315.315</ele>
      </trkpt>
      <trkpt lat="45.6815" lon="4.67209">
        <ele>319.766</ele>
      </trkpt>
      <trkpt lat="45.68055" lon="4.6725">
        <ele>328.075</ele>
      </trkpt>
      <trkpt lat="45.67945" lon="4.67254">
        <ele>334.094</ele>
      </trkpt>
      <trkpt lat="45.67863" lon="4.67252">
        <ele>337.989</ele>
      </trkpt>
      <trkpt lat="45.67768" lon="4.67234">
        <ele>342.368</ele>
      </trkpt>
      <trkpt lat="45.67321" lon="4.67104">
        <ele>379.062</ele>
      </trkpt>
      <trkpt lat="45.67203" lon="4.67115">
        <ele>386.955</ele>
      </trkpt>
      <trkpt lat="45.67014" lon="4.67125">
        <ele>403.006</ele>
      </trkpt>
      <trkpt lat="45.66914" lon="4.67129">
        <ele>414.063</ele>
      </trkpt>
      <trkpt lat="45.66796" lon="4.67203">
        <ele>418.749</ele>
      </trkpt>
      <trkpt lat="45.66689" lon="4.67252">
        <ele>420.102</ele>
      </trkpt>
      <trkpt lat="45.6671" lon="4.67026">
        <ele>426.093</ele>
      </trkpt>
      <trkpt lat="45.66638" lon="4.6692">
        <ele>431.54</ele>
      </trkpt>
      <trkpt lat="45.66691" lon="4.66846">
        <ele>436.163</ele>
      </trkpt>
      <trkpt lat="45.66732" lon="4.66789">
        <ele>435.206</ele>
      </trkpt>
      <trkpt lat="45.66778" lon="4.66559">
        <ele>430.031</ele>
      </trkpt>
      <trkpt lat="45.66797" lon="4.66202">
        <ele>427.788</ele>
      </trkpt>
      <trkpt lat="45.66859" lon="4.65969">
        <ele>425.711</ele>
      </trkpt>
      <trkpt lat="45.67071" lon="4.65697">
        <ele>414.895</ele>
      </trkpt>
      <trkpt lat="45.66931" lon="4.65555">
        <ele>407.42</ele>
      </trkpt>
      <trkpt lat="45.66894" lon="4.6535">
        <ele>407.718</ele>
      </trkpt>
      <trkpt lat="45.66619" lon="4.65191">
        <ele>396.36</ele>
      </trkpt>
      <trkpt lat="45.66629" lon="4.65063">
        <ele>392.216</ele>
      </trkpt>
      <trkpt lat="45.66585" lon="4.64865">
        <ele>382.145</ele>
      </trkpt>
      <trkpt lat="45.6651" lon="4.64763">
        <ele>385.503</ele>
      </trkpt>
      <trkpt lat="45.66346" lon="4.64648">
        <ele>395.919</ele>
      </trkpt>
      <trkpt lat="45.66314" lon="4.64608">
        <ele>395.347</ele>
      </trkpt>
      <trkpt lat="45.66339" lon="4.64414">
        <ele>389.38</ele>
      </trkpt>
      <trkpt lat="45.66323" lon="4.64294">
        <ele>388.489</ele>
      </trkpt>
      <trkpt lat="45.66375" lon="4.64117">
        <ele>407.451</ele>
      </trkpt>
      <trkpt lat="45.66429" lon="4.64077">
        <ele>414.328</ele>
      </trkpt>
      <trkpt lat="45.66424" lon="4.64014">
        <ele>419.523</ele>
      </trkpt>
      <trkpt lat="45.66501" lon="4.64016">
        <ele>424.324</ele>
      </trkpt>
      <trkpt lat="45.66557" lon="4.63978">
        <ele>428</ele>
      </trkpt>
      <trkpt lat="45.66497" lon="4.63752">
        <ele>436.287</ele>
      </trkpt>
      <trkpt lat="45.66455" lon="4.63706">
        <ele>440.322</ele>
      </trkpt>
      <trkpt lat="45.66432" lon="4.63692">
        <ele>442.135</ele>
      </trkpt>
      <trkpt lat="45.6628" lon="4.63692">
        <ele>453.196</ele>
      </trkpt>
      <trkpt lat="45.66125" lon="4.63685">
        <ele>461.82</ele>
      </trkpt>
      <trkpt lat="45.66043" lon="4.63655">
        <ele>468.777</ele>
      </trkpt>
      <trkpt lat="45.66038" lon="4.63618">
        <ele>472.655</ele>
      </trkpt>
      <trkpt lat="45.66048" lon="4.63557">
        <ele>475.554</ele>
      </trkpt>
      <trkpt lat="45.6611" lon="4.63295">
        <ele>488.851</ele>
      </trkpt>
      <trkpt lat="45.66076" lon="4.63215">
        <ele>494.282</ele>
      </trkpt>
      <trkpt lat="45.66057" lon="4.63198">
        <ele>494.961</ele>
      </trkpt>
      <trkpt lat="45.6604" lon="4.63141">
        <ele>496.943</ele>
      </trkpt>
      <trkpt lat="45.66015" lon="4.63111">
        <ele>498.131</ele>
      </trkpt>
      <trkpt lat="45.65939" lon="4.62986">
        <ele>499.398</ele>
      </trkpt>
      <trkpt lat="45.65936" lon="4.62876">
        <ele>496.423</ele>
      </trkpt>
      <trkpt lat="45.65923" lon="4.62822">
        <ele>494.399</ele>
      </trkpt>
      <trkpt lat="45.65892" lon="4.62778">
        <ele>493.315</ele>
      </trkpt>
      <trkpt lat="45.65802" lon="4.62778">
        <ele>498.061</ele>
      </trkpt>
      <trkpt lat="45.65775" lon="4.62774">
        <ele>499.926</ele>
      </trkpt>
      <trkpt lat="45.65676" lon="4.62725">
        <ele>502.232</ele>
      </trkpt>
      <trkpt lat="45.65603" lon="4.62652">
        <ele>500.731</ele>
      </trkpt>
      <trkpt lat="45.65611" lon="4.62573">
        <ele>507.196</ele>
      </trkpt>
      <trkpt lat="45.65654" lon="4.62435">
        <ele>500.09</ele>
      </trkpt>
      <trkpt lat="45.65685" lon="4.62389">
        <ele>500.225</ele>
      </trkpt>
      <trkpt lat="45.65692" lon="4.6236">
        <ele>500.386</ele>
      </trkpt>
      <trkpt lat="45.65686" lon="4.62289">
        <ele>506.339</ele>
      </trkpt>
      <trkpt lat="45.65684" lon="4.62247">
        <ele>511.331</ele>
      </trkpt>
      <trkpt lat="45.65688" lon="4.62204">
        <ele>514.417</ele>
      </trkpt>
      <trkpt lat="45.65698" lon="4.62174">
        <ele>518.137</ele>
      </trkpt>
      <trkpt lat="45.65699" lon="4.62109">
        <ele>520.73</ele>
      </trkpt>
      <trkpt lat="45.65706" lon="4.62046">
        <ele>521.955</ele>
      </trkpt>
      <trkpt lat="45.65711" lon="4.62026">
        <ele>521.699</ele>
      </trkpt>
      <trkpt lat="45.65748" lon="4.61945">
        <ele>527.255</ele>
      </trkpt>
      <trkpt lat="45.65753" lon="4.61912">
        <ele>526.746</ele>
      </trkpt>
      <trkpt lat="45.65756" lon="4.61862">
        <ele>522.803</ele>
      </trkpt>
      <trkpt lat="45.65777" lon="4.61776">
        <ele>518.143</ele>
      </trkpt>
      <trkpt lat="45.65776" lon="4.61761">
        <ele>520.16</ele>
      </trkpt>
      <trkpt lat="45.65761" lon="4.61753">
        <ele>519.671</ele>
      </trkpt>
      <trkpt lat="45.65727" lon="4.61744">
        <ele>521.909</ele>
      </trkpt>
      <trkpt lat="45.65703" lon="4.61726">
        <ele>524.757</ele>
      </trkpt>
      <trkpt lat="45.657" lon="4.61701">
        <ele>527.487</ele>
      </trkpt>
      <trkpt lat="45.65722" lon="4.61636">
        <ele>534.922</ele>
      </trkpt>
      <trkpt lat="45.65722" lon="4.61553">
        <ele>538.217</ele>
      </trkpt>
      <trkpt lat="45.65698" lon="4.61497">
        <ele>540.335</ele>
      </trkpt>
      <trkpt lat="45.65677" lon="4.6144">
        <ele>547.64</ele>
      </trkpt>
      <trkpt lat="45.65631" lon="4.61334">
        <ele>557.424</ele>
      </trkpt>
      <trkpt lat="45.65602" lon="4.61276">
        <ele>560.566</ele>
      </trkpt>
      <trkpt lat="45.65607" lon="4.61213">
        <ele>565.258</ele>
      </trkpt>
      <trkpt lat="45.65623" lon="4.61155">
        <ele>568.539</ele>
      </trkpt>
      <trkpt lat="45.65652" lon="4.61104">
        <ele>572.466</ele>
      </trkpt>
      <trkpt lat="45.65652" lon="4.61078">
        <ele>573.794</ele>
      </trkpt>
      <trkpt lat="45.65618" lon="4.61024">
        <ele>576.158</ele>
      </trkpt>
      <trkpt lat="45.65584" lon="4.61004">
        <ele>577.094</ele>
      </trkpt>
      <trkpt lat="45.65545" lon="4.61012">
        <ele>574.131</ele>
      </trkpt>
      <trkpt lat="45.65518" lon="4.60981">
        <ele>571.946</ele>
      </trkpt>
      <trkpt lat="45.65479" lon="4.60833">
        <ele>569.813</ele>
      </trkpt>
      <trkpt lat="45.65479" lon="4.6079">
        <ele>569.741</ele>
      </trkpt>
      <trkpt lat="45.65497" lon="4.60758">
        <ele>570.83</ele>
      </trkpt>
      <trkpt lat="45.65535" lon="4.60691">
        <ele>575.734</ele>
      </trkpt>
      <trkpt lat="45.65584" lon="4.60632">
        <ele>583.265</ele>
      </trkpt>
      <trkpt lat="45.656" lon="4.60625">
        <ele>585.764</ele>
      </trkpt>
      <trkpt lat="45.65632" lon="4.60515">
        <ele>593.163</ele>
      </trkpt>
      <trkpt lat="45.65636" lon="4.60487">
        <ele>594.907</ele>
      </trkpt>
      <trkpt lat="45.6566" lon="4.60426">
        <ele>602.086</ele>
      </trkpt>
      <trkpt lat="45.65684" lon="4.60369">
        <ele>607.968</ele>
      </trkpt>
      <trkpt lat="45.65718" lon="4.60303">
        <ele>616.506</ele>
      </trkpt>
      <trkpt lat="45.65751" lon="4.60272">
        <ele>623.669</ele>
      </trkpt>
      <trkpt lat="45.65791" lon="4.60262">
        <ele>629.33</ele>
      </trkpt>
      <trkpt lat="45.65827" lon="4.60243">
        <ele>631.548</ele>
      </trkpt>
      <trkpt lat="45.65833" lon="4.60222">
        <ele>632.007</ele>
      </trkpt>
      <trkpt lat="45.65825" lon="4.60148">
        <ele>634.219</ele>
      </trkpt>
      <trkpt lat="45.65804" lon="4.60104">
        <ele>632.11</ele>
      </trkpt>
      <trkpt lat="45.65782" lon="4.60023">
        <ele>631.882</ele>
      </trkpt>
      <trkpt lat="45.65753" lon="4.5995">
        <ele>634.941</ele>
      </trkpt>
      <trkpt lat="45.6576" lon="4.59901">
        <ele>642.189</ele>
      </trkpt>
      <trkpt lat="45.65746" lon="4.59833">
        <ele>644.504</ele>
      </trkpt>
      <trkpt lat="45.65725" lon="4.59793">
        <ele>643.472</ele>
      </trkpt>
      <trkpt lat="45.65718" lon="4.59748">
        <ele>649.696</ele>
      </trkpt>
      <trkpt lat="45.65715" lon="4.5971">
        <ele>654.212</ele>
      </trkpt>
      <trkpt lat="45.65703" lon="4.59673">
        <ele>655.904</ele>
      </trkpt>
      <trkpt lat="45.65703" lon="4.59646">
        <ele>657.796</ele>
      </trkpt>
      <trkpt lat="45.65703" lon="4.59632">
        <ele>658.568</ele>
      </trkpt>
      <trkpt lat="45.65701" lon="4.59603">
        <ele>659.392</ele>
      </trkpt>
      <trkpt lat="45.65683" lon="4.59573">
        <ele>660.62</ele>
      </trkpt>
      <trkpt lat="45.65665" lon="4.59552">
        <ele>661.788</ele>
      </trkpt>
      <trkpt lat="45.65585" lon="4.5949">
        <ele>666.353</ele>
      </trkpt>
      <trkpt lat="45.65477" lon="4.59239">
        <ele>675.628</ele>
      </trkpt>
      <trkpt lat="45.65437" lon="4.59177">
        <ele>678.552</ele>
      </trkpt>
      <trkpt lat="45.65436" lon="4.59143">
        <ele>679.671</ele>
      </trkpt>
      <trkpt lat="45.65458" lon="4.59104">
        <ele>679.614</ele>
      </trkpt>
      <trkpt lat="45.6548" lon="4.59057">
        <ele>681.237</ele>
      </trkpt>
      <trkpt lat="45.6548" lon="4.59002">
        <ele>683.03</ele>
      </trkpt>
      <trkpt lat="45.65467" lon="4.5895">
        <ele>686.072</ele>
      </trkpt>
      <trkpt lat="45.65419" lon="4.58836">
        <ele>688.696</ele>
      </trkpt>
      <trkpt lat="45.65386" lon="4.58781">
        <ele>688.632</ele>
      </trkpt>
      <trkpt lat="45.65316" lon="4.58742">
        <ele>698.429</ele>
      </trkpt>
      <trkpt lat="45.65302" lon="4.58716">
        <ele>698.266</ele>
      </trkpt>
      <trkpt lat="45.65309" lon="4.5867">
        <ele>698.127</ele>
      </trkpt>
      <trkpt lat="45.65329" lon="4.58623">
        <ele>705.195</ele>
      </trkpt>
      <trkpt lat="45.65253" lon="4.58672">
        <ele>710.713</ele>
      </trkpt>
      <trkpt lat="45.6527" lon="4.58746">
        <ele>713.576</ele>
      </trkpt>
      <trkpt lat="45.65296" lon="4.58801">
        <ele>716.63</ele>
      </trkpt>
      <trkpt lat="45.65306" lon="4.58827">
        <ele>718.861</ele>
      </trkpt>
      <trkpt lat="45.65277" lon="4.59008">
        <ele>731.154</ele>
      </trkpt>
      <trkpt lat="45.65272" lon="4.59028">
        <ele>731.777</ele>
      </trkpt>
      <trkpt lat="45.65244" lon="4.59056">
        <ele>735.001</ele>
      </trkpt>
      <trkpt lat="45.65169" lon="4.58997">
        <ele>747.503</ele>
      </trkpt>
      <trkpt lat="45.65124" lon="4.58937">
        <ele>757.864</ele>
      </trkpt>
      <trkpt lat="45.65067" lon="4.58871">
        <ele>768.357</ele>
      </trkpt>
      <trkpt lat="45.65025" lon="4.58801">
        <ele>774.81</ele>
      </trkpt>
      <trkpt lat="45.65014" lon="4.58723">
        <ele>779.956</ele>
      </trkpt>
      <trkpt lat="45.65002" lon="4.58671">
        <ele>783.506</ele>
      </trkpt>
      <trkpt lat="45.64976" lon="4.58555">
        <ele>794.305</ele>
      </trkpt>
      <trkpt lat="45.64959" lon="4.58451">
        <ele>803.755</ele>
      </trkpt>
      <trkpt lat="45.64921" lon="4.58368">
        <ele>807.554</ele>
      </trkpt>
      <trkpt lat="45.64852" lon="4.5815">
        <ele>811.665</ele>
      </trkpt>
      <trkpt lat="45.64829" lon="4.58061">
        <ele>813</ele>
      </trkpt>
      <trkpt lat="45.64741" lon="4.58202">
        <ele>812.753</ele>
      </trkpt>
      <trkpt lat="45.64609" lon="4.58285">
        <ele>815.138</ele>
      </trkpt>
      <trkpt lat="45.6453" lon="4.5836">
        <ele>817.108</ele>
      </trkpt>
      <trkpt lat="45.6448" lon="4.5841">
        <ele>817.871</ele>
      </trkpt>
      <trkpt lat="45.64406" lon="4.58504">
        <ele>822.627</ele>
      </trkpt>
      <trkpt lat="45.64384" lon="4.58536">
        <ele>823.706</ele>
      </trkpt>
      <trkpt lat="45.64382" lon="4.58561">
        <ele>825.981</ele>
      </trkpt>
      <trkpt lat="45.64378" lon="4.58597">
        <ele>829.007</ele>
      </trkpt>
      <trkpt lat="45.64362" lon="4.58616">
        <ele>830.537</ele>
      </trkpt>
      <trkpt lat="45.64345" lon="4.58633">
        <ele>832.884</ele>
      </trkpt>
      <trkpt lat="45.64296" lon="4.58664">
        <ele>838.036</ele>
      </trkpt>
      <trkpt lat="45.64256" lon="4.58691">
        <ele>843.362</ele>
      </trkpt>
      <trkpt lat="45.64242" lon="4.58747">
        <ele>849.009</ele>
      </trkpt>
      <trkpt lat="45.6418" lon="4.5878">
        <ele>857.67</ele>
      </trkpt>
      <trkpt lat="45.64103" lon="4.58818">
        <ele>867.126</ele>
      </trkpt>
      <trkpt lat="45.64076" lon="4.58799">
        <ele>870.811</ele>
      </trkpt>
      <trkpt lat="45.64019" lon="4.58805">
        <ele>879.323</ele>
      </trkpt>
      <trkpt lat="45.63956" lon="4.58812">
        <ele>888.655</ele>
      </trkpt>
      <trkpt lat="45.63913" lon="4.58792">
        <ele>893.712</ele>
      </trkpt>
      <trkpt lat="45.63879" lon="4.58741">
        <ele>896.542</ele>
      </trkpt>
      <trkpt lat="45.63797" lon="4.58693">
        <ele>890.303</ele>
      </trkpt>
      <trkpt lat="45.63765" lon="4.58703">
        <ele>888.845</ele>
      </trkpt>
      <trkpt lat="45.63752" lon="4.58719">
        <ele>889.716</ele>
      </trkpt>
      <trkpt lat="45.63682" lon="4.58707">
        <ele>884.722</ele>
      </trkpt>
      <trkpt lat="45.63618" lon="4.58694">
        <ele>880.449</ele>
      </trkpt>
      <trkpt lat="45.63602" lon="4.58681">
        <ele>878.415</ele>
      </trkpt>
      <trkpt lat="45.63595" lon="4.58626">
        <ele>874.269</ele>
      </trkpt>
      <trkpt lat="45.63617" lon="4.58568">
        <ele>870.443</ele>
      </trkpt>
      <trkpt lat="45.63616" lon="4.58511">
        <ele>864.939</ele>
      </trkpt>
      <trkpt lat="45.6363" lon="4.58468">
        <ele>862.256</ele>
      </trkpt>
      <trkpt lat="45.63643" lon="4.58457">
        <ele>861.393</ele>
      </trkpt>
      <trkpt lat="45.63617" lon="4.58434">
        <ele>858.789</ele>
      </trkpt>
      <trkpt lat="45.63545" lon="4.58369">
        <ele>852.906</ele>
      </trkpt>
      <trkpt lat="45.63516" lon="4.58316">
        <ele>848.79</ele>
      </trkpt>
      <trkpt lat="45.6347" lon="4.58268">
        <ele>844.48</ele>
      </trkpt>
      <trkpt lat="45.63434" lon="4.5824">
        <ele>841.66</ele>
      </trkpt>
      <trkpt lat="45.63417" lon="4.58226">
        <ele>840.133</ele>
      </trkpt>
      <trkpt lat="45.63383" lon="4.58218">
        <ele>837.976</ele>
      </trkpt>
      <trkpt lat="45.63367" lon="4.58183">
        <ele>835.038</ele>
      </trkpt>
      <trkpt lat="45.63317" lon="4.58122">
        <ele>824.592</ele>
      </trkpt>
      <trkpt lat="45.63286" lon="4.58075">
        <ele>816.534</ele>
      </trkpt>
      <trkpt lat="45.63259" lon="4.58037">
        <ele>810.419</ele>
      </trkpt>
      <trkpt lat="45.63181" lon="4.57807">
        <ele>785.173</ele>
      </trkpt>
      <trkpt lat="45.63155" lon="4.5769">
        <ele>774.042</ele>
      </trkpt>
      <trkpt lat="45.63148" lon="4.57626">
        <ele>768.918</ele>
      </trkpt>
      <trkpt lat="45.63138" lon="4.57574">
        <ele>767.339</ele>
      </trkpt>
      <trkpt lat="45.63098" lon="4.57556">
        <ele>763.623</ele>
      </trkpt>
      <trkpt lat="45.63072" lon="4.57577">
        <ele>761.575</ele>
      </trkpt>
      <trkpt lat="45.63029" lon="4.57638">
        <ele>762.025</ele>
      </trkpt>
      <trkpt lat="45.62944" lon="4.57728">
        <ele>763.676</ele>
      </trkpt>
      <trkpt lat="45.62936" lon="4.57751">
        <ele>765.309</ele>
      </trkpt>
      <trkpt lat="45.62921" lon="4.57772">
        <ele>762.76</ele>
      </trkpt>
      <trkpt lat="45.62908" lon="4.57814">
        <ele>761.081</ele>
      </trkpt>
      <trkpt lat="45.62903" lon="4.57866">
        <ele>759.112</ele>
      </trkpt>
      <trkpt lat="45.62898" lon="4.57911">
        <ele>757.303</ele>
      </trkpt>
      <trkpt lat="45.62899" lon="4.58098">
        <ele>749.867</ele>
      </trkpt>
      <trkpt lat="45.62916" lon="4.58199">
        <ele>748.009</ele>
      </trkpt>
      <trkpt lat="45.62903" lon="4.58258">
        <ele>748.21</ele>
      </trkpt>
      <trkpt lat="45.62878" lon="4.58282">
        <ele>745.39</ele>
      </trkpt>
      <trkpt lat="45.62858" lon="4.58286">
        <ele>744.132</ele>
      </trkpt>
      <trkpt lat="45.62813" lon="4.58264">
        <ele>748.456</ele>
      </trkpt>
      <trkpt lat="45.62758" lon="4.58254">
        <ele>754.609</ele>
      </trkpt>
      <trkpt lat="45.6267" lon="4.58348">
        <ele>769.542</ele>
      </trkpt>
      <trkpt lat="45.62615" lon="4.58439">
        <ele>780.221</ele>
      </trkpt>
      <trkpt lat="45.62566" lon="4.58483">
        <ele>791.301</ele>
      </trkpt>
      <trkpt lat="45.62538" lon="4.58556">
        <ele>793.923</ele>
      </trkpt>
      <trkpt lat="45.62515" lon="4.58628">
        <ele>796.937</ele>
      </trkpt>
      <trkpt lat="45.62415" lon="4.58769">
        <ele>812.573</ele>
      </trkpt>
      <trkpt lat="45.62364" lon="4.58808">
        <ele>820.549</ele>
      </trkpt>
      <trkpt lat="45.62304" lon="4.5883">
        <ele>831.707</ele>
      </trkpt>
      <trkpt lat="45.62257" lon="4.58806">
        <ele>840.468</ele>
      </trkpt>
      <trkpt lat="45.62209" lon="4.58785">
        <ele>842.507</ele>
      </trkpt>
      <trkpt lat="45.62064" lon="4.5901">
        <ele>857.058</ele>
      </trkpt>
      <trkpt lat="45.62032" lon="4.59116">
        <ele>861.728</ele>
      </trkpt>
      <trkpt lat="45.61991" lon="4.59223">
        <ele>863.691</ele>
      </trkpt>
      <trkpt lat="45.61883" lon="4.5934">
        <ele>861.046</ele>
      </trkpt>
      <trkpt lat="45.61741" lon="4.59353">
        <ele>858.203</ele>
      </trkpt>
      <trkpt lat="45.61507" lon="4.59314">
        <ele>852</ele>
      </trkpt>
      <trkpt lat="45.61238" lon="4.59244">
        <ele>823.719</ele>
      </trkpt>
      <trkpt lat="45.61123" lon="4.59121">
        <ele>802.051</ele>
      </trkpt>
      <trkpt lat="45.61043" lon="4.59056">
        <ele>788.614</ele>
      </trkpt>
      <trkpt lat="45.60933" lon="4.59033">
        <ele>776.652</ele>
      </trkpt>
      <trkpt lat="45.6085" lon="4.59023">
        <ele>767.334</ele>
      </trkpt>
      <trkpt lat="45.60832" lon="4.58997">
        <ele>765.053</ele>
      </trkpt>
      <trkpt lat="45.60775" lon="4.58994">
        <ele>761.455</ele>
      </trkpt>
      <trkpt lat="45.60698" lon="4.58903">
        <ele>770.598</ele>
      </trkpt>
      <trkpt lat="45.60648" lon="4.58776">
        <ele>779.087</ele>
      </trkpt>
      <trkpt lat="45.60529" lon="4.58666">
        <ele>774.172</ele>
      </trkpt>
      <trkpt lat="45.60461" lon="4.58456">
        <ele>769.258</ele>
      </trkpt>
      <trkpt lat="45.60378" lon="4.58261">
        <ele>764.043</ele>
      </trkpt>
      <trkpt lat="45.60313" lon="4.5799">
        <ele>760.861</ele>
      </trkpt>
      <trkpt lat="45.60249" lon="4.57798">
        <ele>755.866</ele>
      </trkpt>
      <trkpt lat="45.60225" lon="4.57962">
        <ele>747.947</ele>
      </trkpt>
      <trkpt lat="45.60173" lon="4.57993">
        <ele>742.833</ele>
      </trkpt>
      <trkpt lat="45.60119" lon="4.58297">
        <ele>716.991</ele>
      </trkpt>
      <trkpt lat="45.60094" lon="4.58188">
        <ele>707.163</ele>
      </trkpt>
      <trkpt lat="45.60083" lon="4.58048">
        <ele>698.938</ele>
      </trkpt>
      <trkpt lat="45.60072" lon="4.57941">
        <ele>694.522</ele>
      </trkpt>
      <trkpt lat="45.60081" lon="4.57894">
        <ele>694.726</ele>
      </trkpt>
      <trkpt lat="45.60115" lon="4.57835">
        <ele>695.955</ele>
      </trkpt>
      <trkpt lat="45.60132" lon="4.57774">
        <ele>700.825</ele>
      </trkpt>
      <trkpt lat="45.60105" lon="4.57672">
        <ele>693.331</ele>
      </trkpt>
      <trkpt lat="45.60052" lon="4.57597">
        <ele>690.339</ele>
      </trkpt>
      <trkpt lat="45.60035" lon="4.5754">
        <ele>693.078</ele>
      </trkpt>
      <trkpt lat="45.60011" lon="4.57392">
        <ele>694.724</ele>
      </trkpt>
      <trkpt lat="45.59994" lon="4.57237">
        <ele>695.75</ele>
      </trkpt>
      <trkpt lat="45.59966" lon="4.57065">
        <ele>697.979</ele>
      </trkpt>
      <trkpt lat="45.59947" lon="4.57019">
        <ele>698.156</ele>
      </trkpt>
      <trkpt lat="45.59873" lon="4.57088">
        <ele>693.525</ele>
      </trkpt>
      <trkpt lat="45.59777" lon="4.57122">
        <ele>692.009</ele>
      </trkpt>
      <trkpt lat="45.59646" lon="4.57101">
        <ele>695.101</ele>
      </trkpt>
      <trkpt lat="45.59533" lon="4.57101">
        <ele>700.038</ele>
      </trkpt>
      <trkpt lat="45.59463" lon="4.57075">
        <ele>708.634</ele>
      </trkpt>
      <trkpt lat="45.59438" lon="4.56987">
        <ele>716.039</ele>
      </trkpt>
      <trkpt lat="45.59445" lon="4.56901">
        <ele>719.433</ele>
      </trkpt>
      <trkpt lat="45.59434" lon="4.56885">
        <ele>720.465</ele>
      </trkpt>
      <trkpt lat="45.59415" lon="4.5688">
        <ele>721.383</ele>
      </trkpt>
      <trkpt lat="45.594" lon="4.56885">
        <ele>722.164</ele>
      </trkpt>
      <trkpt lat="45.59359" lon="4.57005">
        <ele>727.354</ele>
      </trkpt>
      <trkpt lat="45.59276" lon="4.5687">
        <ele>723.028</ele>
      </trkpt>
      <trkpt lat="45.59283" lon="4.56794">
        <ele>721.737</ele>
      </trkpt>
      <trkpt lat="45.59267" lon="4.56711">
        <ele>723.32</ele>
      </trkpt>
      <trkpt lat="45.5924" lon="4.56654">
        <ele>721.109</ele>
      </trkpt>
      <trkpt lat="45.59168" lon="4.56612">
        <ele>725.855</ele>
      </trkpt>
      <trkpt lat="45.59055" lon="4.56558">
        <ele>733.393</ele>
      </trkpt>
      <trkpt lat="45.58924" lon="4.56539">
        <ele>742.13</ele>
      </trkpt>
      <trkpt lat="45.58803" lon="4.5656">
        <ele>752.985</ele>
      </trkpt>
      <trkpt lat="45.58661" lon="4.56539">
        <ele>757.987</ele>
      </trkpt>
      <trkpt lat="45.58498" lon="4.56459">
        <ele>767.855</ele>
      </trkpt>
      <trkpt lat="45.58397" lon="4.56326">
        <ele>770.801</ele>
      </trkpt>
      <trkpt lat="45.58248" lon="4.56191">
        <ele>781.091</ele>
      </trkpt>
      <trkpt lat="45.5805" lon="4.5576">
        <ele>798.41</ele>
      </trkpt>
      <trkpt lat="45.57982" lon="4.55718">
        <ele>807.476</ele>
      </trkpt>
      <trkpt lat="45.57932" lon="4.5563">
        <ele>806.113</ele>
      </trkpt>
      <trkpt lat="45.57903" lon="4.55458">
        <ele>810.004</ele>
      </trkpt>
      <trkpt lat="45.57872" lon="4.55406">
        <ele>809.854</ele>
      </trkpt>
      <trkpt lat="45.57847" lon="4.55266">
        <ele>813.733</ele>
      </trkpt>
      <trkpt lat="45.57863" lon="4.55081">
        <ele>814.858</ele>
      </trkpt>
      <trkpt lat="45.57894" lon="4.54977">
        <ele>817.474</ele>
      </trkpt>
      <trkpt lat="45.57896" lon="4.54694">
        <ele>832.586</ele>
      </trkpt>
      <trkpt lat="45.57892" lon="4.54522">
        <ele>836.445</ele>
      </trkpt>
      <trkpt lat="45.57858" lon="4.54452">
        <ele>840.887</ele>
      </trkpt>
      <trkpt lat="45.57766" lon="4.54337">
        <ele>848.021</ele>
      </trkpt>
      <trkpt lat="45.57628" lon="4.54189">
        <ele>853.323</ele>
      </trkpt>
      <trkpt lat="45.57588" lon="4.54116">
        <ele>853.65</ele>
      </trkpt>
      <trkpt lat="45.57579" lon="4.54059">
        <ele>852.417</ele>
      </trkpt>
      <trkpt lat="45.57534" lon="4.53933">
        <ele>855.064</ele>
      </trkpt>
      <trkpt lat="45.57448" lon="4.53769">
        <ele>861.781</ele>
      </trkpt>
      <trkpt lat="45.57382" lon="4.53702">
        <ele>864.264</ele>
      </trkpt>
      <trkpt lat="45.57322" lon="4.53592">
        <ele>867</ele>
      </trkpt>
      <trkpt lat="45.57324" lon="4.53527">
        <ele>867.008</ele>
      </trkpt>
      <trkpt lat="45.57283" lon="4.53457">
        <ele>866.898</ele>
      </trkpt>
      <trkpt lat="45.57259" lon="4.53353">
        <ele>869.676</ele>
      </trkpt>
      <trkpt lat="45.57292" lon="4.53208">
        <ele>871.25</ele>
      </trkpt>
      <trkpt lat="45.5729" lon="4.53054">
        <ele>872.267</ele>
      </trkpt>
      <trkpt lat="45.57281" lon="4.52929">
        <ele>876.595</ele>
      </trkpt>
      <trkpt lat="45.57261" lon="4.5287">
        <ele>878.831</ele>
      </trkpt>
      <trkpt lat="45.57342" lon="4.52628">
        <ele>855.905</ele>
      </trkpt>
      <trkpt lat="45.57304" lon="4.52454">
        <ele>854.33</ele>
      </trkpt>
      <trkpt lat="45.57245" lon="4.52415">
        <ele>853.215</ele>
      </trkpt>
      <trkpt lat="45.57167" lon="4.52192">
        <ele>854.978</ele>
      </trkpt>
      <trkpt lat="45.57167" lon="4.5206">
        <ele>860.671</ele>
      </trkpt>
      <trkpt lat="45.57215" lon="4.51833">
        <ele>869.985</ele>
      </trkpt>
      <trkpt lat="45.57124" lon="4.51681">
        <ele>864.59</ele>
      </trkpt>
      <trkpt lat="45.57046" lon="4.51533">
        <ele>859</ele>
      </trkpt>
      <trkpt lat="45.57019" lon="4.514">
        <ele>861.588</ele>
      </trkpt>
      <trkpt lat="45.57035" lon="4.51233">
        <ele>867.24</ele>
      </trkpt>
      <trkpt lat="45.56976" lon="4.51049">
        <ele>864.683</ele>
      </trkpt>
      <trkpt lat="45.56967" lon="4.50905">
        <ele>865.597</ele>
      </trkpt>
      <trkpt lat="45.56927" lon="4.50772">
        <ele>873.762</ele>
      </trkpt>
      <trkpt lat="45.5693" lon="4.50648">
        <ele>878.331</ele>
      </trkpt>
      <trkpt lat="45.56887" lon="4.5046">
        <ele>861.681</ele>
      </trkpt>
      <trkpt lat="45.56868" lon="4.50234">
        <ele>837.809</ele>
      </trkpt>
      <trkpt lat="45.56773" lon="4.50063">
        <ele>826.171</ele>
      </trkpt>
      <trkpt lat="45.56771" lon="4.49942">
        <ele>823.556</ele>
      </trkpt>
      <trkpt lat="45.56679" lon="4.49938">
        <ele>827.379</ele>
      </trkpt>
      <trkpt lat="45.56542" lon="4.49552">
        <ele>842.569</ele>
      </trkpt>
      <trkpt lat="45.56547" lon="4.49396">
        <ele>837.637</ele>
      </trkpt>
      <trkpt lat="45.56509" lon="4.49345">
        <ele>835.473</ele>
      </trkpt>
      <trkpt lat="45.56455" lon="4.49438">
        <ele>826.841</ele>
      </trkpt>
      <trkpt lat="45.56356" lon="4.49493">
        <ele>826.44</ele>
      </trkpt>
      <trkpt lat="45.5626" lon="4.49523">
        <ele>830.393</ele>
      </trkpt>
      <trkpt lat="45.56203" lon="4.49507">
        <ele>829.032</ele>
      </trkpt>
      <trkpt lat="45.56146" lon="4.49429">
        <ele>828.532</ele>
      </trkpt>
      <trkpt lat="45.56052" lon="4.4918">
        <ele>824.791</ele>
      </trkpt>
      <trkpt lat="45.56052" lon="4.48907">
        <ele>814.655</ele>
      </trkpt>
      <trkpt lat="45.56039" lon="4.48754">
        <ele>802.181</ele>
      </trkpt>
      <trkpt lat="45.56079" lon="4.48641">
        <ele>788.267</ele>
      </trkpt>
      <trkpt lat="45.56146" lon="4.48571">
        <ele>784.531</ele>
      </trkpt>
      <trkpt lat="45.56154" lon="4.48485">
        <ele>782.582</ele>
      </trkpt>
      <trkpt lat="45.56098" lon="4.48318">
        <ele>771.82</ele>
      </trkpt>
      <trkpt lat="45.56065" lon="4.48236">
        <ele>764.614</ele>
      </trkpt>
      <trkpt lat="45.56074" lon="4.48193">
        <ele>758.933</ele>
      </trkpt>
      <trkpt lat="45.56098" lon="4.48193">
        <ele>757.573</ele>
      </trkpt>
      <trkpt lat="45.56117" lon="4.48115">
        <ele>741.795</ele>
      </trkpt>
      <trkpt lat="45.56392" lon="4.48193">
        <ele>715.374</ele>
      </trkpt>
      <trkpt lat="45.5644" lon="4.48243">
        <ele>714.922</ele>
      </trkpt>
      <trkpt lat="45.56494" lon="4.48228">
        <ele>712.6</ele>
      </trkpt>
      <trkpt lat="45.56664" lon="4.48251">
        <ele>706.005</ele>
      </trkpt>
      <trkpt lat="45.56669" lon="4.48263">
        <ele>706.175</ele>
      </trkpt>
      <trkpt lat="45.56807" lon="4.48255">
        <ele>722.035</ele>
      </trkpt>
      <trkpt lat="45.56821" lon="4.4806">
        <ele>714.825</ele>
      </trkpt>
      <trkpt lat="45.56808" lon="4.47994">
        <ele>709.531</ele>
      </trkpt>
      <trkpt lat="45.56831" lon="4.4789">
        <ele>700.291</ele>
      </trkpt>
      <trkpt lat="45.56834" lon="4.47816">
        <ele>692.773</ele>
      </trkpt>
      <trkpt lat="45.56815" lon="4.47793">
        <ele>690.996</ele>
      </trkpt>
      <trkpt lat="45.56761" lon="4.47805">
        <ele>690.402</ele>
      </trkpt>
      <trkpt lat="45.56727" lon="4.47824">
        <ele>692.205</ele>
      </trkpt>
      <trkpt lat="45.56639" lon="4.47869">
        <ele>700.211</ele>
      </trkpt>
      <trkpt lat="45.5661" lon="4.47883">
        <ele>706.178</ele>
      </trkpt>
      <trkpt lat="45.56555" lon="4.47877">
        <ele>715.795</ele>
      </trkpt>
      <trkpt lat="45.56494" lon="4.47863">
        <ele>727.861</ele>
      </trkpt>
      <trkpt lat="45.5635" lon="4.47721">
        <ele>756.392</ele>
      </trkpt>
      <trkpt lat="45.56279" lon="4.47654">
        <ele>768.199</ele>
      </trkpt>
      <trkpt lat="45.56276" lon="4.47643">
        <ele>770.304</ele>
      </trkpt>
      <trkpt lat="45.5622" lon="4.47615">
        <ele>768.833</ele>
      </trkpt>
      <trkpt lat="45.56173" lon="4.4759">
        <ele>768.028</ele>
      </trkpt>
      <trkpt lat="45.56113" lon="4.47545">
        <ele>772.605</ele>
      </trkpt>
      <trkpt lat="45.56014" lon="4.47453">
        <ele>776.035</ele>
      </trkpt>
      <trkpt lat="45.55892" lon="4.47295">
        <ele>787.135</ele>
      </trkpt>
      <trkpt lat="45.55839" lon="4.47223">
        <ele>794.203</ele>
      </trkpt>
      <trkpt lat="45.55755" lon="4.4718">
        <ele>800.282</ele>
      </trkpt>
      <trkpt lat="45.55746" lon="4.47171">
        <ele>802.165</ele>
      </trkpt>
      <trkpt lat="45.55702" lon="4.47114">
        <ele>807.977</ele>
      </trkpt>
      <trkpt lat="45.55657" lon="4.47054">
        <ele>812.548</ele>
      </trkpt>
      <trkpt lat="45.55496" lon="4.46976">
        <ele>826.185</ele>
      </trkpt>
      <trkpt lat="45.55501" lon="4.46875">
        <ele>825.028</ele>
      </trkpt>
      <trkpt lat="45.55663" lon="4.46664">
        <ele>814.257</ele>
      </trkpt>
      <trkpt lat="45.55795" lon="4.46578">
        <ele>809.736</ele>
      </trkpt>
      <trkpt lat="45.5573" lon="4.4652">
        <ele>805.9</ele>
      </trkpt>
      <trkpt lat="45.557" lon="4.4636">
        <ele>800.252</ele>
      </trkpt>
      <trkpt lat="45.55657" lon="4.46356">
        <ele>797.57</ele>
      </trkpt>
      <trkpt lat="45.55628" lon="4.46278">
        <ele>797.777</ele>
      </trkpt>
      <trkpt lat="45.55496" lon="4.46196">
        <ele>780.562</ele>
      </trkpt>
      <trkpt lat="45.55396" lon="4.46075">
        <ele>757.86</ele>
      </trkpt>
      <trkpt lat="45.55396" lon="4.46016">
        <ele>755.944</ele>
      </trkpt>
      <trkpt lat="45.55301" lon="4.45907">
        <ele>773.243</ele>
      </trkpt>
      <trkpt lat="45.55156" lon="4.45997">
        <ele>768.928</ele>
      </trkpt>
      <trkpt lat="45.54986" lon="4.46137">
        <ele>788.471</ele>
      </trkpt>
      <trkpt lat="45.54806" lon="4.46274">
        <ele>805.715</ele>
      </trkpt>
      <trkpt lat="45.54722" lon="4.46145">
        <ele>814.26</ele>
      </trkpt>
      <trkpt lat="45.54436" lon="4.46153">
        <ele>839.796</ele>
      </trkpt>
      <trkpt lat="45.54418" lon="4.46075">
        <ele>836.697</ele>
      </trkpt>
      <trkpt lat="45.54461" lon="4.45821">
        <ele>839.012</ele>
      </trkpt>
      <trkpt lat="45.54418" lon="4.45665">
        <ele>846.108</ele>
      </trkpt>
      <trkpt lat="45.54407" lon="4.45595">
        <ele>848.131</ele>
      </trkpt>
      <trkpt lat="45.54455" lon="4.4549">
        <ele>849.612</ele>
      </trkpt>
      <trkpt lat="45.54436" lon="4.45166">
        <ele>852.873</ele>
      </trkpt>
      <trkpt lat="45.54515" lon="4.44831">
        <ele>843.054</ele>
      </trkpt>
      <trkpt lat="45.54528" lon="4.44782">
        <ele>844.999</ele>
      </trkpt>
      <trkpt lat="45.54524" lon="4.4471">
        <ele>847.898</ele>
      </trkpt>
      <trkpt lat="45.54515" lon="4.44569">
        <ele>851.263</ele>
      </trkpt>
      <trkpt lat="45.54535" lon="4.44382">
        <ele>857.738</ele>
      </trkpt>
      <trkpt lat="45.54546" lon="4.44316">
        <ele>862.781</ele>
      </trkpt>
      <trkpt lat="45.54555" lon="4.4429">
        <ele>862.869</ele>
      </trkpt>
      <trkpt lat="45.54609" lon="4.44216">
        <ele>857.365</ele>
      </trkpt>
      <trkpt lat="45.54649" lon="4.44175">
        <ele>850.197</ele>
      </trkpt>
      <trkpt lat="45.54691" lon="4.44152">
        <ele>845.074</ele>
      </trkpt>
      <trkpt lat="45.54717" lon="4.44123">
        <ele>840.908</ele>
      </trkpt>
      <trkpt lat="45.54851" lon="4.44179">
        <ele>847.363</ele>
      </trkpt>
      <trkpt lat="45.54881" lon="4.44154">
        <ele>847.174</ele>
      </trkpt>
      <trkpt lat="45.54881" lon="4.44094">
        <ele>848.674</ele>
      </trkpt>
      <trkpt lat="45.54861" lon="4.44031">
        <ele>849.697</ele>
      </trkpt>
      <trkpt lat="45.54837" lon="4.43957">
        <ele>852.73</ele>
      </trkpt>
      <trkpt lat="45.54741" lon="4.43838">
        <ele>854.078</ele>
      </trkpt>
      <trkpt lat="45.5476" lon="4.43744">
        <ele>856.594</ele>
      </trkpt>
      <trkpt lat="45.54823" lon="4.43727">
        <ele>855.33</ele>
      </trkpt>
      <trkpt lat="45.54885" lon="4.43707">
        <ele>852.378</ele>
      </trkpt>
      <trkpt lat="45.54904" lon="4.43662">
        <ele>846.004</ele>
      </trkpt>
      <trkpt lat="45.54905" lon="4.4359">
        <ele>838.194</ele>
      </trkpt>
      <trkpt lat="45.54967" lon="4.43401">
        <ele>822.063</ele>
      </trkpt>
      <trkpt lat="45.54994" lon="4.43306">
        <ele>813</ele>
      </trkpt>
      <trkpt lat="45.54994" lon="4.43118">
        <ele>801.517</ele>
      </trkpt>
      <trkpt lat="45.55" lon="4.43077">
        <ele>798.541</ele>
      </trkpt>
      <trkpt lat="45.54979" lon="4.42958">
        <ele>785.893</ele>
      </trkpt>
      <trkpt lat="45.54957" lon="4.42738">
        <ele>756.273</ele>
      </trkpt>
      <trkpt lat="45.54927" lon="4.42555">
        <ele>741.256</ele>
      </trkpt>
      <trkpt lat="45.5493" lon="4.42535">
        <ele>740.734</ele>
      </trkpt>
      <trkpt lat="45.54865" lon="4.42473">
        <ele>738.175</ele>
      </trkpt>
      <trkpt lat="45.54776" lon="4.42381">
        <ele>731.52</ele>
      </trkpt>
      <trkpt lat="45.54657" lon="4.42371">
        <ele>711.624</ele>
      </trkpt>
      <trkpt lat="45.54614" lon="4.42387">
        <ele>706.344</ele>
      </trkpt>
      <trkpt lat="45.54523" lon="4.42373">
        <ele>704.196</ele>
      </trkpt>
      <trkpt lat="45.54465" lon="4.42383">
        <ele>704.372</ele>
      </trkpt>
      <trkpt lat="45.54408" lon="4.42358">
        <ele>698.395</ele>
      </trkpt>
      <trkpt lat="45.54374" lon="4.42329">
        <ele>691.612</ele>
      </trkpt>
      <trkpt lat="45.54347" lon="4.42216">
        <ele>692.565</ele>
      </trkpt>
      <trkpt lat="45.54347" lon="4.42161">
        <ele>692.685</ele>
      </trkpt>
      <trkpt lat="45.54366" lon="4.42058">
        <ele>692.926</ele>
      </trkpt>
      <trkpt lat="45.54371" lon="4.41905">
        <ele>701.108</ele>
      </trkpt>
      <trkpt lat="45.54416" lon="4.41859">
        <ele>697.11</ele>
      </trkpt>
      <trkpt lat="45.54433" lon="4.41781">
        <ele>689.969</ele>
      </trkpt>
      <trkpt lat="45.54379" lon="4.41675">
        <ele>693.773</ele>
      </trkpt>
      <trkpt lat="45.54408" lon="4.41568">
        <ele>703.274</ele>
      </trkpt>
      <trkpt lat="45.54421" lon="4.41502">
        <ele>701.64</ele>
      </trkpt>
      <trkpt lat="45.54316" lon="4.41258">
        <ele>689.242</ele>
      </trkpt>
      <trkpt lat="45.54313" lon="4.41038">
        <ele>692.16</ele>
      </trkpt>
      <trkpt lat="45.54312" lon="4.40963">
        <ele>697.048</ele>
      </trkpt>
      <trkpt lat="45.54331" lon="4.40829">
        <ele>713.297</ele>
      </trkpt>
      <trkpt lat="45.54271" lon="4.40761">
        <ele>721.968</ele>
      </trkpt>
      <trkpt lat="45.54193" lon="4.40722">
        <ele>732.298</ele>
      </trkpt>
      <trkpt lat="45.54115" lon="4.40622">
        <ele>745.066</ele>
      </trkpt>
      <trkpt lat="45.54076" lon="4.40601">
        <ele>750.276</ele>
      </trkpt>
      <trkpt lat="45.53952" lon="4.40467">
        <ele>767.239</ele>
      </trkpt>
      <trkpt lat="45.53943" lon="4.40463">
        <ele>768.617</ele>
      </trkpt>
      <trkpt lat="45.53942" lon="4.40443">
        <ele>767.261</ele>
      </trkpt>
      <trkpt lat="45.53916" lon="4.40415">
        <ele>767.861</ele>
      </trkpt>
      <trkpt lat="45.53906" lon="4.40408">
        <ele>768.161</ele>
      </trkpt>
      <trkpt lat="45.53863" lon="4.4038">
        <ele>768.599</ele>
      </trkpt>
      <trkpt lat="45.53775" lon="4.40325">
        <ele>768.462</ele>
      </trkpt>
      <trkpt lat="45.5375" lon="4.40287">
        <ele>768.925</ele>
      </trkpt>
      <trkpt lat="45.53714" lon="4.40253">
        <ele>770.469</ele>
      </trkpt>
      <trkpt lat="45.53647" lon="4.402">
        <ele>773.827</ele>
      </trkpt>
      <trkpt lat="45.53618" lon="4.40113">
        <ele>778.707</ele>
      </trkpt>
      <trkpt lat="45.53586" lon="4.39998">
        <ele>781.619</ele>
      </trkpt>
      <trkpt lat="45.53518" lon="4.39931">
        <ele>784.563</ele>
      </trkpt>
      <trkpt lat="45.53485" lon="4.39892">
        <ele>783.172</ele>
      </trkpt>
      <trkpt lat="45.53437" lon="4.39872">
        <ele>778.583</ele>
      </trkpt>
      <trkpt lat="45.53394" lon="4.39874">
        <ele>772.681</ele>
      </trkpt>
      <trkpt lat="45.53368" lon="4.39886">
        <ele>771.218</ele>
      </trkpt>
      <trkpt lat="45.53296" lon="4.39873">
        <ele>767.339</ele>
      </trkpt>
      <trkpt lat="45.53278" lon="4.39864">
        <ele>767.102</ele>
      </trkpt>
      <trkpt lat="45.53242" lon="4.3981">
        <ele>762.809</ele>
      </trkpt>
      <trkpt lat="45.532" lon="4.39764">
        <ele>759.394</ele>
      </trkpt>
      <trkpt lat="45.53146" lon="4.39736">
        <ele>757.313</ele>
      </trkpt>
      <trkpt lat="45.53117" lon="4.39686">
        <ele>759.859</ele>
      </trkpt>
      <trkpt lat="45.53102" lon="4.39658">
        <ele>760.344</ele>
      </trkpt>
      <trkpt lat="45.53048" lon="4.39625">
        <ele>761.596</ele>
      </trkpt>
      <trkpt lat="45.53008" lon="4.39603">
        <ele>762.179</ele>
      </trkpt>
      <trkpt lat="45.52981" lon="4.396">
        <ele>763.768</ele>
      </trkpt>
      <trkpt lat="45.52899" lon="4.3955">
        <ele>768.346</ele>
      </trkpt>
      <trkpt lat="45.52878" lon="4.39524">
        <ele>767.426</ele>
      </trkpt>
      <trkpt lat="45.5277" lon="4.39469">
        <ele>765.817</ele>
      </trkpt>
      <trkpt lat="45.52717" lon="4.39269">
        <ele>766.259</ele>
      </trkpt>
      <trkpt lat="45.52622" lon="4.39064">
        <ele>767.775</ele>
      </trkpt>
      <trkpt lat="45.52586" lon="4.38988">
        <ele>766.196</ele>
      </trkpt>
      <trkpt lat="45.52504" lon="4.38921">
        <ele>758.284</ele>
      </trkpt>
      <trkpt lat="45.5241" lon="4.38713">
        <ele>741.42</ele>
      </trkpt>
      <trkpt lat="45.52399" lon="4.38676">
        <ele>740.13</ele>
      </trkpt>
      <trkpt lat="45.52331" lon="4.38674">
        <ele>738.594</ele>
      </trkpt>
      <trkpt lat="45.52155" lon="4.38728">
        <ele>721.17</ele>
      </trkpt>
      <trkpt lat="45.52044" lon="4.38666">
        <ele>722.514</ele>
      </trkpt>
      <trkpt lat="45.51909" lon="4.38518">
        <ele>720.075</ele>
      </trkpt>
      <trkpt lat="45.51717" lon="4.38393">
        <ele>703.574</ele>
      </trkpt>
      <trkpt lat="45.51543" lon="4.38276">
        <ele>693.92</ele>
      </trkpt>
      <trkpt lat="45.51471" lon="4.38146">
        <ele>690.028</ele>
      </trkpt>
      <trkpt lat="45.51485" lon="4.37959">
        <ele>680.587</ele>
      </trkpt>
      <trkpt lat="45.51458" lon="4.37862">
        <ele>675.442</ele>
      </trkpt>
      <trkpt lat="45.51501" lon="4.37805">
        <ele>675.937</ele>
      </trkpt>
      <trkpt lat="45.51593" lon="4.37766">
        <ele>666.059</ele>
      </trkpt>
      <trkpt lat="45.51534" lon="4.376">
        <ele>661.292</ele>
      </trkpt>
      <trkpt lat="45.51464" lon="4.37545">
        <ele>657.78</ele>
      </trkpt>
      <trkpt lat="45.51415" lon="4.37464">
        <ele>655.719</ele>
      </trkpt>
      <trkpt lat="45.51341" lon="4.37347">
        <ele>644.865</ele>
      </trkpt>
      <trkpt lat="45.51261" lon="4.37173">
        <ele>639.565</ele>
      </trkpt>
      <trkpt lat="45.51298" lon="4.36875">
        <ele>637.869</ele>
      </trkpt>
      <trkpt lat="45.51348" lon="4.36714">
        <ele>637.128</ele>
      </trkpt>
      <trkpt lat="45.51366" lon="4.36553">
        <ele>630.427</ele>
      </trkpt>
      <trkpt lat="45.51397" lon="4.36329">
        <ele>620.176</ele>
      </trkpt>
      <trkpt lat="45.51384" lon="4.3622">
        <ele>620.348</ele>
      </trkpt>
      <trkpt lat="45.51366" lon="4.36134">
        <ele>612.61</ele>
      </trkpt>
      <trkpt lat="45.513" lon="4.36069">
        <ele>608.865</ele>
      </trkpt>
      <trkpt lat="45.51167" lon="4.35978">
        <ele>603.806</ele>
      </trkpt>
      <trkpt lat="45.51054" lon="4.35916">
        <ele>593.687</ele>
      </trkpt>
      <trkpt lat="45.50865" lon="4.35797">
        <ele>576.736</ele>
      </trkpt>
      <trkpt lat="45.50696" lon="4.35763">
        <ele>569.584</ele>
      </trkpt>
      <trkpt lat="45.5064" lon="4.35732">
        <ele>565.796</ele>
      </trkpt>
      <trkpt lat="45.50586" lon="4.35638">
        <ele>556.157</ele>
      </trkpt>
      <trkpt lat="45.50561" lon="4.35576">
        <ele>549.545</ele>
      </trkpt>
      <trkpt lat="45.50403" lon="4.35378">
        <ele>530.924</ele>
      </trkpt>
      <trkpt lat="45.50364" lon="4.3536">
        <ele>529.082</ele>
      </trkpt>
      <trkpt lat="45.503" lon="4.35487">
        <ele>520.319</ele>
      </trkpt>
      <trkpt lat="45.50257" lon="4.35563">
        <ele>511.634</ele>
      </trkpt>
      <trkpt lat="45.50245" lon="4.35571">
        <ele>510.606</ele>
      </trkpt>
      <trkpt lat="45.5025" lon="4.35599">
        <ele>510.995</ele>
      </trkpt>
      <trkpt lat="45.50157" lon="4.35667">
        <ele>512.282</ele>
      </trkpt>
      <trkpt lat="45.50101" lon="4.35698">
        <ele>510.72</ele>
      </trkpt>
      <trkpt lat="45.50086" lon="4.35805">
        <ele>505.956</ele>
      </trkpt>
      <trkpt lat="45.50112" lon="4.35854">
        <ele>507.431</ele>
      </trkpt>
      <trkpt lat="45.50137" lon="4.35901">
        <ele>506.479</ele>
      </trkpt>
      <trkpt lat="45.50106" lon="4.3595">
        <ele>503.777</ele>
      </trkpt>
      <trkpt lat="45.50033" lon="4.3594">
        <ele>509.961</ele>
      </trkpt>
      <trkpt lat="45.49945" lon="4.36005">
        <ele>527.341</ele>
      </trkpt>
      <trkpt lat="45.49891" lon="4.36267">
        <ele>544.628</ele>
      </trkpt>
      <trkpt lat="45.49819" lon="4.36234">
        <ele>545.69</ele>
      </trkpt>
      <trkpt lat="45.49496" lon="4.35888">
        <ele>542.232</ele>
      </trkpt>
      <trkpt lat="45.49422" lon="4.35885">
        <ele>541.354</ele>
      </trkpt>
      <trkpt lat="45.49368" lon="4.35841">
        <ele>540.018</ele>
      </trkpt>
      <trkpt lat="45.49284" lon="4.35849">
        <ele>539.426</ele>
      </trkpt>
      <trkpt lat="45.49232" lon="4.35794">
        <ele>538.176</ele>
      </trkpt>
      <trkpt lat="45.49202" lon="4.35581">
        <ele>542.424</ele>
      </trkpt>
      <trkpt lat="45.49218" lon="4.35404">
        <ele>537.223</ele>
      </trkpt>
      <trkpt lat="45.4922" lon="4.35274">
        <ele>535.783</ele>
      </trkpt>
      <trkpt lat="45.492" lon="4.35165">
        <ele>531.936</ele>
      </trkpt>
      <trkpt lat="45.49137" lon="4.35027">
        <ele>525.925</ele>
      </trkpt>
      <trkpt lat="45.48889" lon="4.351">
        <ele>513.001</ele>
      </trkpt>
      <trkpt lat="45.48855" lon="4.35069">
        <ele>510.424</ele>
      </trkpt>
      <trkpt lat="45.48748" lon="4.35121">
        <ele>502.597</ele>
      </trkpt>
      <trkpt lat="45.48646" lon="4.35136">
        <ele>493.859</ele>
      </trkpt>
      <trkpt lat="45.48497" lon="4.35108">
        <ele>480</ele>
      </trkpt>
      <trkpt lat="45.48341" lon="4.35181">
        <ele>459.039</ele>
      </trkpt>
      <trkpt lat="45.48193" lon="4.35235">
        <ele>445.356</ele>
      </trkpt>
      <trkpt lat="45.48189" lon="4.35229">
        <ele>444.822</ele>
      </trkpt>
      <trkpt lat="45.4819" lon="4.35168">
        <ele>443.698</ele>
      </trkpt>
      <trkpt lat="45.48191" lon="4.35152">
        <ele>442.678</ele>
      </trkpt>
      <trkpt lat="45.48206" lon="4.35066">
        <ele>442.163</ele>
      </trkpt>
      <trkpt lat="45.48216" lon="4.35035">
        <ele>441.148</ele>
      </trkpt>
      <trkpt lat="45.48223" lon="4.3501">
        <ele>440.391</ele>
      </trkpt>
      <trkpt lat="45.48219" lon="4.34994">
        <ele>440</ele>
      </trkpt>
      <trkpt lat="45.48204" lon="4.34974">
        <ele>440</ele>
      </trkpt>
      <trkpt lat="45.48175" lon="4.34953">
        <ele>439.099</ele>
      </trkpt>
      <trkpt lat="45.48088" lon="4.34893">
        <ele>438.6</ele>
      </trkpt>
      <trkpt lat="45.48063" lon="4.34877">
        <ele>439.489</ele>
      </trkpt>
      <trkpt lat="45.48055" lon="4.34859">
        <ele>439.843</ele>
      </trkpt>
      <trkpt lat="45.48049" lon="4.34856">
        <ele>439.565</ele>
      </trkpt>
      <trkpt lat="45.48038" lon="4.34861">
        <ele>439.98</ele>
      </trkpt>
      <trkpt lat="45.48011" lon="4.34845">
        <ele>438.721</ele>
      </trkpt>
      <trkpt lat="45.4793" lon="4.34792">
        <ele>434.816</ele>
      </trkpt>
      <trkpt lat="45.47891" lon="4.34766">
        <ele>436.975</ele>
      </trkpt>
      <trkpt lat="45.47879" lon="4.34752">
        <ele>437.324</ele>
      </trkpt>
      <trkpt lat="45.47878" lon="4.3474">
        <ele>437.049</ele>
      </trkpt>
      <trkpt lat="45.47871" lon="4.34731">
        <ele>436.964</ele>
      </trkpt>
      <trkpt lat="45.47862" lon="4.34729">
        <ele>437.201</ele>
      </trkpt>
      <trkpt lat="45.47852" lon="4.34732">
        <ele>437.23</ele>
      </trkpt>
      <trkpt lat="45.47843" lon="4.34734">
        <ele>437.133</ele>
      </trkpt>
      <trkpt lat="45.47806" lon="4.34709">
        <ele>438.037</ele>
      </trkpt>
      <trkpt lat="45.4775" lon="4.34672">
        <ele>438.008</ele>
      </trkpt>
      <trkpt lat="45.47657" lon="4.34613">
        <ele>439.95</ele>
      </trkpt>
      <trkpt lat="45.4757" lon="4.34574">
        <ele>442.155</ele>
      </trkpt>
      <trkpt lat="45.47496" lon="4.34556">
        <ele>442.998</ele>
      </trkpt>
      <trkpt lat="45.47429" lon="4.34554">
        <ele>443.987</ele>
      </trkpt>
      <trkpt lat="45.47372" lon="4.34552">
        <ele>446.402</ele>
      </trkpt>
      <trkpt lat="45.47298" lon="4.3455">
        <ele>449.397</ele>
      </trkpt>
      <trkpt lat="45.47204" lon="4.34548">
        <ele>452.809</ele>
      </trkpt>
      <trkpt lat="45.47134" lon="4.34537">
        <ele>454.239</ele>
      </trkpt>
      <trkpt lat="45.47083" lon="4.34524">
        <ele>457.3</ele>
      </trkpt>
      <trkpt lat="45.4702" lon="4.34497">
        <ele>460.008</ele>
      </trkpt>
      <trkpt lat="45.46954" lon="4.34467">
        <ele>463.226</ele>
      </trkpt>
      <trkpt lat="45.46847" lon="4.34418">
        <ele>466.601</ele>
      </trkpt>
      <trkpt lat="45.46792" lon="4.34393">
        <ele>469.988</ele>
      </trkpt>
      <trkpt lat="45.46744" lon="4.34352">
        <ele>472.674</ele>
      </trkpt>
      <trkpt lat="45.46736" lon="4.34345">
        <ele>473.152</ele>
      </trkpt>
      <trkpt lat="45.46699" lon="4.34297">
        <ele>472.076</ele>
      </trkpt>
      <trkpt lat="45.46692" lon="4.34287">
        <ele>471.91</ele>
      </trkpt>
      <trkpt lat="45.46681" lon="4.34265">
        <ele>473.703</ele>
      </trkpt>
      <trkpt lat="45.46659" lon="4.34216">
        <ele>473.286</ele>
      </trkpt>
      <trkpt lat="45.46641" lon="4.34164">
        <ele>471.645</ele>
      </trkpt>
      <trkpt lat="45.46616" lon="4.34045">
        <ele>470.878</ele>
      </trkpt>
      <trkpt lat="45.46606" lon="4.33997">
        <ele>468.772</ele>
      </trkpt>
      <trkpt lat="45.46575" lon="4.33907">
        <ele>464.786</ele>
      </trkpt>
      <trkpt lat="45.46548" lon="4.33851">
        <ele>461.843</ele>
      </trkpt>
      <trkpt lat="45.46514" lon="4.33803">
        <ele>460.303</ele>
      </trkpt>
      <trkpt lat="45.46485" lon="4.33766">
        <ele>458.903</ele>
      </trkpt>
      <trkpt lat="45.46395" lon="4.33693">
        <ele>462.337</ele>
      </trkpt>
      <trkpt lat="45.46349" lon="4.33671">
        <ele>464.302</ele>
      </trkpt>
      <trkpt lat="45.46283" lon="4.33657">
        <ele>467.74</ele>
      </trkpt>
      <trkpt lat="45.46222" lon="4.33655">
        <ele>471.423</ele>
      </trkpt>
      <trkpt lat="45.46144" lon="4.33679">
        <ele>476.233</ele>
      </trkpt>
      <trkpt lat="45.46094" lon="4.33707">
        <ele>478.031</ele>
      </trkpt>
      <trkpt lat="45.46048" lon="4.33731">
        <ele>481.429</ele>
      </trkpt>
      <trkpt lat="45.45982" lon="4.33775">
        <ele>485.025</ele>
      </trkpt>
      <trkpt lat="45.45906" lon="4.33814">
        <ele>489.422</ele>
      </trkpt>
      <trkpt lat="45.4569" lon="4.33866">
        <ele>496.525</ele>
      </trkpt>
      <trkpt lat="45.45151" lon="4.3373">
        <ele>527.361</ele>
      </trkpt>
      <trkpt lat="45.44926" lon="4.33717">
        <ele>537.413</ele>
      </trkpt>
      <trkpt lat="45.4481" lon="4.33762">
        <ele>544.217</ele>
      </trkpt>
      <trkpt lat="45.44655" lon="4.33859">
        <ele>551.115</ele>
      </trkpt>
      <trkpt lat="45.44497" lon="4.34025">
        <ele>560.731</ele>
      </trkpt>
      <trkpt lat="45.44366" lon="4.34173">
        <ele>567.907</ele>
      </trkpt>
      <trkpt lat="45.4429" lon="4.34215">
        <ele>573.754</ele>
      </trkpt>
      <trkpt lat="45.44192" lon="4.34225">
        <ele>576.947</ele>
      </trkpt>
      <trkpt lat="45.44111" lon="4.34205">
        <ele>577.287</ele>
      </trkpt>
      <trkpt lat="45.44001" lon="4.34153">
        <ele>575.081</ele>
      </trkpt>
      <trkpt lat="45.4394" lon="4.34137">
        <ele>573.939</ele>
      </trkpt>
      <trkpt lat="45.43856" lon="4.34121">
        <ele>573.634</ele>
      </trkpt>
      <trkpt lat="45.43726" lon="4.34163">
        <ele>573.468</ele>
      </trkpt>
      <trkpt lat="45.43611" lon="4.34283">
        <ele>572.001</ele>
      </trkpt>
      <trkpt lat="45.43524" lon="4.34413">
        <ele>570.502</ele>
      </trkpt>
      <trkpt lat="45.43427" lon="4.34519">
        <ele>566.967</ele>
      </trkpt>
      <trkpt lat="45.43326" lon="4.346">
        <ele>567.654</ele>
      </trkpt>
      <trkpt lat="45.43193" lon="4.3467">
        <ele>567.84</ele>
      </trkpt>
      <trkpt lat="45.43073" lon="4.34753">
        <ele>567.674</ele>
      </trkpt>
      <trkpt lat="45.42983" lon="4.34847">
        <ele>572.762</ele>
      </trkpt>
      <trkpt lat="45.429" lon="4.35018">
        <ele>571.598</ele>
      </trkpt>
      <trkpt lat="45.42871" lon="4.35169">
        <ele>582.748</ele>
      </trkpt>
      <trkpt lat="45.42841" lon="4.35312">
        <ele>588.425</ele>
      </trkpt>
      <trkpt lat="45.42792" lon="4.35458">
        <ele>589.516</ele>
      </trkpt>
      <trkpt lat="45.42613" lon="4.35861">
        <ele>607.758</ele>
      </trkpt>
      <trkpt lat="45.42437" lon="4.36196">
        <ele>626.599</ele>
      </trkpt>
      <trkpt lat="45.42363" lon="4.36443">
        <ele>633.133</ele>
      </trkpt>
      <trkpt lat="45.42266" lon="4.36621">
        <ele>637.186</ele>
      </trkpt>
      <trkpt lat="45.42038" lon="4.36857">
        <ele>641.432</ele>
      </trkpt>
      <trkpt lat="45.41749" lon="4.37133">
        <ele>632.234</ele>
      </trkpt>
      <trkpt lat="45.41492" lon="4.37396">
        <ele>622.121</ele>
      </trkpt>
      <trkpt lat="45.41358" lon="4.37501">
        <ele>624.723</ele>
      </trkpt>
      <trkpt lat="45.41207" lon="4.37579">
        <ele>619.258</ele>
      </trkpt>
      <trkpt lat="45.41015" lon="4.37657">
        <ele>616.194</ele>
      </trkpt>
      <trkpt lat="45.40819" lon="4.37673">
        <ele>612.098</ele>
      </trkpt>
      <trkpt lat="45.40697" lon="4.37626">
        <ele>604.036</ele>
      </trkpt>
      <trkpt lat="45.40557" lon="4.37591">
        <ele>603.011</ele>
      </trkpt>
      <trkpt lat="45.40511" lon="4.37556">
        <ele>598.763</ele>
      </trkpt>
      <trkpt lat="45.40498" lon="4.37462">
        <ele>594.75</ele>
      </trkpt>
      <trkpt lat="45.40484" lon="4.37376">
        <ele>591.715</ele>
      </trkpt>
      <trkpt lat="45.40511" lon="4.37189">
        <ele>584.145</ele>
      </trkpt>
      <trkpt lat="45.40519" lon="4.37177">
        <ele>583.874</ele>
      </trkpt>
      <trkpt lat="45.40519" lon="4.37158">
        <ele>584</ele>
      </trkpt>
      <trkpt lat="45.40508" lon="4.3715">
        <ele>584</ele>
      </trkpt>
      <trkpt lat="45.40507" lon="4.37073">
        <ele>581.136</ele>
      </trkpt>
      <trkpt lat="45.40501" lon="4.36986">
        <ele>578.464</ele>
      </trkpt>
      <trkpt lat="45.40482" lon="4.36921">
        <ele>577.676</ele>
      </trkpt>
      <trkpt lat="45.40406" lon="4.36721">
        <ele>569.928</ele>
      </trkpt>
      <trkpt lat="45.4038" lon="4.36736">
        <ele>571.19</ele>
      </trkpt>
      <trkpt lat="45.4035" lon="4.36743">
        <ele>572.523</ele>
      </trkpt>
      <trkpt lat="45.40318" lon="4.36777">
        <ele>573.874</ele>
      </trkpt>
      <trkpt lat="45.40274" lon="4.3682">
        <ele>574.122</ele>
      </trkpt>
      <trkpt lat="45.40204" lon="4.36833">
        <ele>572.292</ele>
      </trkpt>
      <trkpt lat="45.40183" lon="4.36837">
        <ele>572.325</ele>
      </trkpt>
      <trkpt lat="45.40172" lon="4.36824">
        <ele>572.672</ele>
      </trkpt>
      <trkpt lat="45.40159" lon="4.36824">
        <ele>573.354</ele>
      </trkpt>
      <trkpt lat="45.40131" lon="4.36794">
        <ele>575.719</ele>
      </trkpt>
      <trkpt lat="45.40127" lon="4.36756">
        <ele>576.729</ele>
      </trkpt>
      <trkpt lat="45.40136" lon="4.36691">
        <ele>578.536</ele>
      </trkpt>
      <trkpt lat="45.40138" lon="4.36658">
        <ele>579.437</ele>
      </trkpt>
      <trkpt lat="45.40135" lon="4.3663">
        <ele>580.775</ele>
      </trkpt>
      <trkpt lat="45.40133" lon="4.36604">
        <ele>581.795</ele>
      </trkpt>
      <trkpt lat="45.40116" lon="4.36543">
        <ele>583.54</ele>
      </trkpt>
      <trkpt lat="45.40083" lon="4.36472">
        <ele>584.072</ele>
      </trkpt>
      <trkpt lat="45.40059" lon="4.36432">
        <ele>582.481</ele>
      </trkpt>
      <trkpt lat="45.4001" lon="4.36405">
        <ele>583.972</ele>
      </trkpt>
      <trkpt lat="45.39981" lon="4.36401">
        <ele>584.798</ele>
      </trkpt>
      <trkpt lat="45.39935" lon="4.36405">
        <ele>588.232</ele>
      </trkpt>
      <trkpt lat="45.39827" lon="4.36435">
        <ele>597.475</ele>
      </trkpt>
      <trkpt lat="45.39738" lon="4.36461">
        <ele>607.058</ele>
      </trkpt>
      <trkpt lat="45.39712" lon="4.36478">
        <ele>609.205</ele>
      </trkpt>
      <trkpt lat="45.39698" lon="4.36504">
        <ele>609.626</ele>
      </trkpt>
      <trkpt lat="45.39698" lon="4.36532">
        <ele>610.06</ele>
      </trkpt>
      <trkpt lat="45.39702" lon="4.36557">
        <ele>611.643</ele>
      </trkpt>
      <trkpt lat="45.39714" lon="4.36571">
        <ele>612.671</ele>
      </trkpt>
      <trkpt lat="45.39766" lon="4.36579">
        <ele>614.473</ele>
      </trkpt>
      <trkpt lat="45.39788" lon="4.366">
        <ele>616.202</ele>
      </trkpt>
      <trkpt lat="45.39797" lon="4.36648">
        <ele>617.937</ele>
      </trkpt>
      <trkpt lat="45.39768" lon="4.36717">
        <ele>621.321</ele>
      </trkpt>
      <trkpt lat="45.39736" lon="4.36774">
        <ele>626.134</ele>
      </trkpt>
      <trkpt lat="45.39727" lon="4.36803">
        <ele>628.755</ele>
      </trkpt>
      <trkpt lat="45.39728" lon="4.36837">
        <ele>629.35</ele>
      </trkpt>
      <trkpt lat="45.39748" lon="4.36889">
        <ele>629.024</ele>
      </trkpt>
      <trkpt lat="45.39777" lon="4.36944">
        <ele>632.069</ele>
      </trkpt>
      <trkpt lat="45.39781" lon="4.36993">
        <ele>633.683</ele>
      </trkpt>
      <trkpt lat="45.39772" lon="4.37048">
        <ele>636.557</ele>
      </trkpt>
      <trkpt lat="45.39773" lon="4.37082">
        <ele>637.701</ele>
      </trkpt>
      <trkpt lat="45.39798" lon="4.37156">
        <ele>637.027</ele>
      </trkpt>
      <trkpt lat="45.39797" lon="4.37178">
        <ele>637.27</ele>
      </trkpt>
      <trkpt lat="45.39783" lon="4.37202">
        <ele>637.924</ele>
      </trkpt>
      <trkpt lat="45.39772" lon="4.37207">
        <ele>638.998</ele>
      </trkpt>
      <trkpt lat="45.39748" lon="4.3719">
        <ele>645.53</ele>
      </trkpt>
      <trkpt lat="45.39738" lon="4.37142">
        <ele>645.948</ele>
      </trkpt>
      <trkpt lat="45.39627" lon="4.37029">
        <ele>654.814</ele>
      </trkpt>
      <trkpt lat="45.39508" lon="4.36874">
        <ele>663.477</ele>
      </trkpt>
      <trkpt lat="45.39431" lon="4.36821">
        <ele>670.046</ele>
      </trkpt>
      <trkpt lat="45.39399" lon="4.36782">
        <ele>673.915</ele>
      </trkpt>
      <trkpt lat="45.39386" lon="4.36719">
        <ele>675.801</ele>
      </trkpt>
      <trkpt lat="45.39376" lon="4.36621">
        <ele>679.032</ele>
      </trkpt>
      <trkpt lat="45.39377" lon="4.36448">
        <ele>687.219</ele>
      </trkpt>
      <trkpt lat="45.3936" lon="4.36361">
        <ele>689.322</ele>
      </trkpt>
      <trkpt lat="45.39319" lon="4.36287">
        <ele>693.304</ele>
      </trkpt>
      <trkpt lat="45.39297" lon="4.36213">
        <ele>695.899</ele>
      </trkpt>
      <trkpt lat="45.39272" lon="4.36202">
        <ele>698.113</ele>
      </trkpt>
      <trkpt lat="45.39253" lon="4.362">
        <ele>697.972</ele>
      </trkpt>
      <trkpt lat="45.39245" lon="4.36221">
        <ele>696.76</ele>
      </trkpt>
      <trkpt lat="45.39231" lon="4.3626">
        <ele>694.585</ele>
      </trkpt>
      <trkpt lat="45.39211" lon="4.36417">
        <ele>700.999</ele>
      </trkpt>
      <trkpt lat="45.39208" lon="4.36475">
        <ele>704.572</ele>
      </trkpt>
      <trkpt lat="45.39222" lon="4.3662">
        <ele>708.173</ele>
      </trkpt>
      <trkpt lat="45.39222" lon="4.3668">
        <ele>710.802</ele>
      </trkpt>
      <trkpt lat="45.39199" lon="4.36761">
        <ele>713.178</ele>
      </trkpt>
      <trkpt lat="45.39154" lon="4.3683">
        <ele>717.492</ele>
      </trkpt>
      <trkpt lat="45.3911" lon="4.36873">
        <ele>719.303</ele>
      </trkpt>
      <trkpt lat="45.39035" lon="4.36985">
        <ele>723.134</ele>
      </trkpt>
      <trkpt lat="45.38998" lon="4.37038">
        <ele>723.267</ele>
      </trkpt>
      <trkpt lat="45.38976" lon="4.37128">
        <ele>725.141</ele>
      </trkpt>
      <trkpt lat="45.38968" lon="4.37265">
        <ele>727.301</ele>
      </trkpt>
      <trkpt lat="45.38978" lon="4.3738">
        <ele>735.37</ele>
      </trkpt>
      <trkpt lat="45.3895" lon="4.3748">
        <ele>739.11</ele>
      </trkpt>
      <trkpt lat="45.38909" lon="4.3758">
        <ele>742.492</ele>
      </trkpt>
      <trkpt lat="45.38895" lon="4.37636">
        <ele>743.889</ele>
      </trkpt>
      <trkpt lat="45.38882" lon="4.3769">
        <ele>750.195</ele>
      </trkpt>
      <trkpt lat="45.38839" lon="4.37714">
        <ele>751.687</ele>
      </trkpt>
      <trkpt lat="45.38782" lon="4.37757">
        <ele>754.862</ele>
      </trkpt>
      <trkpt lat="45.38753" lon="4.3779">
        <ele>754.089</ele>
      </trkpt>
      <trkpt lat="45.3873" lon="4.37838">
        <ele>758.951</ele>
      </trkpt>
      <trkpt lat="45.38652" lon="4.37911">
        <ele>764.535</ele>
      </trkpt>
      <trkpt lat="45.38595" lon="4.37969">
        <ele>770.829</ele>
      </trkpt>
      <trkpt lat="45.38541" lon="4.37958">
        <ele>771.144</ele>
      </trkpt>
      <trkpt lat="45.38509" lon="4.37942">
        <ele>768.241</ele>
      </trkpt>
      <trkpt lat="45.38485" lon="4.37965">
        <ele>773.125</ele>
      </trkpt>
      <trkpt lat="45.38449" lon="4.38018">
        <ele>772.818</ele>
      </trkpt>
      <trkpt lat="45.38406" lon="4.38083">
        <ele>779.203</ele>
      </trkpt>
      <trkpt lat="45.38349" lon="4.38139">
        <ele>782.345</ele>
      </trkpt>
      <trkpt lat="45.3825" lon="4.38243">
        <ele>787.606</ele>
      </trkpt>
      <trkpt lat="45.38234" lon="4.38315">
        <ele>788.82</ele>
      </trkpt>
      <trkpt lat="45.3825" lon="4.38397">
        <ele>793.292</ele>
      </trkpt>
      <trkpt lat="45.38296" lon="4.38455">
        <ele>794.176</ele>
      </trkpt>
      <trkpt lat="45.38369" lon="4.38471">
        <ele>799.721</ele>
      </trkpt>
      <trkpt lat="45.38384" lon="4.38521">
        <ele>797.694</ele>
      </trkpt>
      <trkpt lat="45.38427" lon="4.38542">
        <ele>801.335</ele>
      </trkpt>
      <trkpt lat="45.38459" lon="4.38559">
        <ele>803.221</ele>
      </trkpt>
      <trkpt lat="45.3848" lon="4.38615">
        <ele>808.523</ele>
      </trkpt>
      <trkpt lat="45.38422" lon="4.38697">
        <ele>814.525</ele>
      </trkpt>
      <trkpt lat="45.38253" lon="4.38785">
        <ele>817.273</ele>
      </trkpt>
      <trkpt lat="45.38249" lon="4.38859">
        <ele>824.396</ele>
      </trkpt>
      <trkpt lat="45.38231" lon="4.38988">
        <ele>825.289</ele>
      </trkpt>
      <trkpt lat="45.38225" lon="4.39078">
        <ele>829.132</ele>
      </trkpt>
      <trkpt lat="45.38206" lon="4.3912">
        <ele>832.205</ele>
      </trkpt>
      <trkpt lat="45.3808" lon="4.39129">
        <ele>835.914</ele>
      </trkpt>
      <trkpt lat="45.38022" lon="4.39173">
        <ele>840.03</ele>
      </trkpt>
      <trkpt lat="45.38015" lon="4.39398">
        <ele>849.15</ele>
      </trkpt>
      <trkpt lat="45.37981" lon="4.39624">
        <ele>855.301</ele>
      </trkpt>
      <trkpt lat="45.38064" lon="4.39798">
        <ele>866.614</ele>
      </trkpt>
      <trkpt lat="45.38189" lon="4.40042">
        <ele>872.836</ele>
      </trkpt>
      <trkpt lat="45.38258" lon="4.40128">
        <ele>879.065</ele>
      </trkpt>
      <trkpt lat="45.38263" lon="4.40188">
        <ele>877.085</ele>
      </trkpt>
      <trkpt lat="45.38247" lon="4.40234">
        <ele>880.787</ele>
      </trkpt>
      <trkpt lat="45.38174" lon="4.40264">
        <ele>883.933</ele>
      </trkpt>
      <trkpt lat="45.38247" lon="4.40287">
        <ele>891.764</ele>
      </trkpt>
      <trkpt lat="45.38363" lon="4.40358">
        <ele>904.835</ele>
      </trkpt>
      <trkpt lat="45.38376" lon="4.40381">
        <ele>904.469</ele>
      </trkpt>
      <trkpt lat="45.38262" lon="4.40492">
        <ele>914.612</ele>
      </trkpt>
      <trkpt lat="45.38153" lon="4.40691">
        <ele>923.834</ele>
      </trkpt>
      <trkpt lat="45.38081" lon="4.40971">
        <ele>943.976</ele>
      </trkpt>
      <trkpt lat="45.38017" lon="4.41227">
        <ele>965.129</ele>
      </trkpt>
      <trkpt lat="45.38025" lon="4.41279">
        <ele>970.004</ele>
      </trkpt>
      <trkpt lat="45.37994" lon="4.41375">
        <ele>975.178</ele>
      </trkpt>
      <trkpt lat="45.37942" lon="4.41516">
        <ele>983.078</ele>
      </trkpt>
      <trkpt lat="45.37877" lon="4.41643">
        <ele>996.372</ele>
      </trkpt>
      <trkpt lat="45.37764" lon="4.41752">
        <ele>1012.319</ele>
      </trkpt>
      <trkpt lat="45.37689" lon="4.41789">
        <ele>1016.159</ele>
      </trkpt>
      <trkpt lat="45.37595" lon="4.41781">
        <ele>1025.634</ele>
      </trkpt>
      <trkpt lat="45.37527" lon="4.41815">
        <ele>1035.71</ele>
      </trkpt>
      <trkpt lat="45.37481" lon="4.41872">
        <ele>1041.195</ele>
      </trkpt>
      <trkpt lat="45.37441" lon="4.41945">
        <ele>1044.777</ele>
      </trkpt>
      <trkpt lat="45.37413" lon="4.4203">
        <ele>1047.647</ele>
      </trkpt>
      <trkpt lat="45.37389" lon="4.4216">
        <ele>1050.814</ele>
      </trkpt>
      <trkpt lat="45.37384" lon="4.42298">
        <ele>1053.078</ele>
      </trkpt>
      <trkpt lat="45.37396" lon="4.42467">
        <ele>1056.074</ele>
      </trkpt>
      <trkpt lat="45.3737" lon="4.42638">
        <ele>1057.596</ele>
      </trkpt>
      <trkpt lat="45.37326" lon="4.42732">
        <ele>1063.288</ele>
      </trkpt>
      <trkpt lat="45.37214" lon="4.42857">
        <ele>1068.3</ele>
      </trkpt>
      <trkpt lat="45.3718" lon="4.42903">
        <ele>1066.151</ele>
      </trkpt>
      <trkpt lat="45.3716" lon="4.43">
        <ele>1065.129</ele>
      </trkpt>
      <trkpt lat="45.37108" lon="4.43143">
        <ele>1060.069</ele>
      </trkpt>
      <trkpt lat="45.36993" lon="4.43307">
        <ele>1056.316</ele>
      </trkpt>
      <trkpt lat="45.36905" lon="4.43431">
        <ele>1043.718</ele>
      </trkpt>
      <trkpt lat="45.36812" lon="4.43626">
        <ele>1040.34</ele>
      </trkpt>
      <trkpt lat="45.36786" lon="4.43661">
        <ele>1040.056</ele>
      </trkpt>
      <trkpt lat="45.36783" lon="4.43662">
        <ele>1040.046</ele>
      </trkpt>
      <trkpt lat="45.36778" lon="4.43657">
        <ele>1039.657</ele>
      </trkpt>
      <trkpt lat="45.36769" lon="4.43691">
        <ele>1040</ele>
      </trkpt>
      <trkpt lat="45.36757" lon="4.43681">
        <ele>1040</ele>
      </trkpt>
      <trkpt lat="45.36761" lon="4.43691">
        <ele>1040</ele>
      </trkpt>
      <trkpt lat="45.36648" lon="4.43782">
        <ele>1044.382</ele>
      </trkpt>
      <trkpt lat="45.36558" lon="4.43945">
        <ele>1043.761</ele>
      </trkpt>
      <trkpt lat="45.36311" lon="4.44101">
        <ele>1038.159</ele>
      </trkpt>
      <trkpt lat="45.36289" lon="4.44133">
        <ele>1036.731</ele>
      </trkpt>
      <trkpt lat="45.36181" lon="4.44179">
        <ele>1038.831</ele>
      </trkpt>
      <trkpt lat="45.36159" lon="4.44218">
        <ele>1040.595</ele>
      </trkpt>
      <trkpt lat="45.36204" lon="4.44452">
        <ele>1039.954</ele>
      </trkpt>
      <trkpt lat="45.36204" lon="4.4464">
        <ele>1047.673</ele>
      </trkpt>
      <trkpt lat="45.36186" lon="4.44699">
        <ele>1047.007</ele>
      </trkpt>
      <trkpt lat="45.36109" lon="4.44731">
        <ele>1044.043</ele>
      </trkpt>
      <trkpt lat="45.35979" lon="4.44959">
        <ele>1045.128</ele>
      </trkpt>
      <trkpt lat="45.35885" lon="4.44803">
        <ele>1047.045</ele>
      </trkpt>
      <trkpt lat="45.35822" lon="4.44588">
        <ele>1050.063</ele>
      </trkpt>
      <trkpt lat="45.35467" lon="4.4453">
        <ele>1029.915</ele>
      </trkpt>
      <trkpt lat="45.35377" lon="4.44361">
        <ele>1031.156</ele>
      </trkpt>
      <trkpt lat="45.34995" lon="4.44374">
        <ele>1027.844</ele>
      </trkpt>
      <trkpt lat="45.34798" lon="4.44458">
        <ele>1004.651</ele>
      </trkpt>
      <trkpt lat="45.34825" lon="4.4453">
        <ele>1002.207</ele>
      </trkpt>
      <trkpt lat="45.3487" lon="4.44621">
        <ele>994.017</ele>
      </trkpt>
      <trkpt lat="45.34838" lon="4.44653">
        <ele>987.448</ele>
      </trkpt>
      <trkpt lat="45.34811" lon="4.4466">
        <ele>980.606</ele>
      </trkpt>
      <trkpt lat="45.34694" lon="4.44452">
        <ele>979.19</ele>
      </trkpt>
      <trkpt lat="45.34641" lon="4.44426">
        <ele>971.442</ele>
      </trkpt>
      <trkpt lat="45.34614" lon="4.44484">
        <ele>975.965</ele>
      </trkpt>
      <trkpt lat="45.34676" lon="4.44575">
        <ele>980.898</ele>
      </trkpt>
      <trkpt lat="45.34766" lon="4.44679">
        <ele>983.161</ele>
      </trkpt>
      <trkpt lat="45.34784" lon="4.44783">
        <ele>989.074</ele>
      </trkpt>
      <trkpt lat="45.34726" lon="4.44959">
        <ele>994.129</ele>
      </trkpt>
      <trkpt lat="45.34614" lon="4.45141">
        <ele>997.599</ele>
      </trkpt>
      <trkpt lat="45.34402" lon="4.4529">
        <ele>1003.181</ele>
      </trkpt>
      <trkpt lat="45.34286" lon="4.45407">
        <ele>1007.487</ele>
      </trkpt>
      <trkpt lat="45.34218" lon="4.45589">
        <ele>1014.286</ele>
      </trkpt>
      <trkpt lat="45.34128" lon="4.45888">
        <ele>1028.763</ele>
      </trkpt>
      <trkpt lat="45.34109" lon="4.45925">
        <ele>1030.124</ele>
      </trkpt>
      <trkpt lat="45.34091" lon="4.45935">
        <ele>1031.239</ele>
      </trkpt>
      <trkpt lat="45.3399" lon="4.45953">
        <ele>1036.894</ele>
      </trkpt>
      <trkpt lat="45.33889" lon="4.45977">
        <ele>1037.016</ele>
      </trkpt>
      <trkpt lat="45.33866" lon="4.45959">
        <ele>1034.838</ele>
      </trkpt>
      <trkpt lat="45.33855" lon="4.45961">
        <ele>1033.879</ele>
      </trkpt>
      <trkpt lat="45.3383" lon="4.45927">
        <ele>1032.296</ele>
      </trkpt>
      <trkpt lat="45.33816" lon="4.45925">
        <ele>1030.978</ele>
      </trkpt>
      <trkpt lat="45.33808" lon="4.45899">
        <ele>1030.243</ele>
      </trkpt>
      <trkpt lat="45.33762" lon="4.45912">
        <ele>1027.943</ele>
      </trkpt>
      <trkpt lat="45.33649" lon="4.45816">
        <ele>1020.039</ele>
      </trkpt>
      <trkpt lat="45.33386" lon="4.45683">
        <ele>1006.624</ele>
      </trkpt>
      <trkpt lat="45.33345" lon="4.45561">
        <ele>996.847</ele>
      </trkpt>
      <trkpt lat="45.33363" lon="4.45766">
        <ele>990.656</ele>
      </trkpt>
      <trkpt lat="45.33253" lon="4.45844">
        <ele>997.784</ele>
      </trkpt>
      <trkpt lat="45.33239" lon="4.45922">
        <ele>1004.2</ele>
      </trkpt>
      <trkpt lat="45.33174" lon="4.45972">
        <ele>1006.178</ele>
      </trkpt>
      <trkpt lat="45.33115" lon="4.46143">
        <ele>1020.018</ele>
      </trkpt>
      <trkpt lat="45.33093" lon="4.46172">
        <ele>1022.921</ele>
      </trkpt>
      <trkpt lat="45.33009" lon="4.46164">
        <ele>1014.454</ele>
      </trkpt>
      <trkpt lat="45.33004" lon="4.46065">
        <ele>1008.835</ele>
      </trkpt>
      <trkpt lat="45.33014" lon="4.45998">
        <ele>1014.22</ele>
      </trkpt>
      <trkpt lat="45.33009" lon="4.45925">
        <ele>1022.844</ele>
      </trkpt>
      <trkpt lat="45.33016" lon="4.4579">
        <ele>1032.756</ele>
      </trkpt>
      <trkpt lat="45.32934" lon="4.45597">
        <ele>1035.293</ele>
      </trkpt>
      <trkpt lat="45.32887" lon="4.45574">
        <ele>1041.498</ele>
      </trkpt>
      <trkpt lat="45.32814" lon="4.45483">
        <ele>1047.639</ele>
      </trkpt>
      <trkpt lat="45.328" lon="4.45444">
        <ele>1047.147</ele>
      </trkpt>
      <trkpt lat="45.32748" lon="4.45381">
        <ele>1041.913</ele>
      </trkpt>
      <trkpt lat="45.3273" lon="4.45314">
        <ele>1034.343</ele>
      </trkpt>
      <trkpt lat="45.3271" lon="4.45309">
        <ele>1035.786</ele>
      </trkpt>
      <trkpt lat="45.32708" lon="4.45275">
        <ele>1032.078</ele>
      </trkpt>
      <trkpt lat="45.32584" lon="4.45095">
        <ele>1020.376</ele>
      </trkpt>
      <trkpt lat="45.32599" lon="4.45054">
        <ele>1017.411</ele>
      </trkpt>
      <trkpt lat="45.32631" lon="4.45023">
        <ele>1015.101</ele>
      </trkpt>
      <trkpt lat="45.32669" lon="4.44911">
        <ele>1013.253</ele>
      </trkpt>
      <trkpt lat="45.32703" lon="4.44874">
        <ele>1011.131</ele>
      </trkpt>
      <trkpt lat="45.32708" lon="4.44851">
        <ele>1011.018</ele>
      </trkpt>
      <trkpt lat="45.32708" lon="4.44833">
        <ele>1011.018</ele>
      </trkpt>
      <trkpt lat="45.32709" lon="4.4482">
        <ele>1010.918</ele>
      </trkpt>
      <trkpt lat="45.32542" lon="4.4488">
        <ele>1038.971</ele>
      </trkpt>
      <trkpt lat="45.32438" lon="4.44965">
        <ele>1059.727</ele>
      </trkpt>
      <trkpt lat="45.32298" lon="4.44942">
        <ele>1078.964</ele>
      </trkpt>
      <trkpt lat="45.32272" lon="4.44994">
        <ele>1077.831</ele>
      </trkpt>
      <trkpt lat="45.32287" lon="4.45101">
        <ele>1065.858</ele>
      </trkpt>
      <trkpt lat="45.32253" lon="4.45171">
        <ele>1064.781</ele>
      </trkpt>
      <trkpt lat="45.32226" lon="4.45309">
        <ele>1077.08</ele>
      </trkpt>
      <trkpt lat="45.31915" lon="4.45579">
        <ele>1119.317</ele>
      </trkpt>
      <trkpt lat="45.31834" lon="4.45706">
        <ele>1131.915</ele>
      </trkpt>
      <trkpt lat="45.3142" lon="4.45938">
        <ele>1151.056</ele>
      </trkpt>
      <trkpt lat="45.31404" lon="4.4605">
        <ele>1153.097</ele>
      </trkpt>
      <trkpt lat="45.31409" lon="4.4624">
        <ele>1148.534</ele>
      </trkpt>
      <trkpt lat="45.31412" lon="4.46279">
        <ele>1147.493</ele>
      </trkpt>
      <trkpt lat="45.31443" lon="4.46338">
        <ele>1146.664</ele>
      </trkpt>
      <trkpt lat="45.31443" lon="4.46372">
        <ele>1145.447</ele>
      </trkpt>
      <trkpt lat="45.31502" lon="4.4644">
        <ele>1146.362</ele>
      </trkpt>
      <trkpt lat="45.31535" lon="4.46481">
        <ele>1146.411</ele>
      </trkpt>
      <trkpt lat="45.31438" lon="4.46609">
        <ele>1148.827</ele>
      </trkpt>
      <trkpt lat="45.31319" lon="4.4671">
        <ele>1155.887</ele>
      </trkpt>
      <trkpt lat="45.31251" lon="4.46845">
        <ele>1163.324</ele>
      </trkpt>
      <trkpt lat="45.31129" lon="4.46931">
        <ele>1173.257</ele>
      </trkpt>
      <trkpt lat="45.30985" lon="4.47072">
        <ele>1182.626</ele>
      </trkpt>
      <trkpt lat="45.30897" lon="4.46942">
        <ele>1175.449</ele>
      </trkpt>
      <trkpt lat="45.30701" lon="4.46885">
        <ele>1174.41</ele>
      </trkpt>
      <trkpt lat="45.30543" lon="4.46879">
        <ele>1168.178</ele>
      </trkpt>
      <trkpt lat="45.30367" lon="4.46523">
        <ele>1148.256</ele>
      </trkpt>
      <trkpt lat="45.30225" lon="4.46229">
        <ele>1129.281</ele>
      </trkpt>
      <trkpt lat="45.30234" lon="4.46094">
        <ele>1120.2</ele>
      </trkpt>
      <trkpt lat="45.30295" lon="4.46016">
        <ele>1117.421</ele>
      </trkpt>
      <trkpt lat="45.30162" lon="4.45941">
        <ele>1110.978</ele>
      </trkpt>
      <trkpt lat="45.30112" lon="4.45832">
        <ele>1101.851</ele>
      </trkpt>
      <trkpt lat="45.29979" lon="4.45751">
        <ele>1085.73</ele>
      </trkpt>
      <trkpt lat="45.29952" lon="4.45662">
        <ele>1075.677</ele>
      </trkpt>
      <trkpt lat="45.29963" lon="4.4554">
        <ele>1078.963</ele>
      </trkpt>
      <trkpt lat="45.29891" lon="4.45426">
        <ele>1088.676</ele>
      </trkpt>
      <trkpt lat="45.29832" lon="4.45376">
        <ele>1087.676</ele>
      </trkpt>
      <trkpt lat="45.2977" lon="4.45241">
        <ele>1098.053</ele>
      </trkpt>
      <trkpt lat="45.29719" lon="4.45198">
        <ele>1100.268</ele>
      </trkpt>
      <trkpt lat="45.29687" lon="4.45123">
        <ele>1104.332</ele>
      </trkpt>
      <trkpt lat="45.29683" lon="4.45052">
        <ele>1108.019</ele>
      </trkpt>
      <trkpt lat="45.29688" lon="4.45011">
        <ele>1109.341</ele>
      </trkpt>
      <trkpt lat="45.29706" lon="4.4498">
        <ele>1111.976</ele>
      </trkpt>
      <trkpt lat="45.29737" lon="4.44959">
        <ele>1113.596</ele>
      </trkpt>
      <trkpt lat="45.29769" lon="4.44932">
        <ele>1115.55</ele>
      </trkpt>
      <trkpt lat="45.2978" lon="4.449">
        <ele>1116.161</ele>
      </trkpt>
      <trkpt lat="45.29778" lon="4.44778">
        <ele>1119.015</ele>
      </trkpt>
      <trkpt lat="45.2976" lon="4.44721">
        <ele>1121.057</ele>
      </trkpt>
      <trkpt lat="45.29742" lon="4.447">
        <ele>1122.587</ele>
      </trkpt>
      <trkpt lat="45.29704" lon="4.44703">
        <ele>1125.391</ele>
      </trkpt>
      <trkpt lat="45.29671" lon="4.44682">
        <ele>1126.706</ele>
      </trkpt>
      <trkpt lat="45.29625" lon="4.44628">
        <ele>1126.13</ele>
      </trkpt>
      <trkpt lat="45.29608" lon="4.44604">
        <ele>1125.761</ele>
      </trkpt>
      <trkpt lat="45.29598" lon="4.44581">
        <ele>1125.345</ele>
      </trkpt>
      <trkpt lat="45.29573" lon="4.44533">
        <ele>1125.437</ele>
      </trkpt>
      <trkpt lat="45.29538" lon="4.44443">
        <ele>1122.999</ele>
      </trkpt>
      <trkpt lat="45.29545" lon="4.44369">
        <ele>1121.407</ele>
      </trkpt>
      <trkpt lat="45.29565" lon="4.44322">
        <ele>1120.136</ele>
      </trkpt>
      <trkpt lat="45.29653" lon="4.44117">
        <ele>1119.674</ele>
      </trkpt>
      <trkpt lat="45.29694" lon="4.44007">
        <ele>1123.884</ele>
      </trkpt>
      <trkpt lat="45.29689" lon="4.43865">
        <ele>1124.769</ele>
      </trkpt>
      <trkpt lat="45.29667" lon="4.43801">
        <ele>1122.395</ele>
      </trkpt>
      <trkpt lat="45.29627" lon="4.4369">
        <ele>1122.56</ele>
      </trkpt>
      <trkpt lat="45.2951" lon="4.43594">
        <ele>1124.771</ele>
      </trkpt>
      <trkpt lat="45.29394" lon="4.43433">
        <ele>1123.918</ele>
      </trkpt>
      <trkpt lat="45.29207" lon="4.43313">
        <ele>1119.542</ele>
      </trkpt>
      <trkpt lat="45.28898" lon="4.43155">
        <ele>1122.577</ele>
      </trkpt>
      <trkpt lat="45.2865" lon="4.43064">
        <ele>1116.443</ele>
      </trkpt>
      <trkpt lat="45.28307" lon="4.42941">
        <ele>1116.947</ele>
      </trkpt>
      <trkpt lat="45.28271" lon="4.42809">
        <ele>1102.781</ele>
      </trkpt>
      <trkpt lat="45.28136" lon="4.42926">
        <ele>1085.778</ele>
      </trkpt>
      <trkpt lat="45.28007" lon="4.4285">
        <ele>1066.842</ele>
      </trkpt>
      <trkpt lat="45.27925" lon="4.42998">
        <ele>1062.568</ele>
      </trkpt>
      <trkpt lat="45.27889" lon="4.43074">
        <ele>1056.669</ele>
      </trkpt>
      <trkpt lat="45.27876" lon="4.43181">
        <ele>1048.353</ele>
      </trkpt>
      <trkpt lat="45.27862" lon="4.43334">
        <ele>1033.041</ele>
      </trkpt>
      <trkpt lat="45.27838" lon="4.43454">
        <ele>1021.413</ele>
      </trkpt>
      <trkpt lat="45.27847" lon="4.43641">
        <ele>1004.282</ele>
      </trkpt>
      <trkpt lat="45.27856" lon="4.4375">
        <ele>992.655</ele>
      </trkpt>
      <trkpt lat="45.27856" lon="4.43841">
        <ele>990.252</ele>
      </trkpt>
      <trkpt lat="45.2781" lon="4.43896">
        <ele>988.24</ele>
      </trkpt>
      <trkpt lat="45.27758" lon="4.44085">
        <ele>997.858</ele>
      </trkpt>
      <trkpt lat="45.27669" lon="4.43924">
        <ele>992.539</ele>
      </trkpt>
      <trkpt lat="45.27601" lon="4.43901">
        <ele>988.492</ele>
      </trkpt>
      <trkpt lat="45.27509" lon="4.43914">
        <ele>983.234</ele>
      </trkpt>
      <trkpt lat="45.27317" lon="4.4381">
        <ele>979.302</ele>
      </trkpt>
      <trkpt lat="45.27224" lon="4.43701">
        <ele>976.164</ele>
      </trkpt>
      <trkpt lat="45.2715" lon="4.43675">
        <ele>977.212</ele>
      </trkpt>
      <trkpt lat="45.27071" lon="4.43617">
        <ele>978.687</ele>
      </trkpt>
      <trkpt lat="45.27001" lon="4.43349">
        <ele>976.325</ele>
      </trkpt>
      <trkpt lat="45.26888" lon="4.43287">
        <ele>979.775</ele>
      </trkpt>
      <trkpt lat="45.2687" lon="4.4318">
        <ele>974.525</ele>
      </trkpt>
      <trkpt lat="45.26813" lon="4.43188">
        <ele>976.845</ele>
      </trkpt>
      <trkpt lat="45.26777" lon="4.43146">
        <ele>980.632</ele>
      </trkpt>
      <trkpt lat="45.26788" lon="4.43029">
        <ele>983.6</ele>
      </trkpt>
      <trkpt lat="45.26723" lon="4.43035">
        <ele>993.146</ele>
      </trkpt>
      <trkpt lat="45.26694" lon="4.43063">
        <ele>998.03</ele>
      </trkpt>
      <trkpt lat="45.2661" lon="4.43061">
        <ele>1008.336</ele>
      </trkpt>
      <trkpt lat="45.26542" lon="4.43074">
        <ele>1017.168</ele>
      </trkpt>
      <trkpt lat="45.26432" lon="4.43009">
        <ele>1031.808</ele>
      </trkpt>
      <trkpt lat="45.26405" lon="4.43061">
        <ele>1035.509</ele>
      </trkpt>
      <trkpt lat="45.26215" lon="4.43139">
        <ele>1060.125</ele>
      </trkpt>
      <trkpt lat="45.26065" lon="4.4323">
        <ele>1070.792</ele>
      </trkpt>
      <trkpt lat="45.25868" lon="4.43432">
        <ele>1068.284</ele>
      </trkpt>
      <trkpt lat="45.25727" lon="4.4377">
        <ele>1061.676</ele>
      </trkpt>
      <trkpt lat="45.25734" lon="4.43879">
        <ele>1066.74</ele>
      </trkpt>
      <trkpt lat="45.25712" lon="4.4403">
        <ele>1072.357</ele>
      </trkpt>
      <trkpt lat="45.25613" lon="4.44321">
        <ele>1077.611</ele>
      </trkpt>
      <trkpt lat="45.25519" lon="4.44599">
        <ele>1086.787</ele>
      </trkpt>
      <trkpt lat="45.25478" lon="4.44888">
        <ele>1097.541</ele>
      </trkpt>
      <trkpt lat="45.25526" lon="4.45125">
        <ele>1093.472</ele>
      </trkpt>
      <trkpt lat="45.25589" lon="4.4519">
        <ele>1087.007</ele>
      </trkpt>
      <trkpt lat="45.25751" lon="4.45301">
        <ele>1083.524</ele>
      </trkpt>
      <trkpt lat="45.2576" lon="4.45369">
        <ele>1082.603</ele>
      </trkpt>
      <trkpt lat="45.25697" lon="4.45535">
        <ele>1085.796</ele>
      </trkpt>
      <trkpt lat="45.2569" lon="4.456">
        <ele>1088.601</ele>
      </trkpt>
      <trkpt lat="45.25665" lon="4.45618">
        <ele>1086.879</ele>
      </trkpt>
      <trkpt lat="45.25633" lon="4.45625">
        <ele>1084.207</ele>
      </trkpt>
      <trkpt lat="45.25575" lon="4.45629">
        <ele>1081.275</ele>
      </trkpt>
      <trkpt lat="45.25524" lon="4.45649">
        <ele>1074.034</ele>
      </trkpt>
      <trkpt lat="45.25509" lon="4.45676">
        <ele>1072.304</ele>
      </trkpt>
      <trkpt lat="45.25493" lon="4.45659">
        <ele>1068.563</ele>
      </trkpt>
      <trkpt lat="45.25483" lon="4.45644">
        <ele>1065.261</ele>
      </trkpt>
      <trkpt lat="45.25458" lon="4.45645">
        <ele>1060.132</ele>
      </trkpt>
      <trkpt lat="45.25431" lon="4.45668">
        <ele>1054.578</ele>
      </trkpt>
      <trkpt lat="45.25412" lon="4.45701">
        <ele>1048.776</ele>
      </trkpt>
      <trkpt lat="45.25435" lon="4.45741">
        <ele>1050.338</ele>
      </trkpt>
      <trkpt lat="45.25454" lon="4.45763">
        <ele>1051.458</ele>
      </trkpt>
      <trkpt lat="45.25453" lon="4.45793">
        <ele>1044.993</ele>
      </trkpt>
      <trkpt lat="45.25412" lon="4.45788">
        <ele>1037.184</ele>
      </trkpt>
      <trkpt lat="45.25362" lon="4.45722">
        <ele>1030.188</ele>
      </trkpt>
      <trkpt lat="45.2535" lon="4.45671">
        <ele>1023.644</ele>
      </trkpt>
      <trkpt lat="45.25339" lon="4.45671">
        <ele>1022.688</ele>
      </trkpt>
      <trkpt lat="45.25324" lon="4.45718">
        <ele>1023.838</ele>
      </trkpt>
      <trkpt lat="45.25329" lon="4.45779">
        <ele>1023.758</ele>
      </trkpt>
      <trkpt lat="45.25315" lon="4.45841">
        <ele>1028.519</ele>
      </trkpt>
      <trkpt lat="45.25255" lon="4.4599">
        <ele>1041.463</ele>
      </trkpt>
      <trkpt lat="45.25217" lon="4.46039">
        <ele>1047.01</ele>
      </trkpt>
      <trkpt lat="45.25149" lon="4.46074">
        <ele>1061.472</ele>
      </trkpt>
      <trkpt lat="45.25097" lon="4.46122">
        <ele>1069.076</ele>
      </trkpt>
      <trkpt lat="45.25073" lon="4.46117">
        <ele>1072.39</ele>
      </trkpt>
      <trkpt lat="45.25064" lon="4.46137">
        <ele>1073.707</ele>
      </trkpt>
      <trkpt lat="45.24959" lon="4.46177">
        <ele>1088.498</ele>
      </trkpt>
      <trkpt lat="45.24888" lon="4.46156">
        <ele>1096.778</ele>
      </trkpt>
      <trkpt lat="45.24821" lon="4.46009">
        <ele>1107.769</ele>
      </trkpt>
      <trkpt lat="45.2479" lon="4.45968">
        <ele>1110.576</ele>
      </trkpt>
      <trkpt lat="45.24687" lon="4.45952">
        <ele>1122.715</ele>
      </trkpt>
      <trkpt lat="45.24616" lon="4.45961">
        <ele>1128.284</ele>
      </trkpt>
      <trkpt lat="45.24506" lon="4.46048">
        <ele>1132.888</ele>
      </trkpt>
      <trkpt lat="45.2438" lon="4.46">
        <ele>1135.271</ele>
      </trkpt>
      <trkpt lat="45.24307" lon="4.45971">
        <ele>1140.596</ele>
      </trkpt>
      <trkpt lat="45.2419" lon="4.4596">
        <ele>1155.812</ele>
      </trkpt>
      <trkpt lat="45.2415" lon="4.45936">
        <ele>1157.385</ele>
      </trkpt>
      <trkpt lat="45.24074" lon="4.45875">
        <ele>1159.873</ele>
      </trkpt>
      <trkpt lat="45.24072" lon="4.4584">
        <ele>1159.985</ele>
      </trkpt>
      <trkpt lat="45.23974" lon="4.45779">
        <ele>1174.932</ele>
      </trkpt>
      <trkpt lat="45.23915" lon="4.45696">
        <ele>1187.087</ele>
      </trkpt>
      <trkpt lat="45.23789" lon="4.45601">
        <ele>1201.724</ele>
      </trkpt>
      <trkpt lat="45.23741" lon="4.45511">
        <ele>1205.726</ele>
      </trkpt>
      <trkpt lat="45.23691" lon="4.45475">
        <ele>1206.234</ele>
      </trkpt>
      <trkpt lat="45.23615" lon="4.45392">
        <ele>1207.082</ele>
      </trkpt>
      <trkpt lat="45.2349" lon="4.45341">
        <ele>1204.915</ele>
      </trkpt>
      <trkpt lat="45.2352" lon="4.45524">
        <ele>1213.739</ele>
      </trkpt>
      <trkpt lat="45.23539" lon="4.45778">
        <ele>1234.45</ele>
      </trkpt>
      <trkpt lat="45.23544" lon="4.46031">
        <ele>1237.704</ele>
      </trkpt>
      <trkpt lat="45.23584" lon="4.46304">
        <ele>1244.083</ele>
      </trkpt>
      <trkpt lat="45.23622" lon="4.46355">
        <ele>1242.749</ele>
      </trkpt>
      <trkpt lat="45.23676" lon="4.46765">
        <ele>1252.034</ele>
      </trkpt>
      <trkpt lat="45.23638" lon="4.46917">
        <ele>1257.874</ele>
      </trkpt>
      <trkpt lat="45.23582" lon="4.47045">
        <ele>1265.307</ele>
      </trkpt>
      <trkpt lat="45.23509" lon="4.47135">
        <ele>1265.231</ele>
      </trkpt>
      <trkpt lat="45.23487" lon="4.47287">
        <ele>1273.019</ele>
      </trkpt>
      <trkpt lat="45.2339" lon="4.47521">
        <ele>1283.58</ele>
      </trkpt>
      <trkpt lat="45.23124" lon="4.47393">
        <ele>1254.833</ele>
      </trkpt>
      <trkpt lat="45.23029" lon="4.47229">
        <ele>1242.194</ele>
      </trkpt>
      <trkpt lat="45.22892" lon="4.4726">
        <ele>1229.083</ele>
      </trkpt>
      <trkpt lat="45.228" lon="4.47205">
        <ele>1216.137</ele>
      </trkpt>
      <trkpt lat="45.22754" lon="4.47225">
        <ele>1207.665</ele>
      </trkpt>
      <trkpt lat="45.22673" lon="4.47174">
        <ele>1196.932</ele>
      </trkpt>
      <trkpt lat="45.22424" lon="4.47233">
        <ele>1188.195</ele>
      </trkpt>
      <trkpt lat="45.22394" lon="4.47194">
        <ele>1185.178</ele>
      </trkpt>
      <trkpt lat="45.22392" lon="4.4694">
        <ele>1176.789</ele>
      </trkpt>
      <trkpt lat="45.22365" lon="4.4687">
        <ele>1167.694</ele>
      </trkpt>
      <trkpt lat="45.22367" lon="4.46815">
        <ele>1166.087</ele>
      </trkpt>
      <trkpt lat="45.2233" lon="4.46718">
        <ele>1157.932</ele>
      </trkpt>
      <trkpt lat="45.223" lon="4.46698">
        <ele>1153.434</ele>
      </trkpt>
      <trkpt lat="45.22241" lon="4.46488">
        <ele>1142.29</ele>
      </trkpt>
      <trkpt lat="45.22133" lon="4.46285">
        <ele>1120.303</ele>
      </trkpt>
      <trkpt lat="45.22171" lon="4.46527">
        <ele>1095.455</ele>
      </trkpt>
      <trkpt lat="45.22179" lon="4.46765">
        <ele>1087.583</ele>
      </trkpt>
      <trkpt lat="45.22165" lon="4.46807">
        <ele>1087.562</ele>
      </trkpt>
      <trkpt lat="45.22168" lon="4.46897">
        <ele>1091.326</ele>
      </trkpt>
      <trkpt lat="45.22141" lon="4.46948">
        <ele>1101.738</ele>
      </trkpt>
      <trkpt lat="45.22071" lon="4.46663">
        <ele>1119.41</ele>
      </trkpt>
      <trkpt lat="45.22016" lon="4.46589">
        <ele>1128.39</ele>
      </trkpt>
      <trkpt lat="45.21878" lon="4.46558">
        <ele>1142.905</ele>
      </trkpt>
      <trkpt lat="45.21789" lon="4.46453">
        <ele>1147.465</ele>
      </trkpt>
      <trkpt lat="45.21762" lon="4.46515">
        <ele>1153.811</ele>
      </trkpt>
      <trkpt lat="45.21762" lon="4.46577">
        <ele>1159.005</ele>
      </trkpt>
      <trkpt lat="45.21787" lon="4.46636">
        <ele>1163.665</ele>
      </trkpt>
      <trkpt lat="45.21665" lon="4.46722">
        <ele>1174.826</ele>
      </trkpt>
      <trkpt lat="45.21514" lon="4.46745">
        <ele>1166.226</ele>
      </trkpt>
      <trkpt lat="45.21417" lon="4.46944">
        <ele>1165.122</ele>
      </trkpt>
      <trkpt lat="45.21412" lon="4.46562">
        <ele>1152.733</ele>
      </trkpt>
      <trkpt lat="45.21274" lon="4.46449">
        <ele>1149.427</ele>
      </trkpt>
      <trkpt lat="45.21342" lon="4.46332">
        <ele>1138.965</ele>
      </trkpt>
      <trkpt lat="45.21304" lon="4.46109">
        <ele>1125.884</ele>
      </trkpt>
      <trkpt lat="45.21005" lon="4.45786">
        <ele>1104.457</ele>
      </trkpt>
      <trkpt lat="45.20868" lon="4.45747">
        <ele>1091.775</ele>
      </trkpt>
      <trkpt lat="45.2076" lon="4.4577">
        <ele>1096.196</ele>
      </trkpt>
      <trkpt lat="45.20652" lon="4.45688">
        <ele>1084.945</ele>
      </trkpt>
      <trkpt lat="45.20602" lon="4.45757">
        <ele>1080.628</ele>
      </trkpt>
      <trkpt lat="45.20602" lon="4.4583">
        <ele>1084.357</ele>
      </trkpt>
      <trkpt lat="45.20505" lon="4.46082">
        <ele>1064.835</ele>
      </trkpt>
      <trkpt lat="45.20474" lon="4.46103">
        <ele>1065.138</ele>
      </trkpt>
      <trkpt lat="45.20449" lon="4.45983">
        <ele>1063.727</ele>
      </trkpt>
      <trkpt lat="45.20454" lon="4.459">
        <ele>1065.892</ele>
      </trkpt>
      <trkpt lat="45.20431" lon="4.45819">
        <ele>1071.552</ele>
      </trkpt>
      <trkpt lat="45.20382" lon="4.45757">
        <ele>1077.13</ele>
      </trkpt>
      <trkpt lat="45.20253" lon="4.45728">
        <ele>1080.16</ele>
      </trkpt>
      <trkpt lat="45.20179" lon="4.45765">
        <ele>1086.218</ele>
      </trkpt>
      <trkpt lat="45.20102" lon="4.4576">
        <ele>1092.029</ele>
      </trkpt>
      <trkpt lat="45.19991" lon="4.45884">
        <ele>1102.954</ele>
      </trkpt>
      <trkpt lat="45.19903" lon="4.45944">
        <ele>1108.915</ele>
      </trkpt>
      <trkpt lat="45.19865" lon="4.4609">
        <ele>1116.111</ele>
      </trkpt>
      <trkpt lat="45.19779" lon="4.4628">
        <ele>1127.316</ele>
      </trkpt>
      <trkpt lat="45.19775" lon="4.46334">
        <ele>1127.835</ele>
      </trkpt>
      <trkpt lat="45.19743" lon="4.46363">
        <ele>1133.721</ele>
      </trkpt>
      <trkpt lat="45.19678" lon="4.46295">
        <ele>1135.386</ele>
      </trkpt>
      <trkpt lat="45.19655" lon="4.46077">
        <ele>1143.508</ele>
      </trkpt>
      <trkpt lat="45.19592" lon="4.45962">
        <ele>1150.099</ele>
      </trkpt>
      <trkpt lat="45.19563" lon="4.4583">
        <ele>1155.488</ele>
      </trkpt>
      <trkpt lat="45.19527" lon="4.45814">
        <ele>1157.006</ele>
      </trkpt>
      <trkpt lat="45.19461" lon="4.45845">
        <ele>1156.848</ele>
      </trkpt>
      <trkpt lat="45.19328" lon="4.4622">
        <ele>1159.258</ele>
      </trkpt>
      <trkpt lat="45.19253" lon="4.46332">
        <ele>1155.387</ele>
      </trkpt>
      <trkpt lat="45.19265" lon="4.46459">
        <ele>1154.716</ele>
      </trkpt>
      <trkpt lat="45.19251" lon="4.46573">
        <ele>1155.413</ele>
      </trkpt>
      <trkpt lat="45.19204" lon="4.46573">
        <ele>1153.629</ele>
      </trkpt>
      <trkpt lat="45.19109" lon="4.46436">
        <ele>1154.059</ele>
      </trkpt>
      <trkpt lat="45.19073" lon="4.46391">
        <ele>1152.456</ele>
      </trkpt>
      <trkpt lat="45.19014" lon="4.46376">
        <ele>1156.119</ele>
      </trkpt>
      <trkpt lat="45.18949" lon="4.46269">
        <ele>1157.212</ele>
      </trkpt>
      <trkpt lat="45.18854" lon="4.46233">
        <ele>1158.212</ele>
      </trkpt>
      <trkpt lat="45.1878" lon="4.46274">
        <ele>1157.833</ele>
      </trkpt>
      <trkpt lat="45.18827" lon="4.46386">
        <ele>1166.879</ele>
      </trkpt>
      <trkpt lat="45.18949" lon="4.46584">
        <ele>1185.733</ele>
      </trkpt>
      <trkpt lat="45.19001" lon="4.46802">
        <ele>1208.499</ele>
      </trkpt>
      <trkpt lat="45.18832" lon="4.4669">
        <ele>1204.462</ele>
      </trkpt>
      <trkpt lat="45.18681" lon="4.46563">
        <ele>1189.69</ele>
      </trkpt>
      <trkpt lat="45.18611" lon="4.46503">
        <ele>1182.458</ele>
      </trkpt>
      <trkpt lat="45.18482" lon="4.46438">
        <ele>1174.096</ele>
      </trkpt>
      <trkpt lat="45.18318" lon="4.46358">
        <ele>1167.197</ele>
      </trkpt>
      <trkpt lat="45.18345" lon="4.46199">
        <ele>1159.162</ele>
      </trkpt>
      <trkpt lat="45.18148" lon="4.46391">
        <ele>1155.472</ele>
      </trkpt>
      <trkpt lat="45.18126" lon="4.46459">
        <ele>1156.423</ele>
      </trkpt>
      <trkpt lat="45.18092" lon="4.46459">
        <ele>1158.143</ele>
      </trkpt>
      <trkpt lat="45.17997" lon="4.46308">
        <ele>1159.432</ele>
      </trkpt>
      <trkpt lat="45.17888" lon="4.46293">
        <ele>1169.15</ele>
      </trkpt>
      <trkpt lat="45.1776" lon="4.46147">
        <ele>1169.228</ele>
      </trkpt>
      <trkpt lat="45.1771" lon="4.4602">
        <ele>1172.592</ele>
      </trkpt>
      <trkpt lat="45.17308" lon="4.45851">
        <ele>1183.224</ele>
      </trkpt>
      <trkpt lat="45.17209" lon="4.45897">
        <ele>1168.889</ele>
      </trkpt>
      <trkpt lat="45.17135" lon="4.45822">
        <ele>1152.253</ele>
      </trkpt>
      <trkpt lat="45.16826" lon="4.45799">
        <ele>1116.487</ele>
      </trkpt>
      <trkpt lat="45.1671" lon="4.4564">
        <ele>1107.469</ele>
      </trkpt>
      <trkpt lat="45.1663" lon="4.45442">
        <ele>1111.079</ele>
      </trkpt>
      <trkpt lat="45.16606" lon="4.45323">
        <ele>1115.862</ele>
      </trkpt>
      <trkpt lat="45.16585" lon="4.45219">
        <ele>1118.402</ele>
      </trkpt>
      <trkpt lat="45.16504" lon="4.45099">
        <ele>1122.071</ele>
      </trkpt>
      <trkpt lat="45.16464" lon="4.44977">
        <ele>1127.448</ele>
      </trkpt>
      <trkpt lat="45.16387" lon="4.44894">
        <ele>1124</ele>
      </trkpt>
      <trkpt lat="45.16242" lon="4.44818">
        <ele>1125.47</ele>
      </trkpt>
      <trkpt lat="45.1617" lon="4.44782">
        <ele>1129.748</ele>
      </trkpt>
      <trkpt lat="45.16091" lon="4.44722">
        <ele>1132</ele>
      </trkpt>
      <trkpt lat="45.1606" lon="4.44651">
        <ele>1132</ele>
      </trkpt>
      <trkpt lat="45.16034" lon="4.44558">
        <ele>1132.944</ele>
      </trkpt>
      <trkpt lat="45.16033" lon="4.44378">
        <ele>1133</ele>
      </trkpt>
      <trkpt lat="45.16033" lon="4.44378">
        <ele>1133</ele>
      </trkpt>
      <trkpt lat="45.15932" lon="4.44222">
        <ele>1135.099</ele>
      </trkpt>
      <trkpt lat="45.15923" lon="4.44139">
        <ele>1136.673</ele>
      </trkpt>
      <trkpt lat="45.15871" lon="4.44082">
        <ele>1134.085</ele>
      </trkpt>
      <trkpt lat="45.15819" lon="4.43718">
        <ele>1123.783</ele>
      </trkpt>
      <trkpt lat="45.15772" lon="4.43471">
        <ele>1109.943</ele>
      </trkpt>
      <trkpt lat="45.15709" lon="4.43479">
        <ele>1108.422</ele>
      </trkpt>
      <trkpt lat="45.15655" lon="4.43564">
        <ele>1102.176</ele>
      </trkpt>
      <trkpt lat="45.15555" lon="4.43572">
        <ele>1097.338</ele>
      </trkpt>
      <trkpt lat="45.15456" lon="4.43554">
        <ele>1085.688</ele>
      </trkpt>
      <trkpt lat="45.15267" lon="4.43689">
        <ele>1062.497</ele>
      </trkpt>
      <trkpt lat="45.15216" lon="4.43702">
        <ele>1055.788</ele>
      </trkpt>
      <trkpt lat="45.15214" lon="4.43642">
        <ele>1057.917</ele>
      </trkpt>
      <trkpt lat="45.15057" lon="4.4352">
        <ele>1066.278</ele>
      </trkpt>
      <trkpt lat="45.14948" lon="4.43265">
        <ele>1052.695</ele>
      </trkpt>
      <trkpt lat="45.14885" lon="4.43224">
        <ele>1044.309</ele>
      </trkpt>
      <trkpt lat="45.14856" lon="4.43107">
        <ele>1034.88</ele>
      </trkpt>
      <trkpt lat="45.1484" lon="4.43013">
        <ele>1027.333</ele>
      </trkpt>
      <trkpt lat="45.14799" lon="4.42847">
        <ele>1009.337</ele>
      </trkpt>
      <trkpt lat="45.1469" lon="4.42862">
        <ele>1019.939</ele>
      </trkpt>
      <trkpt lat="45.14572" lon="4.42788">
        <ele>1034.086</ele>
      </trkpt>
      <trkpt lat="45.14397" lon="4.42866">
        <ele>1057.496</ele>
      </trkpt>
      <trkpt lat="45.14273" lon="4.42924">
        <ele>1070.746</ele>
      </trkpt>
      <trkpt lat="45.14194" lon="4.42827">
        <ele>1067.747</ele>
      </trkpt>
      <trkpt lat="45.14235" lon="4.42717">
        <ele>1077.091</ele>
      </trkpt>
      <trkpt lat="45.14256" lon="4.42639">
        <ele>1069.457</ele>
      </trkpt>
      <trkpt lat="45.14197" lon="4.42585">
        <ele>1071.536</ele>
      </trkpt>
      <trkpt lat="45.14165" lon="4.42464">
        <ele>1070.641</ele>
      </trkpt>
      <trkpt lat="45.1417" lon="4.42425">
        <ele>1066.365</ele>
      </trkpt>
      <trkpt lat="45.14205" lon="4.42413">
        <ele>1070.048</ele>
      </trkpt>
      <trkpt lat="45.1424" lon="4.42491">
        <ele>1065.183</ele>
      </trkpt>
      <trkpt lat="45.14383" lon="4.42452">
        <ele>1077.115</ele>
      </trkpt>
      <trkpt lat="45.14383" lon="4.42394">
        <ele>1085.154</ele>
      </trkpt>
      <trkpt lat="45.14351" lon="4.423">
        <ele>1095.332</ele>
      </trkpt>
      <trkpt lat="45.14337" lon="4.42214">
        <ele>1102.043</ele>
      </trkpt>
      <trkpt lat="45.14275" lon="4.42183">
        <ele>1105.377</ele>
      </trkpt>
      <trkpt lat="45.14149" lon="4.41867">
        <ele>1114.641</ele>
      </trkpt>
      <trkpt lat="45.1392" lon="4.41957">
        <ele>1123.724</ele>
      </trkpt>
      <trkpt lat="45.13849" lon="4.42041">
        <ele>1126.61</ele>
      </trkpt>
      <trkpt lat="45.13878" lon="4.41924">
        <ele>1133.096</ele>
      </trkpt>
      <trkpt lat="45.13994" lon="4.41651">
        <ele>1152.057</ele>
      </trkpt>
      <trkpt lat="45.13983" lon="4.41441">
        <ele>1154.146</ele>
      </trkpt>
      <trkpt lat="45.13911" lon="4.41113">
        <ele>1149.605</ele>
      </trkpt>
      <trkpt lat="45.13733" lon="4.40871">
        <ele>1140.372</ele>
      </trkpt>
      <trkpt lat="45.13735" lon="4.40727">
        <ele>1136.172</ele>
      </trkpt>
      <trkpt lat="45.13762" lon="4.40493">
        <ele>1140.376</ele>
      </trkpt>
      <trkpt lat="45.13719" lon="4.40345">
        <ele>1136.083</ele>
      </trkpt>
      <trkpt lat="45.13498" lon="4.40021">
        <ele>1106.742</ele>
      </trkpt>
      <trkpt lat="45.1336" lon="4.39854">
        <ele>1098.587</ele>
      </trkpt>
      <trkpt lat="45.13338" lon="4.39744">
        <ele>1096.767</ele>
      </trkpt>
      <trkpt lat="45.13265" lon="4.39573">
        <ele>1100.789</ele>
      </trkpt>
      <trkpt lat="45.13255" lon="4.39499">
        <ele>1100.68</ele>
      </trkpt>
      <trkpt lat="45.1315" lon="4.39389">
        <ele>1097.409</ele>
      </trkpt>
      <trkpt lat="45.13044" lon="4.39385">
        <ele>1090.318</ele>
      </trkpt>
      <trkpt lat="45.13071" lon="4.39353">
        <ele>1088.592</ele>
      </trkpt>
      <trkpt lat="45.13104" lon="4.39322">
        <ele>1082.644</ele>
      </trkpt>
      <trkpt lat="45.13121" lon="4.3922">
        <ele>1079.626</ele>
      </trkpt>
      <trkpt lat="45.13107" lon="4.39035">
        <ele>1074.991</ele>
      </trkpt>
      <trkpt lat="45.13126" lon="4.38919">
        <ele>1072.904</ele>
      </trkpt>
      <trkpt lat="45.13172" lon="4.38826">
        <ele>1072.074</ele>
      </trkpt>
      <trkpt lat="45.13228" lon="4.38715">
        <ele>1072.806</ele>
      </trkpt>
      <trkpt lat="45.13217" lon="4.38676">
        <ele>1070.453</ele>
      </trkpt>
      <trkpt lat="45.13252" lon="4.38676">
        <ele>1068.545</ele>
      </trkpt>
      <trkpt lat="45.13454" lon="4.38247">
        <ele>1066.738</ele>
      </trkpt>
      <trkpt lat="45.13473" lon="4.38067">
        <ele>1064.407</ele>
      </trkpt>
      <trkpt lat="45.13565" lon="4.37872">
        <ele>1063.395</ele>
      </trkpt>
      <trkpt lat="45.13548" lon="4.37736">
        <ele>1052.577</ele>
      </trkpt>
      <trkpt lat="45.13451" lon="4.37701">
        <ele>1049.813</ele>
      </trkpt>
      <trkpt lat="45.13441" lon="4.37662">
        <ele>1046.766</ele>
      </trkpt>
      <trkpt lat="45.1354" lon="4.37662">
        <ele>1044.437</ele>
      </trkpt>
      <trkpt lat="45.13578" lon="4.37619">
        <ele>1041.575</ele>
      </trkpt>
      <trkpt lat="45.1361" lon="4.37502">
        <ele>1043.821</ele>
      </trkpt>
      <trkpt lat="45.13486" lon="4.37209">
        <ele>1033.008</ele>
      </trkpt>
      <trkpt lat="45.13465" lon="4.37139">
        <ele>1032.003</ele>
      </trkpt>
      <trkpt lat="45.13268" lon="4.36918">
        <ele>1028.887</ele>
      </trkpt>
      <trkpt lat="45.13179" lon="4.36706">
        <ele>1025.749</ele>
      </trkpt>
      <trkpt lat="45.13237" lon="4.36675">
        <ele>1032.349</ele>
      </trkpt>
      <trkpt lat="45.13368" lon="4.36445">
        <ele>1048.237</ele>
      </trkpt>
      <trkpt lat="45.13422" lon="4.36222">
        <ele>1058.002</ele>
      </trkpt>
      <trkpt lat="45.13395" lon="4.35891">
        <ele>1068.418</ele>
      </trkpt>
      <trkpt lat="45.13406" lon="4.35703">
        <ele>1065.243</ele>
      </trkpt>
      <trkpt lat="45.13389" lon="4.35664">
        <ele>1060.772</ele>
      </trkpt>
      <trkpt lat="45.13503" lon="4.3545">
        <ele>1038.948</ele>
      </trkpt>
      <trkpt lat="45.13457" lon="4.35111">
        <ele>1028.322</ele>
      </trkpt>
      <trkpt lat="45.13419" lon="4.35001">
        <ele>1024.299</ele>
      </trkpt>
      <trkpt lat="45.13411" lon="4.34908">
        <ele>1013.779</ele>
      </trkpt>
      <trkpt lat="45.13446" lon="4.34822">
        <ele>1006.988</ele>
      </trkpt>
      <trkpt lat="45.13441" lon="4.34744">
        <ele>1003.529</ele>
      </trkpt>
      <trkpt lat="45.13252" lon="4.34506">
        <ele>1001</ele>
      </trkpt>
      <trkpt lat="45.12818" lon="4.34409">
        <ele>990.381</ele>
      </trkpt>
      <trkpt lat="45.12535" lon="4.34202">
        <ele>970.587</ele>
      </trkpt>
      <trkpt lat="45.12443" lon="4.34081">
        <ele>963.652</ele>
      </trkpt>
      <trkpt lat="45.12319" lon="4.34054">
        <ele>955.852</ele>
      </trkpt>
      <trkpt lat="45.12296" lon="4.34086">
        <ele>954.618</ele>
      </trkpt>
      <trkpt lat="45.12296" lon="4.34086">
        <ele>954.618</ele>
      </trkpt>
      <trkpt lat="45.12236" lon="4.34066">
        <ele>945.065</ele>
      </trkpt>
      <trkpt lat="45.12215" lon="4.33981">
        <ele>944.795</ele>
      </trkpt>
      <trkpt lat="45.12183" lon="4.33793">
        <ele>933.946</ele>
      </trkpt>
      <trkpt lat="45.12094" lon="4.33848">
        <ele>928.589</ele>
      </trkpt>
      <trkpt lat="45.12059" lon="4.33797">
        <ele>928.736</ele>
      </trkpt>
      <trkpt lat="45.1191" lon="4.33661">
        <ele>930.754</ele>
      </trkpt>
      <trkpt lat="45.11878" lon="4.33439">
        <ele>928.418</ele>
      </trkpt>
      <trkpt lat="45.11838" lon="4.3324">
        <ele>925.037</ele>
      </trkpt>
      <trkpt lat="45.12002" lon="4.33056">
        <ele>914.091</ele>
      </trkpt>
      <trkpt lat="45.11991" lon="4.32951">
        <ele>914.607</ele>
      </trkpt>
      <trkpt lat="45.11827" lon="4.32616">
        <ele>910.615</ele>
      </trkpt>
      <trkpt lat="45.11751" lon="4.32315">
        <ele>909.54</ele>
      </trkpt>
      <trkpt lat="45.11716" lon="4.32261">
        <ele>905.712</ele>
      </trkpt>
      <trkpt lat="45.11684" lon="4.32089">
        <ele>902.265</ele>
      </trkpt>
      <trkpt lat="45.11625" lon="4.32069">
        <ele>902.769</ele>
      </trkpt>
      <trkpt lat="45.11568" lon="4.31886">
        <ele>908.551</ele>
      </trkpt>
      <trkpt lat="45.116" lon="4.31539">
        <ele>907.314</ele>
      </trkpt>
      <trkpt lat="45.116" lon="4.31161">
        <ele>901.167</ele>
      </trkpt>
      <trkpt lat="45.11509" lon="4.30798">
        <ele>892.088</ele>
      </trkpt>
      <trkpt lat="45.11312" lon="4.30782">
        <ele>885.541</ele>
      </trkpt>
      <trkpt lat="45.11282" lon="4.3072">
        <ele>885.576</ele>
      </trkpt>
      <trkpt lat="45.11312" lon="4.30603">
        <ele>882.73</ele>
      </trkpt>
      <trkpt lat="45.11328" lon="4.30248">
        <ele>867.967</ele>
      </trkpt>
      <trkpt lat="45.11404" lon="4.30068">
        <ele>862.459</ele>
      </trkpt>
      <trkpt lat="45.1139" lon="4.29967">
        <ele>860.765</ele>
      </trkpt>
      <trkpt lat="45.11417" lon="4.29831">
        <ele>857.847</ele>
      </trkpt>
      <trkpt lat="45.1145" lon="4.29659">
        <ele>853.461</ele>
      </trkpt>
      <trkpt lat="45.1142" lon="4.29558">
        <ele>850.227</ele>
      </trkpt>
      <trkpt lat="45.11455" lon="4.29039">
        <ele>846.981</ele>
      </trkpt>
      <trkpt lat="45.11541" lon="4.29054">
        <ele>850.959</ele>
      </trkpt>
      <trkpt lat="45.11649" lon="4.28836">
        <ele>846.64</ele>
      </trkpt>
      <trkpt lat="45.11722" lon="4.28871">
        <ele>840.733</ele>
      </trkpt>
      <trkpt lat="45.11743" lon="4.28824">
        <ele>838.551</ele>
      </trkpt>
      <trkpt lat="45.11627" lon="4.28738">
        <ele>834.138</ele>
      </trkpt>
      <trkpt lat="45.1156" lon="4.2859">
        <ele>832.485</ele>
      </trkpt>
      <trkpt lat="45.11619" lon="4.28075">
        <ele>837.377</ele>
      </trkpt>
      <trkpt lat="45.1166" lon="4.27638">
        <ele>848.52</ele>
      </trkpt>
      <trkpt lat="45.11635" lon="4.27576">
        <ele>852.651</ele>
      </trkpt>
      <trkpt lat="45.11662" lon="4.27334">
        <ele>875.087</ele>
      </trkpt>
      <trkpt lat="45.11509" lon="4.26905">
        <ele>896.514</ele>
      </trkpt>
      <trkpt lat="45.11552" lon="4.26788">
        <ele>904.47</ele>
      </trkpt>
      <trkpt lat="45.11549" lon="4.26624">
        <ele>898.657</ele>
      </trkpt>
      <trkpt lat="45.11525" lon="4.26476">
        <ele>894.294</ele>
      </trkpt>
      <trkpt lat="45.11439" lon="4.26375">
        <ele>881.785</ele>
      </trkpt>
      <trkpt lat="45.1152" lon="4.26254">
        <ele>878.878</ele>
      </trkpt>
      <trkpt lat="45.11541" lon="4.26004">
        <ele>896.248</ele>
      </trkpt>
      <trkpt lat="45.11541" lon="4.2595">
        <ele>898.288</ele>
      </trkpt>
      <trkpt lat="45.11414" lon="4.25965">
        <ele>902.926</ele>
      </trkpt>
      <trkpt lat="45.11336" lon="4.25778">
        <ele>919.784</ele>
      </trkpt>
      <trkpt lat="45.11177" lon="4.25427">
        <ele>936.256</ele>
      </trkpt>
      <trkpt lat="45.11136" lon="4.25152">
        <ele>933.195</ele>
      </trkpt>
      <trkpt lat="45.1106" lon="4.24968">
        <ele>933.454</ele>
      </trkpt>
      <trkpt lat="45.10958" lon="4.24925">
        <ele>943.901</ele>
      </trkpt>
      <trkpt lat="45.10718" lon="4.24867">
        <ele>955.051</ele>
      </trkpt>
      <trkpt lat="45.10734" lon="4.24602">
        <ele>946.229</ele>
      </trkpt>
      <trkpt lat="45.10691" lon="4.24407">
        <ele>947.443</ele>
      </trkpt>
      <trkpt lat="45.10602" lon="4.24231">
        <ele>950.031</ele>
      </trkpt>
      <trkpt lat="45.10589" lon="4.24137">
        <ele>947.515</ele>
      </trkpt>
      <trkpt lat="45.10516" lon="4.24083">
        <ele>939.113</ele>
      </trkpt>
      <trkpt lat="45.104" lon="4.23974">
        <ele>927.373</ele>
      </trkpt>
      <trkpt lat="45.10443" lon="4.2388">
        <ele>921.31</ele>
      </trkpt>
      <trkpt lat="45.10411" lon="4.23623">
        <ele>908.977</ele>
      </trkpt>
      <trkpt lat="45.10393" lon="4.23619">
        <ele>910.029</ele>
      </trkpt>
      <trkpt lat="45.1035" lon="4.23572">
        <ele>915.154</ele>
      </trkpt>
      <trkpt lat="45.10331" lon="4.23424">
        <ele>910.423</ele>
      </trkpt>
      <trkpt lat="45.10306" lon="4.23326">
        <ele>910.214</ele>
      </trkpt>
      <trkpt lat="45.10267" lon="4.23268">
        <ele>909.431</ele>
      </trkpt>
      <trkpt lat="45.10213" lon="4.23235">
        <ele>910.441</ele>
      </trkpt>
      <trkpt lat="45.1021" lon="4.23205">
        <ele>911.296</ele>
      </trkpt>
      <trkpt lat="45.10132" lon="4.23229">
        <ele>911.255</ele>
      </trkpt>
      <trkpt lat="45.10017" lon="4.23186">
        <ele>916.017</ele>
      </trkpt>
      <trkpt lat="45.09945" lon="4.23127">
        <ele>924.629</ele>
      </trkpt>
      <trkpt lat="45.099" lon="4.23072">
        <ele>926.093</ele>
      </trkpt>
      <trkpt lat="45.09878" lon="4.23002">
        <ele>921.503</ele>
      </trkpt>
      <trkpt lat="45.0967" lon="4.22903">
        <ele>940.698</ele>
      </trkpt>
      <trkpt lat="45.0955" lon="4.2294">
        <ele>949.894</ele>
      </trkpt>
      <trkpt lat="45.09508" lon="4.22844">
        <ele>955.393</ele>
      </trkpt>
      <trkpt lat="45.09403" lon="4.22786">
        <ele>954.252</ele>
      </trkpt>
      <trkpt lat="45.09383" lon="4.22696">
        <ele>960.82</ele>
      </trkpt>
      <trkpt lat="45.0924" lon="4.22778">
        <ele>980.718</ele>
      </trkpt>
      <trkpt lat="45.09143" lon="4.22852">
        <ele>991.86</ele>
      </trkpt>
      <trkpt lat="45.09108" lon="4.22881">
        <ele>997.356</ele>
      </trkpt>
      <trkpt lat="45.09054" lon="4.22877">
        <ele>1000.765</ele>
      </trkpt>
      <trkpt lat="45.08871" lon="4.22743">
        <ele>1017.79</ele>
      </trkpt>
      <trkpt lat="45.08805" lon="4.22611">
        <ele>1017.999</ele>
      </trkpt>
      <trkpt lat="45.08652" lon="4.22494">
        <ele>1022.33</ele>
      </trkpt>
      <trkpt lat="45.08468" lon="4.22416">
        <ele>1029.121</ele>
      </trkpt>
      <trkpt lat="45.08338" lon="4.22377">
        <ele>1032.42</ele>
      </trkpt>
      <trkpt lat="45.08278" lon="4.22365">
        <ele>1030.985</ele>
      </trkpt>
      <trkpt lat="45.08235" lon="4.22321">
        <ele>1033.46</ele>
      </trkpt>
      <trkpt lat="45.0808" lon="4.22579">
        <ele>1034.169</ele>
      </trkpt>
      <trkpt lat="45.07935" lon="4.22641">
        <ele>1029.457</ele>
      </trkpt>
      <trkpt lat="45.07908" lon="4.22688">
        <ele>1024.396</ele>
      </trkpt>
      <trkpt lat="45.07784" lon="4.22715">
        <ele>1022.845</ele>
      </trkpt>
      <trkpt lat="45.07751" lon="4.22778">
        <ele>1024.965</ele>
      </trkpt>
      <trkpt lat="45.07606" lon="4.22879">
        <ele>1024.945</ele>
      </trkpt>
      <trkpt lat="45.07576" lon="4.23039">
        <ele>1022.21</ele>
      </trkpt>
      <trkpt lat="45.07455" lon="4.23129">
        <ele>1016.766</ele>
      </trkpt>
      <trkpt lat="45.07382" lon="4.23164">
        <ele>1019.435</ele>
      </trkpt>
      <trkpt lat="45.07358" lon="4.2323">
        <ele>1018.368</ele>
      </trkpt>
      <trkpt lat="45.07255" lon="4.23351">
        <ele>1029.58</ele>
      </trkpt>
      <trkpt lat="45.07215" lon="4.23698">
        <ele>1040.131</ele>
      </trkpt>
      <trkpt lat="45.07172" lon="4.23796">
        <ele>1044.118</ele>
      </trkpt>
      <trkpt lat="45.07153" lon="4.23917">
        <ele>1045.013</ele>
      </trkpt>
      <trkpt lat="45.07053" lon="4.24264">
        <ele>1042.211</ele>
      </trkpt>
      <trkpt lat="45.07059" lon="4.24673">
        <ele>1033.219</ele>
      </trkpt>
      <trkpt lat="45.0687" lon="4.25098">
        <ele>1022.641</ele>
      </trkpt>
      <trkpt lat="45.0687" lon="4.25418">
        <ele>1019.121</ele>
      </trkpt>
      <trkpt lat="45.06916" lon="4.25551">
        <ele>1017.067</ele>
      </trkpt>
      <trkpt lat="45.06921" lon="4.25598">
        <ele>1016.565</ele>
      </trkpt>
      <trkpt lat="45.06875" lon="4.25598">
        <ele>1014.225</ele>
      </trkpt>
      <trkpt lat="45.06803" lon="4.25547">
        <ele>1007.2</ele>
      </trkpt>
      <trkpt lat="45.068" lon="4.25488">
        <ele>1002.933</ele>
      </trkpt>
      <trkpt lat="45.06676" lon="4.25434">
        <ele>991.101</ele>
      </trkpt>
      <trkpt lat="45.06582" lon="4.25403">
        <ele>994.444</ele>
      </trkpt>
      <trkpt lat="45.06541" lon="4.25403">
        <ele>991.427</ele>
      </trkpt>
      <trkpt lat="45.06506" lon="4.25418">
        <ele>988.496</ele>
      </trkpt>
      <trkpt lat="45.06398" lon="4.2534">
        <ele>979.553</ele>
      </trkpt>
      <trkpt lat="45.06253" lon="4.25348">
        <ele>981.696</ele>
      </trkpt>
      <trkpt lat="45.05983" lon="4.25196">
        <ele>1002.581</ele>
      </trkpt>
      <trkpt lat="45.05867" lon="4.25087">
        <ele>1004.924</ele>
      </trkpt>
      <trkpt lat="45.05786" lon="4.25079">
        <ele>1003.166</ele>
      </trkpt>
      <trkpt lat="45.05636" lon="4.252">
        <ele>1013.244</ele>
      </trkpt>
      <trkpt lat="45.05584" lon="4.25204">
        <ele>1017.896</ele>
      </trkpt>
      <trkpt lat="45.05576" lon="4.25375">
        <ele>1014.884</ele>
      </trkpt>
      <trkpt lat="45.05617" lon="4.25586">
        <ele>1029</ele>
      </trkpt>
      <trkpt lat="45.05668" lon="4.25699">
        <ele>1028.158</ele>
      </trkpt>
      <trkpt lat="45.05671" lon="4.25902">
        <ele>1023</ele>
      </trkpt>
      <trkpt lat="45.05649" lon="4.26035">
        <ele>1020.123</ele>
      </trkpt>
      <trkpt lat="45.05568" lon="4.25968">
        <ele>1020.08</ele>
      </trkpt>
      <trkpt lat="45.05493" lon="4.25886">
        <ele>1027.199</ele>
      </trkpt>
      <trkpt lat="45.05345" lon="4.25914">
        <ele>1039.555</ele>
      </trkpt>
      <trkpt lat="45.05266" lon="4.25875">
        <ele>1043.343</ele>
      </trkpt>
      <trkpt lat="45.05242" lon="4.25789">
        <ele>1046.854</ele>
      </trkpt>
      <trkpt lat="45.05172" lon="4.25785">
        <ele>1050.062</ele>
      </trkpt>
      <trkpt lat="45.05183" lon="4.259">
        <ele>1047.814</ele>
      </trkpt>
      <trkpt lat="45.05053" lon="4.26224">
        <ele>1041.128</ele>
      </trkpt>
      <trkpt lat="45.05059" lon="4.26434">
        <ele>1038.113</ele>
      </trkpt>
      <trkpt lat="45.04768" lon="4.27039">
        <ele>1039.106</ele>
      </trkpt>
      <trkpt lat="45.04689" lon="4.27316">
        <ele>1038.182</ele>
      </trkpt>
      <trkpt lat="45.04646" lon="4.27616">
        <ele>1041.826</ele>
      </trkpt>
      <trkpt lat="45.046" lon="4.27686">
        <ele>1039.797</ele>
      </trkpt>
      <trkpt lat="45.04466" lon="4.28076">
        <ele>1049.47</ele>
      </trkpt>
      <trkpt lat="45.04477" lon="4.28201">
        <ele>1050.742</ele>
      </trkpt>
      <trkpt lat="45.04455" lon="4.284">
        <ele>1052.869</ele>
      </trkpt>
      <trkpt lat="45.04455" lon="4.28533">
        <ele>1049.966</ele>
      </trkpt>
      <trkpt lat="45.04425" lon="4.28591">
        <ele>1046.827</ele>
      </trkpt>
      <trkpt lat="45.04398" lon="4.28763">
        <ele>1056.117</ele>
      </trkpt>
      <trkpt lat="45.04339" lon="4.28802">
        <ele>1059.656</ele>
      </trkpt>
      <trkpt lat="45.04228" lon="4.28738">
        <ele>1063.347</ele>
      </trkpt>
      <trkpt lat="45.03943" lon="4.28777">
        <ele>1065.032</ele>
      </trkpt>
      <trkpt lat="45.03851" lon="4.28613">
        <ele>1070.929</ele>
      </trkpt>
      <trkpt lat="45.03781" lon="4.28555">
        <ele>1072.148</ele>
      </trkpt>
      <trkpt lat="45.03743" lon="4.2843">
        <ele>1071.319</ele>
      </trkpt>
      <trkpt lat="45.03673" lon="4.2836">
        <ele>1067.295</ele>
      </trkpt>
      <trkpt lat="45.03447" lon="4.27782">
        <ele>1046.095</ele>
      </trkpt>
      <trkpt lat="45.03336" lon="4.27595">
        <ele>1052.688</ele>
      </trkpt>
      <trkpt lat="45.03234" lon="4.27431">
        <ele>1056.107</ele>
      </trkpt>
      <trkpt lat="45.0318" lon="4.27174">
        <ele>1064.046</ele>
      </trkpt>
      <trkpt lat="45.03061" lon="4.27002">
        <ele>1064.479</ele>
      </trkpt>
      <trkpt lat="45.03026" lon="4.26901">
        <ele>1062.641</ele>
      </trkpt>
      <trkpt lat="45.02666" lon="4.26558">
        <ele>1072.028</ele>
      </trkpt>
      <trkpt lat="45.02623" lon="4.26577">
        <ele>1072.809</ele>
      </trkpt>
      <trkpt lat="45.02577" lon="4.26487">
        <ele>1070.537</ele>
      </trkpt>
      <trkpt lat="45.02469" lon="4.26491">
        <ele>1059.98</ele>
      </trkpt>
      <trkpt lat="45.02415" lon="4.26347">
        <ele>1048.899</ele>
      </trkpt>
      <trkpt lat="45.02329" lon="4.26238">
        <ele>1036.223</ele>
      </trkpt>
      <trkpt lat="45.02297" lon="4.26179">
        <ele>1029.068</ele>
      </trkpt>
      <trkpt lat="45.02012" lon="4.2626">
        <ele>1043.471</ele>
      </trkpt>
      <trkpt lat="45.01935" lon="4.26132">
        <ele>1045.127</ele>
      </trkpt>
      <trkpt lat="45.01773" lon="4.25979">
        <ele>1058.092</ele>
      </trkpt>
      <trkpt lat="45.01606" lon="4.25859">
        <ele>1064.61</ele>
      </trkpt>
      <trkpt lat="45.01527" lon="4.25839">
        <ele>1065.676</ele>
      </trkpt>
      <trkpt lat="45.01441" lon="4.25745">
        <ele>1072.804</ele>
      </trkpt>
      <trkpt lat="45.01331" lon="4.25742">
        <ele>1078.332</ele>
      </trkpt>
      <trkpt lat="45.01231" lon="4.25823">
        <ele>1087.192</ele>
      </trkpt>
      <trkpt lat="45.01186" lon="4.25815">
        <ele>1086.273</ele>
      </trkpt>
      <trkpt lat="45.01146" lon="4.25841">
        <ele>1090.364</ele>
      </trkpt>
      <trkpt lat="45.00981" lon="4.25945">
        <ele>1101.769</ele>
      </trkpt>
      <trkpt lat="45.01055" lon="4.26062">
        <ele>1103.762</ele>
      </trkpt>
      <trkpt lat="45.01261" lon="4.26535">
        <ele>1101.293</ele>
      </trkpt>
      <trkpt lat="45.01364" lon="4.26783">
        <ele>1095.832</ele>
      </trkpt>
      <trkpt lat="45.01428" lon="4.27019">
        <ele>1090.16</ele>
      </trkpt>
      <trkpt lat="45.01461" lon="4.27069">
        <ele>1088.519</ele>
      </trkpt>
      <trkpt lat="45.01488" lon="4.2729">
        <ele>1089.97</ele>
      </trkpt>
      <trkpt lat="45.01561" lon="4.27739">
        <ele>1091.302</ele>
      </trkpt>
      <trkpt lat="45.0161" lon="4.27841">
        <ele>1089.095</ele>
      </trkpt>
      <trkpt lat="45.0166" lon="4.28161">
        <ele>1086.402</ele>
      </trkpt>
      <trkpt lat="45.01682" lon="4.28285">
        <ele>1084</ele>
      </trkpt>
      <trkpt lat="45.01678" lon="4.28353">
        <ele>1082.582</ele>
      </trkpt>
      <trkpt lat="45.01685" lon="4.2841">
        <ele>1080.385</ele>
      </trkpt>
      <trkpt lat="45.01685" lon="4.28447">
        <ele>1078.171</ele>
      </trkpt>
      <trkpt lat="45.01723" lon="4.286">
        <ele>1074.953</ele>
      </trkpt>
      <trkpt lat="45.01687" lon="4.28725">
        <ele>1080.516</ele>
      </trkpt>
      <trkpt lat="45.01648" lon="4.28811">
        <ele>1079.532</ele>
      </trkpt>
      <trkpt lat="45.01554" lon="4.2893">
        <ele>1081.095</ele>
      </trkpt>
      <trkpt lat="45.01414" lon="4.29027">
        <ele>1083</ele>
      </trkpt>
      <trkpt lat="45.01292" lon="4.29162">
        <ele>1080.088</ele>
      </trkpt>
      <trkpt lat="45.01182" lon="4.29263">
        <ele>1079.527</ele>
      </trkpt>
      <trkpt lat="45.01155" lon="4.29115">
        <ele>1082</ele>
      </trkpt>
      <trkpt lat="45.0101" lon="4.28917">
        <ele>1081.327</ele>
      </trkpt>
      <trkpt lat="45.00901" lon="4.28748">
        <ele>1083.062</ele>
      </trkpt>
      <trkpt lat="45.00739" lon="4.28527">
        <ele>1081.903</ele>
      </trkpt>
      <trkpt lat="45.00694" lon="4.28527">
        <ele>1079.032</ele>
      </trkpt>
      <trkpt lat="45.00601" lon="4.28353">
        <ele>1079.2</ele>
      </trkpt>
      <trkpt lat="45.0056" lon="4.28296">
        <ele>1080.145</ele>
      </trkpt>
      <trkpt lat="45.00441" lon="4.27992">
        <ele>1088.303</ele>
      </trkpt>
      <trkpt lat="45.00364" lon="4.27867">
        <ele>1089.816</ele>
      </trkpt>
      <trkpt lat="45.00287" lon="4.27851">
        <ele>1089.428</ele>
      </trkpt>
      <trkpt lat="45.00258" lon="4.27817">
        <ele>1089</ele>
      </trkpt>
      <trkpt lat="45.00236" lon="4.27674">
        <ele>1092.365</ele>
      </trkpt>
      <trkpt lat="45.00152" lon="4.2749">
        <ele>1092.757</ele>
      </trkpt>
      <trkpt lat="45.00149" lon="4.27478">
        <ele>1092.43</ele>
      </trkpt>
      <trkpt lat="45.00132" lon="4.27483">
        <ele>1090.809</ele>
      </trkpt>
      <trkpt lat="45.00106" lon="4.27474">
        <ele>1085.481</ele>
      </trkpt>
      <trkpt lat="45.0007" lon="4.27435">
        <ele>1077.382</ele>
      </trkpt>
      <trkpt lat="45.0004" lon="4.27421">
        <ele>1074.359</ele>
      </trkpt>
      <trkpt lat="45.00014" lon="4.27426">
        <ele>1073.997</ele>
      </trkpt>
      <trkpt lat="45.00005" lon="4.27429">
        <ele>1074.274</ele>
      </trkpt>
      <trkpt lat="44.99951" lon="4.27508">
        <ele>1083.819</ele>
      </trkpt>
      <trkpt lat="44.99728" lon="4.2746">
        <ele>1090</ele>
      </trkpt>
      <trkpt lat="44.9963" lon="4.27485">
        <ele>1091</ele>
      </trkpt>
      <trkpt lat="44.99327" lon="4.27592">
        <ele>1097.964</ele>
      </trkpt>
      <trkpt lat="44.99209" lon="4.27332">
        <ele>1099.472</ele>
      </trkpt>
      <trkpt lat="44.99169" lon="4.27382">
        <ele>1102.144</ele>
      </trkpt>
      <trkpt lat="44.99126" lon="4.27491">
        <ele>1107.363</ele>
      </trkpt>
      <trkpt lat="44.9907" lon="4.27561">
        <ele>1108.373</ele>
      </trkpt>
      <trkpt lat="44.98982" lon="4.27725">
        <ele>1107.471</ele>
      </trkpt>
      <trkpt lat="44.98993" lon="4.2785">
        <ele>1103.553</ele>
      </trkpt>
      <trkpt lat="44.98894" lon="4.28032">
        <ele>1101.971</ele>
      </trkpt>
      <trkpt lat="44.98806" lon="4.2812">
        <ele>1104.308</ele>
      </trkpt>
      <trkpt lat="44.98776" lon="4.28227">
        <ele>1107.402</ele>
      </trkpt>
      <trkpt lat="44.98697" lon="4.28271">
        <ele>1111.683</ele>
      </trkpt>
      <trkpt lat="44.98573" lon="4.28248">
        <ele>1115.657</ele>
      </trkpt>
      <trkpt lat="44.9853" lon="4.28222">
        <ele>1116.84</ele>
      </trkpt>
      <trkpt lat="44.98522" lon="4.28448">
        <ele>1124.221</ele>
      </trkpt>
      <trkpt lat="44.98258" lon="4.27949">
        <ele>1134.694</ele>
      </trkpt>
      <trkpt lat="44.98064" lon="4.27619">
        <ele>1141</ele>
      </trkpt>
      <trkpt lat="44.98012" lon="4.27512">
        <ele>1142</ele>
      </trkpt>
      <trkpt lat="44.97936" lon="4.27291">
        <ele>1142.704</ele>
      </trkpt>
      <trkpt lat="44.97943" lon="4.27023">
        <ele>1140.834</ele>
      </trkpt>
      <trkpt lat="44.978" lon="4.27174">
        <ele>1130.093</ele>
      </trkpt>
      <trkpt lat="44.97624" lon="4.27395">
        <ele>1103.006</ele>
      </trkpt>
      <trkpt lat="44.97591" lon="4.27585">
        <ele>1088.621</ele>
      </trkpt>
      <trkpt lat="44.97548" lon="4.27335">
        <ele>1082.664</ele>
      </trkpt>
      <trkpt lat="44.97557" lon="4.27236">
        <ele>1075.407</ele>
      </trkpt>
      <trkpt lat="44.97527" lon="4.27114">
        <ele>1073.378</ele>
      </trkpt>
      <trkpt lat="44.9759" lon="4.26966">
        <ele>1069.108</ele>
      </trkpt>
      <trkpt lat="44.97622" lon="4.26828">
        <ele>1070.203</ele>
      </trkpt>
      <trkpt lat="44.9759" lon="4.26623">
        <ele>1071.138</ele>
      </trkpt>
      <trkpt lat="44.97606" lon="4.26519">
        <ele>1076.451</ele>
      </trkpt>
      <trkpt lat="44.97692" lon="4.26477">
        <ele>1081.798</ele>
      </trkpt>
      <trkpt lat="44.97661" lon="4.26357">
        <ele>1089.02</ele>
      </trkpt>
      <trkpt lat="44.97654" lon="4.26264">
        <ele>1092.562</ele>
      </trkpt>
      <trkpt lat="44.97622" lon="4.26217">
        <ele>1095.847</ele>
      </trkpt>
      <trkpt lat="44.97622" lon="4.26014">
        <ele>1100.845</ele>
      </trkpt>
      <trkpt lat="44.97642" lon="4.25879">
        <ele>1106.985</ele>
      </trkpt>
      <trkpt lat="44.97594" lon="4.25725">
        <ele>1109.97</ele>
      </trkpt>
      <trkpt lat="44.97612" lon="4.25507">
        <ele>1124.229</ele>
      </trkpt>
      <trkpt lat="44.97733" lon="4.25247">
        <ele>1134.447</ele>
      </trkpt>
      <trkpt lat="44.97672" lon="4.25083">
        <ele>1139.031</ele>
      </trkpt>
      <trkpt lat="44.97546" lon="4.24961">
        <ele>1146.833</ele>
      </trkpt>
      <trkpt lat="44.97443" lon="4.24966">
        <ele>1147.491</ele>
      </trkpt>
      <trkpt lat="44.97357" lon="4.25192">
        <ele>1148.292</ele>
      </trkpt>
      <trkpt lat="44.97224" lon="4.254">
        <ele>1150.017</ele>
      </trkpt>
      <trkpt lat="44.97021" lon="4.25644">
        <ele>1152.269</ele>
      </trkpt>
      <trkpt lat="44.9691" lon="4.25771">
        <ele>1149.918</ele>
      </trkpt>
      <trkpt lat="44.96877" lon="4.25829">
        <ele>1148.315</ele>
      </trkpt>
      <trkpt lat="44.96827" lon="4.25829">
        <ele>1147.877</ele>
      </trkpt>
      <trkpt lat="44.96813" lon="4.25792">
        <ele>1152.097</ele>
      </trkpt>
      <trkpt lat="44.96774" lon="4.25768">
        <ele>1154.977</ele>
      </trkpt>
      <trkpt lat="44.96765" lon="4.25767">
        <ele>1154.92</ele>
      </trkpt>
      <trkpt lat="44.9678" lon="4.25755">
        <ele>1156.454</ele>
      </trkpt>
      <trkpt lat="44.96785" lon="4.25759">
        <ele>1155.965</ele>
      </trkpt>
      <trkpt lat="44.96816" lon="4.25709">
        <ele>1158.395</ele>
      </trkpt>
      <trkpt lat="44.96828" lon="4.25668">
        <ele>1160.119</ele>
      </trkpt>
      <trkpt lat="44.96802" lon="4.25563">
        <ele>1166.433</ele>
      </trkpt>
      <trkpt lat="44.96744" lon="4.25423">
        <ele>1182.717</ele>
      </trkpt>
      <trkpt lat="44.96734" lon="4.25362">
        <ele>1189.898</ele>
      </trkpt>
      <trkpt lat="44.96742" lon="4.2526">
        <ele>1195.377</ele>
      </trkpt>
      <trkpt lat="44.96735" lon="4.25178">
        <ele>1197.768</ele>
      </trkpt>
      <trkpt lat="44.96688" lon="4.24978">
        <ele>1204.314</ele>
      </trkpt>
      <trkpt lat="44.96659" lon="4.24709">
        <ele>1206.453</ele>
      </trkpt>
      <trkpt lat="44.96647" lon="4.24566">
        <ele>1206.355</ele>
      </trkpt>
      <trkpt lat="44.96655" lon="4.24349">
        <ele>1207.565</ele>
      </trkpt>
      <trkpt lat="44.96606" lon="4.24236">
        <ele>1208</ele>
      </trkpt>
      <trkpt lat="44.96635" lon="4.24025">
        <ele>1205.914</ele>
      </trkpt>
      <trkpt lat="44.96625" lon="4.23945">
        <ele>1203.038</ele>
      </trkpt>
      <trkpt lat="44.96661" lon="4.23805">
        <ele>1199.835</ele>
      </trkpt>
      <trkpt lat="44.96784" lon="4.23703">
        <ele>1193.515</ele>
      </trkpt>
      <trkpt lat="44.96936" lon="4.23641">
        <ele>1181.475</ele>
      </trkpt>
      <trkpt lat="44.97086" lon="4.23576">
        <ele>1173.008</ele>
      </trkpt>
      <trkpt lat="44.96998" lon="4.23116">
        <ele>1172.072</ele>
      </trkpt>
      <trkpt lat="44.97028" lon="4.22878">
        <ele>1180.005</ele>
      </trkpt>
      <trkpt lat="44.97321" lon="4.22757">
        <ele>1190.682</ele>
      </trkpt>
      <trkpt lat="44.97874" lon="4.22531">
        <ele>1183.883</ele>
      </trkpt>
      <trkpt lat="44.97674" lon="4.22492">
        <ele>1185.869</ele>
      </trkpt>
      <trkpt lat="44.97313" lon="4.22141">
        <ele>1167.643</ele>
      </trkpt>
      <trkpt lat="44.97146" lon="4.22098">
        <ele>1158.506</ele>
      </trkpt>
      <trkpt lat="44.97127" lon="4.22133">
        <ele>1156.721</ele>
      </trkpt>
      <trkpt lat="44.96936" lon="4.21997">
        <ele>1147.315</ele>
      </trkpt>
      <trkpt lat="44.96782" lon="4.21891">
        <ele>1151.008</ele>
      </trkpt>
      <trkpt lat="44.96691" lon="4.21646">
        <ele>1156.936</ele>
      </trkpt>
      <trkpt lat="44.96354" lon="4.21464">
        <ele>1193.94</ele>
      </trkpt>
      <trkpt lat="44.96224" lon="4.21581">
        <ele>1211.006</ele>
      </trkpt>
      <trkpt lat="44.96124" lon="4.21573">
        <ele>1222.723</ele>
      </trkpt>
      <trkpt lat="44.96087" lon="4.21288">
        <ele>1244.476</ele>
      </trkpt>
      <trkpt lat="44.96036" lon="4.21062">
        <ele>1257.68</ele>
      </trkpt>
      <trkpt lat="44.96006" lon="4.20914">
        <ele>1262.061</ele>
      </trkpt>
      <trkpt lat="44.9589" lon="4.20777">
        <ele>1284.677</ele>
      </trkpt>
      <trkpt lat="44.95877" lon="4.20929">
        <ele>1292.587</ele>
      </trkpt>
      <trkpt lat="44.95793" lon="4.21163">
        <ele>1308.731</ele>
      </trkpt>
      <trkpt lat="44.95782" lon="4.2123">
        <ele>1309.793</ele>
      </trkpt>
      <trkpt lat="44.95763" lon="4.21296">
        <ele>1312.033</ele>
      </trkpt>
      <trkpt lat="44.95761" lon="4.21354">
        <ele>1310.195</ele>
      </trkpt>
      <trkpt lat="44.95669" lon="4.21479">
        <ele>1319.163</ele>
      </trkpt>
      <trkpt lat="44.95696" lon="4.21308">
        <ele>1331.386</ele>
      </trkpt>
      <trkpt lat="44.95561" lon="4.21382">
        <ele>1356.824</ele>
      </trkpt>
      <trkpt lat="44.95642" lon="4.21237">
        <ele>1351.96</ele>
      </trkpt>
      <trkpt lat="44.95642" lon="4.21167">
        <ele>1354.974</ele>
      </trkpt>
      <trkpt lat="44.95626" lon="4.21206">
        <ele>1359.079</ele>
      </trkpt>
      <trkpt lat="44.95483" lon="4.21374">
        <ele>1371.933</ele>
      </trkpt>
      <trkpt lat="44.95262" lon="4.21427">
        <ele>1373.648</ele>
      </trkpt>
      <trkpt lat="44.95092" lon="4.21226">
        <ele>1396.067</ele>
      </trkpt>
      <trkpt lat="44.94897" lon="4.21299">
        <ele>1368.525</ele>
      </trkpt>
      <trkpt lat="44.94815" lon="4.21245">
        <ele>1367.802</ele>
      </trkpt>
      <trkpt lat="44.94771" lon="4.20844">
        <ele>1339.234</ele>
      </trkpt>
      <trkpt lat="44.94991" lon="4.20362">
        <ele>1292.789</ele>
      </trkpt>
      <trkpt lat="44.95019" lon="4.20286">
        <ele>1291.067</ele>
      </trkpt>
      <trkpt lat="44.95114" lon="4.2">
        <ele>1289.749</ele>
      </trkpt>
      <trkpt lat="44.95185" lon="4.19883">
        <ele>1290.603</ele>
      </trkpt>
      <trkpt lat="44.95239" lon="4.19831">
        <ele>1288.344</ele>
      </trkpt>
      <trkpt lat="44.95212" lon="4.19803">
        <ele>1288.573</ele>
      </trkpt>
      <trkpt lat="44.95176" lon="4.19797">
        <ele>1285.849</ele>
      </trkpt>
      <trkpt lat="44.95162" lon="4.19774">
        <ele>1283.123</ele>
      </trkpt>
      <trkpt lat="44.95142" lon="4.19628">
        <ele>1277.843</ele>
      </trkpt>
      <trkpt lat="44.9507" lon="4.19428">
        <ele>1271.159</ele>
      </trkpt>
      <trkpt lat="44.95018" lon="4.19379">
        <ele>1266.33</ele>
      </trkpt>
      <trkpt lat="44.94896" lon="4.18999">
        <ele>1248.051</ele>
      </trkpt>
      <trkpt lat="44.94738" lon="4.18848">
        <ele>1227.93</ele>
      </trkpt>
      <trkpt lat="44.94704" lon="4.18705">
        <ele>1225.472</ele>
      </trkpt>
      <trkpt lat="44.94763" lon="4.18575">
        <ele>1238.081</ele>
      </trkpt>
      <trkpt lat="44.94787" lon="4.18289">
        <ele>1247.176</ele>
      </trkpt>
      <trkpt lat="44.94743" lon="4.18062">
        <ele>1253.685</ele>
      </trkpt>
      <trkpt lat="44.94775" lon="4.17889">
        <ele>1256.228</ele>
      </trkpt>
      <trkpt lat="44.94756" lon="4.17561">
        <ele>1263.122</ele>
      </trkpt>
      <trkpt lat="44.94825" lon="4.17379">
        <ele>1270.193</ele>
      </trkpt>
      <trkpt lat="44.94787" lon="4.17133">
        <ele>1252.388</ele>
      </trkpt>
      <trkpt lat="44.94718" lon="4.16806">
        <ele>1229.141</ele>
      </trkpt>
      <trkpt lat="44.94699" lon="4.16751">
        <ele>1230.792</ele>
      </trkpt>
      <trkpt lat="44.94794" lon="4.16551">
        <ele>1241.239</ele>
      </trkpt>
      <trkpt lat="44.94813" lon="4.1646">
        <ele>1254.689</ele>
      </trkpt>
      <trkpt lat="44.94901" lon="4.16551">
        <ele>1254.155</ele>
      </trkpt>
      <trkpt lat="44.95064" lon="4.16469">
        <ele>1279.147</ele>
      </trkpt>
      <trkpt lat="44.95448" lon="4.16606">
        <ele>1280.662</ele>
      </trkpt>
      <trkpt lat="44.9529" lon="4.16305">
        <ele>1289.552</ele>
      </trkpt>
      <trkpt lat="44.94857" lon="4.1585">
        <ele>1300.562</ele>
      </trkpt>
      <trkpt lat="44.94875" lon="4.15732">
        <ele>1303.806</ele>
      </trkpt>
      <trkpt lat="44.9485" lon="4.15504">
        <ele>1297.359</ele>
      </trkpt>
      <trkpt lat="44.9507" lon="4.15377">
        <ele>1283.938</ele>
      </trkpt>
      <trkpt lat="44.94963" lon="4.15186">
        <ele>1288.103</ele>
      </trkpt>
      <trkpt lat="44.94894" lon="4.1484">
        <ele>1292.849</ele>
      </trkpt>
      <trkpt lat="44.94718" lon="4.14567">
        <ele>1298.992</ele>
      </trkpt>
      <trkpt lat="44.94693" lon="4.14376">
        <ele>1300.654</ele>
      </trkpt>
      <trkpt lat="44.94366" lon="4.13648">
        <ele>1282.592</ele>
      </trkpt>
      <trkpt lat="44.94008" lon="4.13329">
        <ele>1267.67</ele>
      </trkpt>
      <trkpt lat="44.93888" lon="4.12929">
        <ele>1276.643</ele>
      </trkpt>
      <trkpt lat="44.93913" lon="4.12656">
        <ele>1280.648</ele>
      </trkpt>
      <trkpt lat="44.93492" lon="4.12182">
        <ele>1255.102</ele>
      </trkpt>
      <trkpt lat="44.93473" lon="4.12">
        <ele>1247.946</ele>
      </trkpt>
      <trkpt lat="44.93693" lon="4.11618">
        <ele>1245.751</ele>
      </trkpt>
      <trkpt lat="44.93894" lon="4.11454">
        <ele>1246.616</ele>
      </trkpt>
      <trkpt lat="44.93832" lon="4.11245">
        <ele>1239.88</ele>
      </trkpt>
      <trkpt lat="44.9392" lon="4.10617">
        <ele>1245.666</ele>
      </trkpt>
      <trkpt lat="44.94052" lon="4.10462">
        <ele>1245.193</ele>
      </trkpt>
      <trkpt lat="44.9424" lon="4.10399">
        <ele>1243.264</ele>
      </trkpt>
      <trkpt lat="44.94102" lon="4.09789">
        <ele>1236.925</ele>
      </trkpt>
      <trkpt lat="44.94064" lon="4.09334">
        <ele>1216.7</ele>
      </trkpt>
      <trkpt lat="44.94052" lon="4.09243">
        <ele>1215.104</ele>
      </trkpt>
      <trkpt lat="44.94146" lon="4.08815">
        <ele>1204.586</ele>
      </trkpt>
      <trkpt lat="44.94203" lon="4.08278">
        <ele>1191.713</ele>
      </trkpt>
      <trkpt lat="44.94014" lon="4.0795">
        <ele>1187.21</ele>
      </trkpt>
      <trkpt lat="44.9402" lon="4.07723">
        <ele>1188</ele>
      </trkpt>
      <trkpt lat="44.94101" lon="4.07703">
        <ele>1187.798</ele>
      </trkpt>
      <trkpt lat="44.9429" lon="4.0743">
        <ele>1186</ele>
      </trkpt>
      <trkpt lat="44.94389" lon="4.06962">
        <ele>1179.637</ele>
      </trkpt>
      <trkpt lat="44.94415" lon="4.06735">
        <ele>1174.956</ele>
      </trkpt>
      <trkpt lat="44.94438" lon="4.0667">
        <ele>1173.789</ele>
      </trkpt>
      <trkpt lat="44.94424" lon="4.06566">
        <ele>1171</ele>
      </trkpt>
      <trkpt lat="44.94469" lon="4.0641">
        <ele>1167.745</ele>
      </trkpt>
      <trkpt lat="44.94474" lon="4.06273">
        <ele>1161.613</ele>
      </trkpt>
      <trkpt lat="44.94496" lon="4.06189">
        <ele>1157.788</ele>
      </trkpt>
      <trkpt lat="44.94496" lon="4.06117">
        <ele>1155.399</ele>
      </trkpt>
      <trkpt lat="44.94546" lon="4.06046">
        <ele>1151.995</ele>
      </trkpt>
      <trkpt lat="44.94469" lon="4.05935">
        <ele>1143.391</ele>
      </trkpt>
      <trkpt lat="44.94512" lon="4.05848">
        <ele>1138.046</ele>
      </trkpt>
      <trkpt lat="44.94576" lon="4.05697">
        <ele>1121.793</ele>
      </trkpt>
      <trkpt lat="44.94607" lon="4.05468">
        <ele>1106.124</ele>
      </trkpt>
      <trkpt lat="44.94673" lon="4.05185">
        <ele>1103.319</ele>
      </trkpt>
      <trkpt lat="44.94673" lon="4.04865">
        <ele>1099.744</ele>
      </trkpt>
      <trkpt lat="44.94663" lon="4.04704">
        <ele>1098.284</ele>
      </trkpt>
      <trkpt lat="44.94321" lon="4.0435">
        <ele>1106.222</ele>
      </trkpt>
      <trkpt lat="44.943" lon="4.04257">
        <ele>1105.402</ele>
      </trkpt>
      <trkpt lat="44.94246" lon="4.04093">
        <ele>1098.023</ele>
      </trkpt>
      <trkpt lat="44.94194" lon="4.04046">
        <ele>1092.285</ele>
      </trkpt>
      <trkpt lat="44.94136" lon="4.03846">
        <ele>1087.102</ele>
      </trkpt>
      <trkpt lat="44.94136" lon="4.0332">
        <ele>1088.204</ele>
      </trkpt>
      <trkpt lat="44.94179" lon="4.03146">
        <ele>1090.55</ele>
      </trkpt>
      <trkpt lat="44.94267" lon="4.03003">
        <ele>1090.38</ele>
      </trkpt>
      <trkpt lat="44.94292" lon="4.02912">
        <ele>1089.597</ele>
      </trkpt>
      <trkpt lat="44.94341" lon="4.02819">
        <ele>1086.177</ele>
      </trkpt>
      <trkpt lat="44.9437" lon="4.02662">
        <ele>1087.233</ele>
      </trkpt>
      <trkpt lat="44.94452" lon="4.02444">
        <ele>1085.31</ele>
      </trkpt>
      <trkpt lat="44.94463" lon="4.02283">
        <ele>1082.87</ele>
      </trkpt>
      <trkpt lat="44.94481" lon="4.02046">
        <ele>1079.295</ele>
      </trkpt>
      <trkpt lat="44.94513" lon="4.01797">
        <ele>1066.987</ele>
      </trkpt>
      <trkpt lat="44.94578" lon="4.0157">
        <ele>1058.59</ele>
      </trkpt>
      <trkpt lat="44.94614" lon="4.01422">
        <ele>1051.873</ele>
      </trkpt>
      <trkpt lat="44.94589" lon="4.01297">
        <ele>1047.336</ele>
      </trkpt>
      <trkpt lat="44.94541" lon="4.01422">
        <ele>1039.793</ele>
      </trkpt>
      <trkpt lat="44.94424" lon="4.0155">
        <ele>1031.022</ele>
      </trkpt>
      <trkpt lat="44.94408" lon="4.01537">
        <ele>1027.348</ele>
      </trkpt>
      <trkpt lat="44.94302" lon="4.0169">
        <ele>1027.26</ele>
      </trkpt>
      <trkpt lat="44.94207" lon="4.01713">
        <ele>1024.708</ele>
      </trkpt>
      <trkpt lat="44.93919" lon="4.01661">
        <ele>1038.176</ele>
      </trkpt>
      <trkpt lat="44.93831" lon="4.01742">
        <ele>1040.733</ele>
      </trkpt>
      <trkpt lat="44.937" lon="4.01804">
        <ele>1041.205</ele>
      </trkpt>
      <trkpt lat="44.93583" lon="4.01992">
        <ele>1031.349</ele>
      </trkpt>
      <trkpt lat="44.93527" lon="4.02051">
        <ele>1024.599</ele>
      </trkpt>
      <trkpt lat="44.9347" lon="4.02267">
        <ele>1019.857</ele>
      </trkpt>
      <trkpt lat="44.93418" lon="4.02358">
        <ele>1013.925</ele>
      </trkpt>
      <trkpt lat="44.93378" lon="4.02475">
        <ele>1011.358</ele>
      </trkpt>
      <trkpt lat="44.93366" lon="4.02608">
        <ele>1006.086</ele>
      </trkpt>
      <trkpt lat="44.93346" lon="4.02491">
        <ele>999.785</ele>
      </trkpt>
      <trkpt lat="44.9326" lon="4.02348">
        <ele>985.506</ele>
      </trkpt>
      <trkpt lat="44.93277" lon="4.0222">
        <ele>983.401</ele>
      </trkpt>
      <trkpt lat="44.93253" lon="4.02067">
        <ele>974.217</ele>
      </trkpt>
      <trkpt lat="44.9325" lon="4.01997">
        <ele>970.664</ele>
      </trkpt>
      <trkpt lat="44.9326" lon="4.01888">
        <ele>966.937</ele>
      </trkpt>
      <trkpt lat="44.93228" lon="4.01773">
        <ele>957.714</ele>
      </trkpt>
      <trkpt lat="44.93255" lon="4.01643">
        <ele>951.621</ele>
      </trkpt>
      <trkpt lat="44.93251" lon="4.01602">
        <ele>948.38</ele>
      </trkpt>
      <trkpt lat="44.93214" lon="4.01415">
        <ele>936.442</ele>
      </trkpt>
      <trkpt lat="44.93268" lon="4.01277">
        <ele>930.976</ele>
      </trkpt>
      <trkpt lat="44.9316" lon="4.01012">
        <ele>928.815</ele>
      </trkpt>
      <trkpt lat="44.93042" lon="4.00725">
        <ele>929.102</ele>
      </trkpt>
      <trkpt lat="44.92972" lon="4.00545">
        <ele>927.926</ele>
      </trkpt>
      <trkpt lat="44.93141" lon="4.00229">
        <ele>928.593</ele>
      </trkpt>
      <trkpt lat="44.93321" lon="3.99965">
        <ele>928.853</ele>
      </trkpt>
      <trkpt lat="44.93294" lon="3.99968">
        <ele>926.37</ele>
      </trkpt>
      <trkpt lat="44.93032" lon="4.00319">
        <ele>905.287</ele>
      </trkpt>
      <trkpt lat="44.92913" lon="4.00397">
        <ele>894.544</ele>
      </trkpt>
      <trkpt lat="44.92879" lon="4.00519">
        <ele>891.583</ele>
      </trkpt>
      <trkpt lat="44.92721" lon="4.00745">
        <ele>871.524</ele>
      </trkpt>
      <trkpt lat="44.92662" lon="4.008">
        <ele>863.047</ele>
      </trkpt>
      <trkpt lat="44.92597" lon="4.00916">
        <ele>881.801</ele>
      </trkpt>
      <trkpt lat="44.92485" lon="4.01025">
        <ele>894.285</ele>
      </trkpt>
      <trkpt lat="44.92638" lon="4.01004">
        <ele>903.829</ele>
      </trkpt>
      <trkpt lat="44.92479" lon="4.01141">
        <ele>929.359</ele>
      </trkpt>
      <trkpt lat="44.92521" lon="4.01325">
        <ele>948.884</ele>
      </trkpt>
      <trkpt lat="44.92416" lon="4.01271">
        <ele>964.048</ele>
      </trkpt>
      <trkpt lat="44.92377" lon="4.0131">
        <ele>971.796</ele>
      </trkpt>
      <trkpt lat="44.92226" lon="4.01444">
        <ele>1003.213</ele>
      </trkpt>
      <trkpt lat="44.9208" lon="4.01536">
        <ele>1007.766</ele>
      </trkpt>
      <trkpt lat="44.91988" lon="4.01766">
        <ele>1015.181</ele>
      </trkpt>
      <trkpt lat="44.91963" lon="4.01861">
        <ele>1012.017</ele>
      </trkpt>
      <trkpt lat="44.91925" lon="4.01843">
        <ele>1010.718</ele>
      </trkpt>
      <trkpt lat="44.91955" lon="4.01721">
        <ele>1005.397</ele>
      </trkpt>
      <trkpt lat="44.9192" lon="4.01665">
        <ele>999.926</ele>
      </trkpt>
      <trkpt lat="44.9191" lon="4.01668">
        <ele>1001.778</ele>
      </trkpt>
      <trkpt lat="44.91893" lon="4.01526">
        <ele>1000.352</ele>
      </trkpt>
      <trkpt lat="44.91866" lon="4.01555">
        <ele>1007.846</ele>
      </trkpt>
      <trkpt lat="44.91814" lon="4.0155">
        <ele>1016.517</ele>
      </trkpt>
      <trkpt lat="44.91758" lon="4.01745">
        <ele>1042.316</ele>
      </trkpt>
      <trkpt lat="44.91625" lon="4.01872">
        <ele>1065.263</ele>
      </trkpt>
      <trkpt lat="44.91406" lon="4.02132">
        <ele>1094.991</ele>
      </trkpt>
      <trkpt lat="44.91334" lon="4.02244">
        <ele>1103.966</ele>
      </trkpt>
      <trkpt lat="44.91293" lon="4.02384">
        <ele>1110.693</ele>
      </trkpt>
      <trkpt lat="44.91248" lon="4.02465">
        <ele>1117.554</ele>
      </trkpt>
      <trkpt lat="44.91213" lon="4.02631">
        <ele>1121.68</ele>
      </trkpt>
      <trkpt lat="44.91135" lon="4.02753">
        <ele>1121.881</ele>
      </trkpt>
      <trkpt lat="44.91076" lon="4.02838">
        <ele>1118.722</ele>
      </trkpt>
      <trkpt lat="44.91025" lon="4.02872">
        <ele>1116.875</ele>
      </trkpt>
      <trkpt lat="44.90984" lon="4.02872">
        <ele>1119.008</ele>
      </trkpt>
      <trkpt lat="44.90858" lon="4.02924">
        <ele>1115.806</ele>
      </trkpt>
      <trkpt lat="44.90783" lon="4.03018">
        <ele>1112.064</ele>
      </trkpt>
      <trkpt lat="44.907" lon="4.03041">
        <ele>1110.952</ele>
      </trkpt>
      <trkpt lat="44.90677" lon="4.03059">
        <ele>1111.132</ele>
      </trkpt>
      <trkpt lat="44.90553" lon="4.03059">
        <ele>1109.409</ele>
      </trkpt>
      <trkpt lat="44.90497" lon="4.02903">
        <ele>1102.613</ele>
      </trkpt>
      <trkpt lat="44.90431" lon="4.02935">
        <ele>1095.929</ele>
      </trkpt>
      <trkpt lat="44.9037" lon="4.02919">
        <ele>1091.489</ele>
      </trkpt>
      <trkpt lat="44.90265" lon="4.02846">
        <ele>1088</ele>
      </trkpt>
      <trkpt lat="44.9026" lon="4.0276">
        <ele>1096.439</ele>
      </trkpt>
      <trkpt lat="44.90289" lon="4.02682">
        <ele>1099.047</ele>
      </trkpt>
      <trkpt lat="44.90326" lon="4.02615">
        <ele>1098.374</ele>
      </trkpt>
      <trkpt lat="44.90298" lon="4.02537">
        <ele>1102.766</ele>
      </trkpt>
      <trkpt lat="44.90298" lon="4.02461">
        <ele>1106.538</ele>
      </trkpt>
      <trkpt lat="44.90271" lon="4.02389">
        <ele>1113.803</ele>
      </trkpt>
      <trkpt lat="44.90262" lon="4.02264">
        <ele>1125.051</ele>
      </trkpt>
      <trkpt lat="44.90373" lon="4.01817">
        <ele>1140.153</ele>
      </trkpt>
      <trkpt lat="44.90377" lon="4.01707">
        <ele>1139.799</ele>
      </trkpt>
      <trkpt lat="44.90467" lon="4.01499">
        <ele>1140.035</ele>
      </trkpt>
      <trkpt lat="44.90557" lon="4.01161">
        <ele>1156.214</ele>
      </trkpt>
      <trkpt lat="44.90611" lon="4.01096">
        <ele>1151.579</ele>
      </trkpt>
      <trkpt lat="44.90593" lon="4.0079">
        <ele>1149.753</ele>
      </trkpt>
      <trkpt lat="44.90517" lon="4.00699">
        <ele>1150.282</ele>
      </trkpt>
      <trkpt lat="44.9049" lon="4.00615">
        <ele>1150.697</ele>
      </trkpt>
      <trkpt lat="44.90014" lon="4.0016">
        <ele>1158.106</ele>
      </trkpt>
      <trkpt lat="44.89946" lon="4.00134">
        <ele>1152.026</ele>
      </trkpt>
      <trkpt lat="44.89762" lon="3.99971">
        <ele>1142.503</ele>
      </trkpt>
      <trkpt lat="44.89591" lon="3.99516">
        <ele>1126.744</ele>
      </trkpt>
      <trkpt lat="44.89344" lon="3.99074">
        <ele>1111.262</ele>
      </trkpt>
      <trkpt lat="44.89323" lon="3.99039">
        <ele>1111</ele>
      </trkpt>
      <trkpt lat="44.89215" lon="3.99083">
        <ele>1110</ele>
      </trkpt>
      <trkpt lat="44.89166" lon="3.99036">
        <ele>1109.304</ele>
      </trkpt>
      <trkpt lat="44.89111" lon="3.99039">
        <ele>1107.974</ele>
      </trkpt>
      <trkpt lat="44.89048" lon="3.99">
        <ele>1101.341</ele>
      </trkpt>
      <trkpt lat="44.8898" lon="3.9882">
        <ele>1090.048</ele>
      </trkpt>
      <trkpt lat="44.88963" lon="3.98831">
        <ele>1089.278</ele>
      </trkpt>
      <trkpt lat="44.88901" lon="3.98781">
        <ele>1081.595</ele>
      </trkpt>
      <trkpt lat="44.88888" lon="3.98797">
        <ele>1079.508</ele>
      </trkpt>
      <trkpt lat="44.88836" lon="3.98784">
        <ele>1071.153</ele>
      </trkpt>
      <trkpt lat="44.88831" lon="3.98748">
        <ele>1069.821</ele>
      </trkpt>
      <trkpt lat="44.88787" lon="3.98703">
        <ele>1069.443</ele>
      </trkpt>
      <trkpt lat="44.88681" lon="3.98818">
        <ele>1084.444</ele>
      </trkpt>
      <trkpt lat="44.88635" lon="3.98883">
        <ele>1087.749</ele>
      </trkpt>
      <trkpt lat="44.88405" lon="3.98948">
        <ele>1095.753</ele>
      </trkpt>
      <trkpt lat="44.88238" lon="3.98982">
        <ele>1102.763</ele>
      </trkpt>
      <trkpt lat="44.88098" lon="3.99042">
        <ele>1112.964</ele>
      </trkpt>
      <trkpt lat="44.88021" lon="3.99099">
        <ele>1116.105</ele>
      </trkpt>
      <trkpt lat="44.8789" lon="3.99091">
        <ele>1123.199</ele>
      </trkpt>
      <trkpt lat="44.87814" lon="3.99117">
        <ele>1131.551</ele>
      </trkpt>
      <trkpt lat="44.8775" lon="3.99125">
        <ele>1136.981</ele>
      </trkpt>
      <trkpt lat="44.87696" lon="3.99107">
        <ele>1136.834</ele>
      </trkpt>
      <trkpt lat="44.87574" lon="3.99164">
        <ele>1134.173</ele>
      </trkpt>
      <trkpt lat="44.87509" lon="3.99174">
        <ele>1129.686</ele>
      </trkpt>
      <trkpt lat="44.87412" lon="3.99125">
        <ele>1125.057</ele>
      </trkpt>
      <trkpt lat="44.87283" lon="3.99169">
        <ele>1121.918</ele>
      </trkpt>
      <trkpt lat="44.87217" lon="3.99127">
        <ele>1113.166</ele>
      </trkpt>
      <trkpt lat="44.87162" lon="3.9913">
        <ele>1108.998</ele>
      </trkpt>
      <trkpt lat="44.87095" lon="3.99192">
        <ele>1105.255</ele>
      </trkpt>
      <trkpt lat="44.87036" lon="3.99198">
        <ele>1098.7</ele>
      </trkpt>
      <trkpt lat="44.86928" lon="3.99286">
        <ele>1085.779</ele>
      </trkpt>
      <trkpt lat="44.86844" lon="3.99395">
        <ele>1067.134</ele>
      </trkpt>
      <trkpt lat="44.86761" lon="3.99463">
        <ele>1055.824</ele>
      </trkpt>
      <trkpt lat="44.86741" lon="3.99528">
        <ele>1048.317</ele>
      </trkpt>
      <trkpt lat="44.86551" lon="3.99569">
        <ele>1031.417</ele>
      </trkpt>
      <trkpt lat="44.86535" lon="3.99551">
        <ele>1029.237</ele>
      </trkpt>
      <trkpt lat="44.86559" lon="3.99377">
        <ele>1027.239</ele>
      </trkpt>
      <trkpt lat="44.86478" lon="3.99208">
        <ele>1012.555</ele>
      </trkpt>
      <trkpt lat="44.86492" lon="3.99107">
        <ele>1001.598</ele>
      </trkpt>
      <trkpt lat="44.86505" lon="3.99068">
        <ele>998.27</ele>
      </trkpt>
      <trkpt lat="44.86498" lon="3.99029">
        <ele>993.839</ele>
      </trkpt>
      <trkpt lat="44.86426" lon="3.9901">
        <ele>990.031</ele>
      </trkpt>
      <trkpt lat="44.86334" lon="3.98922">
        <ele>973.047</ele>
      </trkpt>
      <trkpt lat="44.86329" lon="3.98862">
        <ele>974.197</ele>
      </trkpt>
      <trkpt lat="44.86363" lon="3.9867">
        <ele>960.01</ele>
      </trkpt>
      <trkpt lat="44.86386" lon="3.9843">
        <ele>935.588</ele>
      </trkpt>
      <trkpt lat="44.86426" lon="3.98363">
        <ele>926.659</ele>
      </trkpt>
      <trkpt lat="44.86426" lon="3.98308">
        <ele>927.467</ele>
      </trkpt>
      <trkpt lat="44.86365" lon="3.98248">
        <ele>926.393</ele>
      </trkpt>
      <trkpt lat="44.8637" lon="3.98131">
        <ele>925.603</ele>
      </trkpt>
      <trkpt lat="44.86386" lon="3.97983">
        <ele>920.296</ele>
      </trkpt>
      <trkpt lat="44.8635" lon="3.98017">
        <ele>916.806</ele>
      </trkpt>
      <trkpt lat="44.86208" lon="3.98064">
        <ele>907.145</ele>
      </trkpt>
      <trkpt lat="44.86183" lon="3.98118">
        <ele>904.569</ele>
      </trkpt>
      <trkpt lat="44.86198" lon="3.98209">
        <ele>901.533</ele>
      </trkpt>
      <trkpt lat="44.8623" lon="3.98295">
        <ele>896.054</ele>
      </trkpt>
      <trkpt lat="44.86223" lon="3.98337">
        <ele>893.044</ele>
      </trkpt>
      <trkpt lat="44.86138" lon="3.98352">
        <ele>888.575</ele>
      </trkpt>
      <trkpt lat="44.86124" lon="3.98454">
        <ele>884.357</ele>
      </trkpt>
      <trkpt lat="44.8609" lon="3.98454">
        <ele>877.734</ele>
      </trkpt>
      <trkpt lat="44.8603" lon="3.98423">
        <ele>879.209</ele>
      </trkpt>
      <trkpt lat="44.85998" lon="3.98345">
        <ele>872.708</ele>
      </trkpt>
      <trkpt lat="44.85998" lon="3.98267">
        <ele>867.521</ele>
      </trkpt>
      <trkpt lat="44.8593" lon="3.98233">
        <ele>867.062</ele>
      </trkpt>
      <trkpt lat="44.85892" lon="3.98163">
        <ele>859.686</ele>
      </trkpt>
      <trkpt lat="44.8581" lon="3.98176">
        <ele>855.28</ele>
      </trkpt>
      <trkpt lat="44.85698" lon="3.98235">
        <ele>849.432</ele>
      </trkpt>
      <trkpt lat="44.85666" lon="3.98274">
        <ele>833.686</ele>
      </trkpt>
      <trkpt lat="44.85581" lon="3.98274">
        <ele>845.799</ele>
      </trkpt>
      <trkpt lat="44.85574" lon="3.98176">
        <ele>837.177</ele>
      </trkpt>
      <trkpt lat="44.85542" lon="3.98157">
        <ele>850.745</ele>
      </trkpt>
      <trkpt lat="44.85475" lon="3.98186">
        <ele>857.034</ele>
      </trkpt>
      <trkpt lat="44.8545" lon="3.98176">
        <ele>855.597</ele>
      </trkpt>
      <trkpt lat="44.85479" lon="3.98077">
        <ele>862.269</ele>
      </trkpt>
      <trkpt lat="44.85475" lon="3.98017">
        <ele>862.115</ele>
      </trkpt>
      <trkpt lat="44.85452" lon="3.97918">
        <ele>873.883</ele>
      </trkpt>
      <trkpt lat="44.85429" lon="3.979">
        <ele>881.359</ele>
      </trkpt>
      <trkpt lat="44.85416" lon="3.97817">
        <ele>877.946</ele>
      </trkpt>
      <trkpt lat="44.8544" lon="3.97767">
        <ele>880.468</ele>
      </trkpt>
      <trkpt lat="44.85443" lon="3.97728">
        <ele>883.367</ele>
      </trkpt>
      <trkpt lat="44.8554" lon="3.9757">
        <ele>890.687</ele>
      </trkpt>
      <trkpt lat="44.85544" lon="3.97396">
        <ele>898.029</ele>
      </trkpt>
      <trkpt lat="44.85578" lon="3.97185">
        <ele>906.921</ele>
      </trkpt>
      <trkpt lat="44.85552" lon="3.97151">
        <ele>910.719</ele>
      </trkpt>
      <trkpt lat="44.85464" lon="3.97146">
        <ele>914.821</ele>
      </trkpt>
      <trkpt lat="44.85468" lon="3.97031">
        <ele>921.31</ele>
      </trkpt>
      <trkpt lat="44.8545" lon="3.96935">
        <ele>924.633</ele>
      </trkpt>
      <trkpt lat="44.85498" lon="3.96826">
        <ele>930.681</ele>
      </trkpt>
      <trkpt lat="44.85487" lon="3.96753">
        <ele>933.463</ele>
      </trkpt>
      <trkpt lat="44.85451" lon="3.96727">
        <ele>933.798</ele>
      </trkpt>
      <trkpt lat="44.85443" lon="3.96758">
        <ele>937.316</ele>
      </trkpt>
      <trkpt lat="44.85434" lon="3.96792">
        <ele>939.746</ele>
      </trkpt>
      <trkpt lat="44.85407" lon="3.96813">
        <ele>943.085</ele>
      </trkpt>
      <trkpt lat="44.85373" lon="3.96883">
        <ele>951.48</ele>
      </trkpt>
      <trkpt lat="44.85303" lon="3.96961">
        <ele>971.968</ele>
      </trkpt>
      <trkpt lat="44.85296" lon="3.9704">
        <ele>979.082</ele>
      </trkpt>
      <trkpt lat="44.85279" lon="3.97186">
        <ele>975.136</ele>
      </trkpt>
      <trkpt lat="44.8525" lon="3.97243">
        <ele>980.437</ele>
      </trkpt>
      <trkpt lat="44.85204" lon="3.97312">
        <ele>983.607</ele>
      </trkpt>
      <trkpt lat="44.85137" lon="3.97363">
        <ele>987.943</ele>
      </trkpt>
      <trkpt lat="44.85013" lon="3.97462">
        <ele>981.689</ele>
      </trkpt>
      <trkpt lat="44.84989" lon="3.97486">
        <ele>978.767</ele>
      </trkpt>
      <trkpt lat="44.84975" lon="3.97511">
        <ele>974.894</ele>
      </trkpt>
      <trkpt lat="44.85004" lon="3.97536">
        <ele>969.119</ele>
      </trkpt>
      <trkpt lat="44.84861" lon="3.97593">
        <ele>961.349</ele>
      </trkpt>
      <trkpt lat="44.84775" lon="3.97729">
        <ele>957.842</ele>
      </trkpt>
      <trkpt lat="44.84731" lon="3.97794">
        <ele>956.352</ele>
      </trkpt>
      <trkpt lat="44.84661" lon="3.97875">
        <ele>960.867</ele>
      </trkpt>
      <trkpt lat="44.84643" lon="3.97889">
        <ele>963.481</ele>
      </trkpt>
      <trkpt lat="44.84622" lon="3.97801">
        <ele>968.077</ele>
      </trkpt>
      <trkpt lat="44.846" lon="3.9779">
        <ele>972.78</ele>
      </trkpt>
      <trkpt lat="44.8446" lon="3.97833">
        <ele>989.266</ele>
      </trkpt>
      <trkpt lat="44.84298" lon="3.97794">
        <ele>1011.792</ele>
      </trkpt>
      <trkpt lat="44.8412" lon="3.97841">
        <ele>1032.111</ele>
      </trkpt>
      <trkpt lat="44.84064" lon="3.97896">
        <ele>1035.643</ele>
      </trkpt>
      <trkpt lat="44.83907" lon="3.97826">
        <ele>1038.417</ele>
      </trkpt>
      <trkpt lat="44.83772" lon="3.97763">
        <ele>1054.186</ele>
      </trkpt>
      <trkpt lat="44.83697" lon="3.97701">
        <ele>1060.794</ele>
      </trkpt>
      <trkpt lat="44.836" lon="3.97709">
        <ele>1066.892</ele>
      </trkpt>
      <trkpt lat="44.83543" lon="3.97689">
        <ele>1075.114</ele>
      </trkpt>
      <trkpt lat="44.8346" lon="3.97716">
        <ele>1082.363</ele>
      </trkpt>
      <trkpt lat="44.83279" lon="3.97677">
        <ele>1086.805</ele>
      </trkpt>
      <trkpt lat="44.83239" lon="3.97615">
        <ele>1089.559</ele>
      </trkpt>
      <trkpt lat="44.83056" lon="3.97588">
        <ele>1103.846</ele>
      </trkpt>
      <trkpt lat="44.82967" lon="3.97478">
        <ele>1108.954</ele>
      </trkpt>
      <trkpt lat="44.82654" lon="3.97533">
        <ele>1112.611</ele>
      </trkpt>
      <trkpt lat="44.82557" lon="3.97685">
        <ele>1117.601</ele>
      </trkpt>
      <trkpt lat="44.82509" lon="3.97693">
        <ele>1116.263</ele>
      </trkpt>
      <trkpt lat="44.82468" lon="3.9772">
        <ele>1117</ele>
      </trkpt>
      <trkpt lat="44.8238" lon="3.97658">
        <ele>1123.478</ele>
      </trkpt>
      <trkpt lat="44.82347" lon="3.97716">
        <ele>1126.909</ele>
      </trkpt>
      <trkpt lat="44.82229" lon="3.97736">
        <ele>1140.787</ele>
      </trkpt>
      <trkpt lat="44.82" lon="3.97853">
        <ele>1163.448</ele>
      </trkpt>
      <trkpt lat="44.81447" lon="3.97681">
        <ele>1192.291</ele>
      </trkpt>
      <trkpt lat="44.8139" lon="3.97849">
        <ele>1189.797</ele>
      </trkpt>
      <trkpt lat="44.81199" lon="3.98106">
        <ele>1188.833</ele>
      </trkpt>
      <trkpt lat="44.81164" lon="3.98142">
        <ele>1189.077</ele>
      </trkpt>
      <trkpt lat="44.81081" lon="3.98227">
        <ele>1185.635</ele>
      </trkpt>
      <trkpt lat="44.80962" lon="3.98239">
        <ele>1184.189</ele>
      </trkpt>
      <trkpt lat="44.8093" lon="3.98208">
        <ele>1185.727</ele>
      </trkpt>
      <trkpt lat="44.80816" lon="3.98173">
        <ele>1180.263</ele>
      </trkpt>
      <trkpt lat="44.80789" lon="3.98138">
        <ele>1181.314</ele>
      </trkpt>
      <trkpt lat="44.80703" lon="3.98196">
        <ele>1175.229</ele>
      </trkpt>
      <trkpt lat="44.8061" lon="3.98223">
        <ele>1171.9</ele>
      </trkpt>
      <trkpt lat="44.80565" lon="3.98294">
        <ele>1167.072</ele>
      </trkpt>
      <trkpt lat="44.80505" lon="3.98329">
        <ele>1171.411</ele>
      </trkpt>
      <trkpt lat="44.80457" lon="3.98001">
        <ele>1186.038</ele>
      </trkpt>
      <trkpt lat="44.80446" lon="3.98017">
        <ele>1186.6</ele>
      </trkpt>
      <trkpt lat="44.80381" lon="3.98555">
        <ele>1178.15</ele>
      </trkpt>
      <trkpt lat="44.80349" lon="3.98676">
        <ele>1171.504</ele>
      </trkpt>
      <trkpt lat="44.80187" lon="3.98797">
        <ele>1161.814</ele>
      </trkpt>
      <trkpt lat="44.80088" lon="3.98863">
        <ele>1155.505</ele>
      </trkpt>
      <trkpt lat="44.79988" lon="3.98949">
        <ele>1153.91</ele>
      </trkpt>
      <trkpt lat="44.80026" lon="3.99117">
        <ele>1146.778</ele>
      </trkpt>
      <trkpt lat="44.80071" lon="3.99171">
        <ele>1141.555</ele>
      </trkpt>
      <trkpt lat="44.79942" lon="3.99175">
        <ele>1149.004</ele>
      </trkpt>
      <trkpt lat="44.79743" lon="3.99062">
        <ele>1141.802</ele>
      </trkpt>
      <trkpt lat="44.79691" lon="3.99023">
        <ele>1139.289</ele>
      </trkpt>
      <trkpt lat="44.79675" lon="3.99046">
        <ele>1138.33</ele>
      </trkpt>
      <trkpt lat="44.79646" lon="3.99011">
        <ele>1140.988</ele>
      </trkpt>
      <trkpt lat="44.79368" lon="3.98797">
        <ele>1155.105</ele>
      </trkpt>
      <trkpt lat="44.7933" lon="3.98699">
        <ele>1158.327</ele>
      </trkpt>
      <trkpt lat="44.79228" lon="3.98617">
        <ele>1171.406</ele>
      </trkpt>
      <trkpt lat="44.79064" lon="3.98563">
        <ele>1193.201</ele>
      </trkpt>
      <trkpt lat="44.79012" lon="3.98493">
        <ele>1204.198</ele>
      </trkpt>
      <trkpt lat="44.78967" lon="3.98543">
        <ele>1208.484</ele>
      </trkpt>
      <trkpt lat="44.78967" lon="3.98477">
        <ele>1213.526</ele>
      </trkpt>
      <trkpt lat="44.78918" lon="3.98469">
        <ele>1220.97</ele>
      </trkpt>
      <trkpt lat="44.78813" lon="3.98383">
        <ele>1231.736</ele>
      </trkpt>
      <trkpt lat="44.78684" lon="3.98247">
        <ele>1240</ele>
      </trkpt>
      <trkpt lat="44.78597" lon="3.9806">
        <ele>1247.783</ele>
      </trkpt>
      <trkpt lat="44.78384" lon="3.97989">
        <ele>1262.315</ele>
      </trkpt>
      <trkpt lat="44.78242" lon="3.97837">
        <ele>1284.598</ele>
      </trkpt>
      <trkpt lat="44.78153" lon="3.97623">
        <ele>1288.789</ele>
      </trkpt>
      <trkpt lat="44.7803" lon="3.97248">
        <ele>1291.619</ele>
      </trkpt>
      <trkpt lat="44.7797" lon="3.9703">
        <ele>1286.574</ele>
      </trkpt>
      <trkpt lat="44.77919" lon="3.9694">
        <ele>1282.133</ele>
      </trkpt>
      <trkpt lat="44.77865" lon="3.96928">
        <ele>1281.27</ele>
      </trkpt>
      <trkpt lat="44.77774" lon="3.9673">
        <ele>1261.747</ele>
      </trkpt>
      <trkpt lat="44.77577" lon="3.96492">
        <ele>1244.23</ele>
      </trkpt>
      <trkpt lat="44.77728" lon="3.96187">
        <ele>1229.892</ele>
      </trkpt>
      <trkpt lat="44.77892" lon="3.95875">
        <ele>1223.511</ele>
      </trkpt>
      <trkpt lat="44.77938" lon="3.95715">
        <ele>1220.577</ele>
      </trkpt>
      <trkpt lat="44.77156" lon="3.95384">
        <ele>1210.886</ele>
      </trkpt>
      <trkpt lat="44.7704" lon="3.95268">
        <ele>1206.497</ele>
      </trkpt>
      <trkpt lat="44.76954" lon="3.94894">
        <ele>1214.651</ele>
      </trkpt>
      <trkpt lat="44.7679" lon="3.94582">
        <ele>1219.138</ele>
      </trkpt>
      <trkpt lat="44.76598" lon="3.94757">
        <ele>1229.457</ele>
      </trkpt>
      <trkpt lat="44.76453" lon="3.94925">
        <ele>1233.399</ele>
      </trkpt>
      <trkpt lat="44.76289" lon="3.94995">
        <ele>1237.175</ele>
      </trkpt>
      <trkpt lat="44.762" lon="3.95151">
        <ele>1232.676</ele>
      </trkpt>
      <trkpt lat="44.76191" lon="3.95346">
        <ele>1228.387</ele>
      </trkpt>
      <trkpt lat="44.75778" lon="3.95541">
        <ele>1245.986</ele>
      </trkpt>
      <trkpt lat="44.75491" lon="3.95736">
        <ele>1263.503</ele>
      </trkpt>
      <trkpt lat="44.75365" lon="3.95723">
        <ele>1269.755</ele>
      </trkpt>
      <trkpt lat="44.7514" lon="3.95892">
        <ele>1278.584</ele>
      </trkpt>
      <trkpt lat="44.74987" lon="3.95965">
        <ele>1274.155</ele>
      </trkpt>
      <trkpt lat="44.74852" lon="3.95977">
        <ele>1270.529</ele>
      </trkpt>
      <trkpt lat="44.74715" lon="3.95907">
        <ele>1267.08</ele>
      </trkpt>
      <trkpt lat="44.74583" lon="3.95747">
        <ele>1256.79</ele>
      </trkpt>
      <trkpt lat="44.74545" lon="3.95614">
        <ele>1250.892</ele>
      </trkpt>
      <trkpt lat="44.74481" lon="3.9557">
        <ele>1235.539</ele>
      </trkpt>
      <trkpt lat="44.74463" lon="3.95484">
        <ele>1232.404</ele>
      </trkpt>
      <trkpt lat="44.74445" lon="3.95453">
        <ele>1227.492</ele>
      </trkpt>
      <trkpt lat="44.74416" lon="3.95416">
        <ele>1222.952</ele>
      </trkpt>
      <trkpt lat="44.74389" lon="3.95333">
        <ele>1219.088</ele>
      </trkpt>
      <trkpt lat="44.74386" lon="3.95299">
        <ele>1218.529</ele>
      </trkpt>
      <trkpt lat="44.74411" lon="3.95221">
        <ele>1221.139</ele>
      </trkpt>
      <trkpt lat="44.74438" lon="3.95081">
        <ele>1215.686</ele>
      </trkpt>
      <trkpt lat="44.74425" lon="3.94993">
        <ele>1212.64</ele>
      </trkpt>
      <trkpt lat="44.74386" lon="3.94829">
        <ele>1208.498</ele>
      </trkpt>
      <trkpt lat="44.74357" lon="3.94813">
        <ele>1202.849</ele>
      </trkpt>
      <trkpt lat="44.74359" lon="3.95019">
        <ele>1195.481</ele>
      </trkpt>
      <trkpt lat="44.74327" lon="3.95073">
        <ele>1191.976</ele>
      </trkpt>
      <trkpt lat="44.74276" lon="3.9512">
        <ele>1183.904</ele>
      </trkpt>
      <trkpt lat="44.74185" lon="3.95177">
        <ele>1176.911</ele>
      </trkpt>
      <trkpt lat="44.74158" lon="3.9531">
        <ele>1170.488</ele>
      </trkpt>
      <trkpt lat="44.74195" lon="3.9551">
        <ele>1157.932</ele>
      </trkpt>
      <trkpt lat="44.74113" lon="3.95632">
        <ele>1149.046</ele>
      </trkpt>
      <trkpt lat="44.74106" lon="3.95689">
        <ele>1149.727</ele>
      </trkpt>
      <trkpt lat="44.74057" lon="3.95679">
        <ele>1142.241</ele>
      </trkpt>
      <trkpt lat="44.73938" lon="3.95734">
        <ele>1128.743</ele>
      </trkpt>
      <trkpt lat="44.73919" lon="3.9584">
        <ele>1127.693</ele>
      </trkpt>
      <trkpt lat="44.7385" lon="3.96106">
        <ele>1124.223</ele>
      </trkpt>
      <trkpt lat="44.73831" lon="3.96108">
        <ele>1116.431</ele>
      </trkpt>
      <trkpt lat="44.73885" lon="3.95825">
        <ele>1111.011</ele>
      </trkpt>
      <trkpt lat="44.73867" lon="3.95817">
        <ele>1103.413</ele>
      </trkpt>
      <trkpt lat="44.73833" lon="3.95978">
        <ele>1103.047</ele>
      </trkpt>
      <trkpt lat="44.73806" lon="3.96064">
        <ele>1100.232</ele>
      </trkpt>
      <trkpt lat="44.73766" lon="3.9609">
        <ele>1095.78</ele>
      </trkpt>
      <trkpt lat="44.73739" lon="3.9602">
        <ele>1101.107</ele>
      </trkpt>
      <trkpt lat="44.73725" lon="3.95799">
        <ele>1123.62</ele>
      </trkpt>
      <trkpt lat="44.73657" lon="3.95944">
        <ele>1138.589</ele>
      </trkpt>
      <trkpt lat="44.73612" lon="3.95947">
        <ele>1148.377</ele>
      </trkpt>
      <trkpt lat="44.73626" lon="3.95762">
        <ele>1167.008</ele>
      </trkpt>
      <trkpt lat="44.7361" lon="3.95705">
        <ele>1170.14</ele>
      </trkpt>
      <trkpt lat="44.73392" lon="3.95682">
        <ele>1194.335</ele>
      </trkpt>
      <trkpt lat="44.73346" lon="3.95578">
        <ele>1199.206</ele>
      </trkpt>
      <trkpt lat="44.73222" lon="3.95453">
        <ele>1207.363</ele>
      </trkpt>
      <trkpt lat="44.73181" lon="3.95364">
        <ele>1209.842</ele>
      </trkpt>
      <trkpt lat="44.73174" lon="3.95206">
        <ele>1219.734</ele>
      </trkpt>
      <trkpt lat="44.73111" lon="3.95102">
        <ele>1223.305</ele>
      </trkpt>
      <trkpt lat="44.73037" lon="3.95026">
        <ele>1223.127</ele>
      </trkpt>
      <trkpt lat="44.7301" lon="3.94964">
        <ele>1226.181</ele>
      </trkpt>
      <trkpt lat="44.7303" lon="3.94902">
        <ele>1232.747</ele>
      </trkpt>
      <trkpt lat="44.73001" lon="3.94803">
        <ele>1242.293</ele>
      </trkpt>
      <trkpt lat="44.73003" lon="3.94748">
        <ele>1247.357</ele>
      </trkpt>
      <trkpt lat="44.72969" lon="3.94639">
        <ele>1259.754</ele>
      </trkpt>
      <trkpt lat="44.72946" lon="3.94621">
        <ele>1260.064</ele>
      </trkpt>
      <trkpt lat="44.72895" lon="3.94486">
        <ele>1269.498</ele>
      </trkpt>
      <trkpt lat="44.72863" lon="3.94452">
        <ele>1270.831</ele>
      </trkpt>
      <trkpt lat="44.72743" lon="3.94401">
        <ele>1273.417</ele>
      </trkpt>
      <trkpt lat="44.72576" lon="3.94245">
        <ele>1263.6</ele>
      </trkpt>
      <trkpt lat="44.72431" lon="3.94053">
        <ele>1250.887</ele>
      </trkpt>
      <trkpt lat="44.72294" lon="3.94118">
        <ele>1251.11</ele>
      </trkpt>
      <trkpt lat="44.72157" lon="3.94068">
        <ele>1259.277</ele>
      </trkpt>
      <trkpt lat="44.71897" lon="3.94071">
        <ele>1282.856</ele>
      </trkpt>
      <trkpt lat="44.71778" lon="3.94063">
        <ele>1283.287</ele>
      </trkpt>
      <trkpt lat="44.71507" lon="3.94087">
        <ele>1274.608</ele>
      </trkpt>
      <trkpt lat="44.71464" lon="3.94052">
        <ele>1270.564</ele>
      </trkpt>
      <trkpt lat="44.71219" lon="3.9397">
        <ele>1268.021</ele>
      </trkpt>
      <trkpt lat="44.71192" lon="3.93919">
        <ele>1264.974</ele>
      </trkpt>
      <trkpt lat="44.71011" lon="3.93938">
        <ele>1257.152</ele>
      </trkpt>
      <trkpt lat="44.70949" lon="3.93892">
        <ele>1252.195</ele>
      </trkpt>
      <trkpt lat="44.70739" lon="3.93958">
        <ele>1229.782</ele>
      </trkpt>
      <trkpt lat="44.70432" lon="3.94317">
        <ele>1209.98</ele>
      </trkpt>
      <trkpt lat="44.70267" lon="3.94457">
        <ele>1195.277</ele>
      </trkpt>
      <trkpt lat="44.70157" lon="3.94488">
        <ele>1182.952</ele>
      </trkpt>
      <trkpt lat="44.70125" lon="3.94559">
        <ele>1182.628</ele>
      </trkpt>
      <trkpt lat="44.70108" lon="3.94555">
        <ele>1179.877</ele>
      </trkpt>
      <trkpt lat="44.701" lon="3.94485">
        <ele>1176.633</ele>
      </trkpt>
      <trkpt lat="44.69944" lon="3.94457">
        <ele>1165.434</ele>
      </trkpt>
      <trkpt lat="44.69887" lon="3.945">
        <ele>1161.894</ele>
      </trkpt>
      <trkpt lat="44.69809" lon="3.94504">
        <ele>1158</ele>
      </trkpt>
      <trkpt lat="44.69774" lon="3.9457">
        <ele>1157.874</ele>
      </trkpt>
      <trkpt lat="44.69709" lon="3.94602">
        <ele>1162.72</ele>
      </trkpt>
      <trkpt lat="44.69548" lon="3.95105">
        <ele>1205.123</ele>
      </trkpt>
      <trkpt lat="44.69391" lon="3.95308">
        <ele>1230.466</ele>
      </trkpt>
      <trkpt lat="44.69346" lon="3.95467">
        <ele>1235.607</ele>
      </trkpt>
      <trkpt lat="44.69327" lon="3.95627">
        <ele>1246.606</ele>
      </trkpt>
      <trkpt lat="44.69461" lon="3.95701">
        <ele>1259.878</ele>
      </trkpt>
      <trkpt lat="44.69626" lon="3.95604">
        <ele>1261.761</ele>
      </trkpt>
      <trkpt lat="44.69782" lon="3.95635">
        <ele>1278.382</ele>
      </trkpt>
      <trkpt lat="44.69982" lon="3.95545">
        <ele>1278.835</ele>
      </trkpt>
      <trkpt lat="44.70071" lon="3.95694">
        <ele>1295.835</ele>
      </trkpt>
      <trkpt lat="44.70124" lon="3.9601">
        <ele>1316.778</ele>
      </trkpt>
      <trkpt lat="44.70178" lon="3.96064">
        <ele>1319.506</ele>
      </trkpt>
      <trkpt lat="44.70176" lon="3.96224">
        <ele>1330.358</ele>
      </trkpt>
      <trkpt lat="44.7006" lon="3.96392">
        <ele>1336.103</ele>
      </trkpt>
      <trkpt lat="44.69882" lon="3.96466">
        <ele>1349.312</ele>
      </trkpt>
      <trkpt lat="44.69823" lon="3.96485">
        <ele>1351</ele>
      </trkpt>
      <trkpt lat="44.69658" lon="3.9679">
        <ele>1363.282</ele>
      </trkpt>
      <trkpt lat="44.69292" lon="3.97484">
        <ele>1392.052</ele>
      </trkpt>
      <trkpt lat="44.6917" lon="3.97851">
        <ele>1406.479</ele>
      </trkpt>
      <trkpt lat="44.69135" lon="3.98026">
        <ele>1418.043</ele>
      </trkpt>
      <trkpt lat="44.6902" lon="3.98202">
        <ele>1427.858</ele>
      </trkpt>
      <trkpt lat="44.68932" lon="3.98237">
        <ele>1436.571</ele>
      </trkpt>
      <trkpt lat="44.68771" lon="3.9826">
        <ele>1455.26</ele>
      </trkpt>
      <trkpt lat="44.68612" lon="3.9812">
        <ele>1451.706</ele>
      </trkpt>
      <trkpt lat="44.68463" lon="3.98104">
        <ele>1447.107</ele>
      </trkpt>
      <trkpt lat="44.68213" lon="3.98233">
        <ele>1435.406</ele>
      </trkpt>
      <trkpt lat="44.67935" lon="3.98596">
        <ele>1418.812</ele>
      </trkpt>
      <trkpt lat="44.67806" lon="3.98785">
        <ele>1431.491</ele>
      </trkpt>
      <trkpt lat="44.67695" lon="3.99065">
        <ele>1444.696</ele>
      </trkpt>
      <trkpt lat="44.6755" lon="3.99221">
        <ele>1450.493</ele>
      </trkpt>
      <trkpt lat="44.67442" lon="3.9935">
        <ele>1454.038</ele>
      </trkpt>
      <trkpt lat="44.67377" lon="3.99284">
        <ele>1459.965</ele>
      </trkpt>
      <trkpt lat="44.67299" lon="3.99132">
        <ele>1471.54</ele>
      </trkpt>
      <trkpt lat="44.67294" lon="3.98956">
        <ele>1469.724</ele>
      </trkpt>
      <trkpt lat="44.67167" lon="3.99222">
        <ele>1474.012</ele>
      </trkpt>
      <trkpt lat="44.66963" lon="3.99604">
        <ele>1468</ele>
      </trkpt>
      <trkpt lat="44.66736" lon="3.99926">
        <ele>1469.31</ele>
      </trkpt>
      <trkpt lat="44.66634" lon="4.00339">
        <ele>1473.828</ele>
      </trkpt>
      <trkpt lat="44.66556" lon="4.00721">
        <ele>1470.95</ele>
      </trkpt>
      <trkpt lat="44.66464" lon="4.00996">
        <ele>1483.954</ele>
      </trkpt>
      <trkpt lat="44.66381" lon="4.01183">
        <ele>1486.985</ele>
      </trkpt>
      <trkpt lat="44.66354" lon="4.01363">
        <ele>1487.25</ele>
      </trkpt>
      <trkpt lat="44.66324" lon="4.01597">
        <ele>1474.552</ele>
      </trkpt>
      <trkpt lat="44.66467" lon="4.01777">
        <ele>1455.25</ele>
      </trkpt>
      <trkpt lat="44.6658" lon="4.01915">
        <ele>1444.123</ele>
      </trkpt>
      <trkpt lat="44.66666" lon="4.01957">
        <ele>1441.969</ele>
      </trkpt>
      <trkpt lat="44.66806" lon="4.02198">
        <ele>1436.898</ele>
      </trkpt>
      <trkpt lat="44.6693" lon="4.02279">
        <ele>1422.483</ele>
      </trkpt>
      <trkpt lat="44.67035" lon="4.02364">
        <ele>1409.322</ele>
      </trkpt>
      <trkpt lat="44.66725" lon="4.02523">
        <ele>1421.176</ele>
      </trkpt>
      <trkpt lat="44.66456" lon="4.02505">
        <ele>1412.347</ele>
      </trkpt>
      <trkpt lat="44.66265" lon="4.02654">
        <ele>1397.075</ele>
      </trkpt>
      <trkpt lat="44.66057" lon="4.02569">
        <ele>1380.789</ele>
      </trkpt>
      <trkpt lat="44.66011" lon="4.02594">
        <ele>1376.253</ele>
      </trkpt>
    </trkseg>
  </trk>
</gpx>